<?xml version="1.0" encoding="UTF-8" standalone="no" ?>
<gpx xmlns="http://www.topografix.com/GPX/1/1" xmlns:xsi="http://www.w3.org/2001/XMLSchema-instance" xsi:schemaLocation="http://www.topografix.com/GPX/1/1 http://www.topografix.com/GPX/1/1/gpx.xsd" version="1.1" creator="VisuGPX - https://www.visugpx.com">
  <metadata>
    <name>2018-11-15 Bike ride-Amberieux en Dombes O via Toussieux v42k</name>
    <desc><![CDATA[2018-11-15 Bike ride-Amberieux en Dombes O via Toussieux v42k]]></desc>
  </metadata>
  <wpt lat="45.92454" lon="4.737">
    <ele>174</ele>
    <name><![CDATA[2018-11-15 10:02 (Start)]]></name>
  </wpt>
  <wpt lat="45.92459" lon="4.73712">
    <ele>174</ele>
    <name><![CDATA[2018-11-15 10:02 (End)]]></name>
  </wpt>
  <trk>
    <name><![CDATA[2018-11-15 10:02]]></name>
    <trkseg>
      <trkpt lat="45.92454" lon="4.737">
        <ele>174</ele>
        <time>2018-11-15T09:02:14.462Z</time>
      </trkpt>
      <trkpt lat="45.92455" lon="4.73712">
        <ele>174</ele>
        <time>2018-11-15T09:02:21.961Z</time>
      </trkpt>
      <trkpt lat="45.92455" lon="4.73722">
        <ele>174</ele>
        <time>2018-11-15T09:02:22.961Z</time>
      </trkpt>
      <trkpt lat="45.92454" lon="4.73723">
        <ele>174</ele>
        <time>2018-11-15T09:02:23.961Z</time>
      </trkpt>
      <trkpt lat="45.92454" lon="4.73722">
        <ele>174</ele>
        <time>2018-11-15T09:02:24.961Z</time>
      </trkpt>
      <trkpt lat="45.92455" lon="4.73717">
        <ele>174</ele>
        <time>2018-11-15T09:02:26.952Z</time>
      </trkpt>
      <trkpt lat="45.92459" lon="4.73715">
        <ele>174</ele>
        <time>2018-11-15T09:02:28Z</time>
      </trkpt>
      <trkpt lat="45.92463" lon="4.73708">
        <ele>174</ele>
        <time>2018-11-15T09:02:54Z</time>
      </trkpt>
      <trkpt lat="45.92463" lon="4.73708">
        <ele>174</ele>
        <time>2018-11-15T09:02:55Z</time>
      </trkpt>
      <trkpt lat="45.92469" lon="4.73699">
        <ele>174</ele>
        <time>2018-11-15T09:03:03Z</time>
      </trkpt>
      <trkpt lat="45.92469" lon="4.73697">
        <ele>174</ele>
        <time>2018-11-15T09:03:04Z</time>
      </trkpt>
      <trkpt lat="45.9247" lon="4.73689">
        <ele>174</ele>
        <time>2018-11-15T09:03:07Z</time>
      </trkpt>
      <trkpt lat="45.9247" lon="4.73685">
        <ele>174</ele>
        <time>2018-11-15T09:03:08Z</time>
      </trkpt>
      <trkpt lat="45.92472" lon="4.73673">
        <ele>174</ele>
        <time>2018-11-15T09:03:11Z</time>
      </trkpt>
      <trkpt lat="45.92472" lon="4.73669">
        <ele>174</ele>
        <time>2018-11-15T09:03:12Z</time>
      </trkpt>
      <trkpt lat="45.92474" lon="4.7366">
        <ele>174</ele>
        <time>2018-11-15T09:03:13Z</time>
      </trkpt>
      <trkpt lat="45.92475" lon="4.73657">
        <ele>174</ele>
        <time>2018-11-15T09:03:14Z</time>
      </trkpt>
      <trkpt lat="45.92478" lon="4.73646">
        <ele>174</ele>
        <time>2018-11-15T09:03:17Z</time>
      </trkpt>
      <trkpt lat="45.92482" lon="4.73642">
        <ele>174</ele>
        <time>2018-11-15T09:03:18Z</time>
      </trkpt>
      <trkpt lat="45.92489" lon="4.7364">
        <ele>174</ele>
        <time>2018-11-15T09:03:20Z</time>
      </trkpt>
      <trkpt lat="45.92493" lon="4.7364">
        <ele>174</ele>
        <time>2018-11-15T09:03:21Z</time>
      </trkpt>
      <trkpt lat="45.925" lon="4.73641">
        <ele>174</ele>
        <time>2018-11-15T09:03:23Z</time>
      </trkpt>
      <trkpt lat="45.92504" lon="4.73642">
        <ele>174</ele>
        <time>2018-11-15T09:03:24Z</time>
      </trkpt>
      <trkpt lat="45.92513" lon="4.73643">
        <ele>174</ele>
        <time>2018-11-15T09:03:26Z</time>
      </trkpt>
      <trkpt lat="45.92517" lon="4.73643">
        <ele>174</ele>
        <time>2018-11-15T09:03:27Z</time>
      </trkpt>
      <trkpt lat="45.92526" lon="4.73643">
        <ele>173</ele>
        <time>2018-11-15T09:03:29Z</time>
      </trkpt>
      <trkpt lat="45.9253" lon="4.73643">
        <ele>173</ele>
        <time>2018-11-15T09:03:30Z</time>
      </trkpt>
      <trkpt lat="45.92537" lon="4.73642">
        <ele>173</ele>
        <time>2018-11-15T09:03:32Z</time>
      </trkpt>
      <trkpt lat="45.92542" lon="4.73641">
        <ele>173</ele>
        <time>2018-11-15T09:03:33Z</time>
      </trkpt>
      <trkpt lat="45.92548" lon="4.73639">
        <ele>173</ele>
        <time>2018-11-15T09:03:35Z</time>
      </trkpt>
      <trkpt lat="45.92553" lon="4.73638">
        <ele>173</ele>
        <time>2018-11-15T09:03:36Z</time>
      </trkpt>
      <trkpt lat="45.92558" lon="4.73636">
        <ele>173</ele>
        <time>2018-11-15T09:03:37Z</time>
      </trkpt>
      <trkpt lat="45.92563" lon="4.73635">
        <ele>173</ele>
        <time>2018-11-15T09:03:38Z</time>
      </trkpt>
      <trkpt lat="45.92571" lon="4.73633">
        <ele>173</ele>
        <time>2018-11-15T09:03:40Z</time>
      </trkpt>
      <trkpt lat="45.92575" lon="4.73632">
        <ele>173</ele>
        <time>2018-11-15T09:03:41Z</time>
      </trkpt>
      <trkpt lat="45.92582" lon="4.73632">
        <ele>173</ele>
        <time>2018-11-15T09:03:43Z</time>
      </trkpt>
      <trkpt lat="45.92587" lon="4.73632">
        <ele>172</ele>
        <time>2018-11-15T09:03:44Z</time>
      </trkpt>
      <trkpt lat="45.92592" lon="4.7363">
        <ele>172</ele>
        <time>2018-11-15T09:03:45Z</time>
      </trkpt>
      <trkpt lat="45.92597" lon="4.73631">
        <ele>172</ele>
        <time>2018-11-15T09:03:46Z</time>
      </trkpt>
      <trkpt lat="45.92603" lon="4.73631">
        <ele>172</ele>
        <time>2018-11-15T09:03:47Z</time>
      </trkpt>
      <trkpt lat="45.92607" lon="4.7363">
        <ele>173</ele>
        <time>2018-11-15T09:03:48Z</time>
      </trkpt>
      <trkpt lat="45.92611" lon="4.73635">
        <ele>173</ele>
        <time>2018-11-15T09:03:49Z</time>
      </trkpt>
      <trkpt lat="45.92615" lon="4.73639">
        <ele>173</ele>
        <time>2018-11-15T09:03:50Z</time>
      </trkpt>
      <trkpt lat="45.92618" lon="4.73642">
        <ele>173</ele>
        <time>2018-11-15T09:03:51Z</time>
      </trkpt>
      <trkpt lat="45.92621" lon="4.73649">
        <ele>173</ele>
        <time>2018-11-15T09:03:52Z</time>
      </trkpt>
      <trkpt lat="45.92624" lon="4.73654">
        <ele>173</ele>
        <time>2018-11-15T09:03:53Z</time>
      </trkpt>
      <trkpt lat="45.92627" lon="4.73658">
        <ele>173</ele>
        <time>2018-11-15T09:03:54Z</time>
      </trkpt>
      <trkpt lat="45.9263" lon="4.73664">
        <ele>173</ele>
        <time>2018-11-15T09:03:55Z</time>
      </trkpt>
      <trkpt lat="45.92633" lon="4.7367">
        <ele>173</ele>
        <time>2018-11-15T09:03:56Z</time>
      </trkpt>
      <trkpt lat="45.92638" lon="4.73679">
        <ele>173</ele>
        <time>2018-11-15T09:03:58Z</time>
      </trkpt>
      <trkpt lat="45.92642" lon="4.73683">
        <ele>173</ele>
        <time>2018-11-15T09:03:59Z</time>
      </trkpt>
      <trkpt lat="45.92646" lon="4.73687">
        <ele>173</ele>
        <time>2018-11-15T09:04:00Z</time>
      </trkpt>
      <trkpt lat="45.9265" lon="4.73691">
        <ele>173</ele>
        <time>2018-11-15T09:04:01Z</time>
      </trkpt>
      <trkpt lat="45.92654" lon="4.73695">
        <ele>173</ele>
        <time>2018-11-15T09:04:02Z</time>
      </trkpt>
      <trkpt lat="45.92657" lon="4.73699">
        <ele>173</ele>
        <time>2018-11-15T09:04:03Z</time>
      </trkpt>
      <trkpt lat="45.92662" lon="4.73702">
        <ele>173</ele>
        <time>2018-11-15T09:04:04Z</time>
      </trkpt>
      <trkpt lat="45.92666" lon="4.73705">
        <ele>173</ele>
        <time>2018-11-15T09:04:05Z</time>
      </trkpt>
      <trkpt lat="45.92671" lon="4.73707">
        <ele>174</ele>
        <time>2018-11-15T09:04:06Z</time>
      </trkpt>
      <trkpt lat="45.92676" lon="4.7371">
        <ele>173</ele>
        <time>2018-11-15T09:04:07Z</time>
      </trkpt>
      <trkpt lat="45.92681" lon="4.73711">
        <ele>173</ele>
        <time>2018-11-15T09:04:08Z</time>
      </trkpt>
      <trkpt lat="45.92686" lon="4.73714">
        <ele>173</ele>
        <time>2018-11-15T09:04:09Z</time>
      </trkpt>
      <trkpt lat="45.92691" lon="4.73715">
        <ele>173</ele>
        <time>2018-11-15T09:04:10Z</time>
      </trkpt>
      <trkpt lat="45.92697" lon="4.73716">
        <ele>173</ele>
        <time>2018-11-15T09:04:11Z</time>
      </trkpt>
      <trkpt lat="45.92702" lon="4.73718">
        <ele>173</ele>
        <time>2018-11-15T09:04:12Z</time>
      </trkpt>
      <trkpt lat="45.92707" lon="4.73718">
        <ele>173</ele>
        <time>2018-11-15T09:04:13Z</time>
      </trkpt>
      <trkpt lat="45.92711" lon="4.73721">
        <ele>173</ele>
        <time>2018-11-15T09:04:14Z</time>
      </trkpt>
      <trkpt lat="45.92716" lon="4.73721">
        <ele>173</ele>
        <time>2018-11-15T09:04:15Z</time>
      </trkpt>
      <trkpt lat="45.92721" lon="4.73724">
        <ele>173</ele>
        <time>2018-11-15T09:04:16Z</time>
      </trkpt>
      <trkpt lat="45.92726" lon="4.73724">
        <ele>173</ele>
        <time>2018-11-15T09:04:17Z</time>
      </trkpt>
      <trkpt lat="45.92731" lon="4.73725">
        <ele>173</ele>
        <time>2018-11-15T09:04:18Z</time>
      </trkpt>
      <trkpt lat="45.92736" lon="4.73726">
        <ele>173</ele>
        <time>2018-11-15T09:04:19Z</time>
      </trkpt>
      <trkpt lat="45.92741" lon="4.73727">
        <ele>173</ele>
        <time>2018-11-15T09:04:20Z</time>
      </trkpt>
      <trkpt lat="45.92746" lon="4.73728">
        <ele>173</ele>
        <time>2018-11-15T09:04:21Z</time>
      </trkpt>
      <trkpt lat="45.9275" lon="4.73729">
        <ele>172</ele>
        <time>2018-11-15T09:04:22Z</time>
      </trkpt>
      <trkpt lat="45.92755" lon="4.73731">
        <ele>172</ele>
        <time>2018-11-15T09:04:23Z</time>
      </trkpt>
      <trkpt lat="45.92762" lon="4.73733">
        <ele>172</ele>
        <time>2018-11-15T09:04:24Z</time>
      </trkpt>
      <trkpt lat="45.92767" lon="4.73734">
        <ele>172</ele>
        <time>2018-11-15T09:04:25Z</time>
      </trkpt>
      <trkpt lat="45.92772" lon="4.73736">
        <ele>172</ele>
        <time>2018-11-15T09:04:26Z</time>
      </trkpt>
      <trkpt lat="45.92776" lon="4.73737">
        <ele>172</ele>
        <time>2018-11-15T09:04:27Z</time>
      </trkpt>
      <trkpt lat="45.92779" lon="4.73747">
        <ele>172</ele>
        <time>2018-11-15T09:04:31Z</time>
      </trkpt>
      <trkpt lat="45.92783" lon="4.73754">
        <ele>173</ele>
        <time>2018-11-15T09:04:32Z</time>
      </trkpt>
      <trkpt lat="45.92791" lon="4.73759">
        <ele>173</ele>
        <time>2018-11-15T09:04:34Z</time>
      </trkpt>
      <trkpt lat="45.92795" lon="4.73761">
        <ele>173</ele>
        <time>2018-11-15T09:04:35Z</time>
      </trkpt>
      <trkpt lat="45.928" lon="4.73763">
        <ele>173</ele>
        <time>2018-11-15T09:04:36Z</time>
      </trkpt>
      <trkpt lat="45.92804" lon="4.73765">
        <ele>173</ele>
        <time>2018-11-15T09:04:37Z</time>
      </trkpt>
      <trkpt lat="45.9281" lon="4.73768">
        <ele>173</ele>
        <time>2018-11-15T09:04:38Z</time>
      </trkpt>
      <trkpt lat="45.92815" lon="4.73771">
        <ele>173</ele>
        <time>2018-11-15T09:04:39Z</time>
      </trkpt>
      <trkpt lat="45.9282" lon="4.73775">
        <ele>173</ele>
        <time>2018-11-15T09:04:40Z</time>
      </trkpt>
      <trkpt lat="45.92825" lon="4.73779">
        <ele>173</ele>
        <time>2018-11-15T09:04:41Z</time>
      </trkpt>
      <trkpt lat="45.9283" lon="4.73783">
        <ele>173</ele>
        <time>2018-11-15T09:04:42Z</time>
      </trkpt>
      <trkpt lat="45.92835" lon="4.73787">
        <ele>173</ele>
        <time>2018-11-15T09:04:43Z</time>
      </trkpt>
      <trkpt lat="45.9284" lon="4.7379">
        <ele>173</ele>
        <time>2018-11-15T09:04:44Z</time>
      </trkpt>
      <trkpt lat="45.92845" lon="4.73794">
        <ele>173</ele>
        <time>2018-11-15T09:04:45Z</time>
      </trkpt>
      <trkpt lat="45.9285" lon="4.73798">
        <ele>173</ele>
        <time>2018-11-15T09:04:46Z</time>
      </trkpt>
      <trkpt lat="45.92854" lon="4.73803">
        <ele>173</ele>
        <time>2018-11-15T09:04:47Z</time>
      </trkpt>
      <trkpt lat="45.92857" lon="4.7381">
        <ele>173</ele>
        <time>2018-11-15T09:04:48Z</time>
      </trkpt>
      <trkpt lat="45.92857" lon="4.73816">
        <ele>173</ele>
        <time>2018-11-15T09:04:49Z</time>
      </trkpt>
      <trkpt lat="45.92858" lon="4.73823">
        <ele>173</ele>
        <time>2018-11-15T09:04:50Z</time>
      </trkpt>
      <trkpt lat="45.9286" lon="4.73829">
        <ele>173</ele>
        <time>2018-11-15T09:04:51Z</time>
      </trkpt>
      <trkpt lat="45.92862" lon="4.73836">
        <ele>173</ele>
        <time>2018-11-15T09:04:52Z</time>
      </trkpt>
      <trkpt lat="45.92863" lon="4.73843">
        <ele>173</ele>
        <time>2018-11-15T09:04:53Z</time>
      </trkpt>
      <trkpt lat="45.92865" lon="4.7385">
        <ele>173</ele>
        <time>2018-11-15T09:04:54Z</time>
      </trkpt>
      <trkpt lat="45.92866" lon="4.73857">
        <ele>173</ele>
        <time>2018-11-15T09:04:55Z</time>
      </trkpt>
      <trkpt lat="45.92867" lon="4.73863">
        <ele>173</ele>
        <time>2018-11-15T09:04:56Z</time>
      </trkpt>
      <trkpt lat="45.92869" lon="4.73872">
        <ele>173</ele>
        <time>2018-11-15T09:04:57Z</time>
      </trkpt>
      <trkpt lat="45.92873" lon="4.73879">
        <ele>173</ele>
        <time>2018-11-15T09:04:58Z</time>
      </trkpt>
      <trkpt lat="45.92875" lon="4.73886">
        <ele>173</ele>
        <time>2018-11-15T09:04:59Z</time>
      </trkpt>
      <trkpt lat="45.92876" lon="4.73893">
        <ele>173</ele>
        <time>2018-11-15T09:05:00Z</time>
      </trkpt>
      <trkpt lat="45.92876" lon="4.73902">
        <ele>173</ele>
        <time>2018-11-15T09:05:01Z</time>
      </trkpt>
      <trkpt lat="45.92877" lon="4.73909">
        <ele>173</ele>
        <time>2018-11-15T09:05:02Z</time>
      </trkpt>
      <trkpt lat="45.92877" lon="4.73917">
        <ele>172</ele>
        <time>2018-11-15T09:05:03Z</time>
      </trkpt>
      <trkpt lat="45.92878" lon="4.73925">
        <ele>172</ele>
        <time>2018-11-15T09:05:04Z</time>
      </trkpt>
      <trkpt lat="45.92879" lon="4.73931">
        <ele>172</ele>
        <time>2018-11-15T09:05:05Z</time>
      </trkpt>
      <trkpt lat="45.92879" lon="4.73944">
        <ele>172</ele>
        <time>2018-11-15T09:05:07Z</time>
      </trkpt>
      <trkpt lat="45.92879" lon="4.73951">
        <ele>172</ele>
        <time>2018-11-15T09:05:08Z</time>
      </trkpt>
      <trkpt lat="45.92879" lon="4.73957">
        <ele>172</ele>
        <time>2018-11-15T09:05:09Z</time>
      </trkpt>
      <trkpt lat="45.92879" lon="4.73965">
        <ele>172</ele>
        <time>2018-11-15T09:05:10Z</time>
      </trkpt>
      <trkpt lat="45.92879" lon="4.73971">
        <ele>172</ele>
        <time>2018-11-15T09:05:11Z</time>
      </trkpt>
      <trkpt lat="45.92878" lon="4.73978">
        <ele>172</ele>
        <time>2018-11-15T09:05:12Z</time>
      </trkpt>
      <trkpt lat="45.92875" lon="4.7399">
        <ele>173</ele>
        <time>2018-11-15T09:05:14Z</time>
      </trkpt>
      <trkpt lat="45.92873" lon="4.73996">
        <ele>173</ele>
        <time>2018-11-15T09:05:15Z</time>
      </trkpt>
      <trkpt lat="45.92872" lon="4.74003">
        <ele>172</ele>
        <time>2018-11-15T09:05:16Z</time>
      </trkpt>
      <trkpt lat="45.92872" lon="4.7401">
        <ele>172</ele>
        <time>2018-11-15T09:05:17Z</time>
      </trkpt>
      <trkpt lat="45.92872" lon="4.74017">
        <ele>172</ele>
        <time>2018-11-15T09:05:18Z</time>
      </trkpt>
      <trkpt lat="45.92871" lon="4.74023">
        <ele>172</ele>
        <time>2018-11-15T09:05:19Z</time>
      </trkpt>
      <trkpt lat="45.92869" lon="4.74029">
        <ele>172</ele>
        <time>2018-11-15T09:05:20Z</time>
      </trkpt>
      <trkpt lat="45.92867" lon="4.74038">
        <ele>172</ele>
        <time>2018-11-15T09:05:21Z</time>
      </trkpt>
      <trkpt lat="45.92865" lon="4.74047">
        <ele>172</ele>
        <time>2018-11-15T09:05:22Z</time>
      </trkpt>
      <trkpt lat="45.92862" lon="4.74053">
        <ele>172</ele>
        <time>2018-11-15T09:05:23Z</time>
      </trkpt>
      <trkpt lat="45.92859" lon="4.74058">
        <ele>172</ele>
        <time>2018-11-15T09:05:24Z</time>
      </trkpt>
      <trkpt lat="45.92855" lon="4.74063">
        <ele>172</ele>
        <time>2018-11-15T09:05:25Z</time>
      </trkpt>
      <trkpt lat="45.92851" lon="4.74068">
        <ele>172</ele>
        <time>2018-11-15T09:05:26Z</time>
      </trkpt>
      <trkpt lat="45.92848" lon="4.74074">
        <ele>172</ele>
        <time>2018-11-15T09:05:27Z</time>
      </trkpt>
      <trkpt lat="45.92843" lon="4.74079">
        <ele>171</ele>
        <time>2018-11-15T09:05:28Z</time>
      </trkpt>
      <trkpt lat="45.92839" lon="4.74084">
        <ele>171</ele>
        <time>2018-11-15T09:05:29Z</time>
      </trkpt>
      <trkpt lat="45.92835" lon="4.74089">
        <ele>171</ele>
        <time>2018-11-15T09:05:30Z</time>
      </trkpt>
      <trkpt lat="45.92831" lon="4.74093">
        <ele>171</ele>
        <time>2018-11-15T09:05:31Z</time>
      </trkpt>
      <trkpt lat="45.92827" lon="4.74097">
        <ele>171</ele>
        <time>2018-11-15T09:05:32Z</time>
      </trkpt>
      <trkpt lat="45.92824" lon="4.74102">
        <ele>171</ele>
        <time>2018-11-15T09:05:33Z</time>
      </trkpt>
      <trkpt lat="45.92819" lon="4.74106">
        <ele>171</ele>
        <time>2018-11-15T09:05:34Z</time>
      </trkpt>
      <trkpt lat="45.92815" lon="4.74111">
        <ele>172</ele>
        <time>2018-11-15T09:05:35Z</time>
      </trkpt>
      <trkpt lat="45.92811" lon="4.74116">
        <ele>172</ele>
        <time>2018-11-15T09:05:36Z</time>
      </trkpt>
      <trkpt lat="45.92807" lon="4.7412">
        <ele>172</ele>
        <time>2018-11-15T09:05:37Z</time>
      </trkpt>
      <trkpt lat="45.92802" lon="4.74125">
        <ele>172</ele>
        <time>2018-11-15T09:05:38Z</time>
      </trkpt>
      <trkpt lat="45.92797" lon="4.74129">
        <ele>172</ele>
        <time>2018-11-15T09:05:39Z</time>
      </trkpt>
      <trkpt lat="45.92793" lon="4.74134">
        <ele>172</ele>
        <time>2018-11-15T09:05:40Z</time>
      </trkpt>
      <trkpt lat="45.92789" lon="4.74138">
        <ele>172</ele>
        <time>2018-11-15T09:05:41Z</time>
      </trkpt>
      <trkpt lat="45.92784" lon="4.74143">
        <ele>172</ele>
        <time>2018-11-15T09:05:42Z</time>
      </trkpt>
      <trkpt lat="45.9278" lon="4.74148">
        <ele>172</ele>
        <time>2018-11-15T09:05:43Z</time>
      </trkpt>
      <trkpt lat="45.92775" lon="4.74152">
        <ele>172</ele>
        <time>2018-11-15T09:05:44Z</time>
      </trkpt>
      <trkpt lat="45.9277" lon="4.74157">
        <ele>172</ele>
        <time>2018-11-15T09:05:45Z</time>
      </trkpt>
      <trkpt lat="45.92765" lon="4.74163">
        <ele>172</ele>
        <time>2018-11-15T09:05:46Z</time>
      </trkpt>
      <trkpt lat="45.9276" lon="4.74167">
        <ele>172</ele>
        <time>2018-11-15T09:05:47Z</time>
      </trkpt>
      <trkpt lat="45.92756" lon="4.74172">
        <ele>172</ele>
        <time>2018-11-15T09:05:48Z</time>
      </trkpt>
      <trkpt lat="45.92752" lon="4.74177">
        <ele>172</ele>
        <time>2018-11-15T09:05:49Z</time>
      </trkpt>
      <trkpt lat="45.92747" lon="4.74183">
        <ele>172</ele>
        <time>2018-11-15T09:05:50Z</time>
      </trkpt>
      <trkpt lat="45.92743" lon="4.74189">
        <ele>172</ele>
        <time>2018-11-15T09:05:51Z</time>
      </trkpt>
      <trkpt lat="45.92739" lon="4.74195">
        <ele>171</ele>
        <time>2018-11-15T09:05:52Z</time>
      </trkpt>
      <trkpt lat="45.92734" lon="4.742">
        <ele>171</ele>
        <time>2018-11-15T09:05:53Z</time>
      </trkpt>
      <trkpt lat="45.92729" lon="4.74204">
        <ele>171</ele>
        <time>2018-11-15T09:05:54Z</time>
      </trkpt>
      <trkpt lat="45.92725" lon="4.7421">
        <ele>171</ele>
        <time>2018-11-15T09:05:55Z</time>
      </trkpt>
      <trkpt lat="45.92721" lon="4.74216">
        <ele>171</ele>
        <time>2018-11-15T09:05:56Z</time>
      </trkpt>
      <trkpt lat="45.92717" lon="4.74223">
        <ele>171</ele>
        <time>2018-11-15T09:05:57Z</time>
      </trkpt>
      <trkpt lat="45.92713" lon="4.74229">
        <ele>171</ele>
        <time>2018-11-15T09:05:58Z</time>
      </trkpt>
      <trkpt lat="45.92709" lon="4.74235">
        <ele>171</ele>
        <time>2018-11-15T09:05:59Z</time>
      </trkpt>
      <trkpt lat="45.92705" lon="4.74241">
        <ele>171</ele>
        <time>2018-11-15T09:06:00Z</time>
      </trkpt>
      <trkpt lat="45.92701" lon="4.74247">
        <ele>171</ele>
        <time>2018-11-15T09:06:01Z</time>
      </trkpt>
      <trkpt lat="45.92698" lon="4.74254">
        <ele>171</ele>
        <time>2018-11-15T09:06:02Z</time>
      </trkpt>
      <trkpt lat="45.92693" lon="4.7426">
        <ele>171</ele>
        <time>2018-11-15T09:06:03Z</time>
      </trkpt>
      <trkpt lat="45.92689" lon="4.74267">
        <ele>171</ele>
        <time>2018-11-15T09:06:04Z</time>
      </trkpt>
      <trkpt lat="45.92686" lon="4.74275">
        <ele>171</ele>
        <time>2018-11-15T09:06:05Z</time>
      </trkpt>
      <trkpt lat="45.92683" lon="4.74281">
        <ele>171</ele>
        <time>2018-11-15T09:06:06Z</time>
      </trkpt>
      <trkpt lat="45.92678" lon="4.74287">
        <ele>171</ele>
        <time>2018-11-15T09:06:07Z</time>
      </trkpt>
      <trkpt lat="45.92675" lon="4.74294">
        <ele>171</ele>
        <time>2018-11-15T09:06:08Z</time>
      </trkpt>
      <trkpt lat="45.92671" lon="4.743">
        <ele>171</ele>
        <time>2018-11-15T09:06:09Z</time>
      </trkpt>
      <trkpt lat="45.92667" lon="4.74306">
        <ele>171</ele>
        <time>2018-11-15T09:06:10Z</time>
      </trkpt>
      <trkpt lat="45.92665" lon="4.74313">
        <ele>171</ele>
        <time>2018-11-15T09:06:11Z</time>
      </trkpt>
      <trkpt lat="45.92661" lon="4.74319">
        <ele>171</ele>
        <time>2018-11-15T09:06:12Z</time>
      </trkpt>
      <trkpt lat="45.92656" lon="4.74325">
        <ele>171</ele>
        <time>2018-11-15T09:06:13Z</time>
      </trkpt>
      <trkpt lat="45.92653" lon="4.74331">
        <ele>171</ele>
        <time>2018-11-15T09:06:14Z</time>
      </trkpt>
      <trkpt lat="45.9265" lon="4.74337">
        <ele>171</ele>
        <time>2018-11-15T09:06:15Z</time>
      </trkpt>
      <trkpt lat="45.92647" lon="4.74344">
        <ele>171</ele>
        <time>2018-11-15T09:06:16Z</time>
      </trkpt>
      <trkpt lat="45.92643" lon="4.7435">
        <ele>171</ele>
        <time>2018-11-15T09:06:17Z</time>
      </trkpt>
      <trkpt lat="45.9264" lon="4.74357">
        <ele>171</ele>
        <time>2018-11-15T09:06:18Z</time>
      </trkpt>
      <trkpt lat="45.92636" lon="4.74364">
        <ele>171</ele>
        <time>2018-11-15T09:06:19Z</time>
      </trkpt>
      <trkpt lat="45.92632" lon="4.74371">
        <ele>171</ele>
        <time>2018-11-15T09:06:20Z</time>
      </trkpt>
      <trkpt lat="45.92628" lon="4.74378">
        <ele>170</ele>
        <time>2018-11-15T09:06:21Z</time>
      </trkpt>
      <trkpt lat="45.92624" lon="4.74385">
        <ele>170</ele>
        <time>2018-11-15T09:06:22Z</time>
      </trkpt>
      <trkpt lat="45.9262" lon="4.74391">
        <ele>170</ele>
        <time>2018-11-15T09:06:23Z</time>
      </trkpt>
      <trkpt lat="45.92616" lon="4.74398">
        <ele>170</ele>
        <time>2018-11-15T09:06:24Z</time>
      </trkpt>
      <trkpt lat="45.92612" lon="4.74405">
        <ele>170</ele>
        <time>2018-11-15T09:06:25Z</time>
      </trkpt>
      <trkpt lat="45.92609" lon="4.74412">
        <ele>170</ele>
        <time>2018-11-15T09:06:26Z</time>
      </trkpt>
      <trkpt lat="45.92605" lon="4.74418">
        <ele>170</ele>
        <time>2018-11-15T09:06:27Z</time>
      </trkpt>
      <trkpt lat="45.92601" lon="4.74425">
        <ele>170</ele>
        <time>2018-11-15T09:06:28Z</time>
      </trkpt>
      <trkpt lat="45.92597" lon="4.74432">
        <ele>170</ele>
        <time>2018-11-15T09:06:29Z</time>
      </trkpt>
      <trkpt lat="45.92594" lon="4.74439">
        <ele>170</ele>
        <time>2018-11-15T09:06:30Z</time>
      </trkpt>
      <trkpt lat="45.92591" lon="4.74446">
        <ele>170</ele>
        <time>2018-11-15T09:06:31Z</time>
      </trkpt>
      <trkpt lat="45.92586" lon="4.74452">
        <ele>170</ele>
        <time>2018-11-15T09:06:32Z</time>
      </trkpt>
      <trkpt lat="45.92582" lon="4.74458">
        <ele>170</ele>
        <time>2018-11-15T09:06:33Z</time>
      </trkpt>
      <trkpt lat="45.92578" lon="4.74466">
        <ele>170</ele>
        <time>2018-11-15T09:06:34Z</time>
      </trkpt>
      <trkpt lat="45.92575" lon="4.74474">
        <ele>170</ele>
        <time>2018-11-15T09:06:35Z</time>
      </trkpt>
      <trkpt lat="45.92571" lon="4.74481">
        <ele>170</ele>
        <time>2018-11-15T09:06:36Z</time>
      </trkpt>
      <trkpt lat="45.92567" lon="4.74488">
        <ele>170</ele>
        <time>2018-11-15T09:06:37Z</time>
      </trkpt>
      <trkpt lat="45.92565" lon="4.74495">
        <ele>170</ele>
        <time>2018-11-15T09:06:38Z</time>
      </trkpt>
      <trkpt lat="45.92561" lon="4.74502">
        <ele>170</ele>
        <time>2018-11-15T09:06:39Z</time>
      </trkpt>
      <trkpt lat="45.92557" lon="4.7451">
        <ele>170</ele>
        <time>2018-11-15T09:06:40Z</time>
      </trkpt>
      <trkpt lat="45.92554" lon="4.74517">
        <ele>170</ele>
        <time>2018-11-15T09:06:41Z</time>
      </trkpt>
      <trkpt lat="45.92551" lon="4.74524">
        <ele>170</ele>
        <time>2018-11-15T09:06:42Z</time>
      </trkpt>
      <trkpt lat="45.92548" lon="4.74531">
        <ele>170</ele>
        <time>2018-11-15T09:06:43Z</time>
      </trkpt>
      <trkpt lat="45.92544" lon="4.74538">
        <ele>170</ele>
        <time>2018-11-15T09:06:44Z</time>
      </trkpt>
      <trkpt lat="45.9254" lon="4.74544">
        <ele>171</ele>
        <time>2018-11-15T09:06:45Z</time>
      </trkpt>
      <trkpt lat="45.92535" lon="4.7455">
        <ele>171</ele>
        <time>2018-11-15T09:06:46Z</time>
      </trkpt>
      <trkpt lat="45.9253" lon="4.74556">
        <ele>171</ele>
        <time>2018-11-15T09:06:47Z</time>
      </trkpt>
      <trkpt lat="45.92526" lon="4.74561">
        <ele>171</ele>
        <time>2018-11-15T09:06:48Z</time>
      </trkpt>
      <trkpt lat="45.92521" lon="4.74567">
        <ele>171</ele>
        <time>2018-11-15T09:06:49Z</time>
      </trkpt>
      <trkpt lat="45.92517" lon="4.74573">
        <ele>171</ele>
        <time>2018-11-15T09:06:50Z</time>
      </trkpt>
      <trkpt lat="45.92513" lon="4.74578">
        <ele>171</ele>
        <time>2018-11-15T09:06:51Z</time>
      </trkpt>
      <trkpt lat="45.92508" lon="4.74584">
        <ele>171</ele>
        <time>2018-11-15T09:06:52Z</time>
      </trkpt>
      <trkpt lat="45.92503" lon="4.74589">
        <ele>171</ele>
        <time>2018-11-15T09:06:53Z</time>
      </trkpt>
      <trkpt lat="45.92499" lon="4.74593">
        <ele>171</ele>
        <time>2018-11-15T09:06:54Z</time>
      </trkpt>
      <trkpt lat="45.92494" lon="4.74599">
        <ele>171</ele>
        <time>2018-11-15T09:06:55Z</time>
      </trkpt>
      <trkpt lat="45.9249" lon="4.74605">
        <ele>171</ele>
        <time>2018-11-15T09:06:56Z</time>
      </trkpt>
      <trkpt lat="45.92485" lon="4.7461">
        <ele>171</ele>
        <time>2018-11-15T09:06:57Z</time>
      </trkpt>
      <trkpt lat="45.92481" lon="4.74615">
        <ele>171</ele>
        <time>2018-11-15T09:06:58Z</time>
      </trkpt>
      <trkpt lat="45.92477" lon="4.74619">
        <ele>171</ele>
        <time>2018-11-15T09:06:59Z</time>
      </trkpt>
      <trkpt lat="45.92472" lon="4.74624">
        <ele>171</ele>
        <time>2018-11-15T09:07:00Z</time>
      </trkpt>
      <trkpt lat="45.92468" lon="4.7463">
        <ele>171</ele>
        <time>2018-11-15T09:07:01Z</time>
      </trkpt>
      <trkpt lat="45.92464" lon="4.74637">
        <ele>171</ele>
        <time>2018-11-15T09:07:02Z</time>
      </trkpt>
      <trkpt lat="45.92461" lon="4.74643">
        <ele>171</ele>
        <time>2018-11-15T09:07:03Z</time>
      </trkpt>
      <trkpt lat="45.92457" lon="4.74649">
        <ele>171</ele>
        <time>2018-11-15T09:07:04Z</time>
      </trkpt>
      <trkpt lat="45.92454" lon="4.74656">
        <ele>171</ele>
        <time>2018-11-15T09:07:05Z</time>
      </trkpt>
      <trkpt lat="45.92451" lon="4.74663">
        <ele>171</ele>
        <time>2018-11-15T09:07:06Z</time>
      </trkpt>
      <trkpt lat="45.92448" lon="4.74669">
        <ele>171</ele>
        <time>2018-11-15T09:07:07Z</time>
      </trkpt>
      <trkpt lat="45.92445" lon="4.74676">
        <ele>171</ele>
        <time>2018-11-15T09:07:08Z</time>
      </trkpt>
      <trkpt lat="45.92444" lon="4.74684">
        <ele>171</ele>
        <time>2018-11-15T09:07:09Z</time>
      </trkpt>
      <trkpt lat="45.92439" lon="4.74688">
        <ele>171</ele>
        <time>2018-11-15T09:07:10Z</time>
      </trkpt>
      <trkpt lat="45.92436" lon="4.74694">
        <ele>171</ele>
        <time>2018-11-15T09:07:11Z</time>
      </trkpt>
      <trkpt lat="45.92432" lon="4.74699">
        <ele>171</ele>
        <time>2018-11-15T09:07:12Z</time>
      </trkpt>
      <trkpt lat="45.9243" lon="4.74705">
        <ele>171</ele>
        <time>2018-11-15T09:07:13Z</time>
      </trkpt>
      <trkpt lat="45.92427" lon="4.74712">
        <ele>171</ele>
        <time>2018-11-15T09:07:14Z</time>
      </trkpt>
      <trkpt lat="45.92425" lon="4.74719">
        <ele>171</ele>
        <time>2018-11-15T09:07:15Z</time>
      </trkpt>
      <trkpt lat="45.92423" lon="4.74727">
        <ele>171</ele>
        <time>2018-11-15T09:07:16Z</time>
      </trkpt>
      <trkpt lat="45.9242" lon="4.74734">
        <ele>171</ele>
        <time>2018-11-15T09:07:17Z</time>
      </trkpt>
      <trkpt lat="45.92418" lon="4.74742">
        <ele>172</ele>
        <time>2018-11-15T09:07:18Z</time>
      </trkpt>
      <trkpt lat="45.92415" lon="4.74749">
        <ele>172</ele>
        <time>2018-11-15T09:07:19Z</time>
      </trkpt>
      <trkpt lat="45.92414" lon="4.74757">
        <ele>172</ele>
        <time>2018-11-15T09:07:20Z</time>
      </trkpt>
      <trkpt lat="45.92411" lon="4.74765">
        <ele>172</ele>
        <time>2018-11-15T09:07:21Z</time>
      </trkpt>
      <trkpt lat="45.92409" lon="4.74774">
        <ele>171</ele>
        <time>2018-11-15T09:07:22Z</time>
      </trkpt>
      <trkpt lat="45.92408" lon="4.74782">
        <ele>171</ele>
        <time>2018-11-15T09:07:23Z</time>
      </trkpt>
      <trkpt lat="45.92406" lon="4.74791">
        <ele>171</ele>
        <time>2018-11-15T09:07:24Z</time>
      </trkpt>
      <trkpt lat="45.92404" lon="4.74799">
        <ele>171</ele>
        <time>2018-11-15T09:07:25Z</time>
      </trkpt>
      <trkpt lat="45.92403" lon="4.74807">
        <ele>171</ele>
        <time>2018-11-15T09:07:26Z</time>
      </trkpt>
      <trkpt lat="45.92402" lon="4.74815">
        <ele>171</ele>
        <time>2018-11-15T09:07:27Z</time>
      </trkpt>
      <trkpt lat="45.92399" lon="4.74823">
        <ele>171</ele>
        <time>2018-11-15T09:07:28Z</time>
      </trkpt>
      <trkpt lat="45.92398" lon="4.74831">
        <ele>171</ele>
        <time>2018-11-15T09:07:29Z</time>
      </trkpt>
      <trkpt lat="45.92396" lon="4.7484">
        <ele>171</ele>
        <time>2018-11-15T09:07:30Z</time>
      </trkpt>
      <trkpt lat="45.92393" lon="4.74848">
        <ele>171</ele>
        <time>2018-11-15T09:07:31Z</time>
      </trkpt>
      <trkpt lat="45.92391" lon="4.74856">
        <ele>171</ele>
        <time>2018-11-15T09:07:32Z</time>
      </trkpt>
      <trkpt lat="45.92389" lon="4.74865">
        <ele>171</ele>
        <time>2018-11-15T09:07:33Z</time>
      </trkpt>
      <trkpt lat="45.92386" lon="4.74873">
        <ele>171</ele>
        <time>2018-11-15T09:07:34Z</time>
      </trkpt>
      <trkpt lat="45.92382" lon="4.7488">
        <ele>171</ele>
        <time>2018-11-15T09:07:35Z</time>
      </trkpt>
      <trkpt lat="45.92379" lon="4.74888">
        <ele>171</ele>
        <time>2018-11-15T09:07:36Z</time>
      </trkpt>
      <trkpt lat="45.92377" lon="4.74897">
        <ele>171</ele>
        <time>2018-11-15T09:07:37Z</time>
      </trkpt>
      <trkpt lat="45.92373" lon="4.74905">
        <ele>171</ele>
        <time>2018-11-15T09:07:38Z</time>
      </trkpt>
      <trkpt lat="45.9237" lon="4.74913">
        <ele>171</ele>
        <time>2018-11-15T09:07:39Z</time>
      </trkpt>
      <trkpt lat="45.92367" lon="4.74921">
        <ele>170</ele>
        <time>2018-11-15T09:07:40Z</time>
      </trkpt>
      <trkpt lat="45.92364" lon="4.74929">
        <ele>170</ele>
        <time>2018-11-15T09:07:41Z</time>
      </trkpt>
      <trkpt lat="45.92361" lon="4.74936">
        <ele>170</ele>
        <time>2018-11-15T09:07:42Z</time>
      </trkpt>
      <trkpt lat="45.92358" lon="4.74944">
        <ele>170</ele>
        <time>2018-11-15T09:07:43Z</time>
      </trkpt>
      <trkpt lat="45.92355" lon="4.74951">
        <ele>170</ele>
        <time>2018-11-15T09:07:44Z</time>
      </trkpt>
      <trkpt lat="45.92352" lon="4.74958">
        <ele>170</ele>
        <time>2018-11-15T09:07:45Z</time>
      </trkpt>
      <trkpt lat="45.9235" lon="4.74965">
        <ele>170</ele>
        <time>2018-11-15T09:07:46Z</time>
      </trkpt>
      <trkpt lat="45.92347" lon="4.7497">
        <ele>170</ele>
        <time>2018-11-15T09:07:47Z</time>
      </trkpt>
      <trkpt lat="45.92344" lon="4.74977">
        <ele>170</ele>
        <time>2018-11-15T09:07:48Z</time>
      </trkpt>
      <trkpt lat="45.9234" lon="4.74982">
        <ele>170</ele>
        <time>2018-11-15T09:07:49Z</time>
      </trkpt>
      <trkpt lat="45.92337" lon="4.74988">
        <ele>170</ele>
        <time>2018-11-15T09:07:50Z</time>
      </trkpt>
      <trkpt lat="45.92334" lon="4.74997">
        <ele>170</ele>
        <time>2018-11-15T09:07:51Z</time>
      </trkpt>
      <trkpt lat="45.92331" lon="4.75004">
        <ele>170</ele>
        <time>2018-11-15T09:07:52Z</time>
      </trkpt>
      <trkpt lat="45.92328" lon="4.75011">
        <ele>171</ele>
        <time>2018-11-15T09:07:53Z</time>
      </trkpt>
      <trkpt lat="45.92324" lon="4.75019">
        <ele>171</ele>
        <time>2018-11-15T09:07:54Z</time>
      </trkpt>
      <trkpt lat="45.9232" lon="4.75025">
        <ele>171</ele>
        <time>2018-11-15T09:07:55Z</time>
      </trkpt>
      <trkpt lat="45.92316" lon="4.75032">
        <ele>171</ele>
        <time>2018-11-15T09:07:56Z</time>
      </trkpt>
      <trkpt lat="45.92313" lon="4.75039">
        <ele>172</ele>
        <time>2018-11-15T09:07:57Z</time>
      </trkpt>
      <trkpt lat="45.92309" lon="4.75046">
        <ele>172</ele>
        <time>2018-11-15T09:07:58Z</time>
      </trkpt>
      <trkpt lat="45.92305" lon="4.75052">
        <ele>172</ele>
        <time>2018-11-15T09:07:59Z</time>
      </trkpt>
      <trkpt lat="45.92301" lon="4.75059">
        <ele>172</ele>
        <time>2018-11-15T09:08:00Z</time>
      </trkpt>
      <trkpt lat="45.92297" lon="4.75067">
        <ele>172</ele>
        <time>2018-11-15T09:08:01Z</time>
      </trkpt>
      <trkpt lat="45.92292" lon="4.75073">
        <ele>172</ele>
        <time>2018-11-15T09:08:02Z</time>
      </trkpt>
      <trkpt lat="45.92288" lon="4.75078">
        <ele>172</ele>
        <time>2018-11-15T09:08:03Z</time>
      </trkpt>
      <trkpt lat="45.92284" lon="4.75083">
        <ele>172</ele>
        <time>2018-11-15T09:08:04Z</time>
      </trkpt>
      <trkpt lat="45.92281" lon="4.75087">
        <ele>173</ele>
        <time>2018-11-15T09:08:05Z</time>
      </trkpt>
      <trkpt lat="45.92277" lon="4.75091">
        <ele>173</ele>
        <time>2018-11-15T09:08:06Z</time>
      </trkpt>
      <trkpt lat="45.92273" lon="4.75096">
        <ele>173</ele>
        <time>2018-11-15T09:08:07Z</time>
      </trkpt>
      <trkpt lat="45.92269" lon="4.751">
        <ele>173</ele>
        <time>2018-11-15T09:08:08Z</time>
      </trkpt>
      <trkpt lat="45.92265" lon="4.75105">
        <ele>173</ele>
        <time>2018-11-15T09:08:09Z</time>
      </trkpt>
      <trkpt lat="45.92261" lon="4.75109">
        <ele>174</ele>
        <time>2018-11-15T09:08:10Z</time>
      </trkpt>
      <trkpt lat="45.92257" lon="4.75114">
        <ele>174</ele>
        <time>2018-11-15T09:08:11Z</time>
      </trkpt>
      <trkpt lat="45.92253" lon="4.75118">
        <ele>174</ele>
        <time>2018-11-15T09:08:12Z</time>
      </trkpt>
      <trkpt lat="45.92249" lon="4.75123">
        <ele>174</ele>
        <time>2018-11-15T09:08:13Z</time>
      </trkpt>
      <trkpt lat="45.92245" lon="4.75128">
        <ele>174</ele>
        <time>2018-11-15T09:08:14Z</time>
      </trkpt>
      <trkpt lat="45.92242" lon="4.75132">
        <ele>174</ele>
        <time>2018-11-15T09:08:15Z</time>
      </trkpt>
      <trkpt lat="45.9224" lon="4.75137">
        <ele>174</ele>
        <time>2018-11-15T09:08:16Z</time>
      </trkpt>
      <trkpt lat="45.92236" lon="4.75142">
        <ele>174</ele>
        <time>2018-11-15T09:08:17Z</time>
      </trkpt>
      <trkpt lat="45.92233" lon="4.75147">
        <ele>174</ele>
        <time>2018-11-15T09:08:18Z</time>
      </trkpt>
      <trkpt lat="45.9223" lon="4.75154">
        <ele>174</ele>
        <time>2018-11-15T09:08:19Z</time>
      </trkpt>
      <trkpt lat="45.92227" lon="4.7516">
        <ele>174</ele>
        <time>2018-11-15T09:08:20Z</time>
      </trkpt>
      <trkpt lat="45.92224" lon="4.75166">
        <ele>174</ele>
        <time>2018-11-15T09:08:21Z</time>
      </trkpt>
      <trkpt lat="45.92221" lon="4.75172">
        <ele>175</ele>
        <time>2018-11-15T09:08:22Z</time>
      </trkpt>
      <trkpt lat="45.92219" lon="4.75178">
        <ele>175</ele>
        <time>2018-11-15T09:08:23Z</time>
      </trkpt>
      <trkpt lat="45.92215" lon="4.7519">
        <ele>175</ele>
        <time>2018-11-15T09:08:25Z</time>
      </trkpt>
      <trkpt lat="45.92214" lon="4.75197">
        <ele>175</ele>
        <time>2018-11-15T09:08:26Z</time>
      </trkpt>
      <trkpt lat="45.92213" lon="4.75204">
        <ele>175</ele>
        <time>2018-11-15T09:08:27Z</time>
      </trkpt>
      <trkpt lat="45.92212" lon="4.75211">
        <ele>175</ele>
        <time>2018-11-15T09:08:28Z</time>
      </trkpt>
      <trkpt lat="45.92212" lon="4.75218">
        <ele>175</ele>
        <time>2018-11-15T09:08:29Z</time>
      </trkpt>
      <trkpt lat="45.92211" lon="4.75224">
        <ele>175</ele>
        <time>2018-11-15T09:08:30Z</time>
      </trkpt>
      <trkpt lat="45.92211" lon="4.7523">
        <ele>175</ele>
        <time>2018-11-15T09:08:31Z</time>
      </trkpt>
      <trkpt lat="45.9221" lon="4.75237">
        <ele>175</ele>
        <time>2018-11-15T09:08:32Z</time>
      </trkpt>
      <trkpt lat="45.9221" lon="4.75243">
        <ele>175</ele>
        <time>2018-11-15T09:08:33Z</time>
      </trkpt>
      <trkpt lat="45.9221" lon="4.75251">
        <ele>175</ele>
        <time>2018-11-15T09:08:34Z</time>
      </trkpt>
      <trkpt lat="45.92208" lon="4.75262">
        <ele>176</ele>
        <time>2018-11-15T09:08:36Z</time>
      </trkpt>
      <trkpt lat="45.92208" lon="4.75269">
        <ele>176</ele>
        <time>2018-11-15T09:08:37Z</time>
      </trkpt>
      <trkpt lat="45.92207" lon="4.75281">
        <ele>176</ele>
        <time>2018-11-15T09:08:39Z</time>
      </trkpt>
      <trkpt lat="45.92208" lon="4.75287">
        <ele>176</ele>
        <time>2018-11-15T09:08:40Z</time>
      </trkpt>
      <trkpt lat="45.92207" lon="4.75295">
        <ele>176</ele>
        <time>2018-11-15T09:08:41Z</time>
      </trkpt>
      <trkpt lat="45.92207" lon="4.75302">
        <ele>176</ele>
        <time>2018-11-15T09:08:42Z</time>
      </trkpt>
      <trkpt lat="45.92208" lon="4.75308">
        <ele>176</ele>
        <time>2018-11-15T09:08:43Z</time>
      </trkpt>
      <trkpt lat="45.92207" lon="4.75315">
        <ele>176</ele>
        <time>2018-11-15T09:08:44Z</time>
      </trkpt>
      <trkpt lat="45.92205" lon="4.75322">
        <ele>176</ele>
        <time>2018-11-15T09:08:45Z</time>
      </trkpt>
      <trkpt lat="45.92204" lon="4.7533">
        <ele>176</ele>
        <time>2018-11-15T09:08:46Z</time>
      </trkpt>
      <trkpt lat="45.92203" lon="4.75336">
        <ele>177</ele>
        <time>2018-11-15T09:08:47Z</time>
      </trkpt>
      <trkpt lat="45.92201" lon="4.75342">
        <ele>177</ele>
        <time>2018-11-15T09:08:48Z</time>
      </trkpt>
      <trkpt lat="45.92199" lon="4.75349">
        <ele>177</ele>
        <time>2018-11-15T09:08:49Z</time>
      </trkpt>
      <trkpt lat="45.922" lon="4.75355">
        <ele>177</ele>
        <time>2018-11-15T09:08:50Z</time>
      </trkpt>
      <trkpt lat="45.92197" lon="4.75361">
        <ele>177</ele>
        <time>2018-11-15T09:08:51Z</time>
      </trkpt>
      <trkpt lat="45.92193" lon="4.75368">
        <ele>177</ele>
        <time>2018-11-15T09:08:52Z</time>
      </trkpt>
      <trkpt lat="45.9219" lon="4.75375">
        <ele>177</ele>
        <time>2018-11-15T09:08:53Z</time>
      </trkpt>
      <trkpt lat="45.92188" lon="4.75381">
        <ele>177</ele>
        <time>2018-11-15T09:08:54Z</time>
      </trkpt>
      <trkpt lat="45.92185" lon="4.75387">
        <ele>177</ele>
        <time>2018-11-15T09:08:55Z</time>
      </trkpt>
      <trkpt lat="45.92183" lon="4.75396">
        <ele>177</ele>
        <time>2018-11-15T09:08:56Z</time>
      </trkpt>
      <trkpt lat="45.92179" lon="4.75402">
        <ele>177</ele>
        <time>2018-11-15T09:08:57Z</time>
      </trkpt>
      <trkpt lat="45.92176" lon="4.75409">
        <ele>177</ele>
        <time>2018-11-15T09:08:58Z</time>
      </trkpt>
      <trkpt lat="45.92173" lon="4.75414">
        <ele>178</ele>
        <time>2018-11-15T09:08:59Z</time>
      </trkpt>
      <trkpt lat="45.92171" lon="4.75421">
        <ele>178</ele>
        <time>2018-11-15T09:09:00Z</time>
      </trkpt>
      <trkpt lat="45.9217" lon="4.75429">
        <ele>177</ele>
        <time>2018-11-15T09:09:01Z</time>
      </trkpt>
      <trkpt lat="45.92168" lon="4.75435">
        <ele>177</ele>
        <time>2018-11-15T09:09:02Z</time>
      </trkpt>
      <trkpt lat="45.92164" lon="4.75441">
        <ele>177</ele>
        <time>2018-11-15T09:09:03Z</time>
      </trkpt>
      <trkpt lat="45.92161" lon="4.75445">
        <ele>177</ele>
        <time>2018-11-15T09:09:04Z</time>
      </trkpt>
      <trkpt lat="45.92159" lon="4.75451">
        <ele>176</ele>
        <time>2018-11-15T09:09:05Z</time>
      </trkpt>
      <trkpt lat="45.92157" lon="4.75458">
        <ele>176</ele>
        <time>2018-11-15T09:09:06Z</time>
      </trkpt>
      <trkpt lat="45.92155" lon="4.75464">
        <ele>176</ele>
        <time>2018-11-15T09:09:07Z</time>
      </trkpt>
      <trkpt lat="45.92153" lon="4.75472">
        <ele>176</ele>
        <time>2018-11-15T09:09:08Z</time>
      </trkpt>
      <trkpt lat="45.92149" lon="4.75479">
        <ele>176</ele>
        <time>2018-11-15T09:09:09Z</time>
      </trkpt>
      <trkpt lat="45.92146" lon="4.75487">
        <ele>176</ele>
        <time>2018-11-15T09:09:10Z</time>
      </trkpt>
      <trkpt lat="45.92142" lon="4.75493">
        <ele>176</ele>
        <time>2018-11-15T09:09:11Z</time>
      </trkpt>
      <trkpt lat="45.92139" lon="4.755">
        <ele>175</ele>
        <time>2018-11-15T09:09:12Z</time>
      </trkpt>
      <trkpt lat="45.92135" lon="4.75507">
        <ele>174</ele>
        <time>2018-11-15T09:09:13Z</time>
      </trkpt>
      <trkpt lat="45.92132" lon="4.75515">
        <ele>174</ele>
        <time>2018-11-15T09:09:14Z</time>
      </trkpt>
      <trkpt lat="45.92128" lon="4.75522">
        <ele>174</ele>
        <time>2018-11-15T09:09:15Z</time>
      </trkpt>
      <trkpt lat="45.92125" lon="4.7553">
        <ele>174</ele>
        <time>2018-11-15T09:09:16Z</time>
      </trkpt>
      <trkpt lat="45.92122" lon="4.75538">
        <ele>174</ele>
        <time>2018-11-15T09:09:17Z</time>
      </trkpt>
      <trkpt lat="45.92118" lon="4.75546">
        <ele>174</ele>
        <time>2018-11-15T09:09:18Z</time>
      </trkpt>
      <trkpt lat="45.92116" lon="4.75553">
        <ele>174</ele>
        <time>2018-11-15T09:09:19Z</time>
      </trkpt>
      <trkpt lat="45.92112" lon="4.7556">
        <ele>174</ele>
        <time>2018-11-15T09:09:20Z</time>
      </trkpt>
      <trkpt lat="45.9211" lon="4.75567">
        <ele>174</ele>
        <time>2018-11-15T09:09:21Z</time>
      </trkpt>
      <trkpt lat="45.92109" lon="4.75576">
        <ele>174</ele>
        <time>2018-11-15T09:09:22Z</time>
      </trkpt>
      <trkpt lat="45.92109" lon="4.75583">
        <ele>174</ele>
        <time>2018-11-15T09:09:23Z</time>
      </trkpt>
      <trkpt lat="45.92111" lon="4.75589">
        <ele>174</ele>
        <time>2018-11-15T09:09:24Z</time>
      </trkpt>
      <trkpt lat="45.92114" lon="4.75595">
        <ele>174</ele>
        <time>2018-11-15T09:09:25Z</time>
      </trkpt>
      <trkpt lat="45.92119" lon="4.75599">
        <ele>174</ele>
        <time>2018-11-15T09:09:26Z</time>
      </trkpt>
      <trkpt lat="45.92123" lon="4.75603">
        <ele>174</ele>
        <time>2018-11-15T09:09:27Z</time>
      </trkpt>
      <trkpt lat="45.92127" lon="4.75606">
        <ele>174</ele>
        <time>2018-11-15T09:09:28Z</time>
      </trkpt>
      <trkpt lat="45.92132" lon="4.7561">
        <ele>174</ele>
        <time>2018-11-15T09:09:29Z</time>
      </trkpt>
      <trkpt lat="45.92139" lon="4.75614">
        <ele>174</ele>
        <time>2018-11-15T09:09:30Z</time>
      </trkpt>
      <trkpt lat="45.92143" lon="4.75618">
        <ele>174</ele>
        <time>2018-11-15T09:09:31Z</time>
      </trkpt>
      <trkpt lat="45.92148" lon="4.75622">
        <ele>174</ele>
        <time>2018-11-15T09:09:32Z</time>
      </trkpt>
      <trkpt lat="45.92151" lon="4.75626">
        <ele>174</ele>
        <time>2018-11-15T09:09:33Z</time>
      </trkpt>
      <trkpt lat="45.92155" lon="4.75629">
        <ele>174</ele>
        <time>2018-11-15T09:09:34Z</time>
      </trkpt>
      <trkpt lat="45.92159" lon="4.75634">
        <ele>174</ele>
        <time>2018-11-15T09:09:35Z</time>
      </trkpt>
      <trkpt lat="45.92163" lon="4.75638">
        <ele>174</ele>
        <time>2018-11-15T09:09:36Z</time>
      </trkpt>
      <trkpt lat="45.92168" lon="4.75642">
        <ele>174</ele>
        <time>2018-11-15T09:09:37Z</time>
      </trkpt>
      <trkpt lat="45.92171" lon="4.75648">
        <ele>174</ele>
        <time>2018-11-15T09:09:38Z</time>
      </trkpt>
      <trkpt lat="45.92176" lon="4.75652">
        <ele>174</ele>
        <time>2018-11-15T09:09:39Z</time>
      </trkpt>
      <trkpt lat="45.9218" lon="4.75656">
        <ele>174</ele>
        <time>2018-11-15T09:09:40Z</time>
      </trkpt>
      <trkpt lat="45.92184" lon="4.7566">
        <ele>174</ele>
        <time>2018-11-15T09:09:41Z</time>
      </trkpt>
      <trkpt lat="45.92188" lon="4.75665">
        <ele>174</ele>
        <time>2018-11-15T09:09:42Z</time>
      </trkpt>
      <trkpt lat="45.92195" lon="4.75672">
        <ele>174</ele>
        <time>2018-11-15T09:09:44Z</time>
      </trkpt>
      <trkpt lat="45.922" lon="4.75675">
        <ele>174</ele>
        <time>2018-11-15T09:09:45Z</time>
      </trkpt>
      <trkpt lat="45.92205" lon="4.75679">
        <ele>174</ele>
        <time>2018-11-15T09:09:46Z</time>
      </trkpt>
      <trkpt lat="45.92209" lon="4.75684">
        <ele>174</ele>
        <time>2018-11-15T09:09:47Z</time>
      </trkpt>
      <trkpt lat="45.92216" lon="4.7569">
        <ele>174</ele>
        <time>2018-11-15T09:09:48Z</time>
      </trkpt>
      <trkpt lat="45.9222" lon="4.75695">
        <ele>174</ele>
        <time>2018-11-15T09:09:49Z</time>
      </trkpt>
      <trkpt lat="45.92225" lon="4.75699">
        <ele>174</ele>
        <time>2018-11-15T09:09:50Z</time>
      </trkpt>
      <trkpt lat="45.92229" lon="4.75704">
        <ele>174</ele>
        <time>2018-11-15T09:09:51Z</time>
      </trkpt>
      <trkpt lat="45.92233" lon="4.75709">
        <ele>174</ele>
        <time>2018-11-15T09:09:52Z</time>
      </trkpt>
      <trkpt lat="45.92236" lon="4.75715">
        <ele>174</ele>
        <time>2018-11-15T09:09:53Z</time>
      </trkpt>
      <trkpt lat="45.92238" lon="4.75721">
        <ele>174</ele>
        <time>2018-11-15T09:09:54Z</time>
      </trkpt>
      <trkpt lat="45.92241" lon="4.75727">
        <ele>174</ele>
        <time>2018-11-15T09:09:55Z</time>
      </trkpt>
      <trkpt lat="45.92243" lon="4.75733">
        <ele>174</ele>
        <time>2018-11-15T09:09:56Z</time>
      </trkpt>
      <trkpt lat="45.92245" lon="4.75739">
        <ele>174</ele>
        <time>2018-11-15T09:09:57Z</time>
      </trkpt>
      <trkpt lat="45.92248" lon="4.75751">
        <ele>174</ele>
        <time>2018-11-15T09:09:59Z</time>
      </trkpt>
      <trkpt lat="45.92249" lon="4.75758">
        <ele>174</ele>
        <time>2018-11-15T09:10:00Z</time>
      </trkpt>
      <trkpt lat="45.92251" lon="4.75769">
        <ele>174</ele>
        <time>2018-11-15T09:10:02Z</time>
      </trkpt>
      <trkpt lat="45.92251" lon="4.75775">
        <ele>174</ele>
        <time>2018-11-15T09:10:03Z</time>
      </trkpt>
      <trkpt lat="45.92253" lon="4.75788">
        <ele>174</ele>
        <time>2018-11-15T09:10:05Z</time>
      </trkpt>
      <trkpt lat="45.92254" lon="4.75793">
        <ele>174</ele>
        <time>2018-11-15T09:10:06Z</time>
      </trkpt>
      <trkpt lat="45.92257" lon="4.75804">
        <ele>174</ele>
        <time>2018-11-15T09:10:08Z</time>
      </trkpt>
      <trkpt lat="45.92259" lon="4.7581">
        <ele>174</ele>
        <time>2018-11-15T09:10:09Z</time>
      </trkpt>
      <trkpt lat="45.92263" lon="4.75816">
        <ele>174</ele>
        <time>2018-11-15T09:10:10Z</time>
      </trkpt>
      <trkpt lat="45.92267" lon="4.75822">
        <ele>174</ele>
        <time>2018-11-15T09:10:11Z</time>
      </trkpt>
      <trkpt lat="45.92271" lon="4.75827">
        <ele>174</ele>
        <time>2018-11-15T09:10:12Z</time>
      </trkpt>
      <trkpt lat="45.92275" lon="4.7583">
        <ele>174</ele>
        <time>2018-11-15T09:10:13Z</time>
      </trkpt>
      <trkpt lat="45.9228" lon="4.75834">
        <ele>173</ele>
        <time>2018-11-15T09:10:14Z</time>
      </trkpt>
      <trkpt lat="45.92285" lon="4.75837">
        <ele>173</ele>
        <time>2018-11-15T09:10:15Z</time>
      </trkpt>
      <trkpt lat="45.9229" lon="4.7584">
        <ele>173</ele>
        <time>2018-11-15T09:10:16Z</time>
      </trkpt>
      <trkpt lat="45.92294" lon="4.75843">
        <ele>173</ele>
        <time>2018-11-15T09:10:17Z</time>
      </trkpt>
      <trkpt lat="45.92299" lon="4.75845">
        <ele>173</ele>
        <time>2018-11-15T09:10:18Z</time>
      </trkpt>
      <trkpt lat="45.92304" lon="4.75848">
        <ele>173</ele>
        <time>2018-11-15T09:10:19Z</time>
      </trkpt>
      <trkpt lat="45.9231" lon="4.75851">
        <ele>173</ele>
        <time>2018-11-15T09:10:20Z</time>
      </trkpt>
      <trkpt lat="45.92314" lon="4.75853">
        <ele>173</ele>
        <time>2018-11-15T09:10:21Z</time>
      </trkpt>
      <trkpt lat="45.92319" lon="4.75856">
        <ele>173</ele>
        <time>2018-11-15T09:10:22Z</time>
      </trkpt>
      <trkpt lat="45.92324" lon="4.75859">
        <ele>173</ele>
        <time>2018-11-15T09:10:23Z</time>
      </trkpt>
      <trkpt lat="45.92328" lon="4.75863">
        <ele>173</ele>
        <time>2018-11-15T09:10:24Z</time>
      </trkpt>
      <trkpt lat="45.92334" lon="4.75866">
        <ele>173</ele>
        <time>2018-11-15T09:10:25Z</time>
      </trkpt>
      <trkpt lat="45.92339" lon="4.7587">
        <ele>173</ele>
        <time>2018-11-15T09:10:26Z</time>
      </trkpt>
      <trkpt lat="45.92344" lon="4.75873">
        <ele>173</ele>
        <time>2018-11-15T09:10:27Z</time>
      </trkpt>
      <trkpt lat="45.92349" lon="4.75878">
        <ele>173</ele>
        <time>2018-11-15T09:10:28Z</time>
      </trkpt>
      <trkpt lat="45.92354" lon="4.75881">
        <ele>173</ele>
        <time>2018-11-15T09:10:29Z</time>
      </trkpt>
      <trkpt lat="45.9236" lon="4.75883">
        <ele>173</ele>
        <time>2018-11-15T09:10:30Z</time>
      </trkpt>
      <trkpt lat="45.92365" lon="4.75887">
        <ele>173</ele>
        <time>2018-11-15T09:10:31Z</time>
      </trkpt>
      <trkpt lat="45.92369" lon="4.7589">
        <ele>173</ele>
        <time>2018-11-15T09:10:32Z</time>
      </trkpt>
      <trkpt lat="45.92374" lon="4.75892">
        <ele>173</ele>
        <time>2018-11-15T09:10:33Z</time>
      </trkpt>
      <trkpt lat="45.92378" lon="4.75896">
        <ele>173</ele>
        <time>2018-11-15T09:10:34Z</time>
      </trkpt>
      <trkpt lat="45.92382" lon="4.759">
        <ele>173</ele>
        <time>2018-11-15T09:10:35Z</time>
      </trkpt>
      <trkpt lat="45.92387" lon="4.75902">
        <ele>173</ele>
        <time>2018-11-15T09:10:36Z</time>
      </trkpt>
      <trkpt lat="45.92391" lon="4.75905">
        <ele>173</ele>
        <time>2018-11-15T09:10:37Z</time>
      </trkpt>
      <trkpt lat="45.92396" lon="4.75909">
        <ele>173</ele>
        <time>2018-11-15T09:10:38Z</time>
      </trkpt>
      <trkpt lat="45.924" lon="4.75913">
        <ele>172</ele>
        <time>2018-11-15T09:10:39Z</time>
      </trkpt>
      <trkpt lat="45.92404" lon="4.75916">
        <ele>172</ele>
        <time>2018-11-15T09:10:40Z</time>
      </trkpt>
      <trkpt lat="45.92408" lon="4.7592">
        <ele>172</ele>
        <time>2018-11-15T09:10:41Z</time>
      </trkpt>
      <trkpt lat="45.92413" lon="4.75923">
        <ele>172</ele>
        <time>2018-11-15T09:10:42Z</time>
      </trkpt>
      <trkpt lat="45.92417" lon="4.75926">
        <ele>172</ele>
        <time>2018-11-15T09:10:43Z</time>
      </trkpt>
      <trkpt lat="45.92421" lon="4.75928">
        <ele>172</ele>
        <time>2018-11-15T09:10:44Z</time>
      </trkpt>
      <trkpt lat="45.92425" lon="4.75932">
        <ele>172</ele>
        <time>2018-11-15T09:10:45Z</time>
      </trkpt>
      <trkpt lat="45.92429" lon="4.75935">
        <ele>172</ele>
        <time>2018-11-15T09:10:46Z</time>
      </trkpt>
      <trkpt lat="45.92434" lon="4.7594">
        <ele>172</ele>
        <time>2018-11-15T09:10:47Z</time>
      </trkpt>
      <trkpt lat="45.92441" lon="4.75945">
        <ele>172</ele>
        <time>2018-11-15T09:10:49Z</time>
      </trkpt>
      <trkpt lat="45.92445" lon="4.75947">
        <ele>172</ele>
        <time>2018-11-15T09:10:50Z</time>
      </trkpt>
      <trkpt lat="45.92452" lon="4.75953">
        <ele>172</ele>
        <time>2018-11-15T09:10:52Z</time>
      </trkpt>
      <trkpt lat="45.92455" lon="4.75956">
        <ele>172</ele>
        <time>2018-11-15T09:10:53Z</time>
      </trkpt>
      <trkpt lat="45.92462" lon="4.75961">
        <ele>172</ele>
        <time>2018-11-15T09:10:55Z</time>
      </trkpt>
      <trkpt lat="45.92465" lon="4.75964">
        <ele>172</ele>
        <time>2018-11-15T09:10:56Z</time>
      </trkpt>
      <trkpt lat="45.92472" lon="4.75969">
        <ele>172</ele>
        <time>2018-11-15T09:10:58Z</time>
      </trkpt>
      <trkpt lat="45.92475" lon="4.75971">
        <ele>172</ele>
        <time>2018-11-15T09:10:59Z</time>
      </trkpt>
      <trkpt lat="45.92482" lon="4.75976">
        <ele>172</ele>
        <time>2018-11-15T09:11:01Z</time>
      </trkpt>
      <trkpt lat="45.92486" lon="4.7598">
        <ele>172</ele>
        <time>2018-11-15T09:11:02Z</time>
      </trkpt>
      <trkpt lat="45.92492" lon="4.75986">
        <ele>172</ele>
        <time>2018-11-15T09:11:04Z</time>
      </trkpt>
      <trkpt lat="45.92496" lon="4.75989">
        <ele>172</ele>
        <time>2018-11-15T09:11:05Z</time>
      </trkpt>
      <trkpt lat="45.92504" lon="4.75994">
        <ele>172</ele>
        <time>2018-11-15T09:11:07Z</time>
      </trkpt>
      <trkpt lat="45.92508" lon="4.75996">
        <ele>172</ele>
        <time>2018-11-15T09:11:08Z</time>
      </trkpt>
      <trkpt lat="45.92516" lon="4.76001">
        <ele>172</ele>
        <time>2018-11-15T09:11:10Z</time>
      </trkpt>
      <trkpt lat="45.92519" lon="4.76003">
        <ele>172</ele>
        <time>2018-11-15T09:11:11Z</time>
      </trkpt>
      <trkpt lat="45.92527" lon="4.76008">
        <ele>172</ele>
        <time>2018-11-15T09:11:13Z</time>
      </trkpt>
      <trkpt lat="45.9253" lon="4.76011">
        <ele>172</ele>
        <time>2018-11-15T09:11:14Z</time>
      </trkpt>
      <trkpt lat="45.92538" lon="4.76016">
        <ele>172</ele>
        <time>2018-11-15T09:11:16Z</time>
      </trkpt>
      <trkpt lat="45.92543" lon="4.76019">
        <ele>172</ele>
        <time>2018-11-15T09:11:17Z</time>
      </trkpt>
      <trkpt lat="45.92547" lon="4.76023">
        <ele>172</ele>
        <time>2018-11-15T09:11:18Z</time>
      </trkpt>
      <trkpt lat="45.9255" lon="4.76026">
        <ele>172</ele>
        <time>2018-11-15T09:11:19Z</time>
      </trkpt>
      <trkpt lat="45.92558" lon="4.7603">
        <ele>172</ele>
        <time>2018-11-15T09:11:21Z</time>
      </trkpt>
      <trkpt lat="45.92562" lon="4.76033">
        <ele>172</ele>
        <time>2018-11-15T09:11:22Z</time>
      </trkpt>
      <trkpt lat="45.92569" lon="4.76036">
        <ele>172</ele>
        <time>2018-11-15T09:11:24Z</time>
      </trkpt>
      <trkpt lat="45.92573" lon="4.76039">
        <ele>172</ele>
        <time>2018-11-15T09:11:25Z</time>
      </trkpt>
      <trkpt lat="45.92581" lon="4.76045">
        <ele>171</ele>
        <time>2018-11-15T09:11:27Z</time>
      </trkpt>
      <trkpt lat="45.92584" lon="4.76047">
        <ele>171</ele>
        <time>2018-11-15T09:11:28Z</time>
      </trkpt>
      <trkpt lat="45.92588" lon="4.7605">
        <ele>171</ele>
        <time>2018-11-15T09:11:29Z</time>
      </trkpt>
      <trkpt lat="45.92593" lon="4.76054">
        <ele>171</ele>
        <time>2018-11-15T09:11:30Z</time>
      </trkpt>
      <trkpt lat="45.92599" lon="4.76058">
        <ele>171</ele>
        <time>2018-11-15T09:11:31Z</time>
      </trkpt>
      <trkpt lat="45.92603" lon="4.76061">
        <ele>171</ele>
        <time>2018-11-15T09:11:32Z</time>
      </trkpt>
      <trkpt lat="45.92609" lon="4.76065">
        <ele>171</ele>
        <time>2018-11-15T09:11:33Z</time>
      </trkpt>
      <trkpt lat="45.92615" lon="4.76069">
        <ele>171</ele>
        <time>2018-11-15T09:11:34Z</time>
      </trkpt>
      <trkpt lat="45.9262" lon="4.76073">
        <ele>171</ele>
        <time>2018-11-15T09:11:35Z</time>
      </trkpt>
      <trkpt lat="45.92625" lon="4.76077">
        <ele>171</ele>
        <time>2018-11-15T09:11:36Z</time>
      </trkpt>
      <trkpt lat="45.92631" lon="4.76082">
        <ele>170</ele>
        <time>2018-11-15T09:11:37Z</time>
      </trkpt>
      <trkpt lat="45.92637" lon="4.76085">
        <ele>170</ele>
        <time>2018-11-15T09:11:38Z</time>
      </trkpt>
      <trkpt lat="45.92643" lon="4.76089">
        <ele>170</ele>
        <time>2018-11-15T09:11:39Z</time>
      </trkpt>
      <trkpt lat="45.92649" lon="4.76093">
        <ele>170</ele>
        <time>2018-11-15T09:11:40Z</time>
      </trkpt>
      <trkpt lat="45.92656" lon="4.76097">
        <ele>170</ele>
        <time>2018-11-15T09:11:41Z</time>
      </trkpt>
      <trkpt lat="45.92662" lon="4.761">
        <ele>170</ele>
        <time>2018-11-15T09:11:42Z</time>
      </trkpt>
      <trkpt lat="45.92668" lon="4.76104">
        <ele>169</ele>
        <time>2018-11-15T09:11:43Z</time>
      </trkpt>
      <trkpt lat="45.92674" lon="4.76108">
        <ele>169</ele>
        <time>2018-11-15T09:11:44Z</time>
      </trkpt>
      <trkpt lat="45.9268" lon="4.76112">
        <ele>169</ele>
        <time>2018-11-15T09:11:45Z</time>
      </trkpt>
      <trkpt lat="45.92686" lon="4.76116">
        <ele>169</ele>
        <time>2018-11-15T09:11:46Z</time>
      </trkpt>
      <trkpt lat="45.92693" lon="4.7612">
        <ele>169</ele>
        <time>2018-11-15T09:11:47Z</time>
      </trkpt>
      <trkpt lat="45.927" lon="4.76125">
        <ele>169</ele>
        <time>2018-11-15T09:11:48Z</time>
      </trkpt>
      <trkpt lat="45.92707" lon="4.76128">
        <ele>169</ele>
        <time>2018-11-15T09:11:49Z</time>
      </trkpt>
      <trkpt lat="45.92714" lon="4.76131">
        <ele>168</ele>
        <time>2018-11-15T09:11:50Z</time>
      </trkpt>
      <trkpt lat="45.92721" lon="4.76136">
        <ele>168</ele>
        <time>2018-11-15T09:11:51Z</time>
      </trkpt>
      <trkpt lat="45.92727" lon="4.76141">
        <ele>168</ele>
        <time>2018-11-15T09:11:52Z</time>
      </trkpt>
      <trkpt lat="45.92733" lon="4.76145">
        <ele>168</ele>
        <time>2018-11-15T09:11:53Z</time>
      </trkpt>
      <trkpt lat="45.92739" lon="4.7615">
        <ele>168</ele>
        <time>2018-11-15T09:11:54Z</time>
      </trkpt>
      <trkpt lat="45.92745" lon="4.76155">
        <ele>168</ele>
        <time>2018-11-15T09:11:55Z</time>
      </trkpt>
      <trkpt lat="45.92751" lon="4.76159">
        <ele>167</ele>
        <time>2018-11-15T09:11:56Z</time>
      </trkpt>
      <trkpt lat="45.92758" lon="4.76164">
        <ele>167</ele>
        <time>2018-11-15T09:11:57Z</time>
      </trkpt>
      <trkpt lat="45.92763" lon="4.76169">
        <ele>167</ele>
        <time>2018-11-15T09:11:58Z</time>
      </trkpt>
      <trkpt lat="45.92769" lon="4.76174">
        <ele>167</ele>
        <time>2018-11-15T09:11:59Z</time>
      </trkpt>
      <trkpt lat="45.92774" lon="4.76178">
        <ele>167</ele>
        <time>2018-11-15T09:12:00Z</time>
      </trkpt>
      <trkpt lat="45.92779" lon="4.76183">
        <ele>168</ele>
        <time>2018-11-15T09:12:01Z</time>
      </trkpt>
      <trkpt lat="45.92784" lon="4.76188">
        <ele>168</ele>
        <time>2018-11-15T09:12:02Z</time>
      </trkpt>
      <trkpt lat="45.92788" lon="4.76193">
        <ele>168</ele>
        <time>2018-11-15T09:12:03Z</time>
      </trkpt>
      <trkpt lat="45.92792" lon="4.76198">
        <ele>168</ele>
        <time>2018-11-15T09:12:04Z</time>
      </trkpt>
      <trkpt lat="45.92797" lon="4.76201">
        <ele>168</ele>
        <time>2018-11-15T09:12:05Z</time>
      </trkpt>
      <trkpt lat="45.92801" lon="4.76206">
        <ele>168</ele>
        <time>2018-11-15T09:12:06Z</time>
      </trkpt>
      <trkpt lat="45.92805" lon="4.76211">
        <ele>168</ele>
        <time>2018-11-15T09:12:07Z</time>
      </trkpt>
      <trkpt lat="45.92809" lon="4.76215">
        <ele>168</ele>
        <time>2018-11-15T09:12:08Z</time>
      </trkpt>
      <trkpt lat="45.92814" lon="4.76219">
        <ele>168</ele>
        <time>2018-11-15T09:12:09Z</time>
      </trkpt>
      <trkpt lat="45.92819" lon="4.76224">
        <ele>168</ele>
        <time>2018-11-15T09:12:10Z</time>
      </trkpt>
      <trkpt lat="45.92823" lon="4.76228">
        <ele>168</ele>
        <time>2018-11-15T09:12:11Z</time>
      </trkpt>
      <trkpt lat="45.92827" lon="4.76233">
        <ele>168</ele>
        <time>2018-11-15T09:12:12Z</time>
      </trkpt>
      <trkpt lat="45.92832" lon="4.76237">
        <ele>168</ele>
        <time>2018-11-15T09:12:13Z</time>
      </trkpt>
      <trkpt lat="45.92837" lon="4.76243">
        <ele>169</ele>
        <time>2018-11-15T09:12:14Z</time>
      </trkpt>
      <trkpt lat="45.92842" lon="4.76248">
        <ele>169</ele>
        <time>2018-11-15T09:12:15Z</time>
      </trkpt>
      <trkpt lat="45.92846" lon="4.76254">
        <ele>169</ele>
        <time>2018-11-15T09:12:16Z</time>
      </trkpt>
      <trkpt lat="45.92852" lon="4.76262">
        <ele>169</ele>
        <time>2018-11-15T09:12:18Z</time>
      </trkpt>
      <trkpt lat="45.92857" lon="4.76268">
        <ele>169</ele>
        <time>2018-11-15T09:12:19Z</time>
      </trkpt>
      <trkpt lat="45.92862" lon="4.76273">
        <ele>169</ele>
        <time>2018-11-15T09:12:20Z</time>
      </trkpt>
      <trkpt lat="45.92865" lon="4.76278">
        <ele>169</ele>
        <time>2018-11-15T09:12:21Z</time>
      </trkpt>
      <trkpt lat="45.9287" lon="4.76282">
        <ele>169</ele>
        <time>2018-11-15T09:12:22Z</time>
      </trkpt>
      <trkpt lat="45.92874" lon="4.76289">
        <ele>169</ele>
        <time>2018-11-15T09:12:23Z</time>
      </trkpt>
      <trkpt lat="45.92882" lon="4.76295">
        <ele>169</ele>
        <time>2018-11-15T09:12:25Z</time>
      </trkpt>
      <trkpt lat="45.92885" lon="4.76299">
        <ele>169</ele>
        <time>2018-11-15T09:12:26Z</time>
      </trkpt>
      <trkpt lat="45.92892" lon="4.76307">
        <ele>169</ele>
        <time>2018-11-15T09:12:28Z</time>
      </trkpt>
      <trkpt lat="45.92896" lon="4.7631">
        <ele>169</ele>
        <time>2018-11-15T09:12:29Z</time>
      </trkpt>
      <trkpt lat="45.929" lon="4.76315">
        <ele>169</ele>
        <time>2018-11-15T09:12:30Z</time>
      </trkpt>
      <trkpt lat="45.92905" lon="4.76321">
        <ele>169</ele>
        <time>2018-11-15T09:12:31Z</time>
      </trkpt>
      <trkpt lat="45.92909" lon="4.76325">
        <ele>169</ele>
        <time>2018-11-15T09:12:32Z</time>
      </trkpt>
      <trkpt lat="45.92913" lon="4.76329">
        <ele>169</ele>
        <time>2018-11-15T09:12:33Z</time>
      </trkpt>
      <trkpt lat="45.92918" lon="4.76333">
        <ele>169</ele>
        <time>2018-11-15T09:12:34Z</time>
      </trkpt>
      <trkpt lat="45.92923" lon="4.76337">
        <ele>169</ele>
        <time>2018-11-15T09:12:35Z</time>
      </trkpt>
      <trkpt lat="45.92927" lon="4.76342">
        <ele>169</ele>
        <time>2018-11-15T09:12:36Z</time>
      </trkpt>
      <trkpt lat="45.92931" lon="4.76346">
        <ele>169</ele>
        <time>2018-11-15T09:12:37Z</time>
      </trkpt>
      <trkpt lat="45.92934" lon="4.76351">
        <ele>169</ele>
        <time>2018-11-15T09:12:38Z</time>
      </trkpt>
      <trkpt lat="45.92939" lon="4.76355">
        <ele>169</ele>
        <time>2018-11-15T09:12:39Z</time>
      </trkpt>
      <trkpt lat="45.92944" lon="4.7636">
        <ele>169</ele>
        <time>2018-11-15T09:12:40Z</time>
      </trkpt>
      <trkpt lat="45.92949" lon="4.76365">
        <ele>169</ele>
        <time>2018-11-15T09:12:41Z</time>
      </trkpt>
      <trkpt lat="45.92953" lon="4.76369">
        <ele>169</ele>
        <time>2018-11-15T09:12:42Z</time>
      </trkpt>
      <trkpt lat="45.92958" lon="4.76373">
        <ele>169</ele>
        <time>2018-11-15T09:12:43Z</time>
      </trkpt>
      <trkpt lat="45.92966" lon="4.76378">
        <ele>169</ele>
        <time>2018-11-15T09:12:44Z</time>
      </trkpt>
      <trkpt lat="45.9297" lon="4.76381">
        <ele>169</ele>
        <time>2018-11-15T09:12:45Z</time>
      </trkpt>
      <trkpt lat="45.92974" lon="4.76386">
        <ele>169</ele>
        <time>2018-11-15T09:12:46Z</time>
      </trkpt>
      <trkpt lat="45.92979" lon="4.7639">
        <ele>169</ele>
        <time>2018-11-15T09:12:47Z</time>
      </trkpt>
      <trkpt lat="45.92987" lon="4.76395">
        <ele>169</ele>
        <time>2018-11-15T09:12:49Z</time>
      </trkpt>
      <trkpt lat="45.92991" lon="4.76399">
        <ele>169</ele>
        <time>2018-11-15T09:12:50Z</time>
      </trkpt>
      <trkpt lat="45.92998" lon="4.76405">
        <ele>169</ele>
        <time>2018-11-15T09:12:52Z</time>
      </trkpt>
      <trkpt lat="45.93" lon="4.76408">
        <ele>169</ele>
        <time>2018-11-15T09:12:53Z</time>
      </trkpt>
      <trkpt lat="45.93005" lon="4.76412">
        <ele>169</ele>
        <time>2018-11-15T09:12:54Z</time>
      </trkpt>
      <trkpt lat="45.93009" lon="4.76415">
        <ele>169</ele>
        <time>2018-11-15T09:12:55Z</time>
      </trkpt>
      <trkpt lat="45.93014" lon="4.7642">
        <ele>169</ele>
        <time>2018-11-15T09:12:56Z</time>
      </trkpt>
      <trkpt lat="45.93019" lon="4.76424">
        <ele>169</ele>
        <time>2018-11-15T09:12:57Z</time>
      </trkpt>
      <trkpt lat="45.93023" lon="4.76428">
        <ele>169</ele>
        <time>2018-11-15T09:12:58Z</time>
      </trkpt>
      <trkpt lat="45.93028" lon="4.76434">
        <ele>169</ele>
        <time>2018-11-15T09:12:59Z</time>
      </trkpt>
      <trkpt lat="45.93032" lon="4.76439">
        <ele>169</ele>
        <time>2018-11-15T09:13:00Z</time>
      </trkpt>
      <trkpt lat="45.93037" lon="4.76442">
        <ele>169</ele>
        <time>2018-11-15T09:13:01Z</time>
      </trkpt>
      <trkpt lat="45.93043" lon="4.76447">
        <ele>169</ele>
        <time>2018-11-15T09:13:02Z</time>
      </trkpt>
      <trkpt lat="45.93048" lon="4.76452">
        <ele>169</ele>
        <time>2018-11-15T09:13:03Z</time>
      </trkpt>
      <trkpt lat="45.93052" lon="4.76455">
        <ele>169</ele>
        <time>2018-11-15T09:13:04Z</time>
      </trkpt>
      <trkpt lat="45.93058" lon="4.7646">
        <ele>169</ele>
        <time>2018-11-15T09:13:05Z</time>
      </trkpt>
      <trkpt lat="45.93062" lon="4.76465">
        <ele>169</ele>
        <time>2018-11-15T09:13:06Z</time>
      </trkpt>
      <trkpt lat="45.93069" lon="4.7647">
        <ele>169</ele>
        <time>2018-11-15T09:13:07Z</time>
      </trkpt>
      <trkpt lat="45.93074" lon="4.76475">
        <ele>169</ele>
        <time>2018-11-15T09:13:08Z</time>
      </trkpt>
      <trkpt lat="45.93078" lon="4.7648">
        <ele>169</ele>
        <time>2018-11-15T09:13:09Z</time>
      </trkpt>
      <trkpt lat="45.93082" lon="4.76484">
        <ele>170</ele>
        <time>2018-11-15T09:13:10Z</time>
      </trkpt>
      <trkpt lat="45.93087" lon="4.76489">
        <ele>170</ele>
        <time>2018-11-15T09:13:11Z</time>
      </trkpt>
      <trkpt lat="45.93091" lon="4.76494">
        <ele>170</ele>
        <time>2018-11-15T09:13:12Z</time>
      </trkpt>
      <trkpt lat="45.93096" lon="4.765">
        <ele>170</ele>
        <time>2018-11-15T09:13:13Z</time>
      </trkpt>
      <trkpt lat="45.93103" lon="4.76505">
        <ele>170</ele>
        <time>2018-11-15T09:13:14Z</time>
      </trkpt>
      <trkpt lat="45.93107" lon="4.76509">
        <ele>170</ele>
        <time>2018-11-15T09:13:15Z</time>
      </trkpt>
      <trkpt lat="45.93112" lon="4.76512">
        <ele>170</ele>
        <time>2018-11-15T09:13:16Z</time>
      </trkpt>
      <trkpt lat="45.93116" lon="4.76516">
        <ele>170</ele>
        <time>2018-11-15T09:13:17Z</time>
      </trkpt>
      <trkpt lat="45.9312" lon="4.76521">
        <ele>170</ele>
        <time>2018-11-15T09:13:18Z</time>
      </trkpt>
      <trkpt lat="45.93124" lon="4.76525">
        <ele>170</ele>
        <time>2018-11-15T09:13:19Z</time>
      </trkpt>
      <trkpt lat="45.93132" lon="4.7653">
        <ele>170</ele>
        <time>2018-11-15T09:13:21Z</time>
      </trkpt>
      <trkpt lat="45.93134" lon="4.76535">
        <ele>170</ele>
        <time>2018-11-15T09:13:22Z</time>
      </trkpt>
      <trkpt lat="45.93137" lon="4.7654">
        <ele>170</ele>
        <time>2018-11-15T09:13:23Z</time>
      </trkpt>
      <trkpt lat="45.93141" lon="4.76544">
        <ele>170</ele>
        <time>2018-11-15T09:13:24Z</time>
      </trkpt>
      <trkpt lat="45.93145" lon="4.76548">
        <ele>170</ele>
        <time>2018-11-15T09:13:25Z</time>
      </trkpt>
      <trkpt lat="45.93151" lon="4.76553">
        <ele>170</ele>
        <time>2018-11-15T09:13:26Z</time>
      </trkpt>
      <trkpt lat="45.93156" lon="4.76558">
        <ele>170</ele>
        <time>2018-11-15T09:13:27Z</time>
      </trkpt>
      <trkpt lat="45.9316" lon="4.76561">
        <ele>170</ele>
        <time>2018-11-15T09:13:28Z</time>
      </trkpt>
      <trkpt lat="45.93161" lon="4.76567">
        <ele>170</ele>
        <time>2018-11-15T09:13:29Z</time>
      </trkpt>
      <trkpt lat="45.93165" lon="4.76576">
        <ele>171</ele>
        <time>2018-11-15T09:13:30Z</time>
      </trkpt>
      <trkpt lat="45.93169" lon="4.76581">
        <ele>171</ele>
        <time>2018-11-15T09:13:31Z</time>
      </trkpt>
      <trkpt lat="45.93174" lon="4.76585">
        <ele>171</ele>
        <time>2018-11-15T09:13:32Z</time>
      </trkpt>
      <trkpt lat="45.93177" lon="4.76589">
        <ele>171</ele>
        <time>2018-11-15T09:13:33Z</time>
      </trkpt>
      <trkpt lat="45.93183" lon="4.76594">
        <ele>171</ele>
        <time>2018-11-15T09:13:34Z</time>
      </trkpt>
      <trkpt lat="45.93188" lon="4.76598">
        <ele>171</ele>
        <time>2018-11-15T09:13:35Z</time>
      </trkpt>
      <trkpt lat="45.93192" lon="4.76604">
        <ele>170</ele>
        <time>2018-11-15T09:13:36Z</time>
      </trkpt>
      <trkpt lat="45.93196" lon="4.76608">
        <ele>170</ele>
        <time>2018-11-15T09:13:37Z</time>
      </trkpt>
      <trkpt lat="45.93201" lon="4.76613">
        <ele>170</ele>
        <time>2018-11-15T09:13:38Z</time>
      </trkpt>
      <trkpt lat="45.93207" lon="4.76619">
        <ele>170</ele>
        <time>2018-11-15T09:13:39Z</time>
      </trkpt>
      <trkpt lat="45.93209" lon="4.76622">
        <ele>170</ele>
        <time>2018-11-15T09:13:40Z</time>
      </trkpt>
      <trkpt lat="45.93213" lon="4.76627">
        <ele>170</ele>
        <time>2018-11-15T09:13:41Z</time>
      </trkpt>
      <trkpt lat="45.93219" lon="4.7663">
        <ele>170</ele>
        <time>2018-11-15T09:13:42Z</time>
      </trkpt>
      <trkpt lat="45.93224" lon="4.76635">
        <ele>171</ele>
        <time>2018-11-15T09:13:43Z</time>
      </trkpt>
      <trkpt lat="45.93229" lon="4.76638">
        <ele>171</ele>
        <time>2018-11-15T09:13:44Z</time>
      </trkpt>
      <trkpt lat="45.93234" lon="4.76642">
        <ele>171</ele>
        <time>2018-11-15T09:13:45Z</time>
      </trkpt>
      <trkpt lat="45.93239" lon="4.76646">
        <ele>171</ele>
        <time>2018-11-15T09:13:46Z</time>
      </trkpt>
      <trkpt lat="45.93244" lon="4.76651">
        <ele>171</ele>
        <time>2018-11-15T09:13:47Z</time>
      </trkpt>
      <trkpt lat="45.93248" lon="4.76655">
        <ele>171</ele>
        <time>2018-11-15T09:13:48Z</time>
      </trkpt>
      <trkpt lat="45.93252" lon="4.76659">
        <ele>171</ele>
        <time>2018-11-15T09:13:49Z</time>
      </trkpt>
      <trkpt lat="45.93257" lon="4.76665">
        <ele>171</ele>
        <time>2018-11-15T09:13:50Z</time>
      </trkpt>
      <trkpt lat="45.93261" lon="4.76669">
        <ele>172</ele>
        <time>2018-11-15T09:13:51Z</time>
      </trkpt>
      <trkpt lat="45.93267" lon="4.76675">
        <ele>172</ele>
        <time>2018-11-15T09:13:52Z</time>
      </trkpt>
      <trkpt lat="45.93272" lon="4.7668">
        <ele>172</ele>
        <time>2018-11-15T09:13:53Z</time>
      </trkpt>
      <trkpt lat="45.93278" lon="4.76685">
        <ele>172</ele>
        <time>2018-11-15T09:13:54Z</time>
      </trkpt>
      <trkpt lat="45.93281" lon="4.76689">
        <ele>172</ele>
        <time>2018-11-15T09:13:55Z</time>
      </trkpt>
      <trkpt lat="45.93285" lon="4.76692">
        <ele>172</ele>
        <time>2018-11-15T09:13:56Z</time>
      </trkpt>
      <trkpt lat="45.93289" lon="4.76696">
        <ele>172</ele>
        <time>2018-11-15T09:13:57Z</time>
      </trkpt>
      <trkpt lat="45.93294" lon="4.767">
        <ele>172</ele>
        <time>2018-11-15T09:13:58Z</time>
      </trkpt>
      <trkpt lat="45.93298" lon="4.76704">
        <ele>172</ele>
        <time>2018-11-15T09:13:59Z</time>
      </trkpt>
      <trkpt lat="45.93302" lon="4.76707">
        <ele>172</ele>
        <time>2018-11-15T09:14:00Z</time>
      </trkpt>
      <trkpt lat="45.93307" lon="4.76716">
        <ele>172</ele>
        <time>2018-11-15T09:14:01Z</time>
      </trkpt>
      <trkpt lat="45.93311" lon="4.76719">
        <ele>172</ele>
        <time>2018-11-15T09:14:02Z</time>
      </trkpt>
      <trkpt lat="45.93318" lon="4.76724">
        <ele>172</ele>
        <time>2018-11-15T09:14:04Z</time>
      </trkpt>
      <trkpt lat="45.93322" lon="4.76729">
        <ele>172</ele>
        <time>2018-11-15T09:14:05Z</time>
      </trkpt>
      <trkpt lat="45.93328" lon="4.76733">
        <ele>172</ele>
        <time>2018-11-15T09:14:06Z</time>
      </trkpt>
      <trkpt lat="45.93333" lon="4.76738">
        <ele>172</ele>
        <time>2018-11-15T09:14:07Z</time>
      </trkpt>
      <trkpt lat="45.9334" lon="4.76745">
        <ele>173</ele>
        <time>2018-11-15T09:14:09Z</time>
      </trkpt>
      <trkpt lat="45.93344" lon="4.7675">
        <ele>173</ele>
        <time>2018-11-15T09:14:10Z</time>
      </trkpt>
      <trkpt lat="45.93349" lon="4.76755">
        <ele>172</ele>
        <time>2018-11-15T09:14:11Z</time>
      </trkpt>
      <trkpt lat="45.93353" lon="4.7676">
        <ele>172</ele>
        <time>2018-11-15T09:14:12Z</time>
      </trkpt>
      <trkpt lat="45.93358" lon="4.76764">
        <ele>172</ele>
        <time>2018-11-15T09:14:13Z</time>
      </trkpt>
      <trkpt lat="45.93361" lon="4.76768">
        <ele>172</ele>
        <time>2018-11-15T09:14:14Z</time>
      </trkpt>
      <trkpt lat="45.93365" lon="4.76771">
        <ele>172</ele>
        <time>2018-11-15T09:14:15Z</time>
      </trkpt>
      <trkpt lat="45.93369" lon="4.76775">
        <ele>172</ele>
        <time>2018-11-15T09:14:16Z</time>
      </trkpt>
      <trkpt lat="45.93371" lon="4.76778">
        <ele>172</ele>
        <time>2018-11-15T09:14:17Z</time>
      </trkpt>
      <trkpt lat="45.93377" lon="4.76782">
        <ele>172</ele>
        <time>2018-11-15T09:14:18Z</time>
      </trkpt>
      <trkpt lat="45.9338" lon="4.76786">
        <ele>172</ele>
        <time>2018-11-15T09:14:19Z</time>
      </trkpt>
      <trkpt lat="45.93384" lon="4.7679">
        <ele>172</ele>
        <time>2018-11-15T09:14:20Z</time>
      </trkpt>
      <trkpt lat="45.93389" lon="4.76795">
        <ele>172</ele>
        <time>2018-11-15T09:14:21Z</time>
      </trkpt>
      <trkpt lat="45.93393" lon="4.76801">
        <ele>172</ele>
        <time>2018-11-15T09:14:22Z</time>
      </trkpt>
      <trkpt lat="45.93396" lon="4.76806">
        <ele>172</ele>
        <time>2018-11-15T09:14:23Z</time>
      </trkpt>
      <trkpt lat="45.934" lon="4.76812">
        <ele>172</ele>
        <time>2018-11-15T09:14:24Z</time>
      </trkpt>
      <trkpt lat="45.93404" lon="4.76817">
        <ele>172</ele>
        <time>2018-11-15T09:14:25Z</time>
      </trkpt>
      <trkpt lat="45.93408" lon="4.76822">
        <ele>172</ele>
        <time>2018-11-15T09:14:26Z</time>
      </trkpt>
      <trkpt lat="45.93411" lon="4.76828">
        <ele>172</ele>
        <time>2018-11-15T09:14:27Z</time>
      </trkpt>
      <trkpt lat="45.93414" lon="4.76834">
        <ele>172</ele>
        <time>2018-11-15T09:14:28Z</time>
      </trkpt>
      <trkpt lat="45.93417" lon="4.76841">
        <ele>172</ele>
        <time>2018-11-15T09:14:29Z</time>
      </trkpt>
      <trkpt lat="45.9342" lon="4.76848">
        <ele>171</ele>
        <time>2018-11-15T09:14:30Z</time>
      </trkpt>
      <trkpt lat="45.93424" lon="4.76856">
        <ele>171</ele>
        <time>2018-11-15T09:14:31Z</time>
      </trkpt>
      <trkpt lat="45.93426" lon="4.76862">
        <ele>171</ele>
        <time>2018-11-15T09:14:32Z</time>
      </trkpt>
      <trkpt lat="45.93429" lon="4.76868">
        <ele>171</ele>
        <time>2018-11-15T09:14:33Z</time>
      </trkpt>
      <trkpt lat="45.93431" lon="4.76874">
        <ele>171</ele>
        <time>2018-11-15T09:14:34Z</time>
      </trkpt>
      <trkpt lat="45.93434" lon="4.7688">
        <ele>171</ele>
        <time>2018-11-15T09:14:35Z</time>
      </trkpt>
      <trkpt lat="45.93435" lon="4.76886">
        <ele>171</ele>
        <time>2018-11-15T09:14:36Z</time>
      </trkpt>
      <trkpt lat="45.93437" lon="4.76893">
        <ele>171</ele>
        <time>2018-11-15T09:14:37Z</time>
      </trkpt>
      <trkpt lat="45.93439" lon="4.769">
        <ele>170</ele>
        <time>2018-11-15T09:14:38Z</time>
      </trkpt>
      <trkpt lat="45.93442" lon="4.76907">
        <ele>170</ele>
        <time>2018-11-15T09:14:39Z</time>
      </trkpt>
      <trkpt lat="45.93444" lon="4.76913">
        <ele>170</ele>
        <time>2018-11-15T09:14:40Z</time>
      </trkpt>
      <trkpt lat="45.93445" lon="4.7692">
        <ele>170</ele>
        <time>2018-11-15T09:14:41Z</time>
      </trkpt>
      <trkpt lat="45.93446" lon="4.76928">
        <ele>170</ele>
        <time>2018-11-15T09:14:42Z</time>
      </trkpt>
      <trkpt lat="45.93447" lon="4.76935">
        <ele>170</ele>
        <time>2018-11-15T09:14:43Z</time>
      </trkpt>
      <trkpt lat="45.93449" lon="4.76943">
        <ele>170</ele>
        <time>2018-11-15T09:14:44Z</time>
      </trkpt>
      <trkpt lat="45.9345" lon="4.7695">
        <ele>170</ele>
        <time>2018-11-15T09:14:45Z</time>
      </trkpt>
      <trkpt lat="45.93451" lon="4.76958">
        <ele>170</ele>
        <time>2018-11-15T09:14:46Z</time>
      </trkpt>
      <trkpt lat="45.93453" lon="4.76963">
        <ele>170</ele>
        <time>2018-11-15T09:14:47Z</time>
      </trkpt>
      <trkpt lat="45.93454" lon="4.76971">
        <ele>170</ele>
        <time>2018-11-15T09:14:48Z</time>
      </trkpt>
      <trkpt lat="45.93455" lon="4.76978">
        <ele>170</ele>
        <time>2018-11-15T09:14:49Z</time>
      </trkpt>
      <trkpt lat="45.93457" lon="4.76984">
        <ele>170</ele>
        <time>2018-11-15T09:14:50Z</time>
      </trkpt>
      <trkpt lat="45.93458" lon="4.76993">
        <ele>170</ele>
        <time>2018-11-15T09:14:51Z</time>
      </trkpt>
      <trkpt lat="45.93459" lon="4.77">
        <ele>170</ele>
        <time>2018-11-15T09:14:52Z</time>
      </trkpt>
      <trkpt lat="45.9346" lon="4.77007">
        <ele>170</ele>
        <time>2018-11-15T09:14:53Z</time>
      </trkpt>
      <trkpt lat="45.93462" lon="4.77014">
        <ele>170</ele>
        <time>2018-11-15T09:14:54Z</time>
      </trkpt>
      <trkpt lat="45.93463" lon="4.77019">
        <ele>170</ele>
        <time>2018-11-15T09:14:55Z</time>
      </trkpt>
      <trkpt lat="45.93465" lon="4.77027">
        <ele>170</ele>
        <time>2018-11-15T09:14:56Z</time>
      </trkpt>
      <trkpt lat="45.93466" lon="4.77034">
        <ele>170</ele>
        <time>2018-11-15T09:14:57Z</time>
      </trkpt>
      <trkpt lat="45.93467" lon="4.77042">
        <ele>170</ele>
        <time>2018-11-15T09:14:58Z</time>
      </trkpt>
      <trkpt lat="45.93468" lon="4.7705">
        <ele>170</ele>
        <time>2018-11-15T09:14:59Z</time>
      </trkpt>
      <trkpt lat="45.9347" lon="4.77057">
        <ele>170</ele>
        <time>2018-11-15T09:15:00Z</time>
      </trkpt>
      <trkpt lat="45.93471" lon="4.77065">
        <ele>170</ele>
        <time>2018-11-15T09:15:01Z</time>
      </trkpt>
      <trkpt lat="45.93472" lon="4.77073">
        <ele>170</ele>
        <time>2018-11-15T09:15:02Z</time>
      </trkpt>
      <trkpt lat="45.93473" lon="4.77081">
        <ele>170</ele>
        <time>2018-11-15T09:15:03Z</time>
      </trkpt>
      <trkpt lat="45.93474" lon="4.77088">
        <ele>169</ele>
        <time>2018-11-15T09:15:04Z</time>
      </trkpt>
      <trkpt lat="45.93476" lon="4.77094">
        <ele>169</ele>
        <time>2018-11-15T09:15:05Z</time>
      </trkpt>
      <trkpt lat="45.93477" lon="4.77101">
        <ele>169</ele>
        <time>2018-11-15T09:15:06Z</time>
      </trkpt>
      <trkpt lat="45.93478" lon="4.77108">
        <ele>169</ele>
        <time>2018-11-15T09:15:07Z</time>
      </trkpt>
      <trkpt lat="45.93479" lon="4.77116">
        <ele>169</ele>
        <time>2018-11-15T09:15:08Z</time>
      </trkpt>
      <trkpt lat="45.93483" lon="4.77121">
        <ele>169</ele>
        <time>2018-11-15T09:15:09Z</time>
      </trkpt>
      <trkpt lat="45.93485" lon="4.77127">
        <ele>169</ele>
        <time>2018-11-15T09:15:10Z</time>
      </trkpt>
      <trkpt lat="45.93486" lon="4.77135">
        <ele>169</ele>
        <time>2018-11-15T09:15:11Z</time>
      </trkpt>
      <trkpt lat="45.93488" lon="4.77141">
        <ele>169</ele>
        <time>2018-11-15T09:15:12Z</time>
      </trkpt>
      <trkpt lat="45.93489" lon="4.77148">
        <ele>169</ele>
        <time>2018-11-15T09:15:13Z</time>
      </trkpt>
      <trkpt lat="45.9349" lon="4.77155">
        <ele>169</ele>
        <time>2018-11-15T09:15:14Z</time>
      </trkpt>
      <trkpt lat="45.93492" lon="4.77162">
        <ele>169</ele>
        <time>2018-11-15T09:15:15Z</time>
      </trkpt>
      <trkpt lat="45.93493" lon="4.77168">
        <ele>169</ele>
        <time>2018-11-15T09:15:16Z</time>
      </trkpt>
      <trkpt lat="45.93495" lon="4.7718">
        <ele>169</ele>
        <time>2018-11-15T09:15:18Z</time>
      </trkpt>
      <trkpt lat="45.93496" lon="4.77185">
        <ele>169</ele>
        <time>2018-11-15T09:15:19Z</time>
      </trkpt>
      <trkpt lat="45.93499" lon="4.77192">
        <ele>169</ele>
        <time>2018-11-15T09:15:20Z</time>
      </trkpt>
      <trkpt lat="45.935" lon="4.77199">
        <ele>169</ele>
        <time>2018-11-15T09:15:21Z</time>
      </trkpt>
      <trkpt lat="45.93501" lon="4.77207">
        <ele>169</ele>
        <time>2018-11-15T09:15:22Z</time>
      </trkpt>
      <trkpt lat="45.93502" lon="4.77213">
        <ele>169</ele>
        <time>2018-11-15T09:15:23Z</time>
      </trkpt>
      <trkpt lat="45.93504" lon="4.77221">
        <ele>169</ele>
        <time>2018-11-15T09:15:24Z</time>
      </trkpt>
      <trkpt lat="45.93505" lon="4.77228">
        <ele>169</ele>
        <time>2018-11-15T09:15:25Z</time>
      </trkpt>
      <trkpt lat="45.93506" lon="4.77234">
        <ele>169</ele>
        <time>2018-11-15T09:15:26Z</time>
      </trkpt>
      <trkpt lat="45.93508" lon="4.77241">
        <ele>169</ele>
        <time>2018-11-15T09:15:27Z</time>
      </trkpt>
      <trkpt lat="45.9351" lon="4.77247">
        <ele>170</ele>
        <time>2018-11-15T09:15:28Z</time>
      </trkpt>
      <trkpt lat="45.93512" lon="4.77255">
        <ele>170</ele>
        <time>2018-11-15T09:15:29Z</time>
      </trkpt>
      <trkpt lat="45.93514" lon="4.77264">
        <ele>170</ele>
        <time>2018-11-15T09:15:30Z</time>
      </trkpt>
      <trkpt lat="45.93515" lon="4.7727">
        <ele>170</ele>
        <time>2018-11-15T09:15:31Z</time>
      </trkpt>
      <trkpt lat="45.93517" lon="4.77277">
        <ele>170</ele>
        <time>2018-11-15T09:15:32Z</time>
      </trkpt>
      <trkpt lat="45.93518" lon="4.77285">
        <ele>170</ele>
        <time>2018-11-15T09:15:33Z</time>
      </trkpt>
      <trkpt lat="45.93519" lon="4.77291">
        <ele>170</ele>
        <time>2018-11-15T09:15:34Z</time>
      </trkpt>
      <trkpt lat="45.9352" lon="4.77298">
        <ele>170</ele>
        <time>2018-11-15T09:15:35Z</time>
      </trkpt>
      <trkpt lat="45.93522" lon="4.77309">
        <ele>170</ele>
        <time>2018-11-15T09:15:37Z</time>
      </trkpt>
      <trkpt lat="45.93523" lon="4.77315">
        <ele>170</ele>
        <time>2018-11-15T09:15:38Z</time>
      </trkpt>
      <trkpt lat="45.93526" lon="4.77327">
        <ele>170</ele>
        <time>2018-11-15T09:15:40Z</time>
      </trkpt>
      <trkpt lat="45.93527" lon="4.77333">
        <ele>170</ele>
        <time>2018-11-15T09:15:41Z</time>
      </trkpt>
      <trkpt lat="45.93529" lon="4.7734">
        <ele>170</ele>
        <time>2018-11-15T09:15:42Z</time>
      </trkpt>
      <trkpt lat="45.9353" lon="4.77348">
        <ele>170</ele>
        <time>2018-11-15T09:15:43Z</time>
      </trkpt>
      <trkpt lat="45.93531" lon="4.77354">
        <ele>170</ele>
        <time>2018-11-15T09:15:44Z</time>
      </trkpt>
      <trkpt lat="45.93533" lon="4.77361">
        <ele>170</ele>
        <time>2018-11-15T09:15:45Z</time>
      </trkpt>
      <trkpt lat="45.93534" lon="4.77369">
        <ele>170</ele>
        <time>2018-11-15T09:15:46Z</time>
      </trkpt>
      <trkpt lat="45.93536" lon="4.77376">
        <ele>170</ele>
        <time>2018-11-15T09:15:47Z</time>
      </trkpt>
      <trkpt lat="45.93537" lon="4.77384">
        <ele>170</ele>
        <time>2018-11-15T09:15:48Z</time>
      </trkpt>
      <trkpt lat="45.93539" lon="4.77391">
        <ele>170</ele>
        <time>2018-11-15T09:15:49Z</time>
      </trkpt>
      <trkpt lat="45.93541" lon="4.77398">
        <ele>170</ele>
        <time>2018-11-15T09:15:50Z</time>
      </trkpt>
      <trkpt lat="45.93545" lon="4.77407">
        <ele>170</ele>
        <time>2018-11-15T09:15:51Z</time>
      </trkpt>
      <trkpt lat="45.93546" lon="4.77415">
        <ele>170</ele>
        <time>2018-11-15T09:15:52Z</time>
      </trkpt>
      <trkpt lat="45.93547" lon="4.77421">
        <ele>170</ele>
        <time>2018-11-15T09:15:53Z</time>
      </trkpt>
      <trkpt lat="45.93547" lon="4.77427">
        <ele>170</ele>
        <time>2018-11-15T09:15:54Z</time>
      </trkpt>
      <trkpt lat="45.93549" lon="4.77434">
        <ele>169</ele>
        <time>2018-11-15T09:15:55Z</time>
      </trkpt>
      <trkpt lat="45.9355" lon="4.77441">
        <ele>169</ele>
        <time>2018-11-15T09:15:56Z</time>
      </trkpt>
      <trkpt lat="45.93552" lon="4.77447">
        <ele>169</ele>
        <time>2018-11-15T09:15:57Z</time>
      </trkpt>
      <trkpt lat="45.93554" lon="4.77454">
        <ele>169</ele>
        <time>2018-11-15T09:15:58Z</time>
      </trkpt>
      <trkpt lat="45.93555" lon="4.77461">
        <ele>169</ele>
        <time>2018-11-15T09:15:59Z</time>
      </trkpt>
      <trkpt lat="45.93556" lon="4.77468">
        <ele>169</ele>
        <time>2018-11-15T09:16:00Z</time>
      </trkpt>
      <trkpt lat="45.93557" lon="4.77475">
        <ele>169</ele>
        <time>2018-11-15T09:16:01Z</time>
      </trkpt>
      <trkpt lat="45.93558" lon="4.77483">
        <ele>169</ele>
        <time>2018-11-15T09:16:02Z</time>
      </trkpt>
      <trkpt lat="45.93559" lon="4.7749">
        <ele>169</ele>
        <time>2018-11-15T09:16:03Z</time>
      </trkpt>
      <trkpt lat="45.9356" lon="4.77497">
        <ele>169</ele>
        <time>2018-11-15T09:16:04Z</time>
      </trkpt>
      <trkpt lat="45.9356" lon="4.77503">
        <ele>169</ele>
        <time>2018-11-15T09:16:05Z</time>
      </trkpt>
      <trkpt lat="45.93562" lon="4.77509">
        <ele>169</ele>
        <time>2018-11-15T09:16:06Z</time>
      </trkpt>
      <trkpt lat="45.93564" lon="4.77517">
        <ele>169</ele>
        <time>2018-11-15T09:16:07Z</time>
      </trkpt>
      <trkpt lat="45.93565" lon="4.77524">
        <ele>169</ele>
        <time>2018-11-15T09:16:08Z</time>
      </trkpt>
      <trkpt lat="45.93568" lon="4.77532">
        <ele>169</ele>
        <time>2018-11-15T09:16:09Z</time>
      </trkpt>
      <trkpt lat="45.93569" lon="4.7754">
        <ele>169</ele>
        <time>2018-11-15T09:16:10Z</time>
      </trkpt>
      <trkpt lat="45.93571" lon="4.77548">
        <ele>169</ele>
        <time>2018-11-15T09:16:11Z</time>
      </trkpt>
      <trkpt lat="45.93573" lon="4.77556">
        <ele>169</ele>
        <time>2018-11-15T09:16:12Z</time>
      </trkpt>
      <trkpt lat="45.93575" lon="4.77563">
        <ele>169</ele>
        <time>2018-11-15T09:16:13Z</time>
      </trkpt>
      <trkpt lat="45.93577" lon="4.77572">
        <ele>170</ele>
        <time>2018-11-15T09:16:14Z</time>
      </trkpt>
      <trkpt lat="45.93579" lon="4.77579">
        <ele>170</ele>
        <time>2018-11-15T09:16:15Z</time>
      </trkpt>
      <trkpt lat="45.93581" lon="4.77585">
        <ele>170</ele>
        <time>2018-11-15T09:16:16Z</time>
      </trkpt>
      <trkpt lat="45.93582" lon="4.77591">
        <ele>170</ele>
        <time>2018-11-15T09:16:17Z</time>
      </trkpt>
      <trkpt lat="45.93587" lon="4.77601">
        <ele>170</ele>
        <time>2018-11-15T09:16:19Z</time>
      </trkpt>
      <trkpt lat="45.9359" lon="4.77608">
        <ele>170</ele>
        <time>2018-11-15T09:16:20Z</time>
      </trkpt>
      <trkpt lat="45.93593" lon="4.77614">
        <ele>170</ele>
        <time>2018-11-15T09:16:21Z</time>
      </trkpt>
      <trkpt lat="45.93596" lon="4.7762">
        <ele>170</ele>
        <time>2018-11-15T09:16:22Z</time>
      </trkpt>
      <trkpt lat="45.93598" lon="4.77627">
        <ele>169</ele>
        <time>2018-11-15T09:16:23Z</time>
      </trkpt>
      <trkpt lat="45.93603" lon="4.77634">
        <ele>169</ele>
        <time>2018-11-15T09:16:24Z</time>
      </trkpt>
      <trkpt lat="45.93606" lon="4.77641">
        <ele>169</ele>
        <time>2018-11-15T09:16:25Z</time>
      </trkpt>
      <trkpt lat="45.93608" lon="4.77648">
        <ele>169</ele>
        <time>2018-11-15T09:16:26Z</time>
      </trkpt>
      <trkpt lat="45.93612" lon="4.77654">
        <ele>169</ele>
        <time>2018-11-15T09:16:27Z</time>
      </trkpt>
      <trkpt lat="45.93614" lon="4.77661">
        <ele>169</ele>
        <time>2018-11-15T09:16:28Z</time>
      </trkpt>
      <trkpt lat="45.93617" lon="4.77668">
        <ele>169</ele>
        <time>2018-11-15T09:16:29Z</time>
      </trkpt>
      <trkpt lat="45.9362" lon="4.77675">
        <ele>169</ele>
        <time>2018-11-15T09:16:30Z</time>
      </trkpt>
      <trkpt lat="45.93624" lon="4.77685">
        <ele>169</ele>
        <time>2018-11-15T09:16:32Z</time>
      </trkpt>
      <trkpt lat="45.93626" lon="4.7769">
        <ele>169</ele>
        <time>2018-11-15T09:16:33Z</time>
      </trkpt>
      <trkpt lat="45.9363" lon="4.77698">
        <ele>169</ele>
        <time>2018-11-15T09:16:35Z</time>
      </trkpt>
      <trkpt lat="45.93632" lon="4.77702">
        <ele>169</ele>
        <time>2018-11-15T09:16:36Z</time>
      </trkpt>
      <trkpt lat="45.93638" lon="4.77712">
        <ele>170</ele>
        <time>2018-11-15T09:16:38Z</time>
      </trkpt>
      <trkpt lat="45.9364" lon="4.77716">
        <ele>170</ele>
        <time>2018-11-15T09:16:39Z</time>
      </trkpt>
      <trkpt lat="45.93645" lon="4.77725">
        <ele>170</ele>
        <time>2018-11-15T09:16:42Z</time>
      </trkpt>
      <trkpt lat="45.93647" lon="4.77727">
        <ele>170</ele>
        <time>2018-11-15T09:16:43Z</time>
      </trkpt>
      <trkpt lat="45.93651" lon="4.77734">
        <ele>170</ele>
        <time>2018-11-15T09:16:45Z</time>
      </trkpt>
      <trkpt lat="45.93652" lon="4.77737">
        <ele>170</ele>
        <time>2018-11-15T09:16:46Z</time>
      </trkpt>
      <trkpt lat="45.93657" lon="4.77744">
        <ele>170</ele>
        <time>2018-11-15T09:16:48Z</time>
      </trkpt>
      <trkpt lat="45.93658" lon="4.77747">
        <ele>171</ele>
        <time>2018-11-15T09:16:49Z</time>
      </trkpt>
      <trkpt lat="45.93663" lon="4.77753">
        <ele>171</ele>
        <time>2018-11-15T09:16:51Z</time>
      </trkpt>
      <trkpt lat="45.93665" lon="4.77757">
        <ele>171</ele>
        <time>2018-11-15T09:16:52Z</time>
      </trkpt>
      <trkpt lat="45.93669" lon="4.77763">
        <ele>170</ele>
        <time>2018-11-15T09:16:54Z</time>
      </trkpt>
      <trkpt lat="45.93672" lon="4.77766">
        <ele>170</ele>
        <time>2018-11-15T09:16:55Z</time>
      </trkpt>
      <trkpt lat="45.93678" lon="4.77775">
        <ele>170</ele>
        <time>2018-11-15T09:16:57Z</time>
      </trkpt>
      <trkpt lat="45.9368" lon="4.77778">
        <ele>170</ele>
        <time>2018-11-15T09:16:58Z</time>
      </trkpt>
      <trkpt lat="45.93684" lon="4.77783">
        <ele>170</ele>
        <time>2018-11-15T09:17:00Z</time>
      </trkpt>
      <trkpt lat="45.93688" lon="4.7779">
        <ele>170</ele>
        <time>2018-11-15T09:17:01Z</time>
      </trkpt>
      <trkpt lat="45.93693" lon="4.77796">
        <ele>169</ele>
        <time>2018-11-15T09:17:03Z</time>
      </trkpt>
      <trkpt lat="45.93696" lon="4.77801">
        <ele>169</ele>
        <time>2018-11-15T09:17:04Z</time>
      </trkpt>
      <trkpt lat="45.93702" lon="4.77807">
        <ele>169</ele>
        <time>2018-11-15T09:17:06Z</time>
      </trkpt>
      <trkpt lat="45.93704" lon="4.7781">
        <ele>169</ele>
        <time>2018-11-15T09:17:07Z</time>
      </trkpt>
      <trkpt lat="45.9371" lon="4.77818">
        <ele>169</ele>
        <time>2018-11-15T09:17:09Z</time>
      </trkpt>
      <trkpt lat="45.93712" lon="4.77821">
        <ele>169</ele>
        <time>2018-11-15T09:17:10Z</time>
      </trkpt>
      <trkpt lat="45.93718" lon="4.77828">
        <ele>168</ele>
        <time>2018-11-15T09:17:12Z</time>
      </trkpt>
      <trkpt lat="45.9372" lon="4.77832">
        <ele>168</ele>
        <time>2018-11-15T09:17:13Z</time>
      </trkpt>
      <trkpt lat="45.93726" lon="4.7784">
        <ele>167</ele>
        <time>2018-11-15T09:17:15Z</time>
      </trkpt>
      <trkpt lat="45.93729" lon="4.77844">
        <ele>167</ele>
        <time>2018-11-15T09:17:16Z</time>
      </trkpt>
      <trkpt lat="45.93734" lon="4.77852">
        <ele>167</ele>
        <time>2018-11-15T09:17:18Z</time>
      </trkpt>
      <trkpt lat="45.93737" lon="4.77855">
        <ele>167</ele>
        <time>2018-11-15T09:17:19Z</time>
      </trkpt>
      <trkpt lat="45.93744" lon="4.77863">
        <ele>167</ele>
        <time>2018-11-15T09:17:21Z</time>
      </trkpt>
      <trkpt lat="45.93747" lon="4.77867">
        <ele>167</ele>
        <time>2018-11-15T09:17:22Z</time>
      </trkpt>
      <trkpt lat="45.93753" lon="4.77876">
        <ele>166</ele>
        <time>2018-11-15T09:17:24Z</time>
      </trkpt>
      <trkpt lat="45.93756" lon="4.7788">
        <ele>166</ele>
        <time>2018-11-15T09:17:25Z</time>
      </trkpt>
      <trkpt lat="45.93763" lon="4.77889">
        <ele>166</ele>
        <time>2018-11-15T09:17:27Z</time>
      </trkpt>
      <trkpt lat="45.93766" lon="4.77893">
        <ele>166</ele>
        <time>2018-11-15T09:17:28Z</time>
      </trkpt>
      <trkpt lat="45.93772" lon="4.77901">
        <ele>166</ele>
        <time>2018-11-15T09:17:30Z</time>
      </trkpt>
      <trkpt lat="45.93775" lon="4.77905">
        <ele>166</ele>
        <time>2018-11-15T09:17:31Z</time>
      </trkpt>
      <trkpt lat="45.93781" lon="4.77913">
        <ele>166</ele>
        <time>2018-11-15T09:17:33Z</time>
      </trkpt>
      <trkpt lat="45.93784" lon="4.77917">
        <ele>168</ele>
        <time>2018-11-15T09:17:34Z</time>
      </trkpt>
      <trkpt lat="45.93789" lon="4.77924">
        <ele>168</ele>
        <time>2018-11-15T09:17:36Z</time>
      </trkpt>
      <trkpt lat="45.93793" lon="4.77928">
        <ele>168</ele>
        <time>2018-11-15T09:17:37Z</time>
      </trkpt>
      <trkpt lat="45.93799" lon="4.77936">
        <ele>169</ele>
        <time>2018-11-15T09:17:39Z</time>
      </trkpt>
      <trkpt lat="45.93801" lon="4.77941">
        <ele>169</ele>
        <time>2018-11-15T09:17:40Z</time>
      </trkpt>
      <trkpt lat="45.93805" lon="4.77946">
        <ele>169</ele>
        <time>2018-11-15T09:17:41Z</time>
      </trkpt>
      <trkpt lat="45.93809" lon="4.7795">
        <ele>169</ele>
        <time>2018-11-15T09:17:42Z</time>
      </trkpt>
      <trkpt lat="45.93812" lon="4.77955">
        <ele>170</ele>
        <time>2018-11-15T09:17:43Z</time>
      </trkpt>
      <trkpt lat="45.93816" lon="4.77959">
        <ele>170</ele>
        <time>2018-11-15T09:17:44Z</time>
      </trkpt>
      <trkpt lat="45.93821" lon="4.77964">
        <ele>171</ele>
        <time>2018-11-15T09:17:45Z</time>
      </trkpt>
      <trkpt lat="45.93825" lon="4.7797">
        <ele>172</ele>
        <time>2018-11-15T09:17:46Z</time>
      </trkpt>
      <trkpt lat="45.93829" lon="4.77975">
        <ele>172</ele>
        <time>2018-11-15T09:17:47Z</time>
      </trkpt>
      <trkpt lat="45.93833" lon="4.7798">
        <ele>173</ele>
        <time>2018-11-15T09:17:48Z</time>
      </trkpt>
      <trkpt lat="45.93838" lon="4.77985">
        <ele>178</ele>
        <time>2018-11-15T09:17:49Z</time>
      </trkpt>
      <trkpt lat="45.93841" lon="4.77991">
        <ele>179</ele>
        <time>2018-11-15T09:17:50Z</time>
      </trkpt>
      <trkpt lat="45.93842" lon="4.77998">
        <ele>179</ele>
        <time>2018-11-15T09:17:51Z</time>
      </trkpt>
      <trkpt lat="45.93842" lon="4.78007">
        <ele>181</ele>
        <time>2018-11-15T09:17:52Z</time>
      </trkpt>
      <trkpt lat="45.93842" lon="4.78014">
        <ele>181</ele>
        <time>2018-11-15T09:17:53Z</time>
      </trkpt>
      <trkpt lat="45.93844" lon="4.78022">
        <ele>182</ele>
        <time>2018-11-15T09:17:54Z</time>
      </trkpt>
      <trkpt lat="45.93849" lon="4.7803">
        <ele>182</ele>
        <time>2018-11-15T09:17:56Z</time>
      </trkpt>
      <trkpt lat="45.93851" lon="4.78031">
        <ele>182</ele>
        <time>2018-11-15T09:17:57Z</time>
      </trkpt>
      <trkpt lat="45.93859" lon="4.78033">
        <ele>183</ele>
        <time>2018-11-15T09:17:59Z</time>
      </trkpt>
      <trkpt lat="45.93863" lon="4.78032">
        <ele>183</ele>
        <time>2018-11-15T09:18:00Z</time>
      </trkpt>
      <trkpt lat="45.93871" lon="4.78032">
        <ele>183</ele>
        <time>2018-11-15T09:18:03Z</time>
      </trkpt>
      <trkpt lat="45.93873" lon="4.7803">
        <ele>183</ele>
        <time>2018-11-15T09:18:04Z</time>
      </trkpt>
      <trkpt lat="45.93879" lon="4.78027">
        <ele>184</ele>
        <time>2018-11-15T09:18:06Z</time>
      </trkpt>
      <trkpt lat="45.93882" lon="4.78025">
        <ele>184</ele>
        <time>2018-11-15T09:18:07Z</time>
      </trkpt>
      <trkpt lat="45.93888" lon="4.7802">
        <ele>184</ele>
        <time>2018-11-15T09:18:10Z</time>
      </trkpt>
      <trkpt lat="45.9389" lon="4.78018">
        <ele>184</ele>
        <time>2018-11-15T09:18:11Z</time>
      </trkpt>
      <trkpt lat="45.93897" lon="4.78011">
        <ele>185</ele>
        <time>2018-11-15T09:18:15Z</time>
      </trkpt>
      <trkpt lat="45.93899" lon="4.78009">
        <ele>185</ele>
        <time>2018-11-15T09:18:16Z</time>
      </trkpt>
      <trkpt lat="45.93904" lon="4.78003">
        <ele>185</ele>
        <time>2018-11-15T09:18:19Z</time>
      </trkpt>
      <trkpt lat="45.93906" lon="4.78001">
        <ele>185</ele>
        <time>2018-11-15T09:18:20Z</time>
      </trkpt>
      <trkpt lat="45.93913" lon="4.77994">
        <ele>184</ele>
        <time>2018-11-15T09:18:25Z</time>
      </trkpt>
      <trkpt lat="45.93914" lon="4.77994">
        <ele>184</ele>
        <time>2018-11-15T09:18:26Z</time>
      </trkpt>
      <trkpt lat="45.93921" lon="4.77988">
        <ele>187</ele>
        <time>2018-11-15T09:18:31Z</time>
      </trkpt>
      <trkpt lat="45.93922" lon="4.77987">
        <ele>188</ele>
        <time>2018-11-15T09:18:32Z</time>
      </trkpt>
      <trkpt lat="45.9393" lon="4.77982">
        <ele>188</ele>
        <time>2018-11-15T09:18:36Z</time>
      </trkpt>
      <trkpt lat="45.93932" lon="4.77981">
        <ele>188</ele>
        <time>2018-11-15T09:18:37Z</time>
      </trkpt>
      <trkpt lat="45.93937" lon="4.77976">
        <ele>189</ele>
        <time>2018-11-15T09:18:40Z</time>
      </trkpt>
      <trkpt lat="45.9394" lon="4.77974">
        <ele>189</ele>
        <time>2018-11-15T09:18:41Z</time>
      </trkpt>
      <trkpt lat="45.93946" lon="4.7797">
        <ele>189</ele>
        <time>2018-11-15T09:18:44Z</time>
      </trkpt>
      <trkpt lat="45.93948" lon="4.77969">
        <ele>189</ele>
        <time>2018-11-15T09:18:45Z</time>
      </trkpt>
      <trkpt lat="45.93956" lon="4.77963">
        <ele>190</ele>
        <time>2018-11-15T09:18:49Z</time>
      </trkpt>
      <trkpt lat="45.93958" lon="4.77961">
        <ele>190</ele>
        <time>2018-11-15T09:18:50Z</time>
      </trkpt>
      <trkpt lat="45.93964" lon="4.77956">
        <ele>190</ele>
        <time>2018-11-15T09:18:53Z</time>
      </trkpt>
      <trkpt lat="45.93966" lon="4.77955">
        <ele>190</ele>
        <time>2018-11-15T09:18:54Z</time>
      </trkpt>
      <trkpt lat="45.93973" lon="4.7795">
        <ele>191</ele>
        <time>2018-11-15T09:18:58Z</time>
      </trkpt>
      <trkpt lat="45.93975" lon="4.77949">
        <ele>191</ele>
        <time>2018-11-15T09:18:59Z</time>
      </trkpt>
      <trkpt lat="45.93983" lon="4.77942">
        <ele>191</ele>
        <time>2018-11-15T09:19:04Z</time>
      </trkpt>
      <trkpt lat="45.93985" lon="4.7794">
        <ele>191</ele>
        <time>2018-11-15T09:19:05Z</time>
      </trkpt>
      <trkpt lat="45.93991" lon="4.77936">
        <ele>192</ele>
        <time>2018-11-15T09:19:09Z</time>
      </trkpt>
      <trkpt lat="45.93993" lon="4.77935">
        <ele>192</ele>
        <time>2018-11-15T09:19:10Z</time>
      </trkpt>
      <trkpt lat="45.94001" lon="4.77932">
        <ele>197</ele>
        <time>2018-11-15T09:19:15Z</time>
      </trkpt>
      <trkpt lat="45.94003" lon="4.77931">
        <ele>197</ele>
        <time>2018-11-15T09:19:16Z</time>
      </trkpt>
      <trkpt lat="45.94011" lon="4.77931">
        <ele>198</ele>
        <time>2018-11-15T09:19:22Z</time>
      </trkpt>
      <trkpt lat="45.94012" lon="4.77932">
        <ele>198</ele>
        <time>2018-11-15T09:19:23Z</time>
      </trkpt>
      <trkpt lat="45.94017" lon="4.77941">
        <ele>199</ele>
        <time>2018-11-15T09:19:27Z</time>
      </trkpt>
      <trkpt lat="45.94018" lon="4.77943">
        <ele>199</ele>
        <time>2018-11-15T09:19:28Z</time>
      </trkpt>
      <trkpt lat="45.94021" lon="4.77954">
        <ele>200</ele>
        <time>2018-11-15T09:19:32Z</time>
      </trkpt>
      <trkpt lat="45.94022" lon="4.77957">
        <ele>200</ele>
        <time>2018-11-15T09:19:33Z</time>
      </trkpt>
      <trkpt lat="45.94021" lon="4.77966">
        <ele>200</ele>
        <time>2018-11-15T09:19:36Z</time>
      </trkpt>
      <trkpt lat="45.9402" lon="4.7797">
        <ele>200</ele>
        <time>2018-11-15T09:19:37Z</time>
      </trkpt>
      <trkpt lat="45.94018" lon="4.7798">
        <ele>200</ele>
        <time>2018-11-15T09:19:40Z</time>
      </trkpt>
      <trkpt lat="45.94017" lon="4.77983">
        <ele>199</ele>
        <time>2018-11-15T09:19:41Z</time>
      </trkpt>
      <trkpt lat="45.94015" lon="4.77993">
        <ele>199</ele>
        <time>2018-11-15T09:19:44Z</time>
      </trkpt>
      <trkpt lat="45.94015" lon="4.77996">
        <ele>199</ele>
        <time>2018-11-15T09:19:45Z</time>
      </trkpt>
      <trkpt lat="45.94013" lon="4.78008">
        <ele>199</ele>
        <time>2018-11-15T09:19:48Z</time>
      </trkpt>
      <trkpt lat="45.94013" lon="4.78012">
        <ele>200</ele>
        <time>2018-11-15T09:19:49Z</time>
      </trkpt>
      <trkpt lat="45.94011" lon="4.78021">
        <ele>200</ele>
        <time>2018-11-15T09:19:52Z</time>
      </trkpt>
      <trkpt lat="45.94011" lon="4.78025">
        <ele>201</ele>
        <time>2018-11-15T09:19:53Z</time>
      </trkpt>
      <trkpt lat="45.94009" lon="4.78036">
        <ele>201</ele>
        <time>2018-11-15T09:19:56Z</time>
      </trkpt>
      <trkpt lat="45.94007" lon="4.7804">
        <ele>201</ele>
        <time>2018-11-15T09:19:57Z</time>
      </trkpt>
      <trkpt lat="45.94004" lon="4.78051">
        <ele>201</ele>
        <time>2018-11-15T09:20:00Z</time>
      </trkpt>
      <trkpt lat="45.94003" lon="4.78056">
        <ele>201</ele>
        <time>2018-11-15T09:20:01Z</time>
      </trkpt>
      <trkpt lat="45.94001" lon="4.78067">
        <ele>201</ele>
        <time>2018-11-15T09:20:04Z</time>
      </trkpt>
      <trkpt lat="45.94" lon="4.7807">
        <ele>200</ele>
        <time>2018-11-15T09:20:05Z</time>
      </trkpt>
      <trkpt lat="45.93998" lon="4.7808">
        <ele>198</ele>
        <time>2018-11-15T09:20:08Z</time>
      </trkpt>
      <trkpt lat="45.93997" lon="4.78085">
        <ele>199</ele>
        <time>2018-11-15T09:20:09Z</time>
      </trkpt>
      <trkpt lat="45.93995" lon="4.78093">
        <ele>198</ele>
        <time>2018-11-15T09:20:11Z</time>
      </trkpt>
      <trkpt lat="45.93994" lon="4.78097">
        <ele>198</ele>
        <time>2018-11-15T09:20:12Z</time>
      </trkpt>
      <trkpt lat="45.93992" lon="4.78109">
        <ele>197</ele>
        <time>2018-11-15T09:20:15Z</time>
      </trkpt>
      <trkpt lat="45.93991" lon="4.78114">
        <ele>197</ele>
        <time>2018-11-15T09:20:16Z</time>
      </trkpt>
      <trkpt lat="45.9399" lon="4.78124">
        <ele>197</ele>
        <time>2018-11-15T09:20:18Z</time>
      </trkpt>
      <trkpt lat="45.93989" lon="4.78128">
        <ele>197</ele>
        <time>2018-11-15T09:20:19Z</time>
      </trkpt>
      <trkpt lat="45.93987" lon="4.7814">
        <ele>198</ele>
        <time>2018-11-15T09:20:22Z</time>
      </trkpt>
      <trkpt lat="45.93987" lon="4.78145">
        <ele>198</ele>
        <time>2018-11-15T09:20:23Z</time>
      </trkpt>
      <trkpt lat="45.9399" lon="4.78157">
        <ele>199</ele>
        <time>2018-11-15T09:20:26Z</time>
      </trkpt>
      <trkpt lat="45.93991" lon="4.78159">
        <ele>199</ele>
        <time>2018-11-15T09:20:27Z</time>
      </trkpt>
      <trkpt lat="45.93999" lon="4.78166">
        <ele>201</ele>
        <time>2018-11-15T09:20:30Z</time>
      </trkpt>
      <trkpt lat="45.94001" lon="4.78167">
        <ele>201</ele>
        <time>2018-11-15T09:20:31Z</time>
      </trkpt>
      <trkpt lat="45.94009" lon="4.78171">
        <ele>202</ele>
        <time>2018-11-15T09:20:35Z</time>
      </trkpt>
      <trkpt lat="45.9401" lon="4.78172">
        <ele>202</ele>
        <time>2018-11-15T09:20:36Z</time>
      </trkpt>
      <trkpt lat="45.94018" lon="4.78177">
        <ele>203</ele>
        <time>2018-11-15T09:20:40Z</time>
      </trkpt>
      <trkpt lat="45.94019" lon="4.78178">
        <ele>203</ele>
        <time>2018-11-15T09:20:41Z</time>
      </trkpt>
      <trkpt lat="45.94025" lon="4.78184">
        <ele>204</ele>
        <time>2018-11-15T09:20:45Z</time>
      </trkpt>
      <trkpt lat="45.94027" lon="4.78186">
        <ele>204</ele>
        <time>2018-11-15T09:20:46Z</time>
      </trkpt>
      <trkpt lat="45.94034" lon="4.78192">
        <ele>204</ele>
        <time>2018-11-15T09:20:50Z</time>
      </trkpt>
      <trkpt lat="45.94036" lon="4.78194">
        <ele>205</ele>
        <time>2018-11-15T09:20:51Z</time>
      </trkpt>
      <trkpt lat="45.94043" lon="4.782">
        <ele>205</ele>
        <time>2018-11-15T09:20:55Z</time>
      </trkpt>
      <trkpt lat="45.94045" lon="4.78202">
        <ele>205</ele>
        <time>2018-11-15T09:20:56Z</time>
      </trkpt>
      <trkpt lat="45.94053" lon="4.78208">
        <ele>205</ele>
        <time>2018-11-15T09:21:00Z</time>
      </trkpt>
      <trkpt lat="45.94055" lon="4.78209">
        <ele>205</ele>
        <time>2018-11-15T09:21:01Z</time>
      </trkpt>
      <trkpt lat="45.94061" lon="4.78212">
        <ele>206</ele>
        <time>2018-11-15T09:21:04Z</time>
      </trkpt>
      <trkpt lat="45.94063" lon="4.78214">
        <ele>206</ele>
        <time>2018-11-15T09:21:05Z</time>
      </trkpt>
      <trkpt lat="45.94069" lon="4.78218">
        <ele>206</ele>
        <time>2018-11-15T09:21:08Z</time>
      </trkpt>
      <trkpt lat="45.94071" lon="4.78219">
        <ele>206</ele>
        <time>2018-11-15T09:21:09Z</time>
      </trkpt>
      <trkpt lat="45.94078" lon="4.78223">
        <ele>206</ele>
        <time>2018-11-15T09:21:12Z</time>
      </trkpt>
      <trkpt lat="45.9408" lon="4.78224">
        <ele>206</ele>
        <time>2018-11-15T09:21:13Z</time>
      </trkpt>
      <trkpt lat="45.94087" lon="4.78228">
        <ele>212</ele>
        <time>2018-11-15T09:21:17Z</time>
      </trkpt>
      <trkpt lat="45.94089" lon="4.78229">
        <ele>212</ele>
        <time>2018-11-15T09:21:18Z</time>
      </trkpt>
      <trkpt lat="45.94097" lon="4.78234">
        <ele>212</ele>
        <time>2018-11-15T09:21:22Z</time>
      </trkpt>
      <trkpt lat="45.94099" lon="4.78235">
        <ele>212</ele>
        <time>2018-11-15T09:21:23Z</time>
      </trkpt>
      <trkpt lat="45.94107" lon="4.78241">
        <ele>213</ele>
        <time>2018-11-15T09:21:26Z</time>
      </trkpt>
      <trkpt lat="45.94109" lon="4.78243">
        <ele>213</ele>
        <time>2018-11-15T09:21:27Z</time>
      </trkpt>
      <trkpt lat="45.94116" lon="4.78247">
        <ele>214</ele>
        <time>2018-11-15T09:21:30Z</time>
      </trkpt>
      <trkpt lat="45.94118" lon="4.78248">
        <ele>214</ele>
        <time>2018-11-15T09:21:31Z</time>
      </trkpt>
      <trkpt lat="45.94126" lon="4.78252">
        <ele>214</ele>
        <time>2018-11-15T09:21:35Z</time>
      </trkpt>
      <trkpt lat="45.94128" lon="4.78253">
        <ele>214</ele>
        <time>2018-11-15T09:21:36Z</time>
      </trkpt>
      <trkpt lat="45.94136" lon="4.78257">
        <ele>215</ele>
        <time>2018-11-15T09:21:40Z</time>
      </trkpt>
      <trkpt lat="45.94138" lon="4.78259">
        <ele>215</ele>
        <time>2018-11-15T09:21:41Z</time>
      </trkpt>
      <trkpt lat="45.94145" lon="4.78263">
        <ele>215</ele>
        <time>2018-11-15T09:21:45Z</time>
      </trkpt>
      <trkpt lat="45.94147" lon="4.78265">
        <ele>216</ele>
        <time>2018-11-15T09:21:46Z</time>
      </trkpt>
      <trkpt lat="45.94153" lon="4.78269">
        <ele>216</ele>
        <time>2018-11-15T09:21:49Z</time>
      </trkpt>
      <trkpt lat="45.94155" lon="4.78271">
        <ele>216</ele>
        <time>2018-11-15T09:21:50Z</time>
      </trkpt>
      <trkpt lat="45.94163" lon="4.78275">
        <ele>216</ele>
        <time>2018-11-15T09:21:53Z</time>
      </trkpt>
      <trkpt lat="45.94165" lon="4.78276">
        <ele>216</ele>
        <time>2018-11-15T09:21:54Z</time>
      </trkpt>
      <trkpt lat="45.94171" lon="4.78281">
        <ele>220</ele>
        <time>2018-11-15T09:21:58Z</time>
      </trkpt>
      <trkpt lat="45.94173" lon="4.78283">
        <ele>221</ele>
        <time>2018-11-15T09:21:59Z</time>
      </trkpt>
      <trkpt lat="45.9418" lon="4.78287">
        <ele>221</ele>
        <time>2018-11-15T09:22:03Z</time>
      </trkpt>
      <trkpt lat="45.94183" lon="4.78288">
        <ele>221</ele>
        <time>2018-11-15T09:22:04Z</time>
      </trkpt>
      <trkpt lat="45.94191" lon="4.7829">
        <ele>221</ele>
        <time>2018-11-15T09:22:07Z</time>
      </trkpt>
      <trkpt lat="45.94194" lon="4.7829">
        <ele>221</ele>
        <time>2018-11-15T09:22:08Z</time>
      </trkpt>
      <trkpt lat="45.94203" lon="4.78292">
        <ele>221</ele>
        <time>2018-11-15T09:22:11Z</time>
      </trkpt>
      <trkpt lat="45.94205" lon="4.78292">
        <ele>221</ele>
        <time>2018-11-15T09:22:12Z</time>
      </trkpt>
      <trkpt lat="45.94213" lon="4.78294">
        <ele>222</ele>
        <time>2018-11-15T09:22:15Z</time>
      </trkpt>
      <trkpt lat="45.94215" lon="4.78294">
        <ele>222</ele>
        <time>2018-11-15T09:22:16Z</time>
      </trkpt>
      <trkpt lat="45.94222" lon="4.78295">
        <ele>222</ele>
        <time>2018-11-15T09:22:19Z</time>
      </trkpt>
      <trkpt lat="45.94224" lon="4.78294">
        <ele>222</ele>
        <time>2018-11-15T09:22:20Z</time>
      </trkpt>
      <trkpt lat="45.94232" lon="4.78295">
        <ele>222</ele>
        <time>2018-11-15T09:22:23Z</time>
      </trkpt>
      <trkpt lat="45.94234" lon="4.78296">
        <ele>222</ele>
        <time>2018-11-15T09:22:24Z</time>
      </trkpt>
      <trkpt lat="45.94242" lon="4.78299">
        <ele>222</ele>
        <time>2018-11-15T09:22:27Z</time>
      </trkpt>
      <trkpt lat="45.94245" lon="4.78299">
        <ele>222</ele>
        <time>2018-11-15T09:22:28Z</time>
      </trkpt>
      <trkpt lat="45.94252" lon="4.78302">
        <ele>227</ele>
        <time>2018-11-15T09:22:31Z</time>
      </trkpt>
      <trkpt lat="45.94254" lon="4.78303">
        <ele>227</ele>
        <time>2018-11-15T09:22:32Z</time>
      </trkpt>
      <trkpt lat="45.94262" lon="4.78307">
        <ele>227</ele>
        <time>2018-11-15T09:22:36Z</time>
      </trkpt>
      <trkpt lat="45.94265" lon="4.78309">
        <ele>227</ele>
        <time>2018-11-15T09:22:37Z</time>
      </trkpt>
      <trkpt lat="45.94272" lon="4.78315">
        <ele>227</ele>
        <time>2018-11-15T09:22:40Z</time>
      </trkpt>
      <trkpt lat="45.94274" lon="4.78317">
        <ele>227</ele>
        <time>2018-11-15T09:22:41Z</time>
      </trkpt>
      <trkpt lat="45.94282" lon="4.78324">
        <ele>228</ele>
        <time>2018-11-15T09:22:45Z</time>
      </trkpt>
      <trkpt lat="45.94283" lon="4.78326">
        <ele>228</ele>
        <time>2018-11-15T09:22:46Z</time>
      </trkpt>
      <trkpt lat="45.9429" lon="4.78335">
        <ele>228</ele>
        <time>2018-11-15T09:22:50Z</time>
      </trkpt>
      <trkpt lat="45.94292" lon="4.78337">
        <ele>228</ele>
        <time>2018-11-15T09:22:51Z</time>
      </trkpt>
      <trkpt lat="45.94297" lon="4.78343">
        <ele>228</ele>
        <time>2018-11-15T09:22:54Z</time>
      </trkpt>
      <trkpt lat="45.943" lon="4.78345">
        <ele>229</ele>
        <time>2018-11-15T09:22:55Z</time>
      </trkpt>
      <trkpt lat="45.94304" lon="4.78354">
        <ele>229</ele>
        <time>2018-11-15T09:22:58Z</time>
      </trkpt>
      <trkpt lat="45.94305" lon="4.78357">
        <ele>229</ele>
        <time>2018-11-15T09:22:59Z</time>
      </trkpt>
      <trkpt lat="45.94309" lon="4.78366">
        <ele>229</ele>
        <time>2018-11-15T09:23:02Z</time>
      </trkpt>
      <trkpt lat="45.9431" lon="4.78369">
        <ele>229</ele>
        <time>2018-11-15T09:23:03Z</time>
      </trkpt>
      <trkpt lat="45.94314" lon="4.78377">
        <ele>230</ele>
        <time>2018-11-15T09:23:06Z</time>
      </trkpt>
      <trkpt lat="45.94315" lon="4.7838">
        <ele>230</ele>
        <time>2018-11-15T09:23:07Z</time>
      </trkpt>
      <trkpt lat="45.9432" lon="4.7839">
        <ele>230</ele>
        <time>2018-11-15T09:23:11Z</time>
      </trkpt>
      <trkpt lat="45.94321" lon="4.78393">
        <ele>230</ele>
        <time>2018-11-15T09:23:12Z</time>
      </trkpt>
      <trkpt lat="45.94326" lon="4.78403">
        <ele>230</ele>
        <time>2018-11-15T09:23:16Z</time>
      </trkpt>
      <trkpt lat="45.94327" lon="4.78406">
        <ele>229</ele>
        <time>2018-11-15T09:23:17Z</time>
      </trkpt>
      <trkpt lat="45.94331" lon="4.78417">
        <ele>229</ele>
        <time>2018-11-15T09:23:21Z</time>
      </trkpt>
      <trkpt lat="45.94332" lon="4.78419">
        <ele>230</ele>
        <time>2018-11-15T09:23:22Z</time>
      </trkpt>
      <trkpt lat="45.94337" lon="4.78429">
        <ele>232</ele>
        <time>2018-11-15T09:23:26Z</time>
      </trkpt>
      <trkpt lat="45.94338" lon="4.78432">
        <ele>232</ele>
        <time>2018-11-15T09:23:27Z</time>
      </trkpt>
      <trkpt lat="45.94343" lon="4.78442">
        <ele>234</ele>
        <time>2018-11-15T09:23:31Z</time>
      </trkpt>
      <trkpt lat="45.94344" lon="4.78444">
        <ele>234</ele>
        <time>2018-11-15T09:23:32Z</time>
      </trkpt>
      <trkpt lat="45.94349" lon="4.78453">
        <ele>235</ele>
        <time>2018-11-15T09:23:36Z</time>
      </trkpt>
      <trkpt lat="45.94351" lon="4.78454">
        <ele>235</ele>
        <time>2018-11-15T09:23:37Z</time>
      </trkpt>
      <trkpt lat="45.94357" lon="4.78462">
        <ele>236</ele>
        <time>2018-11-15T09:23:41Z</time>
      </trkpt>
      <trkpt lat="45.94358" lon="4.78465">
        <ele>236</ele>
        <time>2018-11-15T09:23:42Z</time>
      </trkpt>
      <trkpt lat="45.94364" lon="4.78473">
        <ele>236</ele>
        <time>2018-11-15T09:23:46Z</time>
      </trkpt>
      <trkpt lat="45.94366" lon="4.78476">
        <ele>236</ele>
        <time>2018-11-15T09:23:47Z</time>
      </trkpt>
      <trkpt lat="45.94371" lon="4.78484">
        <ele>236</ele>
        <time>2018-11-15T09:23:50Z</time>
      </trkpt>
      <trkpt lat="45.94372" lon="4.78485">
        <ele>236</ele>
        <time>2018-11-15T09:23:51Z</time>
      </trkpt>
      <trkpt lat="45.94379" lon="4.78493">
        <ele>236</ele>
        <time>2018-11-15T09:23:55Z</time>
      </trkpt>
      <trkpt lat="45.9438" lon="4.78495">
        <ele>236</ele>
        <time>2018-11-15T09:23:56Z</time>
      </trkpt>
      <trkpt lat="45.94385" lon="4.78501">
        <ele>238</ele>
        <time>2018-11-15T09:24:00Z</time>
      </trkpt>
      <trkpt lat="45.94387" lon="4.78504">
        <ele>238</ele>
        <time>2018-11-15T09:24:01Z</time>
      </trkpt>
      <trkpt lat="45.94393" lon="4.78511">
        <ele>237</ele>
        <time>2018-11-15T09:24:05Z</time>
      </trkpt>
      <trkpt lat="45.94395" lon="4.78513">
        <ele>237</ele>
        <time>2018-11-15T09:24:06Z</time>
      </trkpt>
      <trkpt lat="45.94401" lon="4.78519">
        <ele>237</ele>
        <time>2018-11-15T09:24:09Z</time>
      </trkpt>
      <trkpt lat="45.94403" lon="4.78521">
        <ele>237</ele>
        <time>2018-11-15T09:24:10Z</time>
      </trkpt>
      <trkpt lat="45.94408" lon="4.78527">
        <ele>237</ele>
        <time>2018-11-15T09:24:13Z</time>
      </trkpt>
      <trkpt lat="45.9441" lon="4.78529">
        <ele>237</ele>
        <time>2018-11-15T09:24:14Z</time>
      </trkpt>
      <trkpt lat="45.94415" lon="4.78537">
        <ele>238</ele>
        <time>2018-11-15T09:24:18Z</time>
      </trkpt>
      <trkpt lat="45.94416" lon="4.78539">
        <ele>238</ele>
        <time>2018-11-15T09:24:19Z</time>
      </trkpt>
      <trkpt lat="45.94422" lon="4.78548">
        <ele>238</ele>
        <time>2018-11-15T09:24:23Z</time>
      </trkpt>
      <trkpt lat="45.94423" lon="4.78551">
        <ele>238</ele>
        <time>2018-11-15T09:24:24Z</time>
      </trkpt>
      <trkpt lat="45.94428" lon="4.78559">
        <ele>238</ele>
        <time>2018-11-15T09:24:27Z</time>
      </trkpt>
      <trkpt lat="45.9443" lon="4.78561">
        <ele>238</ele>
        <time>2018-11-15T09:24:28Z</time>
      </trkpt>
      <trkpt lat="45.94435" lon="4.78571">
        <ele>238</ele>
        <time>2018-11-15T09:24:32Z</time>
      </trkpt>
      <trkpt lat="45.94437" lon="4.78573">
        <ele>238</ele>
        <time>2018-11-15T09:24:33Z</time>
      </trkpt>
      <trkpt lat="45.94443" lon="4.78582">
        <ele>239</ele>
        <time>2018-11-15T09:24:36Z</time>
      </trkpt>
      <trkpt lat="45.94445" lon="4.78584">
        <ele>239</ele>
        <time>2018-11-15T09:24:37Z</time>
      </trkpt>
      <trkpt lat="45.94451" lon="4.78593">
        <ele>240</ele>
        <time>2018-11-15T09:24:40Z</time>
      </trkpt>
      <trkpt lat="45.94452" lon="4.78595">
        <ele>240</ele>
        <time>2018-11-15T09:24:41Z</time>
      </trkpt>
      <trkpt lat="45.94456" lon="4.78605">
        <ele>240</ele>
        <time>2018-11-15T09:24:45Z</time>
      </trkpt>
      <trkpt lat="45.94457" lon="4.78608">
        <ele>240</ele>
        <time>2018-11-15T09:24:46Z</time>
      </trkpt>
      <trkpt lat="45.9446" lon="4.78618">
        <ele>241</ele>
        <time>2018-11-15T09:24:49Z</time>
      </trkpt>
      <trkpt lat="45.9446" lon="4.78621">
        <ele>241</ele>
        <time>2018-11-15T09:24:50Z</time>
      </trkpt>
      <trkpt lat="45.94462" lon="4.78632">
        <ele>241</ele>
        <time>2018-11-15T09:24:54Z</time>
      </trkpt>
      <trkpt lat="45.94463" lon="4.78635">
        <ele>241</ele>
        <time>2018-11-15T09:24:55Z</time>
      </trkpt>
      <trkpt lat="45.94464" lon="4.78644">
        <ele>241</ele>
        <time>2018-11-15T09:24:59Z</time>
      </trkpt>
      <trkpt lat="45.94464" lon="4.78647">
        <ele>241</ele>
        <time>2018-11-15T09:25:00Z</time>
      </trkpt>
      <trkpt lat="45.94465" lon="4.78658">
        <ele>241</ele>
        <time>2018-11-15T09:25:04Z</time>
      </trkpt>
      <trkpt lat="45.94465" lon="4.78661">
        <ele>241</ele>
        <time>2018-11-15T09:25:05Z</time>
      </trkpt>
      <trkpt lat="45.94466" lon="4.78672">
        <ele>244</ele>
        <time>2018-11-15T09:25:09Z</time>
      </trkpt>
      <trkpt lat="45.94467" lon="4.78675">
        <ele>244</ele>
        <time>2018-11-15T09:25:10Z</time>
      </trkpt>
      <trkpt lat="45.94469" lon="4.78685">
        <ele>244</ele>
        <time>2018-11-15T09:25:14Z</time>
      </trkpt>
      <trkpt lat="45.94469" lon="4.78688">
        <ele>244</ele>
        <time>2018-11-15T09:25:15Z</time>
      </trkpt>
      <trkpt lat="45.94472" lon="4.78697">
        <ele>245</ele>
        <time>2018-11-15T09:25:19Z</time>
      </trkpt>
      <trkpt lat="45.94472" lon="4.787">
        <ele>245</ele>
        <time>2018-11-15T09:25:20Z</time>
      </trkpt>
      <trkpt lat="45.94474" lon="4.7871">
        <ele>245</ele>
        <time>2018-11-15T09:25:23Z</time>
      </trkpt>
      <trkpt lat="45.94474" lon="4.78713">
        <ele>245</ele>
        <time>2018-11-15T09:25:24Z</time>
      </trkpt>
      <trkpt lat="45.94476" lon="4.78725">
        <ele>246</ele>
        <time>2018-11-15T09:25:28Z</time>
      </trkpt>
      <trkpt lat="45.94476" lon="4.78728">
        <ele>246</ele>
        <time>2018-11-15T09:25:29Z</time>
      </trkpt>
      <trkpt lat="45.94481" lon="4.78737">
        <ele>246</ele>
        <time>2018-11-15T09:25:33Z</time>
      </trkpt>
      <trkpt lat="45.94481" lon="4.78739">
        <ele>246</ele>
        <time>2018-11-15T09:25:34Z</time>
      </trkpt>
      <trkpt lat="45.94482" lon="4.78752">
        <ele>249</ele>
        <time>2018-11-15T09:25:39Z</time>
      </trkpt>
      <trkpt lat="45.94482" lon="4.78754">
        <ele>249</ele>
        <time>2018-11-15T09:25:40Z</time>
      </trkpt>
      <trkpt lat="45.94483" lon="4.78765">
        <ele>249</ele>
        <time>2018-11-15T09:25:45Z</time>
      </trkpt>
      <trkpt lat="45.94483" lon="4.78768">
        <ele>249</ele>
        <time>2018-11-15T09:25:46Z</time>
      </trkpt>
      <trkpt lat="45.94481" lon="4.7878">
        <ele>250</ele>
        <time>2018-11-15T09:25:50Z</time>
      </trkpt>
      <trkpt lat="45.9448" lon="4.78783">
        <ele>250</ele>
        <time>2018-11-15T09:25:51Z</time>
      </trkpt>
      <trkpt lat="45.94476" lon="4.7879">
        <ele>250</ele>
        <time>2018-11-15T09:25:54Z</time>
      </trkpt>
      <trkpt lat="45.94474" lon="4.78793">
        <ele>250</ele>
        <time>2018-11-15T09:25:55Z</time>
      </trkpt>
      <trkpt lat="45.9447" lon="4.78803">
        <ele>251</ele>
        <time>2018-11-15T09:25:59Z</time>
      </trkpt>
      <trkpt lat="45.9447" lon="4.78806">
        <ele>251</ele>
        <time>2018-11-15T09:26:00Z</time>
      </trkpt>
      <trkpt lat="45.94467" lon="4.78817">
        <ele>251</ele>
        <time>2018-11-15T09:26:05Z</time>
      </trkpt>
      <trkpt lat="45.94466" lon="4.78819">
        <ele>251</ele>
        <time>2018-11-15T09:26:06Z</time>
      </trkpt>
      <trkpt lat="45.94462" lon="4.78829">
        <ele>251</ele>
        <time>2018-11-15T09:26:11Z</time>
      </trkpt>
      <trkpt lat="45.94461" lon="4.78832">
        <ele>251</ele>
        <time>2018-11-15T09:26:12Z</time>
      </trkpt>
      <trkpt lat="45.94457" lon="4.78842">
        <ele>253</ele>
        <time>2018-11-15T09:26:17Z</time>
      </trkpt>
      <trkpt lat="45.94456" lon="4.78844">
        <ele>253</ele>
        <time>2018-11-15T09:26:18Z</time>
      </trkpt>
      <trkpt lat="45.94451" lon="4.78854">
        <ele>253</ele>
        <time>2018-11-15T09:26:23Z</time>
      </trkpt>
      <trkpt lat="45.9445" lon="4.78856">
        <ele>253</ele>
        <time>2018-11-15T09:26:24Z</time>
      </trkpt>
      <trkpt lat="45.9445" lon="4.78869">
        <ele>253</ele>
        <time>2018-11-15T09:26:29Z</time>
      </trkpt>
      <trkpt lat="45.9445" lon="4.7887">
        <ele>253</ele>
        <time>2018-11-15T09:26:30Z</time>
      </trkpt>
      <trkpt lat="45.94452" lon="4.78882">
        <ele>253</ele>
        <time>2018-11-15T09:26:34Z</time>
      </trkpt>
      <trkpt lat="45.94452" lon="4.78885">
        <ele>253</ele>
        <time>2018-11-15T09:26:35Z</time>
      </trkpt>
      <trkpt lat="45.94454" lon="4.78895">
        <ele>253</ele>
        <time>2018-11-15T09:26:39Z</time>
      </trkpt>
      <trkpt lat="45.94455" lon="4.78899">
        <ele>253</ele>
        <time>2018-11-15T09:26:40Z</time>
      </trkpt>
      <trkpt lat="45.94456" lon="4.7891">
        <ele>253</ele>
        <time>2018-11-15T09:26:44Z</time>
      </trkpt>
      <trkpt lat="45.94456" lon="4.78912">
        <ele>253</ele>
        <time>2018-11-15T09:26:45Z</time>
      </trkpt>
      <trkpt lat="45.94458" lon="4.78923">
        <ele>254</ele>
        <time>2018-11-15T09:26:49Z</time>
      </trkpt>
      <trkpt lat="45.94459" lon="4.78925">
        <ele>254</ele>
        <time>2018-11-15T09:26:50Z</time>
      </trkpt>
      <trkpt lat="45.94462" lon="4.78936">
        <ele>254</ele>
        <time>2018-11-15T09:26:54Z</time>
      </trkpt>
      <trkpt lat="45.94462" lon="4.78938">
        <ele>254</ele>
        <time>2018-11-15T09:26:55Z</time>
      </trkpt>
      <trkpt lat="45.94466" lon="4.78948">
        <ele>254</ele>
        <time>2018-11-15T09:26:59Z</time>
      </trkpt>
      <trkpt lat="45.94467" lon="4.7895">
        <ele>254</ele>
        <time>2018-11-15T09:27:00Z</time>
      </trkpt>
      <trkpt lat="45.9447" lon="4.7896">
        <ele>254</ele>
        <time>2018-11-15T09:27:04Z</time>
      </trkpt>
      <trkpt lat="45.9447" lon="4.78962">
        <ele>254</ele>
        <time>2018-11-15T09:27:05Z</time>
      </trkpt>
      <trkpt lat="45.94474" lon="4.7897">
        <ele>254</ele>
        <time>2018-11-15T09:27:09Z</time>
      </trkpt>
      <trkpt lat="45.94476" lon="4.78973">
        <ele>254</ele>
        <time>2018-11-15T09:27:10Z</time>
      </trkpt>
      <trkpt lat="45.94481" lon="4.78981">
        <ele>254</ele>
        <time>2018-11-15T09:27:13Z</time>
      </trkpt>
      <trkpt lat="45.94482" lon="4.78983">
        <ele>254</ele>
        <time>2018-11-15T09:27:14Z</time>
      </trkpt>
      <trkpt lat="45.94487" lon="4.78993">
        <ele>254</ele>
        <time>2018-11-15T09:27:18Z</time>
      </trkpt>
      <trkpt lat="45.94488" lon="4.78995">
        <ele>254</ele>
        <time>2018-11-15T09:27:19Z</time>
      </trkpt>
      <trkpt lat="45.94493" lon="4.79002">
        <ele>254</ele>
        <time>2018-11-15T09:27:22Z</time>
      </trkpt>
      <trkpt lat="45.94494" lon="4.79005">
        <ele>254</ele>
        <time>2018-11-15T09:27:23Z</time>
      </trkpt>
      <trkpt lat="45.94499" lon="4.79013">
        <ele>254</ele>
        <time>2018-11-15T09:27:26Z</time>
      </trkpt>
      <trkpt lat="45.945" lon="4.79017">
        <ele>254</ele>
        <time>2018-11-15T09:27:27Z</time>
      </trkpt>
      <trkpt lat="45.94504" lon="4.79025">
        <ele>255</ele>
        <time>2018-11-15T09:27:30Z</time>
      </trkpt>
      <trkpt lat="45.94506" lon="4.79028">
        <ele>255</ele>
        <time>2018-11-15T09:27:31Z</time>
      </trkpt>
      <trkpt lat="45.9451" lon="4.79037">
        <ele>255</ele>
        <time>2018-11-15T09:27:34Z</time>
      </trkpt>
      <trkpt lat="45.94512" lon="4.7904">
        <ele>255</ele>
        <time>2018-11-15T09:27:35Z</time>
      </trkpt>
      <trkpt lat="45.94516" lon="4.7905">
        <ele>255</ele>
        <time>2018-11-15T09:27:38Z</time>
      </trkpt>
      <trkpt lat="45.94518" lon="4.79053">
        <ele>255</ele>
        <time>2018-11-15T09:27:39Z</time>
      </trkpt>
      <trkpt lat="45.94522" lon="4.79062">
        <ele>255</ele>
        <time>2018-11-15T09:27:42Z</time>
      </trkpt>
      <trkpt lat="45.94523" lon="4.79065">
        <ele>255</ele>
        <time>2018-11-15T09:27:43Z</time>
      </trkpt>
      <trkpt lat="45.94528" lon="4.79075">
        <ele>255</ele>
        <time>2018-11-15T09:27:46Z</time>
      </trkpt>
      <trkpt lat="45.94532" lon="4.79084">
        <ele>256</ele>
        <time>2018-11-15T09:27:47Z</time>
      </trkpt>
      <trkpt lat="45.94535" lon="4.7909">
        <ele>256</ele>
        <time>2018-11-15T09:27:49Z</time>
      </trkpt>
      <trkpt lat="45.94537" lon="4.79094">
        <ele>256</ele>
        <time>2018-11-15T09:27:50Z</time>
      </trkpt>
      <trkpt lat="45.94542" lon="4.79103">
        <ele>256</ele>
        <time>2018-11-15T09:27:52Z</time>
      </trkpt>
      <trkpt lat="45.94546" lon="4.79109">
        <ele>256</ele>
        <time>2018-11-15T09:27:53Z</time>
      </trkpt>
      <trkpt lat="45.94551" lon="4.79117">
        <ele>256</ele>
        <time>2018-11-15T09:27:55Z</time>
      </trkpt>
      <trkpt lat="45.94553" lon="4.79122">
        <ele>257</ele>
        <time>2018-11-15T09:27:56Z</time>
      </trkpt>
      <trkpt lat="45.94557" lon="4.79128">
        <ele>257</ele>
        <time>2018-11-15T09:27:58Z</time>
      </trkpt>
      <trkpt lat="45.94561" lon="4.79135">
        <ele>257</ele>
        <time>2018-11-15T09:27:59Z</time>
      </trkpt>
      <trkpt lat="45.94565" lon="4.79144">
        <ele>257</ele>
        <time>2018-11-15T09:28:01Z</time>
      </trkpt>
      <trkpt lat="45.94568" lon="4.79149">
        <ele>257</ele>
        <time>2018-11-15T09:28:02Z</time>
      </trkpt>
      <trkpt lat="45.9457" lon="4.79154">
        <ele>258</ele>
        <time>2018-11-15T09:28:03Z</time>
      </trkpt>
      <trkpt lat="45.94573" lon="4.7916">
        <ele>258</ele>
        <time>2018-11-15T09:28:04Z</time>
      </trkpt>
      <trkpt lat="45.94577" lon="4.79168">
        <ele>258</ele>
        <time>2018-11-15T09:28:06Z</time>
      </trkpt>
      <trkpt lat="45.9458" lon="4.79174">
        <ele>258</ele>
        <time>2018-11-15T09:28:07Z</time>
      </trkpt>
      <trkpt lat="45.94585" lon="4.79184">
        <ele>258</ele>
        <time>2018-11-15T09:28:09Z</time>
      </trkpt>
      <trkpt lat="45.94588" lon="4.79188">
        <ele>258</ele>
        <time>2018-11-15T09:28:10Z</time>
      </trkpt>
      <trkpt lat="45.94594" lon="4.79196">
        <ele>257</ele>
        <time>2018-11-15T09:28:12Z</time>
      </trkpt>
      <trkpt lat="45.94596" lon="4.79201">
        <ele>257</ele>
        <time>2018-11-15T09:28:13Z</time>
      </trkpt>
      <trkpt lat="45.94601" lon="4.79207">
        <ele>257</ele>
        <time>2018-11-15T09:28:15Z</time>
      </trkpt>
      <trkpt lat="45.94604" lon="4.79213">
        <ele>257</ele>
        <time>2018-11-15T09:28:16Z</time>
      </trkpt>
      <trkpt lat="45.94607" lon="4.79219">
        <ele>256</ele>
        <time>2018-11-15T09:28:17Z</time>
      </trkpt>
      <trkpt lat="45.94609" lon="4.79224">
        <ele>256</ele>
        <time>2018-11-15T09:28:18Z</time>
      </trkpt>
      <trkpt lat="45.94614" lon="4.79233">
        <ele>256</ele>
        <time>2018-11-15T09:28:20Z</time>
      </trkpt>
      <trkpt lat="45.94615" lon="4.79235">
        <ele>256</ele>
        <time>2018-11-15T09:28:21Z</time>
      </trkpt>
      <trkpt lat="45.94618" lon="4.79242">
        <ele>256</ele>
        <time>2018-11-15T09:28:22Z</time>
      </trkpt>
      <trkpt lat="45.9462" lon="4.79247">
        <ele>256</ele>
        <time>2018-11-15T09:28:23Z</time>
      </trkpt>
      <trkpt lat="45.94625" lon="4.79256">
        <ele>255</ele>
        <time>2018-11-15T09:28:25Z</time>
      </trkpt>
      <trkpt lat="45.94627" lon="4.79261">
        <ele>254</ele>
        <time>2018-11-15T09:28:26Z</time>
      </trkpt>
      <trkpt lat="45.94631" lon="4.79271">
        <ele>254</ele>
        <time>2018-11-15T09:28:28Z</time>
      </trkpt>
      <trkpt lat="45.94633" lon="4.79275">
        <ele>254</ele>
        <time>2018-11-15T09:28:29Z</time>
      </trkpt>
      <trkpt lat="45.94638" lon="4.79284">
        <ele>254</ele>
        <time>2018-11-15T09:28:31Z</time>
      </trkpt>
      <trkpt lat="45.9464" lon="4.79289">
        <ele>254</ele>
        <time>2018-11-15T09:28:32Z</time>
      </trkpt>
      <trkpt lat="45.94644" lon="4.79299">
        <ele>254</ele>
        <time>2018-11-15T09:28:34Z</time>
      </trkpt>
      <trkpt lat="45.94647" lon="4.79303">
        <ele>254</ele>
        <time>2018-11-15T09:28:35Z</time>
      </trkpt>
      <trkpt lat="45.94652" lon="4.79313">
        <ele>254</ele>
        <time>2018-11-15T09:28:37Z</time>
      </trkpt>
      <trkpt lat="45.94653" lon="4.79315">
        <ele>254</ele>
        <time>2018-11-15T09:28:38Z</time>
      </trkpt>
      <trkpt lat="45.94657" lon="4.79324">
        <ele>254</ele>
        <time>2018-11-15T09:28:41Z</time>
      </trkpt>
      <trkpt lat="45.94658" lon="4.79327">
        <ele>254</ele>
        <time>2018-11-15T09:28:42Z</time>
      </trkpt>
      <trkpt lat="45.94662" lon="4.79337">
        <ele>254</ele>
        <time>2018-11-15T09:28:45Z</time>
      </trkpt>
      <trkpt lat="45.94664" lon="4.7934">
        <ele>254</ele>
        <time>2018-11-15T09:28:46Z</time>
      </trkpt>
      <trkpt lat="45.94666" lon="4.79345">
        <ele>254</ele>
        <time>2018-11-15T09:28:47Z</time>
      </trkpt>
      <trkpt lat="45.94669" lon="4.79353">
        <ele>253</ele>
        <time>2018-11-15T09:28:48Z</time>
      </trkpt>
      <trkpt lat="45.94673" lon="4.79361">
        <ele>253</ele>
        <time>2018-11-15T09:28:50Z</time>
      </trkpt>
      <trkpt lat="45.94675" lon="4.79366">
        <ele>253</ele>
        <time>2018-11-15T09:28:51Z</time>
      </trkpt>
      <trkpt lat="45.94679" lon="4.79375">
        <ele>253</ele>
        <time>2018-11-15T09:28:53Z</time>
      </trkpt>
      <trkpt lat="45.94681" lon="4.7938">
        <ele>253</ele>
        <time>2018-11-15T09:28:54Z</time>
      </trkpt>
      <trkpt lat="45.94686" lon="4.79389">
        <ele>253</ele>
        <time>2018-11-15T09:28:56Z</time>
      </trkpt>
      <trkpt lat="45.94688" lon="4.79394">
        <ele>253</ele>
        <time>2018-11-15T09:28:57Z</time>
      </trkpt>
      <trkpt lat="45.94692" lon="4.79403">
        <ele>253</ele>
        <time>2018-11-15T09:28:59Z</time>
      </trkpt>
      <trkpt lat="45.94695" lon="4.79407">
        <ele>253</ele>
        <time>2018-11-15T09:29:00Z</time>
      </trkpt>
      <trkpt lat="45.947" lon="4.79418">
        <ele>253</ele>
        <time>2018-11-15T09:29:02Z</time>
      </trkpt>
      <trkpt lat="45.94702" lon="4.79423">
        <ele>253</ele>
        <time>2018-11-15T09:29:03Z</time>
      </trkpt>
      <trkpt lat="45.94705" lon="4.79428">
        <ele>253</ele>
        <time>2018-11-15T09:29:04Z</time>
      </trkpt>
      <trkpt lat="45.94709" lon="4.79434">
        <ele>253</ele>
        <time>2018-11-15T09:29:05Z</time>
      </trkpt>
      <trkpt lat="45.94712" lon="4.79439">
        <ele>253</ele>
        <time>2018-11-15T09:29:06Z</time>
      </trkpt>
      <trkpt lat="45.94715" lon="4.79444">
        <ele>253</ele>
        <time>2018-11-15T09:29:07Z</time>
      </trkpt>
      <trkpt lat="45.94719" lon="4.7945">
        <ele>253</ele>
        <time>2018-11-15T09:29:08Z</time>
      </trkpt>
      <trkpt lat="45.94722" lon="4.79456">
        <ele>253</ele>
        <time>2018-11-15T09:29:09Z</time>
      </trkpt>
      <trkpt lat="45.94724" lon="4.79463">
        <ele>253</ele>
        <time>2018-11-15T09:29:10Z</time>
      </trkpt>
      <trkpt lat="45.94727" lon="4.7947">
        <ele>253</ele>
        <time>2018-11-15T09:29:11Z</time>
      </trkpt>
      <trkpt lat="45.94731" lon="4.79478">
        <ele>253</ele>
        <time>2018-11-15T09:29:12Z</time>
      </trkpt>
      <trkpt lat="45.94734" lon="4.79486">
        <ele>253</ele>
        <time>2018-11-15T09:29:13Z</time>
      </trkpt>
      <trkpt lat="45.94736" lon="4.79493">
        <ele>252</ele>
        <time>2018-11-15T09:29:14Z</time>
      </trkpt>
      <trkpt lat="45.94739" lon="4.79501">
        <ele>252</ele>
        <time>2018-11-15T09:29:15Z</time>
      </trkpt>
      <trkpt lat="45.94742" lon="4.79508">
        <ele>252</ele>
        <time>2018-11-15T09:29:16Z</time>
      </trkpt>
      <trkpt lat="45.94745" lon="4.79515">
        <ele>252</ele>
        <time>2018-11-15T09:29:17Z</time>
      </trkpt>
      <trkpt lat="45.94748" lon="4.79522">
        <ele>253</ele>
        <time>2018-11-15T09:29:18Z</time>
      </trkpt>
      <trkpt lat="45.94751" lon="4.79528">
        <ele>252</ele>
        <time>2018-11-15T09:29:19Z</time>
      </trkpt>
      <trkpt lat="45.94753" lon="4.79535">
        <ele>252</ele>
        <time>2018-11-15T09:29:20Z</time>
      </trkpt>
      <trkpt lat="45.94755" lon="4.79541">
        <ele>252</ele>
        <time>2018-11-15T09:29:21Z</time>
      </trkpt>
      <trkpt lat="45.94759" lon="4.79546">
        <ele>252</ele>
        <time>2018-11-15T09:29:22Z</time>
      </trkpt>
      <trkpt lat="45.94762" lon="4.79552">
        <ele>252</ele>
        <time>2018-11-15T09:29:23Z</time>
      </trkpt>
      <trkpt lat="45.94765" lon="4.79563">
        <ele>252</ele>
        <time>2018-11-15T09:29:25Z</time>
      </trkpt>
      <trkpt lat="45.94766" lon="4.79569">
        <ele>252</ele>
        <time>2018-11-15T09:29:26Z</time>
      </trkpt>
      <trkpt lat="45.94764" lon="4.7958">
        <ele>252</ele>
        <time>2018-11-15T09:29:28Z</time>
      </trkpt>
      <trkpt lat="45.94764" lon="4.79583">
        <ele>252</ele>
        <time>2018-11-15T09:29:29Z</time>
      </trkpt>
      <trkpt lat="45.94764" lon="4.79596">
        <ele>253</ele>
        <time>2018-11-15T09:29:31Z</time>
      </trkpt>
      <trkpt lat="45.94764" lon="4.796">
        <ele>253</ele>
        <time>2018-11-15T09:29:32Z</time>
      </trkpt>
      <trkpt lat="45.94765" lon="4.79611">
        <ele>253</ele>
        <time>2018-11-15T09:29:34Z</time>
      </trkpt>
      <trkpt lat="45.94766" lon="4.79618">
        <ele>253</ele>
        <time>2018-11-15T09:29:35Z</time>
      </trkpt>
      <trkpt lat="45.94768" lon="4.79624">
        <ele>253</ele>
        <time>2018-11-15T09:29:36Z</time>
      </trkpt>
      <trkpt lat="45.94769" lon="4.7963">
        <ele>253</ele>
        <time>2018-11-15T09:29:37Z</time>
      </trkpt>
      <trkpt lat="45.94772" lon="4.79642">
        <ele>254</ele>
        <time>2018-11-15T09:29:39Z</time>
      </trkpt>
      <trkpt lat="45.94773" lon="4.79648">
        <ele>254</ele>
        <time>2018-11-15T09:29:40Z</time>
      </trkpt>
      <trkpt lat="45.94775" lon="4.7966">
        <ele>254</ele>
        <time>2018-11-15T09:29:42Z</time>
      </trkpt>
      <trkpt lat="45.94775" lon="4.79667">
        <ele>254</ele>
        <time>2018-11-15T09:29:43Z</time>
      </trkpt>
      <trkpt lat="45.94777" lon="4.79673">
        <ele>254</ele>
        <time>2018-11-15T09:29:44Z</time>
      </trkpt>
      <trkpt lat="45.9478" lon="4.79679">
        <ele>254</ele>
        <time>2018-11-15T09:29:45Z</time>
      </trkpt>
      <trkpt lat="45.94783" lon="4.79685">
        <ele>254</ele>
        <time>2018-11-15T09:29:46Z</time>
      </trkpt>
      <trkpt lat="45.94785" lon="4.79691">
        <ele>254</ele>
        <time>2018-11-15T09:29:47Z</time>
      </trkpt>
      <trkpt lat="45.94788" lon="4.79698">
        <ele>254</ele>
        <time>2018-11-15T09:29:48Z</time>
      </trkpt>
      <trkpt lat="45.94789" lon="4.79704">
        <ele>254</ele>
        <time>2018-11-15T09:29:49Z</time>
      </trkpt>
      <trkpt lat="45.94792" lon="4.79715">
        <ele>254</ele>
        <time>2018-11-15T09:29:51Z</time>
      </trkpt>
      <trkpt lat="45.94797" lon="4.7972">
        <ele>254</ele>
        <time>2018-11-15T09:29:52Z</time>
      </trkpt>
      <trkpt lat="45.94801" lon="4.79731">
        <ele>254</ele>
        <time>2018-11-15T09:29:54Z</time>
      </trkpt>
      <trkpt lat="45.94802" lon="4.79738">
        <ele>254</ele>
        <time>2018-11-15T09:29:55Z</time>
      </trkpt>
      <trkpt lat="45.94803" lon="4.79744">
        <ele>254</ele>
        <time>2018-11-15T09:29:56Z</time>
      </trkpt>
      <trkpt lat="45.94805" lon="4.79751">
        <ele>254</ele>
        <time>2018-11-15T09:29:57Z</time>
      </trkpt>
      <trkpt lat="45.94807" lon="4.79758">
        <ele>254</ele>
        <time>2018-11-15T09:29:58Z</time>
      </trkpt>
      <trkpt lat="45.94809" lon="4.79766">
        <ele>254</ele>
        <time>2018-11-15T09:29:59Z</time>
      </trkpt>
      <trkpt lat="45.9481" lon="4.79774">
        <ele>254</ele>
        <time>2018-11-15T09:30:00Z</time>
      </trkpt>
      <trkpt lat="45.94812" lon="4.79781">
        <ele>254</ele>
        <time>2018-11-15T09:30:01Z</time>
      </trkpt>
      <trkpt lat="45.94816" lon="4.7979">
        <ele>254</ele>
        <time>2018-11-15T09:30:02Z</time>
      </trkpt>
      <trkpt lat="45.94817" lon="4.79797">
        <ele>254</ele>
        <time>2018-11-15T09:30:03Z</time>
      </trkpt>
      <trkpt lat="45.94821" lon="4.79804">
        <ele>254</ele>
        <time>2018-11-15T09:30:04Z</time>
      </trkpt>
      <trkpt lat="45.94822" lon="4.79811">
        <ele>254</ele>
        <time>2018-11-15T09:30:05Z</time>
      </trkpt>
      <trkpt lat="45.94824" lon="4.79818">
        <ele>254</ele>
        <time>2018-11-15T09:30:06Z</time>
      </trkpt>
      <trkpt lat="45.94825" lon="4.79825">
        <ele>254</ele>
        <time>2018-11-15T09:30:07Z</time>
      </trkpt>
      <trkpt lat="45.94826" lon="4.79837">
        <ele>254</ele>
        <time>2018-11-15T09:30:09Z</time>
      </trkpt>
      <trkpt lat="45.94828" lon="4.79842">
        <ele>254</ele>
        <time>2018-11-15T09:30:10Z</time>
      </trkpt>
      <trkpt lat="45.94831" lon="4.79852">
        <ele>254</ele>
        <time>2018-11-15T09:30:12Z</time>
      </trkpt>
      <trkpt lat="45.94832" lon="4.79858">
        <ele>255</ele>
        <time>2018-11-15T09:30:13Z</time>
      </trkpt>
      <trkpt lat="45.94835" lon="4.79869">
        <ele>255</ele>
        <time>2018-11-15T09:30:15Z</time>
      </trkpt>
      <trkpt lat="45.94836" lon="4.79873">
        <ele>255</ele>
        <time>2018-11-15T09:30:16Z</time>
      </trkpt>
      <trkpt lat="45.94838" lon="4.79881">
        <ele>255</ele>
        <time>2018-11-15T09:30:17Z</time>
      </trkpt>
      <trkpt lat="45.94839" lon="4.79885">
        <ele>255</ele>
        <time>2018-11-15T09:30:18Z</time>
      </trkpt>
      <trkpt lat="45.94843" lon="4.79896">
        <ele>255</ele>
        <time>2018-11-15T09:30:20Z</time>
      </trkpt>
      <trkpt lat="45.94845" lon="4.79901">
        <ele>255</ele>
        <time>2018-11-15T09:30:21Z</time>
      </trkpt>
      <trkpt lat="45.94847" lon="4.79907">
        <ele>256</ele>
        <time>2018-11-15T09:30:22Z</time>
      </trkpt>
      <trkpt lat="45.94851" lon="4.79912">
        <ele>256</ele>
        <time>2018-11-15T09:30:23Z</time>
      </trkpt>
      <trkpt lat="45.94856" lon="4.79921">
        <ele>256</ele>
        <time>2018-11-15T09:30:25Z</time>
      </trkpt>
      <trkpt lat="45.94858" lon="4.79927">
        <ele>256</ele>
        <time>2018-11-15T09:30:26Z</time>
      </trkpt>
      <trkpt lat="45.94862" lon="4.79937">
        <ele>256</ele>
        <time>2018-11-15T09:30:28Z</time>
      </trkpt>
      <trkpt lat="45.94863" lon="4.79943">
        <ele>256</ele>
        <time>2018-11-15T09:30:29Z</time>
      </trkpt>
      <trkpt lat="45.94867" lon="4.79948">
        <ele>256</ele>
        <time>2018-11-15T09:30:30Z</time>
      </trkpt>
      <trkpt lat="45.94869" lon="4.79953">
        <ele>256</ele>
        <time>2018-11-15T09:30:31Z</time>
      </trkpt>
      <trkpt lat="45.94873" lon="4.79965">
        <ele>256</ele>
        <time>2018-11-15T09:30:33Z</time>
      </trkpt>
      <trkpt lat="45.94875" lon="4.7997">
        <ele>256</ele>
        <time>2018-11-15T09:30:34Z</time>
      </trkpt>
      <trkpt lat="45.9488" lon="4.79981">
        <ele>256</ele>
        <time>2018-11-15T09:30:36Z</time>
      </trkpt>
      <trkpt lat="45.94881" lon="4.79986">
        <ele>256</ele>
        <time>2018-11-15T09:30:37Z</time>
      </trkpt>
      <trkpt lat="45.94885" lon="4.79997">
        <ele>256</ele>
        <time>2018-11-15T09:30:39Z</time>
      </trkpt>
      <trkpt lat="45.94887" lon="4.80003">
        <ele>256</ele>
        <time>2018-11-15T09:30:40Z</time>
      </trkpt>
      <trkpt lat="45.94889" lon="4.80008">
        <ele>256</ele>
        <time>2018-11-15T09:30:41Z</time>
      </trkpt>
      <trkpt lat="45.94892" lon="4.80015">
        <ele>256</ele>
        <time>2018-11-15T09:30:42Z</time>
      </trkpt>
      <trkpt lat="45.94894" lon="4.80021">
        <ele>256</ele>
        <time>2018-11-15T09:30:43Z</time>
      </trkpt>
      <trkpt lat="45.94896" lon="4.80027">
        <ele>256</ele>
        <time>2018-11-15T09:30:44Z</time>
      </trkpt>
      <trkpt lat="45.94898" lon="4.80038">
        <ele>256</ele>
        <time>2018-11-15T09:30:46Z</time>
      </trkpt>
      <trkpt lat="45.949" lon="4.80044">
        <ele>256</ele>
        <time>2018-11-15T09:30:47Z</time>
      </trkpt>
      <trkpt lat="45.94903" lon="4.80056">
        <ele>256</ele>
        <time>2018-11-15T09:30:49Z</time>
      </trkpt>
      <trkpt lat="45.94904" lon="4.80062">
        <ele>256</ele>
        <time>2018-11-15T09:30:50Z</time>
      </trkpt>
      <trkpt lat="45.94907" lon="4.80072">
        <ele>257</ele>
        <time>2018-11-15T09:30:52Z</time>
      </trkpt>
      <trkpt lat="45.94908" lon="4.80079">
        <ele>257</ele>
        <time>2018-11-15T09:30:53Z</time>
      </trkpt>
      <trkpt lat="45.94911" lon="4.8009">
        <ele>257</ele>
        <time>2018-11-15T09:30:55Z</time>
      </trkpt>
      <trkpt lat="45.94912" lon="4.80096">
        <ele>257</ele>
        <time>2018-11-15T09:30:56Z</time>
      </trkpt>
      <trkpt lat="45.94914" lon="4.80109">
        <ele>256</ele>
        <time>2018-11-15T09:30:58Z</time>
      </trkpt>
      <trkpt lat="45.94917" lon="4.80118">
        <ele>256</ele>
        <time>2018-11-15T09:30:59Z</time>
      </trkpt>
      <trkpt lat="45.94918" lon="4.80124">
        <ele>256</ele>
        <time>2018-11-15T09:31:00Z</time>
      </trkpt>
      <trkpt lat="45.9492" lon="4.80131">
        <ele>256</ele>
        <time>2018-11-15T09:31:01Z</time>
      </trkpt>
      <trkpt lat="45.94923" lon="4.80143">
        <ele>256</ele>
        <time>2018-11-15T09:31:03Z</time>
      </trkpt>
      <trkpt lat="45.94924" lon="4.80147">
        <ele>256</ele>
        <time>2018-11-15T09:31:04Z</time>
      </trkpt>
      <trkpt lat="45.94925" lon="4.80157">
        <ele>255</ele>
        <time>2018-11-15T09:31:06Z</time>
      </trkpt>
      <trkpt lat="45.94927" lon="4.80162">
        <ele>255</ele>
        <time>2018-11-15T09:31:07Z</time>
      </trkpt>
      <trkpt lat="45.94929" lon="4.80173">
        <ele>255</ele>
        <time>2018-11-15T09:31:09Z</time>
      </trkpt>
      <trkpt lat="45.9493" lon="4.80178">
        <ele>256</ele>
        <time>2018-11-15T09:31:10Z</time>
      </trkpt>
      <trkpt lat="45.94933" lon="4.8019">
        <ele>256</ele>
        <time>2018-11-15T09:31:12Z</time>
      </trkpt>
      <trkpt lat="45.94935" lon="4.80196">
        <ele>256</ele>
        <time>2018-11-15T09:31:13Z</time>
      </trkpt>
      <trkpt lat="45.94935" lon="4.80202">
        <ele>256</ele>
        <time>2018-11-15T09:31:14Z</time>
      </trkpt>
      <trkpt lat="45.94936" lon="4.8021">
        <ele>256</ele>
        <time>2018-11-15T09:31:15Z</time>
      </trkpt>
      <trkpt lat="45.94937" lon="4.80217">
        <ele>256</ele>
        <time>2018-11-15T09:31:16Z</time>
      </trkpt>
      <trkpt lat="45.94938" lon="4.80223">
        <ele>256</ele>
        <time>2018-11-15T09:31:17Z</time>
      </trkpt>
      <trkpt lat="45.94938" lon="4.80229">
        <ele>256</ele>
        <time>2018-11-15T09:31:18Z</time>
      </trkpt>
      <trkpt lat="45.9494" lon="4.80237">
        <ele>256</ele>
        <time>2018-11-15T09:31:19Z</time>
      </trkpt>
      <trkpt lat="45.94941" lon="4.8025">
        <ele>256</ele>
        <time>2018-11-15T09:31:21Z</time>
      </trkpt>
      <trkpt lat="45.94941" lon="4.80256">
        <ele>257</ele>
        <time>2018-11-15T09:31:22Z</time>
      </trkpt>
      <trkpt lat="45.94941" lon="4.80267">
        <ele>257</ele>
        <time>2018-11-15T09:31:24Z</time>
      </trkpt>
      <trkpt lat="45.94942" lon="4.80273">
        <ele>257</ele>
        <time>2018-11-15T09:31:25Z</time>
      </trkpt>
      <trkpt lat="45.94942" lon="4.80285">
        <ele>257</ele>
        <time>2018-11-15T09:31:27Z</time>
      </trkpt>
      <trkpt lat="45.94942" lon="4.8029">
        <ele>257</ele>
        <time>2018-11-15T09:31:28Z</time>
      </trkpt>
      <trkpt lat="45.94943" lon="4.80302">
        <ele>257</ele>
        <time>2018-11-15T09:31:30Z</time>
      </trkpt>
      <trkpt lat="45.94943" lon="4.80308">
        <ele>257</ele>
        <time>2018-11-15T09:31:31Z</time>
      </trkpt>
      <trkpt lat="45.94943" lon="4.8032">
        <ele>257</ele>
        <time>2018-11-15T09:31:33Z</time>
      </trkpt>
      <trkpt lat="45.94944" lon="4.80326">
        <ele>257</ele>
        <time>2018-11-15T09:31:34Z</time>
      </trkpt>
      <trkpt lat="45.94943" lon="4.80339">
        <ele>258</ele>
        <time>2018-11-15T09:31:36Z</time>
      </trkpt>
      <trkpt lat="45.94943" lon="4.80345">
        <ele>258</ele>
        <time>2018-11-15T09:31:37Z</time>
      </trkpt>
      <trkpt lat="45.94941" lon="4.80357">
        <ele>258</ele>
        <time>2018-11-15T09:31:39Z</time>
      </trkpt>
      <trkpt lat="45.94942" lon="4.80364">
        <ele>258</ele>
        <time>2018-11-15T09:31:40Z</time>
      </trkpt>
      <trkpt lat="45.94943" lon="4.80376">
        <ele>258</ele>
        <time>2018-11-15T09:31:42Z</time>
      </trkpt>
      <trkpt lat="45.94943" lon="4.80382">
        <ele>258</ele>
        <time>2018-11-15T09:31:43Z</time>
      </trkpt>
      <trkpt lat="45.94943" lon="4.80388">
        <ele>258</ele>
        <time>2018-11-15T09:31:44Z</time>
      </trkpt>
      <trkpt lat="45.94944" lon="4.80395">
        <ele>258</ele>
        <time>2018-11-15T09:31:45Z</time>
      </trkpt>
      <trkpt lat="45.94945" lon="4.80402">
        <ele>258</ele>
        <time>2018-11-15T09:31:46Z</time>
      </trkpt>
      <trkpt lat="45.94944" lon="4.80409">
        <ele>259</ele>
        <time>2018-11-15T09:31:47Z</time>
      </trkpt>
      <trkpt lat="45.94944" lon="4.80415">
        <ele>259</ele>
        <time>2018-11-15T09:31:48Z</time>
      </trkpt>
      <trkpt lat="45.94944" lon="4.80423">
        <ele>259</ele>
        <time>2018-11-15T09:31:49Z</time>
      </trkpt>
      <trkpt lat="45.94945" lon="4.80434">
        <ele>259</ele>
        <time>2018-11-15T09:31:51Z</time>
      </trkpt>
      <trkpt lat="45.94945" lon="4.80439">
        <ele>259</ele>
        <time>2018-11-15T09:31:52Z</time>
      </trkpt>
      <trkpt lat="45.94945" lon="4.8045">
        <ele>259</ele>
        <time>2018-11-15T09:31:54Z</time>
      </trkpt>
      <trkpt lat="45.94945" lon="4.80456">
        <ele>258</ele>
        <time>2018-11-15T09:31:55Z</time>
      </trkpt>
      <trkpt lat="45.94945" lon="4.80463">
        <ele>258</ele>
        <time>2018-11-15T09:31:56Z</time>
      </trkpt>
      <trkpt lat="45.94945" lon="4.8047">
        <ele>258</ele>
        <time>2018-11-15T09:31:57Z</time>
      </trkpt>
      <trkpt lat="45.94946" lon="4.80482">
        <ele>258</ele>
        <time>2018-11-15T09:31:59Z</time>
      </trkpt>
      <trkpt lat="45.94949" lon="4.80488">
        <ele>258</ele>
        <time>2018-11-15T09:32:00Z</time>
      </trkpt>
      <trkpt lat="45.94949" lon="4.80495">
        <ele>258</ele>
        <time>2018-11-15T09:32:01Z</time>
      </trkpt>
      <trkpt lat="45.94949" lon="4.80503">
        <ele>258</ele>
        <time>2018-11-15T09:32:02Z</time>
      </trkpt>
      <trkpt lat="45.9495" lon="4.8051">
        <ele>258</ele>
        <time>2018-11-15T09:32:03Z</time>
      </trkpt>
      <trkpt lat="45.94949" lon="4.80517">
        <ele>258</ele>
        <time>2018-11-15T09:32:04Z</time>
      </trkpt>
      <trkpt lat="45.94949" lon="4.80524">
        <ele>258</ele>
        <time>2018-11-15T09:32:05Z</time>
      </trkpt>
      <trkpt lat="45.94949" lon="4.80531">
        <ele>258</ele>
        <time>2018-11-15T09:32:06Z</time>
      </trkpt>
      <trkpt lat="45.94949" lon="4.80543">
        <ele>258</ele>
        <time>2018-11-15T09:32:08Z</time>
      </trkpt>
      <trkpt lat="45.9495" lon="4.8055">
        <ele>258</ele>
        <time>2018-11-15T09:32:09Z</time>
      </trkpt>
      <trkpt lat="45.9495" lon="4.80562">
        <ele>257</ele>
        <time>2018-11-15T09:32:11Z</time>
      </trkpt>
      <trkpt lat="45.9495" lon="4.80568">
        <ele>257</ele>
        <time>2018-11-15T09:32:12Z</time>
      </trkpt>
      <trkpt lat="45.94949" lon="4.8058">
        <ele>257</ele>
        <time>2018-11-15T09:32:14Z</time>
      </trkpt>
      <trkpt lat="45.94949" lon="4.80586">
        <ele>258</ele>
        <time>2018-11-15T09:32:15Z</time>
      </trkpt>
      <trkpt lat="45.94949" lon="4.80594">
        <ele>258</ele>
        <time>2018-11-15T09:32:16Z</time>
      </trkpt>
      <trkpt lat="45.94949" lon="4.806">
        <ele>258</ele>
        <time>2018-11-15T09:32:17Z</time>
      </trkpt>
      <trkpt lat="45.94949" lon="4.80607">
        <ele>258</ele>
        <time>2018-11-15T09:32:18Z</time>
      </trkpt>
      <trkpt lat="45.9495" lon="4.80614">
        <ele>258</ele>
        <time>2018-11-15T09:32:19Z</time>
      </trkpt>
      <trkpt lat="45.9495" lon="4.80621">
        <ele>258</ele>
        <time>2018-11-15T09:32:20Z</time>
      </trkpt>
      <trkpt lat="45.94949" lon="4.80628">
        <ele>258</ele>
        <time>2018-11-15T09:32:21Z</time>
      </trkpt>
      <trkpt lat="45.94949" lon="4.8064">
        <ele>258</ele>
        <time>2018-11-15T09:32:23Z</time>
      </trkpt>
      <trkpt lat="45.9495" lon="4.80646">
        <ele>259</ele>
        <time>2018-11-15T09:32:24Z</time>
      </trkpt>
      <trkpt lat="45.94949" lon="4.80657">
        <ele>259</ele>
        <time>2018-11-15T09:32:26Z</time>
      </trkpt>
      <trkpt lat="45.94949" lon="4.80663">
        <ele>259</ele>
        <time>2018-11-15T09:32:27Z</time>
      </trkpt>
      <trkpt lat="45.9495" lon="4.80675">
        <ele>259</ele>
        <time>2018-11-15T09:32:29Z</time>
      </trkpt>
      <trkpt lat="45.94951" lon="4.80681">
        <ele>259</ele>
        <time>2018-11-15T09:32:30Z</time>
      </trkpt>
      <trkpt lat="45.94951" lon="4.80688">
        <ele>259</ele>
        <time>2018-11-15T09:32:31Z</time>
      </trkpt>
      <trkpt lat="45.94951" lon="4.80696">
        <ele>259</ele>
        <time>2018-11-15T09:32:32Z</time>
      </trkpt>
      <trkpt lat="45.94951" lon="4.80703">
        <ele>259</ele>
        <time>2018-11-15T09:32:33Z</time>
      </trkpt>
      <trkpt lat="45.9495" lon="4.80709">
        <ele>259</ele>
        <time>2018-11-15T09:32:34Z</time>
      </trkpt>
      <trkpt lat="45.94951" lon="4.80722">
        <ele>259</ele>
        <time>2018-11-15T09:32:36Z</time>
      </trkpt>
      <trkpt lat="45.94952" lon="4.80728">
        <ele>259</ele>
        <time>2018-11-15T09:32:37Z</time>
      </trkpt>
      <trkpt lat="45.94952" lon="4.80733">
        <ele>259</ele>
        <time>2018-11-15T09:32:38Z</time>
      </trkpt>
      <trkpt lat="45.94953" lon="4.80741">
        <ele>259</ele>
        <time>2018-11-15T09:32:39Z</time>
      </trkpt>
      <trkpt lat="45.94953" lon="4.80753">
        <ele>259</ele>
        <time>2018-11-15T09:32:41Z</time>
      </trkpt>
      <trkpt lat="45.94953" lon="4.80758">
        <ele>259</ele>
        <time>2018-11-15T09:32:42Z</time>
      </trkpt>
      <trkpt lat="45.94953" lon="4.80769">
        <ele>259</ele>
        <time>2018-11-15T09:32:44Z</time>
      </trkpt>
      <trkpt lat="45.94952" lon="4.80774">
        <ele>259</ele>
        <time>2018-11-15T09:32:45Z</time>
      </trkpt>
      <trkpt lat="45.9495" lon="4.80786">
        <ele>259</ele>
        <time>2018-11-15T09:32:49Z</time>
      </trkpt>
      <trkpt lat="45.9495" lon="4.80788">
        <ele>259</ele>
        <time>2018-11-15T09:32:50Z</time>
      </trkpt>
      <trkpt lat="45.94947" lon="4.80799">
        <ele>259</ele>
        <time>2018-11-15T09:33:02Z</time>
      </trkpt>
      <trkpt lat="45.94947" lon="4.80801">
        <ele>259</ele>
        <time>2018-11-15T09:33:03Z</time>
      </trkpt>
      <trkpt lat="45.94949" lon="4.80811">
        <ele>258</ele>
        <time>2018-11-15T09:33:06Z</time>
      </trkpt>
      <trkpt lat="45.94951" lon="4.80814">
        <ele>258</ele>
        <time>2018-11-15T09:33:07Z</time>
      </trkpt>
      <trkpt lat="45.94954" lon="4.80822">
        <ele>258</ele>
        <time>2018-11-15T09:33:08Z</time>
      </trkpt>
      <trkpt lat="45.94956" lon="4.80827">
        <ele>258</ele>
        <time>2018-11-15T09:33:09Z</time>
      </trkpt>
      <trkpt lat="45.9496" lon="4.80838">
        <ele>259</ele>
        <time>2018-11-15T09:33:11Z</time>
      </trkpt>
      <trkpt lat="45.94962" lon="4.80844">
        <ele>259</ele>
        <time>2018-11-15T09:33:12Z</time>
      </trkpt>
      <trkpt lat="45.94964" lon="4.8085">
        <ele>259</ele>
        <time>2018-11-15T09:33:13Z</time>
      </trkpt>
      <trkpt lat="45.94965" lon="4.80857">
        <ele>259</ele>
        <time>2018-11-15T09:33:14Z</time>
      </trkpt>
      <trkpt lat="45.94967" lon="4.80864">
        <ele>259</ele>
        <time>2018-11-15T09:33:15Z</time>
      </trkpt>
      <trkpt lat="45.94968" lon="4.80872">
        <ele>259</ele>
        <time>2018-11-15T09:33:16Z</time>
      </trkpt>
      <trkpt lat="45.94969" lon="4.80879">
        <ele>258</ele>
        <time>2018-11-15T09:33:17Z</time>
      </trkpt>
      <trkpt lat="45.9497" lon="4.80887">
        <ele>258</ele>
        <time>2018-11-15T09:33:18Z</time>
      </trkpt>
      <trkpt lat="45.94973" lon="4.80893">
        <ele>258</ele>
        <time>2018-11-15T09:33:19Z</time>
      </trkpt>
      <trkpt lat="45.94974" lon="4.809">
        <ele>258</ele>
        <time>2018-11-15T09:33:20Z</time>
      </trkpt>
      <trkpt lat="45.94976" lon="4.80907">
        <ele>258</ele>
        <time>2018-11-15T09:33:21Z</time>
      </trkpt>
      <trkpt lat="45.94977" lon="4.80915">
        <ele>258</ele>
        <time>2018-11-15T09:33:22Z</time>
      </trkpt>
      <trkpt lat="45.94978" lon="4.80921">
        <ele>258</ele>
        <time>2018-11-15T09:33:23Z</time>
      </trkpt>
      <trkpt lat="45.94979" lon="4.80928">
        <ele>258</ele>
        <time>2018-11-15T09:33:24Z</time>
      </trkpt>
      <trkpt lat="45.9498" lon="4.80935">
        <ele>258</ele>
        <time>2018-11-15T09:33:25Z</time>
      </trkpt>
      <trkpt lat="45.94981" lon="4.80943">
        <ele>258</ele>
        <time>2018-11-15T09:33:26Z</time>
      </trkpt>
      <trkpt lat="45.94983" lon="4.80949">
        <ele>258</ele>
        <time>2018-11-15T09:33:27Z</time>
      </trkpt>
      <trkpt lat="45.94983" lon="4.80956">
        <ele>258</ele>
        <time>2018-11-15T09:33:28Z</time>
      </trkpt>
      <trkpt lat="45.94985" lon="4.80962">
        <ele>258</ele>
        <time>2018-11-15T09:33:29Z</time>
      </trkpt>
      <trkpt lat="45.94986" lon="4.80969">
        <ele>258</ele>
        <time>2018-11-15T09:33:30Z</time>
      </trkpt>
      <trkpt lat="45.94987" lon="4.80977">
        <ele>258</ele>
        <time>2018-11-15T09:33:31Z</time>
      </trkpt>
      <trkpt lat="45.94987" lon="4.80984">
        <ele>258</ele>
        <time>2018-11-15T09:33:32Z</time>
      </trkpt>
      <trkpt lat="45.94988" lon="4.80991">
        <ele>257</ele>
        <time>2018-11-15T09:33:33Z</time>
      </trkpt>
      <trkpt lat="45.94989" lon="4.80997">
        <ele>257</ele>
        <time>2018-11-15T09:33:34Z</time>
      </trkpt>
      <trkpt lat="45.9499" lon="4.81005">
        <ele>257</ele>
        <time>2018-11-15T09:33:35Z</time>
      </trkpt>
      <trkpt lat="45.9499" lon="4.81011">
        <ele>257</ele>
        <time>2018-11-15T09:33:36Z</time>
      </trkpt>
      <trkpt lat="45.94991" lon="4.81018">
        <ele>257</ele>
        <time>2018-11-15T09:33:37Z</time>
      </trkpt>
      <trkpt lat="45.94991" lon="4.81024">
        <ele>257</ele>
        <time>2018-11-15T09:33:38Z</time>
      </trkpt>
      <trkpt lat="45.94991" lon="4.81036">
        <ele>257</ele>
        <time>2018-11-15T09:33:40Z</time>
      </trkpt>
      <trkpt lat="45.94992" lon="4.81042">
        <ele>257</ele>
        <time>2018-11-15T09:33:41Z</time>
      </trkpt>
      <trkpt lat="45.94993" lon="4.81054">
        <ele>257</ele>
        <time>2018-11-15T09:33:43Z</time>
      </trkpt>
      <trkpt lat="45.94994" lon="4.81061">
        <ele>257</ele>
        <time>2018-11-15T09:33:44Z</time>
      </trkpt>
      <trkpt lat="45.94994" lon="4.81068">
        <ele>257</ele>
        <time>2018-11-15T09:33:45Z</time>
      </trkpt>
      <trkpt lat="45.94994" lon="4.81075">
        <ele>257</ele>
        <time>2018-11-15T09:33:46Z</time>
      </trkpt>
      <trkpt lat="45.94995" lon="4.81083">
        <ele>257</ele>
        <time>2018-11-15T09:33:47Z</time>
      </trkpt>
      <trkpt lat="45.94997" lon="4.8109">
        <ele>257</ele>
        <time>2018-11-15T09:33:48Z</time>
      </trkpt>
      <trkpt lat="45.94997" lon="4.81097">
        <ele>257</ele>
        <time>2018-11-15T09:33:49Z</time>
      </trkpt>
      <trkpt lat="45.94996" lon="4.81103">
        <ele>257</ele>
        <time>2018-11-15T09:33:50Z</time>
      </trkpt>
      <trkpt lat="45.94996" lon="4.8111">
        <ele>257</ele>
        <time>2018-11-15T09:33:51Z</time>
      </trkpt>
      <trkpt lat="45.94997" lon="4.81117">
        <ele>257</ele>
        <time>2018-11-15T09:33:52Z</time>
      </trkpt>
      <trkpt lat="45.94998" lon="4.81125">
        <ele>257</ele>
        <time>2018-11-15T09:33:53Z</time>
      </trkpt>
      <trkpt lat="45.94999" lon="4.81132">
        <ele>256</ele>
        <time>2018-11-15T09:33:54Z</time>
      </trkpt>
      <trkpt lat="45.95" lon="4.81139">
        <ele>256</ele>
        <time>2018-11-15T09:33:55Z</time>
      </trkpt>
      <trkpt lat="45.95001" lon="4.81147">
        <ele>256</ele>
        <time>2018-11-15T09:33:56Z</time>
      </trkpt>
      <trkpt lat="45.95001" lon="4.81155">
        <ele>256</ele>
        <time>2018-11-15T09:33:57Z</time>
      </trkpt>
      <trkpt lat="45.95002" lon="4.81162">
        <ele>256</ele>
        <time>2018-11-15T09:33:58Z</time>
      </trkpt>
      <trkpt lat="45.95004" lon="4.81168">
        <ele>256</ele>
        <time>2018-11-15T09:33:59Z</time>
      </trkpt>
      <trkpt lat="45.95005" lon="4.81175">
        <ele>256</ele>
        <time>2018-11-15T09:34:00Z</time>
      </trkpt>
      <trkpt lat="45.95006" lon="4.81183">
        <ele>256</ele>
        <time>2018-11-15T09:34:01Z</time>
      </trkpt>
      <trkpt lat="45.95007" lon="4.8119">
        <ele>256</ele>
        <time>2018-11-15T09:34:02Z</time>
      </trkpt>
      <trkpt lat="45.95007" lon="4.81197">
        <ele>256</ele>
        <time>2018-11-15T09:34:03Z</time>
      </trkpt>
      <trkpt lat="45.95008" lon="4.81205">
        <ele>256</ele>
        <time>2018-11-15T09:34:04Z</time>
      </trkpt>
      <trkpt lat="45.95009" lon="4.81212">
        <ele>256</ele>
        <time>2018-11-15T09:34:05Z</time>
      </trkpt>
      <trkpt lat="45.95009" lon="4.8122">
        <ele>256</ele>
        <time>2018-11-15T09:34:06Z</time>
      </trkpt>
      <trkpt lat="45.9501" lon="4.81227">
        <ele>256</ele>
        <time>2018-11-15T09:34:07Z</time>
      </trkpt>
      <trkpt lat="45.95011" lon="4.81234">
        <ele>256</ele>
        <time>2018-11-15T09:34:08Z</time>
      </trkpt>
      <trkpt lat="45.95012" lon="4.81242">
        <ele>256</ele>
        <time>2018-11-15T09:34:09Z</time>
      </trkpt>
      <trkpt lat="45.95014" lon="4.8125">
        <ele>256</ele>
        <time>2018-11-15T09:34:10Z</time>
      </trkpt>
      <trkpt lat="45.95015" lon="4.81258">
        <ele>256</ele>
        <time>2018-11-15T09:34:11Z</time>
      </trkpt>
      <trkpt lat="45.95016" lon="4.81265">
        <ele>255</ele>
        <time>2018-11-15T09:34:12Z</time>
      </trkpt>
      <trkpt lat="45.95018" lon="4.81273">
        <ele>255</ele>
        <time>2018-11-15T09:34:13Z</time>
      </trkpt>
      <trkpt lat="45.95019" lon="4.81281">
        <ele>255</ele>
        <time>2018-11-15T09:34:14Z</time>
      </trkpt>
      <trkpt lat="45.95021" lon="4.81289">
        <ele>255</ele>
        <time>2018-11-15T09:34:15Z</time>
      </trkpt>
      <trkpt lat="45.95022" lon="4.81297">
        <ele>255</ele>
        <time>2018-11-15T09:34:16Z</time>
      </trkpt>
      <trkpt lat="45.95023" lon="4.81305">
        <ele>255</ele>
        <time>2018-11-15T09:34:17Z</time>
      </trkpt>
      <trkpt lat="45.95025" lon="4.81312">
        <ele>255</ele>
        <time>2018-11-15T09:34:18Z</time>
      </trkpt>
      <trkpt lat="45.95027" lon="4.81319">
        <ele>255</ele>
        <time>2018-11-15T09:34:19Z</time>
      </trkpt>
      <trkpt lat="45.95028" lon="4.81325">
        <ele>255</ele>
        <time>2018-11-15T09:34:20Z</time>
      </trkpt>
      <trkpt lat="45.9503" lon="4.81331">
        <ele>255</ele>
        <time>2018-11-15T09:34:21Z</time>
      </trkpt>
      <trkpt lat="45.95031" lon="4.81338">
        <ele>254</ele>
        <time>2018-11-15T09:34:22Z</time>
      </trkpt>
      <trkpt lat="45.95033" lon="4.81345">
        <ele>254</ele>
        <time>2018-11-15T09:34:23Z</time>
      </trkpt>
      <trkpt lat="45.95035" lon="4.81353">
        <ele>254</ele>
        <time>2018-11-15T09:34:24Z</time>
      </trkpt>
      <trkpt lat="45.95037" lon="4.81361">
        <ele>254</ele>
        <time>2018-11-15T09:34:25Z</time>
      </trkpt>
      <trkpt lat="45.9504" lon="4.81368">
        <ele>254</ele>
        <time>2018-11-15T09:34:26Z</time>
      </trkpt>
      <trkpt lat="45.95042" lon="4.81377">
        <ele>254</ele>
        <time>2018-11-15T09:34:27Z</time>
      </trkpt>
      <trkpt lat="45.95045" lon="4.81385">
        <ele>254</ele>
        <time>2018-11-15T09:34:28Z</time>
      </trkpt>
      <trkpt lat="45.95048" lon="4.81393">
        <ele>253</ele>
        <time>2018-11-15T09:34:29Z</time>
      </trkpt>
      <trkpt lat="45.95051" lon="4.81401">
        <ele>253</ele>
        <time>2018-11-15T09:34:30Z</time>
      </trkpt>
      <trkpt lat="45.95054" lon="4.8141">
        <ele>253</ele>
        <time>2018-11-15T09:34:31Z</time>
      </trkpt>
      <trkpt lat="45.95057" lon="4.81419">
        <ele>253</ele>
        <time>2018-11-15T09:34:32Z</time>
      </trkpt>
      <trkpt lat="45.9506" lon="4.81427">
        <ele>253</ele>
        <time>2018-11-15T09:34:33Z</time>
      </trkpt>
      <trkpt lat="45.95063" lon="4.81436">
        <ele>253</ele>
        <time>2018-11-15T09:34:34Z</time>
      </trkpt>
      <trkpt lat="45.95066" lon="4.81444">
        <ele>253</ele>
        <time>2018-11-15T09:34:35Z</time>
      </trkpt>
      <trkpt lat="45.9507" lon="4.81453">
        <ele>253</ele>
        <time>2018-11-15T09:34:36Z</time>
      </trkpt>
      <trkpt lat="45.95073" lon="4.81461">
        <ele>253</ele>
        <time>2018-11-15T09:34:37Z</time>
      </trkpt>
      <trkpt lat="45.95077" lon="4.81468">
        <ele>253</ele>
        <time>2018-11-15T09:34:38Z</time>
      </trkpt>
      <trkpt lat="45.95081" lon="4.81478">
        <ele>253</ele>
        <time>2018-11-15T09:34:39Z</time>
      </trkpt>
      <trkpt lat="45.95085" lon="4.81486">
        <ele>251</ele>
        <time>2018-11-15T09:34:40Z</time>
      </trkpt>
      <trkpt lat="45.95089" lon="4.81496">
        <ele>251</ele>
        <time>2018-11-15T09:34:41Z</time>
      </trkpt>
      <trkpt lat="45.95092" lon="4.81506">
        <ele>252</ele>
        <time>2018-11-15T09:34:42Z</time>
      </trkpt>
      <trkpt lat="45.95095" lon="4.81515">
        <ele>251</ele>
        <time>2018-11-15T09:34:43Z</time>
      </trkpt>
      <trkpt lat="45.95098" lon="4.81524">
        <ele>251</ele>
        <time>2018-11-15T09:34:44Z</time>
      </trkpt>
      <trkpt lat="45.951" lon="4.81535">
        <ele>251</ele>
        <time>2018-11-15T09:34:45Z</time>
      </trkpt>
      <trkpt lat="45.95103" lon="4.81545">
        <ele>251</ele>
        <time>2018-11-15T09:34:46Z</time>
      </trkpt>
      <trkpt lat="45.95106" lon="4.81554">
        <ele>251</ele>
        <time>2018-11-15T09:34:47Z</time>
      </trkpt>
      <trkpt lat="45.95109" lon="4.81564">
        <ele>251</ele>
        <time>2018-11-15T09:34:48Z</time>
      </trkpt>
      <trkpt lat="45.95111" lon="4.81572">
        <ele>251</ele>
        <time>2018-11-15T09:34:49Z</time>
      </trkpt>
      <trkpt lat="45.95113" lon="4.81583">
        <ele>251</ele>
        <time>2018-11-15T09:34:50Z</time>
      </trkpt>
      <trkpt lat="45.95117" lon="4.81591">
        <ele>252</ele>
        <time>2018-11-15T09:34:51Z</time>
      </trkpt>
      <trkpt lat="45.95119" lon="4.816">
        <ele>252</ele>
        <time>2018-11-15T09:34:52Z</time>
      </trkpt>
      <trkpt lat="45.95121" lon="4.81606">
        <ele>252</ele>
        <time>2018-11-15T09:34:53Z</time>
      </trkpt>
      <trkpt lat="45.95124" lon="4.81613">
        <ele>252</ele>
        <time>2018-11-15T09:34:54Z</time>
      </trkpt>
      <trkpt lat="45.95126" lon="4.8162">
        <ele>252</ele>
        <time>2018-11-15T09:34:55Z</time>
      </trkpt>
      <trkpt lat="45.95128" lon="4.81627">
        <ele>253</ele>
        <time>2018-11-15T09:34:56Z</time>
      </trkpt>
      <trkpt lat="45.95133" lon="4.81637">
        <ele>253</ele>
        <time>2018-11-15T09:34:58Z</time>
      </trkpt>
      <trkpt lat="45.95134" lon="4.81643">
        <ele>253</ele>
        <time>2018-11-15T09:34:59Z</time>
      </trkpt>
      <trkpt lat="45.95138" lon="4.81652">
        <ele>253</ele>
        <time>2018-11-15T09:35:01Z</time>
      </trkpt>
      <trkpt lat="45.95139" lon="4.81657">
        <ele>253</ele>
        <time>2018-11-15T09:35:02Z</time>
      </trkpt>
      <trkpt lat="45.95143" lon="4.81668">
        <ele>255</ele>
        <time>2018-11-15T09:35:05Z</time>
      </trkpt>
      <trkpt lat="45.95144" lon="4.81671">
        <ele>255</ele>
        <time>2018-11-15T09:35:06Z</time>
      </trkpt>
      <trkpt lat="45.95147" lon="4.81683">
        <ele>255</ele>
        <time>2018-11-15T09:35:09Z</time>
      </trkpt>
      <trkpt lat="45.95148" lon="4.81686">
        <ele>255</ele>
        <time>2018-11-15T09:35:10Z</time>
      </trkpt>
      <trkpt lat="45.95152" lon="4.81696">
        <ele>255</ele>
        <time>2018-11-15T09:35:13Z</time>
      </trkpt>
      <trkpt lat="45.95154" lon="4.81698">
        <ele>255</ele>
        <time>2018-11-15T09:35:14Z</time>
      </trkpt>
      <trkpt lat="45.95157" lon="4.81707">
        <ele>255</ele>
        <time>2018-11-15T09:35:17Z</time>
      </trkpt>
      <trkpt lat="45.95158" lon="4.8171">
        <ele>256</ele>
        <time>2018-11-15T09:35:18Z</time>
      </trkpt>
      <trkpt lat="45.95163" lon="4.81721">
        <ele>256</ele>
        <time>2018-11-15T09:35:22Z</time>
      </trkpt>
      <trkpt lat="45.95164" lon="4.81724">
        <ele>256</ele>
        <time>2018-11-15T09:35:23Z</time>
      </trkpt>
      <trkpt lat="45.95167" lon="4.81734">
        <ele>257</ele>
        <time>2018-11-15T09:35:26Z</time>
      </trkpt>
      <trkpt lat="45.95169" lon="4.81737">
        <ele>257</ele>
        <time>2018-11-15T09:35:27Z</time>
      </trkpt>
      <trkpt lat="45.95173" lon="4.81746">
        <ele>258</ele>
        <time>2018-11-15T09:35:30Z</time>
      </trkpt>
      <trkpt lat="45.95175" lon="4.81749">
        <ele>258</ele>
        <time>2018-11-15T09:35:31Z</time>
      </trkpt>
      <trkpt lat="45.9518" lon="4.81758">
        <ele>258</ele>
        <time>2018-11-15T09:35:34Z</time>
      </trkpt>
      <trkpt lat="45.95182" lon="4.8176">
        <ele>258</ele>
        <time>2018-11-15T09:35:35Z</time>
      </trkpt>
      <trkpt lat="45.95188" lon="4.81768">
        <ele>258</ele>
        <time>2018-11-15T09:35:38Z</time>
      </trkpt>
      <trkpt lat="45.9519" lon="4.81771">
        <ele>258</ele>
        <time>2018-11-15T09:35:39Z</time>
      </trkpt>
      <trkpt lat="45.95196" lon="4.81779">
        <ele>258</ele>
        <time>2018-11-15T09:35:42Z</time>
      </trkpt>
      <trkpt lat="45.95198" lon="4.81781">
        <ele>258</ele>
        <time>2018-11-15T09:35:43Z</time>
      </trkpt>
      <trkpt lat="45.95203" lon="4.81788">
        <ele>258</ele>
        <time>2018-11-15T09:35:45Z</time>
      </trkpt>
      <trkpt lat="45.95205" lon="4.81791">
        <ele>259</ele>
        <time>2018-11-15T09:35:46Z</time>
      </trkpt>
      <trkpt lat="45.9521" lon="4.818">
        <ele>259</ele>
        <time>2018-11-15T09:35:49Z</time>
      </trkpt>
      <trkpt lat="45.95212" lon="4.81803">
        <ele>259</ele>
        <time>2018-11-15T09:35:50Z</time>
      </trkpt>
      <trkpt lat="45.95216" lon="4.81809">
        <ele>259</ele>
        <time>2018-11-15T09:35:52Z</time>
      </trkpt>
      <trkpt lat="45.95218" lon="4.81813">
        <ele>259</ele>
        <time>2018-11-15T09:35:53Z</time>
      </trkpt>
      <trkpt lat="45.95223" lon="4.8182">
        <ele>259</ele>
        <time>2018-11-15T09:35:55Z</time>
      </trkpt>
      <trkpt lat="45.95225" lon="4.81824">
        <ele>259</ele>
        <time>2018-11-15T09:35:56Z</time>
      </trkpt>
      <trkpt lat="45.9523" lon="4.81831">
        <ele>259</ele>
        <time>2018-11-15T09:35:58Z</time>
      </trkpt>
      <trkpt lat="45.95232" lon="4.81834">
        <ele>260</ele>
        <time>2018-11-15T09:35:59Z</time>
      </trkpt>
      <trkpt lat="45.95237" lon="4.81842">
        <ele>260</ele>
        <time>2018-11-15T09:36:00Z</time>
      </trkpt>
      <trkpt lat="45.9524" lon="4.81846">
        <ele>260</ele>
        <time>2018-11-15T09:36:01Z</time>
      </trkpt>
      <trkpt lat="45.95245" lon="4.81853">
        <ele>260</ele>
        <time>2018-11-15T09:36:04Z</time>
      </trkpt>
      <trkpt lat="45.95247" lon="4.81856">
        <ele>260</ele>
        <time>2018-11-15T09:36:05Z</time>
      </trkpt>
      <trkpt lat="45.95249" lon="4.8186">
        <ele>260</ele>
        <time>2018-11-15T09:36:06Z</time>
      </trkpt>
      <trkpt lat="45.95253" lon="4.81867">
        <ele>260</ele>
        <time>2018-11-15T09:36:07Z</time>
      </trkpt>
      <trkpt lat="45.95258" lon="4.81875">
        <ele>260</ele>
        <time>2018-11-15T09:36:10Z</time>
      </trkpt>
      <trkpt lat="45.95263" lon="4.81882">
        <ele>260</ele>
        <time>2018-11-15T09:36:11Z</time>
      </trkpt>
      <trkpt lat="45.95269" lon="4.81889">
        <ele>260</ele>
        <time>2018-11-15T09:36:13Z</time>
      </trkpt>
      <trkpt lat="45.95271" lon="4.81892">
        <ele>260</ele>
        <time>2018-11-15T09:36:14Z</time>
      </trkpt>
      <trkpt lat="45.95277" lon="4.819">
        <ele>260</ele>
        <time>2018-11-15T09:36:16Z</time>
      </trkpt>
      <trkpt lat="45.9528" lon="4.81904">
        <ele>260</ele>
        <time>2018-11-15T09:36:17Z</time>
      </trkpt>
      <trkpt lat="45.95286" lon="4.81913">
        <ele>260</ele>
        <time>2018-11-15T09:36:19Z</time>
      </trkpt>
      <trkpt lat="45.95289" lon="4.81916">
        <ele>260</ele>
        <time>2018-11-15T09:36:20Z</time>
      </trkpt>
      <trkpt lat="45.95295" lon="4.81924">
        <ele>261</ele>
        <time>2018-11-15T09:36:22Z</time>
      </trkpt>
      <trkpt lat="45.95298" lon="4.81927">
        <ele>261</ele>
        <time>2018-11-15T09:36:23Z</time>
      </trkpt>
      <trkpt lat="45.95303" lon="4.81935">
        <ele>261</ele>
        <time>2018-11-15T09:36:25Z</time>
      </trkpt>
      <trkpt lat="45.95306" lon="4.81939">
        <ele>261</ele>
        <time>2018-11-15T09:36:26Z</time>
      </trkpt>
      <trkpt lat="45.95312" lon="4.81948">
        <ele>261</ele>
        <time>2018-11-15T09:36:28Z</time>
      </trkpt>
      <trkpt lat="45.95316" lon="4.81952">
        <ele>262</ele>
        <time>2018-11-15T09:36:29Z</time>
      </trkpt>
      <trkpt lat="45.95322" lon="4.81956">
        <ele>262</ele>
        <time>2018-11-15T09:36:30Z</time>
      </trkpt>
      <trkpt lat="45.95326" lon="4.8196">
        <ele>262</ele>
        <time>2018-11-15T09:36:31Z</time>
      </trkpt>
      <trkpt lat="45.9533" lon="4.81964">
        <ele>262</ele>
        <time>2018-11-15T09:36:32Z</time>
      </trkpt>
      <trkpt lat="45.95335" lon="4.81968">
        <ele>261</ele>
        <time>2018-11-15T09:36:33Z</time>
      </trkpt>
      <trkpt lat="45.95339" lon="4.81972">
        <ele>261</ele>
        <time>2018-11-15T09:36:34Z</time>
      </trkpt>
      <trkpt lat="45.95343" lon="4.81976">
        <ele>262</ele>
        <time>2018-11-15T09:36:35Z</time>
      </trkpt>
      <trkpt lat="45.95348" lon="4.8198">
        <ele>262</ele>
        <time>2018-11-15T09:36:36Z</time>
      </trkpt>
      <trkpt lat="45.95352" lon="4.81985">
        <ele>262</ele>
        <time>2018-11-15T09:36:37Z</time>
      </trkpt>
      <trkpt lat="45.95359" lon="4.81992">
        <ele>261</ele>
        <time>2018-11-15T09:36:39Z</time>
      </trkpt>
      <trkpt lat="45.95362" lon="4.81996">
        <ele>261</ele>
        <time>2018-11-15T09:36:40Z</time>
      </trkpt>
      <trkpt lat="45.95366" lon="4.82">
        <ele>261</ele>
        <time>2018-11-15T09:36:41Z</time>
      </trkpt>
      <trkpt lat="45.9537" lon="4.82003">
        <ele>262</ele>
        <time>2018-11-15T09:36:42Z</time>
      </trkpt>
      <trkpt lat="45.95376" lon="4.82011">
        <ele>262</ele>
        <time>2018-11-15T09:36:44Z</time>
      </trkpt>
      <trkpt lat="45.95379" lon="4.82014">
        <ele>262</ele>
        <time>2018-11-15T09:36:45Z</time>
      </trkpt>
      <trkpt lat="45.95386" lon="4.82021">
        <ele>261</ele>
        <time>2018-11-15T09:36:47Z</time>
      </trkpt>
      <trkpt lat="45.95389" lon="4.82025">
        <ele>261</ele>
        <time>2018-11-15T09:36:48Z</time>
      </trkpt>
      <trkpt lat="45.95394" lon="4.82032">
        <ele>261</ele>
        <time>2018-11-15T09:36:50Z</time>
      </trkpt>
      <trkpt lat="45.95397" lon="4.82035">
        <ele>261</ele>
        <time>2018-11-15T09:36:51Z</time>
      </trkpt>
      <trkpt lat="45.95404" lon="4.82042">
        <ele>261</ele>
        <time>2018-11-15T09:36:53Z</time>
      </trkpt>
      <trkpt lat="45.95408" lon="4.82046">
        <ele>261</ele>
        <time>2018-11-15T09:36:54Z</time>
      </trkpt>
      <trkpt lat="45.95412" lon="4.8205">
        <ele>261</ele>
        <time>2018-11-15T09:36:55Z</time>
      </trkpt>
      <trkpt lat="45.95416" lon="4.82054">
        <ele>261</ele>
        <time>2018-11-15T09:36:56Z</time>
      </trkpt>
      <trkpt lat="45.9542" lon="4.82059">
        <ele>260</ele>
        <time>2018-11-15T09:36:57Z</time>
      </trkpt>
      <trkpt lat="45.95425" lon="4.82064">
        <ele>260</ele>
        <time>2018-11-15T09:36:58Z</time>
      </trkpt>
      <trkpt lat="45.95429" lon="4.82069">
        <ele>260</ele>
        <time>2018-11-15T09:36:59Z</time>
      </trkpt>
      <trkpt lat="45.95434" lon="4.82073">
        <ele>260</ele>
        <time>2018-11-15T09:37:00Z</time>
      </trkpt>
      <trkpt lat="45.95439" lon="4.82078">
        <ele>260</ele>
        <time>2018-11-15T09:37:01Z</time>
      </trkpt>
      <trkpt lat="45.95442" lon="4.82083">
        <ele>260</ele>
        <time>2018-11-15T09:37:02Z</time>
      </trkpt>
      <trkpt lat="45.95446" lon="4.82087">
        <ele>260</ele>
        <time>2018-11-15T09:37:03Z</time>
      </trkpt>
      <trkpt lat="45.9545" lon="4.82091">
        <ele>260</ele>
        <time>2018-11-15T09:37:04Z</time>
      </trkpt>
      <trkpt lat="45.95454" lon="4.82095">
        <ele>260</ele>
        <time>2018-11-15T09:37:05Z</time>
      </trkpt>
      <trkpt lat="45.95458" lon="4.821">
        <ele>260</ele>
        <time>2018-11-15T09:37:06Z</time>
      </trkpt>
      <trkpt lat="45.95461" lon="4.82104">
        <ele>260</ele>
        <time>2018-11-15T09:37:07Z</time>
      </trkpt>
      <trkpt lat="45.95465" lon="4.82108">
        <ele>260</ele>
        <time>2018-11-15T09:37:08Z</time>
      </trkpt>
      <trkpt lat="45.95472" lon="4.82116">
        <ele>260</ele>
        <time>2018-11-15T09:37:10Z</time>
      </trkpt>
      <trkpt lat="45.95474" lon="4.82119">
        <ele>260</ele>
        <time>2018-11-15T09:37:11Z</time>
      </trkpt>
      <trkpt lat="45.95478" lon="4.82122">
        <ele>260</ele>
        <time>2018-11-15T09:37:12Z</time>
      </trkpt>
      <trkpt lat="45.95482" lon="4.82126">
        <ele>260</ele>
        <time>2018-11-15T09:37:13Z</time>
      </trkpt>
      <trkpt lat="45.95486" lon="4.82129">
        <ele>260</ele>
        <time>2018-11-15T09:37:14Z</time>
      </trkpt>
      <trkpt lat="45.9549" lon="4.82132">
        <ele>260</ele>
        <time>2018-11-15T09:37:15Z</time>
      </trkpt>
      <trkpt lat="45.95494" lon="4.82136">
        <ele>260</ele>
        <time>2018-11-15T09:37:16Z</time>
      </trkpt>
      <trkpt lat="45.95498" lon="4.8214">
        <ele>260</ele>
        <time>2018-11-15T09:37:17Z</time>
      </trkpt>
      <trkpt lat="45.95502" lon="4.82144">
        <ele>259</ele>
        <time>2018-11-15T09:37:18Z</time>
      </trkpt>
      <trkpt lat="45.95507" lon="4.82149">
        <ele>259</ele>
        <time>2018-11-15T09:37:19Z</time>
      </trkpt>
      <trkpt lat="45.95512" lon="4.82154">
        <ele>259</ele>
        <time>2018-11-15T09:37:20Z</time>
      </trkpt>
      <trkpt lat="45.95516" lon="4.82158">
        <ele>259</ele>
        <time>2018-11-15T09:37:21Z</time>
      </trkpt>
      <trkpt lat="45.95521" lon="4.82163">
        <ele>259</ele>
        <time>2018-11-15T09:37:22Z</time>
      </trkpt>
      <trkpt lat="45.95525" lon="4.82168">
        <ele>259</ele>
        <time>2018-11-15T09:37:23Z</time>
      </trkpt>
      <trkpt lat="45.9553" lon="4.82173">
        <ele>259</ele>
        <time>2018-11-15T09:37:24Z</time>
      </trkpt>
      <trkpt lat="45.95535" lon="4.82177">
        <ele>259</ele>
        <time>2018-11-15T09:37:25Z</time>
      </trkpt>
      <trkpt lat="45.9554" lon="4.8218">
        <ele>259</ele>
        <time>2018-11-15T09:37:26Z</time>
      </trkpt>
      <trkpt lat="45.95545" lon="4.82184">
        <ele>259</ele>
        <time>2018-11-15T09:37:27Z</time>
      </trkpt>
      <trkpt lat="45.9555" lon="4.82188">
        <ele>259</ele>
        <time>2018-11-15T09:37:28Z</time>
      </trkpt>
      <trkpt lat="45.95555" lon="4.82193">
        <ele>259</ele>
        <time>2018-11-15T09:37:29Z</time>
      </trkpt>
      <trkpt lat="45.9556" lon="4.82197">
        <ele>259</ele>
        <time>2018-11-15T09:37:30Z</time>
      </trkpt>
      <trkpt lat="45.95565" lon="4.82202">
        <ele>258</ele>
        <time>2018-11-15T09:37:31Z</time>
      </trkpt>
      <trkpt lat="45.9557" lon="4.82207">
        <ele>258</ele>
        <time>2018-11-15T09:37:32Z</time>
      </trkpt>
      <trkpt lat="45.95575" lon="4.82211">
        <ele>258</ele>
        <time>2018-11-15T09:37:33Z</time>
      </trkpt>
      <trkpt lat="45.95581" lon="4.82216">
        <ele>258</ele>
        <time>2018-11-15T09:37:34Z</time>
      </trkpt>
      <trkpt lat="45.95586" lon="4.82219">
        <ele>257</ele>
        <time>2018-11-15T09:37:35Z</time>
      </trkpt>
      <trkpt lat="45.95592" lon="4.82223">
        <ele>257</ele>
        <time>2018-11-15T09:37:36Z</time>
      </trkpt>
      <trkpt lat="45.95598" lon="4.82225">
        <ele>257</ele>
        <time>2018-11-15T09:37:37Z</time>
      </trkpt>
      <trkpt lat="45.95604" lon="4.82226">
        <ele>257</ele>
        <time>2018-11-15T09:37:38Z</time>
      </trkpt>
      <trkpt lat="45.95611" lon="4.82226">
        <ele>257</ele>
        <time>2018-11-15T09:37:39Z</time>
      </trkpt>
      <trkpt lat="45.95619" lon="4.82225">
        <ele>257</ele>
        <time>2018-11-15T09:37:40Z</time>
      </trkpt>
      <trkpt lat="45.95624" lon="4.82225">
        <ele>257</ele>
        <time>2018-11-15T09:37:41Z</time>
      </trkpt>
      <trkpt lat="45.95632" lon="4.82224">
        <ele>257</ele>
        <time>2018-11-15T09:37:42Z</time>
      </trkpt>
      <trkpt lat="45.95637" lon="4.82224">
        <ele>257</ele>
        <time>2018-11-15T09:37:43Z</time>
      </trkpt>
      <trkpt lat="45.95643" lon="4.82224">
        <ele>257</ele>
        <time>2018-11-15T09:37:44Z</time>
      </trkpt>
      <trkpt lat="45.9565" lon="4.82224">
        <ele>257</ele>
        <time>2018-11-15T09:37:45Z</time>
      </trkpt>
      <trkpt lat="45.95657" lon="4.82225">
        <ele>257</ele>
        <time>2018-11-15T09:37:46Z</time>
      </trkpt>
      <trkpt lat="45.95663" lon="4.82227">
        <ele>257</ele>
        <time>2018-11-15T09:37:47Z</time>
      </trkpt>
      <trkpt lat="45.95669" lon="4.8223">
        <ele>255</ele>
        <time>2018-11-15T09:37:48Z</time>
      </trkpt>
      <trkpt lat="45.95677" lon="4.82235">
        <ele>255</ele>
        <time>2018-11-15T09:37:49Z</time>
      </trkpt>
      <trkpt lat="45.95685" lon="4.82236">
        <ele>255</ele>
        <time>2018-11-15T09:37:50Z</time>
      </trkpt>
      <trkpt lat="45.9569" lon="4.82241">
        <ele>255</ele>
        <time>2018-11-15T09:37:51Z</time>
      </trkpt>
      <trkpt lat="45.95695" lon="4.82246">
        <ele>254</ele>
        <time>2018-11-15T09:37:52Z</time>
      </trkpt>
      <trkpt lat="45.95699" lon="4.82251">
        <ele>255</ele>
        <time>2018-11-15T09:37:53Z</time>
      </trkpt>
      <trkpt lat="45.95704" lon="4.82257">
        <ele>255</ele>
        <time>2018-11-15T09:37:54Z</time>
      </trkpt>
      <trkpt lat="45.95711" lon="4.82264">
        <ele>255</ele>
        <time>2018-11-15T09:37:55Z</time>
      </trkpt>
      <trkpt lat="45.95716" lon="4.82269">
        <ele>255</ele>
        <time>2018-11-15T09:37:56Z</time>
      </trkpt>
      <trkpt lat="45.95721" lon="4.82273">
        <ele>255</ele>
        <time>2018-11-15T09:37:57Z</time>
      </trkpt>
      <trkpt lat="45.95726" lon="4.82277">
        <ele>255</ele>
        <time>2018-11-15T09:37:58Z</time>
      </trkpt>
      <trkpt lat="45.95731" lon="4.82283">
        <ele>255</ele>
        <time>2018-11-15T09:37:59Z</time>
      </trkpt>
      <trkpt lat="45.95736" lon="4.82288">
        <ele>255</ele>
        <time>2018-11-15T09:38:00Z</time>
      </trkpt>
      <trkpt lat="45.95742" lon="4.82293">
        <ele>255</ele>
        <time>2018-11-15T09:38:01Z</time>
      </trkpt>
      <trkpt lat="45.95748" lon="4.82296">
        <ele>255</ele>
        <time>2018-11-15T09:38:02Z</time>
      </trkpt>
      <trkpt lat="45.95753" lon="4.82302">
        <ele>252</ele>
        <time>2018-11-15T09:38:03Z</time>
      </trkpt>
      <trkpt lat="45.95758" lon="4.82308">
        <ele>252</ele>
        <time>2018-11-15T09:38:04Z</time>
      </trkpt>
      <trkpt lat="45.95764" lon="4.82315">
        <ele>252</ele>
        <time>2018-11-15T09:38:05Z</time>
      </trkpt>
      <trkpt lat="45.9577" lon="4.82322">
        <ele>252</ele>
        <time>2018-11-15T09:38:06Z</time>
      </trkpt>
      <trkpt lat="45.95775" lon="4.82329">
        <ele>252</ele>
        <time>2018-11-15T09:38:07Z</time>
      </trkpt>
      <trkpt lat="45.95782" lon="4.82335">
        <ele>253</ele>
        <time>2018-11-15T09:38:08Z</time>
      </trkpt>
      <trkpt lat="45.95788" lon="4.82342">
        <ele>253</ele>
        <time>2018-11-15T09:38:09Z</time>
      </trkpt>
      <trkpt lat="45.95794" lon="4.82348">
        <ele>252</ele>
        <time>2018-11-15T09:38:10Z</time>
      </trkpt>
      <trkpt lat="45.95801" lon="4.82353">
        <ele>252</ele>
        <time>2018-11-15T09:38:11Z</time>
      </trkpt>
      <trkpt lat="45.95807" lon="4.82357">
        <ele>252</ele>
        <time>2018-11-15T09:38:12Z</time>
      </trkpt>
      <trkpt lat="45.95813" lon="4.82361">
        <ele>251</ele>
        <time>2018-11-15T09:38:13Z</time>
      </trkpt>
      <trkpt lat="45.9582" lon="4.82363">
        <ele>251</ele>
        <time>2018-11-15T09:38:14Z</time>
      </trkpt>
      <trkpt lat="45.95828" lon="4.82364">
        <ele>251</ele>
        <time>2018-11-15T09:38:15Z</time>
      </trkpt>
      <trkpt lat="45.95836" lon="4.82367">
        <ele>246</ele>
        <time>2018-11-15T09:38:16Z</time>
      </trkpt>
      <trkpt lat="45.95844" lon="4.82367">
        <ele>246</ele>
        <time>2018-11-15T09:38:17Z</time>
      </trkpt>
      <trkpt lat="45.95853" lon="4.82368">
        <ele>245</ele>
        <time>2018-11-15T09:38:18Z</time>
      </trkpt>
      <trkpt lat="45.95862" lon="4.82369">
        <ele>245</ele>
        <time>2018-11-15T09:38:19Z</time>
      </trkpt>
      <trkpt lat="45.95872" lon="4.8237">
        <ele>244</ele>
        <time>2018-11-15T09:38:20Z</time>
      </trkpt>
      <trkpt lat="45.95881" lon="4.82369">
        <ele>244</ele>
        <time>2018-11-15T09:38:21Z</time>
      </trkpt>
      <trkpt lat="45.95888" lon="4.82368">
        <ele>243</ele>
        <time>2018-11-15T09:38:22Z</time>
      </trkpt>
      <trkpt lat="45.95898" lon="4.82367">
        <ele>243</ele>
        <time>2018-11-15T09:38:23Z</time>
      </trkpt>
      <trkpt lat="45.95908" lon="4.82367">
        <ele>242</ele>
        <time>2018-11-15T09:38:24Z</time>
      </trkpt>
      <trkpt lat="45.95916" lon="4.82366">
        <ele>242</ele>
        <time>2018-11-15T09:38:25Z</time>
      </trkpt>
      <trkpt lat="45.95926" lon="4.82362">
        <ele>238</ele>
        <time>2018-11-15T09:38:26Z</time>
      </trkpt>
      <trkpt lat="45.95935" lon="4.82358">
        <ele>238</ele>
        <time>2018-11-15T09:38:27Z</time>
      </trkpt>
      <trkpt lat="45.95944" lon="4.82357">
        <ele>237</ele>
        <time>2018-11-15T09:38:28Z</time>
      </trkpt>
      <trkpt lat="45.95953" lon="4.82355">
        <ele>237</ele>
        <time>2018-11-15T09:38:29Z</time>
      </trkpt>
      <trkpt lat="45.95962" lon="4.82353">
        <ele>237</ele>
        <time>2018-11-15T09:38:30Z</time>
      </trkpt>
      <trkpt lat="45.9597" lon="4.8235">
        <ele>237</ele>
        <time>2018-11-15T09:38:31Z</time>
      </trkpt>
      <trkpt lat="45.95978" lon="4.8235">
        <ele>237</ele>
        <time>2018-11-15T09:38:32Z</time>
      </trkpt>
      <trkpt lat="45.95985" lon="4.82352">
        <ele>236</ele>
        <time>2018-11-15T09:38:33Z</time>
      </trkpt>
      <trkpt lat="45.95991" lon="4.82351">
        <ele>236</ele>
        <time>2018-11-15T09:38:34Z</time>
      </trkpt>
      <trkpt lat="45.95998" lon="4.82353">
        <ele>236</ele>
        <time>2018-11-15T09:38:35Z</time>
      </trkpt>
      <trkpt lat="45.96004" lon="4.82354">
        <ele>235</ele>
        <time>2018-11-15T09:38:36Z</time>
      </trkpt>
      <trkpt lat="45.96009" lon="4.82355">
        <ele>235</ele>
        <time>2018-11-15T09:38:37Z</time>
      </trkpt>
      <trkpt lat="45.96013" lon="4.82358">
        <ele>235</ele>
        <time>2018-11-15T09:38:38Z</time>
      </trkpt>
      <trkpt lat="45.96017" lon="4.82362">
        <ele>235</ele>
        <time>2018-11-15T09:38:39Z</time>
      </trkpt>
      <trkpt lat="45.9602" lon="4.82368">
        <ele>235</ele>
        <time>2018-11-15T09:38:40Z</time>
      </trkpt>
      <trkpt lat="45.96023" lon="4.8238">
        <ele>235</ele>
        <time>2018-11-15T09:38:42Z</time>
      </trkpt>
      <trkpt lat="45.96023" lon="4.82386">
        <ele>235</ele>
        <time>2018-11-15T09:38:43Z</time>
      </trkpt>
      <trkpt lat="45.96023" lon="4.82394">
        <ele>235</ele>
        <time>2018-11-15T09:38:44Z</time>
      </trkpt>
      <trkpt lat="45.96022" lon="4.824">
        <ele>235</ele>
        <time>2018-11-15T09:38:45Z</time>
      </trkpt>
      <trkpt lat="45.96021" lon="4.82412">
        <ele>235</ele>
        <time>2018-11-15T09:38:47Z</time>
      </trkpt>
      <trkpt lat="45.9602" lon="4.82417">
        <ele>235</ele>
        <time>2018-11-15T09:38:48Z</time>
      </trkpt>
      <trkpt lat="45.96018" lon="4.82429">
        <ele>235</ele>
        <time>2018-11-15T09:38:50Z</time>
      </trkpt>
      <trkpt lat="45.96018" lon="4.82434">
        <ele>235</ele>
        <time>2018-11-15T09:38:51Z</time>
      </trkpt>
      <trkpt lat="45.96016" lon="4.82446">
        <ele>235</ele>
        <time>2018-11-15T09:38:53Z</time>
      </trkpt>
      <trkpt lat="45.96015" lon="4.82453">
        <ele>235</ele>
        <time>2018-11-15T09:38:54Z</time>
      </trkpt>
      <trkpt lat="45.96014" lon="4.82459">
        <ele>235</ele>
        <time>2018-11-15T09:38:55Z</time>
      </trkpt>
      <trkpt lat="45.96013" lon="4.82466">
        <ele>235</ele>
        <time>2018-11-15T09:38:56Z</time>
      </trkpt>
      <trkpt lat="45.96012" lon="4.82473">
        <ele>235</ele>
        <time>2018-11-15T09:38:57Z</time>
      </trkpt>
      <trkpt lat="45.96011" lon="4.8248">
        <ele>235</ele>
        <time>2018-11-15T09:38:58Z</time>
      </trkpt>
      <trkpt lat="45.9601" lon="4.82486">
        <ele>235</ele>
        <time>2018-11-15T09:38:59Z</time>
      </trkpt>
      <trkpt lat="45.9601" lon="4.82494">
        <ele>235</ele>
        <time>2018-11-15T09:39:00Z</time>
      </trkpt>
      <trkpt lat="45.96009" lon="4.825">
        <ele>235</ele>
        <time>2018-11-15T09:39:01Z</time>
      </trkpt>
      <trkpt lat="45.96008" lon="4.82507">
        <ele>235</ele>
        <time>2018-11-15T09:39:02Z</time>
      </trkpt>
      <trkpt lat="45.96007" lon="4.82518">
        <ele>235</ele>
        <time>2018-11-15T09:39:04Z</time>
      </trkpt>
      <trkpt lat="45.96007" lon="4.82522">
        <ele>235</ele>
        <time>2018-11-15T09:39:05Z</time>
      </trkpt>
      <trkpt lat="45.96007" lon="4.82535">
        <ele>235</ele>
        <time>2018-11-15T09:39:07Z</time>
      </trkpt>
      <trkpt lat="45.96007" lon="4.82542">
        <ele>235</ele>
        <time>2018-11-15T09:39:08Z</time>
      </trkpt>
      <trkpt lat="45.96007" lon="4.82549">
        <ele>235</ele>
        <time>2018-11-15T09:39:09Z</time>
      </trkpt>
      <trkpt lat="45.96008" lon="4.82556">
        <ele>235</ele>
        <time>2018-11-15T09:39:10Z</time>
      </trkpt>
      <trkpt lat="45.96008" lon="4.82563">
        <ele>234</ele>
        <time>2018-11-15T09:39:11Z</time>
      </trkpt>
      <trkpt lat="45.96009" lon="4.82569">
        <ele>234</ele>
        <time>2018-11-15T09:39:12Z</time>
      </trkpt>
      <trkpt lat="45.96012" lon="4.82576">
        <ele>234</ele>
        <time>2018-11-15T09:39:13Z</time>
      </trkpt>
      <trkpt lat="45.96016" lon="4.82583">
        <ele>234</ele>
        <time>2018-11-15T09:39:14Z</time>
      </trkpt>
      <trkpt lat="45.96017" lon="4.8259">
        <ele>235</ele>
        <time>2018-11-15T09:39:15Z</time>
      </trkpt>
      <trkpt lat="45.9602" lon="4.82596">
        <ele>235</ele>
        <time>2018-11-15T09:39:16Z</time>
      </trkpt>
      <trkpt lat="45.96022" lon="4.82602">
        <ele>235</ele>
        <time>2018-11-15T09:39:17Z</time>
      </trkpt>
      <trkpt lat="45.96024" lon="4.82609">
        <ele>235</ele>
        <time>2018-11-15T09:39:18Z</time>
      </trkpt>
      <trkpt lat="45.96027" lon="4.82615">
        <ele>235</ele>
        <time>2018-11-15T09:39:19Z</time>
      </trkpt>
      <trkpt lat="45.96029" lon="4.82622">
        <ele>235</ele>
        <time>2018-11-15T09:39:20Z</time>
      </trkpt>
      <trkpt lat="45.9603" lon="4.82628">
        <ele>235</ele>
        <time>2018-11-15T09:39:21Z</time>
      </trkpt>
      <trkpt lat="45.96033" lon="4.82634">
        <ele>235</ele>
        <time>2018-11-15T09:39:22Z</time>
      </trkpt>
      <trkpt lat="45.96035" lon="4.82645">
        <ele>235</ele>
        <time>2018-11-15T09:39:24Z</time>
      </trkpt>
      <trkpt lat="45.96038" lon="4.82651">
        <ele>235</ele>
        <time>2018-11-15T09:39:25Z</time>
      </trkpt>
      <trkpt lat="45.96042" lon="4.82662">
        <ele>235</ele>
        <time>2018-11-15T09:39:27Z</time>
      </trkpt>
      <trkpt lat="45.96045" lon="4.82666">
        <ele>235</ele>
        <time>2018-11-15T09:39:28Z</time>
      </trkpt>
      <trkpt lat="45.96049" lon="4.82676">
        <ele>236</ele>
        <time>2018-11-15T09:39:30Z</time>
      </trkpt>
      <trkpt lat="45.96051" lon="4.82683">
        <ele>236</ele>
        <time>2018-11-15T09:39:31Z</time>
      </trkpt>
      <trkpt lat="45.96054" lon="4.82689">
        <ele>236</ele>
        <time>2018-11-15T09:39:32Z</time>
      </trkpt>
      <trkpt lat="45.96056" lon="4.82695">
        <ele>237</ele>
        <time>2018-11-15T09:39:33Z</time>
      </trkpt>
      <trkpt lat="45.9606" lon="4.82706">
        <ele>237</ele>
        <time>2018-11-15T09:39:35Z</time>
      </trkpt>
      <trkpt lat="45.96062" lon="4.82711">
        <ele>237</ele>
        <time>2018-11-15T09:39:36Z</time>
      </trkpt>
      <trkpt lat="45.96064" lon="4.82717">
        <ele>237</ele>
        <time>2018-11-15T09:39:37Z</time>
      </trkpt>
      <trkpt lat="45.96066" lon="4.82723">
        <ele>237</ele>
        <time>2018-11-15T09:39:38Z</time>
      </trkpt>
      <trkpt lat="45.9607" lon="4.82733">
        <ele>237</ele>
        <time>2018-11-15T09:39:40Z</time>
      </trkpt>
      <trkpt lat="45.96071" lon="4.82739">
        <ele>237</ele>
        <time>2018-11-15T09:39:41Z</time>
      </trkpt>
      <trkpt lat="45.96073" lon="4.82745">
        <ele>237</ele>
        <time>2018-11-15T09:39:42Z</time>
      </trkpt>
      <trkpt lat="45.96075" lon="4.82751">
        <ele>237</ele>
        <time>2018-11-15T09:39:43Z</time>
      </trkpt>
      <trkpt lat="45.96078" lon="4.82762">
        <ele>238</ele>
        <time>2018-11-15T09:39:45Z</time>
      </trkpt>
      <trkpt lat="45.96078" lon="4.82768">
        <ele>238</ele>
        <time>2018-11-15T09:39:46Z</time>
      </trkpt>
      <trkpt lat="45.9608" lon="4.82775">
        <ele>238</ele>
        <time>2018-11-15T09:39:47Z</time>
      </trkpt>
      <trkpt lat="45.96084" lon="4.82781">
        <ele>237</ele>
        <time>2018-11-15T09:39:48Z</time>
      </trkpt>
      <trkpt lat="45.96087" lon="4.82793">
        <ele>237</ele>
        <time>2018-11-15T09:39:50Z</time>
      </trkpt>
      <trkpt lat="45.96088" lon="4.82799">
        <ele>237</ele>
        <time>2018-11-15T09:39:51Z</time>
      </trkpt>
      <trkpt lat="45.96089" lon="4.82806">
        <ele>237</ele>
        <time>2018-11-15T09:39:52Z</time>
      </trkpt>
      <trkpt lat="45.9609" lon="4.82813">
        <ele>237</ele>
        <time>2018-11-15T09:39:53Z</time>
      </trkpt>
      <trkpt lat="45.96091" lon="4.82824">
        <ele>237</ele>
        <time>2018-11-15T09:39:55Z</time>
      </trkpt>
      <trkpt lat="45.96093" lon="4.82834">
        <ele>237</ele>
        <time>2018-11-15T09:39:56Z</time>
      </trkpt>
      <trkpt lat="45.96095" lon="4.82846">
        <ele>237</ele>
        <time>2018-11-15T09:39:58Z</time>
      </trkpt>
      <trkpt lat="45.96096" lon="4.82852">
        <ele>237</ele>
        <time>2018-11-15T09:39:59Z</time>
      </trkpt>
      <trkpt lat="45.96096" lon="4.82863">
        <ele>237</ele>
        <time>2018-11-15T09:40:01Z</time>
      </trkpt>
      <trkpt lat="45.96096" lon="4.82868">
        <ele>237</ele>
        <time>2018-11-15T09:40:02Z</time>
      </trkpt>
      <trkpt lat="45.96092" lon="4.82879">
        <ele>237</ele>
        <time>2018-11-15T09:40:04Z</time>
      </trkpt>
      <trkpt lat="45.96091" lon="4.82885">
        <ele>237</ele>
        <time>2018-11-15T09:40:05Z</time>
      </trkpt>
      <trkpt lat="45.9609" lon="4.82891">
        <ele>237</ele>
        <time>2018-11-15T09:40:06Z</time>
      </trkpt>
      <trkpt lat="45.9609" lon="4.82899">
        <ele>238</ele>
        <time>2018-11-15T09:40:07Z</time>
      </trkpt>
      <trkpt lat="45.96088" lon="4.82911">
        <ele>238</ele>
        <time>2018-11-15T09:40:09Z</time>
      </trkpt>
      <trkpt lat="45.96086" lon="4.82917">
        <ele>238</ele>
        <time>2018-11-15T09:40:10Z</time>
      </trkpt>
      <trkpt lat="45.96083" lon="4.82928">
        <ele>239</ele>
        <time>2018-11-15T09:40:12Z</time>
      </trkpt>
      <trkpt lat="45.96081" lon="4.82934">
        <ele>240</ele>
        <time>2018-11-15T09:40:13Z</time>
      </trkpt>
      <trkpt lat="45.9608" lon="4.8294">
        <ele>240</ele>
        <time>2018-11-15T09:40:14Z</time>
      </trkpt>
      <trkpt lat="45.96078" lon="4.82946">
        <ele>241</ele>
        <time>2018-11-15T09:40:15Z</time>
      </trkpt>
      <trkpt lat="45.96075" lon="4.82957">
        <ele>241</ele>
        <time>2018-11-15T09:40:17Z</time>
      </trkpt>
      <trkpt lat="45.96074" lon="4.82963">
        <ele>241</ele>
        <time>2018-11-15T09:40:18Z</time>
      </trkpt>
      <trkpt lat="45.96071" lon="4.82971">
        <ele>241</ele>
        <time>2018-11-15T09:40:21Z</time>
      </trkpt>
      <trkpt lat="45.96068" lon="4.82979">
        <ele>241</ele>
        <time>2018-11-15T09:40:22Z</time>
      </trkpt>
      <trkpt lat="45.96066" lon="4.8299">
        <ele>241</ele>
        <time>2018-11-15T09:40:24Z</time>
      </trkpt>
      <trkpt lat="45.96066" lon="4.82995">
        <ele>241</ele>
        <time>2018-11-15T09:40:25Z</time>
      </trkpt>
      <trkpt lat="45.96066" lon="4.83007">
        <ele>242</ele>
        <time>2018-11-15T09:40:27Z</time>
      </trkpt>
      <trkpt lat="45.96066" lon="4.83013">
        <ele>242</ele>
        <time>2018-11-15T09:40:28Z</time>
      </trkpt>
      <trkpt lat="45.96067" lon="4.83024">
        <ele>242</ele>
        <time>2018-11-15T09:40:30Z</time>
      </trkpt>
      <trkpt lat="45.96068" lon="4.8303">
        <ele>242</ele>
        <time>2018-11-15T09:40:31Z</time>
      </trkpt>
      <trkpt lat="45.96071" lon="4.83042">
        <ele>243</ele>
        <time>2018-11-15T09:40:33Z</time>
      </trkpt>
      <trkpt lat="45.96074" lon="4.83048">
        <ele>243</ele>
        <time>2018-11-15T09:40:34Z</time>
      </trkpt>
      <trkpt lat="45.96077" lon="4.8306">
        <ele>242</ele>
        <time>2018-11-15T09:40:36Z</time>
      </trkpt>
      <trkpt lat="45.96079" lon="4.83066">
        <ele>242</ele>
        <time>2018-11-15T09:40:37Z</time>
      </trkpt>
      <trkpt lat="45.96081" lon="4.83074">
        <ele>241</ele>
        <time>2018-11-15T09:40:38Z</time>
      </trkpt>
      <trkpt lat="45.96083" lon="4.8308">
        <ele>240</ele>
        <time>2018-11-15T09:40:39Z</time>
      </trkpt>
      <trkpt lat="45.96085" lon="4.83088">
        <ele>240</ele>
        <time>2018-11-15T09:40:40Z</time>
      </trkpt>
      <trkpt lat="45.96085" lon="4.83094">
        <ele>240</ele>
        <time>2018-11-15T09:40:41Z</time>
      </trkpt>
      <trkpt lat="45.96086" lon="4.83107">
        <ele>240</ele>
        <time>2018-11-15T09:40:43Z</time>
      </trkpt>
      <trkpt lat="45.96086" lon="4.83113">
        <ele>240</ele>
        <time>2018-11-15T09:40:44Z</time>
      </trkpt>
      <trkpt lat="45.96087" lon="4.83126">
        <ele>240</ele>
        <time>2018-11-15T09:40:46Z</time>
      </trkpt>
      <trkpt lat="45.96087" lon="4.83132">
        <ele>240</ele>
        <time>2018-11-15T09:40:47Z</time>
      </trkpt>
      <trkpt lat="45.96088" lon="4.83139">
        <ele>240</ele>
        <time>2018-11-15T09:40:48Z</time>
      </trkpt>
      <trkpt lat="45.96088" lon="4.83145">
        <ele>240</ele>
        <time>2018-11-15T09:40:49Z</time>
      </trkpt>
      <trkpt lat="45.96089" lon="4.83157">
        <ele>240</ele>
        <time>2018-11-15T09:40:51Z</time>
      </trkpt>
      <trkpt lat="45.96089" lon="4.83163">
        <ele>240</ele>
        <time>2018-11-15T09:40:52Z</time>
      </trkpt>
      <trkpt lat="45.96089" lon="4.83176">
        <ele>240</ele>
        <time>2018-11-15T09:40:54Z</time>
      </trkpt>
      <trkpt lat="45.9609" lon="4.83182">
        <ele>240</ele>
        <time>2018-11-15T09:40:55Z</time>
      </trkpt>
      <trkpt lat="45.96089" lon="4.83194">
        <ele>240</ele>
        <time>2018-11-15T09:40:57Z</time>
      </trkpt>
      <trkpt lat="45.96089" lon="4.83201">
        <ele>240</ele>
        <time>2018-11-15T09:40:58Z</time>
      </trkpt>
      <trkpt lat="45.9609" lon="4.83213">
        <ele>240</ele>
        <time>2018-11-15T09:41:00Z</time>
      </trkpt>
      <trkpt lat="45.9609" lon="4.83219">
        <ele>240</ele>
        <time>2018-11-15T09:41:01Z</time>
      </trkpt>
      <trkpt lat="45.9609" lon="4.8323">
        <ele>240</ele>
        <time>2018-11-15T09:41:03Z</time>
      </trkpt>
      <trkpt lat="45.9609" lon="4.83236">
        <ele>240</ele>
        <time>2018-11-15T09:41:04Z</time>
      </trkpt>
      <trkpt lat="45.9609" lon="4.83243">
        <ele>240</ele>
        <time>2018-11-15T09:41:05Z</time>
      </trkpt>
      <trkpt lat="45.9609" lon="4.83249">
        <ele>240</ele>
        <time>2018-11-15T09:41:06Z</time>
      </trkpt>
      <trkpt lat="45.96089" lon="4.83256">
        <ele>240</ele>
        <time>2018-11-15T09:41:07Z</time>
      </trkpt>
      <trkpt lat="45.96089" lon="4.83263">
        <ele>241</ele>
        <time>2018-11-15T09:41:08Z</time>
      </trkpt>
      <trkpt lat="45.96089" lon="4.8327">
        <ele>241</ele>
        <time>2018-11-15T09:41:09Z</time>
      </trkpt>
      <trkpt lat="45.9609" lon="4.83277">
        <ele>241</ele>
        <time>2018-11-15T09:41:10Z</time>
      </trkpt>
      <trkpt lat="45.9609" lon="4.83284">
        <ele>241</ele>
        <time>2018-11-15T09:41:11Z</time>
      </trkpt>
      <trkpt lat="45.96091" lon="4.8329">
        <ele>241</ele>
        <time>2018-11-15T09:41:12Z</time>
      </trkpt>
      <trkpt lat="45.96092" lon="4.83302">
        <ele>241</ele>
        <time>2018-11-15T09:41:14Z</time>
      </trkpt>
      <trkpt lat="45.96092" lon="4.83308">
        <ele>241</ele>
        <time>2018-11-15T09:41:15Z</time>
      </trkpt>
      <trkpt lat="45.96097" lon="4.83318">
        <ele>241</ele>
        <time>2018-11-15T09:41:17Z</time>
      </trkpt>
      <trkpt lat="45.96099" lon="4.83324">
        <ele>241</ele>
        <time>2018-11-15T09:41:18Z</time>
      </trkpt>
      <trkpt lat="45.96101" lon="4.83335">
        <ele>242</ele>
        <time>2018-11-15T09:41:20Z</time>
      </trkpt>
      <trkpt lat="45.96103" lon="4.83342">
        <ele>242</ele>
        <time>2018-11-15T09:41:21Z</time>
      </trkpt>
      <trkpt lat="45.96107" lon="4.83353">
        <ele>242</ele>
        <time>2018-11-15T09:41:23Z</time>
      </trkpt>
      <trkpt lat="45.96108" lon="4.83358">
        <ele>242</ele>
        <time>2018-11-15T09:41:24Z</time>
      </trkpt>
      <trkpt lat="45.9611" lon="4.83368">
        <ele>242</ele>
        <time>2018-11-15T09:41:26Z</time>
      </trkpt>
      <trkpt lat="45.96111" lon="4.83373">
        <ele>242</ele>
        <time>2018-11-15T09:41:27Z</time>
      </trkpt>
      <trkpt lat="45.96112" lon="4.83383">
        <ele>242</ele>
        <time>2018-11-15T09:41:29Z</time>
      </trkpt>
      <trkpt lat="45.96113" lon="4.83386">
        <ele>243</ele>
        <time>2018-11-15T09:41:30Z</time>
      </trkpt>
      <trkpt lat="45.96115" lon="4.83396">
        <ele>243</ele>
        <time>2018-11-15T09:41:32Z</time>
      </trkpt>
      <trkpt lat="45.96116" lon="4.83403">
        <ele>243</ele>
        <time>2018-11-15T09:41:33Z</time>
      </trkpt>
      <trkpt lat="45.96118" lon="4.83411">
        <ele>243</ele>
        <time>2018-11-15T09:41:35Z</time>
      </trkpt>
      <trkpt lat="45.96119" lon="4.83418">
        <ele>243</ele>
        <time>2018-11-15T09:41:36Z</time>
      </trkpt>
      <trkpt lat="45.96122" lon="4.83429">
        <ele>242</ele>
        <time>2018-11-15T09:41:38Z</time>
      </trkpt>
      <trkpt lat="45.96122" lon="4.83432">
        <ele>242</ele>
        <time>2018-11-15T09:41:39Z</time>
      </trkpt>
      <trkpt lat="45.96124" lon="4.83439">
        <ele>242</ele>
        <time>2018-11-15T09:41:41Z</time>
      </trkpt>
      <trkpt lat="45.96126" lon="4.83448">
        <ele>242</ele>
        <time>2018-11-15T09:41:42Z</time>
      </trkpt>
      <trkpt lat="45.96128" lon="4.83457">
        <ele>242</ele>
        <time>2018-11-15T09:41:45Z</time>
      </trkpt>
      <trkpt lat="45.96129" lon="4.83462">
        <ele>242</ele>
        <time>2018-11-15T09:41:46Z</time>
      </trkpt>
      <trkpt lat="45.9613" lon="4.83467">
        <ele>242</ele>
        <time>2018-11-15T09:41:47Z</time>
      </trkpt>
      <trkpt lat="45.96131" lon="4.83477">
        <ele>242</ele>
        <time>2018-11-15T09:41:48Z</time>
      </trkpt>
      <trkpt lat="45.96132" lon="4.83488">
        <ele>242</ele>
        <time>2018-11-15T09:41:51Z</time>
      </trkpt>
      <trkpt lat="45.96134" lon="4.83497">
        <ele>242</ele>
        <time>2018-11-15T09:41:52Z</time>
      </trkpt>
      <trkpt lat="45.96136" lon="4.83507">
        <ele>242</ele>
        <time>2018-11-15T09:41:55Z</time>
      </trkpt>
      <trkpt lat="45.96137" lon="4.83511">
        <ele>242</ele>
        <time>2018-11-15T09:41:56Z</time>
      </trkpt>
      <trkpt lat="45.96138" lon="4.8352">
        <ele>242</ele>
        <time>2018-11-15T09:41:58Z</time>
      </trkpt>
      <trkpt lat="45.9614" lon="4.83524">
        <ele>242</ele>
        <time>2018-11-15T09:41:59Z</time>
      </trkpt>
      <trkpt lat="45.96142" lon="4.83534">
        <ele>242</ele>
        <time>2018-11-15T09:42:01Z</time>
      </trkpt>
      <trkpt lat="45.96144" lon="4.83544">
        <ele>242</ele>
        <time>2018-11-15T09:42:02Z</time>
      </trkpt>
      <trkpt lat="45.96146" lon="4.83554">
        <ele>242</ele>
        <time>2018-11-15T09:42:04Z</time>
      </trkpt>
      <trkpt lat="45.96146" lon="4.8356">
        <ele>241</ele>
        <time>2018-11-15T09:42:05Z</time>
      </trkpt>
      <trkpt lat="45.96148" lon="4.83571">
        <ele>241</ele>
        <time>2018-11-15T09:42:07Z</time>
      </trkpt>
      <trkpt lat="45.96149" lon="4.83577">
        <ele>241</ele>
        <time>2018-11-15T09:42:08Z</time>
      </trkpt>
      <trkpt lat="45.96151" lon="4.83587">
        <ele>242</ele>
        <time>2018-11-15T09:42:10Z</time>
      </trkpt>
      <trkpt lat="45.96152" lon="4.83593">
        <ele>242</ele>
        <time>2018-11-15T09:42:11Z</time>
      </trkpt>
      <trkpt lat="45.96155" lon="4.83605">
        <ele>242</ele>
        <time>2018-11-15T09:42:13Z</time>
      </trkpt>
      <trkpt lat="45.96157" lon="4.8361">
        <ele>242</ele>
        <time>2018-11-15T09:42:14Z</time>
      </trkpt>
      <trkpt lat="45.9616" lon="4.83622">
        <ele>242</ele>
        <time>2018-11-15T09:42:16Z</time>
      </trkpt>
      <trkpt lat="45.96162" lon="4.83628">
        <ele>242</ele>
        <time>2018-11-15T09:42:17Z</time>
      </trkpt>
      <trkpt lat="45.96166" lon="4.83639">
        <ele>243</ele>
        <time>2018-11-15T09:42:19Z</time>
      </trkpt>
      <trkpt lat="45.96168" lon="4.83644">
        <ele>242</ele>
        <time>2018-11-15T09:42:20Z</time>
      </trkpt>
      <trkpt lat="45.96171" lon="4.83649">
        <ele>242</ele>
        <time>2018-11-15T09:42:21Z</time>
      </trkpt>
      <trkpt lat="45.96174" lon="4.83654">
        <ele>242</ele>
        <time>2018-11-15T09:42:22Z</time>
      </trkpt>
      <trkpt lat="45.96178" lon="4.83659">
        <ele>242</ele>
        <time>2018-11-15T09:42:23Z</time>
      </trkpt>
      <trkpt lat="45.96181" lon="4.83663">
        <ele>242</ele>
        <time>2018-11-15T09:42:24Z</time>
      </trkpt>
      <trkpt lat="45.96184" lon="4.83668">
        <ele>243</ele>
        <time>2018-11-15T09:42:25Z</time>
      </trkpt>
      <trkpt lat="45.96188" lon="4.83672">
        <ele>243</ele>
        <time>2018-11-15T09:42:26Z</time>
      </trkpt>
      <trkpt lat="45.96191" lon="4.83677">
        <ele>243</ele>
        <time>2018-11-15T09:42:27Z</time>
      </trkpt>
      <trkpt lat="45.96195" lon="4.8368">
        <ele>243</ele>
        <time>2018-11-15T09:42:28Z</time>
      </trkpt>
      <trkpt lat="45.96202" lon="4.83688">
        <ele>243</ele>
        <time>2018-11-15T09:42:30Z</time>
      </trkpt>
      <trkpt lat="45.96206" lon="4.83692">
        <ele>243</ele>
        <time>2018-11-15T09:42:31Z</time>
      </trkpt>
      <trkpt lat="45.9621" lon="4.83696">
        <ele>243</ele>
        <time>2018-11-15T09:42:32Z</time>
      </trkpt>
      <trkpt lat="45.96213" lon="4.837">
        <ele>243</ele>
        <time>2018-11-15T09:42:33Z</time>
      </trkpt>
      <trkpt lat="45.96217" lon="4.83704">
        <ele>244</ele>
        <time>2018-11-15T09:42:34Z</time>
      </trkpt>
      <trkpt lat="45.9622" lon="4.83709">
        <ele>244</ele>
        <time>2018-11-15T09:42:35Z</time>
      </trkpt>
      <trkpt lat="45.96224" lon="4.83713">
        <ele>244</ele>
        <time>2018-11-15T09:42:36Z</time>
      </trkpt>
      <trkpt lat="45.96227" lon="4.83718">
        <ele>244</ele>
        <time>2018-11-15T09:42:37Z</time>
      </trkpt>
      <trkpt lat="45.96231" lon="4.83722">
        <ele>244</ele>
        <time>2018-11-15T09:42:38Z</time>
      </trkpt>
      <trkpt lat="45.96235" lon="4.83726">
        <ele>244</ele>
        <time>2018-11-15T09:42:39Z</time>
      </trkpt>
      <trkpt lat="45.96242" lon="4.83734">
        <ele>244</ele>
        <time>2018-11-15T09:42:41Z</time>
      </trkpt>
      <trkpt lat="45.96245" lon="4.83739">
        <ele>244</ele>
        <time>2018-11-15T09:42:42Z</time>
      </trkpt>
      <trkpt lat="45.96249" lon="4.83743">
        <ele>244</ele>
        <time>2018-11-15T09:42:43Z</time>
      </trkpt>
      <trkpt lat="45.96253" lon="4.83748">
        <ele>244</ele>
        <time>2018-11-15T09:42:44Z</time>
      </trkpt>
      <trkpt lat="45.96256" lon="4.83753">
        <ele>244</ele>
        <time>2018-11-15T09:42:45Z</time>
      </trkpt>
      <trkpt lat="45.9626" lon="4.83757">
        <ele>244</ele>
        <time>2018-11-15T09:42:46Z</time>
      </trkpt>
      <trkpt lat="45.96267" lon="4.83763">
        <ele>245</ele>
        <time>2018-11-15T09:42:48Z</time>
      </trkpt>
      <trkpt lat="45.9627" lon="4.83766">
        <ele>245</ele>
        <time>2018-11-15T09:42:49Z</time>
      </trkpt>
      <trkpt lat="45.96277" lon="4.83773">
        <ele>245</ele>
        <time>2018-11-15T09:42:51Z</time>
      </trkpt>
      <trkpt lat="45.9628" lon="4.83776">
        <ele>245</ele>
        <time>2018-11-15T09:42:52Z</time>
      </trkpt>
      <trkpt lat="45.96287" lon="4.83783">
        <ele>245</ele>
        <time>2018-11-15T09:42:54Z</time>
      </trkpt>
      <trkpt lat="45.96291" lon="4.83787">
        <ele>245</ele>
        <time>2018-11-15T09:42:55Z</time>
      </trkpt>
      <trkpt lat="45.96295" lon="4.8379">
        <ele>245</ele>
        <time>2018-11-15T09:42:56Z</time>
      </trkpt>
      <trkpt lat="45.96299" lon="4.83794">
        <ele>245</ele>
        <time>2018-11-15T09:42:57Z</time>
      </trkpt>
      <trkpt lat="45.96303" lon="4.83797">
        <ele>245</ele>
        <time>2018-11-15T09:42:58Z</time>
      </trkpt>
      <trkpt lat="45.96307" lon="4.83799">
        <ele>245</ele>
        <time>2018-11-15T09:42:59Z</time>
      </trkpt>
      <trkpt lat="45.96315" lon="4.83804">
        <ele>245</ele>
        <time>2018-11-15T09:43:01Z</time>
      </trkpt>
      <trkpt lat="45.96319" lon="4.83808">
        <ele>245</ele>
        <time>2018-11-15T09:43:02Z</time>
      </trkpt>
      <trkpt lat="45.96323" lon="4.83812">
        <ele>244</ele>
        <time>2018-11-15T09:43:03Z</time>
      </trkpt>
      <trkpt lat="45.96327" lon="4.83816">
        <ele>244</ele>
        <time>2018-11-15T09:43:04Z</time>
      </trkpt>
      <trkpt lat="45.96333" lon="4.83822">
        <ele>244</ele>
        <time>2018-11-15T09:43:06Z</time>
      </trkpt>
      <trkpt lat="45.96337" lon="4.83826">
        <ele>244</ele>
        <time>2018-11-15T09:43:07Z</time>
      </trkpt>
      <trkpt lat="45.96344" lon="4.83834">
        <ele>245</ele>
        <time>2018-11-15T09:43:09Z</time>
      </trkpt>
      <trkpt lat="45.96347" lon="4.83838">
        <ele>245</ele>
        <time>2018-11-15T09:43:10Z</time>
      </trkpt>
      <trkpt lat="45.96351" lon="4.83842">
        <ele>245</ele>
        <time>2018-11-15T09:43:11Z</time>
      </trkpt>
      <trkpt lat="45.96354" lon="4.83847">
        <ele>246</ele>
        <time>2018-11-15T09:43:12Z</time>
      </trkpt>
      <trkpt lat="45.96358" lon="4.83851">
        <ele>246</ele>
        <time>2018-11-15T09:43:13Z</time>
      </trkpt>
      <trkpt lat="45.96361" lon="4.83856">
        <ele>246</ele>
        <time>2018-11-15T09:43:14Z</time>
      </trkpt>
      <trkpt lat="45.96364" lon="4.83861">
        <ele>247</ele>
        <time>2018-11-15T09:43:15Z</time>
      </trkpt>
      <trkpt lat="45.96366" lon="4.83866">
        <ele>247</ele>
        <time>2018-11-15T09:43:16Z</time>
      </trkpt>
      <trkpt lat="45.96371" lon="4.83875">
        <ele>247</ele>
        <time>2018-11-15T09:43:18Z</time>
      </trkpt>
      <trkpt lat="45.96374" lon="4.8388">
        <ele>247</ele>
        <time>2018-11-15T09:43:19Z</time>
      </trkpt>
      <trkpt lat="45.9638" lon="4.83889">
        <ele>248</ele>
        <time>2018-11-15T09:43:21Z</time>
      </trkpt>
      <trkpt lat="45.96381" lon="4.83892">
        <ele>248</ele>
        <time>2018-11-15T09:43:22Z</time>
      </trkpt>
      <trkpt lat="45.96384" lon="4.83903">
        <ele>248</ele>
        <time>2018-11-15T09:43:24Z</time>
      </trkpt>
      <trkpt lat="45.96386" lon="4.83907">
        <ele>248</ele>
        <time>2018-11-15T09:43:25Z</time>
      </trkpt>
      <trkpt lat="45.96389" lon="4.83916">
        <ele>248</ele>
        <time>2018-11-15T09:43:27Z</time>
      </trkpt>
      <trkpt lat="45.96392" lon="4.8392">
        <ele>251</ele>
        <time>2018-11-15T09:43:28Z</time>
      </trkpt>
      <trkpt lat="45.96397" lon="4.8393">
        <ele>251</ele>
        <time>2018-11-15T09:43:30Z</time>
      </trkpt>
      <trkpt lat="45.96398" lon="4.83933">
        <ele>251</ele>
        <time>2018-11-15T09:43:31Z</time>
      </trkpt>
      <trkpt lat="45.96401" lon="4.83943">
        <ele>251</ele>
        <time>2018-11-15T09:43:33Z</time>
      </trkpt>
      <trkpt lat="45.96401" lon="4.83948">
        <ele>252</ele>
        <time>2018-11-15T09:43:34Z</time>
      </trkpt>
      <trkpt lat="45.96406" lon="4.83956">
        <ele>252</ele>
        <time>2018-11-15T09:43:36Z</time>
      </trkpt>
      <trkpt lat="45.96408" lon="4.83961">
        <ele>252</ele>
        <time>2018-11-15T09:43:37Z</time>
      </trkpt>
      <trkpt lat="45.96412" lon="4.83971">
        <ele>253</ele>
        <time>2018-11-15T09:43:39Z</time>
      </trkpt>
      <trkpt lat="45.96413" lon="4.83974">
        <ele>253</ele>
        <time>2018-11-15T09:43:40Z</time>
      </trkpt>
      <trkpt lat="45.96417" lon="4.83982">
        <ele>253</ele>
        <time>2018-11-15T09:43:43Z</time>
      </trkpt>
      <trkpt lat="45.96418" lon="4.83985">
        <ele>251</ele>
        <time>2018-11-15T09:43:44Z</time>
      </trkpt>
      <trkpt lat="45.96421" lon="4.83992">
        <ele>252</ele>
        <time>2018-11-15T09:43:46Z</time>
      </trkpt>
      <trkpt lat="45.96424" lon="4.84002">
        <ele>252</ele>
        <time>2018-11-15T09:43:47Z</time>
      </trkpt>
      <trkpt lat="45.96428" lon="4.84012">
        <ele>252</ele>
        <time>2018-11-15T09:43:51Z</time>
      </trkpt>
      <trkpt lat="45.96429" lon="4.84015">
        <ele>252</ele>
        <time>2018-11-15T09:43:52Z</time>
      </trkpt>
      <trkpt lat="45.96433" lon="4.84024">
        <ele>251</ele>
        <time>2018-11-15T09:43:54Z</time>
      </trkpt>
      <trkpt lat="45.96435" lon="4.84027">
        <ele>251</ele>
        <time>2018-11-15T09:43:55Z</time>
      </trkpt>
      <trkpt lat="45.96439" lon="4.84038">
        <ele>251</ele>
        <time>2018-11-15T09:43:58Z</time>
      </trkpt>
      <trkpt lat="45.96441" lon="4.84043">
        <ele>251</ele>
        <time>2018-11-15T09:43:59Z</time>
      </trkpt>
      <trkpt lat="45.96443" lon="4.84047">
        <ele>251</ele>
        <time>2018-11-15T09:44:00Z</time>
      </trkpt>
      <trkpt lat="45.96447" lon="4.84057">
        <ele>251</ele>
        <time>2018-11-15T09:44:01Z</time>
      </trkpt>
      <trkpt lat="45.96451" lon="4.84066">
        <ele>251</ele>
        <time>2018-11-15T09:44:04Z</time>
      </trkpt>
      <trkpt lat="45.96452" lon="4.8407">
        <ele>251</ele>
        <time>2018-11-15T09:44:05Z</time>
      </trkpt>
      <trkpt lat="45.96456" lon="4.84078">
        <ele>251</ele>
        <time>2018-11-15T09:44:07Z</time>
      </trkpt>
      <trkpt lat="45.96457" lon="4.84082">
        <ele>251</ele>
        <time>2018-11-15T09:44:08Z</time>
      </trkpt>
      <trkpt lat="45.9646" lon="4.8409">
        <ele>252</ele>
        <time>2018-11-15T09:44:10Z</time>
      </trkpt>
      <trkpt lat="45.96462" lon="4.84095">
        <ele>251</ele>
        <time>2018-11-15T09:44:11Z</time>
      </trkpt>
      <trkpt lat="45.96465" lon="4.84104">
        <ele>251</ele>
        <time>2018-11-15T09:44:13Z</time>
      </trkpt>
      <trkpt lat="45.96467" lon="4.84107">
        <ele>251</ele>
        <time>2018-11-15T09:44:14Z</time>
      </trkpt>
      <trkpt lat="45.9647" lon="4.84118">
        <ele>251</ele>
        <time>2018-11-15T09:44:17Z</time>
      </trkpt>
      <trkpt lat="45.96472" lon="4.84122">
        <ele>251</ele>
        <time>2018-11-15T09:44:18Z</time>
      </trkpt>
      <trkpt lat="45.96475" lon="4.84131">
        <ele>251</ele>
        <time>2018-11-15T09:44:20Z</time>
      </trkpt>
      <trkpt lat="45.96476" lon="4.84135">
        <ele>251</ele>
        <time>2018-11-15T09:44:21Z</time>
      </trkpt>
      <trkpt lat="45.96479" lon="4.84145">
        <ele>251</ele>
        <time>2018-11-15T09:44:23Z</time>
      </trkpt>
      <trkpt lat="45.9648" lon="4.8415">
        <ele>251</ele>
        <time>2018-11-15T09:44:24Z</time>
      </trkpt>
      <trkpt lat="45.96483" lon="4.8416">
        <ele>250</ele>
        <time>2018-11-15T09:44:26Z</time>
      </trkpt>
      <trkpt lat="45.96485" lon="4.84169">
        <ele>251</ele>
        <time>2018-11-15T09:44:27Z</time>
      </trkpt>
      <trkpt lat="45.96487" lon="4.84179">
        <ele>251</ele>
        <time>2018-11-15T09:44:29Z</time>
      </trkpt>
      <trkpt lat="45.96488" lon="4.84185">
        <ele>251</ele>
        <time>2018-11-15T09:44:30Z</time>
      </trkpt>
      <trkpt lat="45.9649" lon="4.84196">
        <ele>251</ele>
        <time>2018-11-15T09:44:32Z</time>
      </trkpt>
      <trkpt lat="45.96492" lon="4.84202">
        <ele>251</ele>
        <time>2018-11-15T09:44:33Z</time>
      </trkpt>
      <trkpt lat="45.96493" lon="4.84208">
        <ele>251</ele>
        <time>2018-11-15T09:44:34Z</time>
      </trkpt>
      <trkpt lat="45.96494" lon="4.84215">
        <ele>252</ele>
        <time>2018-11-15T09:44:35Z</time>
      </trkpt>
      <trkpt lat="45.96495" lon="4.84222">
        <ele>252</ele>
        <time>2018-11-15T09:44:36Z</time>
      </trkpt>
      <trkpt lat="45.96496" lon="4.84228">
        <ele>252</ele>
        <time>2018-11-15T09:44:37Z</time>
      </trkpt>
      <trkpt lat="45.96498" lon="4.84235">
        <ele>251</ele>
        <time>2018-11-15T09:44:38Z</time>
      </trkpt>
      <trkpt lat="45.96499" lon="4.84241">
        <ele>251</ele>
        <time>2018-11-15T09:44:39Z</time>
      </trkpt>
      <trkpt lat="45.965" lon="4.84248">
        <ele>251</ele>
        <time>2018-11-15T09:44:40Z</time>
      </trkpt>
      <trkpt lat="45.96502" lon="4.84255">
        <ele>251</ele>
        <time>2018-11-15T09:44:41Z</time>
      </trkpt>
      <trkpt lat="45.96504" lon="4.84267">
        <ele>251</ele>
        <time>2018-11-15T09:44:43Z</time>
      </trkpt>
      <trkpt lat="45.96505" lon="4.84274">
        <ele>250</ele>
        <time>2018-11-15T09:44:44Z</time>
      </trkpt>
      <trkpt lat="45.96506" lon="4.8428">
        <ele>250</ele>
        <time>2018-11-15T09:44:45Z</time>
      </trkpt>
      <trkpt lat="45.96507" lon="4.84287">
        <ele>250</ele>
        <time>2018-11-15T09:44:46Z</time>
      </trkpt>
      <trkpt lat="45.96509" lon="4.84294">
        <ele>250</ele>
        <time>2018-11-15T09:44:47Z</time>
      </trkpt>
      <trkpt lat="45.96509" lon="4.843">
        <ele>250</ele>
        <time>2018-11-15T09:44:48Z</time>
      </trkpt>
      <trkpt lat="45.9651" lon="4.84307">
        <ele>250</ele>
        <time>2018-11-15T09:44:49Z</time>
      </trkpt>
      <trkpt lat="45.96512" lon="4.84314">
        <ele>250</ele>
        <time>2018-11-15T09:44:50Z</time>
      </trkpt>
      <trkpt lat="45.96514" lon="4.8432">
        <ele>251</ele>
        <time>2018-11-15T09:44:51Z</time>
      </trkpt>
      <trkpt lat="45.96517" lon="4.84329">
        <ele>251</ele>
        <time>2018-11-15T09:44:52Z</time>
      </trkpt>
      <trkpt lat="45.96518" lon="4.84336">
        <ele>251</ele>
        <time>2018-11-15T09:44:53Z</time>
      </trkpt>
      <trkpt lat="45.9652" lon="4.84343">
        <ele>251</ele>
        <time>2018-11-15T09:44:54Z</time>
      </trkpt>
      <trkpt lat="45.96521" lon="4.8435">
        <ele>251</ele>
        <time>2018-11-15T09:44:55Z</time>
      </trkpt>
      <trkpt lat="45.96523" lon="4.84356">
        <ele>251</ele>
        <time>2018-11-15T09:44:56Z</time>
      </trkpt>
      <trkpt lat="45.96524" lon="4.84362">
        <ele>251</ele>
        <time>2018-11-15T09:44:57Z</time>
      </trkpt>
      <trkpt lat="45.96526" lon="4.84369">
        <ele>251</ele>
        <time>2018-11-15T09:44:58Z</time>
      </trkpt>
      <trkpt lat="45.96527" lon="4.84376">
        <ele>251</ele>
        <time>2018-11-15T09:44:59Z</time>
      </trkpt>
      <trkpt lat="45.96527" lon="4.84383">
        <ele>251</ele>
        <time>2018-11-15T09:45:00Z</time>
      </trkpt>
      <trkpt lat="45.96529" lon="4.8439">
        <ele>252</ele>
        <time>2018-11-15T09:45:01Z</time>
      </trkpt>
      <trkpt lat="45.96528" lon="4.84398">
        <ele>252</ele>
        <time>2018-11-15T09:45:02Z</time>
      </trkpt>
      <trkpt lat="45.96528" lon="4.84404">
        <ele>252</ele>
        <time>2018-11-15T09:45:03Z</time>
      </trkpt>
      <trkpt lat="45.96528" lon="4.84411">
        <ele>252</ele>
        <time>2018-11-15T09:45:04Z</time>
      </trkpt>
      <trkpt lat="45.96527" lon="4.84418">
        <ele>252</ele>
        <time>2018-11-15T09:45:05Z</time>
      </trkpt>
      <trkpt lat="45.96527" lon="4.84424">
        <ele>253</ele>
        <time>2018-11-15T09:45:06Z</time>
      </trkpt>
      <trkpt lat="45.96526" lon="4.84436">
        <ele>253</ele>
        <time>2018-11-15T09:45:08Z</time>
      </trkpt>
      <trkpt lat="45.96525" lon="4.84442">
        <ele>253</ele>
        <time>2018-11-15T09:45:09Z</time>
      </trkpt>
      <trkpt lat="45.96524" lon="4.84449">
        <ele>253</ele>
        <time>2018-11-15T09:45:10Z</time>
      </trkpt>
      <trkpt lat="45.96524" lon="4.84455">
        <ele>253</ele>
        <time>2018-11-15T09:45:11Z</time>
      </trkpt>
      <trkpt lat="45.96523" lon="4.84462">
        <ele>253</ele>
        <time>2018-11-15T09:45:12Z</time>
      </trkpt>
      <trkpt lat="45.96523" lon="4.84469">
        <ele>253</ele>
        <time>2018-11-15T09:45:13Z</time>
      </trkpt>
      <trkpt lat="45.96523" lon="4.84482">
        <ele>253</ele>
        <time>2018-11-15T09:45:15Z</time>
      </trkpt>
      <trkpt lat="45.96523" lon="4.84488">
        <ele>253</ele>
        <time>2018-11-15T09:45:16Z</time>
      </trkpt>
      <trkpt lat="45.96522" lon="4.84494">
        <ele>253</ele>
        <time>2018-11-15T09:45:17Z</time>
      </trkpt>
      <trkpt lat="45.96521" lon="4.84501">
        <ele>253</ele>
        <time>2018-11-15T09:45:18Z</time>
      </trkpt>
      <trkpt lat="45.96521" lon="4.84513">
        <ele>253</ele>
        <time>2018-11-15T09:45:20Z</time>
      </trkpt>
      <trkpt lat="45.9652" lon="4.8452">
        <ele>253</ele>
        <time>2018-11-15T09:45:21Z</time>
      </trkpt>
      <trkpt lat="45.9652" lon="4.84527">
        <ele>253</ele>
        <time>2018-11-15T09:45:22Z</time>
      </trkpt>
      <trkpt lat="45.9652" lon="4.84533">
        <ele>253</ele>
        <time>2018-11-15T09:45:23Z</time>
      </trkpt>
      <trkpt lat="45.9652" lon="4.84542">
        <ele>253</ele>
        <time>2018-11-15T09:45:24Z</time>
      </trkpt>
      <trkpt lat="45.96519" lon="4.84548">
        <ele>253</ele>
        <time>2018-11-15T09:45:25Z</time>
      </trkpt>
      <trkpt lat="45.96519" lon="4.8456">
        <ele>253</ele>
        <time>2018-11-15T09:45:27Z</time>
      </trkpt>
      <trkpt lat="45.96518" lon="4.84566">
        <ele>253</ele>
        <time>2018-11-15T09:45:28Z</time>
      </trkpt>
      <trkpt lat="45.96518" lon="4.84573">
        <ele>252</ele>
        <time>2018-11-15T09:45:29Z</time>
      </trkpt>
      <trkpt lat="45.96518" lon="4.8458">
        <ele>252</ele>
        <time>2018-11-15T09:45:30Z</time>
      </trkpt>
      <trkpt lat="45.96517" lon="4.84592">
        <ele>252</ele>
        <time>2018-11-15T09:45:32Z</time>
      </trkpt>
      <trkpt lat="45.96517" lon="4.84598">
        <ele>252</ele>
        <time>2018-11-15T09:45:33Z</time>
      </trkpt>
      <trkpt lat="45.96515" lon="4.84611">
        <ele>252</ele>
        <time>2018-11-15T09:45:35Z</time>
      </trkpt>
      <trkpt lat="45.96515" lon="4.84617">
        <ele>252</ele>
        <time>2018-11-15T09:45:36Z</time>
      </trkpt>
      <trkpt lat="45.96516" lon="4.84629">
        <ele>252</ele>
        <time>2018-11-15T09:45:38Z</time>
      </trkpt>
      <trkpt lat="45.96516" lon="4.84635">
        <ele>252</ele>
        <time>2018-11-15T09:45:39Z</time>
      </trkpt>
      <trkpt lat="45.96516" lon="4.84648">
        <ele>252</ele>
        <time>2018-11-15T09:45:41Z</time>
      </trkpt>
      <trkpt lat="45.96516" lon="4.84653">
        <ele>252</ele>
        <time>2018-11-15T09:45:42Z</time>
      </trkpt>
      <trkpt lat="45.96517" lon="4.8466">
        <ele>252</ele>
        <time>2018-11-15T09:45:43Z</time>
      </trkpt>
      <trkpt lat="45.96518" lon="4.84666">
        <ele>252</ele>
        <time>2018-11-15T09:45:44Z</time>
      </trkpt>
      <trkpt lat="45.9652" lon="4.84677">
        <ele>252</ele>
        <time>2018-11-15T09:45:46Z</time>
      </trkpt>
      <trkpt lat="45.96522" lon="4.84682">
        <ele>252</ele>
        <time>2018-11-15T09:45:47Z</time>
      </trkpt>
      <trkpt lat="45.96525" lon="4.84694">
        <ele>253</ele>
        <time>2018-11-15T09:45:49Z</time>
      </trkpt>
      <trkpt lat="45.96526" lon="4.847">
        <ele>253</ele>
        <time>2018-11-15T09:45:50Z</time>
      </trkpt>
      <trkpt lat="45.96528" lon="4.84712">
        <ele>253</ele>
        <time>2018-11-15T09:45:52Z</time>
      </trkpt>
      <trkpt lat="45.96528" lon="4.84718">
        <ele>253</ele>
        <time>2018-11-15T09:45:53Z</time>
      </trkpt>
      <trkpt lat="45.96526" lon="4.8473">
        <ele>253</ele>
        <time>2018-11-15T09:45:55Z</time>
      </trkpt>
      <trkpt lat="45.96525" lon="4.84736">
        <ele>253</ele>
        <time>2018-11-15T09:45:56Z</time>
      </trkpt>
      <trkpt lat="45.96523" lon="4.84745">
        <ele>252</ele>
        <time>2018-11-15T09:45:58Z</time>
      </trkpt>
      <trkpt lat="45.96523" lon="4.84748">
        <ele>252</ele>
        <time>2018-11-15T09:45:59Z</time>
      </trkpt>
      <trkpt lat="45.96521" lon="4.84757">
        <ele>253</ele>
        <time>2018-11-15T09:46:01Z</time>
      </trkpt>
      <trkpt lat="45.96521" lon="4.84762">
        <ele>253</ele>
        <time>2018-11-15T09:46:02Z</time>
      </trkpt>
      <trkpt lat="45.96518" lon="4.84773">
        <ele>253</ele>
        <time>2018-11-15T09:46:04Z</time>
      </trkpt>
      <trkpt lat="45.96517" lon="4.84776">
        <ele>253</ele>
        <time>2018-11-15T09:46:05Z</time>
      </trkpt>
      <trkpt lat="45.96514" lon="4.84788">
        <ele>254</ele>
        <time>2018-11-15T09:46:08Z</time>
      </trkpt>
      <trkpt lat="45.96513" lon="4.84793">
        <ele>254</ele>
        <time>2018-11-15T09:46:09Z</time>
      </trkpt>
      <trkpt lat="45.96511" lon="4.84802">
        <ele>254</ele>
        <time>2018-11-15T09:46:11Z</time>
      </trkpt>
      <trkpt lat="45.9651" lon="4.84806">
        <ele>254</ele>
        <time>2018-11-15T09:46:12Z</time>
      </trkpt>
      <trkpt lat="45.96507" lon="4.84818">
        <ele>254</ele>
        <time>2018-11-15T09:46:15Z</time>
      </trkpt>
      <trkpt lat="45.96506" lon="4.84823">
        <ele>254</ele>
        <time>2018-11-15T09:46:16Z</time>
      </trkpt>
      <trkpt lat="45.96503" lon="4.84834">
        <ele>254</ele>
        <time>2018-11-15T09:46:19Z</time>
      </trkpt>
      <trkpt lat="45.96502" lon="4.84839">
        <ele>254</ele>
        <time>2018-11-15T09:46:20Z</time>
      </trkpt>
      <trkpt lat="45.965" lon="4.84846">
        <ele>254</ele>
        <time>2018-11-15T09:46:22Z</time>
      </trkpt>
      <trkpt lat="45.96499" lon="4.84851">
        <ele>254</ele>
        <time>2018-11-15T09:46:23Z</time>
      </trkpt>
      <trkpt lat="45.96497" lon="4.84859">
        <ele>254</ele>
        <time>2018-11-15T09:46:25Z</time>
      </trkpt>
      <trkpt lat="45.96496" lon="4.84863">
        <ele>255</ele>
        <time>2018-11-15T09:46:26Z</time>
      </trkpt>
      <trkpt lat="45.96493" lon="4.84875">
        <ele>255</ele>
        <time>2018-11-15T09:46:29Z</time>
      </trkpt>
      <trkpt lat="45.96493" lon="4.84879">
        <ele>255</ele>
        <time>2018-11-15T09:46:30Z</time>
      </trkpt>
      <trkpt lat="45.9649" lon="4.8489">
        <ele>256</ele>
        <time>2018-11-15T09:46:33Z</time>
      </trkpt>
      <trkpt lat="45.96489" lon="4.84894">
        <ele>256</ele>
        <time>2018-11-15T09:46:34Z</time>
      </trkpt>
      <trkpt lat="45.96487" lon="4.84906">
        <ele>256</ele>
        <time>2018-11-15T09:46:37Z</time>
      </trkpt>
      <trkpt lat="45.96486" lon="4.84909">
        <ele>256</ele>
        <time>2018-11-15T09:46:38Z</time>
      </trkpt>
      <trkpt lat="45.96484" lon="4.8492">
        <ele>259</ele>
        <time>2018-11-15T09:46:41Z</time>
      </trkpt>
      <trkpt lat="45.96483" lon="4.84923">
        <ele>259</ele>
        <time>2018-11-15T09:46:42Z</time>
      </trkpt>
      <trkpt lat="45.96481" lon="4.84934">
        <ele>260</ele>
        <time>2018-11-15T09:46:45Z</time>
      </trkpt>
      <trkpt lat="45.9648" lon="4.84937">
        <ele>260</ele>
        <time>2018-11-15T09:46:46Z</time>
      </trkpt>
      <trkpt lat="45.96478" lon="4.84948">
        <ele>260</ele>
        <time>2018-11-15T09:46:49Z</time>
      </trkpt>
      <trkpt lat="45.96477" lon="4.84952">
        <ele>261</ele>
        <time>2018-11-15T09:46:50Z</time>
      </trkpt>
      <trkpt lat="45.96474" lon="4.84962">
        <ele>261</ele>
        <time>2018-11-15T09:46:53Z</time>
      </trkpt>
      <trkpt lat="45.96473" lon="4.84965">
        <ele>261</ele>
        <time>2018-11-15T09:46:54Z</time>
      </trkpt>
      <trkpt lat="45.96471" lon="4.84974">
        <ele>262</ele>
        <time>2018-11-15T09:46:57Z</time>
      </trkpt>
      <trkpt lat="45.9647" lon="4.84978">
        <ele>262</ele>
        <time>2018-11-15T09:46:58Z</time>
      </trkpt>
      <trkpt lat="45.96469" lon="4.8499">
        <ele>262</ele>
        <time>2018-11-15T09:47:02Z</time>
      </trkpt>
      <trkpt lat="45.96469" lon="4.84992">
        <ele>262</ele>
        <time>2018-11-15T09:47:03Z</time>
      </trkpt>
      <trkpt lat="45.96467" lon="4.85003">
        <ele>266</ele>
        <time>2018-11-15T09:47:06Z</time>
      </trkpt>
      <trkpt lat="45.96466" lon="4.85007">
        <ele>266</ele>
        <time>2018-11-15T09:47:07Z</time>
      </trkpt>
      <trkpt lat="45.96465" lon="4.85017">
        <ele>266</ele>
        <time>2018-11-15T09:47:10Z</time>
      </trkpt>
      <trkpt lat="45.96465" lon="4.8502">
        <ele>266</ele>
        <time>2018-11-15T09:47:11Z</time>
      </trkpt>
      <trkpt lat="45.96465" lon="4.8503">
        <ele>266</ele>
        <time>2018-11-15T09:47:14Z</time>
      </trkpt>
      <trkpt lat="45.96465" lon="4.85033">
        <ele>266</ele>
        <time>2018-11-15T09:47:15Z</time>
      </trkpt>
      <trkpt lat="45.96465" lon="4.85046">
        <ele>266</ele>
        <time>2018-11-15T09:47:19Z</time>
      </trkpt>
      <trkpt lat="45.96465" lon="4.85049">
        <ele>266</ele>
        <time>2018-11-15T09:47:20Z</time>
      </trkpt>
      <trkpt lat="45.96466" lon="4.85061">
        <ele>266</ele>
        <time>2018-11-15T09:47:24Z</time>
      </trkpt>
      <trkpt lat="45.96466" lon="4.85064">
        <ele>266</ele>
        <time>2018-11-15T09:47:25Z</time>
      </trkpt>
      <trkpt lat="45.96465" lon="4.85074">
        <ele>266</ele>
        <time>2018-11-15T09:47:28Z</time>
      </trkpt>
      <trkpt lat="45.96465" lon="4.85077">
        <ele>266</ele>
        <time>2018-11-15T09:47:29Z</time>
      </trkpt>
      <trkpt lat="45.96465" lon="4.85088">
        <ele>268</ele>
        <time>2018-11-15T09:47:32Z</time>
      </trkpt>
      <trkpt lat="45.96465" lon="4.85091">
        <ele>268</ele>
        <time>2018-11-15T09:47:33Z</time>
      </trkpt>
      <trkpt lat="45.96464" lon="4.85101">
        <ele>268</ele>
        <time>2018-11-15T09:47:36Z</time>
      </trkpt>
      <trkpt lat="45.96464" lon="4.85105">
        <ele>268</ele>
        <time>2018-11-15T09:47:37Z</time>
      </trkpt>
      <trkpt lat="45.96463" lon="4.85115">
        <ele>268</ele>
        <time>2018-11-15T09:47:40Z</time>
      </trkpt>
      <trkpt lat="45.96462" lon="4.85119">
        <ele>268</ele>
        <time>2018-11-15T09:47:41Z</time>
      </trkpt>
      <trkpt lat="45.96461" lon="4.85131">
        <ele>268</ele>
        <time>2018-11-15T09:47:45Z</time>
      </trkpt>
      <trkpt lat="45.9646" lon="4.85135">
        <ele>268</ele>
        <time>2018-11-15T09:47:46Z</time>
      </trkpt>
      <trkpt lat="45.96457" lon="4.85146">
        <ele>268</ele>
        <time>2018-11-15T09:47:50Z</time>
      </trkpt>
      <trkpt lat="45.96457" lon="4.85149">
        <ele>268</ele>
        <time>2018-11-15T09:47:51Z</time>
      </trkpt>
      <trkpt lat="45.96454" lon="4.85161">
        <ele>268</ele>
        <time>2018-11-15T09:47:55Z</time>
      </trkpt>
      <trkpt lat="45.96454" lon="4.85166">
        <ele>268</ele>
        <time>2018-11-15T09:47:56Z</time>
      </trkpt>
      <trkpt lat="45.96453" lon="4.85177">
        <ele>269</ele>
        <time>2018-11-15T09:47:59Z</time>
      </trkpt>
      <trkpt lat="45.96452" lon="4.8518">
        <ele>269</ele>
        <time>2018-11-15T09:48:00Z</time>
      </trkpt>
      <trkpt lat="45.96451" lon="4.85191">
        <ele>269</ele>
        <time>2018-11-15T09:48:03Z</time>
      </trkpt>
      <trkpt lat="45.96451" lon="4.85194">
        <ele>269</ele>
        <time>2018-11-15T09:48:04Z</time>
      </trkpt>
      <trkpt lat="45.96451" lon="4.85206">
        <ele>269</ele>
        <time>2018-11-15T09:48:07Z</time>
      </trkpt>
      <trkpt lat="45.96451" lon="4.8521">
        <ele>269</ele>
        <time>2018-11-15T09:48:08Z</time>
      </trkpt>
      <trkpt lat="45.96451" lon="4.85222">
        <ele>269</ele>
        <time>2018-11-15T09:48:11Z</time>
      </trkpt>
      <trkpt lat="45.96451" lon="4.85226">
        <ele>269</ele>
        <time>2018-11-15T09:48:12Z</time>
      </trkpt>
      <trkpt lat="45.9645" lon="4.85238">
        <ele>269</ele>
        <time>2018-11-15T09:48:15Z</time>
      </trkpt>
      <trkpt lat="45.96451" lon="4.85242">
        <ele>269</ele>
        <time>2018-11-15T09:48:16Z</time>
      </trkpt>
      <trkpt lat="45.9645" lon="4.85251">
        <ele>270</ele>
        <time>2018-11-15T09:48:18Z</time>
      </trkpt>
      <trkpt lat="45.9645" lon="4.85256">
        <ele>270</ele>
        <time>2018-11-15T09:48:19Z</time>
      </trkpt>
      <trkpt lat="45.9645" lon="4.85266">
        <ele>270</ele>
        <time>2018-11-15T09:48:21Z</time>
      </trkpt>
      <trkpt lat="45.9645" lon="4.8527">
        <ele>270</ele>
        <time>2018-11-15T09:48:22Z</time>
      </trkpt>
      <trkpt lat="45.96451" lon="4.8528">
        <ele>270</ele>
        <time>2018-11-15T09:48:24Z</time>
      </trkpt>
      <trkpt lat="45.96451" lon="4.85285">
        <ele>270</ele>
        <time>2018-11-15T09:48:25Z</time>
      </trkpt>
      <trkpt lat="45.96451" lon="4.85295">
        <ele>270</ele>
        <time>2018-11-15T09:48:26Z</time>
      </trkpt>
      <trkpt lat="45.96452" lon="4.85298">
        <ele>270</ele>
        <time>2018-11-15T09:48:27Z</time>
      </trkpt>
      <trkpt lat="45.96452" lon="4.8531">
        <ele>271</ele>
        <time>2018-11-15T09:48:29Z</time>
      </trkpt>
      <trkpt lat="45.96452" lon="4.85315">
        <ele>271</ele>
        <time>2018-11-15T09:48:30Z</time>
      </trkpt>
      <trkpt lat="45.96453" lon="4.85327">
        <ele>271</ele>
        <time>2018-11-15T09:48:33Z</time>
      </trkpt>
      <trkpt lat="45.96454" lon="4.85331">
        <ele>271</ele>
        <time>2018-11-15T09:48:34Z</time>
      </trkpt>
      <trkpt lat="45.96454" lon="4.8534">
        <ele>272</ele>
        <time>2018-11-15T09:48:36Z</time>
      </trkpt>
      <trkpt lat="45.96455" lon="4.85344">
        <ele>272</ele>
        <time>2018-11-15T09:48:37Z</time>
      </trkpt>
      <trkpt lat="45.96455" lon="4.85353">
        <ele>272</ele>
        <time>2018-11-15T09:48:39Z</time>
      </trkpt>
      <trkpt lat="45.96456" lon="4.85357">
        <ele>272</ele>
        <time>2018-11-15T09:48:40Z</time>
      </trkpt>
      <trkpt lat="45.96456" lon="4.85367">
        <ele>272</ele>
        <time>2018-11-15T09:48:42Z</time>
      </trkpt>
      <trkpt lat="45.96456" lon="4.85371">
        <ele>272</ele>
        <time>2018-11-15T09:48:43Z</time>
      </trkpt>
      <trkpt lat="45.96457" lon="4.85382">
        <ele>272</ele>
        <time>2018-11-15T09:48:44Z</time>
      </trkpt>
      <trkpt lat="45.96457" lon="4.85387">
        <ele>272</ele>
        <time>2018-11-15T09:48:45Z</time>
      </trkpt>
      <trkpt lat="45.96458" lon="4.85397">
        <ele>272</ele>
        <time>2018-11-15T09:48:47Z</time>
      </trkpt>
      <trkpt lat="45.96459" lon="4.85403">
        <ele>272</ele>
        <time>2018-11-15T09:48:48Z</time>
      </trkpt>
      <trkpt lat="45.96459" lon="4.85413">
        <ele>272</ele>
        <time>2018-11-15T09:48:50Z</time>
      </trkpt>
      <trkpt lat="45.96459" lon="4.85419">
        <ele>272</ele>
        <time>2018-11-15T09:48:51Z</time>
      </trkpt>
      <trkpt lat="45.9646" lon="4.8543">
        <ele>272</ele>
        <time>2018-11-15T09:48:53Z</time>
      </trkpt>
      <trkpt lat="45.96461" lon="4.85435">
        <ele>272</ele>
        <time>2018-11-15T09:48:54Z</time>
      </trkpt>
      <trkpt lat="45.96461" lon="4.85447">
        <ele>272</ele>
        <time>2018-11-15T09:48:56Z</time>
      </trkpt>
      <trkpt lat="45.96462" lon="4.85453">
        <ele>272</ele>
        <time>2018-11-15T09:48:57Z</time>
      </trkpt>
      <trkpt lat="45.96462" lon="4.8546">
        <ele>272</ele>
        <time>2018-11-15T09:48:58Z</time>
      </trkpt>
      <trkpt lat="45.96462" lon="4.85466">
        <ele>272</ele>
        <time>2018-11-15T09:48:59Z</time>
      </trkpt>
      <trkpt lat="45.96463" lon="4.85474">
        <ele>272</ele>
        <time>2018-11-15T09:49:00Z</time>
      </trkpt>
      <trkpt lat="45.96463" lon="4.8548">
        <ele>272</ele>
        <time>2018-11-15T09:49:01Z</time>
      </trkpt>
      <trkpt lat="45.96463" lon="4.85491">
        <ele>272</ele>
        <time>2018-11-15T09:49:03Z</time>
      </trkpt>
      <trkpt lat="45.96463" lon="4.85496">
        <ele>272</ele>
        <time>2018-11-15T09:49:04Z</time>
      </trkpt>
      <trkpt lat="45.96464" lon="4.85509">
        <ele>272</ele>
        <time>2018-11-15T09:49:07Z</time>
      </trkpt>
      <trkpt lat="45.96465" lon="4.85518">
        <ele>272</ele>
        <time>2018-11-15T09:49:08Z</time>
      </trkpt>
      <trkpt lat="45.96465" lon="4.85529">
        <ele>272</ele>
        <time>2018-11-15T09:49:10Z</time>
      </trkpt>
      <trkpt lat="45.96465" lon="4.85535">
        <ele>272</ele>
        <time>2018-11-15T09:49:11Z</time>
      </trkpt>
      <trkpt lat="45.96466" lon="4.85545">
        <ele>272</ele>
        <time>2018-11-15T09:49:14Z</time>
      </trkpt>
      <trkpt lat="45.96466" lon="4.85554">
        <ele>272</ele>
        <time>2018-11-15T09:49:15Z</time>
      </trkpt>
      <trkpt lat="45.96466" lon="4.85564">
        <ele>272</ele>
        <time>2018-11-15T09:49:17Z</time>
      </trkpt>
      <trkpt lat="45.96466" lon="4.85568">
        <ele>271</ele>
        <time>2018-11-15T09:49:18Z</time>
      </trkpt>
      <trkpt lat="45.96466" lon="4.85579">
        <ele>271</ele>
        <time>2018-11-15T09:49:20Z</time>
      </trkpt>
      <trkpt lat="45.96467" lon="4.85585">
        <ele>271</ele>
        <time>2018-11-15T09:49:21Z</time>
      </trkpt>
      <trkpt lat="45.96468" lon="4.85596">
        <ele>271</ele>
        <time>2018-11-15T09:49:23Z</time>
      </trkpt>
      <trkpt lat="45.96468" lon="4.85601">
        <ele>271</ele>
        <time>2018-11-15T09:49:24Z</time>
      </trkpt>
      <trkpt lat="45.96469" lon="4.85612">
        <ele>271</ele>
        <time>2018-11-15T09:49:26Z</time>
      </trkpt>
      <trkpt lat="45.9647" lon="4.85618">
        <ele>271</ele>
        <time>2018-11-15T09:49:27Z</time>
      </trkpt>
      <trkpt lat="45.96471" lon="4.8563">
        <ele>271</ele>
        <time>2018-11-15T09:49:29Z</time>
      </trkpt>
      <trkpt lat="45.96472" lon="4.85636">
        <ele>271</ele>
        <time>2018-11-15T09:49:30Z</time>
      </trkpt>
      <trkpt lat="45.96474" lon="4.85647">
        <ele>271</ele>
        <time>2018-11-15T09:49:32Z</time>
      </trkpt>
      <trkpt lat="45.96474" lon="4.85653">
        <ele>271</ele>
        <time>2018-11-15T09:49:33Z</time>
      </trkpt>
      <trkpt lat="45.96475" lon="4.85661">
        <ele>271</ele>
        <time>2018-11-15T09:49:35Z</time>
      </trkpt>
      <trkpt lat="45.96476" lon="4.85668">
        <ele>272</ele>
        <time>2018-11-15T09:49:36Z</time>
      </trkpt>
      <trkpt lat="45.96477" lon="4.8568">
        <ele>272</ele>
        <time>2018-11-15T09:49:38Z</time>
      </trkpt>
      <trkpt lat="45.96478" lon="4.85685">
        <ele>272</ele>
        <time>2018-11-15T09:49:39Z</time>
      </trkpt>
      <trkpt lat="45.9648" lon="4.85697">
        <ele>272</ele>
        <time>2018-11-15T09:49:41Z</time>
      </trkpt>
      <trkpt lat="45.96481" lon="4.85703">
        <ele>272</ele>
        <time>2018-11-15T09:49:42Z</time>
      </trkpt>
      <trkpt lat="45.96483" lon="4.85715">
        <ele>272</ele>
        <time>2018-11-15T09:49:44Z</time>
      </trkpt>
      <trkpt lat="45.96483" lon="4.85721">
        <ele>272</ele>
        <time>2018-11-15T09:49:45Z</time>
      </trkpt>
      <trkpt lat="45.96485" lon="4.85733">
        <ele>273</ele>
        <time>2018-11-15T09:49:47Z</time>
      </trkpt>
      <trkpt lat="45.96486" lon="4.85738">
        <ele>273</ele>
        <time>2018-11-15T09:49:48Z</time>
      </trkpt>
      <trkpt lat="45.96487" lon="4.85748">
        <ele>273</ele>
        <time>2018-11-15T09:49:50Z</time>
      </trkpt>
      <trkpt lat="45.96488" lon="4.85752">
        <ele>274</ele>
        <time>2018-11-15T09:49:51Z</time>
      </trkpt>
      <trkpt lat="45.96489" lon="4.85763">
        <ele>274</ele>
        <time>2018-11-15T09:49:53Z</time>
      </trkpt>
      <trkpt lat="45.9649" lon="4.85769">
        <ele>274</ele>
        <time>2018-11-15T09:49:54Z</time>
      </trkpt>
      <trkpt lat="45.96491" lon="4.8578">
        <ele>274</ele>
        <time>2018-11-15T09:49:56Z</time>
      </trkpt>
      <trkpt lat="45.96491" lon="4.85786">
        <ele>274</ele>
        <time>2018-11-15T09:49:57Z</time>
      </trkpt>
      <trkpt lat="45.96493" lon="4.85797">
        <ele>274</ele>
        <time>2018-11-15T09:49:59Z</time>
      </trkpt>
      <trkpt lat="45.96493" lon="4.85803">
        <ele>274</ele>
        <time>2018-11-15T09:50:00Z</time>
      </trkpt>
      <trkpt lat="45.96494" lon="4.85814">
        <ele>274</ele>
        <time>2018-11-15T09:50:02Z</time>
      </trkpt>
      <trkpt lat="45.96495" lon="4.85819">
        <ele>274</ele>
        <time>2018-11-15T09:50:03Z</time>
      </trkpt>
      <trkpt lat="45.96496" lon="4.8583">
        <ele>275</ele>
        <time>2018-11-15T09:50:05Z</time>
      </trkpt>
      <trkpt lat="45.96497" lon="4.85835">
        <ele>275</ele>
        <time>2018-11-15T09:50:06Z</time>
      </trkpt>
      <trkpt lat="45.96498" lon="4.85846">
        <ele>274</ele>
        <time>2018-11-15T09:50:08Z</time>
      </trkpt>
      <trkpt lat="45.96499" lon="4.85851">
        <ele>274</ele>
        <time>2018-11-15T09:50:09Z</time>
      </trkpt>
      <trkpt lat="45.965" lon="4.85862">
        <ele>275</ele>
        <time>2018-11-15T09:50:11Z</time>
      </trkpt>
      <trkpt lat="45.96501" lon="4.85865">
        <ele>275</ele>
        <time>2018-11-15T09:50:12Z</time>
      </trkpt>
      <trkpt lat="45.96503" lon="4.85876">
        <ele>275</ele>
        <time>2018-11-15T09:50:14Z</time>
      </trkpt>
      <trkpt lat="45.96504" lon="4.85879">
        <ele>275</ele>
        <time>2018-11-15T09:50:15Z</time>
      </trkpt>
      <trkpt lat="45.96505" lon="4.85887">
        <ele>275</ele>
        <time>2018-11-15T09:50:17Z</time>
      </trkpt>
      <trkpt lat="45.96506" lon="4.85895">
        <ele>275</ele>
        <time>2018-11-15T09:50:18Z</time>
      </trkpt>
      <trkpt lat="45.96508" lon="4.85904">
        <ele>275</ele>
        <time>2018-11-15T09:50:20Z</time>
      </trkpt>
      <trkpt lat="45.96508" lon="4.85908">
        <ele>274</ele>
        <time>2018-11-15T09:50:21Z</time>
      </trkpt>
      <trkpt lat="45.9651" lon="4.85916">
        <ele>274</ele>
        <time>2018-11-15T09:50:22Z</time>
      </trkpt>
      <trkpt lat="45.96512" lon="4.85921">
        <ele>274</ele>
        <time>2018-11-15T09:50:23Z</time>
      </trkpt>
      <trkpt lat="45.96516" lon="4.85931">
        <ele>275</ele>
        <time>2018-11-15T09:50:25Z</time>
      </trkpt>
      <trkpt lat="45.96518" lon="4.85937">
        <ele>275</ele>
        <time>2018-11-15T09:50:26Z</time>
      </trkpt>
      <trkpt lat="45.96521" lon="4.85947">
        <ele>275</ele>
        <time>2018-11-15T09:50:28Z</time>
      </trkpt>
      <trkpt lat="45.96524" lon="4.85952">
        <ele>275</ele>
        <time>2018-11-15T09:50:29Z</time>
      </trkpt>
      <trkpt lat="45.96528" lon="4.85962">
        <ele>275</ele>
        <time>2018-11-15T09:50:31Z</time>
      </trkpt>
      <trkpt lat="45.9653" lon="4.85966">
        <ele>275</ele>
        <time>2018-11-15T09:50:32Z</time>
      </trkpt>
      <trkpt lat="45.96534" lon="4.85973">
        <ele>275</ele>
        <time>2018-11-15T09:50:34Z</time>
      </trkpt>
      <trkpt lat="45.96537" lon="4.85979">
        <ele>275</ele>
        <time>2018-11-15T09:50:35Z</time>
      </trkpt>
      <trkpt lat="45.96542" lon="4.85988">
        <ele>275</ele>
        <time>2018-11-15T09:50:38Z</time>
      </trkpt>
      <trkpt lat="45.96545" lon="4.85995">
        <ele>275</ele>
        <time>2018-11-15T09:50:39Z</time>
      </trkpt>
      <trkpt lat="45.9655" lon="4.86004">
        <ele>276</ele>
        <time>2018-11-15T09:50:42Z</time>
      </trkpt>
      <trkpt lat="45.96552" lon="4.86007">
        <ele>276</ele>
        <time>2018-11-15T09:50:43Z</time>
      </trkpt>
      <trkpt lat="45.96557" lon="4.86016">
        <ele>276</ele>
        <time>2018-11-15T09:50:45Z</time>
      </trkpt>
      <trkpt lat="45.96562" lon="4.86023">
        <ele>276</ele>
        <time>2018-11-15T09:50:46Z</time>
      </trkpt>
      <trkpt lat="45.96566" lon="4.86032">
        <ele>276</ele>
        <time>2018-11-15T09:50:49Z</time>
      </trkpt>
      <trkpt lat="45.96568" lon="4.86035">
        <ele>276</ele>
        <time>2018-11-15T09:50:50Z</time>
      </trkpt>
      <trkpt lat="45.96571" lon="4.86042">
        <ele>276</ele>
        <time>2018-11-15T09:50:52Z</time>
      </trkpt>
      <trkpt lat="45.96573" lon="4.86046">
        <ele>276</ele>
        <time>2018-11-15T09:50:53Z</time>
      </trkpt>
      <trkpt lat="45.96576" lon="4.86054">
        <ele>277</ele>
        <time>2018-11-15T09:50:55Z</time>
      </trkpt>
      <trkpt lat="45.96578" lon="4.86058">
        <ele>277</ele>
        <time>2018-11-15T09:50:56Z</time>
      </trkpt>
      <trkpt lat="45.96582" lon="4.86066">
        <ele>277</ele>
        <time>2018-11-15T09:50:58Z</time>
      </trkpt>
      <trkpt lat="45.96583" lon="4.86069">
        <ele>277</ele>
        <time>2018-11-15T09:50:59Z</time>
      </trkpt>
      <trkpt lat="45.96587" lon="4.86081">
        <ele>279</ele>
        <time>2018-11-15T09:51:01Z</time>
      </trkpt>
      <trkpt lat="45.96589" lon="4.86087">
        <ele>279</ele>
        <time>2018-11-15T09:51:02Z</time>
      </trkpt>
      <trkpt lat="45.96591" lon="4.86094">
        <ele>280</ele>
        <time>2018-11-15T09:51:04Z</time>
      </trkpt>
      <trkpt lat="45.96592" lon="4.861">
        <ele>280</ele>
        <time>2018-11-15T09:51:05Z</time>
      </trkpt>
      <trkpt lat="45.96592" lon="4.86107">
        <ele>280</ele>
        <time>2018-11-15T09:51:07Z</time>
      </trkpt>
      <trkpt lat="45.96593" lon="4.86113">
        <ele>281</ele>
        <time>2018-11-15T09:51:08Z</time>
      </trkpt>
      <trkpt lat="45.96594" lon="4.86125">
        <ele>281</ele>
        <time>2018-11-15T09:51:11Z</time>
      </trkpt>
      <trkpt lat="45.96594" lon="4.8613">
        <ele>281</ele>
        <time>2018-11-15T09:51:12Z</time>
      </trkpt>
      <trkpt lat="45.96593" lon="4.86138">
        <ele>281</ele>
        <time>2018-11-15T09:51:14Z</time>
      </trkpt>
      <trkpt lat="45.96593" lon="4.86143">
        <ele>281</ele>
        <time>2018-11-15T09:51:15Z</time>
      </trkpt>
      <trkpt lat="45.96592" lon="4.86151">
        <ele>281</ele>
        <time>2018-11-15T09:51:17Z</time>
      </trkpt>
      <trkpt lat="45.96592" lon="4.86155">
        <ele>281</ele>
        <time>2018-11-15T09:51:18Z</time>
      </trkpt>
      <trkpt lat="45.96591" lon="4.86164">
        <ele>281</ele>
        <time>2018-11-15T09:51:20Z</time>
      </trkpt>
      <trkpt lat="45.9659" lon="4.86168">
        <ele>281</ele>
        <time>2018-11-15T09:51:21Z</time>
      </trkpt>
      <trkpt lat="45.96589" lon="4.8618">
        <ele>281</ele>
        <time>2018-11-15T09:51:24Z</time>
      </trkpt>
      <trkpt lat="45.96588" lon="4.86184">
        <ele>281</ele>
        <time>2018-11-15T09:51:25Z</time>
      </trkpt>
      <trkpt lat="45.96586" lon="4.86196">
        <ele>282</ele>
        <time>2018-11-15T09:51:28Z</time>
      </trkpt>
      <trkpt lat="45.96586" lon="4.862">
        <ele>282</ele>
        <time>2018-11-15T09:51:29Z</time>
      </trkpt>
      <trkpt lat="45.96585" lon="4.86211">
        <ele>282</ele>
        <time>2018-11-15T09:51:32Z</time>
      </trkpt>
      <trkpt lat="45.96585" lon="4.86214">
        <ele>282</ele>
        <time>2018-11-15T09:51:33Z</time>
      </trkpt>
      <trkpt lat="45.96584" lon="4.86225">
        <ele>282</ele>
        <time>2018-11-15T09:51:36Z</time>
      </trkpt>
      <trkpt lat="45.96583" lon="4.86228">
        <ele>280</ele>
        <time>2018-11-15T09:51:37Z</time>
      </trkpt>
      <trkpt lat="45.96581" lon="4.86238">
        <ele>280</ele>
        <time>2018-11-15T09:51:40Z</time>
      </trkpt>
      <trkpt lat="45.96581" lon="4.86242">
        <ele>280</ele>
        <time>2018-11-15T09:51:41Z</time>
      </trkpt>
      <trkpt lat="45.9658" lon="4.86252">
        <ele>281</ele>
        <time>2018-11-15T09:51:44Z</time>
      </trkpt>
      <trkpt lat="45.9658" lon="4.86256">
        <ele>281</ele>
        <time>2018-11-15T09:51:45Z</time>
      </trkpt>
      <trkpt lat="45.96579" lon="4.86266">
        <ele>281</ele>
        <time>2018-11-15T09:51:48Z</time>
      </trkpt>
      <trkpt lat="45.96579" lon="4.86269">
        <ele>282</ele>
        <time>2018-11-15T09:51:49Z</time>
      </trkpt>
      <trkpt lat="45.96579" lon="4.86281">
        <ele>282</ele>
        <time>2018-11-15T09:51:52Z</time>
      </trkpt>
      <trkpt lat="45.96579" lon="4.86284">
        <ele>282</ele>
        <time>2018-11-15T09:51:53Z</time>
      </trkpt>
      <trkpt lat="45.96579" lon="4.86295">
        <ele>282</ele>
        <time>2018-11-15T09:51:56Z</time>
      </trkpt>
      <trkpt lat="45.96578" lon="4.86299">
        <ele>282</ele>
        <time>2018-11-15T09:51:57Z</time>
      </trkpt>
      <trkpt lat="45.96578" lon="4.86311">
        <ele>283</ele>
        <time>2018-11-15T09:52:00Z</time>
      </trkpt>
      <trkpt lat="45.96578" lon="4.86314">
        <ele>283</ele>
        <time>2018-11-15T09:52:01Z</time>
      </trkpt>
      <trkpt lat="45.96577" lon="4.86325">
        <ele>284</ele>
        <time>2018-11-15T09:52:04Z</time>
      </trkpt>
      <trkpt lat="45.96577" lon="4.86329">
        <ele>284</ele>
        <time>2018-11-15T09:52:05Z</time>
      </trkpt>
      <trkpt lat="45.96576" lon="4.86339">
        <ele>285</ele>
        <time>2018-11-15T09:52:08Z</time>
      </trkpt>
      <trkpt lat="45.96576" lon="4.86342">
        <ele>285</ele>
        <time>2018-11-15T09:52:09Z</time>
      </trkpt>
      <trkpt lat="45.96575" lon="4.86355">
        <ele>285</ele>
        <time>2018-11-15T09:52:12Z</time>
      </trkpt>
      <trkpt lat="45.96575" lon="4.8636">
        <ele>285</ele>
        <time>2018-11-15T09:52:13Z</time>
      </trkpt>
      <trkpt lat="45.96575" lon="4.86369">
        <ele>286</ele>
        <time>2018-11-15T09:52:15Z</time>
      </trkpt>
      <trkpt lat="45.96575" lon="4.86373">
        <ele>286</ele>
        <time>2018-11-15T09:52:16Z</time>
      </trkpt>
      <trkpt lat="45.96574" lon="4.86383">
        <ele>286</ele>
        <time>2018-11-15T09:52:18Z</time>
      </trkpt>
      <trkpt lat="45.96574" lon="4.86387">
        <ele>287</ele>
        <time>2018-11-15T09:52:19Z</time>
      </trkpt>
      <trkpt lat="45.96574" lon="4.86395">
        <ele>287</ele>
        <time>2018-11-15T09:52:21Z</time>
      </trkpt>
      <trkpt lat="45.96574" lon="4.864">
        <ele>287</ele>
        <time>2018-11-15T09:52:22Z</time>
      </trkpt>
      <trkpt lat="45.96574" lon="4.86412">
        <ele>288</ele>
        <time>2018-11-15T09:52:25Z</time>
      </trkpt>
      <trkpt lat="45.96574" lon="4.86415">
        <ele>288</ele>
        <time>2018-11-15T09:52:26Z</time>
      </trkpt>
      <trkpt lat="45.96574" lon="4.86427">
        <ele>289</ele>
        <time>2018-11-15T09:52:29Z</time>
      </trkpt>
      <trkpt lat="45.96574" lon="4.86431">
        <ele>289</ele>
        <time>2018-11-15T09:52:30Z</time>
      </trkpt>
      <trkpt lat="45.96574" lon="4.86443">
        <ele>289</ele>
        <time>2018-11-15T09:52:33Z</time>
      </trkpt>
      <trkpt lat="45.96574" lon="4.86446">
        <ele>289</ele>
        <time>2018-11-15T09:52:34Z</time>
      </trkpt>
      <trkpt lat="45.96575" lon="4.86458">
        <ele>289</ele>
        <time>2018-11-15T09:52:37Z</time>
      </trkpt>
      <trkpt lat="45.96575" lon="4.86461">
        <ele>289</ele>
        <time>2018-11-15T09:52:38Z</time>
      </trkpt>
      <trkpt lat="45.96577" lon="4.86474">
        <ele>290</ele>
        <time>2018-11-15T09:52:41Z</time>
      </trkpt>
      <trkpt lat="45.96578" lon="4.86477">
        <ele>290</ele>
        <time>2018-11-15T09:52:42Z</time>
      </trkpt>
      <trkpt lat="45.9658" lon="4.86486">
        <ele>290</ele>
        <time>2018-11-15T09:52:44Z</time>
      </trkpt>
      <trkpt lat="45.96581" lon="4.86489">
        <ele>291</ele>
        <time>2018-11-15T09:52:45Z</time>
      </trkpt>
      <trkpt lat="45.96584" lon="4.86497">
        <ele>292</ele>
        <time>2018-11-15T09:52:47Z</time>
      </trkpt>
      <trkpt lat="45.96589" lon="4.86505">
        <ele>292</ele>
        <time>2018-11-15T09:52:48Z</time>
      </trkpt>
      <trkpt lat="45.96595" lon="4.86512">
        <ele>291</ele>
        <time>2018-11-15T09:52:50Z</time>
      </trkpt>
      <trkpt lat="45.96599" lon="4.86515">
        <ele>291</ele>
        <time>2018-11-15T09:52:51Z</time>
      </trkpt>
      <trkpt lat="45.96606" lon="4.86521">
        <ele>291</ele>
        <time>2018-11-15T09:52:53Z</time>
      </trkpt>
      <trkpt lat="45.96608" lon="4.86523">
        <ele>291</ele>
        <time>2018-11-15T09:52:54Z</time>
      </trkpt>
      <trkpt lat="45.96615" lon="4.86529">
        <ele>291</ele>
        <time>2018-11-15T09:52:57Z</time>
      </trkpt>
      <trkpt lat="45.96618" lon="4.86531">
        <ele>291</ele>
        <time>2018-11-15T09:52:58Z</time>
      </trkpt>
      <trkpt lat="45.9662" lon="4.86533">
        <ele>291</ele>
        <time>2018-11-15T09:52:59Z</time>
      </trkpt>
      <trkpt lat="45.96626" lon="4.86539">
        <ele>291</ele>
        <time>2018-11-15T09:53:00Z</time>
      </trkpt>
      <trkpt lat="45.96633" lon="4.86545">
        <ele>291</ele>
        <time>2018-11-15T09:53:02Z</time>
      </trkpt>
      <trkpt lat="45.96636" lon="4.86548">
        <ele>291</ele>
        <time>2018-11-15T09:53:03Z</time>
      </trkpt>
      <trkpt lat="45.96643" lon="4.86554">
        <ele>291</ele>
        <time>2018-11-15T09:53:05Z</time>
      </trkpt>
      <trkpt lat="45.96646" lon="4.86557">
        <ele>291</ele>
        <time>2018-11-15T09:53:06Z</time>
      </trkpt>
      <trkpt lat="45.96652" lon="4.86563">
        <ele>290</ele>
        <time>2018-11-15T09:53:08Z</time>
      </trkpt>
      <trkpt lat="45.96655" lon="4.86566">
        <ele>290</ele>
        <time>2018-11-15T09:53:09Z</time>
      </trkpt>
      <trkpt lat="45.9666" lon="4.86571">
        <ele>290</ele>
        <time>2018-11-15T09:53:11Z</time>
      </trkpt>
      <trkpt lat="45.96663" lon="4.86574">
        <ele>290</ele>
        <time>2018-11-15T09:53:12Z</time>
      </trkpt>
      <trkpt lat="45.9667" lon="4.86581">
        <ele>290</ele>
        <time>2018-11-15T09:53:14Z</time>
      </trkpt>
      <trkpt lat="45.96673" lon="4.86584">
        <ele>290</ele>
        <time>2018-11-15T09:53:15Z</time>
      </trkpt>
      <trkpt lat="45.9668" lon="4.8659">
        <ele>290</ele>
        <time>2018-11-15T09:53:17Z</time>
      </trkpt>
      <trkpt lat="45.96683" lon="4.86593">
        <ele>290</ele>
        <time>2018-11-15T09:53:18Z</time>
      </trkpt>
      <trkpt lat="45.9669" lon="4.86599">
        <ele>290</ele>
        <time>2018-11-15T09:53:20Z</time>
      </trkpt>
      <trkpt lat="45.96694" lon="4.86601">
        <ele>290</ele>
        <time>2018-11-15T09:53:21Z</time>
      </trkpt>
      <trkpt lat="45.96701" lon="4.86608">
        <ele>290</ele>
        <time>2018-11-15T09:53:23Z</time>
      </trkpt>
      <trkpt lat="45.96705" lon="4.86611">
        <ele>290</ele>
        <time>2018-11-15T09:53:24Z</time>
      </trkpt>
      <trkpt lat="45.96712" lon="4.86617">
        <ele>290</ele>
        <time>2018-11-15T09:53:26Z</time>
      </trkpt>
      <trkpt lat="45.96716" lon="4.8662">
        <ele>290</ele>
        <time>2018-11-15T09:53:27Z</time>
      </trkpt>
      <trkpt lat="45.96721" lon="4.86622">
        <ele>290</ele>
        <time>2018-11-15T09:53:28Z</time>
      </trkpt>
      <trkpt lat="45.96725" lon="4.86625">
        <ele>290</ele>
        <time>2018-11-15T09:53:29Z</time>
      </trkpt>
      <trkpt lat="45.96729" lon="4.86628">
        <ele>290</ele>
        <time>2018-11-15T09:53:30Z</time>
      </trkpt>
      <trkpt lat="45.96734" lon="4.8663">
        <ele>290</ele>
        <time>2018-11-15T09:53:31Z</time>
      </trkpt>
      <trkpt lat="45.96741" lon="4.86636">
        <ele>290</ele>
        <time>2018-11-15T09:53:33Z</time>
      </trkpt>
      <trkpt lat="45.96744" lon="4.86642">
        <ele>290</ele>
        <time>2018-11-15T09:53:34Z</time>
      </trkpt>
      <trkpt lat="45.96744" lon="4.86649">
        <ele>290</ele>
        <time>2018-11-15T09:53:35Z</time>
      </trkpt>
      <trkpt lat="45.96741" lon="4.86657">
        <ele>290</ele>
        <time>2018-11-15T09:53:36Z</time>
      </trkpt>
      <trkpt lat="45.96737" lon="4.86667">
        <ele>290</ele>
        <time>2018-11-15T09:53:38Z</time>
      </trkpt>
      <trkpt lat="45.96734" lon="4.86672">
        <ele>290</ele>
        <time>2018-11-15T09:53:39Z</time>
      </trkpt>
      <trkpt lat="45.96731" lon="4.86677">
        <ele>290</ele>
        <time>2018-11-15T09:53:40Z</time>
      </trkpt>
      <trkpt lat="45.96728" lon="4.86682">
        <ele>289</ele>
        <time>2018-11-15T09:53:41Z</time>
      </trkpt>
      <trkpt lat="45.96723" lon="4.86691">
        <ele>289</ele>
        <time>2018-11-15T09:53:43Z</time>
      </trkpt>
      <trkpt lat="45.9672" lon="4.86696">
        <ele>289</ele>
        <time>2018-11-15T09:53:44Z</time>
      </trkpt>
      <trkpt lat="45.96714" lon="4.86704">
        <ele>289</ele>
        <time>2018-11-15T09:53:46Z</time>
      </trkpt>
      <trkpt lat="45.96711" lon="4.86708">
        <ele>289</ele>
        <time>2018-11-15T09:53:47Z</time>
      </trkpt>
      <trkpt lat="45.96705" lon="4.86717">
        <ele>289</ele>
        <time>2018-11-15T09:53:49Z</time>
      </trkpt>
      <trkpt lat="45.96703" lon="4.86721">
        <ele>289</ele>
        <time>2018-11-15T09:53:50Z</time>
      </trkpt>
      <trkpt lat="45.96697" lon="4.8673">
        <ele>289</ele>
        <time>2018-11-15T09:53:52Z</time>
      </trkpt>
      <trkpt lat="45.96693" lon="4.86736">
        <ele>289</ele>
        <time>2018-11-15T09:53:53Z</time>
      </trkpt>
      <trkpt lat="45.96689" lon="4.86742">
        <ele>289</ele>
        <time>2018-11-15T09:53:54Z</time>
      </trkpt>
      <trkpt lat="45.96686" lon="4.86748">
        <ele>289</ele>
        <time>2018-11-15T09:53:55Z</time>
      </trkpt>
      <trkpt lat="45.96683" lon="4.86753">
        <ele>289</ele>
        <time>2018-11-15T09:53:56Z</time>
      </trkpt>
      <trkpt lat="45.96679" lon="4.86758">
        <ele>289</ele>
        <time>2018-11-15T09:53:57Z</time>
      </trkpt>
      <trkpt lat="45.96676" lon="4.86763">
        <ele>289</ele>
        <time>2018-11-15T09:53:58Z</time>
      </trkpt>
      <trkpt lat="45.96674" lon="4.86769">
        <ele>289</ele>
        <time>2018-11-15T09:53:59Z</time>
      </trkpt>
      <trkpt lat="45.96667" lon="4.86777">
        <ele>289</ele>
        <time>2018-11-15T09:54:01Z</time>
      </trkpt>
      <trkpt lat="45.96664" lon="4.86782">
        <ele>288</ele>
        <time>2018-11-15T09:54:02Z</time>
      </trkpt>
      <trkpt lat="45.96659" lon="4.86791">
        <ele>288</ele>
        <time>2018-11-15T09:54:04Z</time>
      </trkpt>
      <trkpt lat="45.96655" lon="4.86796">
        <ele>288</ele>
        <time>2018-11-15T09:54:05Z</time>
      </trkpt>
      <trkpt lat="45.96652" lon="4.86801">
        <ele>288</ele>
        <time>2018-11-15T09:54:06Z</time>
      </trkpt>
      <trkpt lat="45.96648" lon="4.86807">
        <ele>288</ele>
        <time>2018-11-15T09:54:07Z</time>
      </trkpt>
      <trkpt lat="45.96646" lon="4.86813">
        <ele>288</ele>
        <time>2018-11-15T09:54:08Z</time>
      </trkpt>
      <trkpt lat="45.96642" lon="4.86818">
        <ele>288</ele>
        <time>2018-11-15T09:54:09Z</time>
      </trkpt>
      <trkpt lat="45.96639" lon="4.86823">
        <ele>288</ele>
        <time>2018-11-15T09:54:10Z</time>
      </trkpt>
      <trkpt lat="45.96635" lon="4.8683">
        <ele>288</ele>
        <time>2018-11-15T09:54:11Z</time>
      </trkpt>
      <trkpt lat="45.96631" lon="4.86835">
        <ele>287</ele>
        <time>2018-11-15T09:54:12Z</time>
      </trkpt>
      <trkpt lat="45.96628" lon="4.86841">
        <ele>287</ele>
        <time>2018-11-15T09:54:13Z</time>
      </trkpt>
      <trkpt lat="45.96624" lon="4.86846">
        <ele>287</ele>
        <time>2018-11-15T09:54:14Z</time>
      </trkpt>
      <trkpt lat="45.96621" lon="4.86851">
        <ele>287</ele>
        <time>2018-11-15T09:54:15Z</time>
      </trkpt>
      <trkpt lat="45.96618" lon="4.86857">
        <ele>287</ele>
        <time>2018-11-15T09:54:16Z</time>
      </trkpt>
      <trkpt lat="45.96615" lon="4.86864">
        <ele>287</ele>
        <time>2018-11-15T09:54:17Z</time>
      </trkpt>
      <trkpt lat="45.96612" lon="4.8687">
        <ele>287</ele>
        <time>2018-11-15T09:54:18Z</time>
      </trkpt>
      <trkpt lat="45.96609" lon="4.86876">
        <ele>287</ele>
        <time>2018-11-15T09:54:19Z</time>
      </trkpt>
      <trkpt lat="45.96605" lon="4.86882">
        <ele>287</ele>
        <time>2018-11-15T09:54:20Z</time>
      </trkpt>
      <trkpt lat="45.96603" lon="4.86888">
        <ele>287</ele>
        <time>2018-11-15T09:54:21Z</time>
      </trkpt>
      <trkpt lat="45.96599" lon="4.86894">
        <ele>286</ele>
        <time>2018-11-15T09:54:22Z</time>
      </trkpt>
      <trkpt lat="45.96597" lon="4.869">
        <ele>286</ele>
        <time>2018-11-15T09:54:23Z</time>
      </trkpt>
      <trkpt lat="45.96594" lon="4.86906">
        <ele>286</ele>
        <time>2018-11-15T09:54:24Z</time>
      </trkpt>
      <trkpt lat="45.96591" lon="4.86912">
        <ele>286</ele>
        <time>2018-11-15T09:54:25Z</time>
      </trkpt>
      <trkpt lat="45.96587" lon="4.86917">
        <ele>285</ele>
        <time>2018-11-15T09:54:26Z</time>
      </trkpt>
      <trkpt lat="45.96584" lon="4.86922">
        <ele>285</ele>
        <time>2018-11-15T09:54:27Z</time>
      </trkpt>
      <trkpt lat="45.96581" lon="4.86927">
        <ele>284</ele>
        <time>2018-11-15T09:54:28Z</time>
      </trkpt>
      <trkpt lat="45.96578" lon="4.86933">
        <ele>284</ele>
        <time>2018-11-15T09:54:29Z</time>
      </trkpt>
      <trkpt lat="45.96576" lon="4.86941">
        <ele>284</ele>
        <time>2018-11-15T09:54:30Z</time>
      </trkpt>
      <trkpt lat="45.96571" lon="4.86945">
        <ele>284</ele>
        <time>2018-11-15T09:54:31Z</time>
      </trkpt>
      <trkpt lat="45.96567" lon="4.86951">
        <ele>284</ele>
        <time>2018-11-15T09:54:32Z</time>
      </trkpt>
      <trkpt lat="45.96563" lon="4.86957">
        <ele>283</ele>
        <time>2018-11-15T09:54:33Z</time>
      </trkpt>
      <trkpt lat="45.96558" lon="4.86962">
        <ele>283</ele>
        <time>2018-11-15T09:54:34Z</time>
      </trkpt>
      <trkpt lat="45.96556" lon="4.86967">
        <ele>283</ele>
        <time>2018-11-15T09:54:35Z</time>
      </trkpt>
      <trkpt lat="45.96553" lon="4.86972">
        <ele>283</ele>
        <time>2018-11-15T09:54:36Z</time>
      </trkpt>
      <trkpt lat="45.9655" lon="4.86977">
        <ele>283</ele>
        <time>2018-11-15T09:54:37Z</time>
      </trkpt>
      <trkpt lat="45.96546" lon="4.86985">
        <ele>283</ele>
        <time>2018-11-15T09:54:40Z</time>
      </trkpt>
      <trkpt lat="45.96544" lon="4.86988">
        <ele>283</ele>
        <time>2018-11-15T09:54:41Z</time>
      </trkpt>
      <trkpt lat="45.96542" lon="4.86993">
        <ele>283</ele>
        <time>2018-11-15T09:54:43Z</time>
      </trkpt>
      <trkpt lat="45.96541" lon="4.87005">
        <ele>283</ele>
        <time>2018-11-15T09:54:44Z</time>
      </trkpt>
      <trkpt lat="45.96544" lon="4.87016">
        <ele>283</ele>
        <time>2018-11-15T09:54:48Z</time>
      </trkpt>
      <trkpt lat="45.96545" lon="4.87019">
        <ele>283</ele>
        <time>2018-11-15T09:54:49Z</time>
      </trkpt>
      <trkpt lat="45.9655" lon="4.87027">
        <ele>283</ele>
        <time>2018-11-15T09:54:51Z</time>
      </trkpt>
      <trkpt lat="45.96552" lon="4.8703">
        <ele>283</ele>
        <time>2018-11-15T09:54:52Z</time>
      </trkpt>
      <trkpt lat="45.96556" lon="4.87037">
        <ele>283</ele>
        <time>2018-11-15T09:54:53Z</time>
      </trkpt>
      <trkpt lat="45.96558" lon="4.87042">
        <ele>283</ele>
        <time>2018-11-15T09:54:54Z</time>
      </trkpt>
      <trkpt lat="45.96561" lon="4.87053">
        <ele>283</ele>
        <time>2018-11-15T09:54:57Z</time>
      </trkpt>
      <trkpt lat="45.96561" lon="4.87058">
        <ele>283</ele>
        <time>2018-11-15T09:54:58Z</time>
      </trkpt>
      <trkpt lat="45.9656" lon="4.8707">
        <ele>283</ele>
        <time>2018-11-15T09:55:02Z</time>
      </trkpt>
      <trkpt lat="45.96558" lon="4.87072">
        <ele>283</ele>
        <time>2018-11-15T09:55:03Z</time>
      </trkpt>
      <trkpt lat="45.9655" lon="4.87074">
        <ele>283</ele>
        <time>2018-11-15T09:55:07Z</time>
      </trkpt>
      <trkpt lat="45.96547" lon="4.87073">
        <ele>283</ele>
        <time>2018-11-15T09:55:08Z</time>
      </trkpt>
      <trkpt lat="45.96541" lon="4.87068">
        <ele>283</ele>
        <time>2018-11-15T09:55:11Z</time>
      </trkpt>
      <trkpt lat="45.96537" lon="4.87058">
        <ele>283</ele>
        <time>2018-11-15T09:55:12Z</time>
      </trkpt>
      <trkpt lat="45.96538" lon="4.87047">
        <ele>283</ele>
        <time>2018-11-15T09:55:15Z</time>
      </trkpt>
      <trkpt lat="45.96538" lon="4.87043">
        <ele>283</ele>
        <time>2018-11-15T09:55:16Z</time>
      </trkpt>
      <trkpt lat="45.96536" lon="4.87031">
        <ele>283</ele>
        <time>2018-11-15T09:55:20Z</time>
      </trkpt>
      <trkpt lat="45.96536" lon="4.8703">
        <ele>283</ele>
        <time>2018-11-15T09:55:21Z</time>
      </trkpt>
      <trkpt lat="45.96531" lon="4.87028">
        <ele>283</ele>
        <time>2018-11-15T09:58:52Z</time>
      </trkpt>
      <trkpt lat="45.96531" lon="4.87028">
        <ele>283</ele>
        <time>2018-11-15T09:58:53Z</time>
      </trkpt>
      <trkpt lat="45.96531" lon="4.87028">
        <ele>283</ele>
        <time>2018-11-15T09:58:54Z</time>
      </trkpt>
      <trkpt lat="45.96531" lon="4.87029">
        <ele>283</ele>
        <time>2018-11-15T09:58:55Z</time>
      </trkpt>
      <trkpt lat="45.96531" lon="4.8703">
        <ele>283</ele>
        <time>2018-11-15T10:03:39Z</time>
      </trkpt>
      <trkpt lat="45.96531" lon="4.8703">
        <ele>283</ele>
        <time>2018-11-15T10:03:40Z</time>
      </trkpt>
      <trkpt lat="45.96535" lon="4.87022">
        <ele>283</ele>
        <time>2018-11-15T10:07:20Z</time>
      </trkpt>
      <trkpt lat="45.96536" lon="4.87019">
        <ele>283</ele>
        <time>2018-11-15T10:07:21Z</time>
      </trkpt>
      <trkpt lat="45.96539" lon="4.87009">
        <ele>283</ele>
        <time>2018-11-15T10:07:24Z</time>
      </trkpt>
      <trkpt lat="45.96539" lon="4.87006">
        <ele>283</ele>
        <time>2018-11-15T10:07:25Z</time>
      </trkpt>
      <trkpt lat="45.96539" lon="4.86995">
        <ele>283</ele>
        <time>2018-11-15T10:07:28Z</time>
      </trkpt>
      <trkpt lat="45.96539" lon="4.86991">
        <ele>283</ele>
        <time>2018-11-15T10:07:29Z</time>
      </trkpt>
      <trkpt lat="45.96547" lon="4.86985">
        <ele>283</ele>
        <time>2018-11-15T10:07:33Z</time>
      </trkpt>
      <trkpt lat="45.96551" lon="4.86985">
        <ele>283</ele>
        <time>2018-11-15T10:07:34Z</time>
      </trkpt>
      <trkpt lat="45.96557" lon="4.86986">
        <ele>284</ele>
        <time>2018-11-15T10:07:36Z</time>
      </trkpt>
      <trkpt lat="45.9656" lon="4.86986">
        <ele>284</ele>
        <time>2018-11-15T10:07:37Z</time>
      </trkpt>
      <trkpt lat="45.96568" lon="4.86987">
        <ele>284</ele>
        <time>2018-11-15T10:07:39Z</time>
      </trkpt>
      <trkpt lat="45.96571" lon="4.86987">
        <ele>284</ele>
        <time>2018-11-15T10:07:40Z</time>
      </trkpt>
      <trkpt lat="45.9658" lon="4.86989">
        <ele>284</ele>
        <time>2018-11-15T10:07:41Z</time>
      </trkpt>
      <trkpt lat="45.96588" lon="4.86989">
        <ele>285</ele>
        <time>2018-11-15T10:07:43Z</time>
      </trkpt>
      <trkpt lat="45.9659" lon="4.86989">
        <ele>285</ele>
        <time>2018-11-15T10:07:44Z</time>
      </trkpt>
      <trkpt lat="45.96599" lon="4.86988">
        <ele>286</ele>
        <time>2018-11-15T10:07:47Z</time>
      </trkpt>
      <trkpt lat="45.96602" lon="4.86987">
        <ele>286</ele>
        <time>2018-11-15T10:07:48Z</time>
      </trkpt>
      <trkpt lat="45.96609" lon="4.86986">
        <ele>286</ele>
        <time>2018-11-15T10:07:50Z</time>
      </trkpt>
      <trkpt lat="45.96614" lon="4.86985">
        <ele>286</ele>
        <time>2018-11-15T10:07:51Z</time>
      </trkpt>
      <trkpt lat="45.96621" lon="4.86983">
        <ele>286</ele>
        <time>2018-11-15T10:07:53Z</time>
      </trkpt>
      <trkpt lat="45.96624" lon="4.86983">
        <ele>286</ele>
        <time>2018-11-15T10:07:54Z</time>
      </trkpt>
      <trkpt lat="45.9663" lon="4.86982">
        <ele>286</ele>
        <time>2018-11-15T10:07:56Z</time>
      </trkpt>
      <trkpt lat="45.96634" lon="4.86981">
        <ele>286</ele>
        <time>2018-11-15T10:07:57Z</time>
      </trkpt>
      <trkpt lat="45.9664" lon="4.86981">
        <ele>286</ele>
        <time>2018-11-15T10:07:59Z</time>
      </trkpt>
      <trkpt lat="45.96644" lon="4.86982">
        <ele>286</ele>
        <time>2018-11-15T10:08:00Z</time>
      </trkpt>
      <trkpt lat="45.9665" lon="4.86984">
        <ele>287</ele>
        <time>2018-11-15T10:08:02Z</time>
      </trkpt>
      <trkpt lat="45.96653" lon="4.86987">
        <ele>287</ele>
        <time>2018-11-15T10:08:03Z</time>
      </trkpt>
      <trkpt lat="45.96659" lon="4.86994">
        <ele>287</ele>
        <time>2018-11-15T10:08:05Z</time>
      </trkpt>
      <trkpt lat="45.96661" lon="4.86997">
        <ele>287</ele>
        <time>2018-11-15T10:08:06Z</time>
      </trkpt>
      <trkpt lat="45.96665" lon="4.87006">
        <ele>287</ele>
        <time>2018-11-15T10:08:08Z</time>
      </trkpt>
      <trkpt lat="45.96667" lon="4.8701">
        <ele>287</ele>
        <time>2018-11-15T10:08:09Z</time>
      </trkpt>
      <trkpt lat="45.96672" lon="4.87018">
        <ele>287</ele>
        <time>2018-11-15T10:08:10Z</time>
      </trkpt>
      <trkpt lat="45.96675" lon="4.87022">
        <ele>287</ele>
        <time>2018-11-15T10:08:11Z</time>
      </trkpt>
      <trkpt lat="45.9668" lon="4.87028">
        <ele>287</ele>
        <time>2018-11-15T10:08:13Z</time>
      </trkpt>
      <trkpt lat="45.96684" lon="4.87032">
        <ele>287</ele>
        <time>2018-11-15T10:08:14Z</time>
      </trkpt>
      <trkpt lat="45.96691" lon="4.87037">
        <ele>287</ele>
        <time>2018-11-15T10:08:16Z</time>
      </trkpt>
      <trkpt lat="45.96695" lon="4.8704">
        <ele>287</ele>
        <time>2018-11-15T10:08:17Z</time>
      </trkpt>
      <trkpt lat="45.96702" lon="4.87046">
        <ele>287</ele>
        <time>2018-11-15T10:08:19Z</time>
      </trkpt>
      <trkpt lat="45.96706" lon="4.87049">
        <ele>287</ele>
        <time>2018-11-15T10:08:20Z</time>
      </trkpt>
      <trkpt lat="45.96714" lon="4.87054">
        <ele>287</ele>
        <time>2018-11-15T10:08:22Z</time>
      </trkpt>
      <trkpt lat="45.96717" lon="4.87056">
        <ele>287</ele>
        <time>2018-11-15T10:08:23Z</time>
      </trkpt>
      <trkpt lat="45.96722" lon="4.87059">
        <ele>287</ele>
        <time>2018-11-15T10:08:24Z</time>
      </trkpt>
      <trkpt lat="45.96726" lon="4.87061">
        <ele>287</ele>
        <time>2018-11-15T10:08:25Z</time>
      </trkpt>
      <trkpt lat="45.9673" lon="4.87064">
        <ele>287</ele>
        <time>2018-11-15T10:08:26Z</time>
      </trkpt>
      <trkpt lat="45.96735" lon="4.87067">
        <ele>287</ele>
        <time>2018-11-15T10:08:27Z</time>
      </trkpt>
      <trkpt lat="45.96739" lon="4.87071">
        <ele>287</ele>
        <time>2018-11-15T10:08:28Z</time>
      </trkpt>
      <trkpt lat="45.96743" lon="4.87075">
        <ele>287</ele>
        <time>2018-11-15T10:08:29Z</time>
      </trkpt>
      <trkpt lat="45.96746" lon="4.87079">
        <ele>287</ele>
        <time>2018-11-15T10:08:30Z</time>
      </trkpt>
      <trkpt lat="45.9675" lon="4.87083">
        <ele>287</ele>
        <time>2018-11-15T10:08:31Z</time>
      </trkpt>
      <trkpt lat="45.96755" lon="4.8709">
        <ele>287</ele>
        <time>2018-11-15T10:08:33Z</time>
      </trkpt>
      <trkpt lat="45.96759" lon="4.87093">
        <ele>287</ele>
        <time>2018-11-15T10:08:34Z</time>
      </trkpt>
      <trkpt lat="45.96765" lon="4.87102">
        <ele>287</ele>
        <time>2018-11-15T10:08:36Z</time>
      </trkpt>
      <trkpt lat="45.96767" lon="4.87106">
        <ele>286</ele>
        <time>2018-11-15T10:08:37Z</time>
      </trkpt>
      <trkpt lat="45.9677" lon="4.87111">
        <ele>286</ele>
        <time>2018-11-15T10:08:38Z</time>
      </trkpt>
      <trkpt lat="45.96773" lon="4.87117">
        <ele>286</ele>
        <time>2018-11-15T10:08:39Z</time>
      </trkpt>
      <trkpt lat="45.96776" lon="4.87122">
        <ele>286</ele>
        <time>2018-11-15T10:08:40Z</time>
      </trkpt>
      <trkpt lat="45.96779" lon="4.87128">
        <ele>286</ele>
        <time>2018-11-15T10:08:41Z</time>
      </trkpt>
      <trkpt lat="45.96782" lon="4.87133">
        <ele>286</ele>
        <time>2018-11-15T10:08:42Z</time>
      </trkpt>
      <trkpt lat="45.96785" lon="4.87137">
        <ele>286</ele>
        <time>2018-11-15T10:08:43Z</time>
      </trkpt>
      <trkpt lat="45.96792" lon="4.87144">
        <ele>286</ele>
        <time>2018-11-15T10:08:45Z</time>
      </trkpt>
      <trkpt lat="45.96796" lon="4.87144">
        <ele>286</ele>
        <time>2018-11-15T10:08:46Z</time>
      </trkpt>
      <trkpt lat="45.96802" lon="4.87138">
        <ele>286</ele>
        <time>2018-11-15T10:08:49Z</time>
      </trkpt>
      <trkpt lat="45.96805" lon="4.8713">
        <ele>286</ele>
        <time>2018-11-15T10:08:50Z</time>
      </trkpt>
      <trkpt lat="45.96807" lon="4.8712">
        <ele>286</ele>
        <time>2018-11-15T10:08:52Z</time>
      </trkpt>
      <trkpt lat="45.96808" lon="4.87115">
        <ele>286</ele>
        <time>2018-11-15T10:08:53Z</time>
      </trkpt>
      <trkpt lat="45.96812" lon="4.87105">
        <ele>286</ele>
        <time>2018-11-15T10:08:55Z</time>
      </trkpt>
      <trkpt lat="45.96814" lon="4.87099">
        <ele>287</ele>
        <time>2018-11-15T10:08:56Z</time>
      </trkpt>
      <trkpt lat="45.96817" lon="4.87088">
        <ele>287</ele>
        <time>2018-11-15T10:08:58Z</time>
      </trkpt>
      <trkpt lat="45.96819" lon="4.87083">
        <ele>287</ele>
        <time>2018-11-15T10:08:59Z</time>
      </trkpt>
      <trkpt lat="45.96823" lon="4.87072">
        <ele>287</ele>
        <time>2018-11-15T10:09:01Z</time>
      </trkpt>
      <trkpt lat="45.96825" lon="4.87066">
        <ele>287</ele>
        <time>2018-11-15T10:09:02Z</time>
      </trkpt>
      <trkpt lat="45.96828" lon="4.87055">
        <ele>287</ele>
        <time>2018-11-15T10:09:04Z</time>
      </trkpt>
      <trkpt lat="45.9683" lon="4.87049">
        <ele>287</ele>
        <time>2018-11-15T10:09:05Z</time>
      </trkpt>
      <trkpt lat="45.96833" lon="4.87039">
        <ele>288</ele>
        <time>2018-11-15T10:09:07Z</time>
      </trkpt>
      <trkpt lat="45.96834" lon="4.87033">
        <ele>287</ele>
        <time>2018-11-15T10:09:08Z</time>
      </trkpt>
      <trkpt lat="45.96837" lon="4.87023">
        <ele>287</ele>
        <time>2018-11-15T10:09:10Z</time>
      </trkpt>
      <trkpt lat="45.96839" lon="4.87018">
        <ele>287</ele>
        <time>2018-11-15T10:09:11Z</time>
      </trkpt>
      <trkpt lat="45.96843" lon="4.87008">
        <ele>288</ele>
        <time>2018-11-15T10:09:13Z</time>
      </trkpt>
      <trkpt lat="45.96844" lon="4.87003">
        <ele>288</ele>
        <time>2018-11-15T10:09:14Z</time>
      </trkpt>
      <trkpt lat="45.96848" lon="4.86992">
        <ele>288</ele>
        <time>2018-11-15T10:09:16Z</time>
      </trkpt>
      <trkpt lat="45.9685" lon="4.86987">
        <ele>288</ele>
        <time>2018-11-15T10:09:17Z</time>
      </trkpt>
      <trkpt lat="45.96854" lon="4.86976">
        <ele>288</ele>
        <time>2018-11-15T10:09:19Z</time>
      </trkpt>
      <trkpt lat="45.96856" lon="4.86971">
        <ele>288</ele>
        <time>2018-11-15T10:09:20Z</time>
      </trkpt>
      <trkpt lat="45.9686" lon="4.8696">
        <ele>288</ele>
        <time>2018-11-15T10:09:22Z</time>
      </trkpt>
      <trkpt lat="45.96862" lon="4.86954">
        <ele>288</ele>
        <time>2018-11-15T10:09:23Z</time>
      </trkpt>
      <trkpt lat="45.96866" lon="4.86944">
        <ele>288</ele>
        <time>2018-11-15T10:09:25Z</time>
      </trkpt>
      <trkpt lat="45.96868" lon="4.86939">
        <ele>288</ele>
        <time>2018-11-15T10:09:26Z</time>
      </trkpt>
      <trkpt lat="45.9687" lon="4.86929">
        <ele>288</ele>
        <time>2018-11-15T10:09:28Z</time>
      </trkpt>
      <trkpt lat="45.96872" lon="4.86924">
        <ele>288</ele>
        <time>2018-11-15T10:09:29Z</time>
      </trkpt>
      <trkpt lat="45.96875" lon="4.86914">
        <ele>289</ele>
        <time>2018-11-15T10:09:31Z</time>
      </trkpt>
      <trkpt lat="45.96877" lon="4.86909">
        <ele>289</ele>
        <time>2018-11-15T10:09:32Z</time>
      </trkpt>
      <trkpt lat="45.96878" lon="4.86903">
        <ele>289</ele>
        <time>2018-11-15T10:09:33Z</time>
      </trkpt>
      <trkpt lat="45.9688" lon="4.86896">
        <ele>289</ele>
        <time>2018-11-15T10:09:34Z</time>
      </trkpt>
      <trkpt lat="45.96882" lon="4.8689">
        <ele>289</ele>
        <time>2018-11-15T10:09:35Z</time>
      </trkpt>
      <trkpt lat="45.96884" lon="4.86884">
        <ele>289</ele>
        <time>2018-11-15T10:09:36Z</time>
      </trkpt>
      <trkpt lat="45.96886" lon="4.86878">
        <ele>289</ele>
        <time>2018-11-15T10:09:37Z</time>
      </trkpt>
      <trkpt lat="45.96888" lon="4.86871">
        <ele>289</ele>
        <time>2018-11-15T10:09:38Z</time>
      </trkpt>
      <trkpt lat="45.9689" lon="4.8686">
        <ele>289</ele>
        <time>2018-11-15T10:09:40Z</time>
      </trkpt>
      <trkpt lat="45.96891" lon="4.86855">
        <ele>289</ele>
        <time>2018-11-15T10:09:41Z</time>
      </trkpt>
      <trkpt lat="45.96893" lon="4.86849">
        <ele>289</ele>
        <time>2018-11-15T10:09:42Z</time>
      </trkpt>
      <trkpt lat="45.96894" lon="4.86842">
        <ele>289</ele>
        <time>2018-11-15T10:09:43Z</time>
      </trkpt>
      <trkpt lat="45.96899" lon="4.86832">
        <ele>288</ele>
        <time>2018-11-15T10:09:45Z</time>
      </trkpt>
      <trkpt lat="45.96901" lon="4.86827">
        <ele>288</ele>
        <time>2018-11-15T10:09:46Z</time>
      </trkpt>
      <trkpt lat="45.96904" lon="4.86815">
        <ele>288</ele>
        <time>2018-11-15T10:09:49Z</time>
      </trkpt>
      <trkpt lat="45.96906" lon="4.86812">
        <ele>288</ele>
        <time>2018-11-15T10:09:50Z</time>
      </trkpt>
      <trkpt lat="45.96913" lon="4.86806">
        <ele>288</ele>
        <time>2018-11-15T10:09:52Z</time>
      </trkpt>
      <trkpt lat="45.96917" lon="4.86805">
        <ele>287</ele>
        <time>2018-11-15T10:09:53Z</time>
      </trkpt>
      <trkpt lat="45.96924" lon="4.8681">
        <ele>287</ele>
        <time>2018-11-15T10:09:55Z</time>
      </trkpt>
      <trkpt lat="45.96928" lon="4.86814">
        <ele>287</ele>
        <time>2018-11-15T10:09:56Z</time>
      </trkpt>
      <trkpt lat="45.96933" lon="4.86818">
        <ele>287</ele>
        <time>2018-11-15T10:09:57Z</time>
      </trkpt>
      <trkpt lat="45.96938" lon="4.86822">
        <ele>287</ele>
        <time>2018-11-15T10:09:58Z</time>
      </trkpt>
      <trkpt lat="45.96944" lon="4.86825">
        <ele>287</ele>
        <time>2018-11-15T10:09:59Z</time>
      </trkpt>
      <trkpt lat="45.9695" lon="4.86829">
        <ele>287</ele>
        <time>2018-11-15T10:10:00Z</time>
      </trkpt>
      <trkpt lat="45.96955" lon="4.86832">
        <ele>286</ele>
        <time>2018-11-15T10:10:01Z</time>
      </trkpt>
      <trkpt lat="45.96961" lon="4.86836">
        <ele>287</ele>
        <time>2018-11-15T10:10:02Z</time>
      </trkpt>
      <trkpt lat="45.96967" lon="4.86838">
        <ele>286</ele>
        <time>2018-11-15T10:10:03Z</time>
      </trkpt>
      <trkpt lat="45.96973" lon="4.8684">
        <ele>286</ele>
        <time>2018-11-15T10:10:04Z</time>
      </trkpt>
      <trkpt lat="45.96978" lon="4.86842">
        <ele>286</ele>
        <time>2018-11-15T10:10:05Z</time>
      </trkpt>
      <trkpt lat="45.96984" lon="4.86844">
        <ele>286</ele>
        <time>2018-11-15T10:10:06Z</time>
      </trkpt>
      <trkpt lat="45.96991" lon="4.86845">
        <ele>286</ele>
        <time>2018-11-15T10:10:07Z</time>
      </trkpt>
      <trkpt lat="45.96997" lon="4.86845">
        <ele>286</ele>
        <time>2018-11-15T10:10:08Z</time>
      </trkpt>
      <trkpt lat="45.97003" lon="4.86845">
        <ele>285</ele>
        <time>2018-11-15T10:10:09Z</time>
      </trkpt>
      <trkpt lat="45.9701" lon="4.86844">
        <ele>285</ele>
        <time>2018-11-15T10:10:10Z</time>
      </trkpt>
      <trkpt lat="45.97016" lon="4.86845">
        <ele>285</ele>
        <time>2018-11-15T10:10:11Z</time>
      </trkpt>
      <trkpt lat="45.97023" lon="4.86844">
        <ele>285</ele>
        <time>2018-11-15T10:10:12Z</time>
      </trkpt>
      <trkpt lat="45.9703" lon="4.86844">
        <ele>285</ele>
        <time>2018-11-15T10:10:13Z</time>
      </trkpt>
      <trkpt lat="45.97036" lon="4.86843">
        <ele>285</ele>
        <time>2018-11-15T10:10:14Z</time>
      </trkpt>
      <trkpt lat="45.97043" lon="4.86841">
        <ele>285</ele>
        <time>2018-11-15T10:10:15Z</time>
      </trkpt>
      <trkpt lat="45.97049" lon="4.8684">
        <ele>285</ele>
        <time>2018-11-15T10:10:16Z</time>
      </trkpt>
      <trkpt lat="45.97056" lon="4.86839">
        <ele>285</ele>
        <time>2018-11-15T10:10:17Z</time>
      </trkpt>
      <trkpt lat="45.97062" lon="4.86838">
        <ele>284</ele>
        <time>2018-11-15T10:10:18Z</time>
      </trkpt>
      <trkpt lat="45.97069" lon="4.86837">
        <ele>284</ele>
        <time>2018-11-15T10:10:19Z</time>
      </trkpt>
      <trkpt lat="45.97075" lon="4.86836">
        <ele>284</ele>
        <time>2018-11-15T10:10:20Z</time>
      </trkpt>
      <trkpt lat="45.97081" lon="4.86835">
        <ele>284</ele>
        <time>2018-11-15T10:10:21Z</time>
      </trkpt>
      <trkpt lat="45.97086" lon="4.86834">
        <ele>284</ele>
        <time>2018-11-15T10:10:22Z</time>
      </trkpt>
      <trkpt lat="45.97092" lon="4.8683">
        <ele>284</ele>
        <time>2018-11-15T10:10:23Z</time>
      </trkpt>
      <trkpt lat="45.97098" lon="4.86828">
        <ele>284</ele>
        <time>2018-11-15T10:10:24Z</time>
      </trkpt>
      <trkpt lat="45.97104" lon="4.86827">
        <ele>284</ele>
        <time>2018-11-15T10:10:25Z</time>
      </trkpt>
      <trkpt lat="45.9711" lon="4.86827">
        <ele>283</ele>
        <time>2018-11-15T10:10:26Z</time>
      </trkpt>
      <trkpt lat="45.97117" lon="4.86825">
        <ele>283</ele>
        <time>2018-11-15T10:10:27Z</time>
      </trkpt>
      <trkpt lat="45.97123" lon="4.86824">
        <ele>283</ele>
        <time>2018-11-15T10:10:28Z</time>
      </trkpt>
      <trkpt lat="45.97129" lon="4.86821">
        <ele>283</ele>
        <time>2018-11-15T10:10:29Z</time>
      </trkpt>
      <trkpt lat="45.97135" lon="4.8682">
        <ele>283</ele>
        <time>2018-11-15T10:10:30Z</time>
      </trkpt>
      <trkpt lat="45.9714" lon="4.86818">
        <ele>283</ele>
        <time>2018-11-15T10:10:31Z</time>
      </trkpt>
      <trkpt lat="45.97147" lon="4.86815">
        <ele>283</ele>
        <time>2018-11-15T10:10:32Z</time>
      </trkpt>
      <trkpt lat="45.97152" lon="4.86813">
        <ele>283</ele>
        <time>2018-11-15T10:10:33Z</time>
      </trkpt>
      <trkpt lat="45.97159" lon="4.8681">
        <ele>283</ele>
        <time>2018-11-15T10:10:34Z</time>
      </trkpt>
      <trkpt lat="45.97166" lon="4.86808">
        <ele>283</ele>
        <time>2018-11-15T10:10:35Z</time>
      </trkpt>
      <trkpt lat="45.97172" lon="4.86806">
        <ele>283</ele>
        <time>2018-11-15T10:10:36Z</time>
      </trkpt>
      <trkpt lat="45.97178" lon="4.86802">
        <ele>284</ele>
        <time>2018-11-15T10:10:37Z</time>
      </trkpt>
      <trkpt lat="45.97185" lon="4.86799">
        <ele>284</ele>
        <time>2018-11-15T10:10:38Z</time>
      </trkpt>
      <trkpt lat="45.97191" lon="4.86797">
        <ele>284</ele>
        <time>2018-11-15T10:10:39Z</time>
      </trkpt>
      <trkpt lat="45.97198" lon="4.86795">
        <ele>284</ele>
        <time>2018-11-15T10:10:40Z</time>
      </trkpt>
      <trkpt lat="45.97204" lon="4.86793">
        <ele>284</ele>
        <time>2018-11-15T10:10:41Z</time>
      </trkpt>
      <trkpt lat="45.9721" lon="4.86791">
        <ele>284</ele>
        <time>2018-11-15T10:10:42Z</time>
      </trkpt>
      <trkpt lat="45.97216" lon="4.8679">
        <ele>284</ele>
        <time>2018-11-15T10:10:43Z</time>
      </trkpt>
      <trkpt lat="45.97223" lon="4.8679">
        <ele>284</ele>
        <time>2018-11-15T10:10:44Z</time>
      </trkpt>
      <trkpt lat="45.97229" lon="4.86792">
        <ele>284</ele>
        <time>2018-11-15T10:10:45Z</time>
      </trkpt>
      <trkpt lat="45.97236" lon="4.86794">
        <ele>284</ele>
        <time>2018-11-15T10:10:46Z</time>
      </trkpt>
      <trkpt lat="45.97241" lon="4.86797">
        <ele>284</ele>
        <time>2018-11-15T10:10:47Z</time>
      </trkpt>
      <trkpt lat="45.97246" lon="4.86801">
        <ele>284</ele>
        <time>2018-11-15T10:10:48Z</time>
      </trkpt>
      <trkpt lat="45.97251" lon="4.86807">
        <ele>285</ele>
        <time>2018-11-15T10:10:49Z</time>
      </trkpt>
      <trkpt lat="45.97254" lon="4.86811">
        <ele>285</ele>
        <time>2018-11-15T10:10:50Z</time>
      </trkpt>
      <trkpt lat="45.97258" lon="4.86816">
        <ele>285</ele>
        <time>2018-11-15T10:10:51Z</time>
      </trkpt>
      <trkpt lat="45.97263" lon="4.86822">
        <ele>285</ele>
        <time>2018-11-15T10:10:52Z</time>
      </trkpt>
      <trkpt lat="45.97266" lon="4.86828">
        <ele>285</ele>
        <time>2018-11-15T10:10:53Z</time>
      </trkpt>
      <trkpt lat="45.97269" lon="4.86835">
        <ele>285</ele>
        <time>2018-11-15T10:10:54Z</time>
      </trkpt>
      <trkpt lat="45.97272" lon="4.86841">
        <ele>285</ele>
        <time>2018-11-15T10:10:55Z</time>
      </trkpt>
      <trkpt lat="45.97276" lon="4.86848">
        <ele>285</ele>
        <time>2018-11-15T10:10:56Z</time>
      </trkpt>
      <trkpt lat="45.97279" lon="4.86854">
        <ele>285</ele>
        <time>2018-11-15T10:10:57Z</time>
      </trkpt>
      <trkpt lat="45.97282" lon="4.86861">
        <ele>285</ele>
        <time>2018-11-15T10:10:58Z</time>
      </trkpt>
      <trkpt lat="45.97286" lon="4.86867">
        <ele>285</ele>
        <time>2018-11-15T10:10:59Z</time>
      </trkpt>
      <trkpt lat="45.9729" lon="4.86873">
        <ele>285</ele>
        <time>2018-11-15T10:11:00Z</time>
      </trkpt>
      <trkpt lat="45.97294" lon="4.86879">
        <ele>284</ele>
        <time>2018-11-15T10:11:01Z</time>
      </trkpt>
      <trkpt lat="45.97298" lon="4.86884">
        <ele>284</ele>
        <time>2018-11-15T10:11:02Z</time>
      </trkpt>
      <trkpt lat="45.97302" lon="4.8689">
        <ele>284</ele>
        <time>2018-11-15T10:11:03Z</time>
      </trkpt>
      <trkpt lat="45.97306" lon="4.86896">
        <ele>284</ele>
        <time>2018-11-15T10:11:04Z</time>
      </trkpt>
      <trkpt lat="45.9731" lon="4.86901">
        <ele>284</ele>
        <time>2018-11-15T10:11:05Z</time>
      </trkpt>
      <trkpt lat="45.97315" lon="4.86907">
        <ele>284</ele>
        <time>2018-11-15T10:11:06Z</time>
      </trkpt>
      <trkpt lat="45.9732" lon="4.86912">
        <ele>284</ele>
        <time>2018-11-15T10:11:07Z</time>
      </trkpt>
      <trkpt lat="45.97324" lon="4.86919">
        <ele>284</ele>
        <time>2018-11-15T10:11:08Z</time>
      </trkpt>
      <trkpt lat="45.97329" lon="4.86925">
        <ele>284</ele>
        <time>2018-11-15T10:11:09Z</time>
      </trkpt>
      <trkpt lat="45.97333" lon="4.8693">
        <ele>284</ele>
        <time>2018-11-15T10:11:10Z</time>
      </trkpt>
      <trkpt lat="45.97337" lon="4.86936">
        <ele>284</ele>
        <time>2018-11-15T10:11:11Z</time>
      </trkpt>
      <trkpt lat="45.97341" lon="4.86942">
        <ele>284</ele>
        <time>2018-11-15T10:11:12Z</time>
      </trkpt>
      <trkpt lat="45.97344" lon="4.86947">
        <ele>284</ele>
        <time>2018-11-15T10:11:13Z</time>
      </trkpt>
      <trkpt lat="45.97348" lon="4.86952">
        <ele>284</ele>
        <time>2018-11-15T10:11:14Z</time>
      </trkpt>
      <trkpt lat="45.97352" lon="4.86956">
        <ele>284</ele>
        <time>2018-11-15T10:11:15Z</time>
      </trkpt>
      <trkpt lat="45.97356" lon="4.86962">
        <ele>285</ele>
        <time>2018-11-15T10:11:16Z</time>
      </trkpt>
      <trkpt lat="45.97361" lon="4.86967">
        <ele>285</ele>
        <time>2018-11-15T10:11:17Z</time>
      </trkpt>
      <trkpt lat="45.97365" lon="4.86972">
        <ele>285</ele>
        <time>2018-11-15T10:11:18Z</time>
      </trkpt>
      <trkpt lat="45.9737" lon="4.86976">
        <ele>285</ele>
        <time>2018-11-15T10:11:19Z</time>
      </trkpt>
      <trkpt lat="45.97374" lon="4.86981">
        <ele>285</ele>
        <time>2018-11-15T10:11:20Z</time>
      </trkpt>
      <trkpt lat="45.97379" lon="4.86986">
        <ele>285</ele>
        <time>2018-11-15T10:11:21Z</time>
      </trkpt>
      <trkpt lat="45.97383" lon="4.86991">
        <ele>285</ele>
        <time>2018-11-15T10:11:22Z</time>
      </trkpt>
      <trkpt lat="45.97388" lon="4.86996">
        <ele>285</ele>
        <time>2018-11-15T10:11:23Z</time>
      </trkpt>
      <trkpt lat="45.97393" lon="4.87001">
        <ele>285</ele>
        <time>2018-11-15T10:11:24Z</time>
      </trkpt>
      <trkpt lat="45.97398" lon="4.87006">
        <ele>285</ele>
        <time>2018-11-15T10:11:25Z</time>
      </trkpt>
      <trkpt lat="45.97403" lon="4.87011">
        <ele>285</ele>
        <time>2018-11-15T10:11:26Z</time>
      </trkpt>
      <trkpt lat="45.97406" lon="4.87016">
        <ele>285</ele>
        <time>2018-11-15T10:11:27Z</time>
      </trkpt>
      <trkpt lat="45.97411" lon="4.87021">
        <ele>285</ele>
        <time>2018-11-15T10:11:28Z</time>
      </trkpt>
      <trkpt lat="45.97415" lon="4.87025">
        <ele>285</ele>
        <time>2018-11-15T10:11:29Z</time>
      </trkpt>
      <trkpt lat="45.97421" lon="4.87028">
        <ele>284</ele>
        <time>2018-11-15T10:11:30Z</time>
      </trkpt>
      <trkpt lat="45.97426" lon="4.87033">
        <ele>284</ele>
        <time>2018-11-15T10:11:31Z</time>
      </trkpt>
      <trkpt lat="45.9743" lon="4.87038">
        <ele>284</ele>
        <time>2018-11-15T10:11:32Z</time>
      </trkpt>
      <trkpt lat="45.97434" lon="4.87042">
        <ele>284</ele>
        <time>2018-11-15T10:11:33Z</time>
      </trkpt>
      <trkpt lat="45.97438" lon="4.87047">
        <ele>284</ele>
        <time>2018-11-15T10:11:34Z</time>
      </trkpt>
      <trkpt lat="45.97443" lon="4.87052">
        <ele>284</ele>
        <time>2018-11-15T10:11:35Z</time>
      </trkpt>
      <trkpt lat="45.97447" lon="4.87056">
        <ele>284</ele>
        <time>2018-11-15T10:11:36Z</time>
      </trkpt>
      <trkpt lat="45.97452" lon="4.87061">
        <ele>284</ele>
        <time>2018-11-15T10:11:37Z</time>
      </trkpt>
      <trkpt lat="45.97456" lon="4.87065">
        <ele>284</ele>
        <time>2018-11-15T10:11:38Z</time>
      </trkpt>
      <trkpt lat="45.9746" lon="4.87069">
        <ele>284</ele>
        <time>2018-11-15T10:11:39Z</time>
      </trkpt>
      <trkpt lat="45.97465" lon="4.87073">
        <ele>284</ele>
        <time>2018-11-15T10:11:40Z</time>
      </trkpt>
      <trkpt lat="45.9747" lon="4.87079">
        <ele>284</ele>
        <time>2018-11-15T10:11:41Z</time>
      </trkpt>
      <trkpt lat="45.97474" lon="4.87084">
        <ele>283</ele>
        <time>2018-11-15T10:11:42Z</time>
      </trkpt>
      <trkpt lat="45.97478" lon="4.87088">
        <ele>283</ele>
        <time>2018-11-15T10:11:43Z</time>
      </trkpt>
      <trkpt lat="45.97483" lon="4.87093">
        <ele>283</ele>
        <time>2018-11-15T10:11:44Z</time>
      </trkpt>
      <trkpt lat="45.97487" lon="4.87098">
        <ele>283</ele>
        <time>2018-11-15T10:11:45Z</time>
      </trkpt>
      <trkpt lat="45.97492" lon="4.87103">
        <ele>283</ele>
        <time>2018-11-15T10:11:46Z</time>
      </trkpt>
      <trkpt lat="45.97497" lon="4.87107">
        <ele>283</ele>
        <time>2018-11-15T10:11:47Z</time>
      </trkpt>
      <trkpt lat="45.97501" lon="4.87112">
        <ele>283</ele>
        <time>2018-11-15T10:11:48Z</time>
      </trkpt>
      <trkpt lat="45.97505" lon="4.87117">
        <ele>283</ele>
        <time>2018-11-15T10:11:49Z</time>
      </trkpt>
      <trkpt lat="45.97509" lon="4.87122">
        <ele>283</ele>
        <time>2018-11-15T10:11:50Z</time>
      </trkpt>
      <trkpt lat="45.97514" lon="4.87126">
        <ele>283</ele>
        <time>2018-11-15T10:11:51Z</time>
      </trkpt>
      <trkpt lat="45.97518" lon="4.8713">
        <ele>283</ele>
        <time>2018-11-15T10:11:52Z</time>
      </trkpt>
      <trkpt lat="45.97522" lon="4.87135">
        <ele>283</ele>
        <time>2018-11-15T10:11:53Z</time>
      </trkpt>
      <trkpt lat="45.97526" lon="4.87139">
        <ele>283</ele>
        <time>2018-11-15T10:11:54Z</time>
      </trkpt>
      <trkpt lat="45.97531" lon="4.87144">
        <ele>283</ele>
        <time>2018-11-15T10:11:55Z</time>
      </trkpt>
      <trkpt lat="45.97536" lon="4.87147">
        <ele>283</ele>
        <time>2018-11-15T10:11:56Z</time>
      </trkpt>
      <trkpt lat="45.9754" lon="4.87152">
        <ele>283</ele>
        <time>2018-11-15T10:11:57Z</time>
      </trkpt>
      <trkpt lat="45.97545" lon="4.87155">
        <ele>283</ele>
        <time>2018-11-15T10:11:58Z</time>
      </trkpt>
      <trkpt lat="45.97549" lon="4.8716">
        <ele>283</ele>
        <time>2018-11-15T10:11:59Z</time>
      </trkpt>
      <trkpt lat="45.97554" lon="4.87164">
        <ele>283</ele>
        <time>2018-11-15T10:12:00Z</time>
      </trkpt>
      <trkpt lat="45.97559" lon="4.87168">
        <ele>283</ele>
        <time>2018-11-15T10:12:01Z</time>
      </trkpt>
      <trkpt lat="45.97564" lon="4.87172">
        <ele>283</ele>
        <time>2018-11-15T10:12:02Z</time>
      </trkpt>
      <trkpt lat="45.97572" lon="4.87176">
        <ele>283</ele>
        <time>2018-11-15T10:12:03Z</time>
      </trkpt>
      <trkpt lat="45.97577" lon="4.87181">
        <ele>283</ele>
        <time>2018-11-15T10:12:04Z</time>
      </trkpt>
      <trkpt lat="45.97581" lon="4.87187">
        <ele>283</ele>
        <time>2018-11-15T10:12:05Z</time>
      </trkpt>
      <trkpt lat="45.97586" lon="4.87192">
        <ele>283</ele>
        <time>2018-11-15T10:12:06Z</time>
      </trkpt>
      <trkpt lat="45.97591" lon="4.87196">
        <ele>283</ele>
        <time>2018-11-15T10:12:07Z</time>
      </trkpt>
      <trkpt lat="45.97597" lon="4.872">
        <ele>283</ele>
        <time>2018-11-15T10:12:08Z</time>
      </trkpt>
      <trkpt lat="45.97602" lon="4.87205">
        <ele>284</ele>
        <time>2018-11-15T10:12:09Z</time>
      </trkpt>
      <trkpt lat="45.97607" lon="4.8721">
        <ele>284</ele>
        <time>2018-11-15T10:12:10Z</time>
      </trkpt>
      <trkpt lat="45.97612" lon="4.87214">
        <ele>284</ele>
        <time>2018-11-15T10:12:11Z</time>
      </trkpt>
      <trkpt lat="45.97616" lon="4.87218">
        <ele>284</ele>
        <time>2018-11-15T10:12:12Z</time>
      </trkpt>
      <trkpt lat="45.97621" lon="4.87223">
        <ele>284</ele>
        <time>2018-11-15T10:12:13Z</time>
      </trkpt>
      <trkpt lat="45.97625" lon="4.87225">
        <ele>284</ele>
        <time>2018-11-15T10:12:14Z</time>
      </trkpt>
      <trkpt lat="45.9763" lon="4.87229">
        <ele>284</ele>
        <time>2018-11-15T10:12:15Z</time>
      </trkpt>
      <trkpt lat="45.97634" lon="4.87234">
        <ele>284</ele>
        <time>2018-11-15T10:12:16Z</time>
      </trkpt>
      <trkpt lat="45.97638" lon="4.87238">
        <ele>284</ele>
        <time>2018-11-15T10:12:17Z</time>
      </trkpt>
      <trkpt lat="45.97642" lon="4.87242">
        <ele>284</ele>
        <time>2018-11-15T10:12:18Z</time>
      </trkpt>
      <trkpt lat="45.97647" lon="4.87246">
        <ele>285</ele>
        <time>2018-11-15T10:12:19Z</time>
      </trkpt>
      <trkpt lat="45.97651" lon="4.8725">
        <ele>285</ele>
        <time>2018-11-15T10:12:20Z</time>
      </trkpt>
      <trkpt lat="45.97657" lon="4.87254">
        <ele>286</ele>
        <time>2018-11-15T10:12:21Z</time>
      </trkpt>
      <trkpt lat="45.97661" lon="4.87259">
        <ele>286</ele>
        <time>2018-11-15T10:12:22Z</time>
      </trkpt>
      <trkpt lat="45.97666" lon="4.87264">
        <ele>285</ele>
        <time>2018-11-15T10:12:23Z</time>
      </trkpt>
      <trkpt lat="45.97671" lon="4.87268">
        <ele>286</ele>
        <time>2018-11-15T10:12:24Z</time>
      </trkpt>
      <trkpt lat="45.97675" lon="4.87272">
        <ele>286</ele>
        <time>2018-11-15T10:12:25Z</time>
      </trkpt>
      <trkpt lat="45.97681" lon="4.87277">
        <ele>286</ele>
        <time>2018-11-15T10:12:26Z</time>
      </trkpt>
      <trkpt lat="45.97685" lon="4.87282">
        <ele>286</ele>
        <time>2018-11-15T10:12:27Z</time>
      </trkpt>
      <trkpt lat="45.9769" lon="4.87285">
        <ele>286</ele>
        <time>2018-11-15T10:12:28Z</time>
      </trkpt>
      <trkpt lat="45.97694" lon="4.8729">
        <ele>286</ele>
        <time>2018-11-15T10:12:29Z</time>
      </trkpt>
      <trkpt lat="45.97698" lon="4.87295">
        <ele>286</ele>
        <time>2018-11-15T10:12:30Z</time>
      </trkpt>
      <trkpt lat="45.97702" lon="4.87299">
        <ele>286</ele>
        <time>2018-11-15T10:12:31Z</time>
      </trkpt>
      <trkpt lat="45.97706" lon="4.87304">
        <ele>286</ele>
        <time>2018-11-15T10:12:32Z</time>
      </trkpt>
      <trkpt lat="45.9771" lon="4.87308">
        <ele>286</ele>
        <time>2018-11-15T10:12:33Z</time>
      </trkpt>
      <trkpt lat="45.97715" lon="4.87313">
        <ele>286</ele>
        <time>2018-11-15T10:12:34Z</time>
      </trkpt>
      <trkpt lat="45.97719" lon="4.87317">
        <ele>286</ele>
        <time>2018-11-15T10:12:35Z</time>
      </trkpt>
      <trkpt lat="45.97723" lon="4.87323">
        <ele>286</ele>
        <time>2018-11-15T10:12:36Z</time>
      </trkpt>
      <trkpt lat="45.97726" lon="4.87328">
        <ele>286</ele>
        <time>2018-11-15T10:12:37Z</time>
      </trkpt>
      <trkpt lat="45.9773" lon="4.87333">
        <ele>286</ele>
        <time>2018-11-15T10:12:38Z</time>
      </trkpt>
      <trkpt lat="45.97734" lon="4.87339">
        <ele>286</ele>
        <time>2018-11-15T10:12:39Z</time>
      </trkpt>
      <trkpt lat="45.97738" lon="4.87344">
        <ele>286</ele>
        <time>2018-11-15T10:12:40Z</time>
      </trkpt>
      <trkpt lat="45.97742" lon="4.87349">
        <ele>286</ele>
        <time>2018-11-15T10:12:41Z</time>
      </trkpt>
      <trkpt lat="45.97745" lon="4.87356">
        <ele>286</ele>
        <time>2018-11-15T10:12:42Z</time>
      </trkpt>
      <trkpt lat="45.97752" lon="4.87364">
        <ele>285</ele>
        <time>2018-11-15T10:12:44Z</time>
      </trkpt>
      <trkpt lat="45.97755" lon="4.8737">
        <ele>285</ele>
        <time>2018-11-15T10:12:45Z</time>
      </trkpt>
      <trkpt lat="45.97759" lon="4.87375">
        <ele>284</ele>
        <time>2018-11-15T10:12:46Z</time>
      </trkpt>
      <trkpt lat="45.97763" lon="4.8738">
        <ele>284</ele>
        <time>2018-11-15T10:12:47Z</time>
      </trkpt>
      <trkpt lat="45.97768" lon="4.87385">
        <ele>284</ele>
        <time>2018-11-15T10:12:48Z</time>
      </trkpt>
      <trkpt lat="45.97772" lon="4.8739">
        <ele>284</ele>
        <time>2018-11-15T10:12:49Z</time>
      </trkpt>
      <trkpt lat="45.97776" lon="4.87395">
        <ele>284</ele>
        <time>2018-11-15T10:12:50Z</time>
      </trkpt>
      <trkpt lat="45.9778" lon="4.87402">
        <ele>284</ele>
        <time>2018-11-15T10:12:51Z</time>
      </trkpt>
      <trkpt lat="45.97784" lon="4.87409">
        <ele>284</ele>
        <time>2018-11-15T10:12:52Z</time>
      </trkpt>
      <trkpt lat="45.97789" lon="4.87414">
        <ele>284</ele>
        <time>2018-11-15T10:12:53Z</time>
      </trkpt>
      <trkpt lat="45.97795" lon="4.8742">
        <ele>283</ele>
        <time>2018-11-15T10:12:54Z</time>
      </trkpt>
      <trkpt lat="45.978" lon="4.87426">
        <ele>283</ele>
        <time>2018-11-15T10:12:55Z</time>
      </trkpt>
      <trkpt lat="45.97804" lon="4.87433">
        <ele>283</ele>
        <time>2018-11-15T10:12:56Z</time>
      </trkpt>
      <trkpt lat="45.97809" lon="4.87439">
        <ele>282</ele>
        <time>2018-11-15T10:12:57Z</time>
      </trkpt>
      <trkpt lat="45.97815" lon="4.87445">
        <ele>282</ele>
        <time>2018-11-15T10:12:58Z</time>
      </trkpt>
      <trkpt lat="45.9782" lon="4.87452">
        <ele>282</ele>
        <time>2018-11-15T10:12:59Z</time>
      </trkpt>
      <trkpt lat="45.97826" lon="4.87458">
        <ele>282</ele>
        <time>2018-11-15T10:13:00Z</time>
      </trkpt>
      <trkpt lat="45.97832" lon="4.87464">
        <ele>282</ele>
        <time>2018-11-15T10:13:01Z</time>
      </trkpt>
      <trkpt lat="45.97838" lon="4.8747">
        <ele>281</ele>
        <time>2018-11-15T10:13:02Z</time>
      </trkpt>
      <trkpt lat="45.97844" lon="4.87476">
        <ele>281</ele>
        <time>2018-11-15T10:13:03Z</time>
      </trkpt>
      <trkpt lat="45.9785" lon="4.87482">
        <ele>281</ele>
        <time>2018-11-15T10:13:04Z</time>
      </trkpt>
      <trkpt lat="45.97856" lon="4.87488">
        <ele>281</ele>
        <time>2018-11-15T10:13:05Z</time>
      </trkpt>
      <trkpt lat="45.97862" lon="4.87494">
        <ele>281</ele>
        <time>2018-11-15T10:13:06Z</time>
      </trkpt>
      <trkpt lat="45.97868" lon="4.87501">
        <ele>281</ele>
        <time>2018-11-15T10:13:07Z</time>
      </trkpt>
      <trkpt lat="45.97873" lon="4.87505">
        <ele>281</ele>
        <time>2018-11-15T10:13:08Z</time>
      </trkpt>
      <trkpt lat="45.9788" lon="4.8751">
        <ele>281</ele>
        <time>2018-11-15T10:13:09Z</time>
      </trkpt>
      <trkpt lat="45.97886" lon="4.87514">
        <ele>281</ele>
        <time>2018-11-15T10:13:10Z</time>
      </trkpt>
      <trkpt lat="45.97894" lon="4.87517">
        <ele>280</ele>
        <time>2018-11-15T10:13:11Z</time>
      </trkpt>
      <trkpt lat="45.979" lon="4.87518">
        <ele>280</ele>
        <time>2018-11-15T10:13:12Z</time>
      </trkpt>
      <trkpt lat="45.97907" lon="4.87521">
        <ele>280</ele>
        <time>2018-11-15T10:13:13Z</time>
      </trkpt>
      <trkpt lat="45.97914" lon="4.87524">
        <ele>280</ele>
        <time>2018-11-15T10:13:14Z</time>
      </trkpt>
      <trkpt lat="45.97919" lon="4.87527">
        <ele>279</ele>
        <time>2018-11-15T10:13:15Z</time>
      </trkpt>
      <trkpt lat="45.97926" lon="4.87529">
        <ele>279</ele>
        <time>2018-11-15T10:13:16Z</time>
      </trkpt>
      <trkpt lat="45.97933" lon="4.87532">
        <ele>279</ele>
        <time>2018-11-15T10:13:17Z</time>
      </trkpt>
      <trkpt lat="45.97938" lon="4.87534">
        <ele>279</ele>
        <time>2018-11-15T10:13:18Z</time>
      </trkpt>
      <trkpt lat="45.97944" lon="4.87536">
        <ele>279</ele>
        <time>2018-11-15T10:13:19Z</time>
      </trkpt>
      <trkpt lat="45.97949" lon="4.87539">
        <ele>279</ele>
        <time>2018-11-15T10:13:20Z</time>
      </trkpt>
      <trkpt lat="45.97955" lon="4.87541">
        <ele>279</ele>
        <time>2018-11-15T10:13:21Z</time>
      </trkpt>
      <trkpt lat="45.9796" lon="4.87544">
        <ele>279</ele>
        <time>2018-11-15T10:13:22Z</time>
      </trkpt>
      <trkpt lat="45.97965" lon="4.87547">
        <ele>279</ele>
        <time>2018-11-15T10:13:23Z</time>
      </trkpt>
      <trkpt lat="45.97971" lon="4.87551">
        <ele>279</ele>
        <time>2018-11-15T10:13:24Z</time>
      </trkpt>
      <trkpt lat="45.97976" lon="4.87555">
        <ele>279</ele>
        <time>2018-11-15T10:13:25Z</time>
      </trkpt>
      <trkpt lat="45.97981" lon="4.8756">
        <ele>279</ele>
        <time>2018-11-15T10:13:26Z</time>
      </trkpt>
      <trkpt lat="45.97986" lon="4.87567">
        <ele>279</ele>
        <time>2018-11-15T10:13:27Z</time>
      </trkpt>
      <trkpt lat="45.9799" lon="4.87573">
        <ele>280</ele>
        <time>2018-11-15T10:13:28Z</time>
      </trkpt>
      <trkpt lat="45.97995" lon="4.8758">
        <ele>280</ele>
        <time>2018-11-15T10:13:29Z</time>
      </trkpt>
      <trkpt lat="45.97998" lon="4.87587">
        <ele>280</ele>
        <time>2018-11-15T10:13:30Z</time>
      </trkpt>
      <trkpt lat="45.98001" lon="4.87594">
        <ele>280</ele>
        <time>2018-11-15T10:13:31Z</time>
      </trkpt>
      <trkpt lat="45.98004" lon="4.87601">
        <ele>280</ele>
        <time>2018-11-15T10:13:32Z</time>
      </trkpt>
      <trkpt lat="45.98005" lon="4.87608">
        <ele>280</ele>
        <time>2018-11-15T10:13:33Z</time>
      </trkpt>
      <trkpt lat="45.98008" lon="4.87615">
        <ele>280</ele>
        <time>2018-11-15T10:13:34Z</time>
      </trkpt>
      <trkpt lat="45.9801" lon="4.87622">
        <ele>280</ele>
        <time>2018-11-15T10:13:35Z</time>
      </trkpt>
      <trkpt lat="45.98012" lon="4.8763">
        <ele>280</ele>
        <time>2018-11-15T10:13:36Z</time>
      </trkpt>
      <trkpt lat="45.98014" lon="4.87637">
        <ele>280</ele>
        <time>2018-11-15T10:13:37Z</time>
      </trkpt>
      <trkpt lat="45.98016" lon="4.87644">
        <ele>280</ele>
        <time>2018-11-15T10:13:38Z</time>
      </trkpt>
      <trkpt lat="45.98018" lon="4.87652">
        <ele>280</ele>
        <time>2018-11-15T10:13:39Z</time>
      </trkpt>
      <trkpt lat="45.98021" lon="4.8766">
        <ele>280</ele>
        <time>2018-11-15T10:13:40Z</time>
      </trkpt>
      <trkpt lat="45.98023" lon="4.87668">
        <ele>280</ele>
        <time>2018-11-15T10:13:41Z</time>
      </trkpt>
      <trkpt lat="45.98026" lon="4.87675">
        <ele>280</ele>
        <time>2018-11-15T10:13:42Z</time>
      </trkpt>
      <trkpt lat="45.98029" lon="4.87684">
        <ele>280</ele>
        <time>2018-11-15T10:13:43Z</time>
      </trkpt>
      <trkpt lat="45.98031" lon="4.87691">
        <ele>280</ele>
        <time>2018-11-15T10:13:44Z</time>
      </trkpt>
      <trkpt lat="45.98033" lon="4.87698">
        <ele>280</ele>
        <time>2018-11-15T10:13:45Z</time>
      </trkpt>
      <trkpt lat="45.98035" lon="4.87706">
        <ele>280</ele>
        <time>2018-11-15T10:13:46Z</time>
      </trkpt>
      <trkpt lat="45.98038" lon="4.87713">
        <ele>279</ele>
        <time>2018-11-15T10:13:47Z</time>
      </trkpt>
      <trkpt lat="45.9804" lon="4.8772">
        <ele>279</ele>
        <time>2018-11-15T10:13:48Z</time>
      </trkpt>
      <trkpt lat="45.98043" lon="4.87728">
        <ele>280</ele>
        <time>2018-11-15T10:13:49Z</time>
      </trkpt>
      <trkpt lat="45.98045" lon="4.87736">
        <ele>280</ele>
        <time>2018-11-15T10:13:50Z</time>
      </trkpt>
      <trkpt lat="45.98048" lon="4.87744">
        <ele>280</ele>
        <time>2018-11-15T10:13:51Z</time>
      </trkpt>
      <trkpt lat="45.9805" lon="4.87751">
        <ele>280</ele>
        <time>2018-11-15T10:13:52Z</time>
      </trkpt>
      <trkpt lat="45.98052" lon="4.87759">
        <ele>280</ele>
        <time>2018-11-15T10:13:53Z</time>
      </trkpt>
      <trkpt lat="45.98054" lon="4.87766">
        <ele>280</ele>
        <time>2018-11-15T10:13:54Z</time>
      </trkpt>
      <trkpt lat="45.98056" lon="4.87773">
        <ele>280</ele>
        <time>2018-11-15T10:13:55Z</time>
      </trkpt>
      <trkpt lat="45.98058" lon="4.8778">
        <ele>280</ele>
        <time>2018-11-15T10:13:56Z</time>
      </trkpt>
      <trkpt lat="45.98061" lon="4.87788">
        <ele>280</ele>
        <time>2018-11-15T10:13:57Z</time>
      </trkpt>
      <trkpt lat="45.98064" lon="4.87795">
        <ele>280</ele>
        <time>2018-11-15T10:13:58Z</time>
      </trkpt>
      <trkpt lat="45.98066" lon="4.87803">
        <ele>280</ele>
        <time>2018-11-15T10:13:59Z</time>
      </trkpt>
      <trkpt lat="45.98068" lon="4.87811">
        <ele>280</ele>
        <time>2018-11-15T10:14:00Z</time>
      </trkpt>
      <trkpt lat="45.9807" lon="4.8782">
        <ele>279</ele>
        <time>2018-11-15T10:14:01Z</time>
      </trkpt>
      <trkpt lat="45.98073" lon="4.87829">
        <ele>279</ele>
        <time>2018-11-15T10:14:02Z</time>
      </trkpt>
      <trkpt lat="45.98076" lon="4.87837">
        <ele>279</ele>
        <time>2018-11-15T10:14:03Z</time>
      </trkpt>
      <trkpt lat="45.98079" lon="4.87846">
        <ele>279</ele>
        <time>2018-11-15T10:14:04Z</time>
      </trkpt>
      <trkpt lat="45.98082" lon="4.87854">
        <ele>280</ele>
        <time>2018-11-15T10:14:05Z</time>
      </trkpt>
      <trkpt lat="45.98084" lon="4.87862">
        <ele>278</ele>
        <time>2018-11-15T10:14:06Z</time>
      </trkpt>
      <trkpt lat="45.98086" lon="4.8787">
        <ele>278</ele>
        <time>2018-11-15T10:14:07Z</time>
      </trkpt>
      <trkpt lat="45.98088" lon="4.87876">
        <ele>278</ele>
        <time>2018-11-15T10:14:08Z</time>
      </trkpt>
      <trkpt lat="45.98091" lon="4.87884">
        <ele>278</ele>
        <time>2018-11-15T10:14:09Z</time>
      </trkpt>
      <trkpt lat="45.98094" lon="4.87892">
        <ele>278</ele>
        <time>2018-11-15T10:14:10Z</time>
      </trkpt>
      <trkpt lat="45.98096" lon="4.879">
        <ele>278</ele>
        <time>2018-11-15T10:14:11Z</time>
      </trkpt>
      <trkpt lat="45.98099" lon="4.87908">
        <ele>278</ele>
        <time>2018-11-15T10:14:12Z</time>
      </trkpt>
      <trkpt lat="45.98101" lon="4.87915">
        <ele>278</ele>
        <time>2018-11-15T10:14:13Z</time>
      </trkpt>
      <trkpt lat="45.98103" lon="4.87924">
        <ele>277</ele>
        <time>2018-11-15T10:14:14Z</time>
      </trkpt>
      <trkpt lat="45.98105" lon="4.87932">
        <ele>277</ele>
        <time>2018-11-15T10:14:15Z</time>
      </trkpt>
      <trkpt lat="45.98107" lon="4.87941">
        <ele>277</ele>
        <time>2018-11-15T10:14:16Z</time>
      </trkpt>
      <trkpt lat="45.98111" lon="4.87948">
        <ele>277</ele>
        <time>2018-11-15T10:14:17Z</time>
      </trkpt>
      <trkpt lat="45.98113" lon="4.87956">
        <ele>277</ele>
        <time>2018-11-15T10:14:18Z</time>
      </trkpt>
      <trkpt lat="45.98116" lon="4.87964">
        <ele>277</ele>
        <time>2018-11-15T10:14:19Z</time>
      </trkpt>
      <trkpt lat="45.98118" lon="4.87972">
        <ele>277</ele>
        <time>2018-11-15T10:14:20Z</time>
      </trkpt>
      <trkpt lat="45.98121" lon="4.8798">
        <ele>277</ele>
        <time>2018-11-15T10:14:21Z</time>
      </trkpt>
      <trkpt lat="45.98123" lon="4.87989">
        <ele>277</ele>
        <time>2018-11-15T10:14:22Z</time>
      </trkpt>
      <trkpt lat="45.98126" lon="4.87998">
        <ele>277</ele>
        <time>2018-11-15T10:14:23Z</time>
      </trkpt>
      <trkpt lat="45.9813" lon="4.88007">
        <ele>276</ele>
        <time>2018-11-15T10:14:24Z</time>
      </trkpt>
      <trkpt lat="45.98132" lon="4.88018">
        <ele>276</ele>
        <time>2018-11-15T10:14:25Z</time>
      </trkpt>
      <trkpt lat="45.98135" lon="4.88028">
        <ele>276</ele>
        <time>2018-11-15T10:14:26Z</time>
      </trkpt>
      <trkpt lat="45.98137" lon="4.88038">
        <ele>276</ele>
        <time>2018-11-15T10:14:27Z</time>
      </trkpt>
      <trkpt lat="45.9814" lon="4.88049">
        <ele>275</ele>
        <time>2018-11-15T10:14:28Z</time>
      </trkpt>
      <trkpt lat="45.98143" lon="4.88059">
        <ele>275</ele>
        <time>2018-11-15T10:14:29Z</time>
      </trkpt>
      <trkpt lat="45.98148" lon="4.8807">
        <ele>275</ele>
        <time>2018-11-15T10:14:30Z</time>
      </trkpt>
      <trkpt lat="45.98151" lon="4.88078">
        <ele>274</ele>
        <time>2018-11-15T10:14:31Z</time>
      </trkpt>
      <trkpt lat="45.98153" lon="4.88086">
        <ele>274</ele>
        <time>2018-11-15T10:14:32Z</time>
      </trkpt>
      <trkpt lat="45.98156" lon="4.88096">
        <ele>274</ele>
        <time>2018-11-15T10:14:33Z</time>
      </trkpt>
      <trkpt lat="45.98159" lon="4.88105">
        <ele>274</ele>
        <time>2018-11-15T10:14:34Z</time>
      </trkpt>
      <trkpt lat="45.98162" lon="4.88115">
        <ele>274</ele>
        <time>2018-11-15T10:14:35Z</time>
      </trkpt>
      <trkpt lat="45.98164" lon="4.88124">
        <ele>274</ele>
        <time>2018-11-15T10:14:36Z</time>
      </trkpt>
      <trkpt lat="45.98167" lon="4.88133">
        <ele>273</ele>
        <time>2018-11-15T10:14:37Z</time>
      </trkpt>
      <trkpt lat="45.9817" lon="4.88144">
        <ele>273</ele>
        <time>2018-11-15T10:14:38Z</time>
      </trkpt>
      <trkpt lat="45.98173" lon="4.88152">
        <ele>273</ele>
        <time>2018-11-15T10:14:39Z</time>
      </trkpt>
      <trkpt lat="45.98176" lon="4.88161">
        <ele>273</ele>
        <time>2018-11-15T10:14:40Z</time>
      </trkpt>
      <trkpt lat="45.98178" lon="4.8817">
        <ele>273</ele>
        <time>2018-11-15T10:14:41Z</time>
      </trkpt>
      <trkpt lat="45.9818" lon="4.88179">
        <ele>273</ele>
        <time>2018-11-15T10:14:42Z</time>
      </trkpt>
      <trkpt lat="45.98183" lon="4.88188">
        <ele>273</ele>
        <time>2018-11-15T10:14:43Z</time>
      </trkpt>
      <trkpt lat="45.98185" lon="4.88196">
        <ele>273</ele>
        <time>2018-11-15T10:14:44Z</time>
      </trkpt>
      <trkpt lat="45.98187" lon="4.88204">
        <ele>273</ele>
        <time>2018-11-15T10:14:45Z</time>
      </trkpt>
      <trkpt lat="45.98189" lon="4.88213">
        <ele>273</ele>
        <time>2018-11-15T10:14:46Z</time>
      </trkpt>
      <trkpt lat="45.98192" lon="4.8822">
        <ele>273</ele>
        <time>2018-11-15T10:14:47Z</time>
      </trkpt>
      <trkpt lat="45.98194" lon="4.88228">
        <ele>273</ele>
        <time>2018-11-15T10:14:48Z</time>
      </trkpt>
      <trkpt lat="45.98196" lon="4.88236">
        <ele>273</ele>
        <time>2018-11-15T10:14:49Z</time>
      </trkpt>
      <trkpt lat="45.98198" lon="4.88244">
        <ele>273</ele>
        <time>2018-11-15T10:14:50Z</time>
      </trkpt>
      <trkpt lat="45.982" lon="4.88252">
        <ele>274</ele>
        <time>2018-11-15T10:14:51Z</time>
      </trkpt>
      <trkpt lat="45.98202" lon="4.88261">
        <ele>274</ele>
        <time>2018-11-15T10:14:52Z</time>
      </trkpt>
      <trkpt lat="45.98204" lon="4.88269">
        <ele>274</ele>
        <time>2018-11-15T10:14:53Z</time>
      </trkpt>
      <trkpt lat="45.98205" lon="4.88277">
        <ele>274</ele>
        <time>2018-11-15T10:14:54Z</time>
      </trkpt>
      <trkpt lat="45.98207" lon="4.88285">
        <ele>274</ele>
        <time>2018-11-15T10:14:55Z</time>
      </trkpt>
      <trkpt lat="45.98208" lon="4.88292">
        <ele>274</ele>
        <time>2018-11-15T10:14:56Z</time>
      </trkpt>
      <trkpt lat="45.98209" lon="4.88301">
        <ele>274</ele>
        <time>2018-11-15T10:14:57Z</time>
      </trkpt>
      <trkpt lat="45.98211" lon="4.88309">
        <ele>274</ele>
        <time>2018-11-15T10:14:58Z</time>
      </trkpt>
      <trkpt lat="45.98211" lon="4.88317">
        <ele>274</ele>
        <time>2018-11-15T10:14:59Z</time>
      </trkpt>
      <trkpt lat="45.98213" lon="4.88329">
        <ele>274</ele>
        <time>2018-11-15T10:15:01Z</time>
      </trkpt>
      <trkpt lat="45.98213" lon="4.88336">
        <ele>275</ele>
        <time>2018-11-15T10:15:02Z</time>
      </trkpt>
      <trkpt lat="45.98213" lon="4.88342">
        <ele>275</ele>
        <time>2018-11-15T10:15:03Z</time>
      </trkpt>
      <trkpt lat="45.98213" lon="4.88349">
        <ele>275</ele>
        <time>2018-11-15T10:15:04Z</time>
      </trkpt>
      <trkpt lat="45.98213" lon="4.88356">
        <ele>275</ele>
        <time>2018-11-15T10:15:05Z</time>
      </trkpt>
      <trkpt lat="45.98214" lon="4.88363">
        <ele>275</ele>
        <time>2018-11-15T10:15:06Z</time>
      </trkpt>
      <trkpt lat="45.98215" lon="4.88371">
        <ele>275</ele>
        <time>2018-11-15T10:15:07Z</time>
      </trkpt>
      <trkpt lat="45.98216" lon="4.88378">
        <ele>275</ele>
        <time>2018-11-15T10:15:08Z</time>
      </trkpt>
      <trkpt lat="45.98217" lon="4.88385">
        <ele>275</ele>
        <time>2018-11-15T10:15:09Z</time>
      </trkpt>
      <trkpt lat="45.98218" lon="4.88392">
        <ele>275</ele>
        <time>2018-11-15T10:15:10Z</time>
      </trkpt>
      <trkpt lat="45.9822" lon="4.88399">
        <ele>275</ele>
        <time>2018-11-15T10:15:11Z</time>
      </trkpt>
      <trkpt lat="45.98221" lon="4.88405">
        <ele>275</ele>
        <time>2018-11-15T10:15:12Z</time>
      </trkpt>
      <trkpt lat="45.98222" lon="4.88411">
        <ele>275</ele>
        <time>2018-11-15T10:15:13Z</time>
      </trkpt>
      <trkpt lat="45.98223" lon="4.88418">
        <ele>276</ele>
        <time>2018-11-15T10:15:14Z</time>
      </trkpt>
      <trkpt lat="45.98225" lon="4.88424">
        <ele>276</ele>
        <time>2018-11-15T10:15:15Z</time>
      </trkpt>
      <trkpt lat="45.98226" lon="4.8843">
        <ele>276</ele>
        <time>2018-11-15T10:15:16Z</time>
      </trkpt>
      <trkpt lat="45.98228" lon="4.88437">
        <ele>276</ele>
        <time>2018-11-15T10:15:17Z</time>
      </trkpt>
      <trkpt lat="45.98228" lon="4.88443">
        <ele>276</ele>
        <time>2018-11-15T10:15:18Z</time>
      </trkpt>
      <trkpt lat="45.9823" lon="4.8845">
        <ele>276</ele>
        <time>2018-11-15T10:15:19Z</time>
      </trkpt>
      <trkpt lat="45.98231" lon="4.88457">
        <ele>276</ele>
        <time>2018-11-15T10:15:20Z</time>
      </trkpt>
      <trkpt lat="45.98233" lon="4.88463">
        <ele>276</ele>
        <time>2018-11-15T10:15:21Z</time>
      </trkpt>
      <trkpt lat="45.98235" lon="4.88469">
        <ele>276</ele>
        <time>2018-11-15T10:15:22Z</time>
      </trkpt>
      <trkpt lat="45.98237" lon="4.88476">
        <ele>276</ele>
        <time>2018-11-15T10:15:23Z</time>
      </trkpt>
      <trkpt lat="45.98239" lon="4.88482">
        <ele>276</ele>
        <time>2018-11-15T10:15:24Z</time>
      </trkpt>
      <trkpt lat="45.98241" lon="4.88489">
        <ele>276</ele>
        <time>2018-11-15T10:15:25Z</time>
      </trkpt>
      <trkpt lat="45.98243" lon="4.88496">
        <ele>277</ele>
        <time>2018-11-15T10:15:26Z</time>
      </trkpt>
      <trkpt lat="45.98245" lon="4.88502">
        <ele>277</ele>
        <time>2018-11-15T10:15:27Z</time>
      </trkpt>
      <trkpt lat="45.98247" lon="4.88509">
        <ele>277</ele>
        <time>2018-11-15T10:15:28Z</time>
      </trkpt>
      <trkpt lat="45.98248" lon="4.88514">
        <ele>276</ele>
        <time>2018-11-15T10:15:29Z</time>
      </trkpt>
      <trkpt lat="45.9825" lon="4.88521">
        <ele>276</ele>
        <time>2018-11-15T10:15:30Z</time>
      </trkpt>
      <trkpt lat="45.9825" lon="4.88527">
        <ele>277</ele>
        <time>2018-11-15T10:15:31Z</time>
      </trkpt>
      <trkpt lat="45.98252" lon="4.88534">
        <ele>276</ele>
        <time>2018-11-15T10:15:32Z</time>
      </trkpt>
      <trkpt lat="45.98254" lon="4.88541">
        <ele>276</ele>
        <time>2018-11-15T10:15:33Z</time>
      </trkpt>
      <trkpt lat="45.98256" lon="4.88547">
        <ele>276</ele>
        <time>2018-11-15T10:15:34Z</time>
      </trkpt>
      <trkpt lat="45.98259" lon="4.88555">
        <ele>276</ele>
        <time>2018-11-15T10:15:35Z</time>
      </trkpt>
      <trkpt lat="45.9826" lon="4.88561">
        <ele>276</ele>
        <time>2018-11-15T10:15:36Z</time>
      </trkpt>
      <trkpt lat="45.98261" lon="4.88568">
        <ele>276</ele>
        <time>2018-11-15T10:15:37Z</time>
      </trkpt>
      <trkpt lat="45.98263" lon="4.88574">
        <ele>276</ele>
        <time>2018-11-15T10:15:38Z</time>
      </trkpt>
      <trkpt lat="45.98266" lon="4.88586">
        <ele>275</ele>
        <time>2018-11-15T10:15:40Z</time>
      </trkpt>
      <trkpt lat="45.98267" lon="4.88593">
        <ele>275</ele>
        <time>2018-11-15T10:15:41Z</time>
      </trkpt>
      <trkpt lat="45.98269" lon="4.88605">
        <ele>276</ele>
        <time>2018-11-15T10:15:43Z</time>
      </trkpt>
      <trkpt lat="45.98271" lon="4.88611">
        <ele>276</ele>
        <time>2018-11-15T10:15:44Z</time>
      </trkpt>
      <trkpt lat="45.98272" lon="4.88618">
        <ele>276</ele>
        <time>2018-11-15T10:15:45Z</time>
      </trkpt>
      <trkpt lat="45.98274" lon="4.88625">
        <ele>276</ele>
        <time>2018-11-15T10:15:46Z</time>
      </trkpt>
      <trkpt lat="45.98277" lon="4.88631">
        <ele>276</ele>
        <time>2018-11-15T10:15:47Z</time>
      </trkpt>
      <trkpt lat="45.98278" lon="4.88638">
        <ele>276</ele>
        <time>2018-11-15T10:15:48Z</time>
      </trkpt>
      <trkpt lat="45.9828" lon="4.88645">
        <ele>276</ele>
        <time>2018-11-15T10:15:49Z</time>
      </trkpt>
      <trkpt lat="45.98282" lon="4.8865">
        <ele>276</ele>
        <time>2018-11-15T10:15:50Z</time>
      </trkpt>
      <trkpt lat="45.98284" lon="4.88658">
        <ele>276</ele>
        <time>2018-11-15T10:15:51Z</time>
      </trkpt>
      <trkpt lat="45.98285" lon="4.88664">
        <ele>276</ele>
        <time>2018-11-15T10:15:52Z</time>
      </trkpt>
      <trkpt lat="45.98288" lon="4.88675">
        <ele>276</ele>
        <time>2018-11-15T10:15:54Z</time>
      </trkpt>
      <trkpt lat="45.98289" lon="4.88681">
        <ele>276</ele>
        <time>2018-11-15T10:15:55Z</time>
      </trkpt>
      <trkpt lat="45.98292" lon="4.88693">
        <ele>276</ele>
        <time>2018-11-15T10:15:57Z</time>
      </trkpt>
      <trkpt lat="45.98293" lon="4.887">
        <ele>276</ele>
        <time>2018-11-15T10:15:58Z</time>
      </trkpt>
      <trkpt lat="45.98296" lon="4.88711">
        <ele>276</ele>
        <time>2018-11-15T10:16:00Z</time>
      </trkpt>
      <trkpt lat="45.98297" lon="4.88718">
        <ele>276</ele>
        <time>2018-11-15T10:16:01Z</time>
      </trkpt>
      <trkpt lat="45.98299" lon="4.88724">
        <ele>276</ele>
        <time>2018-11-15T10:16:02Z</time>
      </trkpt>
      <trkpt lat="45.98301" lon="4.8873">
        <ele>276</ele>
        <time>2018-11-15T10:16:03Z</time>
      </trkpt>
      <trkpt lat="45.98303" lon="4.88736">
        <ele>276</ele>
        <time>2018-11-15T10:16:04Z</time>
      </trkpt>
      <trkpt lat="45.98305" lon="4.88744">
        <ele>276</ele>
        <time>2018-11-15T10:16:05Z</time>
      </trkpt>
      <trkpt lat="45.98306" lon="4.8875">
        <ele>276</ele>
        <time>2018-11-15T10:16:06Z</time>
      </trkpt>
      <trkpt lat="45.98308" lon="4.88757">
        <ele>276</ele>
        <time>2018-11-15T10:16:07Z</time>
      </trkpt>
      <trkpt lat="45.9831" lon="4.88764">
        <ele>276</ele>
        <time>2018-11-15T10:16:08Z</time>
      </trkpt>
      <trkpt lat="45.98313" lon="4.88771">
        <ele>277</ele>
        <time>2018-11-15T10:16:09Z</time>
      </trkpt>
      <trkpt lat="45.98314" lon="4.88778">
        <ele>277</ele>
        <time>2018-11-15T10:16:10Z</time>
      </trkpt>
      <trkpt lat="45.98315" lon="4.88785">
        <ele>277</ele>
        <time>2018-11-15T10:16:11Z</time>
      </trkpt>
      <trkpt lat="45.98317" lon="4.88793">
        <ele>277</ele>
        <time>2018-11-15T10:16:12Z</time>
      </trkpt>
      <trkpt lat="45.98319" lon="4.888">
        <ele>277</ele>
        <time>2018-11-15T10:16:13Z</time>
      </trkpt>
      <trkpt lat="45.98321" lon="4.88805">
        <ele>277</ele>
        <time>2018-11-15T10:16:14Z</time>
      </trkpt>
      <trkpt lat="45.98323" lon="4.88812">
        <ele>277</ele>
        <time>2018-11-15T10:16:15Z</time>
      </trkpt>
      <trkpt lat="45.98324" lon="4.8882">
        <ele>277</ele>
        <time>2018-11-15T10:16:16Z</time>
      </trkpt>
      <trkpt lat="45.98326" lon="4.88827">
        <ele>278</ele>
        <time>2018-11-15T10:16:17Z</time>
      </trkpt>
      <trkpt lat="45.98327" lon="4.88834">
        <ele>278</ele>
        <time>2018-11-15T10:16:18Z</time>
      </trkpt>
      <trkpt lat="45.98329" lon="4.88841">
        <ele>278</ele>
        <time>2018-11-15T10:16:19Z</time>
      </trkpt>
      <trkpt lat="45.9833" lon="4.88849">
        <ele>278</ele>
        <time>2018-11-15T10:16:20Z</time>
      </trkpt>
      <trkpt lat="45.98331" lon="4.88856">
        <ele>278</ele>
        <time>2018-11-15T10:16:21Z</time>
      </trkpt>
      <trkpt lat="45.98333" lon="4.88863">
        <ele>278</ele>
        <time>2018-11-15T10:16:22Z</time>
      </trkpt>
      <trkpt lat="45.98335" lon="4.8887">
        <ele>280</ele>
        <time>2018-11-15T10:16:23Z</time>
      </trkpt>
      <trkpt lat="45.98336" lon="4.88878">
        <ele>280</ele>
        <time>2018-11-15T10:16:24Z</time>
      </trkpt>
      <trkpt lat="45.98338" lon="4.88885">
        <ele>280</ele>
        <time>2018-11-15T10:16:25Z</time>
      </trkpt>
      <trkpt lat="45.98339" lon="4.88893">
        <ele>280</ele>
        <time>2018-11-15T10:16:26Z</time>
      </trkpt>
      <trkpt lat="45.98341" lon="4.889">
        <ele>280</ele>
        <time>2018-11-15T10:16:27Z</time>
      </trkpt>
      <trkpt lat="45.98343" lon="4.88907">
        <ele>280</ele>
        <time>2018-11-15T10:16:28Z</time>
      </trkpt>
      <trkpt lat="45.98345" lon="4.88914">
        <ele>280</ele>
        <time>2018-11-15T10:16:29Z</time>
      </trkpt>
      <trkpt lat="45.98346" lon="4.88921">
        <ele>281</ele>
        <time>2018-11-15T10:16:30Z</time>
      </trkpt>
      <trkpt lat="45.98347" lon="4.88928">
        <ele>281</ele>
        <time>2018-11-15T10:16:31Z</time>
      </trkpt>
      <trkpt lat="45.9835" lon="4.88935">
        <ele>281</ele>
        <time>2018-11-15T10:16:32Z</time>
      </trkpt>
      <trkpt lat="45.98351" lon="4.88942">
        <ele>282</ele>
        <time>2018-11-15T10:16:33Z</time>
      </trkpt>
      <trkpt lat="45.98352" lon="4.88948">
        <ele>282</ele>
        <time>2018-11-15T10:16:34Z</time>
      </trkpt>
      <trkpt lat="45.98354" lon="4.88954">
        <ele>282</ele>
        <time>2018-11-15T10:16:35Z</time>
      </trkpt>
      <trkpt lat="45.98355" lon="4.88961">
        <ele>282</ele>
        <time>2018-11-15T10:16:36Z</time>
      </trkpt>
      <trkpt lat="45.98357" lon="4.88967">
        <ele>282</ele>
        <time>2018-11-15T10:16:37Z</time>
      </trkpt>
      <trkpt lat="45.98359" lon="4.88973">
        <ele>282</ele>
        <time>2018-11-15T10:16:38Z</time>
      </trkpt>
      <trkpt lat="45.98361" lon="4.8898">
        <ele>282</ele>
        <time>2018-11-15T10:16:39Z</time>
      </trkpt>
      <trkpt lat="45.98362" lon="4.88987">
        <ele>282</ele>
        <time>2018-11-15T10:16:40Z</time>
      </trkpt>
      <trkpt lat="45.98363" lon="4.88993">
        <ele>282</ele>
        <time>2018-11-15T10:16:41Z</time>
      </trkpt>
      <trkpt lat="45.98364" lon="4.89">
        <ele>282</ele>
        <time>2018-11-15T10:16:42Z</time>
      </trkpt>
      <trkpt lat="45.98366" lon="4.89006">
        <ele>283</ele>
        <time>2018-11-15T10:16:43Z</time>
      </trkpt>
      <trkpt lat="45.98369" lon="4.89017">
        <ele>284</ele>
        <time>2018-11-15T10:16:45Z</time>
      </trkpt>
      <trkpt lat="45.9837" lon="4.89023">
        <ele>284</ele>
        <time>2018-11-15T10:16:46Z</time>
      </trkpt>
      <trkpt lat="45.98373" lon="4.89035">
        <ele>284</ele>
        <time>2018-11-15T10:16:48Z</time>
      </trkpt>
      <trkpt lat="45.98375" lon="4.89041">
        <ele>284</ele>
        <time>2018-11-15T10:16:49Z</time>
      </trkpt>
      <trkpt lat="45.98378" lon="4.89052">
        <ele>284</ele>
        <time>2018-11-15T10:16:51Z</time>
      </trkpt>
      <trkpt lat="45.98379" lon="4.89057">
        <ele>284</ele>
        <time>2018-11-15T10:16:52Z</time>
      </trkpt>
      <trkpt lat="45.98382" lon="4.89066">
        <ele>285</ele>
        <time>2018-11-15T10:16:54Z</time>
      </trkpt>
      <trkpt lat="45.98383" lon="4.89071">
        <ele>285</ele>
        <time>2018-11-15T10:16:55Z</time>
      </trkpt>
      <trkpt lat="45.98388" lon="4.89081">
        <ele>285</ele>
        <time>2018-11-15T10:16:57Z</time>
      </trkpt>
      <trkpt lat="45.9839" lon="4.89085">
        <ele>285</ele>
        <time>2018-11-15T10:16:58Z</time>
      </trkpt>
      <trkpt lat="45.98394" lon="4.89093">
        <ele>286</ele>
        <time>2018-11-15T10:17:00Z</time>
      </trkpt>
      <trkpt lat="45.98397" lon="4.89098">
        <ele>286</ele>
        <time>2018-11-15T10:17:01Z</time>
      </trkpt>
      <trkpt lat="45.98403" lon="4.89106">
        <ele>286</ele>
        <time>2018-11-15T10:17:03Z</time>
      </trkpt>
      <trkpt lat="45.98405" lon="4.8911">
        <ele>286</ele>
        <time>2018-11-15T10:17:04Z</time>
      </trkpt>
      <trkpt lat="45.98411" lon="4.89119">
        <ele>285</ele>
        <time>2018-11-15T10:17:06Z</time>
      </trkpt>
      <trkpt lat="45.98413" lon="4.89124">
        <ele>285</ele>
        <time>2018-11-15T10:17:07Z</time>
      </trkpt>
      <trkpt lat="45.98419" lon="4.89134">
        <ele>288</ele>
        <time>2018-11-15T10:17:09Z</time>
      </trkpt>
      <trkpt lat="45.98422" lon="4.89138">
        <ele>288</ele>
        <time>2018-11-15T10:17:10Z</time>
      </trkpt>
      <trkpt lat="45.98428" lon="4.89147">
        <ele>288</ele>
        <time>2018-11-15T10:17:12Z</time>
      </trkpt>
      <trkpt lat="45.98431" lon="4.89152">
        <ele>288</ele>
        <time>2018-11-15T10:17:13Z</time>
      </trkpt>
      <trkpt lat="45.98436" lon="4.8916">
        <ele>288</ele>
        <time>2018-11-15T10:17:15Z</time>
      </trkpt>
      <trkpt lat="45.98439" lon="4.89164">
        <ele>288</ele>
        <time>2018-11-15T10:17:16Z</time>
      </trkpt>
      <trkpt lat="45.98443" lon="4.89171">
        <ele>288</ele>
        <time>2018-11-15T10:17:18Z</time>
      </trkpt>
      <trkpt lat="45.98446" lon="4.89176">
        <ele>288</ele>
        <time>2018-11-15T10:17:19Z</time>
      </trkpt>
      <trkpt lat="45.9845" lon="4.89185">
        <ele>288</ele>
        <time>2018-11-15T10:17:21Z</time>
      </trkpt>
      <trkpt lat="45.98452" lon="4.8919">
        <ele>289</ele>
        <time>2018-11-15T10:17:22Z</time>
      </trkpt>
      <trkpt lat="45.98455" lon="4.89199">
        <ele>289</ele>
        <time>2018-11-15T10:17:24Z</time>
      </trkpt>
      <trkpt lat="45.98457" lon="4.89201">
        <ele>289</ele>
        <time>2018-11-15T10:17:25Z</time>
      </trkpt>
      <trkpt lat="45.98462" lon="4.89209">
        <ele>289</ele>
        <time>2018-11-15T10:17:27Z</time>
      </trkpt>
      <trkpt lat="45.98464" lon="4.89211">
        <ele>289</ele>
        <time>2018-11-15T10:17:28Z</time>
      </trkpt>
      <trkpt lat="45.98469" lon="4.89219">
        <ele>289</ele>
        <time>2018-11-15T10:17:31Z</time>
      </trkpt>
      <trkpt lat="45.98474" lon="4.89227">
        <ele>289</ele>
        <time>2018-11-15T10:17:32Z</time>
      </trkpt>
      <trkpt lat="45.98478" lon="4.89235">
        <ele>289</ele>
        <time>2018-11-15T10:17:35Z</time>
      </trkpt>
      <trkpt lat="45.9848" lon="4.8924">
        <ele>289</ele>
        <time>2018-11-15T10:17:36Z</time>
      </trkpt>
      <trkpt lat="45.98484" lon="4.89251">
        <ele>291</ele>
        <time>2018-11-15T10:17:39Z</time>
      </trkpt>
      <trkpt lat="45.98486" lon="4.89254">
        <ele>291</ele>
        <time>2018-11-15T10:17:40Z</time>
      </trkpt>
      <trkpt lat="45.98488" lon="4.89258">
        <ele>291</ele>
        <time>2018-11-15T10:17:41Z</time>
      </trkpt>
      <trkpt lat="45.98493" lon="4.89267">
        <ele>291</ele>
        <time>2018-11-15T10:17:42Z</time>
      </trkpt>
      <trkpt lat="45.98498" lon="4.89276">
        <ele>292</ele>
        <time>2018-11-15T10:17:44Z</time>
      </trkpt>
      <trkpt lat="45.985" lon="4.8928">
        <ele>292</ele>
        <time>2018-11-15T10:17:45Z</time>
      </trkpt>
      <trkpt lat="45.98506" lon="4.89288">
        <ele>292</ele>
        <time>2018-11-15T10:17:47Z</time>
      </trkpt>
      <trkpt lat="45.98508" lon="4.89292">
        <ele>292</ele>
        <time>2018-11-15T10:17:48Z</time>
      </trkpt>
      <trkpt lat="45.98514" lon="4.89301">
        <ele>293</ele>
        <time>2018-11-15T10:17:50Z</time>
      </trkpt>
      <trkpt lat="45.98517" lon="4.89306">
        <ele>293</ele>
        <time>2018-11-15T10:17:51Z</time>
      </trkpt>
      <trkpt lat="45.9852" lon="4.8931">
        <ele>293</ele>
        <time>2018-11-15T10:17:52Z</time>
      </trkpt>
      <trkpt lat="45.98524" lon="4.89314">
        <ele>293</ele>
        <time>2018-11-15T10:17:53Z</time>
      </trkpt>
      <trkpt lat="45.98527" lon="4.89319">
        <ele>293</ele>
        <time>2018-11-15T10:17:54Z</time>
      </trkpt>
      <trkpt lat="45.98532" lon="4.89324">
        <ele>293</ele>
        <time>2018-11-15T10:17:55Z</time>
      </trkpt>
      <trkpt lat="45.98535" lon="4.89329">
        <ele>293</ele>
        <time>2018-11-15T10:17:56Z</time>
      </trkpt>
      <trkpt lat="45.98539" lon="4.89333">
        <ele>293</ele>
        <time>2018-11-15T10:17:57Z</time>
      </trkpt>
      <trkpt lat="45.98544" lon="4.89339">
        <ele>295</ele>
        <time>2018-11-15T10:17:58Z</time>
      </trkpt>
      <trkpt lat="45.98547" lon="4.89343">
        <ele>295</ele>
        <time>2018-11-15T10:17:59Z</time>
      </trkpt>
      <trkpt lat="45.98551" lon="4.89348">
        <ele>295</ele>
        <time>2018-11-15T10:18:00Z</time>
      </trkpt>
      <trkpt lat="45.98555" lon="4.89353">
        <ele>295</ele>
        <time>2018-11-15T10:18:01Z</time>
      </trkpt>
      <trkpt lat="45.98559" lon="4.89358">
        <ele>295</ele>
        <time>2018-11-15T10:18:02Z</time>
      </trkpt>
      <trkpt lat="45.98563" lon="4.89363">
        <ele>295</ele>
        <time>2018-11-15T10:18:03Z</time>
      </trkpt>
      <trkpt lat="45.98567" lon="4.89367">
        <ele>295</ele>
        <time>2018-11-15T10:18:04Z</time>
      </trkpt>
      <trkpt lat="45.98571" lon="4.89372">
        <ele>295</ele>
        <time>2018-11-15T10:18:05Z</time>
      </trkpt>
      <trkpt lat="45.98574" lon="4.89377">
        <ele>295</ele>
        <time>2018-11-15T10:18:06Z</time>
      </trkpt>
      <trkpt lat="45.98578" lon="4.89382">
        <ele>295</ele>
        <time>2018-11-15T10:18:07Z</time>
      </trkpt>
      <trkpt lat="45.98582" lon="4.89388">
        <ele>295</ele>
        <time>2018-11-15T10:18:08Z</time>
      </trkpt>
      <trkpt lat="45.98584" lon="4.89393">
        <ele>292</ele>
        <time>2018-11-15T10:18:09Z</time>
      </trkpt>
      <trkpt lat="45.98589" lon="4.89398">
        <ele>292</ele>
        <time>2018-11-15T10:18:10Z</time>
      </trkpt>
      <trkpt lat="45.98593" lon="4.89401">
        <ele>292</ele>
        <time>2018-11-15T10:18:11Z</time>
      </trkpt>
      <trkpt lat="45.98598" lon="4.89405">
        <ele>292</ele>
        <time>2018-11-15T10:18:12Z</time>
      </trkpt>
      <trkpt lat="45.98603" lon="4.8941">
        <ele>292</ele>
        <time>2018-11-15T10:18:13Z</time>
      </trkpt>
      <trkpt lat="45.98607" lon="4.89414">
        <ele>292</ele>
        <time>2018-11-15T10:18:14Z</time>
      </trkpt>
      <trkpt lat="45.98611" lon="4.89419">
        <ele>292</ele>
        <time>2018-11-15T10:18:15Z</time>
      </trkpt>
      <trkpt lat="45.98615" lon="4.89423">
        <ele>292</ele>
        <time>2018-11-15T10:18:16Z</time>
      </trkpt>
      <trkpt lat="45.9862" lon="4.89428">
        <ele>291</ele>
        <time>2018-11-15T10:18:17Z</time>
      </trkpt>
      <trkpt lat="45.98624" lon="4.89433">
        <ele>291</ele>
        <time>2018-11-15T10:18:18Z</time>
      </trkpt>
      <trkpt lat="45.98629" lon="4.89437">
        <ele>291</ele>
        <time>2018-11-15T10:18:19Z</time>
      </trkpt>
      <trkpt lat="45.98632" lon="4.89441">
        <ele>291</ele>
        <time>2018-11-15T10:18:20Z</time>
      </trkpt>
      <trkpt lat="45.98637" lon="4.89446">
        <ele>291</ele>
        <time>2018-11-15T10:18:21Z</time>
      </trkpt>
      <trkpt lat="45.98641" lon="4.89451">
        <ele>291</ele>
        <time>2018-11-15T10:18:22Z</time>
      </trkpt>
      <trkpt lat="45.98645" lon="4.89456">
        <ele>291</ele>
        <time>2018-11-15T10:18:23Z</time>
      </trkpt>
      <trkpt lat="45.98649" lon="4.8946">
        <ele>291</ele>
        <time>2018-11-15T10:18:24Z</time>
      </trkpt>
      <trkpt lat="45.98653" lon="4.89465">
        <ele>290</ele>
        <time>2018-11-15T10:18:25Z</time>
      </trkpt>
      <trkpt lat="45.98656" lon="4.8947">
        <ele>290</ele>
        <time>2018-11-15T10:18:26Z</time>
      </trkpt>
      <trkpt lat="45.9866" lon="4.89474">
        <ele>290</ele>
        <time>2018-11-15T10:18:27Z</time>
      </trkpt>
      <trkpt lat="45.98665" lon="4.8948">
        <ele>290</ele>
        <time>2018-11-15T10:18:28Z</time>
      </trkpt>
      <trkpt lat="45.98668" lon="4.89483">
        <ele>289</ele>
        <time>2018-11-15T10:18:29Z</time>
      </trkpt>
      <trkpt lat="45.98672" lon="4.89488">
        <ele>289</ele>
        <time>2018-11-15T10:18:30Z</time>
      </trkpt>
      <trkpt lat="45.98676" lon="4.89492">
        <ele>289</ele>
        <time>2018-11-15T10:18:31Z</time>
      </trkpt>
      <trkpt lat="45.98679" lon="4.89497">
        <ele>289</ele>
        <time>2018-11-15T10:18:32Z</time>
      </trkpt>
      <trkpt lat="45.98682" lon="4.89502">
        <ele>289</ele>
        <time>2018-11-15T10:18:33Z</time>
      </trkpt>
      <trkpt lat="45.98686" lon="4.89507">
        <ele>289</ele>
        <time>2018-11-15T10:18:34Z</time>
      </trkpt>
      <trkpt lat="45.98689" lon="4.89512">
        <ele>289</ele>
        <time>2018-11-15T10:18:35Z</time>
      </trkpt>
      <trkpt lat="45.98693" lon="4.89516">
        <ele>289</ele>
        <time>2018-11-15T10:18:36Z</time>
      </trkpt>
      <trkpt lat="45.98696" lon="4.89521">
        <ele>289</ele>
        <time>2018-11-15T10:18:37Z</time>
      </trkpt>
      <trkpt lat="45.987" lon="4.89527">
        <ele>289</ele>
        <time>2018-11-15T10:18:38Z</time>
      </trkpt>
      <trkpt lat="45.98704" lon="4.89532">
        <ele>289</ele>
        <time>2018-11-15T10:18:39Z</time>
      </trkpt>
      <trkpt lat="45.98707" lon="4.89537">
        <ele>289</ele>
        <time>2018-11-15T10:18:40Z</time>
      </trkpt>
      <trkpt lat="45.98712" lon="4.8954">
        <ele>290</ele>
        <time>2018-11-15T10:18:41Z</time>
      </trkpt>
      <trkpt lat="45.98715" lon="4.89545">
        <ele>290</ele>
        <time>2018-11-15T10:18:42Z</time>
      </trkpt>
      <trkpt lat="45.98718" lon="4.8955">
        <ele>290</ele>
        <time>2018-11-15T10:18:43Z</time>
      </trkpt>
      <trkpt lat="45.98722" lon="4.89555">
        <ele>290</ele>
        <time>2018-11-15T10:18:44Z</time>
      </trkpt>
      <trkpt lat="45.98725" lon="4.8956">
        <ele>290</ele>
        <time>2018-11-15T10:18:45Z</time>
      </trkpt>
      <trkpt lat="45.98729" lon="4.89566">
        <ele>290</ele>
        <time>2018-11-15T10:18:46Z</time>
      </trkpt>
      <trkpt lat="45.98732" lon="4.89571">
        <ele>290</ele>
        <time>2018-11-15T10:18:47Z</time>
      </trkpt>
      <trkpt lat="45.98736" lon="4.89576">
        <ele>290</ele>
        <time>2018-11-15T10:18:48Z</time>
      </trkpt>
      <trkpt lat="45.98739" lon="4.89581">
        <ele>290</ele>
        <time>2018-11-15T10:18:49Z</time>
      </trkpt>
      <trkpt lat="45.98742" lon="4.89587">
        <ele>291</ele>
        <time>2018-11-15T10:18:50Z</time>
      </trkpt>
      <trkpt lat="45.98746" lon="4.89592">
        <ele>291</ele>
        <time>2018-11-15T10:18:51Z</time>
      </trkpt>
      <trkpt lat="45.98749" lon="4.89597">
        <ele>291</ele>
        <time>2018-11-15T10:18:52Z</time>
      </trkpt>
      <trkpt lat="45.98753" lon="4.89602">
        <ele>291</ele>
        <time>2018-11-15T10:18:53Z</time>
      </trkpt>
      <trkpt lat="45.98755" lon="4.89607">
        <ele>291</ele>
        <time>2018-11-15T10:18:54Z</time>
      </trkpt>
      <trkpt lat="45.98759" lon="4.89612">
        <ele>291</ele>
        <time>2018-11-15T10:18:55Z</time>
      </trkpt>
      <trkpt lat="45.98766" lon="4.89621">
        <ele>291</ele>
        <time>2018-11-15T10:18:57Z</time>
      </trkpt>
      <trkpt lat="45.98769" lon="4.89626">
        <ele>291</ele>
        <time>2018-11-15T10:18:58Z</time>
      </trkpt>
      <trkpt lat="45.98772" lon="4.8963">
        <ele>291</ele>
        <time>2018-11-15T10:18:59Z</time>
      </trkpt>
      <trkpt lat="45.98775" lon="4.89635">
        <ele>291</ele>
        <time>2018-11-15T10:19:00Z</time>
      </trkpt>
      <trkpt lat="45.98778" lon="4.8964">
        <ele>291</ele>
        <time>2018-11-15T10:19:01Z</time>
      </trkpt>
      <trkpt lat="45.98782" lon="4.89646">
        <ele>291</ele>
        <time>2018-11-15T10:19:02Z</time>
      </trkpt>
      <trkpt lat="45.98788" lon="4.89654">
        <ele>291</ele>
        <time>2018-11-15T10:19:04Z</time>
      </trkpt>
      <trkpt lat="45.98791" lon="4.89657">
        <ele>291</ele>
        <time>2018-11-15T10:19:05Z</time>
      </trkpt>
      <trkpt lat="45.98798" lon="4.89665">
        <ele>291</ele>
        <time>2018-11-15T10:19:07Z</time>
      </trkpt>
      <trkpt lat="45.98801" lon="4.89669">
        <ele>291</ele>
        <time>2018-11-15T10:19:08Z</time>
      </trkpt>
      <trkpt lat="45.98807" lon="4.89676">
        <ele>292</ele>
        <time>2018-11-15T10:19:10Z</time>
      </trkpt>
      <trkpt lat="45.98811" lon="4.8968">
        <ele>292</ele>
        <time>2018-11-15T10:19:11Z</time>
      </trkpt>
      <trkpt lat="45.98817" lon="4.89688">
        <ele>292</ele>
        <time>2018-11-15T10:19:13Z</time>
      </trkpt>
      <trkpt lat="45.98821" lon="4.89691">
        <ele>292</ele>
        <time>2018-11-15T10:19:14Z</time>
      </trkpt>
      <trkpt lat="45.98828" lon="4.89698">
        <ele>292</ele>
        <time>2018-11-15T10:19:16Z</time>
      </trkpt>
      <trkpt lat="45.98832" lon="4.89701">
        <ele>292</ele>
        <time>2018-11-15T10:19:17Z</time>
      </trkpt>
      <trkpt lat="45.98839" lon="4.89707">
        <ele>292</ele>
        <time>2018-11-15T10:19:19Z</time>
      </trkpt>
      <trkpt lat="45.98842" lon="4.89711">
        <ele>293</ele>
        <time>2018-11-15T10:19:20Z</time>
      </trkpt>
      <trkpt lat="45.98849" lon="4.89717">
        <ele>293</ele>
        <time>2018-11-15T10:19:22Z</time>
      </trkpt>
      <trkpt lat="45.98853" lon="4.8972">
        <ele>293</ele>
        <time>2018-11-15T10:19:23Z</time>
      </trkpt>
      <trkpt lat="45.9886" lon="4.89725">
        <ele>293</ele>
        <time>2018-11-15T10:19:25Z</time>
      </trkpt>
      <trkpt lat="45.98864" lon="4.89728">
        <ele>293</ele>
        <time>2018-11-15T10:19:26Z</time>
      </trkpt>
      <trkpt lat="45.98871" lon="4.89734">
        <ele>293</ele>
        <time>2018-11-15T10:19:28Z</time>
      </trkpt>
      <trkpt lat="45.98874" lon="4.89736">
        <ele>293</ele>
        <time>2018-11-15T10:19:29Z</time>
      </trkpt>
      <trkpt lat="45.98882" lon="4.89742">
        <ele>293</ele>
        <time>2018-11-15T10:19:31Z</time>
      </trkpt>
      <trkpt lat="45.98886" lon="4.89745">
        <ele>293</ele>
        <time>2018-11-15T10:19:32Z</time>
      </trkpt>
      <trkpt lat="45.9889" lon="4.89747">
        <ele>293</ele>
        <time>2018-11-15T10:19:33Z</time>
      </trkpt>
      <trkpt lat="45.98894" lon="4.89749">
        <ele>293</ele>
        <time>2018-11-15T10:19:34Z</time>
      </trkpt>
      <trkpt lat="45.98898" lon="4.89752">
        <ele>293</ele>
        <time>2018-11-15T10:19:35Z</time>
      </trkpt>
      <trkpt lat="45.98902" lon="4.89755">
        <ele>293</ele>
        <time>2018-11-15T10:19:36Z</time>
      </trkpt>
      <trkpt lat="45.98906" lon="4.89758">
        <ele>293</ele>
        <time>2018-11-15T10:19:37Z</time>
      </trkpt>
      <trkpt lat="45.98911" lon="4.89761">
        <ele>293</ele>
        <time>2018-11-15T10:19:38Z</time>
      </trkpt>
      <trkpt lat="45.98915" lon="4.89765">
        <ele>293</ele>
        <time>2018-11-15T10:19:39Z</time>
      </trkpt>
      <trkpt lat="45.9892" lon="4.89768">
        <ele>293</ele>
        <time>2018-11-15T10:19:40Z</time>
      </trkpt>
      <trkpt lat="45.98925" lon="4.89771">
        <ele>293</ele>
        <time>2018-11-15T10:19:41Z</time>
      </trkpt>
      <trkpt lat="45.98929" lon="4.89774">
        <ele>293</ele>
        <time>2018-11-15T10:19:42Z</time>
      </trkpt>
      <trkpt lat="45.98934" lon="4.89777">
        <ele>293</ele>
        <time>2018-11-15T10:19:43Z</time>
      </trkpt>
      <trkpt lat="45.98938" lon="4.89781">
        <ele>293</ele>
        <time>2018-11-15T10:19:44Z</time>
      </trkpt>
      <trkpt lat="45.98942" lon="4.89784">
        <ele>293</ele>
        <time>2018-11-15T10:19:45Z</time>
      </trkpt>
      <trkpt lat="45.98947" lon="4.89787">
        <ele>293</ele>
        <time>2018-11-15T10:19:46Z</time>
      </trkpt>
      <trkpt lat="45.98951" lon="4.8979">
        <ele>293</ele>
        <time>2018-11-15T10:19:47Z</time>
      </trkpt>
      <trkpt lat="45.98955" lon="4.89793">
        <ele>293</ele>
        <time>2018-11-15T10:19:48Z</time>
      </trkpt>
      <trkpt lat="45.98959" lon="4.89797">
        <ele>293</ele>
        <time>2018-11-15T10:19:49Z</time>
      </trkpt>
      <trkpt lat="45.98963" lon="4.898">
        <ele>293</ele>
        <time>2018-11-15T10:19:50Z</time>
      </trkpt>
      <trkpt lat="45.98969" lon="4.89808">
        <ele>293</ele>
        <time>2018-11-15T10:19:52Z</time>
      </trkpt>
      <trkpt lat="45.98973" lon="4.89812">
        <ele>293</ele>
        <time>2018-11-15T10:19:53Z</time>
      </trkpt>
      <trkpt lat="45.98977" lon="4.89816">
        <ele>293</ele>
        <time>2018-11-15T10:19:54Z</time>
      </trkpt>
      <trkpt lat="45.9898" lon="4.8982">
        <ele>293</ele>
        <time>2018-11-15T10:19:55Z</time>
      </trkpt>
      <trkpt lat="45.98984" lon="4.89825">
        <ele>293</ele>
        <time>2018-11-15T10:19:56Z</time>
      </trkpt>
      <trkpt lat="45.98988" lon="4.8983">
        <ele>293</ele>
        <time>2018-11-15T10:19:57Z</time>
      </trkpt>
      <trkpt lat="45.98992" lon="4.89835">
        <ele>293</ele>
        <time>2018-11-15T10:19:58Z</time>
      </trkpt>
      <trkpt lat="45.98997" lon="4.8984">
        <ele>293</ele>
        <time>2018-11-15T10:19:59Z</time>
      </trkpt>
      <trkpt lat="45.99001" lon="4.89845">
        <ele>293</ele>
        <time>2018-11-15T10:20:00Z</time>
      </trkpt>
      <trkpt lat="45.99005" lon="4.89851">
        <ele>293</ele>
        <time>2018-11-15T10:20:01Z</time>
      </trkpt>
      <trkpt lat="45.99009" lon="4.89855">
        <ele>293</ele>
        <time>2018-11-15T10:20:02Z</time>
      </trkpt>
      <trkpt lat="45.99013" lon="4.8986">
        <ele>293</ele>
        <time>2018-11-15T10:20:03Z</time>
      </trkpt>
      <trkpt lat="45.99017" lon="4.89865">
        <ele>293</ele>
        <time>2018-11-15T10:20:04Z</time>
      </trkpt>
      <trkpt lat="45.99021" lon="4.8987">
        <ele>293</ele>
        <time>2018-11-15T10:20:05Z</time>
      </trkpt>
      <trkpt lat="45.99025" lon="4.89875">
        <ele>293</ele>
        <time>2018-11-15T10:20:06Z</time>
      </trkpt>
      <trkpt lat="45.99029" lon="4.8988">
        <ele>293</ele>
        <time>2018-11-15T10:20:07Z</time>
      </trkpt>
      <trkpt lat="45.99032" lon="4.89885">
        <ele>293</ele>
        <time>2018-11-15T10:20:08Z</time>
      </trkpt>
      <trkpt lat="45.99036" lon="4.89889">
        <ele>293</ele>
        <time>2018-11-15T10:20:09Z</time>
      </trkpt>
      <trkpt lat="45.9904" lon="4.89894">
        <ele>293</ele>
        <time>2018-11-15T10:20:10Z</time>
      </trkpt>
      <trkpt lat="45.99044" lon="4.89899">
        <ele>293</ele>
        <time>2018-11-15T10:20:11Z</time>
      </trkpt>
      <trkpt lat="45.99047" lon="4.89904">
        <ele>293</ele>
        <time>2018-11-15T10:20:12Z</time>
      </trkpt>
      <trkpt lat="45.9905" lon="4.8991">
        <ele>293</ele>
        <time>2018-11-15T10:20:13Z</time>
      </trkpt>
      <trkpt lat="45.99054" lon="4.89914">
        <ele>293</ele>
        <time>2018-11-15T10:20:14Z</time>
      </trkpt>
      <trkpt lat="45.99058" lon="4.89918">
        <ele>294</ele>
        <time>2018-11-15T10:20:15Z</time>
      </trkpt>
      <trkpt lat="45.99062" lon="4.89923">
        <ele>294</ele>
        <time>2018-11-15T10:20:16Z</time>
      </trkpt>
      <trkpt lat="45.99066" lon="4.89928">
        <ele>294</ele>
        <time>2018-11-15T10:20:17Z</time>
      </trkpt>
      <trkpt lat="45.99069" lon="4.89934">
        <ele>294</ele>
        <time>2018-11-15T10:20:18Z</time>
      </trkpt>
      <trkpt lat="45.99072" lon="4.89939">
        <ele>294</ele>
        <time>2018-11-15T10:20:19Z</time>
      </trkpt>
      <trkpt lat="45.99076" lon="4.89945">
        <ele>294</ele>
        <time>2018-11-15T10:20:20Z</time>
      </trkpt>
      <trkpt lat="45.99079" lon="4.8995">
        <ele>294</ele>
        <time>2018-11-15T10:20:21Z</time>
      </trkpt>
      <trkpt lat="45.99083" lon="4.89955">
        <ele>294</ele>
        <time>2018-11-15T10:20:22Z</time>
      </trkpt>
      <trkpt lat="45.99086" lon="4.89959">
        <ele>295</ele>
        <time>2018-11-15T10:20:23Z</time>
      </trkpt>
      <trkpt lat="45.99089" lon="4.89965">
        <ele>295</ele>
        <time>2018-11-15T10:20:24Z</time>
      </trkpt>
      <trkpt lat="45.99092" lon="4.8997">
        <ele>295</ele>
        <time>2018-11-15T10:20:25Z</time>
      </trkpt>
      <trkpt lat="45.99096" lon="4.89974">
        <ele>295</ele>
        <time>2018-11-15T10:20:26Z</time>
      </trkpt>
      <trkpt lat="45.991" lon="4.89979">
        <ele>295</ele>
        <time>2018-11-15T10:20:27Z</time>
      </trkpt>
      <trkpt lat="45.99103" lon="4.89983">
        <ele>295</ele>
        <time>2018-11-15T10:20:28Z</time>
      </trkpt>
      <trkpt lat="45.99107" lon="4.89988">
        <ele>295</ele>
        <time>2018-11-15T10:20:29Z</time>
      </trkpt>
      <trkpt lat="45.9911" lon="4.89994">
        <ele>295</ele>
        <time>2018-11-15T10:20:30Z</time>
      </trkpt>
      <trkpt lat="45.99114" lon="4.89999">
        <ele>295</ele>
        <time>2018-11-15T10:20:31Z</time>
      </trkpt>
      <trkpt lat="45.99117" lon="4.90003">
        <ele>296</ele>
        <time>2018-11-15T10:20:32Z</time>
      </trkpt>
      <trkpt lat="45.99121" lon="4.90007">
        <ele>296</ele>
        <time>2018-11-15T10:20:33Z</time>
      </trkpt>
      <trkpt lat="45.99128" lon="4.90015">
        <ele>296</ele>
        <time>2018-11-15T10:20:35Z</time>
      </trkpt>
      <trkpt lat="45.99132" lon="4.9002">
        <ele>296</ele>
        <time>2018-11-15T10:20:36Z</time>
      </trkpt>
      <trkpt lat="45.99136" lon="4.90025">
        <ele>297</ele>
        <time>2018-11-15T10:20:37Z</time>
      </trkpt>
      <trkpt lat="45.99139" lon="4.9003">
        <ele>297</ele>
        <time>2018-11-15T10:20:38Z</time>
      </trkpt>
      <trkpt lat="45.99143" lon="4.90034">
        <ele>297</ele>
        <time>2018-11-15T10:20:39Z</time>
      </trkpt>
      <trkpt lat="45.99146" lon="4.90038">
        <ele>297</ele>
        <time>2018-11-15T10:20:40Z</time>
      </trkpt>
      <trkpt lat="45.9915" lon="4.90043">
        <ele>297</ele>
        <time>2018-11-15T10:20:41Z</time>
      </trkpt>
      <trkpt lat="45.99153" lon="4.90048">
        <ele>297</ele>
        <time>2018-11-15T10:20:42Z</time>
      </trkpt>
      <trkpt lat="45.99157" lon="4.90053">
        <ele>297</ele>
        <time>2018-11-15T10:20:43Z</time>
      </trkpt>
      <trkpt lat="45.99161" lon="4.90057">
        <ele>297</ele>
        <time>2018-11-15T10:20:44Z</time>
      </trkpt>
      <trkpt lat="45.99165" lon="4.90061">
        <ele>297</ele>
        <time>2018-11-15T10:20:45Z</time>
      </trkpt>
      <trkpt lat="45.99169" lon="4.90066">
        <ele>297</ele>
        <time>2018-11-15T10:20:46Z</time>
      </trkpt>
      <trkpt lat="45.99172" lon="4.90071">
        <ele>297</ele>
        <time>2018-11-15T10:20:47Z</time>
      </trkpt>
      <trkpt lat="45.99175" lon="4.90077">
        <ele>297</ele>
        <time>2018-11-15T10:20:48Z</time>
      </trkpt>
      <trkpt lat="45.99182" lon="4.90085">
        <ele>297</ele>
        <time>2018-11-15T10:20:50Z</time>
      </trkpt>
      <trkpt lat="45.99185" lon="4.90091">
        <ele>297</ele>
        <time>2018-11-15T10:20:51Z</time>
      </trkpt>
      <trkpt lat="45.99191" lon="4.901">
        <ele>297</ele>
        <time>2018-11-15T10:20:53Z</time>
      </trkpt>
      <trkpt lat="45.99196" lon="4.90103">
        <ele>297</ele>
        <time>2018-11-15T10:20:54Z</time>
      </trkpt>
      <trkpt lat="45.992" lon="4.90107">
        <ele>297</ele>
        <time>2018-11-15T10:20:55Z</time>
      </trkpt>
      <trkpt lat="45.99203" lon="4.90113">
        <ele>297</ele>
        <time>2018-11-15T10:20:56Z</time>
      </trkpt>
      <trkpt lat="45.99206" lon="4.90119">
        <ele>297</ele>
        <time>2018-11-15T10:20:57Z</time>
      </trkpt>
      <trkpt lat="45.9921" lon="4.90124">
        <ele>297</ele>
        <time>2018-11-15T10:20:58Z</time>
      </trkpt>
      <trkpt lat="45.99213" lon="4.90129">
        <ele>297</ele>
        <time>2018-11-15T10:20:59Z</time>
      </trkpt>
      <trkpt lat="45.99216" lon="4.90134">
        <ele>297</ele>
        <time>2018-11-15T10:21:00Z</time>
      </trkpt>
      <trkpt lat="45.99223" lon="4.90141">
        <ele>297</ele>
        <time>2018-11-15T10:21:02Z</time>
      </trkpt>
      <trkpt lat="45.99226" lon="4.90147">
        <ele>297</ele>
        <time>2018-11-15T10:21:03Z</time>
      </trkpt>
      <trkpt lat="45.99229" lon="4.90154">
        <ele>297</ele>
        <time>2018-11-15T10:21:04Z</time>
      </trkpt>
      <trkpt lat="45.99233" lon="4.90158">
        <ele>297</ele>
        <time>2018-11-15T10:21:05Z</time>
      </trkpt>
      <trkpt lat="45.99236" lon="4.90163">
        <ele>297</ele>
        <time>2018-11-15T10:21:06Z</time>
      </trkpt>
      <trkpt lat="45.9924" lon="4.90167">
        <ele>297</ele>
        <time>2018-11-15T10:21:07Z</time>
      </trkpt>
      <trkpt lat="45.99244" lon="4.9017">
        <ele>297</ele>
        <time>2018-11-15T10:21:08Z</time>
      </trkpt>
      <trkpt lat="45.99248" lon="4.90175">
        <ele>297</ele>
        <time>2018-11-15T10:21:09Z</time>
      </trkpt>
      <trkpt lat="45.99251" lon="4.9018">
        <ele>297</ele>
        <time>2018-11-15T10:21:10Z</time>
      </trkpt>
      <trkpt lat="45.99255" lon="4.90185">
        <ele>298</ele>
        <time>2018-11-15T10:21:11Z</time>
      </trkpt>
      <trkpt lat="45.99259" lon="4.90189">
        <ele>298</ele>
        <time>2018-11-15T10:21:12Z</time>
      </trkpt>
      <trkpt lat="45.99263" lon="4.90193">
        <ele>298</ele>
        <time>2018-11-15T10:21:13Z</time>
      </trkpt>
      <trkpt lat="45.99266" lon="4.90198">
        <ele>298</ele>
        <time>2018-11-15T10:21:14Z</time>
      </trkpt>
      <trkpt lat="45.9927" lon="4.90203">
        <ele>298</ele>
        <time>2018-11-15T10:21:15Z</time>
      </trkpt>
      <trkpt lat="45.99276" lon="4.90212">
        <ele>298</ele>
        <time>2018-11-15T10:21:17Z</time>
      </trkpt>
      <trkpt lat="45.99279" lon="4.90216">
        <ele>298</ele>
        <time>2018-11-15T10:21:18Z</time>
      </trkpt>
      <trkpt lat="45.99286" lon="4.90224">
        <ele>298</ele>
        <time>2018-11-15T10:21:20Z</time>
      </trkpt>
      <trkpt lat="45.99289" lon="4.90228">
        <ele>298</ele>
        <time>2018-11-15T10:21:21Z</time>
      </trkpt>
      <trkpt lat="45.99292" lon="4.90234">
        <ele>298</ele>
        <time>2018-11-15T10:21:22Z</time>
      </trkpt>
      <trkpt lat="45.99295" lon="4.90239">
        <ele>298</ele>
        <time>2018-11-15T10:21:23Z</time>
      </trkpt>
      <trkpt lat="45.99298" lon="4.90243">
        <ele>298</ele>
        <time>2018-11-15T10:21:24Z</time>
      </trkpt>
      <trkpt lat="45.99301" lon="4.90248">
        <ele>298</ele>
        <time>2018-11-15T10:21:25Z</time>
      </trkpt>
      <trkpt lat="45.99307" lon="4.90256">
        <ele>299</ele>
        <time>2018-11-15T10:21:27Z</time>
      </trkpt>
      <trkpt lat="45.99308" lon="4.90258">
        <ele>299</ele>
        <time>2018-11-15T10:21:28Z</time>
      </trkpt>
      <trkpt lat="45.99312" lon="4.90268">
        <ele>299</ele>
        <time>2018-11-15T10:21:31Z</time>
      </trkpt>
      <trkpt lat="45.99313" lon="4.90271">
        <ele>299</ele>
        <time>2018-11-15T10:21:32Z</time>
      </trkpt>
      <trkpt lat="45.99314" lon="4.90281">
        <ele>299</ele>
        <time>2018-11-15T10:21:35Z</time>
      </trkpt>
      <trkpt lat="45.99314" lon="4.90285">
        <ele>299</ele>
        <time>2018-11-15T10:21:36Z</time>
      </trkpt>
      <trkpt lat="45.9932" lon="4.90294">
        <ele>299</ele>
        <time>2018-11-15T10:21:38Z</time>
      </trkpt>
      <trkpt lat="45.99324" lon="4.90296">
        <ele>299</ele>
        <time>2018-11-15T10:21:39Z</time>
      </trkpt>
      <trkpt lat="45.99333" lon="4.90296">
        <ele>299</ele>
        <time>2018-11-15T10:21:41Z</time>
      </trkpt>
      <trkpt lat="45.99338" lon="4.90297">
        <ele>300</ele>
        <time>2018-11-15T10:21:42Z</time>
      </trkpt>
      <trkpt lat="45.99345" lon="4.90296">
        <ele>300</ele>
        <time>2018-11-15T10:21:43Z</time>
      </trkpt>
      <trkpt lat="45.99349" lon="4.90296">
        <ele>300</ele>
        <time>2018-11-15T10:21:44Z</time>
      </trkpt>
      <trkpt lat="45.99354" lon="4.90296">
        <ele>300</ele>
        <time>2018-11-15T10:21:45Z</time>
      </trkpt>
      <trkpt lat="45.99358" lon="4.90297">
        <ele>300</ele>
        <time>2018-11-15T10:21:46Z</time>
      </trkpt>
      <trkpt lat="45.99363" lon="4.90297">
        <ele>300</ele>
        <time>2018-11-15T10:21:47Z</time>
      </trkpt>
      <trkpt lat="45.99368" lon="4.90297">
        <ele>300</ele>
        <time>2018-11-15T10:21:48Z</time>
      </trkpt>
      <trkpt lat="45.99374" lon="4.90297">
        <ele>300</ele>
        <time>2018-11-15T10:21:49Z</time>
      </trkpt>
      <trkpt lat="45.99378" lon="4.90297">
        <ele>300</ele>
        <time>2018-11-15T10:21:50Z</time>
      </trkpt>
      <trkpt lat="45.99387" lon="4.90296">
        <ele>300</ele>
        <time>2018-11-15T10:21:52Z</time>
      </trkpt>
      <trkpt lat="45.99391" lon="4.90297">
        <ele>300</ele>
        <time>2018-11-15T10:21:53Z</time>
      </trkpt>
      <trkpt lat="45.99399" lon="4.90298">
        <ele>300</ele>
        <time>2018-11-15T10:21:55Z</time>
      </trkpt>
      <trkpt lat="45.99401" lon="4.90298">
        <ele>300</ele>
        <time>2018-11-15T10:21:56Z</time>
      </trkpt>
      <trkpt lat="45.99404" lon="4.90298">
        <ele>300</ele>
        <time>2018-11-15T10:21:57Z</time>
      </trkpt>
      <trkpt lat="45.9941" lon="4.90299">
        <ele>300</ele>
        <time>2018-11-15T10:21:58Z</time>
      </trkpt>
      <trkpt lat="45.99419" lon="4.903">
        <ele>300</ele>
        <time>2018-11-15T10:22:00Z</time>
      </trkpt>
      <trkpt lat="45.99423" lon="4.903">
        <ele>300</ele>
        <time>2018-11-15T10:22:01Z</time>
      </trkpt>
      <trkpt lat="45.99428" lon="4.90301">
        <ele>300</ele>
        <time>2018-11-15T10:22:02Z</time>
      </trkpt>
      <trkpt lat="45.99432" lon="4.90302">
        <ele>300</ele>
        <time>2018-11-15T10:22:03Z</time>
      </trkpt>
      <trkpt lat="45.99437" lon="4.90303">
        <ele>300</ele>
        <time>2018-11-15T10:22:04Z</time>
      </trkpt>
      <trkpt lat="45.99441" lon="4.90304">
        <ele>300</ele>
        <time>2018-11-15T10:22:05Z</time>
      </trkpt>
      <trkpt lat="45.99446" lon="4.90305">
        <ele>300</ele>
        <time>2018-11-15T10:22:06Z</time>
      </trkpt>
      <trkpt lat="45.99451" lon="4.90306">
        <ele>300</ele>
        <time>2018-11-15T10:22:07Z</time>
      </trkpt>
      <trkpt lat="45.99456" lon="4.90307">
        <ele>300</ele>
        <time>2018-11-15T10:22:08Z</time>
      </trkpt>
      <trkpt lat="45.9946" lon="4.90307">
        <ele>300</ele>
        <time>2018-11-15T10:22:09Z</time>
      </trkpt>
      <trkpt lat="45.99465" lon="4.90308">
        <ele>300</ele>
        <time>2018-11-15T10:22:10Z</time>
      </trkpt>
      <trkpt lat="45.99469" lon="4.90308">
        <ele>300</ele>
        <time>2018-11-15T10:22:11Z</time>
      </trkpt>
      <trkpt lat="45.99478" lon="4.90309">
        <ele>300</ele>
        <time>2018-11-15T10:22:13Z</time>
      </trkpt>
      <trkpt lat="45.99482" lon="4.9031">
        <ele>300</ele>
        <time>2018-11-15T10:22:14Z</time>
      </trkpt>
      <trkpt lat="45.99489" lon="4.90309">
        <ele>300</ele>
        <time>2018-11-15T10:22:16Z</time>
      </trkpt>
      <trkpt lat="45.99493" lon="4.9031">
        <ele>300</ele>
        <time>2018-11-15T10:22:17Z</time>
      </trkpt>
      <trkpt lat="45.99502" lon="4.90311">
        <ele>300</ele>
        <time>2018-11-15T10:22:19Z</time>
      </trkpt>
      <trkpt lat="45.99506" lon="4.90312">
        <ele>300</ele>
        <time>2018-11-15T10:22:20Z</time>
      </trkpt>
      <trkpt lat="45.99514" lon="4.90314">
        <ele>300</ele>
        <time>2018-11-15T10:22:22Z</time>
      </trkpt>
      <trkpt lat="45.99518" lon="4.90315">
        <ele>300</ele>
        <time>2018-11-15T10:22:23Z</time>
      </trkpt>
      <trkpt lat="45.99526" lon="4.90316">
        <ele>300</ele>
        <time>2018-11-15T10:22:26Z</time>
      </trkpt>
      <trkpt lat="45.99529" lon="4.90316">
        <ele>300</ele>
        <time>2018-11-15T10:22:27Z</time>
      </trkpt>
      <trkpt lat="45.99535" lon="4.90316">
        <ele>300</ele>
        <time>2018-11-15T10:22:28Z</time>
      </trkpt>
      <trkpt lat="45.99539" lon="4.90317">
        <ele>300</ele>
        <time>2018-11-15T10:22:29Z</time>
      </trkpt>
      <trkpt lat="45.99547" lon="4.90318">
        <ele>300</ele>
        <time>2018-11-15T10:22:31Z</time>
      </trkpt>
      <trkpt lat="45.9955" lon="4.90318">
        <ele>300</ele>
        <time>2018-11-15T10:22:32Z</time>
      </trkpt>
      <trkpt lat="45.99558" lon="4.90319">
        <ele>301</ele>
        <time>2018-11-15T10:22:35Z</time>
      </trkpt>
      <trkpt lat="45.99562" lon="4.9032">
        <ele>301</ele>
        <time>2018-11-15T10:22:36Z</time>
      </trkpt>
      <trkpt lat="45.99567" lon="4.9032">
        <ele>301</ele>
        <time>2018-11-15T10:22:37Z</time>
      </trkpt>
      <trkpt lat="45.99571" lon="4.90321">
        <ele>301</ele>
        <time>2018-11-15T10:22:38Z</time>
      </trkpt>
      <trkpt lat="45.99579" lon="4.90321">
        <ele>301</ele>
        <time>2018-11-15T10:22:41Z</time>
      </trkpt>
      <trkpt lat="45.99582" lon="4.90322">
        <ele>301</ele>
        <time>2018-11-15T10:22:42Z</time>
      </trkpt>
      <trkpt lat="45.9959" lon="4.90322">
        <ele>301</ele>
        <time>2018-11-15T10:22:45Z</time>
      </trkpt>
      <trkpt lat="45.99593" lon="4.90322">
        <ele>301</ele>
        <time>2018-11-15T10:22:46Z</time>
      </trkpt>
      <trkpt lat="45.99596" lon="4.90321">
        <ele>301</ele>
        <time>2018-11-15T10:22:47Z</time>
      </trkpt>
      <trkpt lat="45.99603" lon="4.90321">
        <ele>301</ele>
        <time>2018-11-15T10:22:48Z</time>
      </trkpt>
      <trkpt lat="45.9961" lon="4.90322">
        <ele>301</ele>
        <time>2018-11-15T10:22:50Z</time>
      </trkpt>
      <trkpt lat="45.99614" lon="4.90323">
        <ele>302</ele>
        <time>2018-11-15T10:22:51Z</time>
      </trkpt>
      <trkpt lat="45.99622" lon="4.90324">
        <ele>302</ele>
        <time>2018-11-15T10:22:53Z</time>
      </trkpt>
      <trkpt lat="45.99626" lon="4.90324">
        <ele>302</ele>
        <time>2018-11-15T10:22:54Z</time>
      </trkpt>
      <trkpt lat="45.99634" lon="4.90325">
        <ele>302</ele>
        <time>2018-11-15T10:22:56Z</time>
      </trkpt>
      <trkpt lat="45.99638" lon="4.90325">
        <ele>302</ele>
        <time>2018-11-15T10:22:57Z</time>
      </trkpt>
      <trkpt lat="45.99646" lon="4.90325">
        <ele>302</ele>
        <time>2018-11-15T10:23:00Z</time>
      </trkpt>
      <trkpt lat="45.99648" lon="4.90325">
        <ele>302</ele>
        <time>2018-11-15T10:23:01Z</time>
      </trkpt>
      <trkpt lat="45.99654" lon="4.90326">
        <ele>302</ele>
        <time>2018-11-15T10:23:03Z</time>
      </trkpt>
      <trkpt lat="45.99657" lon="4.90326">
        <ele>302</ele>
        <time>2018-11-15T10:23:04Z</time>
      </trkpt>
      <trkpt lat="45.99665" lon="4.90326">
        <ele>302</ele>
        <time>2018-11-15T10:23:07Z</time>
      </trkpt>
      <trkpt lat="45.99667" lon="4.90325">
        <ele>303</ele>
        <time>2018-11-15T10:23:08Z</time>
      </trkpt>
      <trkpt lat="45.99672" lon="4.90315">
        <ele>304</ele>
        <time>2018-11-15T10:23:12Z</time>
      </trkpt>
      <trkpt lat="45.99672" lon="4.90311">
        <ele>304</ele>
        <time>2018-11-15T10:23:13Z</time>
      </trkpt>
      <trkpt lat="45.99673" lon="4.90299">
        <ele>304</ele>
        <time>2018-11-15T10:23:15Z</time>
      </trkpt>
      <trkpt lat="45.99674" lon="4.90296">
        <ele>304</ele>
        <time>2018-11-15T10:23:16Z</time>
      </trkpt>
      <trkpt lat="45.99677" lon="4.90285">
        <ele>304</ele>
        <time>2018-11-15T10:23:18Z</time>
      </trkpt>
      <trkpt lat="45.99679" lon="4.90278">
        <ele>304</ele>
        <time>2018-11-15T10:23:19Z</time>
      </trkpt>
      <trkpt lat="45.99681" lon="4.90268">
        <ele>305</ele>
        <time>2018-11-15T10:23:21Z</time>
      </trkpt>
      <trkpt lat="45.99682" lon="4.90263">
        <ele>305</ele>
        <time>2018-11-15T10:23:22Z</time>
      </trkpt>
      <trkpt lat="45.99683" lon="4.90252">
        <ele>304</ele>
        <time>2018-11-15T10:23:24Z</time>
      </trkpt>
      <trkpt lat="45.99683" lon="4.90246">
        <ele>304</ele>
        <time>2018-11-15T10:23:25Z</time>
      </trkpt>
      <trkpt lat="45.9968" lon="4.90234">
        <ele>304</ele>
        <time>2018-11-15T10:23:27Z</time>
      </trkpt>
      <trkpt lat="45.99679" lon="4.90228">
        <ele>304</ele>
        <time>2018-11-15T10:23:28Z</time>
      </trkpt>
      <trkpt lat="45.99677" lon="4.90216">
        <ele>303</ele>
        <time>2018-11-15T10:23:30Z</time>
      </trkpt>
      <trkpt lat="45.99676" lon="4.90211">
        <ele>303</ele>
        <time>2018-11-15T10:23:31Z</time>
      </trkpt>
      <trkpt lat="45.99675" lon="4.90203">
        <ele>303</ele>
        <time>2018-11-15T10:23:32Z</time>
      </trkpt>
      <trkpt lat="45.99674" lon="4.90196">
        <ele>303</ele>
        <time>2018-11-15T10:23:33Z</time>
      </trkpt>
      <trkpt lat="45.99672" lon="4.90188">
        <ele>302</ele>
        <time>2018-11-15T10:23:34Z</time>
      </trkpt>
      <trkpt lat="45.9967" lon="4.9018">
        <ele>302</ele>
        <time>2018-11-15T10:23:35Z</time>
      </trkpt>
      <trkpt lat="45.99668" lon="4.90171">
        <ele>301</ele>
        <time>2018-11-15T10:23:36Z</time>
      </trkpt>
      <trkpt lat="45.99663" lon="4.90161">
        <ele>301</ele>
        <time>2018-11-15T10:23:37Z</time>
      </trkpt>
      <trkpt lat="45.99657" lon="4.9015">
        <ele>300</ele>
        <time>2018-11-15T10:23:38Z</time>
      </trkpt>
      <trkpt lat="45.99655" lon="4.9014">
        <ele>300</ele>
        <time>2018-11-15T10:23:39Z</time>
      </trkpt>
      <trkpt lat="45.99652" lon="4.9013">
        <ele>299</ele>
        <time>2018-11-15T10:23:40Z</time>
      </trkpt>
      <trkpt lat="45.99649" lon="4.90121">
        <ele>299</ele>
        <time>2018-11-15T10:23:41Z</time>
      </trkpt>
      <trkpt lat="45.99647" lon="4.90111">
        <ele>299</ele>
        <time>2018-11-15T10:23:42Z</time>
      </trkpt>
      <trkpt lat="45.99644" lon="4.901">
        <ele>299</ele>
        <time>2018-11-15T10:23:43Z</time>
      </trkpt>
      <trkpt lat="45.99637" lon="4.90086">
        <ele>298</ele>
        <time>2018-11-15T10:23:44Z</time>
      </trkpt>
      <trkpt lat="45.99634" lon="4.90076">
        <ele>297</ele>
        <time>2018-11-15T10:23:45Z</time>
      </trkpt>
      <trkpt lat="45.9963" lon="4.90066">
        <ele>297</ele>
        <time>2018-11-15T10:23:46Z</time>
      </trkpt>
      <trkpt lat="45.99627" lon="4.90057">
        <ele>297</ele>
        <time>2018-11-15T10:23:47Z</time>
      </trkpt>
      <trkpt lat="45.99624" lon="4.90047">
        <ele>297</ele>
        <time>2018-11-15T10:23:48Z</time>
      </trkpt>
      <trkpt lat="45.99621" lon="4.90033">
        <ele>296</ele>
        <time>2018-11-15T10:23:49Z</time>
      </trkpt>
      <trkpt lat="45.99618" lon="4.90023">
        <ele>296</ele>
        <time>2018-11-15T10:23:50Z</time>
      </trkpt>
      <trkpt lat="45.99616" lon="4.90013">
        <ele>296</ele>
        <time>2018-11-15T10:23:51Z</time>
      </trkpt>
      <trkpt lat="45.99615" lon="4.90002">
        <ele>296</ele>
        <time>2018-11-15T10:23:52Z</time>
      </trkpt>
      <trkpt lat="45.99613" lon="4.89994">
        <ele>294</ele>
        <time>2018-11-15T10:23:53Z</time>
      </trkpt>
      <trkpt lat="45.99608" lon="4.89985">
        <ele>294</ele>
        <time>2018-11-15T10:23:54Z</time>
      </trkpt>
      <trkpt lat="45.99607" lon="4.89976">
        <ele>294</ele>
        <time>2018-11-15T10:23:55Z</time>
      </trkpt>
      <trkpt lat="45.99607" lon="4.89965">
        <ele>294</ele>
        <time>2018-11-15T10:23:56Z</time>
      </trkpt>
      <trkpt lat="45.99604" lon="4.89954">
        <ele>294</ele>
        <time>2018-11-15T10:23:57Z</time>
      </trkpt>
      <trkpt lat="45.99605" lon="4.89945">
        <ele>294</ele>
        <time>2018-11-15T10:23:58Z</time>
      </trkpt>
      <trkpt lat="45.99606" lon="4.89935">
        <ele>293</ele>
        <time>2018-11-15T10:23:59Z</time>
      </trkpt>
      <trkpt lat="45.99605" lon="4.89925">
        <ele>293</ele>
        <time>2018-11-15T10:24:00Z</time>
      </trkpt>
      <trkpt lat="45.99604" lon="4.89917">
        <ele>292</ele>
        <time>2018-11-15T10:24:01Z</time>
      </trkpt>
      <trkpt lat="45.99605" lon="4.89907">
        <ele>292</ele>
        <time>2018-11-15T10:24:02Z</time>
      </trkpt>
      <trkpt lat="45.99605" lon="4.89898">
        <ele>292</ele>
        <time>2018-11-15T10:24:03Z</time>
      </trkpt>
      <trkpt lat="45.99604" lon="4.89889">
        <ele>292</ele>
        <time>2018-11-15T10:24:04Z</time>
      </trkpt>
      <trkpt lat="45.99605" lon="4.89879">
        <ele>292</ele>
        <time>2018-11-15T10:24:05Z</time>
      </trkpt>
      <trkpt lat="45.99605" lon="4.8987">
        <ele>293</ele>
        <time>2018-11-15T10:24:06Z</time>
      </trkpt>
      <trkpt lat="45.99606" lon="4.89862">
        <ele>293</ele>
        <time>2018-11-15T10:24:07Z</time>
      </trkpt>
      <trkpt lat="45.99605" lon="4.89854">
        <ele>293</ele>
        <time>2018-11-15T10:24:08Z</time>
      </trkpt>
      <trkpt lat="45.99606" lon="4.89845">
        <ele>293</ele>
        <time>2018-11-15T10:24:09Z</time>
      </trkpt>
      <trkpt lat="45.99607" lon="4.89838">
        <ele>293</ele>
        <time>2018-11-15T10:24:10Z</time>
      </trkpt>
      <trkpt lat="45.99607" lon="4.89828">
        <ele>292</ele>
        <time>2018-11-15T10:24:11Z</time>
      </trkpt>
      <trkpt lat="45.99607" lon="4.89819">
        <ele>292</ele>
        <time>2018-11-15T10:24:12Z</time>
      </trkpt>
      <trkpt lat="45.99607" lon="4.89811">
        <ele>292</ele>
        <time>2018-11-15T10:24:13Z</time>
      </trkpt>
      <trkpt lat="45.99606" lon="4.89802">
        <ele>292</ele>
        <time>2018-11-15T10:24:14Z</time>
      </trkpt>
      <trkpt lat="45.99609" lon="4.89795">
        <ele>292</ele>
        <time>2018-11-15T10:24:15Z</time>
      </trkpt>
      <trkpt lat="45.99609" lon="4.89786">
        <ele>292</ele>
        <time>2018-11-15T10:24:16Z</time>
      </trkpt>
      <trkpt lat="45.9961" lon="4.8978">
        <ele>292</ele>
        <time>2018-11-15T10:24:17Z</time>
      </trkpt>
      <trkpt lat="45.9961" lon="4.89771">
        <ele>292</ele>
        <time>2018-11-15T10:24:18Z</time>
      </trkpt>
      <trkpt lat="45.99608" lon="4.8976">
        <ele>292</ele>
        <time>2018-11-15T10:24:19Z</time>
      </trkpt>
      <trkpt lat="45.99609" lon="4.89748">
        <ele>292</ele>
        <time>2018-11-15T10:24:20Z</time>
      </trkpt>
      <trkpt lat="45.99608" lon="4.89739">
        <ele>292</ele>
        <time>2018-11-15T10:24:21Z</time>
      </trkpt>
      <trkpt lat="45.99609" lon="4.8973">
        <ele>292</ele>
        <time>2018-11-15T10:24:22Z</time>
      </trkpt>
      <trkpt lat="45.99606" lon="4.8972">
        <ele>292</ele>
        <time>2018-11-15T10:24:23Z</time>
      </trkpt>
      <trkpt lat="45.99605" lon="4.89711">
        <ele>292</ele>
        <time>2018-11-15T10:24:24Z</time>
      </trkpt>
      <trkpt lat="45.99605" lon="4.89705">
        <ele>292</ele>
        <time>2018-11-15T10:24:25Z</time>
      </trkpt>
      <trkpt lat="45.99605" lon="4.89696">
        <ele>291</ele>
        <time>2018-11-15T10:24:26Z</time>
      </trkpt>
      <trkpt lat="45.99606" lon="4.89689">
        <ele>291</ele>
        <time>2018-11-15T10:24:27Z</time>
      </trkpt>
      <trkpt lat="45.99606" lon="4.89681">
        <ele>291</ele>
        <time>2018-11-15T10:24:28Z</time>
      </trkpt>
      <trkpt lat="45.99606" lon="4.89673">
        <ele>291</ele>
        <time>2018-11-15T10:24:29Z</time>
      </trkpt>
      <trkpt lat="45.99606" lon="4.89665">
        <ele>291</ele>
        <time>2018-11-15T10:24:30Z</time>
      </trkpt>
      <trkpt lat="45.99606" lon="4.89657">
        <ele>291</ele>
        <time>2018-11-15T10:24:31Z</time>
      </trkpt>
      <trkpt lat="45.99606" lon="4.8965">
        <ele>291</ele>
        <time>2018-11-15T10:24:32Z</time>
      </trkpt>
      <trkpt lat="45.99605" lon="4.89641">
        <ele>291</ele>
        <time>2018-11-15T10:24:33Z</time>
      </trkpt>
      <trkpt lat="45.99604" lon="4.89632">
        <ele>291</ele>
        <time>2018-11-15T10:24:34Z</time>
      </trkpt>
      <trkpt lat="45.99604" lon="4.89624">
        <ele>291</ele>
        <time>2018-11-15T10:24:35Z</time>
      </trkpt>
      <trkpt lat="45.99603" lon="4.89616">
        <ele>291</ele>
        <time>2018-11-15T10:24:36Z</time>
      </trkpt>
      <trkpt lat="45.99603" lon="4.89607">
        <ele>291</ele>
        <time>2018-11-15T10:24:37Z</time>
      </trkpt>
      <trkpt lat="45.99603" lon="4.89597">
        <ele>292</ele>
        <time>2018-11-15T10:24:38Z</time>
      </trkpt>
      <trkpt lat="45.99603" lon="4.89588">
        <ele>292</ele>
        <time>2018-11-15T10:24:39Z</time>
      </trkpt>
      <trkpt lat="45.99602" lon="4.8958">
        <ele>291</ele>
        <time>2018-11-15T10:24:40Z</time>
      </trkpt>
      <trkpt lat="45.99602" lon="4.89572">
        <ele>291</ele>
        <time>2018-11-15T10:24:41Z</time>
      </trkpt>
      <trkpt lat="45.99601" lon="4.89564">
        <ele>291</ele>
        <time>2018-11-15T10:24:42Z</time>
      </trkpt>
      <trkpt lat="45.99601" lon="4.89556">
        <ele>291</ele>
        <time>2018-11-15T10:24:43Z</time>
      </trkpt>
      <trkpt lat="45.99601" lon="4.89547">
        <ele>291</ele>
        <time>2018-11-15T10:24:44Z</time>
      </trkpt>
      <trkpt lat="45.99601" lon="4.89539">
        <ele>291</ele>
        <time>2018-11-15T10:24:45Z</time>
      </trkpt>
      <trkpt lat="45.99601" lon="4.89529">
        <ele>291</ele>
        <time>2018-11-15T10:24:46Z</time>
      </trkpt>
      <trkpt lat="45.996" lon="4.89521">
        <ele>291</ele>
        <time>2018-11-15T10:24:47Z</time>
      </trkpt>
      <trkpt lat="45.996" lon="4.89513">
        <ele>290</ele>
        <time>2018-11-15T10:24:48Z</time>
      </trkpt>
      <trkpt lat="45.99599" lon="4.89505">
        <ele>290</ele>
        <time>2018-11-15T10:24:49Z</time>
      </trkpt>
      <trkpt lat="45.99598" lon="4.89497">
        <ele>290</ele>
        <time>2018-11-15T10:24:50Z</time>
      </trkpt>
      <trkpt lat="45.99598" lon="4.8949">
        <ele>290</ele>
        <time>2018-11-15T10:24:51Z</time>
      </trkpt>
      <trkpt lat="45.99598" lon="4.89483">
        <ele>290</ele>
        <time>2018-11-15T10:24:52Z</time>
      </trkpt>
      <trkpt lat="45.996" lon="4.89477">
        <ele>290</ele>
        <time>2018-11-15T10:24:53Z</time>
      </trkpt>
      <trkpt lat="45.99599" lon="4.89464">
        <ele>290</ele>
        <time>2018-11-15T10:24:55Z</time>
      </trkpt>
      <trkpt lat="45.99599" lon="4.89458">
        <ele>290</ele>
        <time>2018-11-15T10:24:56Z</time>
      </trkpt>
      <trkpt lat="45.99598" lon="4.8945">
        <ele>290</ele>
        <time>2018-11-15T10:24:57Z</time>
      </trkpt>
      <trkpt lat="45.99598" lon="4.89443">
        <ele>290</ele>
        <time>2018-11-15T10:24:58Z</time>
      </trkpt>
      <trkpt lat="45.99598" lon="4.89436">
        <ele>290</ele>
        <time>2018-11-15T10:24:59Z</time>
      </trkpt>
      <trkpt lat="45.99597" lon="4.89429">
        <ele>290</ele>
        <time>2018-11-15T10:25:00Z</time>
      </trkpt>
      <trkpt lat="45.99597" lon="4.89421">
        <ele>290</ele>
        <time>2018-11-15T10:25:01Z</time>
      </trkpt>
      <trkpt lat="45.99596" lon="4.89412">
        <ele>290</ele>
        <time>2018-11-15T10:25:02Z</time>
      </trkpt>
      <trkpt lat="45.99595" lon="4.89404">
        <ele>290</ele>
        <time>2018-11-15T10:25:03Z</time>
      </trkpt>
      <trkpt lat="45.99594" lon="4.89398">
        <ele>290</ele>
        <time>2018-11-15T10:25:04Z</time>
      </trkpt>
      <trkpt lat="45.99596" lon="4.8939">
        <ele>290</ele>
        <time>2018-11-15T10:25:05Z</time>
      </trkpt>
      <trkpt lat="45.99595" lon="4.89384">
        <ele>290</ele>
        <time>2018-11-15T10:25:06Z</time>
      </trkpt>
      <trkpt lat="45.99594" lon="4.89376">
        <ele>290</ele>
        <time>2018-11-15T10:25:07Z</time>
      </trkpt>
      <trkpt lat="45.99594" lon="4.89368">
        <ele>289</ele>
        <time>2018-11-15T10:25:08Z</time>
      </trkpt>
      <trkpt lat="45.99594" lon="4.89359">
        <ele>289</ele>
        <time>2018-11-15T10:25:09Z</time>
      </trkpt>
      <trkpt lat="45.99594" lon="4.8935">
        <ele>289</ele>
        <time>2018-11-15T10:25:10Z</time>
      </trkpt>
      <trkpt lat="45.99594" lon="4.89342">
        <ele>289</ele>
        <time>2018-11-15T10:25:11Z</time>
      </trkpt>
      <trkpt lat="45.99592" lon="4.89333">
        <ele>289</ele>
        <time>2018-11-15T10:25:12Z</time>
      </trkpt>
      <trkpt lat="45.99591" lon="4.89324">
        <ele>289</ele>
        <time>2018-11-15T10:25:13Z</time>
      </trkpt>
      <trkpt lat="45.99591" lon="4.89316">
        <ele>289</ele>
        <time>2018-11-15T10:25:14Z</time>
      </trkpt>
      <trkpt lat="45.9959" lon="4.89307">
        <ele>289</ele>
        <time>2018-11-15T10:25:15Z</time>
      </trkpt>
      <trkpt lat="45.9959" lon="4.89299">
        <ele>289</ele>
        <time>2018-11-15T10:25:16Z</time>
      </trkpt>
      <trkpt lat="45.99589" lon="4.89291">
        <ele>289</ele>
        <time>2018-11-15T10:25:17Z</time>
      </trkpt>
      <trkpt lat="45.99588" lon="4.89283">
        <ele>289</ele>
        <time>2018-11-15T10:25:18Z</time>
      </trkpt>
      <trkpt lat="45.99587" lon="4.89276">
        <ele>289</ele>
        <time>2018-11-15T10:25:19Z</time>
      </trkpt>
      <trkpt lat="45.99587" lon="4.89268">
        <ele>288</ele>
        <time>2018-11-15T10:25:20Z</time>
      </trkpt>
      <trkpt lat="45.99586" lon="4.89262">
        <ele>288</ele>
        <time>2018-11-15T10:25:21Z</time>
      </trkpt>
      <trkpt lat="45.99586" lon="4.89253">
        <ele>288</ele>
        <time>2018-11-15T10:25:22Z</time>
      </trkpt>
      <trkpt lat="45.99585" lon="4.89245">
        <ele>288</ele>
        <time>2018-11-15T10:25:23Z</time>
      </trkpt>
      <trkpt lat="45.99584" lon="4.89236">
        <ele>288</ele>
        <time>2018-11-15T10:25:24Z</time>
      </trkpt>
      <trkpt lat="45.99583" lon="4.89228">
        <ele>288</ele>
        <time>2018-11-15T10:25:25Z</time>
      </trkpt>
      <trkpt lat="45.99582" lon="4.8922">
        <ele>288</ele>
        <time>2018-11-15T10:25:26Z</time>
      </trkpt>
      <trkpt lat="45.99581" lon="4.8921">
        <ele>288</ele>
        <time>2018-11-15T10:25:27Z</time>
      </trkpt>
      <trkpt lat="45.99581" lon="4.89201">
        <ele>288</ele>
        <time>2018-11-15T10:25:28Z</time>
      </trkpt>
      <trkpt lat="45.9958" lon="4.89192">
        <ele>288</ele>
        <time>2018-11-15T10:25:29Z</time>
      </trkpt>
      <trkpt lat="45.99579" lon="4.89184">
        <ele>288</ele>
        <time>2018-11-15T10:25:30Z</time>
      </trkpt>
      <trkpt lat="45.99579" lon="4.89175">
        <ele>288</ele>
        <time>2018-11-15T10:25:31Z</time>
      </trkpt>
      <trkpt lat="45.99578" lon="4.89166">
        <ele>288</ele>
        <time>2018-11-15T10:25:32Z</time>
      </trkpt>
      <trkpt lat="45.99577" lon="4.89157">
        <ele>288</ele>
        <time>2018-11-15T10:25:33Z</time>
      </trkpt>
      <trkpt lat="45.99576" lon="4.8915">
        <ele>289</ele>
        <time>2018-11-15T10:25:34Z</time>
      </trkpt>
      <trkpt lat="45.99575" lon="4.89141">
        <ele>289</ele>
        <time>2018-11-15T10:25:35Z</time>
      </trkpt>
      <trkpt lat="45.99575" lon="4.89133">
        <ele>289</ele>
        <time>2018-11-15T10:25:36Z</time>
      </trkpt>
      <trkpt lat="45.99575" lon="4.89128">
        <ele>289</ele>
        <time>2018-11-15T10:25:37Z</time>
      </trkpt>
      <trkpt lat="45.99575" lon="4.89119">
        <ele>289</ele>
        <time>2018-11-15T10:25:38Z</time>
      </trkpt>
      <trkpt lat="45.99579" lon="4.89113">
        <ele>289</ele>
        <time>2018-11-15T10:25:39Z</time>
      </trkpt>
      <trkpt lat="45.99576" lon="4.89105">
        <ele>289</ele>
        <time>2018-11-15T10:25:40Z</time>
      </trkpt>
      <trkpt lat="45.99577" lon="4.89097">
        <ele>289</ele>
        <time>2018-11-15T10:25:41Z</time>
      </trkpt>
      <trkpt lat="45.99578" lon="4.89089">
        <ele>289</ele>
        <time>2018-11-15T10:25:42Z</time>
      </trkpt>
      <trkpt lat="45.99579" lon="4.8908">
        <ele>289</ele>
        <time>2018-11-15T10:25:43Z</time>
      </trkpt>
      <trkpt lat="45.99581" lon="4.89071">
        <ele>289</ele>
        <time>2018-11-15T10:25:44Z</time>
      </trkpt>
      <trkpt lat="45.99582" lon="4.89062">
        <ele>289</ele>
        <time>2018-11-15T10:25:45Z</time>
      </trkpt>
      <trkpt lat="45.99582" lon="4.89055">
        <ele>288</ele>
        <time>2018-11-15T10:25:46Z</time>
      </trkpt>
      <trkpt lat="45.99582" lon="4.89046">
        <ele>288</ele>
        <time>2018-11-15T10:25:47Z</time>
      </trkpt>
      <trkpt lat="45.99584" lon="4.89037">
        <ele>289</ele>
        <time>2018-11-15T10:25:48Z</time>
      </trkpt>
      <trkpt lat="45.99585" lon="4.89028">
        <ele>289</ele>
        <time>2018-11-15T10:25:49Z</time>
      </trkpt>
      <trkpt lat="45.99587" lon="4.89021">
        <ele>288</ele>
        <time>2018-11-15T10:25:50Z</time>
      </trkpt>
      <trkpt lat="45.99587" lon="4.89013">
        <ele>288</ele>
        <time>2018-11-15T10:25:51Z</time>
      </trkpt>
      <trkpt lat="45.99587" lon="4.89004">
        <ele>288</ele>
        <time>2018-11-15T10:25:52Z</time>
      </trkpt>
      <trkpt lat="45.99588" lon="4.88996">
        <ele>288</ele>
        <time>2018-11-15T10:25:53Z</time>
      </trkpt>
      <trkpt lat="45.99589" lon="4.88989">
        <ele>288</ele>
        <time>2018-11-15T10:25:54Z</time>
      </trkpt>
      <trkpt lat="45.99588" lon="4.88982">
        <ele>288</ele>
        <time>2018-11-15T10:25:55Z</time>
      </trkpt>
      <trkpt lat="45.99588" lon="4.88974">
        <ele>288</ele>
        <time>2018-11-15T10:25:56Z</time>
      </trkpt>
      <trkpt lat="45.99588" lon="4.88965">
        <ele>288</ele>
        <time>2018-11-15T10:25:57Z</time>
      </trkpt>
      <trkpt lat="45.99586" lon="4.88954">
        <ele>287</ele>
        <time>2018-11-15T10:25:58Z</time>
      </trkpt>
      <trkpt lat="45.99586" lon="4.88945">
        <ele>287</ele>
        <time>2018-11-15T10:25:59Z</time>
      </trkpt>
      <trkpt lat="45.99585" lon="4.88938">
        <ele>287</ele>
        <time>2018-11-15T10:26:00Z</time>
      </trkpt>
      <trkpt lat="45.99585" lon="4.8893">
        <ele>287</ele>
        <time>2018-11-15T10:26:01Z</time>
      </trkpt>
      <trkpt lat="45.99585" lon="4.88922">
        <ele>287</ele>
        <time>2018-11-15T10:26:02Z</time>
      </trkpt>
      <trkpt lat="45.99585" lon="4.88913">
        <ele>287</ele>
        <time>2018-11-15T10:26:03Z</time>
      </trkpt>
      <trkpt lat="45.99584" lon="4.88904">
        <ele>287</ele>
        <time>2018-11-15T10:26:04Z</time>
      </trkpt>
      <trkpt lat="45.99582" lon="4.88895">
        <ele>287</ele>
        <time>2018-11-15T10:26:05Z</time>
      </trkpt>
      <trkpt lat="45.99581" lon="4.88888">
        <ele>287</ele>
        <time>2018-11-15T10:26:06Z</time>
      </trkpt>
      <trkpt lat="45.99581" lon="4.8888">
        <ele>287</ele>
        <time>2018-11-15T10:26:07Z</time>
      </trkpt>
      <trkpt lat="45.9958" lon="4.88871">
        <ele>287</ele>
        <time>2018-11-15T10:26:08Z</time>
      </trkpt>
      <trkpt lat="45.9958" lon="4.88863">
        <ele>287</ele>
        <time>2018-11-15T10:26:09Z</time>
      </trkpt>
      <trkpt lat="45.99579" lon="4.88854">
        <ele>287</ele>
        <time>2018-11-15T10:26:10Z</time>
      </trkpt>
      <trkpt lat="45.99577" lon="4.88847">
        <ele>287</ele>
        <time>2018-11-15T10:26:11Z</time>
      </trkpt>
      <trkpt lat="45.99576" lon="4.8884">
        <ele>287</ele>
        <time>2018-11-15T10:26:12Z</time>
      </trkpt>
      <trkpt lat="45.99576" lon="4.88833">
        <ele>287</ele>
        <time>2018-11-15T10:26:13Z</time>
      </trkpt>
      <trkpt lat="45.99576" lon="4.88825">
        <ele>287</ele>
        <time>2018-11-15T10:26:14Z</time>
      </trkpt>
      <trkpt lat="45.99575" lon="4.88817">
        <ele>287</ele>
        <time>2018-11-15T10:26:15Z</time>
      </trkpt>
      <trkpt lat="45.99576" lon="4.88809">
        <ele>287</ele>
        <time>2018-11-15T10:26:16Z</time>
      </trkpt>
      <trkpt lat="45.99574" lon="4.88799">
        <ele>287</ele>
        <time>2018-11-15T10:26:17Z</time>
      </trkpt>
      <trkpt lat="45.99574" lon="4.88791">
        <ele>287</ele>
        <time>2018-11-15T10:26:18Z</time>
      </trkpt>
      <trkpt lat="45.99572" lon="4.88782">
        <ele>287</ele>
        <time>2018-11-15T10:26:19Z</time>
      </trkpt>
      <trkpt lat="45.99571" lon="4.88773">
        <ele>287</ele>
        <time>2018-11-15T10:26:20Z</time>
      </trkpt>
      <trkpt lat="45.9957" lon="4.88764">
        <ele>287</ele>
        <time>2018-11-15T10:26:21Z</time>
      </trkpt>
      <trkpt lat="45.9957" lon="4.88756">
        <ele>287</ele>
        <time>2018-11-15T10:26:22Z</time>
      </trkpt>
      <trkpt lat="45.99569" lon="4.88747">
        <ele>287</ele>
        <time>2018-11-15T10:26:23Z</time>
      </trkpt>
      <trkpt lat="45.99569" lon="4.88739">
        <ele>287</ele>
        <time>2018-11-15T10:26:24Z</time>
      </trkpt>
      <trkpt lat="45.99568" lon="4.88731">
        <ele>287</ele>
        <time>2018-11-15T10:26:25Z</time>
      </trkpt>
      <trkpt lat="45.99566" lon="4.88724">
        <ele>287</ele>
        <time>2018-11-15T10:26:26Z</time>
      </trkpt>
      <trkpt lat="45.99565" lon="4.88716">
        <ele>286</ele>
        <time>2018-11-15T10:26:27Z</time>
      </trkpt>
      <trkpt lat="45.99564" lon="4.88708">
        <ele>286</ele>
        <time>2018-11-15T10:26:28Z</time>
      </trkpt>
      <trkpt lat="45.99564" lon="4.88701">
        <ele>286</ele>
        <time>2018-11-15T10:26:29Z</time>
      </trkpt>
      <trkpt lat="45.99564" lon="4.88693">
        <ele>286</ele>
        <time>2018-11-15T10:26:30Z</time>
      </trkpt>
      <trkpt lat="45.99563" lon="4.88685">
        <ele>286</ele>
        <time>2018-11-15T10:26:31Z</time>
      </trkpt>
      <trkpt lat="45.99562" lon="4.88676">
        <ele>286</ele>
        <time>2018-11-15T10:26:32Z</time>
      </trkpt>
      <trkpt lat="45.99561" lon="4.88669">
        <ele>286</ele>
        <time>2018-11-15T10:26:33Z</time>
      </trkpt>
      <trkpt lat="45.99559" lon="4.88659">
        <ele>286</ele>
        <time>2018-11-15T10:26:34Z</time>
      </trkpt>
      <trkpt lat="45.99558" lon="4.8865">
        <ele>286</ele>
        <time>2018-11-15T10:26:35Z</time>
      </trkpt>
      <trkpt lat="45.99557" lon="4.88641">
        <ele>286</ele>
        <time>2018-11-15T10:26:36Z</time>
      </trkpt>
      <trkpt lat="45.99557" lon="4.88632">
        <ele>286</ele>
        <time>2018-11-15T10:26:37Z</time>
      </trkpt>
      <trkpt lat="45.99557" lon="4.88624">
        <ele>286</ele>
        <time>2018-11-15T10:26:38Z</time>
      </trkpt>
      <trkpt lat="45.99556" lon="4.88615">
        <ele>286</ele>
        <time>2018-11-15T10:26:39Z</time>
      </trkpt>
      <trkpt lat="45.99555" lon="4.88607">
        <ele>286</ele>
        <time>2018-11-15T10:26:40Z</time>
      </trkpt>
      <trkpt lat="45.99554" lon="4.88598">
        <ele>286</ele>
        <time>2018-11-15T10:26:41Z</time>
      </trkpt>
      <trkpt lat="45.99553" lon="4.88591">
        <ele>286</ele>
        <time>2018-11-15T10:26:42Z</time>
      </trkpt>
      <trkpt lat="45.9955" lon="4.88583">
        <ele>286</ele>
        <time>2018-11-15T10:26:43Z</time>
      </trkpt>
      <trkpt lat="45.99549" lon="4.88575">
        <ele>286</ele>
        <time>2018-11-15T10:26:44Z</time>
      </trkpt>
      <trkpt lat="45.99546" lon="4.88569">
        <ele>286</ele>
        <time>2018-11-15T10:26:45Z</time>
      </trkpt>
      <trkpt lat="45.99543" lon="4.88562">
        <ele>285</ele>
        <time>2018-11-15T10:26:46Z</time>
      </trkpt>
      <trkpt lat="45.99541" lon="4.88554">
        <ele>285</ele>
        <time>2018-11-15T10:26:47Z</time>
      </trkpt>
      <trkpt lat="45.99538" lon="4.88547">
        <ele>285</ele>
        <time>2018-11-15T10:26:48Z</time>
      </trkpt>
      <trkpt lat="45.99536" lon="4.88541">
        <ele>285</ele>
        <time>2018-11-15T10:26:49Z</time>
      </trkpt>
      <trkpt lat="45.99533" lon="4.88535">
        <ele>285</ele>
        <time>2018-11-15T10:26:50Z</time>
      </trkpt>
      <trkpt lat="45.9953" lon="4.88528">
        <ele>285</ele>
        <time>2018-11-15T10:26:51Z</time>
      </trkpt>
      <trkpt lat="45.99526" lon="4.88521">
        <ele>285</ele>
        <time>2018-11-15T10:26:52Z</time>
      </trkpt>
      <trkpt lat="45.99522" lon="4.88514">
        <ele>285</ele>
        <time>2018-11-15T10:26:53Z</time>
      </trkpt>
      <trkpt lat="45.99517" lon="4.88507">
        <ele>285</ele>
        <time>2018-11-15T10:26:54Z</time>
      </trkpt>
      <trkpt lat="45.99513" lon="4.88501">
        <ele>284</ele>
        <time>2018-11-15T10:26:55Z</time>
      </trkpt>
      <trkpt lat="45.9951" lon="4.88493">
        <ele>284</ele>
        <time>2018-11-15T10:26:56Z</time>
      </trkpt>
      <trkpt lat="45.99506" lon="4.88486">
        <ele>284</ele>
        <time>2018-11-15T10:26:57Z</time>
      </trkpt>
      <trkpt lat="45.99501" lon="4.88479">
        <ele>284</ele>
        <time>2018-11-15T10:26:58Z</time>
      </trkpt>
      <trkpt lat="45.99496" lon="4.88472">
        <ele>284</ele>
        <time>2018-11-15T10:26:59Z</time>
      </trkpt>
      <trkpt lat="45.99493" lon="4.88465">
        <ele>284</ele>
        <time>2018-11-15T10:27:00Z</time>
      </trkpt>
      <trkpt lat="45.99489" lon="4.88458">
        <ele>284</ele>
        <time>2018-11-15T10:27:01Z</time>
      </trkpt>
      <trkpt lat="45.99485" lon="4.88451">
        <ele>284</ele>
        <time>2018-11-15T10:27:02Z</time>
      </trkpt>
      <trkpt lat="45.99482" lon="4.88445">
        <ele>284</ele>
        <time>2018-11-15T10:27:03Z</time>
      </trkpt>
      <trkpt lat="45.99478" lon="4.88439">
        <ele>284</ele>
        <time>2018-11-15T10:27:04Z</time>
      </trkpt>
      <trkpt lat="45.99473" lon="4.88434">
        <ele>284</ele>
        <time>2018-11-15T10:27:05Z</time>
      </trkpt>
      <trkpt lat="45.99469" lon="4.88429">
        <ele>284</ele>
        <time>2018-11-15T10:27:06Z</time>
      </trkpt>
      <trkpt lat="45.99465" lon="4.88424">
        <ele>284</ele>
        <time>2018-11-15T10:27:07Z</time>
      </trkpt>
      <trkpt lat="45.9946" lon="4.88421">
        <ele>284</ele>
        <time>2018-11-15T10:27:08Z</time>
      </trkpt>
      <trkpt lat="45.99455" lon="4.88416">
        <ele>283</ele>
        <time>2018-11-15T10:27:09Z</time>
      </trkpt>
      <trkpt lat="45.9945" lon="4.88413">
        <ele>283</ele>
        <time>2018-11-15T10:27:10Z</time>
      </trkpt>
      <trkpt lat="45.99446" lon="4.88408">
        <ele>283</ele>
        <time>2018-11-15T10:27:11Z</time>
      </trkpt>
      <trkpt lat="45.99441" lon="4.88403">
        <ele>283</ele>
        <time>2018-11-15T10:27:12Z</time>
      </trkpt>
      <trkpt lat="45.99437" lon="4.88397">
        <ele>283</ele>
        <time>2018-11-15T10:27:13Z</time>
      </trkpt>
      <trkpt lat="45.99434" lon="4.88392">
        <ele>283</ele>
        <time>2018-11-15T10:27:14Z</time>
      </trkpt>
      <trkpt lat="45.9943" lon="4.88385">
        <ele>283</ele>
        <time>2018-11-15T10:27:15Z</time>
      </trkpt>
      <trkpt lat="45.99428" lon="4.88377">
        <ele>283</ele>
        <time>2018-11-15T10:27:16Z</time>
      </trkpt>
      <trkpt lat="45.99426" lon="4.8837">
        <ele>283</ele>
        <time>2018-11-15T10:27:17Z</time>
      </trkpt>
      <trkpt lat="45.99422" lon="4.88362">
        <ele>283</ele>
        <time>2018-11-15T10:27:18Z</time>
      </trkpt>
      <trkpt lat="45.99419" lon="4.88354">
        <ele>283</ele>
        <time>2018-11-15T10:27:19Z</time>
      </trkpt>
      <trkpt lat="45.99417" lon="4.88346">
        <ele>282</ele>
        <time>2018-11-15T10:27:20Z</time>
      </trkpt>
      <trkpt lat="45.99412" lon="4.88337">
        <ele>282</ele>
        <time>2018-11-15T10:27:21Z</time>
      </trkpt>
      <trkpt lat="45.99409" lon="4.88329">
        <ele>283</ele>
        <time>2018-11-15T10:27:22Z</time>
      </trkpt>
      <trkpt lat="45.99406" lon="4.88321">
        <ele>283</ele>
        <time>2018-11-15T10:27:23Z</time>
      </trkpt>
      <trkpt lat="45.99403" lon="4.88314">
        <ele>283</ele>
        <time>2018-11-15T10:27:24Z</time>
      </trkpt>
      <trkpt lat="45.994" lon="4.88306">
        <ele>284</ele>
        <time>2018-11-15T10:27:25Z</time>
      </trkpt>
      <trkpt lat="45.99397" lon="4.88299">
        <ele>284</ele>
        <time>2018-11-15T10:27:26Z</time>
      </trkpt>
      <trkpt lat="45.99394" lon="4.88292">
        <ele>284</ele>
        <time>2018-11-15T10:27:27Z</time>
      </trkpt>
      <trkpt lat="45.9939" lon="4.88285">
        <ele>284</ele>
        <time>2018-11-15T10:27:28Z</time>
      </trkpt>
      <trkpt lat="45.99387" lon="4.88278">
        <ele>284</ele>
        <time>2018-11-15T10:27:29Z</time>
      </trkpt>
      <trkpt lat="45.99384" lon="4.88271">
        <ele>284</ele>
        <time>2018-11-15T10:27:30Z</time>
      </trkpt>
      <trkpt lat="45.99381" lon="4.88263">
        <ele>285</ele>
        <time>2018-11-15T10:27:31Z</time>
      </trkpt>
      <trkpt lat="45.99378" lon="4.88257">
        <ele>285</ele>
        <time>2018-11-15T10:27:32Z</time>
      </trkpt>
      <trkpt lat="45.99376" lon="4.88251">
        <ele>285</ele>
        <time>2018-11-15T10:27:33Z</time>
      </trkpt>
      <trkpt lat="45.99373" lon="4.88245">
        <ele>287</ele>
        <time>2018-11-15T10:27:34Z</time>
      </trkpt>
      <trkpt lat="45.99367" lon="4.88237">
        <ele>287</ele>
        <time>2018-11-15T10:27:36Z</time>
      </trkpt>
      <trkpt lat="45.99364" lon="4.88232">
        <ele>287</ele>
        <time>2018-11-15T10:27:37Z</time>
      </trkpt>
      <trkpt lat="45.99359" lon="4.88227">
        <ele>287</ele>
        <time>2018-11-15T10:27:38Z</time>
      </trkpt>
      <trkpt lat="45.99355" lon="4.88223">
        <ele>287</ele>
        <time>2018-11-15T10:27:39Z</time>
      </trkpt>
      <trkpt lat="45.9935" lon="4.88219">
        <ele>287</ele>
        <time>2018-11-15T10:27:40Z</time>
      </trkpt>
      <trkpt lat="45.99348" lon="4.88213">
        <ele>287</ele>
        <time>2018-11-15T10:27:41Z</time>
      </trkpt>
      <trkpt lat="45.99344" lon="4.88209">
        <ele>287</ele>
        <time>2018-11-15T10:27:42Z</time>
      </trkpt>
      <trkpt lat="45.99339" lon="4.88204">
        <ele>288</ele>
        <time>2018-11-15T10:27:43Z</time>
      </trkpt>
      <trkpt lat="45.99334" lon="4.88198">
        <ele>288</ele>
        <time>2018-11-15T10:27:44Z</time>
      </trkpt>
      <trkpt lat="45.9933" lon="4.88194">
        <ele>285</ele>
        <time>2018-11-15T10:27:45Z</time>
      </trkpt>
      <trkpt lat="45.99322" lon="4.8819">
        <ele>285</ele>
        <time>2018-11-15T10:27:46Z</time>
      </trkpt>
      <trkpt lat="45.99316" lon="4.88185">
        <ele>285</ele>
        <time>2018-11-15T10:27:47Z</time>
      </trkpt>
      <trkpt lat="45.99309" lon="4.8818">
        <ele>285</ele>
        <time>2018-11-15T10:27:48Z</time>
      </trkpt>
      <trkpt lat="45.99304" lon="4.88175">
        <ele>285</ele>
        <time>2018-11-15T10:27:49Z</time>
      </trkpt>
      <trkpt lat="45.99299" lon="4.8817">
        <ele>284</ele>
        <time>2018-11-15T10:27:50Z</time>
      </trkpt>
      <trkpt lat="45.99292" lon="4.88167">
        <ele>284</ele>
        <time>2018-11-15T10:27:51Z</time>
      </trkpt>
      <trkpt lat="45.99286" lon="4.88163">
        <ele>284</ele>
        <time>2018-11-15T10:27:52Z</time>
      </trkpt>
      <trkpt lat="45.9928" lon="4.88158">
        <ele>283</ele>
        <time>2018-11-15T10:27:53Z</time>
      </trkpt>
      <trkpt lat="45.99275" lon="4.88154">
        <ele>283</ele>
        <time>2018-11-15T10:27:54Z</time>
      </trkpt>
      <trkpt lat="45.9927" lon="4.88149">
        <ele>283</ele>
        <time>2018-11-15T10:27:55Z</time>
      </trkpt>
      <trkpt lat="45.99265" lon="4.88144">
        <ele>283</ele>
        <time>2018-11-15T10:27:56Z</time>
      </trkpt>
      <trkpt lat="45.99259" lon="4.8814">
        <ele>283</ele>
        <time>2018-11-15T10:27:57Z</time>
      </trkpt>
      <trkpt lat="45.99254" lon="4.88135">
        <ele>283</ele>
        <time>2018-11-15T10:27:58Z</time>
      </trkpt>
      <trkpt lat="45.99249" lon="4.88131">
        <ele>280</ele>
        <time>2018-11-15T10:27:59Z</time>
      </trkpt>
      <trkpt lat="45.99243" lon="4.88127">
        <ele>280</ele>
        <time>2018-11-15T10:28:00Z</time>
      </trkpt>
      <trkpt lat="45.99238" lon="4.8812">
        <ele>280</ele>
        <time>2018-11-15T10:28:01Z</time>
      </trkpt>
      <trkpt lat="45.99234" lon="4.88116">
        <ele>280</ele>
        <time>2018-11-15T10:28:02Z</time>
      </trkpt>
      <trkpt lat="45.99229" lon="4.88113">
        <ele>280</ele>
        <time>2018-11-15T10:28:03Z</time>
      </trkpt>
      <trkpt lat="45.99223" lon="4.88108">
        <ele>280</ele>
        <time>2018-11-15T10:28:04Z</time>
      </trkpt>
      <trkpt lat="45.99217" lon="4.88103">
        <ele>280</ele>
        <time>2018-11-15T10:28:05Z</time>
      </trkpt>
      <trkpt lat="45.99212" lon="4.88098">
        <ele>280</ele>
        <time>2018-11-15T10:28:06Z</time>
      </trkpt>
      <trkpt lat="45.99206" lon="4.88093">
        <ele>280</ele>
        <time>2018-11-15T10:28:07Z</time>
      </trkpt>
      <trkpt lat="45.99201" lon="4.88088">
        <ele>280</ele>
        <time>2018-11-15T10:28:08Z</time>
      </trkpt>
      <trkpt lat="45.99194" lon="4.88081">
        <ele>280</ele>
        <time>2018-11-15T10:28:09Z</time>
      </trkpt>
      <trkpt lat="45.99188" lon="4.88075">
        <ele>280</ele>
        <time>2018-11-15T10:28:10Z</time>
      </trkpt>
      <trkpt lat="45.99182" lon="4.8807">
        <ele>279</ele>
        <time>2018-11-15T10:28:11Z</time>
      </trkpt>
      <trkpt lat="45.99177" lon="4.88065">
        <ele>279</ele>
        <time>2018-11-15T10:28:12Z</time>
      </trkpt>
      <trkpt lat="45.99171" lon="4.8806">
        <ele>279</ele>
        <time>2018-11-15T10:28:13Z</time>
      </trkpt>
      <trkpt lat="45.99166" lon="4.88056">
        <ele>279</ele>
        <time>2018-11-15T10:28:14Z</time>
      </trkpt>
      <trkpt lat="45.99158" lon="4.88053">
        <ele>279</ele>
        <time>2018-11-15T10:28:15Z</time>
      </trkpt>
      <trkpt lat="45.99152" lon="4.88049">
        <ele>279</ele>
        <time>2018-11-15T10:28:16Z</time>
      </trkpt>
      <trkpt lat="45.99147" lon="4.88045">
        <ele>279</ele>
        <time>2018-11-15T10:28:17Z</time>
      </trkpt>
      <trkpt lat="45.99141" lon="4.88042">
        <ele>279</ele>
        <time>2018-11-15T10:28:18Z</time>
      </trkpt>
      <trkpt lat="45.99135" lon="4.88038">
        <ele>279</ele>
        <time>2018-11-15T10:28:19Z</time>
      </trkpt>
      <trkpt lat="45.9913" lon="4.88033">
        <ele>279</ele>
        <time>2018-11-15T10:28:20Z</time>
      </trkpt>
      <trkpt lat="45.99123" lon="4.8803">
        <ele>278</ele>
        <time>2018-11-15T10:28:21Z</time>
      </trkpt>
      <trkpt lat="45.99117" lon="4.88027">
        <ele>278</ele>
        <time>2018-11-15T10:28:22Z</time>
      </trkpt>
      <trkpt lat="45.99112" lon="4.88024">
        <ele>278</ele>
        <time>2018-11-15T10:28:23Z</time>
      </trkpt>
      <trkpt lat="45.99106" lon="4.8802">
        <ele>278</ele>
        <time>2018-11-15T10:28:24Z</time>
      </trkpt>
      <trkpt lat="45.99101" lon="4.88017">
        <ele>278</ele>
        <time>2018-11-15T10:28:25Z</time>
      </trkpt>
      <trkpt lat="45.99095" lon="4.88014">
        <ele>278</ele>
        <time>2018-11-15T10:28:26Z</time>
      </trkpt>
      <trkpt lat="45.99089" lon="4.88011">
        <ele>278</ele>
        <time>2018-11-15T10:28:27Z</time>
      </trkpt>
      <trkpt lat="45.99083" lon="4.88008">
        <ele>278</ele>
        <time>2018-11-15T10:28:28Z</time>
      </trkpt>
      <trkpt lat="45.99077" lon="4.88004">
        <ele>278</ele>
        <time>2018-11-15T10:28:29Z</time>
      </trkpt>
      <trkpt lat="45.9907" lon="4.88">
        <ele>277</ele>
        <time>2018-11-15T10:28:30Z</time>
      </trkpt>
      <trkpt lat="45.99064" lon="4.87996">
        <ele>277</ele>
        <time>2018-11-15T10:28:31Z</time>
      </trkpt>
      <trkpt lat="45.99058" lon="4.87992">
        <ele>277</ele>
        <time>2018-11-15T10:28:32Z</time>
      </trkpt>
      <trkpt lat="45.99051" lon="4.87989">
        <ele>277</ele>
        <time>2018-11-15T10:28:33Z</time>
      </trkpt>
      <trkpt lat="45.99045" lon="4.87985">
        <ele>277</ele>
        <time>2018-11-15T10:28:34Z</time>
      </trkpt>
      <trkpt lat="45.99037" lon="4.87983">
        <ele>276</ele>
        <time>2018-11-15T10:28:35Z</time>
      </trkpt>
      <trkpt lat="45.99031" lon="4.87982">
        <ele>276</ele>
        <time>2018-11-15T10:28:36Z</time>
      </trkpt>
      <trkpt lat="45.99025" lon="4.8798">
        <ele>276</ele>
        <time>2018-11-15T10:28:37Z</time>
      </trkpt>
      <trkpt lat="45.99019" lon="4.87977">
        <ele>276</ele>
        <time>2018-11-15T10:28:38Z</time>
      </trkpt>
      <trkpt lat="45.99013" lon="4.87972">
        <ele>276</ele>
        <time>2018-11-15T10:28:39Z</time>
      </trkpt>
      <trkpt lat="45.99006" lon="4.87969">
        <ele>276</ele>
        <time>2018-11-15T10:28:40Z</time>
      </trkpt>
      <trkpt lat="45.98998" lon="4.87966">
        <ele>274</ele>
        <time>2018-11-15T10:28:41Z</time>
      </trkpt>
      <trkpt lat="45.98992" lon="4.87962">
        <ele>274</ele>
        <time>2018-11-15T10:28:42Z</time>
      </trkpt>
      <trkpt lat="45.98985" lon="4.87958">
        <ele>274</ele>
        <time>2018-11-15T10:28:43Z</time>
      </trkpt>
      <trkpt lat="45.98979" lon="4.87953">
        <ele>274</ele>
        <time>2018-11-15T10:28:44Z</time>
      </trkpt>
      <trkpt lat="45.98972" lon="4.87949">
        <ele>274</ele>
        <time>2018-11-15T10:28:45Z</time>
      </trkpt>
      <trkpt lat="45.98966" lon="4.87945">
        <ele>274</ele>
        <time>2018-11-15T10:28:46Z</time>
      </trkpt>
      <trkpt lat="45.98959" lon="4.87942">
        <ele>273</ele>
        <time>2018-11-15T10:28:47Z</time>
      </trkpt>
      <trkpt lat="45.98952" lon="4.87937">
        <ele>273</ele>
        <time>2018-11-15T10:28:48Z</time>
      </trkpt>
      <trkpt lat="45.98944" lon="4.87932">
        <ele>273</ele>
        <time>2018-11-15T10:28:49Z</time>
      </trkpt>
      <trkpt lat="45.98936" lon="4.87928">
        <ele>272</ele>
        <time>2018-11-15T10:28:50Z</time>
      </trkpt>
      <trkpt lat="45.98931" lon="4.87924">
        <ele>272</ele>
        <time>2018-11-15T10:28:51Z</time>
      </trkpt>
      <trkpt lat="45.98924" lon="4.87919">
        <ele>272</ele>
        <time>2018-11-15T10:28:52Z</time>
      </trkpt>
      <trkpt lat="45.98918" lon="4.8791">
        <ele>272</ele>
        <time>2018-11-15T10:28:53Z</time>
      </trkpt>
      <trkpt lat="45.98911" lon="4.87902">
        <ele>272</ele>
        <time>2018-11-15T10:28:54Z</time>
      </trkpt>
      <trkpt lat="45.98904" lon="4.87895">
        <ele>272</ele>
        <time>2018-11-15T10:28:55Z</time>
      </trkpt>
      <trkpt lat="45.98899" lon="4.87888">
        <ele>272</ele>
        <time>2018-11-15T10:28:56Z</time>
      </trkpt>
      <trkpt lat="45.98892" lon="4.8788">
        <ele>272</ele>
        <time>2018-11-15T10:28:57Z</time>
      </trkpt>
      <trkpt lat="45.98887" lon="4.87872">
        <ele>272</ele>
        <time>2018-11-15T10:28:58Z</time>
      </trkpt>
      <trkpt lat="45.98881" lon="4.87862">
        <ele>272</ele>
        <time>2018-11-15T10:28:59Z</time>
      </trkpt>
      <trkpt lat="45.98876" lon="4.87853">
        <ele>272</ele>
        <time>2018-11-15T10:29:00Z</time>
      </trkpt>
      <trkpt lat="45.98872" lon="4.87844">
        <ele>273</ele>
        <time>2018-11-15T10:29:01Z</time>
      </trkpt>
      <trkpt lat="45.98867" lon="4.87836">
        <ele>273</ele>
        <time>2018-11-15T10:29:02Z</time>
      </trkpt>
      <trkpt lat="45.98863" lon="4.87828">
        <ele>273</ele>
        <time>2018-11-15T10:29:03Z</time>
      </trkpt>
      <trkpt lat="45.9886" lon="4.87818">
        <ele>273</ele>
        <time>2018-11-15T10:29:04Z</time>
      </trkpt>
      <trkpt lat="45.98857" lon="4.8781">
        <ele>273</ele>
        <time>2018-11-15T10:29:05Z</time>
      </trkpt>
      <trkpt lat="45.98855" lon="4.87803">
        <ele>273</ele>
        <time>2018-11-15T10:29:06Z</time>
      </trkpt>
      <trkpt lat="45.98851" lon="4.87794">
        <ele>273</ele>
        <time>2018-11-15T10:29:07Z</time>
      </trkpt>
      <trkpt lat="45.98849" lon="4.87785">
        <ele>273</ele>
        <time>2018-11-15T10:29:08Z</time>
      </trkpt>
      <trkpt lat="45.98846" lon="4.87777">
        <ele>273</ele>
        <time>2018-11-15T10:29:09Z</time>
      </trkpt>
      <trkpt lat="45.98841" lon="4.87766">
        <ele>273</ele>
        <time>2018-11-15T10:29:10Z</time>
      </trkpt>
      <trkpt lat="45.98841" lon="4.87758">
        <ele>273</ele>
        <time>2018-11-15T10:29:11Z</time>
      </trkpt>
      <trkpt lat="45.98841" lon="4.87749">
        <ele>273</ele>
        <time>2018-11-15T10:29:12Z</time>
      </trkpt>
      <trkpt lat="45.9884" lon="4.8774">
        <ele>273</ele>
        <time>2018-11-15T10:29:13Z</time>
      </trkpt>
      <trkpt lat="45.98838" lon="4.87731">
        <ele>273</ele>
        <time>2018-11-15T10:29:14Z</time>
      </trkpt>
      <trkpt lat="45.98836" lon="4.87722">
        <ele>273</ele>
        <time>2018-11-15T10:29:15Z</time>
      </trkpt>
      <trkpt lat="45.98834" lon="4.87713">
        <ele>273</ele>
        <time>2018-11-15T10:29:16Z</time>
      </trkpt>
      <trkpt lat="45.98832" lon="4.87702">
        <ele>273</ele>
        <time>2018-11-15T10:29:17Z</time>
      </trkpt>
      <trkpt lat="45.98831" lon="4.87692">
        <ele>273</ele>
        <time>2018-11-15T10:29:18Z</time>
      </trkpt>
      <trkpt lat="45.98829" lon="4.87684">
        <ele>273</ele>
        <time>2018-11-15T10:29:19Z</time>
      </trkpt>
      <trkpt lat="45.98827" lon="4.87675">
        <ele>273</ele>
        <time>2018-11-15T10:29:20Z</time>
      </trkpt>
      <trkpt lat="45.98825" lon="4.87666">
        <ele>272</ele>
        <time>2018-11-15T10:29:21Z</time>
      </trkpt>
      <trkpt lat="45.98825" lon="4.87656">
        <ele>272</ele>
        <time>2018-11-15T10:29:22Z</time>
      </trkpt>
      <trkpt lat="45.98823" lon="4.87648">
        <ele>272</ele>
        <time>2018-11-15T10:29:23Z</time>
      </trkpt>
      <trkpt lat="45.98821" lon="4.8764">
        <ele>272</ele>
        <time>2018-11-15T10:29:24Z</time>
      </trkpt>
      <trkpt lat="45.98819" lon="4.87634">
        <ele>272</ele>
        <time>2018-11-15T10:29:25Z</time>
      </trkpt>
      <trkpt lat="45.98817" lon="4.87625">
        <ele>271</ele>
        <time>2018-11-15T10:29:26Z</time>
      </trkpt>
      <trkpt lat="45.98814" lon="4.87619">
        <ele>271</ele>
        <time>2018-11-15T10:29:27Z</time>
      </trkpt>
      <trkpt lat="45.98812" lon="4.87612">
        <ele>271</ele>
        <time>2018-11-15T10:29:28Z</time>
      </trkpt>
      <trkpt lat="45.98808" lon="4.87608">
        <ele>271</ele>
        <time>2018-11-15T10:29:29Z</time>
      </trkpt>
      <trkpt lat="45.98806" lon="4.87603">
        <ele>271</ele>
        <time>2018-11-15T10:29:30Z</time>
      </trkpt>
      <trkpt lat="45.98802" lon="4.87597">
        <ele>271</ele>
        <time>2018-11-15T10:29:31Z</time>
      </trkpt>
      <trkpt lat="45.98798" lon="4.87589">
        <ele>271</ele>
        <time>2018-11-15T10:29:32Z</time>
      </trkpt>
      <trkpt lat="45.98792" lon="4.87587">
        <ele>271</ele>
        <time>2018-11-15T10:29:33Z</time>
      </trkpt>
      <trkpt lat="45.98788" lon="4.8758">
        <ele>269</ele>
        <time>2018-11-15T10:29:34Z</time>
      </trkpt>
      <trkpt lat="45.98783" lon="4.87575">
        <ele>269</ele>
        <time>2018-11-15T10:29:35Z</time>
      </trkpt>
      <trkpt lat="45.98779" lon="4.87571">
        <ele>269</ele>
        <time>2018-11-15T10:29:36Z</time>
      </trkpt>
      <trkpt lat="45.98773" lon="4.87566">
        <ele>269</ele>
        <time>2018-11-15T10:29:37Z</time>
      </trkpt>
      <trkpt lat="45.98767" lon="4.87561">
        <ele>269</ele>
        <time>2018-11-15T10:29:38Z</time>
      </trkpt>
      <trkpt lat="45.98762" lon="4.87557">
        <ele>269</ele>
        <time>2018-11-15T10:29:39Z</time>
      </trkpt>
      <trkpt lat="45.98755" lon="4.87554">
        <ele>269</ele>
        <time>2018-11-15T10:29:40Z</time>
      </trkpt>
      <trkpt lat="45.98749" lon="4.87548">
        <ele>267</ele>
        <time>2018-11-15T10:29:41Z</time>
      </trkpt>
      <trkpt lat="45.98743" lon="4.87547">
        <ele>267</ele>
        <time>2018-11-15T10:29:42Z</time>
      </trkpt>
      <trkpt lat="45.98737" lon="4.87546">
        <ele>267</ele>
        <time>2018-11-15T10:29:43Z</time>
      </trkpt>
      <trkpt lat="45.98731" lon="4.87547">
        <ele>267</ele>
        <time>2018-11-15T10:29:44Z</time>
      </trkpt>
      <trkpt lat="45.98723" lon="4.87549">
        <ele>267</ele>
        <time>2018-11-15T10:29:45Z</time>
      </trkpt>
      <trkpt lat="45.98715" lon="4.87552">
        <ele>267</ele>
        <time>2018-11-15T10:29:47Z</time>
      </trkpt>
      <trkpt lat="45.9871" lon="4.87555">
        <ele>267</ele>
        <time>2018-11-15T10:29:48Z</time>
      </trkpt>
      <trkpt lat="45.98702" lon="4.87556">
        <ele>267</ele>
        <time>2018-11-15T10:29:50Z</time>
      </trkpt>
      <trkpt lat="45.987" lon="4.87557">
        <ele>267</ele>
        <time>2018-11-15T10:29:51Z</time>
      </trkpt>
      <trkpt lat="45.98692" lon="4.8756">
        <ele>267</ele>
        <time>2018-11-15T10:29:52Z</time>
      </trkpt>
      <trkpt lat="45.98688" lon="4.87561">
        <ele>267</ele>
        <time>2018-11-15T10:29:53Z</time>
      </trkpt>
      <trkpt lat="45.9868" lon="4.87563">
        <ele>267</ele>
        <time>2018-11-15T10:29:54Z</time>
      </trkpt>
      <trkpt lat="45.98676" lon="4.87565">
        <ele>267</ele>
        <time>2018-11-15T10:29:55Z</time>
      </trkpt>
      <trkpt lat="45.98672" lon="4.87565">
        <ele>267</ele>
        <time>2018-11-15T10:29:56Z</time>
      </trkpt>
      <trkpt lat="45.98666" lon="4.87564">
        <ele>267</ele>
        <time>2018-11-15T10:29:57Z</time>
      </trkpt>
      <trkpt lat="45.98661" lon="4.87562">
        <ele>267</ele>
        <time>2018-11-15T10:29:58Z</time>
      </trkpt>
      <trkpt lat="45.98657" lon="4.87559">
        <ele>267</ele>
        <time>2018-11-15T10:29:59Z</time>
      </trkpt>
      <trkpt lat="45.98653" lon="4.87555">
        <ele>267</ele>
        <time>2018-11-15T10:30:00Z</time>
      </trkpt>
      <trkpt lat="45.9865" lon="4.87549">
        <ele>267</ele>
        <time>2018-11-15T10:30:01Z</time>
      </trkpt>
      <trkpt lat="45.98646" lon="4.8754">
        <ele>267</ele>
        <time>2018-11-15T10:30:04Z</time>
      </trkpt>
      <trkpt lat="45.98644" lon="4.87534">
        <ele>267</ele>
        <time>2018-11-15T10:30:05Z</time>
      </trkpt>
      <trkpt lat="45.98643" lon="4.87525">
        <ele>267</ele>
        <time>2018-11-15T10:30:07Z</time>
      </trkpt>
      <trkpt lat="45.98642" lon="4.87517">
        <ele>267</ele>
        <time>2018-11-15T10:30:08Z</time>
      </trkpt>
      <trkpt lat="45.98642" lon="4.87512">
        <ele>266</ele>
        <time>2018-11-15T10:30:09Z</time>
      </trkpt>
      <trkpt lat="45.9864" lon="4.87505">
        <ele>267</ele>
        <time>2018-11-15T10:30:10Z</time>
      </trkpt>
      <trkpt lat="45.98638" lon="4.87497">
        <ele>267</ele>
        <time>2018-11-15T10:30:11Z</time>
      </trkpt>
      <trkpt lat="45.98637" lon="4.8749">
        <ele>267</ele>
        <time>2018-11-15T10:30:12Z</time>
      </trkpt>
      <trkpt lat="45.98636" lon="4.87484">
        <ele>268</ele>
        <time>2018-11-15T10:30:13Z</time>
      </trkpt>
      <trkpt lat="45.98634" lon="4.87478">
        <ele>268</ele>
        <time>2018-11-15T10:30:14Z</time>
      </trkpt>
      <trkpt lat="45.98633" lon="4.8747">
        <ele>268</ele>
        <time>2018-11-15T10:30:15Z</time>
      </trkpt>
      <trkpt lat="45.9863" lon="4.87461">
        <ele>268</ele>
        <time>2018-11-15T10:30:16Z</time>
      </trkpt>
      <trkpt lat="45.98629" lon="4.87448">
        <ele>268</ele>
        <time>2018-11-15T10:30:18Z</time>
      </trkpt>
      <trkpt lat="45.98627" lon="4.87443">
        <ele>268</ele>
        <time>2018-11-15T10:30:19Z</time>
      </trkpt>
      <trkpt lat="45.98624" lon="4.8743">
        <ele>269</ele>
        <time>2018-11-15T10:30:21Z</time>
      </trkpt>
      <trkpt lat="45.98623" lon="4.87426">
        <ele>269</ele>
        <time>2018-11-15T10:30:22Z</time>
      </trkpt>
      <trkpt lat="45.98622" lon="4.87414">
        <ele>271</ele>
        <time>2018-11-15T10:30:24Z</time>
      </trkpt>
      <trkpt lat="45.98621" lon="4.87409">
        <ele>271</ele>
        <time>2018-11-15T10:30:25Z</time>
      </trkpt>
      <trkpt lat="45.98619" lon="4.87397">
        <ele>271</ele>
        <time>2018-11-15T10:30:27Z</time>
      </trkpt>
      <trkpt lat="45.98617" lon="4.87391">
        <ele>271</ele>
        <time>2018-11-15T10:30:28Z</time>
      </trkpt>
      <trkpt lat="45.98615" lon="4.8738">
        <ele>271</ele>
        <time>2018-11-15T10:30:30Z</time>
      </trkpt>
      <trkpt lat="45.98614" lon="4.87374">
        <ele>271</ele>
        <time>2018-11-15T10:30:31Z</time>
      </trkpt>
      <trkpt lat="45.98612" lon="4.87363">
        <ele>272</ele>
        <time>2018-11-15T10:30:33Z</time>
      </trkpt>
      <trkpt lat="45.98611" lon="4.87356">
        <ele>272</ele>
        <time>2018-11-15T10:30:34Z</time>
      </trkpt>
      <trkpt lat="45.98609" lon="4.87345">
        <ele>272</ele>
        <time>2018-11-15T10:30:36Z</time>
      </trkpt>
      <trkpt lat="45.98608" lon="4.87339">
        <ele>272</ele>
        <time>2018-11-15T10:30:37Z</time>
      </trkpt>
      <trkpt lat="45.98606" lon="4.87327">
        <ele>274</ele>
        <time>2018-11-15T10:30:39Z</time>
      </trkpt>
      <trkpt lat="45.98605" lon="4.87322">
        <ele>274</ele>
        <time>2018-11-15T10:30:40Z</time>
      </trkpt>
      <trkpt lat="45.98604" lon="4.87311">
        <ele>274</ele>
        <time>2018-11-15T10:30:42Z</time>
      </trkpt>
      <trkpt lat="45.98603" lon="4.87305">
        <ele>274</ele>
        <time>2018-11-15T10:30:43Z</time>
      </trkpt>
      <trkpt lat="45.98602" lon="4.87295">
        <ele>275</ele>
        <time>2018-11-15T10:30:46Z</time>
      </trkpt>
      <trkpt lat="45.98602" lon="4.87292">
        <ele>275</ele>
        <time>2018-11-15T10:30:47Z</time>
      </trkpt>
      <trkpt lat="45.98603" lon="4.87284">
        <ele>275</ele>
        <time>2018-11-15T10:30:48Z</time>
      </trkpt>
      <trkpt lat="45.98603" lon="4.87278">
        <ele>275</ele>
        <time>2018-11-15T10:30:49Z</time>
      </trkpt>
      <trkpt lat="45.98604" lon="4.87269">
        <ele>275</ele>
        <time>2018-11-15T10:30:51Z</time>
      </trkpt>
      <trkpt lat="45.98604" lon="4.87264">
        <ele>275</ele>
        <time>2018-11-15T10:30:52Z</time>
      </trkpt>
      <trkpt lat="45.98605" lon="4.87253">
        <ele>275</ele>
        <time>2018-11-15T10:30:54Z</time>
      </trkpt>
      <trkpt lat="45.98606" lon="4.87246">
        <ele>277</ele>
        <time>2018-11-15T10:30:55Z</time>
      </trkpt>
      <trkpt lat="45.98607" lon="4.87235">
        <ele>277</ele>
        <time>2018-11-15T10:30:57Z</time>
      </trkpt>
      <trkpt lat="45.98608" lon="4.87229">
        <ele>277</ele>
        <time>2018-11-15T10:30:58Z</time>
      </trkpt>
      <trkpt lat="45.98608" lon="4.87222">
        <ele>277</ele>
        <time>2018-11-15T10:30:59Z</time>
      </trkpt>
      <trkpt lat="45.98608" lon="4.87216">
        <ele>277</ele>
        <time>2018-11-15T10:31:00Z</time>
      </trkpt>
      <trkpt lat="45.98609" lon="4.87203">
        <ele>277</ele>
        <time>2018-11-15T10:31:02Z</time>
      </trkpt>
      <trkpt lat="45.9861" lon="4.87197">
        <ele>277</ele>
        <time>2018-11-15T10:31:03Z</time>
      </trkpt>
      <trkpt lat="45.98612" lon="4.87189">
        <ele>278</ele>
        <time>2018-11-15T10:31:04Z</time>
      </trkpt>
      <trkpt lat="45.98613" lon="4.87184">
        <ele>278</ele>
        <time>2018-11-15T10:31:05Z</time>
      </trkpt>
      <trkpt lat="45.98614" lon="4.87171">
        <ele>278</ele>
        <time>2018-11-15T10:31:07Z</time>
      </trkpt>
      <trkpt lat="45.98614" lon="4.87164">
        <ele>278</ele>
        <time>2018-11-15T10:31:08Z</time>
      </trkpt>
      <trkpt lat="45.98613" lon="4.87152">
        <ele>278</ele>
        <time>2018-11-15T10:31:10Z</time>
      </trkpt>
      <trkpt lat="45.98614" lon="4.87145">
        <ele>278</ele>
        <time>2018-11-15T10:31:11Z</time>
      </trkpt>
      <trkpt lat="45.98616" lon="4.87136">
        <ele>279</ele>
        <time>2018-11-15T10:31:13Z</time>
      </trkpt>
      <trkpt lat="45.98615" lon="4.87127">
        <ele>279</ele>
        <time>2018-11-15T10:31:14Z</time>
      </trkpt>
      <trkpt lat="45.98615" lon="4.8712">
        <ele>279</ele>
        <time>2018-11-15T10:31:15Z</time>
      </trkpt>
      <trkpt lat="45.98614" lon="4.87111">
        <ele>279</ele>
        <time>2018-11-15T10:31:16Z</time>
      </trkpt>
      <trkpt lat="45.98612" lon="4.87104">
        <ele>279</ele>
        <time>2018-11-15T10:31:17Z</time>
      </trkpt>
      <trkpt lat="45.9861" lon="4.87098">
        <ele>279</ele>
        <time>2018-11-15T10:31:18Z</time>
      </trkpt>
      <trkpt lat="45.98609" lon="4.87086">
        <ele>279</ele>
        <time>2018-11-15T10:31:21Z</time>
      </trkpt>
      <trkpt lat="45.98608" lon="4.87075">
        <ele>279</ele>
        <time>2018-11-15T10:31:22Z</time>
      </trkpt>
      <trkpt lat="45.98606" lon="4.87069">
        <ele>279</ele>
        <time>2018-11-15T10:31:23Z</time>
      </trkpt>
      <trkpt lat="45.98604" lon="4.87061">
        <ele>279</ele>
        <time>2018-11-15T10:31:24Z</time>
      </trkpt>
      <trkpt lat="45.98603" lon="4.87056">
        <ele>279</ele>
        <time>2018-11-15T10:31:25Z</time>
      </trkpt>
      <trkpt lat="45.98601" lon="4.87049">
        <ele>279</ele>
        <time>2018-11-15T10:31:26Z</time>
      </trkpt>
      <trkpt lat="45.98599" lon="4.87037">
        <ele>279</ele>
        <time>2018-11-15T10:31:28Z</time>
      </trkpt>
      <trkpt lat="45.98598" lon="4.8703">
        <ele>279</ele>
        <time>2018-11-15T10:31:29Z</time>
      </trkpt>
      <trkpt lat="45.98596" lon="4.87024">
        <ele>279</ele>
        <time>2018-11-15T10:31:30Z</time>
      </trkpt>
      <trkpt lat="45.98595" lon="4.87017">
        <ele>279</ele>
        <time>2018-11-15T10:31:31Z</time>
      </trkpt>
      <trkpt lat="45.98594" lon="4.87005">
        <ele>279</ele>
        <time>2018-11-15T10:31:33Z</time>
      </trkpt>
      <trkpt lat="45.98593" lon="4.86999">
        <ele>279</ele>
        <time>2018-11-15T10:31:34Z</time>
      </trkpt>
      <trkpt lat="45.98591" lon="4.86987">
        <ele>279</ele>
        <time>2018-11-15T10:31:36Z</time>
      </trkpt>
      <trkpt lat="45.9859" lon="4.86981">
        <ele>279</ele>
        <time>2018-11-15T10:31:37Z</time>
      </trkpt>
      <trkpt lat="45.98589" lon="4.86969">
        <ele>279</ele>
        <time>2018-11-15T10:31:39Z</time>
      </trkpt>
      <trkpt lat="45.98589" lon="4.86963">
        <ele>279</ele>
        <time>2018-11-15T10:31:40Z</time>
      </trkpt>
      <trkpt lat="45.98589" lon="4.86951">
        <ele>278</ele>
        <time>2018-11-15T10:31:42Z</time>
      </trkpt>
      <trkpt lat="45.98589" lon="4.86944">
        <ele>279</ele>
        <time>2018-11-15T10:31:43Z</time>
      </trkpt>
      <trkpt lat="45.98591" lon="4.86936">
        <ele>279</ele>
        <time>2018-11-15T10:31:44Z</time>
      </trkpt>
      <trkpt lat="45.98591" lon="4.8693">
        <ele>279</ele>
        <time>2018-11-15T10:31:45Z</time>
      </trkpt>
      <trkpt lat="45.98591" lon="4.86924">
        <ele>279</ele>
        <time>2018-11-15T10:31:46Z</time>
      </trkpt>
      <trkpt lat="45.98591" lon="4.86917">
        <ele>279</ele>
        <time>2018-11-15T10:31:47Z</time>
      </trkpt>
      <trkpt lat="45.98591" lon="4.8691">
        <ele>278</ele>
        <time>2018-11-15T10:31:48Z</time>
      </trkpt>
      <trkpt lat="45.98592" lon="4.86902">
        <ele>278</ele>
        <time>2018-11-15T10:31:49Z</time>
      </trkpt>
      <trkpt lat="45.98591" lon="4.86894">
        <ele>278</ele>
        <time>2018-11-15T10:31:50Z</time>
      </trkpt>
      <trkpt lat="45.98594" lon="4.86887">
        <ele>278</ele>
        <time>2018-11-15T10:31:51Z</time>
      </trkpt>
      <trkpt lat="45.98593" lon="4.86881">
        <ele>277</ele>
        <time>2018-11-15T10:31:52Z</time>
      </trkpt>
      <trkpt lat="45.98592" lon="4.86872">
        <ele>277</ele>
        <time>2018-11-15T10:31:53Z</time>
      </trkpt>
      <trkpt lat="45.98594" lon="4.8686">
        <ele>277</ele>
        <time>2018-11-15T10:31:55Z</time>
      </trkpt>
      <trkpt lat="45.98594" lon="4.86852">
        <ele>277</ele>
        <time>2018-11-15T10:31:56Z</time>
      </trkpt>
      <trkpt lat="45.98592" lon="4.86841">
        <ele>277</ele>
        <time>2018-11-15T10:31:58Z</time>
      </trkpt>
      <trkpt lat="45.98591" lon="4.86833">
        <ele>277</ele>
        <time>2018-11-15T10:31:59Z</time>
      </trkpt>
      <trkpt lat="45.9859" lon="4.86826">
        <ele>277</ele>
        <time>2018-11-15T10:32:00Z</time>
      </trkpt>
      <trkpt lat="45.9859" lon="4.86819">
        <ele>276</ele>
        <time>2018-11-15T10:32:01Z</time>
      </trkpt>
      <trkpt lat="45.9859" lon="4.86812">
        <ele>276</ele>
        <time>2018-11-15T10:32:02Z</time>
      </trkpt>
      <trkpt lat="45.98589" lon="4.86806">
        <ele>276</ele>
        <time>2018-11-15T10:32:03Z</time>
      </trkpt>
      <trkpt lat="45.98587" lon="4.86799">
        <ele>276</ele>
        <time>2018-11-15T10:32:04Z</time>
      </trkpt>
      <trkpt lat="45.98581" lon="4.86791">
        <ele>277</ele>
        <time>2018-11-15T10:32:05Z</time>
      </trkpt>
      <trkpt lat="45.98579" lon="4.86783">
        <ele>277</ele>
        <time>2018-11-15T10:32:06Z</time>
      </trkpt>
      <trkpt lat="45.98578" lon="4.86776">
        <ele>277</ele>
        <time>2018-11-15T10:32:07Z</time>
      </trkpt>
      <trkpt lat="45.98577" lon="4.86769">
        <ele>277</ele>
        <time>2018-11-15T10:32:08Z</time>
      </trkpt>
      <trkpt lat="45.98575" lon="4.8676">
        <ele>277</ele>
        <time>2018-11-15T10:32:09Z</time>
      </trkpt>
      <trkpt lat="45.98575" lon="4.86753">
        <ele>277</ele>
        <time>2018-11-15T10:32:10Z</time>
      </trkpt>
      <trkpt lat="45.98574" lon="4.86745">
        <ele>276</ele>
        <time>2018-11-15T10:32:11Z</time>
      </trkpt>
      <trkpt lat="45.98574" lon="4.86738">
        <ele>277</ele>
        <time>2018-11-15T10:32:12Z</time>
      </trkpt>
      <trkpt lat="45.98574" lon="4.86729">
        <ele>277</ele>
        <time>2018-11-15T10:32:13Z</time>
      </trkpt>
      <trkpt lat="45.98574" lon="4.86721">
        <ele>277</ele>
        <time>2018-11-15T10:32:14Z</time>
      </trkpt>
      <trkpt lat="45.98574" lon="4.86714">
        <ele>277</ele>
        <time>2018-11-15T10:32:15Z</time>
      </trkpt>
      <trkpt lat="45.98574" lon="4.86707">
        <ele>277</ele>
        <time>2018-11-15T10:32:16Z</time>
      </trkpt>
      <trkpt lat="45.98574" lon="4.867">
        <ele>277</ele>
        <time>2018-11-15T10:32:17Z</time>
      </trkpt>
      <trkpt lat="45.98573" lon="4.86693">
        <ele>277</ele>
        <time>2018-11-15T10:32:18Z</time>
      </trkpt>
      <trkpt lat="45.98572" lon="4.86686">
        <ele>276</ele>
        <time>2018-11-15T10:32:19Z</time>
      </trkpt>
      <trkpt lat="45.98573" lon="4.86679">
        <ele>276</ele>
        <time>2018-11-15T10:32:20Z</time>
      </trkpt>
      <trkpt lat="45.98572" lon="4.86671">
        <ele>276</ele>
        <time>2018-11-15T10:32:21Z</time>
      </trkpt>
      <trkpt lat="45.98571" lon="4.86664">
        <ele>276</ele>
        <time>2018-11-15T10:32:22Z</time>
      </trkpt>
      <trkpt lat="45.9857" lon="4.86657">
        <ele>277</ele>
        <time>2018-11-15T10:32:23Z</time>
      </trkpt>
      <trkpt lat="45.9857" lon="4.8665">
        <ele>277</ele>
        <time>2018-11-15T10:32:24Z</time>
      </trkpt>
      <trkpt lat="45.98567" lon="4.86643">
        <ele>277</ele>
        <time>2018-11-15T10:32:25Z</time>
      </trkpt>
      <trkpt lat="45.98565" lon="4.86635">
        <ele>277</ele>
        <time>2018-11-15T10:32:26Z</time>
      </trkpt>
      <trkpt lat="45.98562" lon="4.86628">
        <ele>278</ele>
        <time>2018-11-15T10:32:27Z</time>
      </trkpt>
      <trkpt lat="45.98561" lon="4.86622">
        <ele>278</ele>
        <time>2018-11-15T10:32:28Z</time>
      </trkpt>
      <trkpt lat="45.9856" lon="4.86614">
        <ele>278</ele>
        <time>2018-11-15T10:32:29Z</time>
      </trkpt>
      <trkpt lat="45.98556" lon="4.86608">
        <ele>278</ele>
        <time>2018-11-15T10:32:30Z</time>
      </trkpt>
      <trkpt lat="45.98556" lon="4.86601">
        <ele>278</ele>
        <time>2018-11-15T10:32:31Z</time>
      </trkpt>
      <trkpt lat="45.98554" lon="4.86593">
        <ele>278</ele>
        <time>2018-11-15T10:32:32Z</time>
      </trkpt>
      <trkpt lat="45.98553" lon="4.86586">
        <ele>278</ele>
        <time>2018-11-15T10:32:33Z</time>
      </trkpt>
      <trkpt lat="45.98551" lon="4.8658">
        <ele>278</ele>
        <time>2018-11-15T10:32:34Z</time>
      </trkpt>
      <trkpt lat="45.98549" lon="4.86573">
        <ele>278</ele>
        <time>2018-11-15T10:32:35Z</time>
      </trkpt>
      <trkpt lat="45.98547" lon="4.86567">
        <ele>278</ele>
        <time>2018-11-15T10:32:36Z</time>
      </trkpt>
      <trkpt lat="45.98546" lon="4.8656">
        <ele>278</ele>
        <time>2018-11-15T10:32:37Z</time>
      </trkpt>
      <trkpt lat="45.98542" lon="4.86553">
        <ele>278</ele>
        <time>2018-11-15T10:32:38Z</time>
      </trkpt>
      <trkpt lat="45.98539" lon="4.86547">
        <ele>278</ele>
        <time>2018-11-15T10:32:39Z</time>
      </trkpt>
      <trkpt lat="45.98536" lon="4.86542">
        <ele>278</ele>
        <time>2018-11-15T10:32:40Z</time>
      </trkpt>
      <trkpt lat="45.98532" lon="4.86536">
        <ele>279</ele>
        <time>2018-11-15T10:32:41Z</time>
      </trkpt>
      <trkpt lat="45.98529" lon="4.86531">
        <ele>279</ele>
        <time>2018-11-15T10:32:42Z</time>
      </trkpt>
      <trkpt lat="45.98527" lon="4.86525">
        <ele>279</ele>
        <time>2018-11-15T10:32:43Z</time>
      </trkpt>
      <trkpt lat="45.98522" lon="4.86519">
        <ele>279</ele>
        <time>2018-11-15T10:32:44Z</time>
      </trkpt>
      <trkpt lat="45.98518" lon="4.86512">
        <ele>279</ele>
        <time>2018-11-15T10:32:45Z</time>
      </trkpt>
      <trkpt lat="45.98514" lon="4.86502">
        <ele>279</ele>
        <time>2018-11-15T10:32:47Z</time>
      </trkpt>
      <trkpt lat="45.98511" lon="4.86496">
        <ele>279</ele>
        <time>2018-11-15T10:32:48Z</time>
      </trkpt>
      <trkpt lat="45.98506" lon="4.86486">
        <ele>279</ele>
        <time>2018-11-15T10:32:50Z</time>
      </trkpt>
      <trkpt lat="45.98503" lon="4.8648">
        <ele>278</ele>
        <time>2018-11-15T10:32:51Z</time>
      </trkpt>
      <trkpt lat="45.985" lon="4.86468">
        <ele>279</ele>
        <time>2018-11-15T10:32:53Z</time>
      </trkpt>
      <trkpt lat="45.98498" lon="4.86462">
        <ele>278</ele>
        <time>2018-11-15T10:32:54Z</time>
      </trkpt>
      <trkpt lat="45.98493" lon="4.86451">
        <ele>278</ele>
        <time>2018-11-15T10:32:56Z</time>
      </trkpt>
      <trkpt lat="45.9849" lon="4.86448">
        <ele>278</ele>
        <time>2018-11-15T10:32:57Z</time>
      </trkpt>
      <trkpt lat="45.98487" lon="4.86443">
        <ele>278</ele>
        <time>2018-11-15T10:32:58Z</time>
      </trkpt>
      <trkpt lat="45.98485" lon="4.86436">
        <ele>278</ele>
        <time>2018-11-15T10:32:59Z</time>
      </trkpt>
      <trkpt lat="45.98482" lon="4.86431">
        <ele>278</ele>
        <time>2018-11-15T10:33:00Z</time>
      </trkpt>
      <trkpt lat="45.9848" lon="4.86425">
        <ele>278</ele>
        <time>2018-11-15T10:33:01Z</time>
      </trkpt>
      <trkpt lat="45.98475" lon="4.86415">
        <ele>277</ele>
        <time>2018-11-15T10:33:03Z</time>
      </trkpt>
      <trkpt lat="45.98473" lon="4.86409">
        <ele>277</ele>
        <time>2018-11-15T10:33:04Z</time>
      </trkpt>
      <trkpt lat="45.98471" lon="4.86403">
        <ele>277</ele>
        <time>2018-11-15T10:33:05Z</time>
      </trkpt>
      <trkpt lat="45.98469" lon="4.86397">
        <ele>277</ele>
        <time>2018-11-15T10:33:06Z</time>
      </trkpt>
      <trkpt lat="45.98467" lon="4.86391">
        <ele>277</ele>
        <time>2018-11-15T10:33:07Z</time>
      </trkpt>
      <trkpt lat="45.98464" lon="4.86386">
        <ele>277</ele>
        <time>2018-11-15T10:33:08Z</time>
      </trkpt>
      <trkpt lat="45.98461" lon="4.86374">
        <ele>277</ele>
        <time>2018-11-15T10:33:10Z</time>
      </trkpt>
      <trkpt lat="45.98459" lon="4.86368">
        <ele>277</ele>
        <time>2018-11-15T10:33:11Z</time>
      </trkpt>
      <trkpt lat="45.98456" lon="4.86356">
        <ele>277</ele>
        <time>2018-11-15T10:33:13Z</time>
      </trkpt>
      <trkpt lat="45.98454" lon="4.86349">
        <ele>277</ele>
        <time>2018-11-15T10:33:14Z</time>
      </trkpt>
      <trkpt lat="45.98453" lon="4.86343">
        <ele>277</ele>
        <time>2018-11-15T10:33:15Z</time>
      </trkpt>
      <trkpt lat="45.98451" lon="4.86337">
        <ele>277</ele>
        <time>2018-11-15T10:33:16Z</time>
      </trkpt>
      <trkpt lat="45.9845" lon="4.86331">
        <ele>276</ele>
        <time>2018-11-15T10:33:17Z</time>
      </trkpt>
      <trkpt lat="45.98448" lon="4.86325">
        <ele>276</ele>
        <time>2018-11-15T10:33:18Z</time>
      </trkpt>
      <trkpt lat="45.98447" lon="4.86313">
        <ele>276</ele>
        <time>2018-11-15T10:33:20Z</time>
      </trkpt>
      <trkpt lat="45.98446" lon="4.86307">
        <ele>276</ele>
        <time>2018-11-15T10:33:21Z</time>
      </trkpt>
      <trkpt lat="45.98444" lon="4.86295">
        <ele>276</ele>
        <time>2018-11-15T10:33:23Z</time>
      </trkpt>
      <trkpt lat="45.98443" lon="4.86289">
        <ele>276</ele>
        <time>2018-11-15T10:33:24Z</time>
      </trkpt>
      <trkpt lat="45.9844" lon="4.86278">
        <ele>276</ele>
        <time>2018-11-15T10:33:27Z</time>
      </trkpt>
      <trkpt lat="45.9844" lon="4.86274">
        <ele>276</ele>
        <time>2018-11-15T10:33:28Z</time>
      </trkpt>
      <trkpt lat="45.98439" lon="4.86265">
        <ele>275</ele>
        <time>2018-11-15T10:33:30Z</time>
      </trkpt>
      <trkpt lat="45.98438" lon="4.8626">
        <ele>275</ele>
        <time>2018-11-15T10:33:31Z</time>
      </trkpt>
      <trkpt lat="45.98437" lon="4.86252">
        <ele>275</ele>
        <time>2018-11-15T10:33:33Z</time>
      </trkpt>
      <trkpt lat="45.98436" lon="4.86248">
        <ele>275</ele>
        <time>2018-11-15T10:33:34Z</time>
      </trkpt>
      <trkpt lat="45.98434" lon="4.86238">
        <ele>275</ele>
        <time>2018-11-15T10:33:36Z</time>
      </trkpt>
      <trkpt lat="45.98433" lon="4.86233">
        <ele>275</ele>
        <time>2018-11-15T10:33:37Z</time>
      </trkpt>
      <trkpt lat="45.98432" lon="4.86221">
        <ele>275</ele>
        <time>2018-11-15T10:33:40Z</time>
      </trkpt>
      <trkpt lat="45.98432" lon="4.86216">
        <ele>275</ele>
        <time>2018-11-15T10:33:41Z</time>
      </trkpt>
      <trkpt lat="45.98431" lon="4.86207">
        <ele>275</ele>
        <time>2018-11-15T10:33:43Z</time>
      </trkpt>
      <trkpt lat="45.9843" lon="4.86203">
        <ele>275</ele>
        <time>2018-11-15T10:33:44Z</time>
      </trkpt>
      <trkpt lat="45.98429" lon="4.86198">
        <ele>275</ele>
        <time>2018-11-15T10:33:45Z</time>
      </trkpt>
      <trkpt lat="45.98427" lon="4.86188">
        <ele>275</ele>
        <time>2018-11-15T10:33:46Z</time>
      </trkpt>
      <trkpt lat="45.98426" lon="4.86178">
        <ele>275</ele>
        <time>2018-11-15T10:33:48Z</time>
      </trkpt>
      <trkpt lat="45.98425" lon="4.86172">
        <ele>276</ele>
        <time>2018-11-15T10:33:49Z</time>
      </trkpt>
      <trkpt lat="45.98422" lon="4.86161">
        <ele>276</ele>
        <time>2018-11-15T10:33:51Z</time>
      </trkpt>
      <trkpt lat="45.98421" lon="4.86155">
        <ele>276</ele>
        <time>2018-11-15T10:33:52Z</time>
      </trkpt>
      <trkpt lat="45.98419" lon="4.86149">
        <ele>276</ele>
        <time>2018-11-15T10:33:53Z</time>
      </trkpt>
      <trkpt lat="45.98418" lon="4.86143">
        <ele>276</ele>
        <time>2018-11-15T10:33:54Z</time>
      </trkpt>
      <trkpt lat="45.98417" lon="4.86137">
        <ele>276</ele>
        <time>2018-11-15T10:33:55Z</time>
      </trkpt>
      <trkpt lat="45.98416" lon="4.8613">
        <ele>276</ele>
        <time>2018-11-15T10:33:56Z</time>
      </trkpt>
      <trkpt lat="45.98414" lon="4.86123">
        <ele>277</ele>
        <time>2018-11-15T10:33:57Z</time>
      </trkpt>
      <trkpt lat="45.98413" lon="4.86116">
        <ele>277</ele>
        <time>2018-11-15T10:33:58Z</time>
      </trkpt>
      <trkpt lat="45.98411" lon="4.86108">
        <ele>277</ele>
        <time>2018-11-15T10:33:59Z</time>
      </trkpt>
      <trkpt lat="45.9841" lon="4.861">
        <ele>277</ele>
        <time>2018-11-15T10:34:00Z</time>
      </trkpt>
      <trkpt lat="45.98408" lon="4.86091">
        <ele>277</ele>
        <time>2018-11-15T10:34:01Z</time>
      </trkpt>
      <trkpt lat="45.98408" lon="4.86082">
        <ele>277</ele>
        <time>2018-11-15T10:34:02Z</time>
      </trkpt>
      <trkpt lat="45.98403" lon="4.86073">
        <ele>277</ele>
        <time>2018-11-15T10:34:03Z</time>
      </trkpt>
      <trkpt lat="45.98401" lon="4.86063">
        <ele>277</ele>
        <time>2018-11-15T10:34:04Z</time>
      </trkpt>
      <trkpt lat="45.98399" lon="4.86053">
        <ele>277</ele>
        <time>2018-11-15T10:34:05Z</time>
      </trkpt>
      <trkpt lat="45.98396" lon="4.86043">
        <ele>277</ele>
        <time>2018-11-15T10:34:06Z</time>
      </trkpt>
      <trkpt lat="45.98392" lon="4.86033">
        <ele>277</ele>
        <time>2018-11-15T10:34:07Z</time>
      </trkpt>
      <trkpt lat="45.98389" lon="4.86023">
        <ele>277</ele>
        <time>2018-11-15T10:34:08Z</time>
      </trkpt>
      <trkpt lat="45.98385" lon="4.86014">
        <ele>277</ele>
        <time>2018-11-15T10:34:09Z</time>
      </trkpt>
      <trkpt lat="45.98381" lon="4.86005">
        <ele>277</ele>
        <time>2018-11-15T10:34:10Z</time>
      </trkpt>
      <trkpt lat="45.98376" lon="4.85996">
        <ele>277</ele>
        <time>2018-11-15T10:34:11Z</time>
      </trkpt>
      <trkpt lat="45.98374" lon="4.85987">
        <ele>276</ele>
        <time>2018-11-15T10:34:12Z</time>
      </trkpt>
      <trkpt lat="45.98372" lon="4.85979">
        <ele>276</ele>
        <time>2018-11-15T10:34:13Z</time>
      </trkpt>
      <trkpt lat="45.98369" lon="4.85972">
        <ele>276</ele>
        <time>2018-11-15T10:34:14Z</time>
      </trkpt>
      <trkpt lat="45.98365" lon="4.85964">
        <ele>276</ele>
        <time>2018-11-15T10:34:15Z</time>
      </trkpt>
      <trkpt lat="45.98363" lon="4.85956">
        <ele>276</ele>
        <time>2018-11-15T10:34:16Z</time>
      </trkpt>
      <trkpt lat="45.9836" lon="4.85949">
        <ele>276</ele>
        <time>2018-11-15T10:34:17Z</time>
      </trkpt>
      <trkpt lat="45.98357" lon="4.85942">
        <ele>276</ele>
        <time>2018-11-15T10:34:18Z</time>
      </trkpt>
      <trkpt lat="45.98356" lon="4.85936">
        <ele>276</ele>
        <time>2018-11-15T10:34:19Z</time>
      </trkpt>
      <trkpt lat="45.98352" lon="4.85929">
        <ele>276</ele>
        <time>2018-11-15T10:34:20Z</time>
      </trkpt>
      <trkpt lat="45.98348" lon="4.85918">
        <ele>276</ele>
        <time>2018-11-15T10:34:22Z</time>
      </trkpt>
      <trkpt lat="45.98346" lon="4.85911">
        <ele>276</ele>
        <time>2018-11-15T10:34:23Z</time>
      </trkpt>
      <trkpt lat="45.98344" lon="4.85905">
        <ele>276</ele>
        <time>2018-11-15T10:34:24Z</time>
      </trkpt>
      <trkpt lat="45.98342" lon="4.85899">
        <ele>276</ele>
        <time>2018-11-15T10:34:25Z</time>
      </trkpt>
      <trkpt lat="45.98339" lon="4.85893">
        <ele>276</ele>
        <time>2018-11-15T10:34:26Z</time>
      </trkpt>
      <trkpt lat="45.98334" lon="4.85886">
        <ele>276</ele>
        <time>2018-11-15T10:34:27Z</time>
      </trkpt>
      <trkpt lat="45.98332" lon="4.85879">
        <ele>276</ele>
        <time>2018-11-15T10:34:28Z</time>
      </trkpt>
      <trkpt lat="45.98328" lon="4.85873">
        <ele>276</ele>
        <time>2018-11-15T10:34:29Z</time>
      </trkpt>
      <trkpt lat="45.98329" lon="4.85867">
        <ele>276</ele>
        <time>2018-11-15T10:34:30Z</time>
      </trkpt>
      <trkpt lat="45.98326" lon="4.8586">
        <ele>276</ele>
        <time>2018-11-15T10:34:31Z</time>
      </trkpt>
      <trkpt lat="45.98324" lon="4.85853">
        <ele>276</ele>
        <time>2018-11-15T10:34:32Z</time>
      </trkpt>
      <trkpt lat="45.9832" lon="4.85845">
        <ele>276</ele>
        <time>2018-11-15T10:34:33Z</time>
      </trkpt>
      <trkpt lat="45.98318" lon="4.85837">
        <ele>276</ele>
        <time>2018-11-15T10:34:34Z</time>
      </trkpt>
      <trkpt lat="45.98315" lon="4.8583">
        <ele>275</ele>
        <time>2018-11-15T10:34:35Z</time>
      </trkpt>
      <trkpt lat="45.98309" lon="4.85821">
        <ele>275</ele>
        <time>2018-11-15T10:34:36Z</time>
      </trkpt>
      <trkpt lat="45.98306" lon="4.85815">
        <ele>275</ele>
        <time>2018-11-15T10:34:37Z</time>
      </trkpt>
      <trkpt lat="45.98303" lon="4.85808">
        <ele>275</ele>
        <time>2018-11-15T10:34:38Z</time>
      </trkpt>
      <trkpt lat="45.98301" lon="4.85802">
        <ele>275</ele>
        <time>2018-11-15T10:34:39Z</time>
      </trkpt>
      <trkpt lat="45.98297" lon="4.85795">
        <ele>275</ele>
        <time>2018-11-15T10:34:40Z</time>
      </trkpt>
      <trkpt lat="45.98295" lon="4.85789">
        <ele>275</ele>
        <time>2018-11-15T10:34:41Z</time>
      </trkpt>
      <trkpt lat="45.98291" lon="4.85785">
        <ele>275</ele>
        <time>2018-11-15T10:34:42Z</time>
      </trkpt>
      <trkpt lat="45.98287" lon="4.85778">
        <ele>275</ele>
        <time>2018-11-15T10:34:43Z</time>
      </trkpt>
      <trkpt lat="45.98286" lon="4.85772">
        <ele>275</ele>
        <time>2018-11-15T10:34:44Z</time>
      </trkpt>
      <trkpt lat="45.98284" lon="4.85766">
        <ele>275</ele>
        <time>2018-11-15T10:34:45Z</time>
      </trkpt>
      <trkpt lat="45.9828" lon="4.85755">
        <ele>275</ele>
        <time>2018-11-15T10:34:47Z</time>
      </trkpt>
      <trkpt lat="45.98278" lon="4.85748">
        <ele>274</ele>
        <time>2018-11-15T10:34:48Z</time>
      </trkpt>
      <trkpt lat="45.98275" lon="4.85743">
        <ele>274</ele>
        <time>2018-11-15T10:34:49Z</time>
      </trkpt>
      <trkpt lat="45.98273" lon="4.85737">
        <ele>274</ele>
        <time>2018-11-15T10:34:50Z</time>
      </trkpt>
      <trkpt lat="45.98269" lon="4.8573">
        <ele>275</ele>
        <time>2018-11-15T10:34:51Z</time>
      </trkpt>
      <trkpt lat="45.98266" lon="4.85724">
        <ele>275</ele>
        <time>2018-11-15T10:34:52Z</time>
      </trkpt>
      <trkpt lat="45.98262" lon="4.85717">
        <ele>275</ele>
        <time>2018-11-15T10:34:53Z</time>
      </trkpt>
      <trkpt lat="45.98259" lon="4.85711">
        <ele>275</ele>
        <time>2018-11-15T10:34:54Z</time>
      </trkpt>
      <trkpt lat="45.98257" lon="4.85703">
        <ele>275</ele>
        <time>2018-11-15T10:34:55Z</time>
      </trkpt>
      <trkpt lat="45.98255" lon="4.85698">
        <ele>275</ele>
        <time>2018-11-15T10:34:56Z</time>
      </trkpt>
      <trkpt lat="45.98253" lon="4.85692">
        <ele>275</ele>
        <time>2018-11-15T10:34:57Z</time>
      </trkpt>
      <trkpt lat="45.98251" lon="4.85686">
        <ele>275</ele>
        <time>2018-11-15T10:34:58Z</time>
      </trkpt>
      <trkpt lat="45.98247" lon="4.85679">
        <ele>276</ele>
        <time>2018-11-15T10:34:59Z</time>
      </trkpt>
      <trkpt lat="45.98244" lon="4.85672">
        <ele>276</ele>
        <time>2018-11-15T10:35:00Z</time>
      </trkpt>
      <trkpt lat="45.98243" lon="4.85666">
        <ele>276</ele>
        <time>2018-11-15T10:35:01Z</time>
      </trkpt>
      <trkpt lat="45.98241" lon="4.8566">
        <ele>276</ele>
        <time>2018-11-15T10:35:02Z</time>
      </trkpt>
      <trkpt lat="45.9824" lon="4.85653">
        <ele>276</ele>
        <time>2018-11-15T10:35:03Z</time>
      </trkpt>
      <trkpt lat="45.98237" lon="4.85646">
        <ele>277</ele>
        <time>2018-11-15T10:35:04Z</time>
      </trkpt>
      <trkpt lat="45.98234" lon="4.8564">
        <ele>277</ele>
        <time>2018-11-15T10:35:05Z</time>
      </trkpt>
      <trkpt lat="45.98231" lon="4.85633">
        <ele>277</ele>
        <time>2018-11-15T10:35:06Z</time>
      </trkpt>
      <trkpt lat="45.98228" lon="4.85627">
        <ele>277</ele>
        <time>2018-11-15T10:35:07Z</time>
      </trkpt>
      <trkpt lat="45.98225" lon="4.85622">
        <ele>277</ele>
        <time>2018-11-15T10:35:08Z</time>
      </trkpt>
      <trkpt lat="45.98223" lon="4.85616">
        <ele>277</ele>
        <time>2018-11-15T10:35:09Z</time>
      </trkpt>
      <trkpt lat="45.98221" lon="4.85609">
        <ele>277</ele>
        <time>2018-11-15T10:35:10Z</time>
      </trkpt>
      <trkpt lat="45.98219" lon="4.85603">
        <ele>277</ele>
        <time>2018-11-15T10:35:11Z</time>
      </trkpt>
      <trkpt lat="45.98216" lon="4.85597">
        <ele>277</ele>
        <time>2018-11-15T10:35:12Z</time>
      </trkpt>
      <trkpt lat="45.98214" lon="4.8559">
        <ele>277</ele>
        <time>2018-11-15T10:35:13Z</time>
      </trkpt>
      <trkpt lat="45.98211" lon="4.85582">
        <ele>276</ele>
        <time>2018-11-15T10:35:14Z</time>
      </trkpt>
      <trkpt lat="45.98208" lon="4.85576">
        <ele>276</ele>
        <time>2018-11-15T10:35:15Z</time>
      </trkpt>
      <trkpt lat="45.98205" lon="4.85568">
        <ele>276</ele>
        <time>2018-11-15T10:35:16Z</time>
      </trkpt>
      <trkpt lat="45.98203" lon="4.85561">
        <ele>276</ele>
        <time>2018-11-15T10:35:17Z</time>
      </trkpt>
      <trkpt lat="45.982" lon="4.85555">
        <ele>276</ele>
        <time>2018-11-15T10:35:18Z</time>
      </trkpt>
      <trkpt lat="45.98197" lon="4.85549">
        <ele>276</ele>
        <time>2018-11-15T10:35:19Z</time>
      </trkpt>
      <trkpt lat="45.98195" lon="4.85542">
        <ele>276</ele>
        <time>2018-11-15T10:35:20Z</time>
      </trkpt>
      <trkpt lat="45.98193" lon="4.85536">
        <ele>276</ele>
        <time>2018-11-15T10:35:21Z</time>
      </trkpt>
      <trkpt lat="45.9819" lon="4.8553">
        <ele>276</ele>
        <time>2018-11-15T10:35:22Z</time>
      </trkpt>
      <trkpt lat="45.98188" lon="4.85523">
        <ele>276</ele>
        <time>2018-11-15T10:35:23Z</time>
      </trkpt>
      <trkpt lat="45.98185" lon="4.85518">
        <ele>275</ele>
        <time>2018-11-15T10:35:24Z</time>
      </trkpt>
      <trkpt lat="45.98183" lon="4.85512">
        <ele>275</ele>
        <time>2018-11-15T10:35:25Z</time>
      </trkpt>
      <trkpt lat="45.98181" lon="4.85505">
        <ele>275</ele>
        <time>2018-11-15T10:35:26Z</time>
      </trkpt>
      <trkpt lat="45.98179" lon="4.85498">
        <ele>275</ele>
        <time>2018-11-15T10:35:27Z</time>
      </trkpt>
      <trkpt lat="45.98176" lon="4.85491">
        <ele>275</ele>
        <time>2018-11-15T10:35:28Z</time>
      </trkpt>
      <trkpt lat="45.98173" lon="4.85485">
        <ele>275</ele>
        <time>2018-11-15T10:35:29Z</time>
      </trkpt>
      <trkpt lat="45.98171" lon="4.85479">
        <ele>275</ele>
        <time>2018-11-15T10:35:30Z</time>
      </trkpt>
      <trkpt lat="45.98168" lon="4.85471">
        <ele>275</ele>
        <time>2018-11-15T10:35:31Z</time>
      </trkpt>
      <trkpt lat="45.98166" lon="4.85463">
        <ele>275</ele>
        <time>2018-11-15T10:35:32Z</time>
      </trkpt>
      <trkpt lat="45.98162" lon="4.85456">
        <ele>276</ele>
        <time>2018-11-15T10:35:33Z</time>
      </trkpt>
      <trkpt lat="45.98159" lon="4.8545">
        <ele>276</ele>
        <time>2018-11-15T10:35:34Z</time>
      </trkpt>
      <trkpt lat="45.98157" lon="4.85444">
        <ele>276</ele>
        <time>2018-11-15T10:35:35Z</time>
      </trkpt>
      <trkpt lat="45.98153" lon="4.85437">
        <ele>276</ele>
        <time>2018-11-15T10:35:36Z</time>
      </trkpt>
      <trkpt lat="45.98148" lon="4.85427">
        <ele>276</ele>
        <time>2018-11-15T10:35:38Z</time>
      </trkpt>
      <trkpt lat="45.98146" lon="4.85422">
        <ele>276</ele>
        <time>2018-11-15T10:35:39Z</time>
      </trkpt>
      <trkpt lat="45.98141" lon="4.85412">
        <ele>276</ele>
        <time>2018-11-15T10:35:41Z</time>
      </trkpt>
      <trkpt lat="45.98139" lon="4.85407">
        <ele>276</ele>
        <time>2018-11-15T10:35:42Z</time>
      </trkpt>
      <trkpt lat="45.98134" lon="4.85397">
        <ele>276</ele>
        <time>2018-11-15T10:35:44Z</time>
      </trkpt>
      <trkpt lat="45.98131" lon="4.85392">
        <ele>276</ele>
        <time>2018-11-15T10:35:45Z</time>
      </trkpt>
      <trkpt lat="45.98128" lon="4.85386">
        <ele>276</ele>
        <time>2018-11-15T10:35:46Z</time>
      </trkpt>
      <trkpt lat="45.98125" lon="4.8538">
        <ele>276</ele>
        <time>2018-11-15T10:35:47Z</time>
      </trkpt>
      <trkpt lat="45.98122" lon="4.85375">
        <ele>276</ele>
        <time>2018-11-15T10:35:48Z</time>
      </trkpt>
      <trkpt lat="45.98121" lon="4.85366">
        <ele>276</ele>
        <time>2018-11-15T10:35:49Z</time>
      </trkpt>
      <trkpt lat="45.98118" lon="4.8536">
        <ele>276</ele>
        <time>2018-11-15T10:35:50Z</time>
      </trkpt>
      <trkpt lat="45.98115" lon="4.85354">
        <ele>276</ele>
        <time>2018-11-15T10:35:51Z</time>
      </trkpt>
      <trkpt lat="45.98113" lon="4.85348">
        <ele>276</ele>
        <time>2018-11-15T10:35:52Z</time>
      </trkpt>
      <trkpt lat="45.98111" lon="4.85341">
        <ele>276</ele>
        <time>2018-11-15T10:35:53Z</time>
      </trkpt>
      <trkpt lat="45.98108" lon="4.85333">
        <ele>276</ele>
        <time>2018-11-15T10:35:54Z</time>
      </trkpt>
      <trkpt lat="45.98106" lon="4.85326">
        <ele>276</ele>
        <time>2018-11-15T10:35:55Z</time>
      </trkpt>
      <trkpt lat="45.98104" lon="4.85318">
        <ele>276</ele>
        <time>2018-11-15T10:35:56Z</time>
      </trkpt>
      <trkpt lat="45.98101" lon="4.85313">
        <ele>276</ele>
        <time>2018-11-15T10:35:57Z</time>
      </trkpt>
      <trkpt lat="45.98098" lon="4.85308">
        <ele>276</ele>
        <time>2018-11-15T10:35:58Z</time>
      </trkpt>
      <trkpt lat="45.98096" lon="4.85303">
        <ele>276</ele>
        <time>2018-11-15T10:35:59Z</time>
      </trkpt>
      <trkpt lat="45.98093" lon="4.85297">
        <ele>276</ele>
        <time>2018-11-15T10:36:00Z</time>
      </trkpt>
      <trkpt lat="45.9809" lon="4.85292">
        <ele>276</ele>
        <time>2018-11-15T10:36:01Z</time>
      </trkpt>
      <trkpt lat="45.98088" lon="4.8528">
        <ele>276</ele>
        <time>2018-11-15T10:36:03Z</time>
      </trkpt>
      <trkpt lat="45.98085" lon="4.85274">
        <ele>276</ele>
        <time>2018-11-15T10:36:04Z</time>
      </trkpt>
      <trkpt lat="45.98079" lon="4.85265">
        <ele>276</ele>
        <time>2018-11-15T10:36:06Z</time>
      </trkpt>
      <trkpt lat="45.98074" lon="4.8526">
        <ele>276</ele>
        <time>2018-11-15T10:36:07Z</time>
      </trkpt>
      <trkpt lat="45.98069" lon="4.8525">
        <ele>276</ele>
        <time>2018-11-15T10:36:10Z</time>
      </trkpt>
      <trkpt lat="45.98067" lon="4.85247">
        <ele>276</ele>
        <time>2018-11-15T10:36:11Z</time>
      </trkpt>
      <trkpt lat="45.98064" lon="4.85241">
        <ele>276</ele>
        <time>2018-11-15T10:36:13Z</time>
      </trkpt>
      <trkpt lat="45.98061" lon="4.85232">
        <ele>276</ele>
        <time>2018-11-15T10:36:14Z</time>
      </trkpt>
      <trkpt lat="45.98057" lon="4.85223">
        <ele>276</ele>
        <time>2018-11-15T10:36:16Z</time>
      </trkpt>
      <trkpt lat="45.98055" lon="4.85218">
        <ele>276</ele>
        <time>2018-11-15T10:36:17Z</time>
      </trkpt>
      <trkpt lat="45.98051" lon="4.85207">
        <ele>276</ele>
        <time>2018-11-15T10:36:19Z</time>
      </trkpt>
      <trkpt lat="45.9805" lon="4.85201">
        <ele>276</ele>
        <time>2018-11-15T10:36:20Z</time>
      </trkpt>
      <trkpt lat="45.98048" lon="4.85194">
        <ele>276</ele>
        <time>2018-11-15T10:36:21Z</time>
      </trkpt>
      <trkpt lat="45.98046" lon="4.85186">
        <ele>276</ele>
        <time>2018-11-15T10:36:22Z</time>
      </trkpt>
      <trkpt lat="45.98045" lon="4.8518">
        <ele>276</ele>
        <time>2018-11-15T10:36:23Z</time>
      </trkpt>
      <trkpt lat="45.98042" lon="4.85173">
        <ele>275</ele>
        <time>2018-11-15T10:36:24Z</time>
      </trkpt>
      <trkpt lat="45.9804" lon="4.85165">
        <ele>275</ele>
        <time>2018-11-15T10:36:25Z</time>
      </trkpt>
      <trkpt lat="45.98038" lon="4.85158">
        <ele>275</ele>
        <time>2018-11-15T10:36:26Z</time>
      </trkpt>
      <trkpt lat="45.98035" lon="4.8515">
        <ele>275</ele>
        <time>2018-11-15T10:36:27Z</time>
      </trkpt>
      <trkpt lat="45.98033" lon="4.85142">
        <ele>275</ele>
        <time>2018-11-15T10:36:28Z</time>
      </trkpt>
      <trkpt lat="45.98031" lon="4.85134">
        <ele>275</ele>
        <time>2018-11-15T10:36:29Z</time>
      </trkpt>
      <trkpt lat="45.98028" lon="4.85126">
        <ele>274</ele>
        <time>2018-11-15T10:36:30Z</time>
      </trkpt>
      <trkpt lat="45.98028" lon="4.85118">
        <ele>274</ele>
        <time>2018-11-15T10:36:31Z</time>
      </trkpt>
      <trkpt lat="45.98025" lon="4.8511">
        <ele>274</ele>
        <time>2018-11-15T10:36:32Z</time>
      </trkpt>
      <trkpt lat="45.98024" lon="4.85102">
        <ele>274</ele>
        <time>2018-11-15T10:36:33Z</time>
      </trkpt>
      <trkpt lat="45.98022" lon="4.85094">
        <ele>274</ele>
        <time>2018-11-15T10:36:34Z</time>
      </trkpt>
      <trkpt lat="45.98021" lon="4.85085">
        <ele>274</ele>
        <time>2018-11-15T10:36:35Z</time>
      </trkpt>
      <trkpt lat="45.9802" lon="4.85077">
        <ele>273</ele>
        <time>2018-11-15T10:36:36Z</time>
      </trkpt>
      <trkpt lat="45.9802" lon="4.85069">
        <ele>273</ele>
        <time>2018-11-15T10:36:37Z</time>
      </trkpt>
      <trkpt lat="45.98021" lon="4.85061">
        <ele>273</ele>
        <time>2018-11-15T10:36:38Z</time>
      </trkpt>
      <trkpt lat="45.98021" lon="4.85053">
        <ele>273</ele>
        <time>2018-11-15T10:36:39Z</time>
      </trkpt>
      <trkpt lat="45.98021" lon="4.85045">
        <ele>273</ele>
        <time>2018-11-15T10:36:40Z</time>
      </trkpt>
      <trkpt lat="45.98021" lon="4.85037">
        <ele>273</ele>
        <time>2018-11-15T10:36:41Z</time>
      </trkpt>
      <trkpt lat="45.98021" lon="4.85029">
        <ele>273</ele>
        <time>2018-11-15T10:36:42Z</time>
      </trkpt>
      <trkpt lat="45.9802" lon="4.85022">
        <ele>273</ele>
        <time>2018-11-15T10:36:43Z</time>
      </trkpt>
      <trkpt lat="45.98021" lon="4.85014">
        <ele>273</ele>
        <time>2018-11-15T10:36:44Z</time>
      </trkpt>
      <trkpt lat="45.98021" lon="4.85007">
        <ele>273</ele>
        <time>2018-11-15T10:36:45Z</time>
      </trkpt>
      <trkpt lat="45.9802" lon="4.85">
        <ele>272</ele>
        <time>2018-11-15T10:36:46Z</time>
      </trkpt>
      <trkpt lat="45.9802" lon="4.84992">
        <ele>272</ele>
        <time>2018-11-15T10:36:47Z</time>
      </trkpt>
      <trkpt lat="45.98019" lon="4.84983">
        <ele>272</ele>
        <time>2018-11-15T10:36:48Z</time>
      </trkpt>
      <trkpt lat="45.98019" lon="4.84974">
        <ele>272</ele>
        <time>2018-11-15T10:36:49Z</time>
      </trkpt>
      <trkpt lat="45.98018" lon="4.84966">
        <ele>272</ele>
        <time>2018-11-15T10:36:50Z</time>
      </trkpt>
      <trkpt lat="45.98018" lon="4.84955">
        <ele>272</ele>
        <time>2018-11-15T10:36:51Z</time>
      </trkpt>
      <trkpt lat="45.98017" lon="4.84947">
        <ele>272</ele>
        <time>2018-11-15T10:36:52Z</time>
      </trkpt>
      <trkpt lat="45.98015" lon="4.8494">
        <ele>272</ele>
        <time>2018-11-15T10:36:53Z</time>
      </trkpt>
      <trkpt lat="45.98014" lon="4.84933">
        <ele>272</ele>
        <time>2018-11-15T10:36:54Z</time>
      </trkpt>
      <trkpt lat="45.98013" lon="4.84925">
        <ele>272</ele>
        <time>2018-11-15T10:36:55Z</time>
      </trkpt>
      <trkpt lat="45.98013" lon="4.84917">
        <ele>272</ele>
        <time>2018-11-15T10:36:56Z</time>
      </trkpt>
      <trkpt lat="45.98013" lon="4.84911">
        <ele>272</ele>
        <time>2018-11-15T10:36:57Z</time>
      </trkpt>
      <trkpt lat="45.98012" lon="4.84904">
        <ele>272</ele>
        <time>2018-11-15T10:36:58Z</time>
      </trkpt>
      <trkpt lat="45.9801" lon="4.84896">
        <ele>272</ele>
        <time>2018-11-15T10:36:59Z</time>
      </trkpt>
      <trkpt lat="45.98009" lon="4.84889">
        <ele>272</ele>
        <time>2018-11-15T10:37:00Z</time>
      </trkpt>
      <trkpt lat="45.98009" lon="4.84881">
        <ele>272</ele>
        <time>2018-11-15T10:37:01Z</time>
      </trkpt>
      <trkpt lat="45.98009" lon="4.84874">
        <ele>272</ele>
        <time>2018-11-15T10:37:02Z</time>
      </trkpt>
      <trkpt lat="45.98008" lon="4.84866">
        <ele>272</ele>
        <time>2018-11-15T10:37:03Z</time>
      </trkpt>
      <trkpt lat="45.98007" lon="4.84858">
        <ele>272</ele>
        <time>2018-11-15T10:37:04Z</time>
      </trkpt>
      <trkpt lat="45.98005" lon="4.8485">
        <ele>272</ele>
        <time>2018-11-15T10:37:05Z</time>
      </trkpt>
      <trkpt lat="45.98004" lon="4.84843">
        <ele>272</ele>
        <time>2018-11-15T10:37:06Z</time>
      </trkpt>
      <trkpt lat="45.98004" lon="4.84836">
        <ele>272</ele>
        <time>2018-11-15T10:37:07Z</time>
      </trkpt>
      <trkpt lat="45.98" lon="4.84827">
        <ele>273</ele>
        <time>2018-11-15T10:37:08Z</time>
      </trkpt>
      <trkpt lat="45.98" lon="4.8482">
        <ele>272</ele>
        <time>2018-11-15T10:37:09Z</time>
      </trkpt>
      <trkpt lat="45.98" lon="4.84813">
        <ele>273</ele>
        <time>2018-11-15T10:37:10Z</time>
      </trkpt>
      <trkpt lat="45.97998" lon="4.84806">
        <ele>274</ele>
        <time>2018-11-15T10:37:11Z</time>
      </trkpt>
      <trkpt lat="45.97997" lon="4.84801">
        <ele>274</ele>
        <time>2018-11-15T10:37:12Z</time>
      </trkpt>
      <trkpt lat="45.97997" lon="4.84793">
        <ele>274</ele>
        <time>2018-11-15T10:37:13Z</time>
      </trkpt>
      <trkpt lat="45.97997" lon="4.84787">
        <ele>274</ele>
        <time>2018-11-15T10:37:14Z</time>
      </trkpt>
      <trkpt lat="45.97996" lon="4.84779">
        <ele>274</ele>
        <time>2018-11-15T10:37:15Z</time>
      </trkpt>
      <trkpt lat="45.97995" lon="4.84772">
        <ele>274</ele>
        <time>2018-11-15T10:37:16Z</time>
      </trkpt>
      <trkpt lat="45.97994" lon="4.84765">
        <ele>275</ele>
        <time>2018-11-15T10:37:17Z</time>
      </trkpt>
      <trkpt lat="45.97994" lon="4.84758">
        <ele>275</ele>
        <time>2018-11-15T10:37:18Z</time>
      </trkpt>
      <trkpt lat="45.97994" lon="4.8475">
        <ele>275</ele>
        <time>2018-11-15T10:37:19Z</time>
      </trkpt>
      <trkpt lat="45.97993" lon="4.84742">
        <ele>275</ele>
        <time>2018-11-15T10:37:20Z</time>
      </trkpt>
      <trkpt lat="45.97992" lon="4.84734">
        <ele>275</ele>
        <time>2018-11-15T10:37:21Z</time>
      </trkpt>
      <trkpt lat="45.97992" lon="4.84726">
        <ele>275</ele>
        <time>2018-11-15T10:37:22Z</time>
      </trkpt>
      <trkpt lat="45.97992" lon="4.84717">
        <ele>275</ele>
        <time>2018-11-15T10:37:23Z</time>
      </trkpt>
      <trkpt lat="45.97993" lon="4.8471">
        <ele>275</ele>
        <time>2018-11-15T10:37:24Z</time>
      </trkpt>
      <trkpt lat="45.97991" lon="4.84703">
        <ele>275</ele>
        <time>2018-11-15T10:37:25Z</time>
      </trkpt>
      <trkpt lat="45.97992" lon="4.84695">
        <ele>275</ele>
        <time>2018-11-15T10:37:26Z</time>
      </trkpt>
      <trkpt lat="45.97988" lon="4.84688">
        <ele>275</ele>
        <time>2018-11-15T10:37:27Z</time>
      </trkpt>
      <trkpt lat="45.97987" lon="4.8468">
        <ele>275</ele>
        <time>2018-11-15T10:37:28Z</time>
      </trkpt>
      <trkpt lat="45.97986" lon="4.84672">
        <ele>275</ele>
        <time>2018-11-15T10:37:29Z</time>
      </trkpt>
      <trkpt lat="45.97986" lon="4.84665">
        <ele>274</ele>
        <time>2018-11-15T10:37:30Z</time>
      </trkpt>
      <trkpt lat="45.97985" lon="4.84659">
        <ele>274</ele>
        <time>2018-11-15T10:37:31Z</time>
      </trkpt>
      <trkpt lat="45.97985" lon="4.84652">
        <ele>274</ele>
        <time>2018-11-15T10:37:32Z</time>
      </trkpt>
      <trkpt lat="45.97984" lon="4.8464">
        <ele>275</ele>
        <time>2018-11-15T10:37:34Z</time>
      </trkpt>
      <trkpt lat="45.97982" lon="4.84632">
        <ele>275</ele>
        <time>2018-11-15T10:37:35Z</time>
      </trkpt>
      <trkpt lat="45.97981" lon="4.84625">
        <ele>275</ele>
        <time>2018-11-15T10:37:36Z</time>
      </trkpt>
      <trkpt lat="45.97981" lon="4.84618">
        <ele>275</ele>
        <time>2018-11-15T10:37:37Z</time>
      </trkpt>
      <trkpt lat="45.9798" lon="4.84611">
        <ele>275</ele>
        <time>2018-11-15T10:37:38Z</time>
      </trkpt>
      <trkpt lat="45.97978" lon="4.84604">
        <ele>275</ele>
        <time>2018-11-15T10:37:39Z</time>
      </trkpt>
      <trkpt lat="45.97977" lon="4.84595">
        <ele>274</ele>
        <time>2018-11-15T10:37:40Z</time>
      </trkpt>
      <trkpt lat="45.97975" lon="4.84588">
        <ele>274</ele>
        <time>2018-11-15T10:37:41Z</time>
      </trkpt>
      <trkpt lat="45.97974" lon="4.84581">
        <ele>275</ele>
        <time>2018-11-15T10:37:42Z</time>
      </trkpt>
      <trkpt lat="45.97974" lon="4.84573">
        <ele>275</ele>
        <time>2018-11-15T10:37:43Z</time>
      </trkpt>
      <trkpt lat="45.97972" lon="4.84567">
        <ele>275</ele>
        <time>2018-11-15T10:37:44Z</time>
      </trkpt>
      <trkpt lat="45.97971" lon="4.8456">
        <ele>275</ele>
        <time>2018-11-15T10:37:45Z</time>
      </trkpt>
      <trkpt lat="45.97971" lon="4.84553">
        <ele>275</ele>
        <time>2018-11-15T10:37:46Z</time>
      </trkpt>
      <trkpt lat="45.97967" lon="4.84546">
        <ele>275</ele>
        <time>2018-11-15T10:37:47Z</time>
      </trkpt>
      <trkpt lat="45.97965" lon="4.84538">
        <ele>275</ele>
        <time>2018-11-15T10:37:48Z</time>
      </trkpt>
      <trkpt lat="45.97963" lon="4.84532">
        <ele>275</ele>
        <time>2018-11-15T10:37:49Z</time>
      </trkpt>
      <trkpt lat="45.97962" lon="4.84525">
        <ele>275</ele>
        <time>2018-11-15T10:37:50Z</time>
      </trkpt>
      <trkpt lat="45.97961" lon="4.84518">
        <ele>275</ele>
        <time>2018-11-15T10:37:51Z</time>
      </trkpt>
      <trkpt lat="45.97961" lon="4.84511">
        <ele>275</ele>
        <time>2018-11-15T10:37:52Z</time>
      </trkpt>
      <trkpt lat="45.9796" lon="4.84504">
        <ele>275</ele>
        <time>2018-11-15T10:37:53Z</time>
      </trkpt>
      <trkpt lat="45.97958" lon="4.84496">
        <ele>275</ele>
        <time>2018-11-15T10:37:54Z</time>
      </trkpt>
      <trkpt lat="45.97956" lon="4.84489">
        <ele>275</ele>
        <time>2018-11-15T10:37:55Z</time>
      </trkpt>
      <trkpt lat="45.97955" lon="4.84482">
        <ele>275</ele>
        <time>2018-11-15T10:37:56Z</time>
      </trkpt>
      <trkpt lat="45.97954" lon="4.84473">
        <ele>275</ele>
        <time>2018-11-15T10:37:57Z</time>
      </trkpt>
      <trkpt lat="45.97952" lon="4.84466">
        <ele>275</ele>
        <time>2018-11-15T10:37:58Z</time>
      </trkpt>
      <trkpt lat="45.97951" lon="4.84459">
        <ele>275</ele>
        <time>2018-11-15T10:37:59Z</time>
      </trkpt>
      <trkpt lat="45.97949" lon="4.84452">
        <ele>275</ele>
        <time>2018-11-15T10:38:00Z</time>
      </trkpt>
      <trkpt lat="45.97948" lon="4.84445">
        <ele>275</ele>
        <time>2018-11-15T10:38:01Z</time>
      </trkpt>
      <trkpt lat="45.97948" lon="4.84437">
        <ele>275</ele>
        <time>2018-11-15T10:38:02Z</time>
      </trkpt>
      <trkpt lat="45.97946" lon="4.8443">
        <ele>275</ele>
        <time>2018-11-15T10:38:03Z</time>
      </trkpt>
      <trkpt lat="45.97944" lon="4.84423">
        <ele>275</ele>
        <time>2018-11-15T10:38:04Z</time>
      </trkpt>
      <trkpt lat="45.97943" lon="4.84415">
        <ele>275</ele>
        <time>2018-11-15T10:38:05Z</time>
      </trkpt>
      <trkpt lat="45.97941" lon="4.84407">
        <ele>275</ele>
        <time>2018-11-15T10:38:06Z</time>
      </trkpt>
      <trkpt lat="45.9794" lon="4.84399">
        <ele>275</ele>
        <time>2018-11-15T10:38:07Z</time>
      </trkpt>
      <trkpt lat="45.97939" lon="4.84391">
        <ele>275</ele>
        <time>2018-11-15T10:38:08Z</time>
      </trkpt>
      <trkpt lat="45.97937" lon="4.84383">
        <ele>275</ele>
        <time>2018-11-15T10:38:09Z</time>
      </trkpt>
      <trkpt lat="45.97936" lon="4.84375">
        <ele>275</ele>
        <time>2018-11-15T10:38:10Z</time>
      </trkpt>
      <trkpt lat="45.97934" lon="4.84368">
        <ele>275</ele>
        <time>2018-11-15T10:38:11Z</time>
      </trkpt>
      <trkpt lat="45.97932" lon="4.8436">
        <ele>275</ele>
        <time>2018-11-15T10:38:12Z</time>
      </trkpt>
      <trkpt lat="45.97932" lon="4.84352">
        <ele>275</ele>
        <time>2018-11-15T10:38:13Z</time>
      </trkpt>
      <trkpt lat="45.97931" lon="4.84345">
        <ele>275</ele>
        <time>2018-11-15T10:38:14Z</time>
      </trkpt>
      <trkpt lat="45.97929" lon="4.84337">
        <ele>275</ele>
        <time>2018-11-15T10:38:15Z</time>
      </trkpt>
      <trkpt lat="45.97928" lon="4.8433">
        <ele>275</ele>
        <time>2018-11-15T10:38:16Z</time>
      </trkpt>
      <trkpt lat="45.97927" lon="4.84323">
        <ele>275</ele>
        <time>2018-11-15T10:38:17Z</time>
      </trkpt>
      <trkpt lat="45.97926" lon="4.84316">
        <ele>275</ele>
        <time>2018-11-15T10:38:18Z</time>
      </trkpt>
      <trkpt lat="45.97925" lon="4.8431">
        <ele>275</ele>
        <time>2018-11-15T10:38:19Z</time>
      </trkpt>
      <trkpt lat="45.97922" lon="4.84298">
        <ele>275</ele>
        <time>2018-11-15T10:38:21Z</time>
      </trkpt>
      <trkpt lat="45.97921" lon="4.84292">
        <ele>275</ele>
        <time>2018-11-15T10:38:22Z</time>
      </trkpt>
      <trkpt lat="45.97922" lon="4.8428">
        <ele>275</ele>
        <time>2018-11-15T10:38:24Z</time>
      </trkpt>
      <trkpt lat="45.97924" lon="4.84274">
        <ele>275</ele>
        <time>2018-11-15T10:38:25Z</time>
      </trkpt>
      <trkpt lat="45.97927" lon="4.84264">
        <ele>275</ele>
        <time>2018-11-15T10:38:27Z</time>
      </trkpt>
      <trkpt lat="45.97931" lon="4.8426">
        <ele>275</ele>
        <time>2018-11-15T10:38:28Z</time>
      </trkpt>
      <trkpt lat="45.97935" lon="4.84256">
        <ele>275</ele>
        <time>2018-11-15T10:38:29Z</time>
      </trkpt>
      <trkpt lat="45.9794" lon="4.84252">
        <ele>275</ele>
        <time>2018-11-15T10:38:30Z</time>
      </trkpt>
      <trkpt lat="45.97944" lon="4.84247">
        <ele>275</ele>
        <time>2018-11-15T10:38:31Z</time>
      </trkpt>
      <trkpt lat="45.97949" lon="4.84243">
        <ele>275</ele>
        <time>2018-11-15T10:38:32Z</time>
      </trkpt>
      <trkpt lat="45.97954" lon="4.84239">
        <ele>275</ele>
        <time>2018-11-15T10:38:33Z</time>
      </trkpt>
      <trkpt lat="45.97959" lon="4.84235">
        <ele>274</ele>
        <time>2018-11-15T10:38:34Z</time>
      </trkpt>
      <trkpt lat="45.97964" lon="4.84231">
        <ele>274</ele>
        <time>2018-11-15T10:38:35Z</time>
      </trkpt>
      <trkpt lat="45.9797" lon="4.84227">
        <ele>274</ele>
        <time>2018-11-15T10:38:36Z</time>
      </trkpt>
      <trkpt lat="45.97975" lon="4.84222">
        <ele>274</ele>
        <time>2018-11-15T10:38:37Z</time>
      </trkpt>
      <trkpt lat="45.9798" lon="4.84217">
        <ele>274</ele>
        <time>2018-11-15T10:38:38Z</time>
      </trkpt>
      <trkpt lat="45.97985" lon="4.84212">
        <ele>274</ele>
        <time>2018-11-15T10:38:39Z</time>
      </trkpt>
      <trkpt lat="45.9799" lon="4.84207">
        <ele>274</ele>
        <time>2018-11-15T10:38:40Z</time>
      </trkpt>
      <trkpt lat="45.97996" lon="4.84201">
        <ele>274</ele>
        <time>2018-11-15T10:38:41Z</time>
      </trkpt>
      <trkpt lat="45.98001" lon="4.84197">
        <ele>274</ele>
        <time>2018-11-15T10:38:42Z</time>
      </trkpt>
      <trkpt lat="45.98006" lon="4.84193">
        <ele>274</ele>
        <time>2018-11-15T10:38:43Z</time>
      </trkpt>
      <trkpt lat="45.98011" lon="4.84187">
        <ele>274</ele>
        <time>2018-11-15T10:38:44Z</time>
      </trkpt>
      <trkpt lat="45.98016" lon="4.84183">
        <ele>274</ele>
        <time>2018-11-15T10:38:45Z</time>
      </trkpt>
      <trkpt lat="45.98021" lon="4.84179">
        <ele>274</ele>
        <time>2018-11-15T10:38:46Z</time>
      </trkpt>
      <trkpt lat="45.98026" lon="4.84174">
        <ele>274</ele>
        <time>2018-11-15T10:38:47Z</time>
      </trkpt>
      <trkpt lat="45.98031" lon="4.84169">
        <ele>273</ele>
        <time>2018-11-15T10:38:48Z</time>
      </trkpt>
      <trkpt lat="45.98036" lon="4.84165">
        <ele>273</ele>
        <time>2018-11-15T10:38:49Z</time>
      </trkpt>
      <trkpt lat="45.98042" lon="4.84161">
        <ele>273</ele>
        <time>2018-11-15T10:38:50Z</time>
      </trkpt>
      <trkpt lat="45.98046" lon="4.84157">
        <ele>273</ele>
        <time>2018-11-15T10:38:51Z</time>
      </trkpt>
      <trkpt lat="45.98051" lon="4.84152">
        <ele>273</ele>
        <time>2018-11-15T10:38:52Z</time>
      </trkpt>
      <trkpt lat="45.98057" lon="4.84147">
        <ele>273</ele>
        <time>2018-11-15T10:38:53Z</time>
      </trkpt>
      <trkpt lat="45.98062" lon="4.84142">
        <ele>273</ele>
        <time>2018-11-15T10:38:54Z</time>
      </trkpt>
      <trkpt lat="45.98067" lon="4.84137">
        <ele>273</ele>
        <time>2018-11-15T10:38:55Z</time>
      </trkpt>
      <trkpt lat="45.98072" lon="4.84131">
        <ele>273</ele>
        <time>2018-11-15T10:38:56Z</time>
      </trkpt>
      <trkpt lat="45.98077" lon="4.84126">
        <ele>273</ele>
        <time>2018-11-15T10:38:57Z</time>
      </trkpt>
      <trkpt lat="45.98082" lon="4.8412">
        <ele>273</ele>
        <time>2018-11-15T10:38:58Z</time>
      </trkpt>
      <trkpt lat="45.98087" lon="4.84116">
        <ele>273</ele>
        <time>2018-11-15T10:38:59Z</time>
      </trkpt>
      <trkpt lat="45.98092" lon="4.84111">
        <ele>273</ele>
        <time>2018-11-15T10:39:00Z</time>
      </trkpt>
      <trkpt lat="45.98097" lon="4.84107">
        <ele>273</ele>
        <time>2018-11-15T10:39:01Z</time>
      </trkpt>
      <trkpt lat="45.98102" lon="4.84102">
        <ele>273</ele>
        <time>2018-11-15T10:39:02Z</time>
      </trkpt>
      <trkpt lat="45.98107" lon="4.84098">
        <ele>273</ele>
        <time>2018-11-15T10:39:03Z</time>
      </trkpt>
      <trkpt lat="45.9811" lon="4.84091">
        <ele>273</ele>
        <time>2018-11-15T10:39:04Z</time>
      </trkpt>
      <trkpt lat="45.98115" lon="4.84086">
        <ele>273</ele>
        <time>2018-11-15T10:39:05Z</time>
      </trkpt>
      <trkpt lat="45.9812" lon="4.84081">
        <ele>273</ele>
        <time>2018-11-15T10:39:06Z</time>
      </trkpt>
      <trkpt lat="45.98125" lon="4.84077">
        <ele>273</ele>
        <time>2018-11-15T10:39:07Z</time>
      </trkpt>
      <trkpt lat="45.9813" lon="4.84071">
        <ele>273</ele>
        <time>2018-11-15T10:39:08Z</time>
      </trkpt>
      <trkpt lat="45.98134" lon="4.84065">
        <ele>273</ele>
        <time>2018-11-15T10:39:09Z</time>
      </trkpt>
      <trkpt lat="45.98139" lon="4.84058">
        <ele>273</ele>
        <time>2018-11-15T10:39:10Z</time>
      </trkpt>
      <trkpt lat="45.98144" lon="4.84053">
        <ele>273</ele>
        <time>2018-11-15T10:39:11Z</time>
      </trkpt>
      <trkpt lat="45.98149" lon="4.84046">
        <ele>273</ele>
        <time>2018-11-15T10:39:12Z</time>
      </trkpt>
      <trkpt lat="45.98154" lon="4.8404">
        <ele>273</ele>
        <time>2018-11-15T10:39:13Z</time>
      </trkpt>
      <trkpt lat="45.98159" lon="4.84032">
        <ele>273</ele>
        <time>2018-11-15T10:39:14Z</time>
      </trkpt>
      <trkpt lat="45.98163" lon="4.84024">
        <ele>273</ele>
        <time>2018-11-15T10:39:15Z</time>
      </trkpt>
      <trkpt lat="45.98166" lon="4.84017">
        <ele>273</ele>
        <time>2018-11-15T10:39:16Z</time>
      </trkpt>
      <trkpt lat="45.9817" lon="4.84009">
        <ele>273</ele>
        <time>2018-11-15T10:39:17Z</time>
      </trkpt>
      <trkpt lat="45.98174" lon="4.84001">
        <ele>273</ele>
        <time>2018-11-15T10:39:18Z</time>
      </trkpt>
      <trkpt lat="45.98177" lon="4.83993">
        <ele>273</ele>
        <time>2018-11-15T10:39:19Z</time>
      </trkpt>
      <trkpt lat="45.98181" lon="4.83985">
        <ele>273</ele>
        <time>2018-11-15T10:39:20Z</time>
      </trkpt>
      <trkpt lat="45.98183" lon="4.83977">
        <ele>273</ele>
        <time>2018-11-15T10:39:21Z</time>
      </trkpt>
      <trkpt lat="45.98187" lon="4.83967">
        <ele>273</ele>
        <time>2018-11-15T10:39:22Z</time>
      </trkpt>
      <trkpt lat="45.98191" lon="4.8396">
        <ele>273</ele>
        <time>2018-11-15T10:39:23Z</time>
      </trkpt>
      <trkpt lat="45.98193" lon="4.83952">
        <ele>273</ele>
        <time>2018-11-15T10:39:24Z</time>
      </trkpt>
      <trkpt lat="45.98196" lon="4.83944">
        <ele>273</ele>
        <time>2018-11-15T10:39:25Z</time>
      </trkpt>
      <trkpt lat="45.98199" lon="4.83938">
        <ele>273</ele>
        <time>2018-11-15T10:39:26Z</time>
      </trkpt>
      <trkpt lat="45.98202" lon="4.83929">
        <ele>273</ele>
        <time>2018-11-15T10:39:27Z</time>
      </trkpt>
      <trkpt lat="45.98205" lon="4.83922">
        <ele>273</ele>
        <time>2018-11-15T10:39:28Z</time>
      </trkpt>
      <trkpt lat="45.98206" lon="4.83913">
        <ele>273</ele>
        <time>2018-11-15T10:39:29Z</time>
      </trkpt>
      <trkpt lat="45.9821" lon="4.83904">
        <ele>273</ele>
        <time>2018-11-15T10:39:30Z</time>
      </trkpt>
      <trkpt lat="45.98212" lon="4.83897">
        <ele>273</ele>
        <time>2018-11-15T10:39:31Z</time>
      </trkpt>
      <trkpt lat="45.98216" lon="4.83887">
        <ele>273</ele>
        <time>2018-11-15T10:39:32Z</time>
      </trkpt>
      <trkpt lat="45.98218" lon="4.83879">
        <ele>272</ele>
        <time>2018-11-15T10:39:33Z</time>
      </trkpt>
      <trkpt lat="45.9822" lon="4.8387">
        <ele>272</ele>
        <time>2018-11-15T10:39:34Z</time>
      </trkpt>
      <trkpt lat="45.98222" lon="4.83862">
        <ele>272</ele>
        <time>2018-11-15T10:39:35Z</time>
      </trkpt>
      <trkpt lat="45.98225" lon="4.83854">
        <ele>272</ele>
        <time>2018-11-15T10:39:36Z</time>
      </trkpt>
      <trkpt lat="45.98228" lon="4.83846">
        <ele>272</ele>
        <time>2018-11-15T10:39:37Z</time>
      </trkpt>
      <trkpt lat="45.9823" lon="4.83838">
        <ele>272</ele>
        <time>2018-11-15T10:39:38Z</time>
      </trkpt>
      <trkpt lat="45.98233" lon="4.8383">
        <ele>272</ele>
        <time>2018-11-15T10:39:39Z</time>
      </trkpt>
      <trkpt lat="45.98235" lon="4.83821">
        <ele>272</ele>
        <time>2018-11-15T10:39:40Z</time>
      </trkpt>
      <trkpt lat="45.98238" lon="4.83814">
        <ele>272</ele>
        <time>2018-11-15T10:39:41Z</time>
      </trkpt>
      <trkpt lat="45.98241" lon="4.83805">
        <ele>272</ele>
        <time>2018-11-15T10:39:42Z</time>
      </trkpt>
      <trkpt lat="45.98244" lon="4.83798">
        <ele>272</ele>
        <time>2018-11-15T10:39:43Z</time>
      </trkpt>
      <trkpt lat="45.98247" lon="4.8379">
        <ele>272</ele>
        <time>2018-11-15T10:39:44Z</time>
      </trkpt>
      <trkpt lat="45.98247" lon="4.83781">
        <ele>272</ele>
        <time>2018-11-15T10:39:45Z</time>
      </trkpt>
      <trkpt lat="45.98248" lon="4.83773">
        <ele>272</ele>
        <time>2018-11-15T10:39:46Z</time>
      </trkpt>
      <trkpt lat="45.98251" lon="4.83766">
        <ele>272</ele>
        <time>2018-11-15T10:39:47Z</time>
      </trkpt>
      <trkpt lat="45.98254" lon="4.83759">
        <ele>272</ele>
        <time>2018-11-15T10:39:48Z</time>
      </trkpt>
      <trkpt lat="45.98257" lon="4.83751">
        <ele>272</ele>
        <time>2018-11-15T10:39:49Z</time>
      </trkpt>
      <trkpt lat="45.9826" lon="4.83743">
        <ele>272</ele>
        <time>2018-11-15T10:39:50Z</time>
      </trkpt>
      <trkpt lat="45.98263" lon="4.83736">
        <ele>272</ele>
        <time>2018-11-15T10:39:51Z</time>
      </trkpt>
      <trkpt lat="45.98267" lon="4.83726">
        <ele>272</ele>
        <time>2018-11-15T10:39:52Z</time>
      </trkpt>
      <trkpt lat="45.98271" lon="4.83718">
        <ele>272</ele>
        <time>2018-11-15T10:39:53Z</time>
      </trkpt>
      <trkpt lat="45.98272" lon="4.83708">
        <ele>272</ele>
        <time>2018-11-15T10:39:54Z</time>
      </trkpt>
      <trkpt lat="45.98274" lon="4.83698">
        <ele>272</ele>
        <time>2018-11-15T10:39:55Z</time>
      </trkpt>
      <trkpt lat="45.98278" lon="4.83689">
        <ele>272</ele>
        <time>2018-11-15T10:39:56Z</time>
      </trkpt>
      <trkpt lat="45.98282" lon="4.83681">
        <ele>272</ele>
        <time>2018-11-15T10:39:57Z</time>
      </trkpt>
      <trkpt lat="45.98286" lon="4.83671">
        <ele>272</ele>
        <time>2018-11-15T10:39:58Z</time>
      </trkpt>
      <trkpt lat="45.98289" lon="4.83663">
        <ele>272</ele>
        <time>2018-11-15T10:39:59Z</time>
      </trkpt>
      <trkpt lat="45.98293" lon="4.83654">
        <ele>271</ele>
        <time>2018-11-15T10:40:00Z</time>
      </trkpt>
      <trkpt lat="45.98296" lon="4.83646">
        <ele>271</ele>
        <time>2018-11-15T10:40:01Z</time>
      </trkpt>
      <trkpt lat="45.983" lon="4.83638">
        <ele>271</ele>
        <time>2018-11-15T10:40:02Z</time>
      </trkpt>
      <trkpt lat="45.98304" lon="4.8363">
        <ele>271</ele>
        <time>2018-11-15T10:40:03Z</time>
      </trkpt>
      <trkpt lat="45.98309" lon="4.83623">
        <ele>271</ele>
        <time>2018-11-15T10:40:04Z</time>
      </trkpt>
      <trkpt lat="45.98313" lon="4.83616">
        <ele>271</ele>
        <time>2018-11-15T10:40:05Z</time>
      </trkpt>
      <trkpt lat="45.98317" lon="4.83609">
        <ele>271</ele>
        <time>2018-11-15T10:40:06Z</time>
      </trkpt>
      <trkpt lat="45.98322" lon="4.83601">
        <ele>271</ele>
        <time>2018-11-15T10:40:07Z</time>
      </trkpt>
      <trkpt lat="45.98328" lon="4.83595">
        <ele>270</ele>
        <time>2018-11-15T10:40:08Z</time>
      </trkpt>
      <trkpt lat="45.98333" lon="4.83588">
        <ele>270</ele>
        <time>2018-11-15T10:40:09Z</time>
      </trkpt>
      <trkpt lat="45.98337" lon="4.83582">
        <ele>270</ele>
        <time>2018-11-15T10:40:10Z</time>
      </trkpt>
      <trkpt lat="45.98341" lon="4.83575">
        <ele>270</ele>
        <time>2018-11-15T10:40:11Z</time>
      </trkpt>
      <trkpt lat="45.98346" lon="4.83569">
        <ele>269</ele>
        <time>2018-11-15T10:40:12Z</time>
      </trkpt>
      <trkpt lat="45.98351" lon="4.83563">
        <ele>269</ele>
        <time>2018-11-15T10:40:13Z</time>
      </trkpt>
      <trkpt lat="45.98356" lon="4.83556">
        <ele>269</ele>
        <time>2018-11-15T10:40:14Z</time>
      </trkpt>
      <trkpt lat="45.98361" lon="4.8355">
        <ele>269</ele>
        <time>2018-11-15T10:40:15Z</time>
      </trkpt>
      <trkpt lat="45.98367" lon="4.83541">
        <ele>269</ele>
        <time>2018-11-15T10:40:16Z</time>
      </trkpt>
      <trkpt lat="45.98372" lon="4.83534">
        <ele>269</ele>
        <time>2018-11-15T10:40:17Z</time>
      </trkpt>
      <trkpt lat="45.98377" lon="4.83527">
        <ele>269</ele>
        <time>2018-11-15T10:40:18Z</time>
      </trkpt>
      <trkpt lat="45.98382" lon="4.8352">
        <ele>269</ele>
        <time>2018-11-15T10:40:19Z</time>
      </trkpt>
      <trkpt lat="45.98387" lon="4.83514">
        <ele>269</ele>
        <time>2018-11-15T10:40:20Z</time>
      </trkpt>
      <trkpt lat="45.98393" lon="4.83507">
        <ele>269</ele>
        <time>2018-11-15T10:40:21Z</time>
      </trkpt>
      <trkpt lat="45.98398" lon="4.83499">
        <ele>269</ele>
        <time>2018-11-15T10:40:22Z</time>
      </trkpt>
      <trkpt lat="45.98404" lon="4.83492">
        <ele>269</ele>
        <time>2018-11-15T10:40:23Z</time>
      </trkpt>
      <trkpt lat="45.98409" lon="4.83483">
        <ele>269</ele>
        <time>2018-11-15T10:40:24Z</time>
      </trkpt>
      <trkpt lat="45.98414" lon="4.83476">
        <ele>269</ele>
        <time>2018-11-15T10:40:25Z</time>
      </trkpt>
      <trkpt lat="45.9842" lon="4.83468">
        <ele>268</ele>
        <time>2018-11-15T10:40:26Z</time>
      </trkpt>
      <trkpt lat="45.98425" lon="4.83462">
        <ele>268</ele>
        <time>2018-11-15T10:40:27Z</time>
      </trkpt>
      <trkpt lat="45.9843" lon="4.83456">
        <ele>268</ele>
        <time>2018-11-15T10:40:28Z</time>
      </trkpt>
      <trkpt lat="45.98435" lon="4.83449">
        <ele>268</ele>
        <time>2018-11-15T10:40:29Z</time>
      </trkpt>
      <trkpt lat="45.9844" lon="4.83443">
        <ele>268</ele>
        <time>2018-11-15T10:40:30Z</time>
      </trkpt>
      <trkpt lat="45.98446" lon="4.83436">
        <ele>268</ele>
        <time>2018-11-15T10:40:31Z</time>
      </trkpt>
      <trkpt lat="45.98452" lon="4.83429">
        <ele>268</ele>
        <time>2018-11-15T10:40:32Z</time>
      </trkpt>
      <trkpt lat="45.98457" lon="4.83424">
        <ele>269</ele>
        <time>2018-11-15T10:40:33Z</time>
      </trkpt>
      <trkpt lat="45.98461" lon="4.83419">
        <ele>269</ele>
        <time>2018-11-15T10:40:34Z</time>
      </trkpt>
      <trkpt lat="45.98465" lon="4.83412">
        <ele>269</ele>
        <time>2018-11-15T10:40:35Z</time>
      </trkpt>
      <trkpt lat="45.98469" lon="4.83406">
        <ele>269</ele>
        <time>2018-11-15T10:40:36Z</time>
      </trkpt>
      <trkpt lat="45.98473" lon="4.834">
        <ele>269</ele>
        <time>2018-11-15T10:40:37Z</time>
      </trkpt>
      <trkpt lat="45.98478" lon="4.83395">
        <ele>269</ele>
        <time>2018-11-15T10:40:38Z</time>
      </trkpt>
      <trkpt lat="45.98483" lon="4.83389">
        <ele>269</ele>
        <time>2018-11-15T10:40:39Z</time>
      </trkpt>
      <trkpt lat="45.98487" lon="4.83382">
        <ele>269</ele>
        <time>2018-11-15T10:40:40Z</time>
      </trkpt>
      <trkpt lat="45.98491" lon="4.83375">
        <ele>270</ele>
        <time>2018-11-15T10:40:41Z</time>
      </trkpt>
      <trkpt lat="45.98496" lon="4.83368">
        <ele>270</ele>
        <time>2018-11-15T10:40:42Z</time>
      </trkpt>
      <trkpt lat="45.98501" lon="4.83362">
        <ele>269</ele>
        <time>2018-11-15T10:40:43Z</time>
      </trkpt>
      <trkpt lat="45.98505" lon="4.83357">
        <ele>270</ele>
        <time>2018-11-15T10:40:44Z</time>
      </trkpt>
      <trkpt lat="45.9851" lon="4.8335">
        <ele>270</ele>
        <time>2018-11-15T10:40:45Z</time>
      </trkpt>
      <trkpt lat="45.98515" lon="4.83343">
        <ele>270</ele>
        <time>2018-11-15T10:40:46Z</time>
      </trkpt>
      <trkpt lat="45.98519" lon="4.83337">
        <ele>270</ele>
        <time>2018-11-15T10:40:47Z</time>
      </trkpt>
      <trkpt lat="45.98524" lon="4.83331">
        <ele>270</ele>
        <time>2018-11-15T10:40:48Z</time>
      </trkpt>
      <trkpt lat="45.98528" lon="4.83325">
        <ele>269</ele>
        <time>2018-11-15T10:40:49Z</time>
      </trkpt>
      <trkpt lat="45.98533" lon="4.83319">
        <ele>269</ele>
        <time>2018-11-15T10:40:50Z</time>
      </trkpt>
      <trkpt lat="45.98538" lon="4.83313">
        <ele>269</ele>
        <time>2018-11-15T10:40:51Z</time>
      </trkpt>
      <trkpt lat="45.98542" lon="4.83307">
        <ele>269</ele>
        <time>2018-11-15T10:40:52Z</time>
      </trkpt>
      <trkpt lat="45.98547" lon="4.83301">
        <ele>269</ele>
        <time>2018-11-15T10:40:53Z</time>
      </trkpt>
      <trkpt lat="45.98551" lon="4.83296">
        <ele>269</ele>
        <time>2018-11-15T10:40:54Z</time>
      </trkpt>
      <trkpt lat="45.98555" lon="4.8329">
        <ele>269</ele>
        <time>2018-11-15T10:40:55Z</time>
      </trkpt>
      <trkpt lat="45.9856" lon="4.83284">
        <ele>269</ele>
        <time>2018-11-15T10:40:56Z</time>
      </trkpt>
      <trkpt lat="45.98564" lon="4.83279">
        <ele>269</ele>
        <time>2018-11-15T10:40:57Z</time>
      </trkpt>
      <trkpt lat="45.98568" lon="4.83274">
        <ele>269</ele>
        <time>2018-11-15T10:40:58Z</time>
      </trkpt>
      <trkpt lat="45.98572" lon="4.8327">
        <ele>269</ele>
        <time>2018-11-15T10:40:59Z</time>
      </trkpt>
      <trkpt lat="45.98576" lon="4.83264">
        <ele>269</ele>
        <time>2018-11-15T10:41:00Z</time>
      </trkpt>
      <trkpt lat="45.9858" lon="4.83259">
        <ele>268</ele>
        <time>2018-11-15T10:41:01Z</time>
      </trkpt>
      <trkpt lat="45.98584" lon="4.83254">
        <ele>268</ele>
        <time>2018-11-15T10:41:02Z</time>
      </trkpt>
      <trkpt lat="45.98588" lon="4.83249">
        <ele>268</ele>
        <time>2018-11-15T10:41:03Z</time>
      </trkpt>
      <trkpt lat="45.98593" lon="4.83243">
        <ele>268</ele>
        <time>2018-11-15T10:41:04Z</time>
      </trkpt>
      <trkpt lat="45.98597" lon="4.83237">
        <ele>268</ele>
        <time>2018-11-15T10:41:05Z</time>
      </trkpt>
      <trkpt lat="45.98602" lon="4.8323">
        <ele>268</ele>
        <time>2018-11-15T10:41:06Z</time>
      </trkpt>
      <trkpt lat="45.98606" lon="4.83224">
        <ele>267</ele>
        <time>2018-11-15T10:41:07Z</time>
      </trkpt>
      <trkpt lat="45.9861" lon="4.83218">
        <ele>267</ele>
        <time>2018-11-15T10:41:08Z</time>
      </trkpt>
      <trkpt lat="45.98615" lon="4.83212">
        <ele>267</ele>
        <time>2018-11-15T10:41:09Z</time>
      </trkpt>
      <trkpt lat="45.9862" lon="4.83207">
        <ele>267</ele>
        <time>2018-11-15T10:41:10Z</time>
      </trkpt>
      <trkpt lat="45.98625" lon="4.83202">
        <ele>267</ele>
        <time>2018-11-15T10:41:11Z</time>
      </trkpt>
      <trkpt lat="45.9863" lon="4.83195">
        <ele>267</ele>
        <time>2018-11-15T10:41:12Z</time>
      </trkpt>
      <trkpt lat="45.98635" lon="4.8319">
        <ele>267</ele>
        <time>2018-11-15T10:41:13Z</time>
      </trkpt>
      <trkpt lat="45.98641" lon="4.83184">
        <ele>267</ele>
        <time>2018-11-15T10:41:14Z</time>
      </trkpt>
      <trkpt lat="45.98647" lon="4.83179">
        <ele>267</ele>
        <time>2018-11-15T10:41:15Z</time>
      </trkpt>
      <trkpt lat="45.98654" lon="4.83174">
        <ele>267</ele>
        <time>2018-11-15T10:41:16Z</time>
      </trkpt>
      <trkpt lat="45.9866" lon="4.8317">
        <ele>266</ele>
        <time>2018-11-15T10:41:17Z</time>
      </trkpt>
      <trkpt lat="45.98665" lon="4.83164">
        <ele>266</ele>
        <time>2018-11-15T10:41:18Z</time>
      </trkpt>
      <trkpt lat="45.98672" lon="4.8316">
        <ele>266</ele>
        <time>2018-11-15T10:41:19Z</time>
      </trkpt>
      <trkpt lat="45.98679" lon="4.83153">
        <ele>266</ele>
        <time>2018-11-15T10:41:20Z</time>
      </trkpt>
      <trkpt lat="45.98685" lon="4.83148">
        <ele>266</ele>
        <time>2018-11-15T10:41:21Z</time>
      </trkpt>
      <trkpt lat="45.98691" lon="4.83143">
        <ele>266</ele>
        <time>2018-11-15T10:41:22Z</time>
      </trkpt>
      <trkpt lat="45.98698" lon="4.83138">
        <ele>266</ele>
        <time>2018-11-15T10:41:23Z</time>
      </trkpt>
      <trkpt lat="45.98704" lon="4.83133">
        <ele>266</ele>
        <time>2018-11-15T10:41:24Z</time>
      </trkpt>
      <trkpt lat="45.9871" lon="4.83128">
        <ele>266</ele>
        <time>2018-11-15T10:41:25Z</time>
      </trkpt>
      <trkpt lat="45.98716" lon="4.83123">
        <ele>266</ele>
        <time>2018-11-15T10:41:26Z</time>
      </trkpt>
      <trkpt lat="45.98723" lon="4.83118">
        <ele>267</ele>
        <time>2018-11-15T10:41:27Z</time>
      </trkpt>
      <trkpt lat="45.98729" lon="4.83113">
        <ele>267</ele>
        <time>2018-11-15T10:41:28Z</time>
      </trkpt>
      <trkpt lat="45.98736" lon="4.83108">
        <ele>267</ele>
        <time>2018-11-15T10:41:29Z</time>
      </trkpt>
      <trkpt lat="45.98742" lon="4.83103">
        <ele>267</ele>
        <time>2018-11-15T10:41:30Z</time>
      </trkpt>
      <trkpt lat="45.98749" lon="4.83097">
        <ele>267</ele>
        <time>2018-11-15T10:41:31Z</time>
      </trkpt>
      <trkpt lat="45.98755" lon="4.83092">
        <ele>266</ele>
        <time>2018-11-15T10:41:32Z</time>
      </trkpt>
      <trkpt lat="45.98761" lon="4.83087">
        <ele>266</ele>
        <time>2018-11-15T10:41:33Z</time>
      </trkpt>
      <trkpt lat="45.98768" lon="4.83081">
        <ele>266</ele>
        <time>2018-11-15T10:41:34Z</time>
      </trkpt>
      <trkpt lat="45.98774" lon="4.83074">
        <ele>265</ele>
        <time>2018-11-15T10:41:35Z</time>
      </trkpt>
      <trkpt lat="45.98781" lon="4.83068">
        <ele>265</ele>
        <time>2018-11-15T10:41:36Z</time>
      </trkpt>
      <trkpt lat="45.98788" lon="4.83063">
        <ele>265</ele>
        <time>2018-11-15T10:41:37Z</time>
      </trkpt>
      <trkpt lat="45.98796" lon="4.83057">
        <ele>264</ele>
        <time>2018-11-15T10:41:38Z</time>
      </trkpt>
      <trkpt lat="45.98803" lon="4.83049">
        <ele>264</ele>
        <time>2018-11-15T10:41:39Z</time>
      </trkpt>
      <trkpt lat="45.9881" lon="4.83043">
        <ele>264</ele>
        <time>2018-11-15T10:41:40Z</time>
      </trkpt>
      <trkpt lat="45.98817" lon="4.83037">
        <ele>264</ele>
        <time>2018-11-15T10:41:41Z</time>
      </trkpt>
      <trkpt lat="45.98825" lon="4.83031">
        <ele>264</ele>
        <time>2018-11-15T10:41:42Z</time>
      </trkpt>
      <trkpt lat="45.98833" lon="4.83025">
        <ele>264</ele>
        <time>2018-11-15T10:41:43Z</time>
      </trkpt>
      <trkpt lat="45.9884" lon="4.83019">
        <ele>261</ele>
        <time>2018-11-15T10:41:44Z</time>
      </trkpt>
      <trkpt lat="45.98849" lon="4.83013">
        <ele>261</ele>
        <time>2018-11-15T10:41:45Z</time>
      </trkpt>
      <trkpt lat="45.98858" lon="4.83007">
        <ele>261</ele>
        <time>2018-11-15T10:41:46Z</time>
      </trkpt>
      <trkpt lat="45.98866" lon="4.83">
        <ele>261</ele>
        <time>2018-11-15T10:41:47Z</time>
      </trkpt>
      <trkpt lat="45.98875" lon="4.82993">
        <ele>260</ele>
        <time>2018-11-15T10:41:48Z</time>
      </trkpt>
      <trkpt lat="45.98884" lon="4.82987">
        <ele>259</ele>
        <time>2018-11-15T10:41:49Z</time>
      </trkpt>
      <trkpt lat="45.98893" lon="4.82981">
        <ele>259</ele>
        <time>2018-11-15T10:41:50Z</time>
      </trkpt>
      <trkpt lat="45.98902" lon="4.82974">
        <ele>259</ele>
        <time>2018-11-15T10:41:51Z</time>
      </trkpt>
      <trkpt lat="45.9891" lon="4.82964">
        <ele>259</ele>
        <time>2018-11-15T10:41:52Z</time>
      </trkpt>
      <trkpt lat="45.98917" lon="4.82949">
        <ele>255</ele>
        <time>2018-11-15T10:41:53Z</time>
      </trkpt>
      <trkpt lat="45.98923" lon="4.82935">
        <ele>255</ele>
        <time>2018-11-15T10:41:54Z</time>
      </trkpt>
      <trkpt lat="45.9893" lon="4.8292">
        <ele>255</ele>
        <time>2018-11-15T10:41:55Z</time>
      </trkpt>
      <trkpt lat="45.98937" lon="4.82905">
        <ele>254</ele>
        <time>2018-11-15T10:41:56Z</time>
      </trkpt>
      <trkpt lat="45.98944" lon="4.82889">
        <ele>253</ele>
        <time>2018-11-15T10:41:57Z</time>
      </trkpt>
      <trkpt lat="45.98951" lon="4.82875">
        <ele>253</ele>
        <time>2018-11-15T10:41:58Z</time>
      </trkpt>
      <trkpt lat="45.98958" lon="4.82859">
        <ele>252</ele>
        <time>2018-11-15T10:41:59Z</time>
      </trkpt>
      <trkpt lat="45.98966" lon="4.82843">
        <ele>252</ele>
        <time>2018-11-15T10:42:00Z</time>
      </trkpt>
      <trkpt lat="45.98973" lon="4.82828">
        <ele>249</ele>
        <time>2018-11-15T10:42:01Z</time>
      </trkpt>
      <trkpt lat="45.98981" lon="4.82811">
        <ele>248</ele>
        <time>2018-11-15T10:42:02Z</time>
      </trkpt>
      <trkpt lat="45.98988" lon="4.82796">
        <ele>247</ele>
        <time>2018-11-15T10:42:03Z</time>
      </trkpt>
      <trkpt lat="45.98995" lon="4.82779">
        <ele>246</ele>
        <time>2018-11-15T10:42:04Z</time>
      </trkpt>
      <trkpt lat="45.99002" lon="4.82764">
        <ele>241</ele>
        <time>2018-11-15T10:42:05Z</time>
      </trkpt>
      <trkpt lat="45.99008" lon="4.8275">
        <ele>240</ele>
        <time>2018-11-15T10:42:06Z</time>
      </trkpt>
      <trkpt lat="45.99015" lon="4.82735">
        <ele>239</ele>
        <time>2018-11-15T10:42:07Z</time>
      </trkpt>
      <trkpt lat="45.99022" lon="4.82717">
        <ele>239</ele>
        <time>2018-11-15T10:42:08Z</time>
      </trkpt>
      <trkpt lat="45.99029" lon="4.82702">
        <ele>238</ele>
        <time>2018-11-15T10:42:09Z</time>
      </trkpt>
      <trkpt lat="45.99035" lon="4.82687">
        <ele>238</ele>
        <time>2018-11-15T10:42:10Z</time>
      </trkpt>
      <trkpt lat="45.99041" lon="4.82674">
        <ele>238</ele>
        <time>2018-11-15T10:42:11Z</time>
      </trkpt>
      <trkpt lat="45.99047" lon="4.8266">
        <ele>236</ele>
        <time>2018-11-15T10:42:12Z</time>
      </trkpt>
      <trkpt lat="45.99054" lon="4.82648">
        <ele>236</ele>
        <time>2018-11-15T10:42:13Z</time>
      </trkpt>
      <trkpt lat="45.99059" lon="4.82637">
        <ele>236</ele>
        <time>2018-11-15T10:42:14Z</time>
      </trkpt>
      <trkpt lat="45.99063" lon="4.82627">
        <ele>236</ele>
        <time>2018-11-15T10:42:15Z</time>
      </trkpt>
      <trkpt lat="45.99067" lon="4.82617">
        <ele>236</ele>
        <time>2018-11-15T10:42:16Z</time>
      </trkpt>
      <trkpt lat="45.9907" lon="4.82607">
        <ele>236</ele>
        <time>2018-11-15T10:42:17Z</time>
      </trkpt>
      <trkpt lat="45.99073" lon="4.82599">
        <ele>235</ele>
        <time>2018-11-15T10:42:18Z</time>
      </trkpt>
      <trkpt lat="45.99076" lon="4.82594">
        <ele>235</ele>
        <time>2018-11-15T10:42:19Z</time>
      </trkpt>
      <trkpt lat="45.99076" lon="4.82584">
        <ele>235</ele>
        <time>2018-11-15T10:42:23Z</time>
      </trkpt>
      <trkpt lat="45.99074" lon="4.82581">
        <ele>235</ele>
        <time>2018-11-15T10:42:24Z</time>
      </trkpt>
      <trkpt lat="45.99066" lon="4.82575">
        <ele>235</ele>
        <time>2018-11-15T10:43:20Z</time>
      </trkpt>
      <trkpt lat="45.99066" lon="4.82575">
        <ele>235</ele>
        <time>2018-11-15T10:43:21Z</time>
      </trkpt>
      <trkpt lat="45.99073" lon="4.8258">
        <ele>235</ele>
        <time>2018-11-15T10:44:16Z</time>
      </trkpt>
      <trkpt lat="45.99074" lon="4.8258">
        <ele>235</ele>
        <time>2018-11-15T10:44:17Z</time>
      </trkpt>
      <trkpt lat="45.99066" lon="4.82577">
        <ele>235</ele>
        <time>2018-11-15T10:45:25Z</time>
      </trkpt>
      <trkpt lat="45.99065" lon="4.82577">
        <ele>235</ele>
        <time>2018-11-15T10:45:26Z</time>
      </trkpt>
      <trkpt lat="45.99067" lon="4.82573">
        <ele>235</ele>
        <time>2018-11-15T10:45:58Z</time>
      </trkpt>
      <trkpt lat="45.99067" lon="4.82573">
        <ele>235</ele>
        <time>2018-11-15T10:45:59Z</time>
      </trkpt>
      <trkpt lat="45.99067" lon="4.82573">
        <ele>235</ele>
        <time>2018-11-15T10:48:25Z</time>
      </trkpt>
      <trkpt lat="45.99066" lon="4.82573">
        <ele>235</ele>
        <time>2018-11-15T10:48:26Z</time>
      </trkpt>
      <trkpt lat="45.99062" lon="4.82564">
        <ele>235</ele>
        <time>2018-11-15T10:48:31Z</time>
      </trkpt>
      <trkpt lat="45.9906" lon="4.82562">
        <ele>235</ele>
        <time>2018-11-15T10:48:32Z</time>
      </trkpt>
      <trkpt lat="45.99051" lon="4.82561">
        <ele>235</ele>
        <time>2018-11-15T10:48:36Z</time>
      </trkpt>
      <trkpt lat="45.99049" lon="4.8256">
        <ele>235</ele>
        <time>2018-11-15T10:48:37Z</time>
      </trkpt>
      <trkpt lat="45.99041" lon="4.82557">
        <ele>235</ele>
        <time>2018-11-15T10:48:40Z</time>
      </trkpt>
      <trkpt lat="45.99039" lon="4.82555">
        <ele>235</ele>
        <time>2018-11-15T10:48:41Z</time>
      </trkpt>
      <trkpt lat="45.99033" lon="4.82552">
        <ele>235</ele>
        <time>2018-11-15T10:48:43Z</time>
      </trkpt>
      <trkpt lat="45.99029" lon="4.82549">
        <ele>235</ele>
        <time>2018-11-15T10:48:44Z</time>
      </trkpt>
      <trkpt lat="45.99022" lon="4.82543">
        <ele>235</ele>
        <time>2018-11-15T10:48:46Z</time>
      </trkpt>
      <trkpt lat="45.9902" lon="4.82541">
        <ele>235</ele>
        <time>2018-11-15T10:48:47Z</time>
      </trkpt>
      <trkpt lat="45.99017" lon="4.82537">
        <ele>235</ele>
        <time>2018-11-15T10:48:48Z</time>
      </trkpt>
      <trkpt lat="45.99013" lon="4.82531">
        <ele>235</ele>
        <time>2018-11-15T10:48:49Z</time>
      </trkpt>
      <trkpt lat="45.99009" lon="4.82522">
        <ele>235</ele>
        <time>2018-11-15T10:48:51Z</time>
      </trkpt>
      <trkpt lat="45.99007" lon="4.82517">
        <ele>235</ele>
        <time>2018-11-15T10:48:52Z</time>
      </trkpt>
      <trkpt lat="45.99002" lon="4.82507">
        <ele>235</ele>
        <time>2018-11-15T10:48:54Z</time>
      </trkpt>
      <trkpt lat="45.99" lon="4.82502">
        <ele>235</ele>
        <time>2018-11-15T10:48:55Z</time>
      </trkpt>
      <trkpt lat="45.98995" lon="4.82491">
        <ele>236</ele>
        <time>2018-11-15T10:48:57Z</time>
      </trkpt>
      <trkpt lat="45.98993" lon="4.82486">
        <ele>236</ele>
        <time>2018-11-15T10:48:58Z</time>
      </trkpt>
      <trkpt lat="45.98989" lon="4.82475">
        <ele>236</ele>
        <time>2018-11-15T10:49:00Z</time>
      </trkpt>
      <trkpt lat="45.98987" lon="4.82468">
        <ele>236</ele>
        <time>2018-11-15T10:49:01Z</time>
      </trkpt>
      <trkpt lat="45.98984" lon="4.82462">
        <ele>236</ele>
        <time>2018-11-15T10:49:02Z</time>
      </trkpt>
      <trkpt lat="45.98983" lon="4.82456">
        <ele>236</ele>
        <time>2018-11-15T10:49:03Z</time>
      </trkpt>
      <trkpt lat="45.98982" lon="4.82449">
        <ele>236</ele>
        <time>2018-11-15T10:49:04Z</time>
      </trkpt>
      <trkpt lat="45.98981" lon="4.8244">
        <ele>236</ele>
        <time>2018-11-15T10:49:05Z</time>
      </trkpt>
      <trkpt lat="45.9898" lon="4.82429">
        <ele>236</ele>
        <time>2018-11-15T10:49:07Z</time>
      </trkpt>
      <trkpt lat="45.98978" lon="4.82422">
        <ele>236</ele>
        <time>2018-11-15T10:49:08Z</time>
      </trkpt>
      <trkpt lat="45.98977" lon="4.82415">
        <ele>235</ele>
        <time>2018-11-15T10:49:09Z</time>
      </trkpt>
      <trkpt lat="45.98975" lon="4.82408">
        <ele>235</ele>
        <time>2018-11-15T10:49:10Z</time>
      </trkpt>
      <trkpt lat="45.98974" lon="4.824">
        <ele>235</ele>
        <time>2018-11-15T10:49:11Z</time>
      </trkpt>
      <trkpt lat="45.98972" lon="4.82393">
        <ele>235</ele>
        <time>2018-11-15T10:49:12Z</time>
      </trkpt>
      <trkpt lat="45.98971" lon="4.82386">
        <ele>235</ele>
        <time>2018-11-15T10:49:13Z</time>
      </trkpt>
      <trkpt lat="45.98968" lon="4.82379">
        <ele>235</ele>
        <time>2018-11-15T10:49:14Z</time>
      </trkpt>
      <trkpt lat="45.98964" lon="4.82371">
        <ele>235</ele>
        <time>2018-11-15T10:49:15Z</time>
      </trkpt>
      <trkpt lat="45.98962" lon="4.82364">
        <ele>235</ele>
        <time>2018-11-15T10:49:16Z</time>
      </trkpt>
      <trkpt lat="45.98959" lon="4.82357">
        <ele>235</ele>
        <time>2018-11-15T10:49:17Z</time>
      </trkpt>
      <trkpt lat="45.98957" lon="4.82351">
        <ele>235</ele>
        <time>2018-11-15T10:49:18Z</time>
      </trkpt>
      <trkpt lat="45.98954" lon="4.82344">
        <ele>235</ele>
        <time>2018-11-15T10:49:19Z</time>
      </trkpt>
      <trkpt lat="45.98951" lon="4.82338">
        <ele>235</ele>
        <time>2018-11-15T10:49:20Z</time>
      </trkpt>
      <trkpt lat="45.98947" lon="4.82332">
        <ele>234</ele>
        <time>2018-11-15T10:49:21Z</time>
      </trkpt>
      <trkpt lat="45.98944" lon="4.82326">
        <ele>234</ele>
        <time>2018-11-15T10:49:22Z</time>
      </trkpt>
      <trkpt lat="45.9894" lon="4.82322">
        <ele>234</ele>
        <time>2018-11-15T10:49:23Z</time>
      </trkpt>
      <trkpt lat="45.98936" lon="4.82318">
        <ele>234</ele>
        <time>2018-11-15T10:49:24Z</time>
      </trkpt>
      <trkpt lat="45.98932" lon="4.82312">
        <ele>234</ele>
        <time>2018-11-15T10:49:25Z</time>
      </trkpt>
      <trkpt lat="45.98929" lon="4.82307">
        <ele>234</ele>
        <time>2018-11-15T10:49:26Z</time>
      </trkpt>
      <trkpt lat="45.98923" lon="4.82303">
        <ele>234</ele>
        <time>2018-11-15T10:49:27Z</time>
      </trkpt>
      <trkpt lat="45.98919" lon="4.82298">
        <ele>234</ele>
        <time>2018-11-15T10:49:28Z</time>
      </trkpt>
      <trkpt lat="45.98914" lon="4.82294">
        <ele>236</ele>
        <time>2018-11-15T10:49:29Z</time>
      </trkpt>
      <trkpt lat="45.98908" lon="4.82289">
        <ele>236</ele>
        <time>2018-11-15T10:49:30Z</time>
      </trkpt>
      <trkpt lat="45.98902" lon="4.82283">
        <ele>236</ele>
        <time>2018-11-15T10:49:31Z</time>
      </trkpt>
      <trkpt lat="45.98899" lon="4.82277">
        <ele>236</ele>
        <time>2018-11-15T10:49:32Z</time>
      </trkpt>
      <trkpt lat="45.98895" lon="4.82272">
        <ele>236</ele>
        <time>2018-11-15T10:49:33Z</time>
      </trkpt>
      <trkpt lat="45.98892" lon="4.82265">
        <ele>236</ele>
        <time>2018-11-15T10:49:34Z</time>
      </trkpt>
      <trkpt lat="45.98887" lon="4.82254">
        <ele>236</ele>
        <time>2018-11-15T10:49:36Z</time>
      </trkpt>
      <trkpt lat="45.98884" lon="4.82248">
        <ele>236</ele>
        <time>2018-11-15T10:49:37Z</time>
      </trkpt>
      <trkpt lat="45.98881" lon="4.8224">
        <ele>236</ele>
        <time>2018-11-15T10:49:38Z</time>
      </trkpt>
      <trkpt lat="45.98878" lon="4.82233">
        <ele>236</ele>
        <time>2018-11-15T10:49:39Z</time>
      </trkpt>
      <trkpt lat="45.98876" lon="4.82226">
        <ele>236</ele>
        <time>2018-11-15T10:49:40Z</time>
      </trkpt>
      <trkpt lat="45.98873" lon="4.82219">
        <ele>236</ele>
        <time>2018-11-15T10:49:41Z</time>
      </trkpt>
      <trkpt lat="45.98868" lon="4.8221">
        <ele>236</ele>
        <time>2018-11-15T10:49:42Z</time>
      </trkpt>
      <trkpt lat="45.98867" lon="4.82205">
        <ele>236</ele>
        <time>2018-11-15T10:49:43Z</time>
      </trkpt>
      <trkpt lat="45.98863" lon="4.82198">
        <ele>236</ele>
        <time>2018-11-15T10:49:44Z</time>
      </trkpt>
      <trkpt lat="45.98858" lon="4.82191">
        <ele>236</ele>
        <time>2018-11-15T10:49:45Z</time>
      </trkpt>
      <trkpt lat="45.98855" lon="4.82183">
        <ele>236</ele>
        <time>2018-11-15T10:49:46Z</time>
      </trkpt>
      <trkpt lat="45.98852" lon="4.82174">
        <ele>236</ele>
        <time>2018-11-15T10:49:47Z</time>
      </trkpt>
      <trkpt lat="45.9885" lon="4.82169">
        <ele>236</ele>
        <time>2018-11-15T10:49:48Z</time>
      </trkpt>
      <trkpt lat="45.98848" lon="4.82161">
        <ele>236</ele>
        <time>2018-11-15T10:49:49Z</time>
      </trkpt>
      <trkpt lat="45.98847" lon="4.82153">
        <ele>236</ele>
        <time>2018-11-15T10:49:50Z</time>
      </trkpt>
      <trkpt lat="45.98845" lon="4.82145">
        <ele>236</ele>
        <time>2018-11-15T10:49:51Z</time>
      </trkpt>
      <trkpt lat="45.98843" lon="4.82138">
        <ele>236</ele>
        <time>2018-11-15T10:49:52Z</time>
      </trkpt>
      <trkpt lat="45.98842" lon="4.82132">
        <ele>236</ele>
        <time>2018-11-15T10:49:53Z</time>
      </trkpt>
      <trkpt lat="45.98841" lon="4.82124">
        <ele>236</ele>
        <time>2018-11-15T10:49:54Z</time>
      </trkpt>
      <trkpt lat="45.98839" lon="4.82116">
        <ele>235</ele>
        <time>2018-11-15T10:49:55Z</time>
      </trkpt>
      <trkpt lat="45.98838" lon="4.82107">
        <ele>235</ele>
        <time>2018-11-15T10:49:56Z</time>
      </trkpt>
      <trkpt lat="45.98836" lon="4.82099">
        <ele>236</ele>
        <time>2018-11-15T10:49:57Z</time>
      </trkpt>
      <trkpt lat="45.98835" lon="4.82092">
        <ele>236</ele>
        <time>2018-11-15T10:49:58Z</time>
      </trkpt>
      <trkpt lat="45.98833" lon="4.82083">
        <ele>236</ele>
        <time>2018-11-15T10:49:59Z</time>
      </trkpt>
      <trkpt lat="45.98832" lon="4.82076">
        <ele>237</ele>
        <time>2018-11-15T10:50:00Z</time>
      </trkpt>
      <trkpt lat="45.98831" lon="4.82067">
        <ele>237</ele>
        <time>2018-11-15T10:50:01Z</time>
      </trkpt>
      <trkpt lat="45.9883" lon="4.82061">
        <ele>237</ele>
        <time>2018-11-15T10:50:02Z</time>
      </trkpt>
      <trkpt lat="45.9883" lon="4.82053">
        <ele>237</ele>
        <time>2018-11-15T10:50:03Z</time>
      </trkpt>
      <trkpt lat="45.98827" lon="4.82044">
        <ele>238</ele>
        <time>2018-11-15T10:50:04Z</time>
      </trkpt>
      <trkpt lat="45.98827" lon="4.82037">
        <ele>238</ele>
        <time>2018-11-15T10:50:05Z</time>
      </trkpt>
      <trkpt lat="45.98826" lon="4.82029">
        <ele>238</ele>
        <time>2018-11-15T10:50:06Z</time>
      </trkpt>
      <trkpt lat="45.98825" lon="4.82021">
        <ele>238</ele>
        <time>2018-11-15T10:50:07Z</time>
      </trkpt>
      <trkpt lat="45.98823" lon="4.82013">
        <ele>238</ele>
        <time>2018-11-15T10:50:08Z</time>
      </trkpt>
      <trkpt lat="45.98822" lon="4.82005">
        <ele>238</ele>
        <time>2018-11-15T10:50:09Z</time>
      </trkpt>
      <trkpt lat="45.9882" lon="4.81998">
        <ele>238</ele>
        <time>2018-11-15T10:50:10Z</time>
      </trkpt>
      <trkpt lat="45.9882" lon="4.81991">
        <ele>238</ele>
        <time>2018-11-15T10:50:11Z</time>
      </trkpt>
      <trkpt lat="45.98818" lon="4.81983">
        <ele>238</ele>
        <time>2018-11-15T10:50:12Z</time>
      </trkpt>
      <trkpt lat="45.98818" lon="4.81975">
        <ele>239</ele>
        <time>2018-11-15T10:50:13Z</time>
      </trkpt>
      <trkpt lat="45.98816" lon="4.81968">
        <ele>239</ele>
        <time>2018-11-15T10:50:14Z</time>
      </trkpt>
      <trkpt lat="45.98815" lon="4.81961">
        <ele>239</ele>
        <time>2018-11-15T10:50:15Z</time>
      </trkpt>
      <trkpt lat="45.98813" lon="4.81953">
        <ele>239</ele>
        <time>2018-11-15T10:50:16Z</time>
      </trkpt>
      <trkpt lat="45.98812" lon="4.81945">
        <ele>239</ele>
        <time>2018-11-15T10:50:17Z</time>
      </trkpt>
      <trkpt lat="45.98812" lon="4.81939">
        <ele>239</ele>
        <time>2018-11-15T10:50:18Z</time>
      </trkpt>
      <trkpt lat="45.98812" lon="4.8193">
        <ele>239</ele>
        <time>2018-11-15T10:50:19Z</time>
      </trkpt>
      <trkpt lat="45.98811" lon="4.81923">
        <ele>239</ele>
        <time>2018-11-15T10:50:20Z</time>
      </trkpt>
      <trkpt lat="45.98808" lon="4.81913">
        <ele>239</ele>
        <time>2018-11-15T10:50:21Z</time>
      </trkpt>
      <trkpt lat="45.98808" lon="4.81906">
        <ele>239</ele>
        <time>2018-11-15T10:50:22Z</time>
      </trkpt>
      <trkpt lat="45.98806" lon="4.81899">
        <ele>239</ele>
        <time>2018-11-15T10:50:23Z</time>
      </trkpt>
      <trkpt lat="45.98804" lon="4.81892">
        <ele>239</ele>
        <time>2018-11-15T10:50:24Z</time>
      </trkpt>
      <trkpt lat="45.98802" lon="4.81884">
        <ele>239</ele>
        <time>2018-11-15T10:50:25Z</time>
      </trkpt>
      <trkpt lat="45.988" lon="4.81877">
        <ele>239</ele>
        <time>2018-11-15T10:50:26Z</time>
      </trkpt>
      <trkpt lat="45.988" lon="4.8187">
        <ele>239</ele>
        <time>2018-11-15T10:50:27Z</time>
      </trkpt>
      <trkpt lat="45.98795" lon="4.8186">
        <ele>239</ele>
        <time>2018-11-15T10:50:30Z</time>
      </trkpt>
      <trkpt lat="45.9879" lon="4.81848">
        <ele>239</ele>
        <time>2018-11-15T10:50:31Z</time>
      </trkpt>
      <trkpt lat="45.98786" lon="4.81839">
        <ele>239</ele>
        <time>2018-11-15T10:50:33Z</time>
      </trkpt>
      <trkpt lat="45.98782" lon="4.81832">
        <ele>240</ele>
        <time>2018-11-15T10:50:34Z</time>
      </trkpt>
      <trkpt lat="45.98781" lon="4.81826">
        <ele>240</ele>
        <time>2018-11-15T10:50:35Z</time>
      </trkpt>
      <trkpt lat="45.98778" lon="4.8182">
        <ele>240</ele>
        <time>2018-11-15T10:50:36Z</time>
      </trkpt>
      <trkpt lat="45.98775" lon="4.81815">
        <ele>240</ele>
        <time>2018-11-15T10:50:37Z</time>
      </trkpt>
      <trkpt lat="45.98773" lon="4.81809">
        <ele>240</ele>
        <time>2018-11-15T10:50:38Z</time>
      </trkpt>
      <trkpt lat="45.9877" lon="4.81801">
        <ele>240</ele>
        <time>2018-11-15T10:50:41Z</time>
      </trkpt>
      <trkpt lat="45.98767" lon="4.81791">
        <ele>241</ele>
        <time>2018-11-15T10:50:42Z</time>
      </trkpt>
      <trkpt lat="45.98764" lon="4.81785">
        <ele>241</ele>
        <time>2018-11-15T10:50:43Z</time>
      </trkpt>
      <trkpt lat="45.98761" lon="4.81781">
        <ele>241</ele>
        <time>2018-11-15T10:50:44Z</time>
      </trkpt>
      <trkpt lat="45.98757" lon="4.81774">
        <ele>241</ele>
        <time>2018-11-15T10:50:45Z</time>
      </trkpt>
      <trkpt lat="45.98754" lon="4.81771">
        <ele>241</ele>
        <time>2018-11-15T10:50:46Z</time>
      </trkpt>
      <trkpt lat="45.9875" lon="4.81765">
        <ele>241</ele>
        <time>2018-11-15T10:50:47Z</time>
      </trkpt>
      <trkpt lat="45.98748" lon="4.81757">
        <ele>241</ele>
        <time>2018-11-15T10:50:48Z</time>
      </trkpt>
      <trkpt lat="45.98746" lon="4.81754">
        <ele>241</ele>
        <time>2018-11-15T10:50:49Z</time>
      </trkpt>
      <trkpt lat="45.98743" lon="4.81745">
        <ele>240</ele>
        <time>2018-11-15T10:50:50Z</time>
      </trkpt>
      <trkpt lat="45.9874" lon="4.81739">
        <ele>240</ele>
        <time>2018-11-15T10:50:51Z</time>
      </trkpt>
      <trkpt lat="45.98735" lon="4.81734">
        <ele>240</ele>
        <time>2018-11-15T10:50:52Z</time>
      </trkpt>
      <trkpt lat="45.9873" lon="4.81731">
        <ele>239</ele>
        <time>2018-11-15T10:50:53Z</time>
      </trkpt>
      <trkpt lat="45.98726" lon="4.81729">
        <ele>239</ele>
        <time>2018-11-15T10:50:54Z</time>
      </trkpt>
      <trkpt lat="45.9872" lon="4.81725">
        <ele>239</ele>
        <time>2018-11-15T10:50:55Z</time>
      </trkpt>
      <trkpt lat="45.98711" lon="4.81726">
        <ele>239</ele>
        <time>2018-11-15T10:50:56Z</time>
      </trkpt>
      <trkpt lat="45.98706" lon="4.81727">
        <ele>239</ele>
        <time>2018-11-15T10:50:57Z</time>
      </trkpt>
      <trkpt lat="45.987" lon="4.81731">
        <ele>239</ele>
        <time>2018-11-15T10:50:58Z</time>
      </trkpt>
      <trkpt lat="45.98694" lon="4.81732">
        <ele>238</ele>
        <time>2018-11-15T10:50:59Z</time>
      </trkpt>
      <trkpt lat="45.98689" lon="4.81732">
        <ele>238</ele>
        <time>2018-11-15T10:51:00Z</time>
      </trkpt>
      <trkpt lat="45.98684" lon="4.81734">
        <ele>238</ele>
        <time>2018-11-15T10:51:01Z</time>
      </trkpt>
      <trkpt lat="45.98678" lon="4.81735">
        <ele>238</ele>
        <time>2018-11-15T10:51:02Z</time>
      </trkpt>
      <trkpt lat="45.98672" lon="4.81737">
        <ele>238</ele>
        <time>2018-11-15T10:51:03Z</time>
      </trkpt>
      <trkpt lat="45.98668" lon="4.81739">
        <ele>238</ele>
        <time>2018-11-15T10:51:04Z</time>
      </trkpt>
      <trkpt lat="45.98662" lon="4.81742">
        <ele>238</ele>
        <time>2018-11-15T10:51:05Z</time>
      </trkpt>
      <trkpt lat="45.98658" lon="4.81743">
        <ele>237</ele>
        <time>2018-11-15T10:51:06Z</time>
      </trkpt>
      <trkpt lat="45.98652" lon="4.81745">
        <ele>237</ele>
        <time>2018-11-15T10:51:07Z</time>
      </trkpt>
      <trkpt lat="45.98646" lon="4.81747">
        <ele>237</ele>
        <time>2018-11-15T10:51:08Z</time>
      </trkpt>
      <trkpt lat="45.9864" lon="4.81748">
        <ele>237</ele>
        <time>2018-11-15T10:51:09Z</time>
      </trkpt>
      <trkpt lat="45.98634" lon="4.81749">
        <ele>237</ele>
        <time>2018-11-15T10:51:10Z</time>
      </trkpt>
      <trkpt lat="45.98629" lon="4.8175">
        <ele>237</ele>
        <time>2018-11-15T10:51:11Z</time>
      </trkpt>
      <trkpt lat="45.98624" lon="4.81749">
        <ele>237</ele>
        <time>2018-11-15T10:51:12Z</time>
      </trkpt>
      <trkpt lat="45.98617" lon="4.81751">
        <ele>238</ele>
        <time>2018-11-15T10:51:13Z</time>
      </trkpt>
      <trkpt lat="45.98613" lon="4.81753">
        <ele>238</ele>
        <time>2018-11-15T10:51:14Z</time>
      </trkpt>
      <trkpt lat="45.98608" lon="4.81755">
        <ele>238</ele>
        <time>2018-11-15T10:51:15Z</time>
      </trkpt>
      <trkpt lat="45.98602" lon="4.81757">
        <ele>238</ele>
        <time>2018-11-15T10:51:16Z</time>
      </trkpt>
      <trkpt lat="45.98596" lon="4.81761">
        <ele>237</ele>
        <time>2018-11-15T10:51:17Z</time>
      </trkpt>
      <trkpt lat="45.98593" lon="4.81764">
        <ele>237</ele>
        <time>2018-11-15T10:51:18Z</time>
      </trkpt>
      <trkpt lat="45.98587" lon="4.8177">
        <ele>238</ele>
        <time>2018-11-15T10:51:19Z</time>
      </trkpt>
      <trkpt lat="45.98583" lon="4.81773">
        <ele>237</ele>
        <time>2018-11-15T10:51:20Z</time>
      </trkpt>
      <trkpt lat="45.98578" lon="4.81777">
        <ele>237</ele>
        <time>2018-11-15T10:51:21Z</time>
      </trkpt>
      <trkpt lat="45.98572" lon="4.81782">
        <ele>238</ele>
        <time>2018-11-15T10:51:22Z</time>
      </trkpt>
      <trkpt lat="45.98568" lon="4.81787">
        <ele>238</ele>
        <time>2018-11-15T10:51:23Z</time>
      </trkpt>
      <trkpt lat="45.98562" lon="4.81792">
        <ele>238</ele>
        <time>2018-11-15T10:51:24Z</time>
      </trkpt>
      <trkpt lat="45.98555" lon="4.81797">
        <ele>238</ele>
        <time>2018-11-15T10:51:26Z</time>
      </trkpt>
      <trkpt lat="45.9855" lon="4.81796">
        <ele>238</ele>
        <time>2018-11-15T10:51:27Z</time>
      </trkpt>
      <trkpt lat="45.98546" lon="4.81796">
        <ele>238</ele>
        <time>2018-11-15T10:51:28Z</time>
      </trkpt>
      <trkpt lat="45.98541" lon="4.81792">
        <ele>238</ele>
        <time>2018-11-15T10:51:29Z</time>
      </trkpt>
      <trkpt lat="45.98537" lon="4.81788">
        <ele>238</ele>
        <time>2018-11-15T10:51:30Z</time>
      </trkpt>
      <trkpt lat="45.98531" lon="4.81784">
        <ele>238</ele>
        <time>2018-11-15T10:51:31Z</time>
      </trkpt>
      <trkpt lat="45.98526" lon="4.81777">
        <ele>238</ele>
        <time>2018-11-15T10:51:32Z</time>
      </trkpt>
      <trkpt lat="45.98522" lon="4.81772">
        <ele>238</ele>
        <time>2018-11-15T10:51:33Z</time>
      </trkpt>
      <trkpt lat="45.98518" lon="4.81766">
        <ele>237</ele>
        <time>2018-11-15T10:51:34Z</time>
      </trkpt>
      <trkpt lat="45.98512" lon="4.81762">
        <ele>237</ele>
        <time>2018-11-15T10:51:35Z</time>
      </trkpt>
      <trkpt lat="45.98507" lon="4.81757">
        <ele>237</ele>
        <time>2018-11-15T10:51:36Z</time>
      </trkpt>
      <trkpt lat="45.98504" lon="4.81753">
        <ele>237</ele>
        <time>2018-11-15T10:51:37Z</time>
      </trkpt>
      <trkpt lat="45.98497" lon="4.81746">
        <ele>237</ele>
        <time>2018-11-15T10:51:39Z</time>
      </trkpt>
      <trkpt lat="45.98494" lon="4.81743">
        <ele>238</ele>
        <time>2018-11-15T10:51:40Z</time>
      </trkpt>
      <trkpt lat="45.98488" lon="4.81735">
        <ele>238</ele>
        <time>2018-11-15T10:51:43Z</time>
      </trkpt>
      <trkpt lat="45.98484" lon="4.81731">
        <ele>238</ele>
        <time>2018-11-15T10:51:44Z</time>
      </trkpt>
      <trkpt lat="45.98478" lon="4.81724">
        <ele>238</ele>
        <time>2018-11-15T10:51:47Z</time>
      </trkpt>
      <trkpt lat="45.98476" lon="4.81722">
        <ele>239</ele>
        <time>2018-11-15T10:51:48Z</time>
      </trkpt>
      <trkpt lat="45.9847" lon="4.81713">
        <ele>239</ele>
        <time>2018-11-15T10:51:51Z</time>
      </trkpt>
      <trkpt lat="45.98468" lon="4.81709">
        <ele>239</ele>
        <time>2018-11-15T10:51:52Z</time>
      </trkpt>
      <trkpt lat="45.98462" lon="4.817">
        <ele>239</ele>
        <time>2018-11-15T10:51:55Z</time>
      </trkpt>
      <trkpt lat="45.9846" lon="4.81697">
        <ele>239</ele>
        <time>2018-11-15T10:51:56Z</time>
      </trkpt>
      <trkpt lat="45.98456" lon="4.81691">
        <ele>239</ele>
        <time>2018-11-15T10:51:58Z</time>
      </trkpt>
      <trkpt lat="45.98454" lon="4.81687">
        <ele>239</ele>
        <time>2018-11-15T10:51:59Z</time>
      </trkpt>
      <trkpt lat="45.98448" lon="4.81678">
        <ele>239</ele>
        <time>2018-11-15T10:52:02Z</time>
      </trkpt>
      <trkpt lat="45.98445" lon="4.81675">
        <ele>239</ele>
        <time>2018-11-15T10:52:03Z</time>
      </trkpt>
      <trkpt lat="45.9844" lon="4.81669">
        <ele>240</ele>
        <time>2018-11-15T10:52:04Z</time>
      </trkpt>
      <trkpt lat="45.98437" lon="4.81667">
        <ele>240</ele>
        <time>2018-11-15T10:52:05Z</time>
      </trkpt>
      <trkpt lat="45.98429" lon="4.81663">
        <ele>239</ele>
        <time>2018-11-15T10:52:07Z</time>
      </trkpt>
      <trkpt lat="45.98424" lon="4.81664">
        <ele>240</ele>
        <time>2018-11-15T10:52:08Z</time>
      </trkpt>
      <trkpt lat="45.98415" lon="4.81664">
        <ele>241</ele>
        <time>2018-11-15T10:52:10Z</time>
      </trkpt>
      <trkpt lat="45.98411" lon="4.81665">
        <ele>241</ele>
        <time>2018-11-15T10:52:11Z</time>
      </trkpt>
      <trkpt lat="45.98403" lon="4.81667">
        <ele>242</ele>
        <time>2018-11-15T10:52:13Z</time>
      </trkpt>
      <trkpt lat="45.98398" lon="4.81668">
        <ele>243</ele>
        <time>2018-11-15T10:52:14Z</time>
      </trkpt>
      <trkpt lat="45.98391" lon="4.81668">
        <ele>243</ele>
        <time>2018-11-15T10:52:16Z</time>
      </trkpt>
      <trkpt lat="45.98387" lon="4.81669">
        <ele>243</ele>
        <time>2018-11-15T10:52:17Z</time>
      </trkpt>
      <trkpt lat="45.9838" lon="4.81672">
        <ele>244</ele>
        <time>2018-11-15T10:52:19Z</time>
      </trkpt>
      <trkpt lat="45.98376" lon="4.81672">
        <ele>244</ele>
        <time>2018-11-15T10:52:20Z</time>
      </trkpt>
      <trkpt lat="45.98367" lon="4.81674">
        <ele>244</ele>
        <time>2018-11-15T10:52:22Z</time>
      </trkpt>
      <trkpt lat="45.98363" lon="4.81674">
        <ele>244</ele>
        <time>2018-11-15T10:52:23Z</time>
      </trkpt>
      <trkpt lat="45.98355" lon="4.81675">
        <ele>245</ele>
        <time>2018-11-15T10:52:25Z</time>
      </trkpt>
      <trkpt lat="45.98351" lon="4.81674">
        <ele>245</ele>
        <time>2018-11-15T10:52:26Z</time>
      </trkpt>
      <trkpt lat="45.98343" lon="4.81672">
        <ele>245</ele>
        <time>2018-11-15T10:52:28Z</time>
      </trkpt>
      <trkpt lat="45.98341" lon="4.81671">
        <ele>245</ele>
        <time>2018-11-15T10:52:29Z</time>
      </trkpt>
      <trkpt lat="45.98334" lon="4.81667">
        <ele>246</ele>
        <time>2018-11-15T10:52:31Z</time>
      </trkpt>
      <trkpt lat="45.98331" lon="4.81666">
        <ele>246</ele>
        <time>2018-11-15T10:52:32Z</time>
      </trkpt>
      <trkpt lat="45.98324" lon="4.81661">
        <ele>246</ele>
        <time>2018-11-15T10:52:34Z</time>
      </trkpt>
      <trkpt lat="45.9832" lon="4.81658">
        <ele>246</ele>
        <time>2018-11-15T10:52:35Z</time>
      </trkpt>
      <trkpt lat="45.98314" lon="4.81652">
        <ele>246</ele>
        <time>2018-11-15T10:52:37Z</time>
      </trkpt>
      <trkpt lat="45.98311" lon="4.81649">
        <ele>246</ele>
        <time>2018-11-15T10:52:38Z</time>
      </trkpt>
      <trkpt lat="45.98304" lon="4.81643">
        <ele>246</ele>
        <time>2018-11-15T10:52:40Z</time>
      </trkpt>
      <trkpt lat="45.983" lon="4.8164">
        <ele>246</ele>
        <time>2018-11-15T10:52:41Z</time>
      </trkpt>
      <trkpt lat="45.98294" lon="4.81633">
        <ele>247</ele>
        <time>2018-11-15T10:52:43Z</time>
      </trkpt>
      <trkpt lat="45.9829" lon="4.81628">
        <ele>247</ele>
        <time>2018-11-15T10:52:44Z</time>
      </trkpt>
      <trkpt lat="45.98285" lon="4.81619">
        <ele>247</ele>
        <time>2018-11-15T10:52:46Z</time>
      </trkpt>
      <trkpt lat="45.98282" lon="4.81613">
        <ele>247</ele>
        <time>2018-11-15T10:52:47Z</time>
      </trkpt>
      <trkpt lat="45.98279" lon="4.81608">
        <ele>247</ele>
        <time>2018-11-15T10:52:48Z</time>
      </trkpt>
      <trkpt lat="45.98277" lon="4.81602">
        <ele>247</ele>
        <time>2018-11-15T10:52:49Z</time>
      </trkpt>
      <trkpt lat="45.98274" lon="4.81596">
        <ele>247</ele>
        <time>2018-11-15T10:52:50Z</time>
      </trkpt>
      <trkpt lat="45.98273" lon="4.81589">
        <ele>247</ele>
        <time>2018-11-15T10:52:51Z</time>
      </trkpt>
      <trkpt lat="45.98271" lon="4.81583">
        <ele>247</ele>
        <time>2018-11-15T10:52:52Z</time>
      </trkpt>
      <trkpt lat="45.98268" lon="4.81577">
        <ele>247</ele>
        <time>2018-11-15T10:52:53Z</time>
      </trkpt>
      <trkpt lat="45.98266" lon="4.81571">
        <ele>247</ele>
        <time>2018-11-15T10:52:54Z</time>
      </trkpt>
      <trkpt lat="45.98264" lon="4.81565">
        <ele>247</ele>
        <time>2018-11-15T10:52:55Z</time>
      </trkpt>
      <trkpt lat="45.98262" lon="4.81559">
        <ele>247</ele>
        <time>2018-11-15T10:52:56Z</time>
      </trkpt>
      <trkpt lat="45.9826" lon="4.81552">
        <ele>247</ele>
        <time>2018-11-15T10:52:57Z</time>
      </trkpt>
      <trkpt lat="45.98257" lon="4.81545">
        <ele>247</ele>
        <time>2018-11-15T10:52:58Z</time>
      </trkpt>
      <trkpt lat="45.98254" lon="4.8154">
        <ele>247</ele>
        <time>2018-11-15T10:52:59Z</time>
      </trkpt>
      <trkpt lat="45.98252" lon="4.81534">
        <ele>247</ele>
        <time>2018-11-15T10:53:00Z</time>
      </trkpt>
      <trkpt lat="45.9825" lon="4.81527">
        <ele>249</ele>
        <time>2018-11-15T10:53:01Z</time>
      </trkpt>
      <trkpt lat="45.98249" lon="4.81521">
        <ele>249</ele>
        <time>2018-11-15T10:53:02Z</time>
      </trkpt>
      <trkpt lat="45.98248" lon="4.81514">
        <ele>249</ele>
        <time>2018-11-15T10:53:03Z</time>
      </trkpt>
      <trkpt lat="45.98246" lon="4.81508">
        <ele>249</ele>
        <time>2018-11-15T10:53:04Z</time>
      </trkpt>
      <trkpt lat="45.98244" lon="4.81501">
        <ele>249</ele>
        <time>2018-11-15T10:53:05Z</time>
      </trkpt>
      <trkpt lat="45.9824" lon="4.8149">
        <ele>249</ele>
        <time>2018-11-15T10:53:07Z</time>
      </trkpt>
      <trkpt lat="45.98238" lon="4.81485">
        <ele>249</ele>
        <time>2018-11-15T10:53:08Z</time>
      </trkpt>
      <trkpt lat="45.98235" lon="4.81474">
        <ele>249</ele>
        <time>2018-11-15T10:53:10Z</time>
      </trkpt>
      <trkpt lat="45.98233" lon="4.81469">
        <ele>249</ele>
        <time>2018-11-15T10:53:11Z</time>
      </trkpt>
      <trkpt lat="45.98231" lon="4.81463">
        <ele>249</ele>
        <time>2018-11-15T10:53:12Z</time>
      </trkpt>
      <trkpt lat="45.98228" lon="4.81457">
        <ele>249</ele>
        <time>2018-11-15T10:53:13Z</time>
      </trkpt>
      <trkpt lat="45.98226" lon="4.81451">
        <ele>249</ele>
        <time>2018-11-15T10:53:14Z</time>
      </trkpt>
      <trkpt lat="45.98225" lon="4.81445">
        <ele>249</ele>
        <time>2018-11-15T10:53:15Z</time>
      </trkpt>
      <trkpt lat="45.98223" lon="4.81438">
        <ele>249</ele>
        <time>2018-11-15T10:53:16Z</time>
      </trkpt>
      <trkpt lat="45.98219" lon="4.81432">
        <ele>249</ele>
        <time>2018-11-15T10:53:17Z</time>
      </trkpt>
      <trkpt lat="45.98217" lon="4.81425">
        <ele>249</ele>
        <time>2018-11-15T10:53:18Z</time>
      </trkpt>
      <trkpt lat="45.98214" lon="4.81417">
        <ele>249</ele>
        <time>2018-11-15T10:53:19Z</time>
      </trkpt>
      <trkpt lat="45.98212" lon="4.81411">
        <ele>248</ele>
        <time>2018-11-15T10:53:20Z</time>
      </trkpt>
      <trkpt lat="45.9821" lon="4.81405">
        <ele>248</ele>
        <time>2018-11-15T10:53:21Z</time>
      </trkpt>
      <trkpt lat="45.98207" lon="4.81398">
        <ele>248</ele>
        <time>2018-11-15T10:53:22Z</time>
      </trkpt>
      <trkpt lat="45.98206" lon="4.81391">
        <ele>248</ele>
        <time>2018-11-15T10:53:23Z</time>
      </trkpt>
      <trkpt lat="45.98204" lon="4.81384">
        <ele>248</ele>
        <time>2018-11-15T10:53:24Z</time>
      </trkpt>
      <trkpt lat="45.98201" lon="4.81377">
        <ele>248</ele>
        <time>2018-11-15T10:53:25Z</time>
      </trkpt>
      <trkpt lat="45.982" lon="4.8137">
        <ele>248</ele>
        <time>2018-11-15T10:53:26Z</time>
      </trkpt>
      <trkpt lat="45.98197" lon="4.81362">
        <ele>248</ele>
        <time>2018-11-15T10:53:27Z</time>
      </trkpt>
      <trkpt lat="45.98195" lon="4.81354">
        <ele>248</ele>
        <time>2018-11-15T10:53:28Z</time>
      </trkpt>
      <trkpt lat="45.98193" lon="4.81347">
        <ele>248</ele>
        <time>2018-11-15T10:53:29Z</time>
      </trkpt>
      <trkpt lat="45.98192" lon="4.81339">
        <ele>248</ele>
        <time>2018-11-15T10:53:30Z</time>
      </trkpt>
      <trkpt lat="45.9819" lon="4.8133">
        <ele>247</ele>
        <time>2018-11-15T10:53:31Z</time>
      </trkpt>
      <trkpt lat="45.98189" lon="4.81322">
        <ele>247</ele>
        <time>2018-11-15T10:53:32Z</time>
      </trkpt>
      <trkpt lat="45.98188" lon="4.81314">
        <ele>247</ele>
        <time>2018-11-15T10:53:33Z</time>
      </trkpt>
      <trkpt lat="45.98186" lon="4.81305">
        <ele>247</ele>
        <time>2018-11-15T10:53:34Z</time>
      </trkpt>
      <trkpt lat="45.98184" lon="4.81297">
        <ele>247</ele>
        <time>2018-11-15T10:53:35Z</time>
      </trkpt>
      <trkpt lat="45.98184" lon="4.81285">
        <ele>247</ele>
        <time>2018-11-15T10:53:36Z</time>
      </trkpt>
      <trkpt lat="45.98182" lon="4.81277">
        <ele>247</ele>
        <time>2018-11-15T10:53:37Z</time>
      </trkpt>
      <trkpt lat="45.9818" lon="4.8127">
        <ele>247</ele>
        <time>2018-11-15T10:53:38Z</time>
      </trkpt>
      <trkpt lat="45.98179" lon="4.81261">
        <ele>247</ele>
        <time>2018-11-15T10:53:39Z</time>
      </trkpt>
      <trkpt lat="45.98178" lon="4.81253">
        <ele>247</ele>
        <time>2018-11-15T10:53:40Z</time>
      </trkpt>
      <trkpt lat="45.98177" lon="4.81245">
        <ele>247</ele>
        <time>2018-11-15T10:53:41Z</time>
      </trkpt>
      <trkpt lat="45.98177" lon="4.81238">
        <ele>247</ele>
        <time>2018-11-15T10:53:42Z</time>
      </trkpt>
      <trkpt lat="45.98177" lon="4.81229">
        <ele>246</ele>
        <time>2018-11-15T10:53:43Z</time>
      </trkpt>
      <trkpt lat="45.98175" lon="4.81222">
        <ele>246</ele>
        <time>2018-11-15T10:53:44Z</time>
      </trkpt>
      <trkpt lat="45.98173" lon="4.81212">
        <ele>246</ele>
        <time>2018-11-15T10:53:45Z</time>
      </trkpt>
      <trkpt lat="45.98173" lon="4.81204">
        <ele>245</ele>
        <time>2018-11-15T10:53:46Z</time>
      </trkpt>
      <trkpt lat="45.9817" lon="4.81195">
        <ele>245</ele>
        <time>2018-11-15T10:53:47Z</time>
      </trkpt>
      <trkpt lat="45.98172" lon="4.81188">
        <ele>245</ele>
        <time>2018-11-15T10:53:48Z</time>
      </trkpt>
      <trkpt lat="45.9817" lon="4.81182">
        <ele>245</ele>
        <time>2018-11-15T10:53:49Z</time>
      </trkpt>
      <trkpt lat="45.98169" lon="4.81174">
        <ele>245</ele>
        <time>2018-11-15T10:53:50Z</time>
      </trkpt>
      <trkpt lat="45.98165" lon="4.81164">
        <ele>245</ele>
        <time>2018-11-15T10:53:51Z</time>
      </trkpt>
      <trkpt lat="45.98163" lon="4.81155">
        <ele>245</ele>
        <time>2018-11-15T10:53:52Z</time>
      </trkpt>
      <trkpt lat="45.98159" lon="4.81147">
        <ele>245</ele>
        <time>2018-11-15T10:53:53Z</time>
      </trkpt>
      <trkpt lat="45.98157" lon="4.81138">
        <ele>245</ele>
        <time>2018-11-15T10:53:54Z</time>
      </trkpt>
      <trkpt lat="45.98153" lon="4.81131">
        <ele>245</ele>
        <time>2018-11-15T10:53:55Z</time>
      </trkpt>
      <trkpt lat="45.98152" lon="4.81125">
        <ele>245</ele>
        <time>2018-11-15T10:53:56Z</time>
      </trkpt>
      <trkpt lat="45.98147" lon="4.81118">
        <ele>245</ele>
        <time>2018-11-15T10:53:57Z</time>
      </trkpt>
      <trkpt lat="45.98141" lon="4.81111">
        <ele>245</ele>
        <time>2018-11-15T10:53:58Z</time>
      </trkpt>
      <trkpt lat="45.98139" lon="4.81104">
        <ele>245</ele>
        <time>2018-11-15T10:53:59Z</time>
      </trkpt>
      <trkpt lat="45.98136" lon="4.81096">
        <ele>245</ele>
        <time>2018-11-15T10:54:00Z</time>
      </trkpt>
      <trkpt lat="45.98133" lon="4.8109">
        <ele>245</ele>
        <time>2018-11-15T10:54:01Z</time>
      </trkpt>
      <trkpt lat="45.9813" lon="4.81082">
        <ele>243</ele>
        <time>2018-11-15T10:54:02Z</time>
      </trkpt>
      <trkpt lat="45.98128" lon="4.81073">
        <ele>243</ele>
        <time>2018-11-15T10:54:03Z</time>
      </trkpt>
      <trkpt lat="45.98125" lon="4.81065">
        <ele>243</ele>
        <time>2018-11-15T10:54:04Z</time>
      </trkpt>
      <trkpt lat="45.98123" lon="4.81057">
        <ele>243</ele>
        <time>2018-11-15T10:54:05Z</time>
      </trkpt>
      <trkpt lat="45.98119" lon="4.81049">
        <ele>243</ele>
        <time>2018-11-15T10:54:06Z</time>
      </trkpt>
      <trkpt lat="45.98118" lon="4.81043">
        <ele>242</ele>
        <time>2018-11-15T10:54:07Z</time>
      </trkpt>
      <trkpt lat="45.98116" lon="4.81035">
        <ele>242</ele>
        <time>2018-11-15T10:54:08Z</time>
      </trkpt>
      <trkpt lat="45.98114" lon="4.81029">
        <ele>242</ele>
        <time>2018-11-15T10:54:09Z</time>
      </trkpt>
      <trkpt lat="45.98112" lon="4.81021">
        <ele>242</ele>
        <time>2018-11-15T10:54:10Z</time>
      </trkpt>
      <trkpt lat="45.9811" lon="4.81014">
        <ele>242</ele>
        <time>2018-11-15T10:54:11Z</time>
      </trkpt>
      <trkpt lat="45.98107" lon="4.81009">
        <ele>242</ele>
        <time>2018-11-15T10:54:12Z</time>
      </trkpt>
      <trkpt lat="45.98105" lon="4.81002">
        <ele>242</ele>
        <time>2018-11-15T10:54:13Z</time>
      </trkpt>
      <trkpt lat="45.98102" lon="4.80991">
        <ele>240</ele>
        <time>2018-11-15T10:54:15Z</time>
      </trkpt>
      <trkpt lat="45.981" lon="4.80985">
        <ele>239</ele>
        <time>2018-11-15T10:54:16Z</time>
      </trkpt>
      <trkpt lat="45.98098" lon="4.80979">
        <ele>239</ele>
        <time>2018-11-15T10:54:17Z</time>
      </trkpt>
      <trkpt lat="45.98097" lon="4.80972">
        <ele>239</ele>
        <time>2018-11-15T10:54:18Z</time>
      </trkpt>
      <trkpt lat="45.98094" lon="4.80964">
        <ele>239</ele>
        <time>2018-11-15T10:54:19Z</time>
      </trkpt>
      <trkpt lat="45.98093" lon="4.80955">
        <ele>238</ele>
        <time>2018-11-15T10:54:20Z</time>
      </trkpt>
      <trkpt lat="45.98091" lon="4.80945">
        <ele>238</ele>
        <time>2018-11-15T10:54:21Z</time>
      </trkpt>
      <trkpt lat="45.98089" lon="4.80935">
        <ele>238</ele>
        <time>2018-11-15T10:54:22Z</time>
      </trkpt>
      <trkpt lat="45.98087" lon="4.80926">
        <ele>239</ele>
        <time>2018-11-15T10:54:23Z</time>
      </trkpt>
      <trkpt lat="45.98085" lon="4.80916">
        <ele>239</ele>
        <time>2018-11-15T10:54:24Z</time>
      </trkpt>
      <trkpt lat="45.98082" lon="4.80907">
        <ele>238</ele>
        <time>2018-11-15T10:54:25Z</time>
      </trkpt>
      <trkpt lat="45.98079" lon="4.80897">
        <ele>238</ele>
        <time>2018-11-15T10:54:26Z</time>
      </trkpt>
      <trkpt lat="45.98077" lon="4.80887">
        <ele>238</ele>
        <time>2018-11-15T10:54:27Z</time>
      </trkpt>
      <trkpt lat="45.98075" lon="4.80878">
        <ele>237</ele>
        <time>2018-11-15T10:54:28Z</time>
      </trkpt>
      <trkpt lat="45.98072" lon="4.80867">
        <ele>237</ele>
        <time>2018-11-15T10:54:29Z</time>
      </trkpt>
      <trkpt lat="45.98069" lon="4.80857">
        <ele>236</ele>
        <time>2018-11-15T10:54:30Z</time>
      </trkpt>
      <trkpt lat="45.98069" lon="4.80847">
        <ele>236</ele>
        <time>2018-11-15T10:54:31Z</time>
      </trkpt>
      <trkpt lat="45.98065" lon="4.80836">
        <ele>236</ele>
        <time>2018-11-15T10:54:32Z</time>
      </trkpt>
      <trkpt lat="45.98063" lon="4.80826">
        <ele>234</ele>
        <time>2018-11-15T10:54:33Z</time>
      </trkpt>
      <trkpt lat="45.9806" lon="4.80816">
        <ele>234</ele>
        <time>2018-11-15T10:54:34Z</time>
      </trkpt>
      <trkpt lat="45.98058" lon="4.80807">
        <ele>234</ele>
        <time>2018-11-15T10:54:35Z</time>
      </trkpt>
      <trkpt lat="45.98056" lon="4.80799">
        <ele>233</ele>
        <time>2018-11-15T10:54:36Z</time>
      </trkpt>
      <trkpt lat="45.98053" lon="4.8079">
        <ele>233</ele>
        <time>2018-11-15T10:54:37Z</time>
      </trkpt>
      <trkpt lat="45.98051" lon="4.80781">
        <ele>233</ele>
        <time>2018-11-15T10:54:38Z</time>
      </trkpt>
      <trkpt lat="45.98049" lon="4.80774">
        <ele>233</ele>
        <time>2018-11-15T10:54:39Z</time>
      </trkpt>
      <trkpt lat="45.98047" lon="4.80766">
        <ele>233</ele>
        <time>2018-11-15T10:54:40Z</time>
      </trkpt>
      <trkpt lat="45.98046" lon="4.80758">
        <ele>233</ele>
        <time>2018-11-15T10:54:41Z</time>
      </trkpt>
      <trkpt lat="45.98044" lon="4.80752">
        <ele>233</ele>
        <time>2018-11-15T10:54:42Z</time>
      </trkpt>
      <trkpt lat="45.98042" lon="4.80745">
        <ele>231</ele>
        <time>2018-11-15T10:54:43Z</time>
      </trkpt>
      <trkpt lat="45.9804" lon="4.80739">
        <ele>231</ele>
        <time>2018-11-15T10:54:44Z</time>
      </trkpt>
      <trkpt lat="45.98039" lon="4.80729">
        <ele>231</ele>
        <time>2018-11-15T10:54:47Z</time>
      </trkpt>
      <trkpt lat="45.98039" lon="4.80725">
        <ele>231</ele>
        <time>2018-11-15T10:54:48Z</time>
      </trkpt>
      <trkpt lat="45.98039" lon="4.80721">
        <ele>231</ele>
        <time>2018-11-15T10:54:49Z</time>
      </trkpt>
      <trkpt lat="45.98039" lon="4.80711">
        <ele>231</ele>
        <time>2018-11-15T10:54:50Z</time>
      </trkpt>
      <trkpt lat="45.98042" lon="4.80706">
        <ele>230</ele>
        <time>2018-11-15T10:54:51Z</time>
      </trkpt>
      <trkpt lat="45.98046" lon="4.80701">
        <ele>230</ele>
        <time>2018-11-15T10:54:52Z</time>
      </trkpt>
      <trkpt lat="45.98051" lon="4.80698">
        <ele>230</ele>
        <time>2018-11-15T10:54:53Z</time>
      </trkpt>
      <trkpt lat="45.98057" lon="4.80698">
        <ele>230</ele>
        <time>2018-11-15T10:54:54Z</time>
      </trkpt>
      <trkpt lat="45.98063" lon="4.80698">
        <ele>230</ele>
        <time>2018-11-15T10:54:55Z</time>
      </trkpt>
      <trkpt lat="45.98068" lon="4.80697">
        <ele>230</ele>
        <time>2018-11-15T10:54:56Z</time>
      </trkpt>
      <trkpt lat="45.98075" lon="4.80697">
        <ele>230</ele>
        <time>2018-11-15T10:54:57Z</time>
      </trkpt>
      <trkpt lat="45.98081" lon="4.80694">
        <ele>230</ele>
        <time>2018-11-15T10:54:58Z</time>
      </trkpt>
      <trkpt lat="45.98087" lon="4.80694">
        <ele>228</ele>
        <time>2018-11-15T10:54:59Z</time>
      </trkpt>
      <trkpt lat="45.98094" lon="4.80694">
        <ele>228</ele>
        <time>2018-11-15T10:55:00Z</time>
      </trkpt>
      <trkpt lat="45.98101" lon="4.80693">
        <ele>228</ele>
        <time>2018-11-15T10:55:01Z</time>
      </trkpt>
      <trkpt lat="45.98108" lon="4.80693">
        <ele>228</ele>
        <time>2018-11-15T10:55:02Z</time>
      </trkpt>
      <trkpt lat="45.98116" lon="4.80693">
        <ele>228</ele>
        <time>2018-11-15T10:55:03Z</time>
      </trkpt>
      <trkpt lat="45.98123" lon="4.80692">
        <ele>228</ele>
        <time>2018-11-15T10:55:04Z</time>
      </trkpt>
      <trkpt lat="45.98132" lon="4.80691">
        <ele>228</ele>
        <time>2018-11-15T10:55:05Z</time>
      </trkpt>
      <trkpt lat="45.9814" lon="4.8069">
        <ele>228</ele>
        <time>2018-11-15T10:55:06Z</time>
      </trkpt>
      <trkpt lat="45.98149" lon="4.8069">
        <ele>228</ele>
        <time>2018-11-15T10:55:07Z</time>
      </trkpt>
      <trkpt lat="45.98158" lon="4.8069">
        <ele>227</ele>
        <time>2018-11-15T10:55:08Z</time>
      </trkpt>
      <trkpt lat="45.98165" lon="4.80689">
        <ele>227</ele>
        <time>2018-11-15T10:55:09Z</time>
      </trkpt>
      <trkpt lat="45.98173" lon="4.80687">
        <ele>225</ele>
        <time>2018-11-15T10:55:10Z</time>
      </trkpt>
      <trkpt lat="45.98181" lon="4.80685">
        <ele>225</ele>
        <time>2018-11-15T10:55:11Z</time>
      </trkpt>
      <trkpt lat="45.98189" lon="4.80684">
        <ele>225</ele>
        <time>2018-11-15T10:55:12Z</time>
      </trkpt>
      <trkpt lat="45.98197" lon="4.80681">
        <ele>225</ele>
        <time>2018-11-15T10:55:13Z</time>
      </trkpt>
      <trkpt lat="45.98204" lon="4.80678">
        <ele>225</ele>
        <time>2018-11-15T10:55:14Z</time>
      </trkpt>
      <trkpt lat="45.9821" lon="4.80674">
        <ele>224</ele>
        <time>2018-11-15T10:55:15Z</time>
      </trkpt>
      <trkpt lat="45.98217" lon="4.8067">
        <ele>224</ele>
        <time>2018-11-15T10:55:16Z</time>
      </trkpt>
      <trkpt lat="45.98223" lon="4.80664">
        <ele>224</ele>
        <time>2018-11-15T10:55:17Z</time>
      </trkpt>
      <trkpt lat="45.98227" lon="4.80655">
        <ele>223</ele>
        <time>2018-11-15T10:55:18Z</time>
      </trkpt>
      <trkpt lat="45.98231" lon="4.80646">
        <ele>223</ele>
        <time>2018-11-15T10:55:19Z</time>
      </trkpt>
      <trkpt lat="45.98235" lon="4.80636">
        <ele>224</ele>
        <time>2018-11-15T10:55:20Z</time>
      </trkpt>
      <trkpt lat="45.98238" lon="4.80627">
        <ele>224</ele>
        <time>2018-11-15T10:55:21Z</time>
      </trkpt>
      <trkpt lat="45.98241" lon="4.80618">
        <ele>224</ele>
        <time>2018-11-15T10:55:22Z</time>
      </trkpt>
      <trkpt lat="45.98244" lon="4.80608">
        <ele>224</ele>
        <time>2018-11-15T10:55:23Z</time>
      </trkpt>
      <trkpt lat="45.98247" lon="4.80599">
        <ele>224</ele>
        <time>2018-11-15T10:55:24Z</time>
      </trkpt>
      <trkpt lat="45.98249" lon="4.80589">
        <ele>224</ele>
        <time>2018-11-15T10:55:25Z</time>
      </trkpt>
      <trkpt lat="45.98253" lon="4.80579">
        <ele>224</ele>
        <time>2018-11-15T10:55:26Z</time>
      </trkpt>
      <trkpt lat="45.98256" lon="4.8057">
        <ele>224</ele>
        <time>2018-11-15T10:55:27Z</time>
      </trkpt>
      <trkpt lat="45.98258" lon="4.80561">
        <ele>224</ele>
        <time>2018-11-15T10:55:28Z</time>
      </trkpt>
      <trkpt lat="45.98261" lon="4.80553">
        <ele>224</ele>
        <time>2018-11-15T10:55:29Z</time>
      </trkpt>
      <trkpt lat="45.98264" lon="4.80545">
        <ele>224</ele>
        <time>2018-11-15T10:55:30Z</time>
      </trkpt>
      <trkpt lat="45.98266" lon="4.80537">
        <ele>224</ele>
        <time>2018-11-15T10:55:31Z</time>
      </trkpt>
      <trkpt lat="45.98268" lon="4.8053">
        <ele>224</ele>
        <time>2018-11-15T10:55:32Z</time>
      </trkpt>
      <trkpt lat="45.9827" lon="4.80523">
        <ele>224</ele>
        <time>2018-11-15T10:55:33Z</time>
      </trkpt>
      <trkpt lat="45.98273" lon="4.80514">
        <ele>224</ele>
        <time>2018-11-15T10:55:34Z</time>
      </trkpt>
      <trkpt lat="45.98275" lon="4.80507">
        <ele>223</ele>
        <time>2018-11-15T10:55:35Z</time>
      </trkpt>
      <trkpt lat="45.98278" lon="4.80497">
        <ele>223</ele>
        <time>2018-11-15T10:55:36Z</time>
      </trkpt>
      <trkpt lat="45.98279" lon="4.80488">
        <ele>223</ele>
        <time>2018-11-15T10:55:37Z</time>
      </trkpt>
      <trkpt lat="45.9828" lon="4.80482">
        <ele>223</ele>
        <time>2018-11-15T10:55:38Z</time>
      </trkpt>
      <trkpt lat="45.98285" lon="4.80473">
        <ele>224</ele>
        <time>2018-11-15T10:55:40Z</time>
      </trkpt>
      <trkpt lat="45.98288" lon="4.80467">
        <ele>224</ele>
        <time>2018-11-15T10:55:41Z</time>
      </trkpt>
      <trkpt lat="45.9829" lon="4.80459">
        <ele>224</ele>
        <time>2018-11-15T10:55:42Z</time>
      </trkpt>
      <trkpt lat="45.98292" lon="4.80448">
        <ele>224</ele>
        <time>2018-11-15T10:55:43Z</time>
      </trkpt>
      <trkpt lat="45.98296" lon="4.80439">
        <ele>224</ele>
        <time>2018-11-15T10:55:44Z</time>
      </trkpt>
      <trkpt lat="45.98295" lon="4.80431">
        <ele>224</ele>
        <time>2018-11-15T10:55:45Z</time>
      </trkpt>
      <trkpt lat="45.98297" lon="4.80423">
        <ele>224</ele>
        <time>2018-11-15T10:55:46Z</time>
      </trkpt>
      <trkpt lat="45.983" lon="4.80416">
        <ele>225</ele>
        <time>2018-11-15T10:55:47Z</time>
      </trkpt>
      <trkpt lat="45.983" lon="4.80411">
        <ele>225</ele>
        <time>2018-11-15T10:55:48Z</time>
      </trkpt>
      <trkpt lat="45.98302" lon="4.80402">
        <ele>225</ele>
        <time>2018-11-15T10:55:49Z</time>
      </trkpt>
      <trkpt lat="45.98304" lon="4.80392">
        <ele>225</ele>
        <time>2018-11-15T10:55:50Z</time>
      </trkpt>
      <trkpt lat="45.98306" lon="4.80385">
        <ele>225</ele>
        <time>2018-11-15T10:55:51Z</time>
      </trkpt>
      <trkpt lat="45.9831" lon="4.80375">
        <ele>225</ele>
        <time>2018-11-15T10:55:54Z</time>
      </trkpt>
      <trkpt lat="45.98311" lon="4.80372">
        <ele>225</ele>
        <time>2018-11-15T10:55:55Z</time>
      </trkpt>
      <trkpt lat="45.98313" lon="4.80359">
        <ele>226</ele>
        <time>2018-11-15T10:55:56Z</time>
      </trkpt>
      <trkpt lat="45.98314" lon="4.80353">
        <ele>226</ele>
        <time>2018-11-15T10:55:57Z</time>
      </trkpt>
      <trkpt lat="45.98315" lon="4.80346">
        <ele>226</ele>
        <time>2018-11-15T10:55:58Z</time>
      </trkpt>
      <trkpt lat="45.98316" lon="4.80341">
        <ele>227</ele>
        <time>2018-11-15T10:56:00Z</time>
      </trkpt>
      <trkpt lat="45.98318" lon="4.80324">
        <ele>227</ele>
        <time>2018-11-15T10:56:01Z</time>
      </trkpt>
      <trkpt lat="45.98319" lon="4.80314">
        <ele>227</ele>
        <time>2018-11-15T10:56:04Z</time>
      </trkpt>
      <trkpt lat="45.9832" lon="4.80311">
        <ele>227</ele>
        <time>2018-11-15T10:56:05Z</time>
      </trkpt>
      <trkpt lat="45.98322" lon="4.80304">
        <ele>227</ele>
        <time>2018-11-15T10:56:07Z</time>
      </trkpt>
      <trkpt lat="45.98324" lon="4.80293">
        <ele>227</ele>
        <time>2018-11-15T10:56:08Z</time>
      </trkpt>
      <trkpt lat="45.98326" lon="4.80282">
        <ele>227</ele>
        <time>2018-11-15T10:56:10Z</time>
      </trkpt>
      <trkpt lat="45.98328" lon="4.80276">
        <ele>227</ele>
        <time>2018-11-15T10:56:11Z</time>
      </trkpt>
      <trkpt lat="45.98331" lon="4.80265">
        <ele>228</ele>
        <time>2018-11-15T10:56:13Z</time>
      </trkpt>
      <trkpt lat="45.98333" lon="4.80259">
        <ele>229</ele>
        <time>2018-11-15T10:56:14Z</time>
      </trkpt>
      <trkpt lat="45.98335" lon="4.80249">
        <ele>230</ele>
        <time>2018-11-15T10:56:16Z</time>
      </trkpt>
      <trkpt lat="45.98336" lon="4.80246">
        <ele>230</ele>
        <time>2018-11-15T10:56:17Z</time>
      </trkpt>
      <trkpt lat="45.98339" lon="4.80237">
        <ele>230</ele>
        <time>2018-11-15T10:56:19Z</time>
      </trkpt>
      <trkpt lat="45.98341" lon="4.80233">
        <ele>230</ele>
        <time>2018-11-15T10:56:20Z</time>
      </trkpt>
      <trkpt lat="45.98342" lon="4.8022">
        <ele>230</ele>
        <time>2018-11-15T10:56:21Z</time>
      </trkpt>
      <trkpt lat="45.9834" lon="4.80208">
        <ele>230</ele>
        <time>2018-11-15T10:56:22Z</time>
      </trkpt>
      <trkpt lat="45.98337" lon="4.80206">
        <ele>230</ele>
        <time>2018-11-15T10:56:23Z</time>
      </trkpt>
      <trkpt lat="45.98333" lon="4.802">
        <ele>227</ele>
        <time>2018-11-15T10:56:24Z</time>
      </trkpt>
      <trkpt lat="45.9833" lon="4.80192">
        <ele>227</ele>
        <time>2018-11-15T10:56:25Z</time>
      </trkpt>
      <trkpt lat="45.98327" lon="4.80184">
        <ele>227</ele>
        <time>2018-11-15T10:56:26Z</time>
      </trkpt>
      <trkpt lat="45.98324" lon="4.80177">
        <ele>227</ele>
        <time>2018-11-15T10:56:27Z</time>
      </trkpt>
      <trkpt lat="45.98322" lon="4.80171">
        <ele>227</ele>
        <time>2018-11-15T10:56:28Z</time>
      </trkpt>
      <trkpt lat="45.98319" lon="4.80164">
        <ele>228</ele>
        <time>2018-11-15T10:56:29Z</time>
      </trkpt>
      <trkpt lat="45.98317" lon="4.80158">
        <ele>228</ele>
        <time>2018-11-15T10:56:30Z</time>
      </trkpt>
      <trkpt lat="45.98315" lon="4.80152">
        <ele>228</ele>
        <time>2018-11-15T10:56:31Z</time>
      </trkpt>
      <trkpt lat="45.98312" lon="4.80144">
        <ele>228</ele>
        <time>2018-11-15T10:56:32Z</time>
      </trkpt>
      <trkpt lat="45.9831" lon="4.80137">
        <ele>228</ele>
        <time>2018-11-15T10:56:33Z</time>
      </trkpt>
      <trkpt lat="45.98308" lon="4.80131">
        <ele>228</ele>
        <time>2018-11-15T10:56:34Z</time>
      </trkpt>
      <trkpt lat="45.98306" lon="4.80124">
        <ele>228</ele>
        <time>2018-11-15T10:56:35Z</time>
      </trkpt>
      <trkpt lat="45.98302" lon="4.80118">
        <ele>228</ele>
        <time>2018-11-15T10:56:36Z</time>
      </trkpt>
      <trkpt lat="45.98299" lon="4.80112">
        <ele>228</ele>
        <time>2018-11-15T10:56:37Z</time>
      </trkpt>
      <trkpt lat="45.98296" lon="4.80105">
        <ele>228</ele>
        <time>2018-11-15T10:56:38Z</time>
      </trkpt>
      <trkpt lat="45.98294" lon="4.80098">
        <ele>228</ele>
        <time>2018-11-15T10:56:39Z</time>
      </trkpt>
      <trkpt lat="45.98292" lon="4.80091">
        <ele>228</ele>
        <time>2018-11-15T10:56:40Z</time>
      </trkpt>
      <trkpt lat="45.9829" lon="4.80085">
        <ele>228</ele>
        <time>2018-11-15T10:56:41Z</time>
      </trkpt>
      <trkpt lat="45.98288" lon="4.80079">
        <ele>229</ele>
        <time>2018-11-15T10:56:42Z</time>
      </trkpt>
      <trkpt lat="45.98286" lon="4.80073">
        <ele>229</ele>
        <time>2018-11-15T10:56:43Z</time>
      </trkpt>
      <trkpt lat="45.98283" lon="4.80066">
        <ele>229</ele>
        <time>2018-11-15T10:56:44Z</time>
      </trkpt>
      <trkpt lat="45.98282" lon="4.8006">
        <ele>229</ele>
        <time>2018-11-15T10:56:45Z</time>
      </trkpt>
      <trkpt lat="45.98278" lon="4.80055">
        <ele>229</ele>
        <time>2018-11-15T10:56:46Z</time>
      </trkpt>
      <trkpt lat="45.98276" lon="4.80047">
        <ele>229</ele>
        <time>2018-11-15T10:56:47Z</time>
      </trkpt>
      <trkpt lat="45.98273" lon="4.8004">
        <ele>229</ele>
        <time>2018-11-15T10:56:48Z</time>
      </trkpt>
      <trkpt lat="45.98271" lon="4.80034">
        <ele>229</ele>
        <time>2018-11-15T10:56:49Z</time>
      </trkpt>
      <trkpt lat="45.98268" lon="4.80027">
        <ele>228</ele>
        <time>2018-11-15T10:56:50Z</time>
      </trkpt>
      <trkpt lat="45.98266" lon="4.80022">
        <ele>228</ele>
        <time>2018-11-15T10:56:51Z</time>
      </trkpt>
      <trkpt lat="45.98263" lon="4.80016">
        <ele>228</ele>
        <time>2018-11-15T10:56:52Z</time>
      </trkpt>
      <trkpt lat="45.98261" lon="4.80009">
        <ele>228</ele>
        <time>2018-11-15T10:56:53Z</time>
      </trkpt>
      <trkpt lat="45.98258" lon="4.8">
        <ele>227</ele>
        <time>2018-11-15T10:56:54Z</time>
      </trkpt>
      <trkpt lat="45.98254" lon="4.79992">
        <ele>227</ele>
        <time>2018-11-15T10:56:55Z</time>
      </trkpt>
      <trkpt lat="45.98252" lon="4.79985">
        <ele>228</ele>
        <time>2018-11-15T10:56:56Z</time>
      </trkpt>
      <trkpt lat="45.98249" lon="4.79979">
        <ele>225</ele>
        <time>2018-11-15T10:56:57Z</time>
      </trkpt>
      <trkpt lat="45.98247" lon="4.79971">
        <ele>225</ele>
        <time>2018-11-15T10:56:58Z</time>
      </trkpt>
      <trkpt lat="45.98245" lon="4.79965">
        <ele>225</ele>
        <time>2018-11-15T10:56:59Z</time>
      </trkpt>
      <trkpt lat="45.98243" lon="4.79958">
        <ele>225</ele>
        <time>2018-11-15T10:57:00Z</time>
      </trkpt>
      <trkpt lat="45.9824" lon="4.79951">
        <ele>225</ele>
        <time>2018-11-15T10:57:01Z</time>
      </trkpt>
      <trkpt lat="45.98238" lon="4.79945">
        <ele>225</ele>
        <time>2018-11-15T10:57:02Z</time>
      </trkpt>
      <trkpt lat="45.98234" lon="4.7994">
        <ele>225</ele>
        <time>2018-11-15T10:57:03Z</time>
      </trkpt>
      <trkpt lat="45.98232" lon="4.79935">
        <ele>225</ele>
        <time>2018-11-15T10:57:04Z</time>
      </trkpt>
      <trkpt lat="45.9823" lon="4.79927">
        <ele>225</ele>
        <time>2018-11-15T10:57:05Z</time>
      </trkpt>
      <trkpt lat="45.98229" lon="4.7992">
        <ele>225</ele>
        <time>2018-11-15T10:57:06Z</time>
      </trkpt>
      <trkpt lat="45.98226" lon="4.79913">
        <ele>225</ele>
        <time>2018-11-15T10:57:07Z</time>
      </trkpt>
      <trkpt lat="45.98225" lon="4.79905">
        <ele>225</ele>
        <time>2018-11-15T10:57:08Z</time>
      </trkpt>
      <trkpt lat="45.98223" lon="4.79899">
        <ele>225</ele>
        <time>2018-11-15T10:57:09Z</time>
      </trkpt>
      <trkpt lat="45.9822" lon="4.79894">
        <ele>225</ele>
        <time>2018-11-15T10:57:11Z</time>
      </trkpt>
      <trkpt lat="45.98217" lon="4.79885">
        <ele>225</ele>
        <time>2018-11-15T10:57:12Z</time>
      </trkpt>
      <trkpt lat="45.98215" lon="4.79878">
        <ele>225</ele>
        <time>2018-11-15T10:57:13Z</time>
      </trkpt>
      <trkpt lat="45.98213" lon="4.79871">
        <ele>225</ele>
        <time>2018-11-15T10:57:14Z</time>
      </trkpt>
      <trkpt lat="45.98209" lon="4.79862">
        <ele>225</ele>
        <time>2018-11-15T10:57:15Z</time>
      </trkpt>
      <trkpt lat="45.98207" lon="4.79856">
        <ele>225</ele>
        <time>2018-11-15T10:57:16Z</time>
      </trkpt>
      <trkpt lat="45.98202" lon="4.79844">
        <ele>225</ele>
        <time>2018-11-15T10:57:18Z</time>
      </trkpt>
      <trkpt lat="45.982" lon="4.79838">
        <ele>225</ele>
        <time>2018-11-15T10:57:19Z</time>
      </trkpt>
      <trkpt lat="45.98197" lon="4.79831">
        <ele>225</ele>
        <time>2018-11-15T10:57:20Z</time>
      </trkpt>
      <trkpt lat="45.98195" lon="4.79824">
        <ele>225</ele>
        <time>2018-11-15T10:57:21Z</time>
      </trkpt>
      <trkpt lat="45.9819" lon="4.79815">
        <ele>225</ele>
        <time>2018-11-15T10:57:23Z</time>
      </trkpt>
      <trkpt lat="45.98187" lon="4.79808">
        <ele>225</ele>
        <time>2018-11-15T10:57:24Z</time>
      </trkpt>
      <trkpt lat="45.98186" lon="4.79796">
        <ele>226</ele>
        <time>2018-11-15T10:57:27Z</time>
      </trkpt>
      <trkpt lat="45.98185" lon="4.79792">
        <ele>226</ele>
        <time>2018-11-15T10:57:28Z</time>
      </trkpt>
      <trkpt lat="45.98185" lon="4.79784">
        <ele>226</ele>
        <time>2018-11-15T10:57:30Z</time>
      </trkpt>
      <trkpt lat="45.98185" lon="4.79779">
        <ele>226</ele>
        <time>2018-11-15T10:57:31Z</time>
      </trkpt>
      <trkpt lat="45.98187" lon="4.79767">
        <ele>226</ele>
        <time>2018-11-15T10:57:34Z</time>
      </trkpt>
      <trkpt lat="45.98189" lon="4.79762">
        <ele>226</ele>
        <time>2018-11-15T10:57:35Z</time>
      </trkpt>
      <trkpt lat="45.98194" lon="4.79755">
        <ele>226</ele>
        <time>2018-11-15T10:57:37Z</time>
      </trkpt>
      <trkpt lat="45.98197" lon="4.79753">
        <ele>226</ele>
        <time>2018-11-15T10:57:38Z</time>
      </trkpt>
      <trkpt lat="45.98203" lon="4.79751">
        <ele>226</ele>
        <time>2018-11-15T10:57:40Z</time>
      </trkpt>
      <trkpt lat="45.98207" lon="4.7975">
        <ele>226</ele>
        <time>2018-11-15T10:57:41Z</time>
      </trkpt>
      <trkpt lat="45.98213" lon="4.79749">
        <ele>228</ele>
        <time>2018-11-15T10:57:43Z</time>
      </trkpt>
      <trkpt lat="45.98216" lon="4.79749">
        <ele>228</ele>
        <time>2018-11-15T10:57:44Z</time>
      </trkpt>
      <trkpt lat="45.98223" lon="4.79749">
        <ele>228</ele>
        <time>2018-11-15T10:57:46Z</time>
      </trkpt>
      <trkpt lat="45.98228" lon="4.79749">
        <ele>228</ele>
        <time>2018-11-15T10:57:47Z</time>
      </trkpt>
      <trkpt lat="45.98235" lon="4.79748">
        <ele>228</ele>
        <time>2018-11-15T10:57:49Z</time>
      </trkpt>
      <trkpt lat="45.98238" lon="4.79747">
        <ele>228</ele>
        <time>2018-11-15T10:57:50Z</time>
      </trkpt>
      <trkpt lat="45.98245" lon="4.79746">
        <ele>228</ele>
        <time>2018-11-15T10:57:52Z</time>
      </trkpt>
      <trkpt lat="45.98248" lon="4.79745">
        <ele>228</ele>
        <time>2018-11-15T10:57:53Z</time>
      </trkpt>
      <trkpt lat="45.98254" lon="4.79744">
        <ele>230</ele>
        <time>2018-11-15T10:57:55Z</time>
      </trkpt>
      <trkpt lat="45.98258" lon="4.79744">
        <ele>230</ele>
        <time>2018-11-15T10:57:56Z</time>
      </trkpt>
      <trkpt lat="45.98265" lon="4.79743">
        <ele>231</ele>
        <time>2018-11-15T10:57:58Z</time>
      </trkpt>
      <trkpt lat="45.98269" lon="4.79743">
        <ele>232</ele>
        <time>2018-11-15T10:57:59Z</time>
      </trkpt>
      <trkpt lat="45.98276" lon="4.79741">
        <ele>233</ele>
        <time>2018-11-15T10:58:01Z</time>
      </trkpt>
      <trkpt lat="45.9828" lon="4.7974">
        <ele>233</ele>
        <time>2018-11-15T10:58:02Z</time>
      </trkpt>
      <trkpt lat="45.98288" lon="4.79739">
        <ele>234</ele>
        <time>2018-11-15T10:58:04Z</time>
      </trkpt>
      <trkpt lat="45.98291" lon="4.79738">
        <ele>234</ele>
        <time>2018-11-15T10:58:05Z</time>
      </trkpt>
      <trkpt lat="45.98297" lon="4.79737">
        <ele>235</ele>
        <time>2018-11-15T10:58:06Z</time>
      </trkpt>
      <trkpt lat="45.983" lon="4.79737">
        <ele>235</ele>
        <time>2018-11-15T10:58:07Z</time>
      </trkpt>
      <trkpt lat="45.98305" lon="4.79736">
        <ele>235</ele>
        <time>2018-11-15T10:58:09Z</time>
      </trkpt>
      <trkpt lat="45.98311" lon="4.79735">
        <ele>236</ele>
        <time>2018-11-15T10:58:10Z</time>
      </trkpt>
      <trkpt lat="45.9832" lon="4.79735">
        <ele>236</ele>
        <time>2018-11-15T10:58:13Z</time>
      </trkpt>
      <trkpt lat="45.98323" lon="4.79734">
        <ele>236</ele>
        <time>2018-11-15T10:58:14Z</time>
      </trkpt>
      <trkpt lat="45.98326" lon="4.79734">
        <ele>236</ele>
        <time>2018-11-15T10:58:15Z</time>
      </trkpt>
      <trkpt lat="45.98333" lon="4.79733">
        <ele>236</ele>
        <time>2018-11-15T10:58:16Z</time>
      </trkpt>
      <trkpt lat="45.98341" lon="4.79732">
        <ele>239</ele>
        <time>2018-11-15T10:58:19Z</time>
      </trkpt>
      <trkpt lat="45.98344" lon="4.79732">
        <ele>239</ele>
        <time>2018-11-15T10:58:20Z</time>
      </trkpt>
      <trkpt lat="45.9835" lon="4.79731">
        <ele>240</ele>
        <time>2018-11-15T10:58:22Z</time>
      </trkpt>
      <trkpt lat="45.98354" lon="4.79731">
        <ele>240</ele>
        <time>2018-11-15T10:58:23Z</time>
      </trkpt>
      <trkpt lat="45.98361" lon="4.79729">
        <ele>240</ele>
        <time>2018-11-15T10:58:25Z</time>
      </trkpt>
      <trkpt lat="45.98364" lon="4.79729">
        <ele>240</ele>
        <time>2018-11-15T10:58:26Z</time>
      </trkpt>
      <trkpt lat="45.98371" lon="4.79728">
        <ele>240</ele>
        <time>2018-11-15T10:58:28Z</time>
      </trkpt>
      <trkpt lat="45.98374" lon="4.79728">
        <ele>241</ele>
        <time>2018-11-15T10:58:29Z</time>
      </trkpt>
      <trkpt lat="45.98381" lon="4.79727">
        <ele>241</ele>
        <time>2018-11-15T10:58:31Z</time>
      </trkpt>
      <trkpt lat="45.98384" lon="4.79726">
        <ele>241</ele>
        <time>2018-11-15T10:58:32Z</time>
      </trkpt>
      <trkpt lat="45.98391" lon="4.79726">
        <ele>241</ele>
        <time>2018-11-15T10:58:34Z</time>
      </trkpt>
      <trkpt lat="45.98395" lon="4.79726">
        <ele>241</ele>
        <time>2018-11-15T10:58:35Z</time>
      </trkpt>
      <trkpt lat="45.98402" lon="4.79725">
        <ele>241</ele>
        <time>2018-11-15T10:58:36Z</time>
      </trkpt>
      <trkpt lat="45.98405" lon="4.79725">
        <ele>241</ele>
        <time>2018-11-15T10:58:37Z</time>
      </trkpt>
      <trkpt lat="45.98413" lon="4.79724">
        <ele>241</ele>
        <time>2018-11-15T10:58:39Z</time>
      </trkpt>
      <trkpt lat="45.98415" lon="4.79724">
        <ele>241</ele>
        <time>2018-11-15T10:58:40Z</time>
      </trkpt>
      <trkpt lat="45.98424" lon="4.79724">
        <ele>242</ele>
        <time>2018-11-15T10:58:42Z</time>
      </trkpt>
      <trkpt lat="45.98428" lon="4.79723">
        <ele>242</ele>
        <time>2018-11-15T10:58:43Z</time>
      </trkpt>
      <trkpt lat="45.98434" lon="4.79723">
        <ele>242</ele>
        <time>2018-11-15T10:58:45Z</time>
      </trkpt>
      <trkpt lat="45.98439" lon="4.79723">
        <ele>242</ele>
        <time>2018-11-15T10:58:46Z</time>
      </trkpt>
      <trkpt lat="45.98446" lon="4.79723">
        <ele>242</ele>
        <time>2018-11-15T10:58:48Z</time>
      </trkpt>
      <trkpt lat="45.9845" lon="4.79723">
        <ele>243</ele>
        <time>2018-11-15T10:58:49Z</time>
      </trkpt>
      <trkpt lat="45.98457" lon="4.79723">
        <ele>243</ele>
        <time>2018-11-15T10:58:51Z</time>
      </trkpt>
      <trkpt lat="45.98461" lon="4.79723">
        <ele>243</ele>
        <time>2018-11-15T10:58:52Z</time>
      </trkpt>
      <trkpt lat="45.98468" lon="4.79722">
        <ele>243</ele>
        <time>2018-11-15T10:58:54Z</time>
      </trkpt>
      <trkpt lat="45.98472" lon="4.79722">
        <ele>243</ele>
        <time>2018-11-15T10:58:55Z</time>
      </trkpt>
      <trkpt lat="45.98478" lon="4.79722">
        <ele>243</ele>
        <time>2018-11-15T10:58:57Z</time>
      </trkpt>
      <trkpt lat="45.98483" lon="4.79722">
        <ele>243</ele>
        <time>2018-11-15T10:58:58Z</time>
      </trkpt>
      <trkpt lat="45.9849" lon="4.79723">
        <ele>243</ele>
        <time>2018-11-15T10:59:00Z</time>
      </trkpt>
      <trkpt lat="45.98493" lon="4.79724">
        <ele>243</ele>
        <time>2018-11-15T10:59:01Z</time>
      </trkpt>
      <trkpt lat="45.985" lon="4.79724">
        <ele>244</ele>
        <time>2018-11-15T10:59:03Z</time>
      </trkpt>
      <trkpt lat="45.98504" lon="4.79724">
        <ele>244</ele>
        <time>2018-11-15T10:59:04Z</time>
      </trkpt>
      <trkpt lat="45.98511" lon="4.79724">
        <ele>244</ele>
        <time>2018-11-15T10:59:06Z</time>
      </trkpt>
      <trkpt lat="45.98515" lon="4.79724">
        <ele>244</ele>
        <time>2018-11-15T10:59:07Z</time>
      </trkpt>
      <trkpt lat="45.98523" lon="4.79722">
        <ele>244</ele>
        <time>2018-11-15T10:59:09Z</time>
      </trkpt>
      <trkpt lat="45.98526" lon="4.79721">
        <ele>244</ele>
        <time>2018-11-15T10:59:10Z</time>
      </trkpt>
      <trkpt lat="45.98533" lon="4.79717">
        <ele>244</ele>
        <time>2018-11-15T10:59:12Z</time>
      </trkpt>
      <trkpt lat="45.98537" lon="4.79715">
        <ele>244</ele>
        <time>2018-11-15T10:59:13Z</time>
      </trkpt>
      <trkpt lat="45.98545" lon="4.79711">
        <ele>244</ele>
        <time>2018-11-15T10:59:15Z</time>
      </trkpt>
      <trkpt lat="45.98548" lon="4.79708">
        <ele>244</ele>
        <time>2018-11-15T10:59:16Z</time>
      </trkpt>
      <trkpt lat="45.98555" lon="4.79701">
        <ele>244</ele>
        <time>2018-11-15T10:59:18Z</time>
      </trkpt>
      <trkpt lat="45.98557" lon="4.79699">
        <ele>244</ele>
        <time>2018-11-15T10:59:19Z</time>
      </trkpt>
      <trkpt lat="45.98563" lon="4.79693">
        <ele>244</ele>
        <time>2018-11-15T10:59:21Z</time>
      </trkpt>
      <trkpt lat="45.98565" lon="4.7969">
        <ele>244</ele>
        <time>2018-11-15T10:59:22Z</time>
      </trkpt>
      <trkpt lat="45.9857" lon="4.79685">
        <ele>244</ele>
        <time>2018-11-15T10:59:23Z</time>
      </trkpt>
      <trkpt lat="45.98573" lon="4.79681">
        <ele>244</ele>
        <time>2018-11-15T10:59:24Z</time>
      </trkpt>
      <trkpt lat="45.98577" lon="4.79674">
        <ele>245</ele>
        <time>2018-11-15T10:59:26Z</time>
      </trkpt>
      <trkpt lat="45.9858" lon="4.79669">
        <ele>245</ele>
        <time>2018-11-15T10:59:27Z</time>
      </trkpt>
      <trkpt lat="45.98585" lon="4.79659">
        <ele>245</ele>
        <time>2018-11-15T10:59:29Z</time>
      </trkpt>
      <trkpt lat="45.98586" lon="4.79655">
        <ele>245</ele>
        <time>2018-11-15T10:59:30Z</time>
      </trkpt>
      <trkpt lat="45.98591" lon="4.79646">
        <ele>245</ele>
        <time>2018-11-15T10:59:32Z</time>
      </trkpt>
      <trkpt lat="45.98593" lon="4.79641">
        <ele>245</ele>
        <time>2018-11-15T10:59:33Z</time>
      </trkpt>
      <trkpt lat="45.98598" lon="4.79633">
        <ele>245</ele>
        <time>2018-11-15T10:59:35Z</time>
      </trkpt>
      <trkpt lat="45.98602" lon="4.7963">
        <ele>245</ele>
        <time>2018-11-15T10:59:36Z</time>
      </trkpt>
      <trkpt lat="45.9861" lon="4.79627">
        <ele>245</ele>
        <time>2018-11-15T10:59:38Z</time>
      </trkpt>
      <trkpt lat="45.98614" lon="4.79625">
        <ele>245</ele>
        <time>2018-11-15T10:59:39Z</time>
      </trkpt>
      <trkpt lat="45.98621" lon="4.7962">
        <ele>245</ele>
        <time>2018-11-15T10:59:41Z</time>
      </trkpt>
      <trkpt lat="45.98624" lon="4.79616">
        <ele>245</ele>
        <time>2018-11-15T10:59:42Z</time>
      </trkpt>
      <trkpt lat="45.98627" lon="4.79605">
        <ele>245</ele>
        <time>2018-11-15T10:59:44Z</time>
      </trkpt>
      <trkpt lat="45.98626" lon="4.796">
        <ele>245</ele>
        <time>2018-11-15T10:59:45Z</time>
      </trkpt>
      <trkpt lat="45.98624" lon="4.79593">
        <ele>245</ele>
        <time>2018-11-15T10:59:46Z</time>
      </trkpt>
      <trkpt lat="45.98622" lon="4.79587">
        <ele>245</ele>
        <time>2018-11-15T10:59:47Z</time>
      </trkpt>
      <trkpt lat="45.98618" lon="4.79583">
        <ele>245</ele>
        <time>2018-11-15T10:59:48Z</time>
      </trkpt>
      <trkpt lat="45.98614" lon="4.7958">
        <ele>245</ele>
        <time>2018-11-15T10:59:49Z</time>
      </trkpt>
      <trkpt lat="45.98609" lon="4.7958">
        <ele>245</ele>
        <time>2018-11-15T10:59:50Z</time>
      </trkpt>
      <trkpt lat="45.98604" lon="4.7958">
        <ele>245</ele>
        <time>2018-11-15T10:59:51Z</time>
      </trkpt>
      <trkpt lat="45.986" lon="4.79581">
        <ele>245</ele>
        <time>2018-11-15T10:59:52Z</time>
      </trkpt>
      <trkpt lat="45.98595" lon="4.79582">
        <ele>245</ele>
        <time>2018-11-15T10:59:53Z</time>
      </trkpt>
      <trkpt lat="45.98591" lon="4.79583">
        <ele>245</ele>
        <time>2018-11-15T10:59:54Z</time>
      </trkpt>
      <trkpt lat="45.98586" lon="4.79582">
        <ele>245</ele>
        <time>2018-11-15T10:59:55Z</time>
      </trkpt>
      <trkpt lat="45.98581" lon="4.79581">
        <ele>245</ele>
        <time>2018-11-15T10:59:56Z</time>
      </trkpt>
      <trkpt lat="45.98577" lon="4.7958">
        <ele>245</ele>
        <time>2018-11-15T10:59:57Z</time>
      </trkpt>
      <trkpt lat="45.98572" lon="4.79578">
        <ele>245</ele>
        <time>2018-11-15T10:59:58Z</time>
      </trkpt>
      <trkpt lat="45.98567" lon="4.79575">
        <ele>244</ele>
        <time>2018-11-15T10:59:59Z</time>
      </trkpt>
      <trkpt lat="45.98562" lon="4.79571">
        <ele>244</ele>
        <time>2018-11-15T11:00:00Z</time>
      </trkpt>
      <trkpt lat="45.98559" lon="4.79566">
        <ele>244</ele>
        <time>2018-11-15T11:00:01Z</time>
      </trkpt>
      <trkpt lat="45.98555" lon="4.79561">
        <ele>244</ele>
        <time>2018-11-15T11:00:02Z</time>
      </trkpt>
      <trkpt lat="45.98551" lon="4.79556">
        <ele>244</ele>
        <time>2018-11-15T11:00:03Z</time>
      </trkpt>
      <trkpt lat="45.98548" lon="4.7955">
        <ele>244</ele>
        <time>2018-11-15T11:00:04Z</time>
      </trkpt>
      <trkpt lat="45.98545" lon="4.79545">
        <ele>244</ele>
        <time>2018-11-15T11:00:05Z</time>
      </trkpt>
      <trkpt lat="45.98542" lon="4.7954">
        <ele>244</ele>
        <time>2018-11-15T11:00:06Z</time>
      </trkpt>
      <trkpt lat="45.98539" lon="4.79533">
        <ele>244</ele>
        <time>2018-11-15T11:00:07Z</time>
      </trkpt>
      <trkpt lat="45.98537" lon="4.79528">
        <ele>244</ele>
        <time>2018-11-15T11:00:08Z</time>
      </trkpt>
      <trkpt lat="45.98534" lon="4.79521">
        <ele>244</ele>
        <time>2018-11-15T11:00:09Z</time>
      </trkpt>
      <trkpt lat="45.98533" lon="4.79514">
        <ele>244</ele>
        <time>2018-11-15T11:00:10Z</time>
      </trkpt>
      <trkpt lat="45.98529" lon="4.79508">
        <ele>244</ele>
        <time>2018-11-15T11:00:11Z</time>
      </trkpt>
      <trkpt lat="45.98528" lon="4.795">
        <ele>244</ele>
        <time>2018-11-15T11:00:12Z</time>
      </trkpt>
      <trkpt lat="45.98526" lon="4.79492">
        <ele>244</ele>
        <time>2018-11-15T11:00:13Z</time>
      </trkpt>
      <trkpt lat="45.98526" lon="4.79482">
        <ele>244</ele>
        <time>2018-11-15T11:00:14Z</time>
      </trkpt>
      <trkpt lat="45.98527" lon="4.79473">
        <ele>244</ele>
        <time>2018-11-15T11:00:15Z</time>
      </trkpt>
      <trkpt lat="45.98525" lon="4.79465">
        <ele>244</ele>
        <time>2018-11-15T11:00:16Z</time>
      </trkpt>
      <trkpt lat="45.98525" lon="4.79457">
        <ele>244</ele>
        <time>2018-11-15T11:00:17Z</time>
      </trkpt>
      <trkpt lat="45.98526" lon="4.79449">
        <ele>244</ele>
        <time>2018-11-15T11:00:18Z</time>
      </trkpt>
      <trkpt lat="45.98526" lon="4.7944">
        <ele>244</ele>
        <time>2018-11-15T11:00:19Z</time>
      </trkpt>
      <trkpt lat="45.98525" lon="4.79431">
        <ele>244</ele>
        <time>2018-11-15T11:00:20Z</time>
      </trkpt>
      <trkpt lat="45.98525" lon="4.79423">
        <ele>244</ele>
        <time>2018-11-15T11:00:21Z</time>
      </trkpt>
      <trkpt lat="45.98524" lon="4.79416">
        <ele>244</ele>
        <time>2018-11-15T11:00:22Z</time>
      </trkpt>
      <trkpt lat="45.98524" lon="4.7941">
        <ele>244</ele>
        <time>2018-11-15T11:00:23Z</time>
      </trkpt>
      <trkpt lat="45.98522" lon="4.79403">
        <ele>244</ele>
        <time>2018-11-15T11:00:24Z</time>
      </trkpt>
      <trkpt lat="45.98521" lon="4.79395">
        <ele>244</ele>
        <time>2018-11-15T11:00:25Z</time>
      </trkpt>
      <trkpt lat="45.9852" lon="4.79386">
        <ele>244</ele>
        <time>2018-11-15T11:00:26Z</time>
      </trkpt>
      <trkpt lat="45.98517" lon="4.79378">
        <ele>244</ele>
        <time>2018-11-15T11:00:27Z</time>
      </trkpt>
      <trkpt lat="45.98516" lon="4.79371">
        <ele>243</ele>
        <time>2018-11-15T11:00:28Z</time>
      </trkpt>
      <trkpt lat="45.98514" lon="4.79362">
        <ele>243</ele>
        <time>2018-11-15T11:00:29Z</time>
      </trkpt>
      <trkpt lat="45.98512" lon="4.79355">
        <ele>243</ele>
        <time>2018-11-15T11:00:30Z</time>
      </trkpt>
      <trkpt lat="45.9851" lon="4.79348">
        <ele>243</ele>
        <time>2018-11-15T11:00:31Z</time>
      </trkpt>
      <trkpt lat="45.98509" lon="4.79341">
        <ele>243</ele>
        <time>2018-11-15T11:00:32Z</time>
      </trkpt>
      <trkpt lat="45.98508" lon="4.79334">
        <ele>243</ele>
        <time>2018-11-15T11:00:33Z</time>
      </trkpt>
      <trkpt lat="45.98506" lon="4.79327">
        <ele>243</ele>
        <time>2018-11-15T11:00:34Z</time>
      </trkpt>
      <trkpt lat="45.98505" lon="4.7932">
        <ele>243</ele>
        <time>2018-11-15T11:00:35Z</time>
      </trkpt>
      <trkpt lat="45.98503" lon="4.79312">
        <ele>243</ele>
        <time>2018-11-15T11:00:36Z</time>
      </trkpt>
      <trkpt lat="45.985" lon="4.79305">
        <ele>243</ele>
        <time>2018-11-15T11:00:37Z</time>
      </trkpt>
      <trkpt lat="45.98497" lon="4.79298">
        <ele>243</ele>
        <time>2018-11-15T11:00:38Z</time>
      </trkpt>
      <trkpt lat="45.98495" lon="4.79289">
        <ele>243</ele>
        <time>2018-11-15T11:00:39Z</time>
      </trkpt>
      <trkpt lat="45.98492" lon="4.79282">
        <ele>243</ele>
        <time>2018-11-15T11:00:40Z</time>
      </trkpt>
      <trkpt lat="45.98488" lon="4.79276">
        <ele>243</ele>
        <time>2018-11-15T11:00:41Z</time>
      </trkpt>
      <trkpt lat="45.98486" lon="4.7927">
        <ele>243</ele>
        <time>2018-11-15T11:00:42Z</time>
      </trkpt>
      <trkpt lat="45.98483" lon="4.79263">
        <ele>243</ele>
        <time>2018-11-15T11:00:43Z</time>
      </trkpt>
      <trkpt lat="45.9848" lon="4.79257">
        <ele>243</ele>
        <time>2018-11-15T11:00:44Z</time>
      </trkpt>
      <trkpt lat="45.98476" lon="4.7925">
        <ele>243</ele>
        <time>2018-11-15T11:00:45Z</time>
      </trkpt>
      <trkpt lat="45.98473" lon="4.79245">
        <ele>243</ele>
        <time>2018-11-15T11:00:46Z</time>
      </trkpt>
      <trkpt lat="45.98469" lon="4.79237">
        <ele>243</ele>
        <time>2018-11-15T11:00:47Z</time>
      </trkpt>
      <trkpt lat="45.98465" lon="4.7923">
        <ele>243</ele>
        <time>2018-11-15T11:00:48Z</time>
      </trkpt>
      <trkpt lat="45.98461" lon="4.79223">
        <ele>243</ele>
        <time>2018-11-15T11:00:49Z</time>
      </trkpt>
      <trkpt lat="45.98457" lon="4.79217">
        <ele>243</ele>
        <time>2018-11-15T11:00:50Z</time>
      </trkpt>
      <trkpt lat="45.98453" lon="4.79211">
        <ele>242</ele>
        <time>2018-11-15T11:00:51Z</time>
      </trkpt>
      <trkpt lat="45.9845" lon="4.79204">
        <ele>242</ele>
        <time>2018-11-15T11:00:52Z</time>
      </trkpt>
      <trkpt lat="45.98446" lon="4.79197">
        <ele>242</ele>
        <time>2018-11-15T11:00:53Z</time>
      </trkpt>
      <trkpt lat="45.98442" lon="4.7919">
        <ele>242</ele>
        <time>2018-11-15T11:00:54Z</time>
      </trkpt>
      <trkpt lat="45.98438" lon="4.79183">
        <ele>242</ele>
        <time>2018-11-15T11:00:55Z</time>
      </trkpt>
      <trkpt lat="45.98435" lon="4.79178">
        <ele>242</ele>
        <time>2018-11-15T11:00:56Z</time>
      </trkpt>
      <trkpt lat="45.98432" lon="4.79171">
        <ele>242</ele>
        <time>2018-11-15T11:00:57Z</time>
      </trkpt>
      <trkpt lat="45.98429" lon="4.79166">
        <ele>242</ele>
        <time>2018-11-15T11:00:58Z</time>
      </trkpt>
      <trkpt lat="45.98426" lon="4.7916">
        <ele>242</ele>
        <time>2018-11-15T11:00:59Z</time>
      </trkpt>
      <trkpt lat="45.98422" lon="4.79154">
        <ele>242</ele>
        <time>2018-11-15T11:01:00Z</time>
      </trkpt>
      <trkpt lat="45.98419" lon="4.79147">
        <ele>242</ele>
        <time>2018-11-15T11:01:01Z</time>
      </trkpt>
      <trkpt lat="45.98415" lon="4.79141">
        <ele>242</ele>
        <time>2018-11-15T11:01:02Z</time>
      </trkpt>
      <trkpt lat="45.98411" lon="4.79134">
        <ele>242</ele>
        <time>2018-11-15T11:01:03Z</time>
      </trkpt>
      <trkpt lat="45.98409" lon="4.79127">
        <ele>242</ele>
        <time>2018-11-15T11:01:04Z</time>
      </trkpt>
      <trkpt lat="45.98405" lon="4.79121">
        <ele>242</ele>
        <time>2018-11-15T11:01:05Z</time>
      </trkpt>
      <trkpt lat="45.98402" lon="4.79115">
        <ele>242</ele>
        <time>2018-11-15T11:01:06Z</time>
      </trkpt>
      <trkpt lat="45.98399" lon="4.79107">
        <ele>242</ele>
        <time>2018-11-15T11:01:07Z</time>
      </trkpt>
      <trkpt lat="45.98396" lon="4.79101">
        <ele>242</ele>
        <time>2018-11-15T11:01:08Z</time>
      </trkpt>
      <trkpt lat="45.98391" lon="4.79095">
        <ele>242</ele>
        <time>2018-11-15T11:01:09Z</time>
      </trkpt>
      <trkpt lat="45.98388" lon="4.7909">
        <ele>242</ele>
        <time>2018-11-15T11:01:10Z</time>
      </trkpt>
      <trkpt lat="45.98385" lon="4.79084">
        <ele>242</ele>
        <time>2018-11-15T11:01:11Z</time>
      </trkpt>
      <trkpt lat="45.98382" lon="4.79079">
        <ele>242</ele>
        <time>2018-11-15T11:01:12Z</time>
      </trkpt>
      <trkpt lat="45.98378" lon="4.79074">
        <ele>242</ele>
        <time>2018-11-15T11:01:13Z</time>
      </trkpt>
      <trkpt lat="45.98373" lon="4.79064">
        <ele>242</ele>
        <time>2018-11-15T11:01:15Z</time>
      </trkpt>
      <trkpt lat="45.9837" lon="4.79058">
        <ele>242</ele>
        <time>2018-11-15T11:01:16Z</time>
      </trkpt>
      <trkpt lat="45.98366" lon="4.79052">
        <ele>242</ele>
        <time>2018-11-15T11:01:17Z</time>
      </trkpt>
      <trkpt lat="45.98363" lon="4.79047">
        <ele>242</ele>
        <time>2018-11-15T11:01:18Z</time>
      </trkpt>
      <trkpt lat="45.98359" lon="4.7904">
        <ele>242</ele>
        <time>2018-11-15T11:01:19Z</time>
      </trkpt>
      <trkpt lat="45.98354" lon="4.79035">
        <ele>242</ele>
        <time>2018-11-15T11:01:20Z</time>
      </trkpt>
      <trkpt lat="45.9835" lon="4.79028">
        <ele>242</ele>
        <time>2018-11-15T11:01:21Z</time>
      </trkpt>
      <trkpt lat="45.98345" lon="4.79022">
        <ele>242</ele>
        <time>2018-11-15T11:01:22Z</time>
      </trkpt>
      <trkpt lat="45.98341" lon="4.79018">
        <ele>242</ele>
        <time>2018-11-15T11:01:23Z</time>
      </trkpt>
      <trkpt lat="45.98336" lon="4.79014">
        <ele>242</ele>
        <time>2018-11-15T11:01:24Z</time>
      </trkpt>
      <trkpt lat="45.98332" lon="4.7901">
        <ele>242</ele>
        <time>2018-11-15T11:01:25Z</time>
      </trkpt>
      <trkpt lat="45.98325" lon="4.79006">
        <ele>242</ele>
        <time>2018-11-15T11:01:26Z</time>
      </trkpt>
      <trkpt lat="45.9832" lon="4.79002">
        <ele>242</ele>
        <time>2018-11-15T11:01:27Z</time>
      </trkpt>
      <trkpt lat="45.98314" lon="4.79001">
        <ele>242</ele>
        <time>2018-11-15T11:01:28Z</time>
      </trkpt>
      <trkpt lat="45.98309" lon="4.78998">
        <ele>241</ele>
        <time>2018-11-15T11:01:29Z</time>
      </trkpt>
      <trkpt lat="45.98303" lon="4.78995">
        <ele>241</ele>
        <time>2018-11-15T11:01:30Z</time>
      </trkpt>
      <trkpt lat="45.98299" lon="4.78991">
        <ele>241</ele>
        <time>2018-11-15T11:01:31Z</time>
      </trkpt>
      <trkpt lat="45.98295" lon="4.78988">
        <ele>241</ele>
        <time>2018-11-15T11:01:32Z</time>
      </trkpt>
      <trkpt lat="45.9829" lon="4.78985">
        <ele>241</ele>
        <time>2018-11-15T11:01:33Z</time>
      </trkpt>
      <trkpt lat="45.98285" lon="4.78981">
        <ele>241</ele>
        <time>2018-11-15T11:01:34Z</time>
      </trkpt>
      <trkpt lat="45.98278" lon="4.78979">
        <ele>241</ele>
        <time>2018-11-15T11:01:35Z</time>
      </trkpt>
      <trkpt lat="45.98272" lon="4.78975">
        <ele>241</ele>
        <time>2018-11-15T11:01:36Z</time>
      </trkpt>
      <trkpt lat="45.98266" lon="4.78971">
        <ele>241</ele>
        <time>2018-11-15T11:01:37Z</time>
      </trkpt>
      <trkpt lat="45.98262" lon="4.78967">
        <ele>241</ele>
        <time>2018-11-15T11:01:38Z</time>
      </trkpt>
      <trkpt lat="45.98255" lon="4.7896">
        <ele>241</ele>
        <time>2018-11-15T11:01:40Z</time>
      </trkpt>
      <trkpt lat="45.9825" lon="4.78957">
        <ele>241</ele>
        <time>2018-11-15T11:01:41Z</time>
      </trkpt>
      <trkpt lat="45.98245" lon="4.78955">
        <ele>241</ele>
        <time>2018-11-15T11:01:42Z</time>
      </trkpt>
      <trkpt lat="45.98239" lon="4.78954">
        <ele>241</ele>
        <time>2018-11-15T11:01:43Z</time>
      </trkpt>
      <trkpt lat="45.98231" lon="4.78952">
        <ele>241</ele>
        <time>2018-11-15T11:01:44Z</time>
      </trkpt>
      <trkpt lat="45.98226" lon="4.78951">
        <ele>241</ele>
        <time>2018-11-15T11:01:45Z</time>
      </trkpt>
      <trkpt lat="45.9822" lon="4.78949">
        <ele>241</ele>
        <time>2018-11-15T11:01:46Z</time>
      </trkpt>
      <trkpt lat="45.98215" lon="4.78947">
        <ele>241</ele>
        <time>2018-11-15T11:01:47Z</time>
      </trkpt>
      <trkpt lat="45.98209" lon="4.78944">
        <ele>241</ele>
        <time>2018-11-15T11:01:48Z</time>
      </trkpt>
      <trkpt lat="45.98204" lon="4.78941">
        <ele>241</ele>
        <time>2018-11-15T11:01:49Z</time>
      </trkpt>
      <trkpt lat="45.98197" lon="4.78939">
        <ele>241</ele>
        <time>2018-11-15T11:01:50Z</time>
      </trkpt>
      <trkpt lat="45.98191" lon="4.78935">
        <ele>241</ele>
        <time>2018-11-15T11:01:51Z</time>
      </trkpt>
      <trkpt lat="45.98186" lon="4.78931">
        <ele>241</ele>
        <time>2018-11-15T11:01:52Z</time>
      </trkpt>
      <trkpt lat="45.98179" lon="4.78927">
        <ele>240</ele>
        <time>2018-11-15T11:01:53Z</time>
      </trkpt>
      <trkpt lat="45.98173" lon="4.78923">
        <ele>240</ele>
        <time>2018-11-15T11:01:54Z</time>
      </trkpt>
      <trkpt lat="45.98169" lon="4.7892">
        <ele>240</ele>
        <time>2018-11-15T11:01:55Z</time>
      </trkpt>
      <trkpt lat="45.98164" lon="4.78917">
        <ele>240</ele>
        <time>2018-11-15T11:01:56Z</time>
      </trkpt>
      <trkpt lat="45.98159" lon="4.78916">
        <ele>240</ele>
        <time>2018-11-15T11:01:57Z</time>
      </trkpt>
      <trkpt lat="45.98151" lon="4.78912">
        <ele>240</ele>
        <time>2018-11-15T11:01:58Z</time>
      </trkpt>
      <trkpt lat="45.98145" lon="4.78908">
        <ele>240</ele>
        <time>2018-11-15T11:01:59Z</time>
      </trkpt>
      <trkpt lat="45.9814" lon="4.78906">
        <ele>240</ele>
        <time>2018-11-15T11:02:00Z</time>
      </trkpt>
      <trkpt lat="45.98136" lon="4.78905">
        <ele>240</ele>
        <time>2018-11-15T11:02:01Z</time>
      </trkpt>
      <trkpt lat="45.98129" lon="4.78902">
        <ele>240</ele>
        <time>2018-11-15T11:02:02Z</time>
      </trkpt>
      <trkpt lat="45.98126" lon="4.78898">
        <ele>240</ele>
        <time>2018-11-15T11:02:03Z</time>
      </trkpt>
      <trkpt lat="45.98121" lon="4.78896">
        <ele>240</ele>
        <time>2018-11-15T11:02:04Z</time>
      </trkpt>
      <trkpt lat="45.98117" lon="4.78893">
        <ele>240</ele>
        <time>2018-11-15T11:02:05Z</time>
      </trkpt>
      <trkpt lat="45.98111" lon="4.7889">
        <ele>240</ele>
        <time>2018-11-15T11:02:06Z</time>
      </trkpt>
      <trkpt lat="45.98108" lon="4.78887">
        <ele>240</ele>
        <time>2018-11-15T11:02:07Z</time>
      </trkpt>
      <trkpt lat="45.98102" lon="4.7888">
        <ele>240</ele>
        <time>2018-11-15T11:02:09Z</time>
      </trkpt>
      <trkpt lat="45.98098" lon="4.78876">
        <ele>240</ele>
        <time>2018-11-15T11:02:10Z</time>
      </trkpt>
      <trkpt lat="45.98094" lon="4.78872">
        <ele>239</ele>
        <time>2018-11-15T11:02:11Z</time>
      </trkpt>
      <trkpt lat="45.98089" lon="4.78868">
        <ele>239</ele>
        <time>2018-11-15T11:02:12Z</time>
      </trkpt>
      <trkpt lat="45.98084" lon="4.78864">
        <ele>239</ele>
        <time>2018-11-15T11:02:13Z</time>
      </trkpt>
      <trkpt lat="45.98078" lon="4.7886">
        <ele>239</ele>
        <time>2018-11-15T11:02:14Z</time>
      </trkpt>
      <trkpt lat="45.98073" lon="4.78857">
        <ele>239</ele>
        <time>2018-11-15T11:02:15Z</time>
      </trkpt>
      <trkpt lat="45.98067" lon="4.78853">
        <ele>239</ele>
        <time>2018-11-15T11:02:16Z</time>
      </trkpt>
      <trkpt lat="45.98062" lon="4.78848">
        <ele>239</ele>
        <time>2018-11-15T11:02:17Z</time>
      </trkpt>
      <trkpt lat="45.98057" lon="4.78844">
        <ele>239</ele>
        <time>2018-11-15T11:02:18Z</time>
      </trkpt>
      <trkpt lat="45.98052" lon="4.78842">
        <ele>239</ele>
        <time>2018-11-15T11:02:19Z</time>
      </trkpt>
      <trkpt lat="45.98047" lon="4.78839">
        <ele>238</ele>
        <time>2018-11-15T11:02:20Z</time>
      </trkpt>
      <trkpt lat="45.98043" lon="4.78836">
        <ele>238</ele>
        <time>2018-11-15T11:02:21Z</time>
      </trkpt>
      <trkpt lat="45.98038" lon="4.78832">
        <ele>238</ele>
        <time>2018-11-15T11:02:22Z</time>
      </trkpt>
      <trkpt lat="45.98034" lon="4.78829">
        <ele>238</ele>
        <time>2018-11-15T11:02:23Z</time>
      </trkpt>
      <trkpt lat="45.98029" lon="4.78826">
        <ele>238</ele>
        <time>2018-11-15T11:02:24Z</time>
      </trkpt>
      <trkpt lat="45.98025" lon="4.78823">
        <ele>238</ele>
        <time>2018-11-15T11:02:25Z</time>
      </trkpt>
      <trkpt lat="45.9802" lon="4.7882">
        <ele>238</ele>
        <time>2018-11-15T11:02:26Z</time>
      </trkpt>
      <trkpt lat="45.98016" lon="4.78817">
        <ele>238</ele>
        <time>2018-11-15T11:02:27Z</time>
      </trkpt>
      <trkpt lat="45.98011" lon="4.78813">
        <ele>238</ele>
        <time>2018-11-15T11:02:28Z</time>
      </trkpt>
      <trkpt lat="45.98006" lon="4.7881">
        <ele>238</ele>
        <time>2018-11-15T11:02:29Z</time>
      </trkpt>
      <trkpt lat="45.98" lon="4.78808">
        <ele>238</ele>
        <time>2018-11-15T11:02:30Z</time>
      </trkpt>
      <trkpt lat="45.97996" lon="4.78804">
        <ele>238</ele>
        <time>2018-11-15T11:02:31Z</time>
      </trkpt>
      <trkpt lat="45.9799" lon="4.788">
        <ele>238</ele>
        <time>2018-11-15T11:02:32Z</time>
      </trkpt>
      <trkpt lat="45.97982" lon="4.78794">
        <ele>238</ele>
        <time>2018-11-15T11:02:34Z</time>
      </trkpt>
      <trkpt lat="45.97976" lon="4.7879">
        <ele>238</ele>
        <time>2018-11-15T11:02:35Z</time>
      </trkpt>
      <trkpt lat="45.97971" lon="4.78787">
        <ele>238</ele>
        <time>2018-11-15T11:02:36Z</time>
      </trkpt>
      <trkpt lat="45.97966" lon="4.78782">
        <ele>238</ele>
        <time>2018-11-15T11:02:37Z</time>
      </trkpt>
      <trkpt lat="45.97961" lon="4.78778">
        <ele>238</ele>
        <time>2018-11-15T11:02:38Z</time>
      </trkpt>
      <trkpt lat="45.97957" lon="4.78774">
        <ele>238</ele>
        <time>2018-11-15T11:02:39Z</time>
      </trkpt>
      <trkpt lat="45.97952" lon="4.7877">
        <ele>238</ele>
        <time>2018-11-15T11:02:40Z</time>
      </trkpt>
      <trkpt lat="45.97945" lon="4.78766">
        <ele>238</ele>
        <time>2018-11-15T11:02:41Z</time>
      </trkpt>
      <trkpt lat="45.97939" lon="4.78763">
        <ele>238</ele>
        <time>2018-11-15T11:02:42Z</time>
      </trkpt>
      <trkpt lat="45.97934" lon="4.7876">
        <ele>238</ele>
        <time>2018-11-15T11:02:43Z</time>
      </trkpt>
      <trkpt lat="45.97929" lon="4.78756">
        <ele>237</ele>
        <time>2018-11-15T11:02:44Z</time>
      </trkpt>
      <trkpt lat="45.97925" lon="4.78753">
        <ele>237</ele>
        <time>2018-11-15T11:02:45Z</time>
      </trkpt>
      <trkpt lat="45.97919" lon="4.78751">
        <ele>237</ele>
        <time>2018-11-15T11:02:46Z</time>
      </trkpt>
      <trkpt lat="45.97914" lon="4.78747">
        <ele>237</ele>
        <time>2018-11-15T11:02:47Z</time>
      </trkpt>
      <trkpt lat="45.97909" lon="4.78744">
        <ele>237</ele>
        <time>2018-11-15T11:02:48Z</time>
      </trkpt>
      <trkpt lat="45.97905" lon="4.7874">
        <ele>237</ele>
        <time>2018-11-15T11:02:49Z</time>
      </trkpt>
      <trkpt lat="45.979" lon="4.78735">
        <ele>237</ele>
        <time>2018-11-15T11:02:50Z</time>
      </trkpt>
      <trkpt lat="45.97894" lon="4.78732">
        <ele>236</ele>
        <time>2018-11-15T11:02:51Z</time>
      </trkpt>
      <trkpt lat="45.97889" lon="4.78728">
        <ele>236</ele>
        <time>2018-11-15T11:02:52Z</time>
      </trkpt>
      <trkpt lat="45.97885" lon="4.78725">
        <ele>236</ele>
        <time>2018-11-15T11:02:53Z</time>
      </trkpt>
      <trkpt lat="45.97878" lon="4.78721">
        <ele>236</ele>
        <time>2018-11-15T11:02:54Z</time>
      </trkpt>
      <trkpt lat="45.97873" lon="4.78716">
        <ele>236</ele>
        <time>2018-11-15T11:02:55Z</time>
      </trkpt>
      <trkpt lat="45.97868" lon="4.78712">
        <ele>236</ele>
        <time>2018-11-15T11:02:56Z</time>
      </trkpt>
      <trkpt lat="45.97863" lon="4.78708">
        <ele>236</ele>
        <time>2018-11-15T11:02:57Z</time>
      </trkpt>
      <trkpt lat="45.97858" lon="4.78704">
        <ele>236</ele>
        <time>2018-11-15T11:02:58Z</time>
      </trkpt>
      <trkpt lat="45.97854" lon="4.78702">
        <ele>236</ele>
        <time>2018-11-15T11:02:59Z</time>
      </trkpt>
      <trkpt lat="45.97849" lon="4.78698">
        <ele>236</ele>
        <time>2018-11-15T11:03:00Z</time>
      </trkpt>
      <trkpt lat="45.97844" lon="4.78695">
        <ele>236</ele>
        <time>2018-11-15T11:03:01Z</time>
      </trkpt>
      <trkpt lat="45.97839" lon="4.78693">
        <ele>236</ele>
        <time>2018-11-15T11:03:02Z</time>
      </trkpt>
      <trkpt lat="45.97835" lon="4.7869">
        <ele>236</ele>
        <time>2018-11-15T11:03:03Z</time>
      </trkpt>
      <trkpt lat="45.97829" lon="4.78687">
        <ele>235</ele>
        <time>2018-11-15T11:03:04Z</time>
      </trkpt>
      <trkpt lat="45.97824" lon="4.78685">
        <ele>235</ele>
        <time>2018-11-15T11:03:05Z</time>
      </trkpt>
      <trkpt lat="45.97819" lon="4.78683">
        <ele>235</ele>
        <time>2018-11-15T11:03:06Z</time>
      </trkpt>
      <trkpt lat="45.97813" lon="4.7868">
        <ele>235</ele>
        <time>2018-11-15T11:03:07Z</time>
      </trkpt>
      <trkpt lat="45.97809" lon="4.78677">
        <ele>235</ele>
        <time>2018-11-15T11:03:08Z</time>
      </trkpt>
      <trkpt lat="45.97803" lon="4.78673">
        <ele>235</ele>
        <time>2018-11-15T11:03:09Z</time>
      </trkpt>
      <trkpt lat="45.97798" lon="4.7867">
        <ele>235</ele>
        <time>2018-11-15T11:03:10Z</time>
      </trkpt>
      <trkpt lat="45.97793" lon="4.7867">
        <ele>235</ele>
        <time>2018-11-15T11:03:11Z</time>
      </trkpt>
      <trkpt lat="45.97788" lon="4.78666">
        <ele>235</ele>
        <time>2018-11-15T11:03:12Z</time>
      </trkpt>
      <trkpt lat="45.97782" lon="4.78665">
        <ele>235</ele>
        <time>2018-11-15T11:03:13Z</time>
      </trkpt>
      <trkpt lat="45.97777" lon="4.78664">
        <ele>235</ele>
        <time>2018-11-15T11:03:14Z</time>
      </trkpt>
      <trkpt lat="45.97771" lon="4.78661">
        <ele>235</ele>
        <time>2018-11-15T11:03:15Z</time>
      </trkpt>
      <trkpt lat="45.97765" lon="4.78659">
        <ele>235</ele>
        <time>2018-11-15T11:03:16Z</time>
      </trkpt>
      <trkpt lat="45.97759" lon="4.78657">
        <ele>235</ele>
        <time>2018-11-15T11:03:17Z</time>
      </trkpt>
      <trkpt lat="45.97754" lon="4.78655">
        <ele>235</ele>
        <time>2018-11-15T11:03:18Z</time>
      </trkpt>
      <trkpt lat="45.97748" lon="4.78652">
        <ele>234</ele>
        <time>2018-11-15T11:03:19Z</time>
      </trkpt>
      <trkpt lat="45.97743" lon="4.7865">
        <ele>234</ele>
        <time>2018-11-15T11:03:20Z</time>
      </trkpt>
      <trkpt lat="45.97736" lon="4.78648">
        <ele>234</ele>
        <time>2018-11-15T11:03:21Z</time>
      </trkpt>
      <trkpt lat="45.97732" lon="4.78645">
        <ele>234</ele>
        <time>2018-11-15T11:03:22Z</time>
      </trkpt>
      <trkpt lat="45.97728" lon="4.78644">
        <ele>234</ele>
        <time>2018-11-15T11:03:23Z</time>
      </trkpt>
      <trkpt lat="45.97723" lon="4.78642">
        <ele>234</ele>
        <time>2018-11-15T11:03:24Z</time>
      </trkpt>
      <trkpt lat="45.97717" lon="4.7864">
        <ele>234</ele>
        <time>2018-11-15T11:03:25Z</time>
      </trkpt>
      <trkpt lat="45.97712" lon="4.78637">
        <ele>234</ele>
        <time>2018-11-15T11:03:26Z</time>
      </trkpt>
      <trkpt lat="45.97704" lon="4.78636">
        <ele>234</ele>
        <time>2018-11-15T11:03:27Z</time>
      </trkpt>
      <trkpt lat="45.97698" lon="4.78634">
        <ele>234</ele>
        <time>2018-11-15T11:03:28Z</time>
      </trkpt>
      <trkpt lat="45.97694" lon="4.78632">
        <ele>234</ele>
        <time>2018-11-15T11:03:29Z</time>
      </trkpt>
      <trkpt lat="45.97689" lon="4.7863">
        <ele>234</ele>
        <time>2018-11-15T11:03:30Z</time>
      </trkpt>
      <trkpt lat="45.97683" lon="4.78627">
        <ele>234</ele>
        <time>2018-11-15T11:03:31Z</time>
      </trkpt>
      <trkpt lat="45.97678" lon="4.78624">
        <ele>234</ele>
        <time>2018-11-15T11:03:32Z</time>
      </trkpt>
      <trkpt lat="45.97672" lon="4.78622">
        <ele>234</ele>
        <time>2018-11-15T11:03:33Z</time>
      </trkpt>
      <trkpt lat="45.97666" lon="4.78619">
        <ele>233</ele>
        <time>2018-11-15T11:03:34Z</time>
      </trkpt>
      <trkpt lat="45.9766" lon="4.78617">
        <ele>233</ele>
        <time>2018-11-15T11:03:35Z</time>
      </trkpt>
      <trkpt lat="45.97655" lon="4.78613">
        <ele>233</ele>
        <time>2018-11-15T11:03:36Z</time>
      </trkpt>
      <trkpt lat="45.9765" lon="4.78611">
        <ele>233</ele>
        <time>2018-11-15T11:03:37Z</time>
      </trkpt>
      <trkpt lat="45.97644" lon="4.78609">
        <ele>233</ele>
        <time>2018-11-15T11:03:38Z</time>
      </trkpt>
      <trkpt lat="45.97639" lon="4.78606">
        <ele>233</ele>
        <time>2018-11-15T11:03:39Z</time>
      </trkpt>
      <trkpt lat="45.97635" lon="4.78603">
        <ele>233</ele>
        <time>2018-11-15T11:03:40Z</time>
      </trkpt>
      <trkpt lat="45.9763" lon="4.78602">
        <ele>233</ele>
        <time>2018-11-15T11:03:41Z</time>
      </trkpt>
      <trkpt lat="45.97625" lon="4.786">
        <ele>233</ele>
        <time>2018-11-15T11:03:42Z</time>
      </trkpt>
      <trkpt lat="45.97621" lon="4.78598">
        <ele>233</ele>
        <time>2018-11-15T11:03:43Z</time>
      </trkpt>
      <trkpt lat="45.97616" lon="4.78596">
        <ele>233</ele>
        <time>2018-11-15T11:03:44Z</time>
      </trkpt>
      <trkpt lat="45.97611" lon="4.78594">
        <ele>233</ele>
        <time>2018-11-15T11:03:45Z</time>
      </trkpt>
      <trkpt lat="45.97606" lon="4.78593">
        <ele>233</ele>
        <time>2018-11-15T11:03:46Z</time>
      </trkpt>
      <trkpt lat="45.97601" lon="4.78591">
        <ele>233</ele>
        <time>2018-11-15T11:03:47Z</time>
      </trkpt>
      <trkpt lat="45.97596" lon="4.78589">
        <ele>233</ele>
        <time>2018-11-15T11:03:48Z</time>
      </trkpt>
      <trkpt lat="45.97593" lon="4.78584">
        <ele>233</ele>
        <time>2018-11-15T11:03:49Z</time>
      </trkpt>
      <trkpt lat="45.97588" lon="4.78582">
        <ele>233</ele>
        <time>2018-11-15T11:03:50Z</time>
      </trkpt>
      <trkpt lat="45.97582" lon="4.7858">
        <ele>233</ele>
        <time>2018-11-15T11:03:51Z</time>
      </trkpt>
      <trkpt lat="45.97578" lon="4.78579">
        <ele>233</ele>
        <time>2018-11-15T11:03:52Z</time>
      </trkpt>
      <trkpt lat="45.97573" lon="4.78577">
        <ele>233</ele>
        <time>2018-11-15T11:03:53Z</time>
      </trkpt>
      <trkpt lat="45.97567" lon="4.78575">
        <ele>233</ele>
        <time>2018-11-15T11:03:54Z</time>
      </trkpt>
      <trkpt lat="45.97561" lon="4.78574">
        <ele>233</ele>
        <time>2018-11-15T11:03:55Z</time>
      </trkpt>
      <trkpt lat="45.97556" lon="4.78572">
        <ele>233</ele>
        <time>2018-11-15T11:03:56Z</time>
      </trkpt>
      <trkpt lat="45.9755" lon="4.7857">
        <ele>234</ele>
        <time>2018-11-15T11:03:57Z</time>
      </trkpt>
      <trkpt lat="45.97545" lon="4.78567">
        <ele>234</ele>
        <time>2018-11-15T11:03:58Z</time>
      </trkpt>
      <trkpt lat="45.9754" lon="4.78567">
        <ele>234</ele>
        <time>2018-11-15T11:03:59Z</time>
      </trkpt>
      <trkpt lat="45.97536" lon="4.78564">
        <ele>234</ele>
        <time>2018-11-15T11:04:00Z</time>
      </trkpt>
      <trkpt lat="45.97529" lon="4.78563">
        <ele>234</ele>
        <time>2018-11-15T11:04:01Z</time>
      </trkpt>
      <trkpt lat="45.97524" lon="4.78561">
        <ele>234</ele>
        <time>2018-11-15T11:04:02Z</time>
      </trkpt>
      <trkpt lat="45.97519" lon="4.78559">
        <ele>234</ele>
        <time>2018-11-15T11:04:03Z</time>
      </trkpt>
      <trkpt lat="45.97515" lon="4.78556">
        <ele>234</ele>
        <time>2018-11-15T11:04:04Z</time>
      </trkpt>
      <trkpt lat="45.9751" lon="4.78552">
        <ele>234</ele>
        <time>2018-11-15T11:04:05Z</time>
      </trkpt>
      <trkpt lat="45.97505" lon="4.7855">
        <ele>234</ele>
        <time>2018-11-15T11:04:06Z</time>
      </trkpt>
      <trkpt lat="45.97498" lon="4.78545">
        <ele>233</ele>
        <time>2018-11-15T11:04:07Z</time>
      </trkpt>
      <trkpt lat="45.97493" lon="4.78542">
        <ele>233</ele>
        <time>2018-11-15T11:04:08Z</time>
      </trkpt>
      <trkpt lat="45.97489" lon="4.78539">
        <ele>233</ele>
        <time>2018-11-15T11:04:09Z</time>
      </trkpt>
      <trkpt lat="45.97485" lon="4.78536">
        <ele>233</ele>
        <time>2018-11-15T11:04:10Z</time>
      </trkpt>
      <trkpt lat="45.9748" lon="4.78533">
        <ele>233</ele>
        <time>2018-11-15T11:04:11Z</time>
      </trkpt>
      <trkpt lat="45.97476" lon="4.78529">
        <ele>233</ele>
        <time>2018-11-15T11:04:12Z</time>
      </trkpt>
      <trkpt lat="45.97471" lon="4.78525">
        <ele>233</ele>
        <time>2018-11-15T11:04:13Z</time>
      </trkpt>
      <trkpt lat="45.97467" lon="4.78523">
        <ele>233</ele>
        <time>2018-11-15T11:04:14Z</time>
      </trkpt>
      <trkpt lat="45.97462" lon="4.78519">
        <ele>233</ele>
        <time>2018-11-15T11:04:15Z</time>
      </trkpt>
      <trkpt lat="45.97457" lon="4.78514">
        <ele>233</ele>
        <time>2018-11-15T11:04:16Z</time>
      </trkpt>
      <trkpt lat="45.97454" lon="4.78511">
        <ele>233</ele>
        <time>2018-11-15T11:04:17Z</time>
      </trkpt>
      <trkpt lat="45.97449" lon="4.78508">
        <ele>234</ele>
        <time>2018-11-15T11:04:18Z</time>
      </trkpt>
      <trkpt lat="45.97444" lon="4.78504">
        <ele>234</ele>
        <time>2018-11-15T11:04:19Z</time>
      </trkpt>
      <trkpt lat="45.97439" lon="4.78499">
        <ele>234</ele>
        <time>2018-11-15T11:04:20Z</time>
      </trkpt>
      <trkpt lat="45.97435" lon="4.78494">
        <ele>234</ele>
        <time>2018-11-15T11:04:21Z</time>
      </trkpt>
      <trkpt lat="45.97428" lon="4.78486">
        <ele>234</ele>
        <time>2018-11-15T11:04:23Z</time>
      </trkpt>
      <trkpt lat="45.97424" lon="4.78482">
        <ele>234</ele>
        <time>2018-11-15T11:04:24Z</time>
      </trkpt>
      <trkpt lat="45.9742" lon="4.78478">
        <ele>234</ele>
        <time>2018-11-15T11:04:25Z</time>
      </trkpt>
      <trkpt lat="45.97415" lon="4.78474">
        <ele>233</ele>
        <time>2018-11-15T11:04:26Z</time>
      </trkpt>
      <trkpt lat="45.97408" lon="4.78468">
        <ele>233</ele>
        <time>2018-11-15T11:04:28Z</time>
      </trkpt>
      <trkpt lat="45.97404" lon="4.78464">
        <ele>233</ele>
        <time>2018-11-15T11:04:29Z</time>
      </trkpt>
      <trkpt lat="45.97399" lon="4.7846">
        <ele>233</ele>
        <time>2018-11-15T11:04:30Z</time>
      </trkpt>
      <trkpt lat="45.97394" lon="4.78456">
        <ele>233</ele>
        <time>2018-11-15T11:04:31Z</time>
      </trkpt>
      <trkpt lat="45.97389" lon="4.78451">
        <ele>233</ele>
        <time>2018-11-15T11:04:32Z</time>
      </trkpt>
      <trkpt lat="45.97385" lon="4.78446">
        <ele>233</ele>
        <time>2018-11-15T11:04:33Z</time>
      </trkpt>
      <trkpt lat="45.9738" lon="4.78442">
        <ele>233</ele>
        <time>2018-11-15T11:04:34Z</time>
      </trkpt>
      <trkpt lat="45.97376" lon="4.78437">
        <ele>233</ele>
        <time>2018-11-15T11:04:35Z</time>
      </trkpt>
      <trkpt lat="45.97372" lon="4.78433">
        <ele>233</ele>
        <time>2018-11-15T11:04:36Z</time>
      </trkpt>
      <trkpt lat="45.97368" lon="4.78428">
        <ele>233</ele>
        <time>2018-11-15T11:04:37Z</time>
      </trkpt>
      <trkpt lat="45.97364" lon="4.78423">
        <ele>233</ele>
        <time>2018-11-15T11:04:38Z</time>
      </trkpt>
      <trkpt lat="45.9736" lon="4.7842">
        <ele>233</ele>
        <time>2018-11-15T11:04:39Z</time>
      </trkpt>
      <trkpt lat="45.97356" lon="4.78416">
        <ele>232</ele>
        <time>2018-11-15T11:04:40Z</time>
      </trkpt>
      <trkpt lat="45.97353" lon="4.78411">
        <ele>232</ele>
        <time>2018-11-15T11:04:41Z</time>
      </trkpt>
      <trkpt lat="45.97349" lon="4.78407">
        <ele>232</ele>
        <time>2018-11-15T11:04:42Z</time>
      </trkpt>
      <trkpt lat="45.97344" lon="4.78404">
        <ele>232</ele>
        <time>2018-11-15T11:04:43Z</time>
      </trkpt>
      <trkpt lat="45.97341" lon="4.784">
        <ele>232</ele>
        <time>2018-11-15T11:04:44Z</time>
      </trkpt>
      <trkpt lat="45.97336" lon="4.78395">
        <ele>232</ele>
        <time>2018-11-15T11:04:45Z</time>
      </trkpt>
      <trkpt lat="45.97333" lon="4.78391">
        <ele>232</ele>
        <time>2018-11-15T11:04:46Z</time>
      </trkpt>
      <trkpt lat="45.97329" lon="4.78388">
        <ele>232</ele>
        <time>2018-11-15T11:04:47Z</time>
      </trkpt>
      <trkpt lat="45.97325" lon="4.78383">
        <ele>232</ele>
        <time>2018-11-15T11:04:48Z</time>
      </trkpt>
      <trkpt lat="45.97321" lon="4.78378">
        <ele>232</ele>
        <time>2018-11-15T11:04:49Z</time>
      </trkpt>
      <trkpt lat="45.97317" lon="4.78374">
        <ele>232</ele>
        <time>2018-11-15T11:04:50Z</time>
      </trkpt>
      <trkpt lat="45.97313" lon="4.7837">
        <ele>232</ele>
        <time>2018-11-15T11:04:51Z</time>
      </trkpt>
      <trkpt lat="45.9731" lon="4.78365">
        <ele>232</ele>
        <time>2018-11-15T11:04:52Z</time>
      </trkpt>
      <trkpt lat="45.97306" lon="4.7836">
        <ele>232</ele>
        <time>2018-11-15T11:04:53Z</time>
      </trkpt>
      <trkpt lat="45.97302" lon="4.78355">
        <ele>232</ele>
        <time>2018-11-15T11:04:54Z</time>
      </trkpt>
      <trkpt lat="45.97298" lon="4.78351">
        <ele>232</ele>
        <time>2018-11-15T11:04:55Z</time>
      </trkpt>
      <trkpt lat="45.97295" lon="4.78347">
        <ele>232</ele>
        <time>2018-11-15T11:04:56Z</time>
      </trkpt>
      <trkpt lat="45.97291" lon="4.78342">
        <ele>232</ele>
        <time>2018-11-15T11:04:57Z</time>
      </trkpt>
      <trkpt lat="45.97289" lon="4.78336">
        <ele>232</ele>
        <time>2018-11-15T11:04:58Z</time>
      </trkpt>
      <trkpt lat="45.97285" lon="4.78331">
        <ele>232</ele>
        <time>2018-11-15T11:04:59Z</time>
      </trkpt>
      <trkpt lat="45.97282" lon="4.78326">
        <ele>232</ele>
        <time>2018-11-15T11:05:00Z</time>
      </trkpt>
      <trkpt lat="45.97278" lon="4.78323">
        <ele>232</ele>
        <time>2018-11-15T11:05:01Z</time>
      </trkpt>
      <trkpt lat="45.97274" lon="4.78318">
        <ele>232</ele>
        <time>2018-11-15T11:05:02Z</time>
      </trkpt>
      <trkpt lat="45.9727" lon="4.78312">
        <ele>232</ele>
        <time>2018-11-15T11:05:03Z</time>
      </trkpt>
      <trkpt lat="45.97267" lon="4.78307">
        <ele>232</ele>
        <time>2018-11-15T11:05:04Z</time>
      </trkpt>
      <trkpt lat="45.97264" lon="4.783">
        <ele>232</ele>
        <time>2018-11-15T11:05:05Z</time>
      </trkpt>
      <trkpt lat="45.9726" lon="4.78296">
        <ele>232</ele>
        <time>2018-11-15T11:05:06Z</time>
      </trkpt>
      <trkpt lat="45.97257" lon="4.7829">
        <ele>232</ele>
        <time>2018-11-15T11:05:07Z</time>
      </trkpt>
      <trkpt lat="45.97253" lon="4.78285">
        <ele>232</ele>
        <time>2018-11-15T11:05:08Z</time>
      </trkpt>
      <trkpt lat="45.9725" lon="4.78279">
        <ele>231</ele>
        <time>2018-11-15T11:05:09Z</time>
      </trkpt>
      <trkpt lat="45.97246" lon="4.78273">
        <ele>231</ele>
        <time>2018-11-15T11:05:10Z</time>
      </trkpt>
      <trkpt lat="45.97243" lon="4.78267">
        <ele>231</ele>
        <time>2018-11-15T11:05:11Z</time>
      </trkpt>
      <trkpt lat="45.97239" lon="4.7826">
        <ele>231</ele>
        <time>2018-11-15T11:05:12Z</time>
      </trkpt>
      <trkpt lat="45.97236" lon="4.78254">
        <ele>231</ele>
        <time>2018-11-15T11:05:13Z</time>
      </trkpt>
      <trkpt lat="45.97233" lon="4.78248">
        <ele>231</ele>
        <time>2018-11-15T11:05:14Z</time>
      </trkpt>
      <trkpt lat="45.97229" lon="4.78242">
        <ele>231</ele>
        <time>2018-11-15T11:05:15Z</time>
      </trkpt>
      <trkpt lat="45.97225" lon="4.78236">
        <ele>231</ele>
        <time>2018-11-15T11:05:16Z</time>
      </trkpt>
      <trkpt lat="45.97218" lon="4.78232">
        <ele>231</ele>
        <time>2018-11-15T11:05:17Z</time>
      </trkpt>
      <trkpt lat="45.97215" lon="4.78226">
        <ele>231</ele>
        <time>2018-11-15T11:05:18Z</time>
      </trkpt>
      <trkpt lat="45.97212" lon="4.78221">
        <ele>231</ele>
        <time>2018-11-15T11:05:19Z</time>
      </trkpt>
      <trkpt lat="45.97208" lon="4.78216">
        <ele>231</ele>
        <time>2018-11-15T11:05:20Z</time>
      </trkpt>
      <trkpt lat="45.97205" lon="4.78208">
        <ele>231</ele>
        <time>2018-11-15T11:05:21Z</time>
      </trkpt>
      <trkpt lat="45.97201" lon="4.78203">
        <ele>231</ele>
        <time>2018-11-15T11:05:22Z</time>
      </trkpt>
      <trkpt lat="45.97198" lon="4.78197">
        <ele>231</ele>
        <time>2018-11-15T11:05:23Z</time>
      </trkpt>
      <trkpt lat="45.97195" lon="4.7819">
        <ele>231</ele>
        <time>2018-11-15T11:05:24Z</time>
      </trkpt>
      <trkpt lat="45.97192" lon="4.78185">
        <ele>231</ele>
        <time>2018-11-15T11:05:25Z</time>
      </trkpt>
      <trkpt lat="45.97188" lon="4.78179">
        <ele>231</ele>
        <time>2018-11-15T11:05:26Z</time>
      </trkpt>
      <trkpt lat="45.97185" lon="4.78172">
        <ele>231</ele>
        <time>2018-11-15T11:05:27Z</time>
      </trkpt>
      <trkpt lat="45.97182" lon="4.78164">
        <ele>231</ele>
        <time>2018-11-15T11:05:28Z</time>
      </trkpt>
      <trkpt lat="45.97178" lon="4.78157">
        <ele>231</ele>
        <time>2018-11-15T11:05:29Z</time>
      </trkpt>
      <trkpt lat="45.97175" lon="4.7815">
        <ele>231</ele>
        <time>2018-11-15T11:05:30Z</time>
      </trkpt>
      <trkpt lat="45.97171" lon="4.78143">
        <ele>231</ele>
        <time>2018-11-15T11:05:31Z</time>
      </trkpt>
      <trkpt lat="45.97168" lon="4.78137">
        <ele>231</ele>
        <time>2018-11-15T11:05:32Z</time>
      </trkpt>
      <trkpt lat="45.97165" lon="4.7813">
        <ele>230</ele>
        <time>2018-11-15T11:05:33Z</time>
      </trkpt>
      <trkpt lat="45.97161" lon="4.78124">
        <ele>230</ele>
        <time>2018-11-15T11:05:34Z</time>
      </trkpt>
      <trkpt lat="45.97157" lon="4.78119">
        <ele>230</ele>
        <time>2018-11-15T11:05:35Z</time>
      </trkpt>
      <trkpt lat="45.97153" lon="4.78113">
        <ele>230</ele>
        <time>2018-11-15T11:05:36Z</time>
      </trkpt>
      <trkpt lat="45.9715" lon="4.78108">
        <ele>230</ele>
        <time>2018-11-15T11:05:37Z</time>
      </trkpt>
      <trkpt lat="45.97147" lon="4.78102">
        <ele>230</ele>
        <time>2018-11-15T11:05:38Z</time>
      </trkpt>
      <trkpt lat="45.97143" lon="4.78095">
        <ele>230</ele>
        <time>2018-11-15T11:05:39Z</time>
      </trkpt>
      <trkpt lat="45.9714" lon="4.78089">
        <ele>230</ele>
        <time>2018-11-15T11:05:40Z</time>
      </trkpt>
      <trkpt lat="45.97136" lon="4.78083">
        <ele>230</ele>
        <time>2018-11-15T11:05:41Z</time>
      </trkpt>
      <trkpt lat="45.97133" lon="4.78078">
        <ele>230</ele>
        <time>2018-11-15T11:05:42Z</time>
      </trkpt>
      <trkpt lat="45.9713" lon="4.78072">
        <ele>230</ele>
        <time>2018-11-15T11:05:43Z</time>
      </trkpt>
      <trkpt lat="45.97126" lon="4.78066">
        <ele>230</ele>
        <time>2018-11-15T11:05:44Z</time>
      </trkpt>
      <trkpt lat="45.97122" lon="4.78062">
        <ele>229</ele>
        <time>2018-11-15T11:05:45Z</time>
      </trkpt>
      <trkpt lat="45.97115" lon="4.78055">
        <ele>229</ele>
        <time>2018-11-15T11:05:47Z</time>
      </trkpt>
      <trkpt lat="45.97111" lon="4.7805">
        <ele>229</ele>
        <time>2018-11-15T11:05:48Z</time>
      </trkpt>
      <trkpt lat="45.97106" lon="4.78045">
        <ele>229</ele>
        <time>2018-11-15T11:05:49Z</time>
      </trkpt>
      <trkpt lat="45.97102" lon="4.78041">
        <ele>229</ele>
        <time>2018-11-15T11:05:50Z</time>
      </trkpt>
      <trkpt lat="45.97098" lon="4.78036">
        <ele>229</ele>
        <time>2018-11-15T11:05:51Z</time>
      </trkpt>
      <trkpt lat="45.97094" lon="4.78032">
        <ele>229</ele>
        <time>2018-11-15T11:05:52Z</time>
      </trkpt>
      <trkpt lat="45.9709" lon="4.78028">
        <ele>229</ele>
        <time>2018-11-15T11:05:53Z</time>
      </trkpt>
      <trkpt lat="45.97085" lon="4.78025">
        <ele>229</ele>
        <time>2018-11-15T11:05:54Z</time>
      </trkpt>
      <trkpt lat="45.9708" lon="4.7802">
        <ele>229</ele>
        <time>2018-11-15T11:05:55Z</time>
      </trkpt>
      <trkpt lat="45.97075" lon="4.78016">
        <ele>229</ele>
        <time>2018-11-15T11:05:56Z</time>
      </trkpt>
      <trkpt lat="45.9707" lon="4.78011">
        <ele>229</ele>
        <time>2018-11-15T11:05:57Z</time>
      </trkpt>
      <trkpt lat="45.97066" lon="4.78008">
        <ele>229</ele>
        <time>2018-11-15T11:05:58Z</time>
      </trkpt>
      <trkpt lat="45.97063" lon="4.78005">
        <ele>229</ele>
        <time>2018-11-15T11:05:59Z</time>
      </trkpt>
      <trkpt lat="45.97057" lon="4.78">
        <ele>229</ele>
        <time>2018-11-15T11:06:00Z</time>
      </trkpt>
      <trkpt lat="45.9705" lon="4.77994">
        <ele>229</ele>
        <time>2018-11-15T11:06:02Z</time>
      </trkpt>
      <trkpt lat="45.97046" lon="4.77989">
        <ele>229</ele>
        <time>2018-11-15T11:06:03Z</time>
      </trkpt>
      <trkpt lat="45.97042" lon="4.77984">
        <ele>229</ele>
        <time>2018-11-15T11:06:04Z</time>
      </trkpt>
      <trkpt lat="45.97038" lon="4.77979">
        <ele>229</ele>
        <time>2018-11-15T11:06:05Z</time>
      </trkpt>
      <trkpt lat="45.97034" lon="4.77974">
        <ele>229</ele>
        <time>2018-11-15T11:06:06Z</time>
      </trkpt>
      <trkpt lat="45.9703" lon="4.7797">
        <ele>229</ele>
        <time>2018-11-15T11:06:07Z</time>
      </trkpt>
      <trkpt lat="45.97027" lon="4.77964">
        <ele>228</ele>
        <time>2018-11-15T11:06:08Z</time>
      </trkpt>
      <trkpt lat="45.97023" lon="4.77957">
        <ele>228</ele>
        <time>2018-11-15T11:06:09Z</time>
      </trkpt>
      <trkpt lat="45.97018" lon="4.77952">
        <ele>228</ele>
        <time>2018-11-15T11:06:10Z</time>
      </trkpt>
      <trkpt lat="45.97013" lon="4.77947">
        <ele>228</ele>
        <time>2018-11-15T11:06:11Z</time>
      </trkpt>
      <trkpt lat="45.97009" lon="4.77942">
        <ele>228</ele>
        <time>2018-11-15T11:06:12Z</time>
      </trkpt>
      <trkpt lat="45.97005" lon="4.77937">
        <ele>228</ele>
        <time>2018-11-15T11:06:13Z</time>
      </trkpt>
      <trkpt lat="45.97" lon="4.77932">
        <ele>227</ele>
        <time>2018-11-15T11:06:14Z</time>
      </trkpt>
      <trkpt lat="45.96996" lon="4.77926">
        <ele>227</ele>
        <time>2018-11-15T11:06:15Z</time>
      </trkpt>
      <trkpt lat="45.96992" lon="4.7792">
        <ele>227</ele>
        <time>2018-11-15T11:06:16Z</time>
      </trkpt>
      <trkpt lat="45.96986" lon="4.77913">
        <ele>227</ele>
        <time>2018-11-15T11:06:17Z</time>
      </trkpt>
      <trkpt lat="45.96983" lon="4.77907">
        <ele>227</ele>
        <time>2018-11-15T11:06:18Z</time>
      </trkpt>
      <trkpt lat="45.96978" lon="4.77902">
        <ele>227</ele>
        <time>2018-11-15T11:06:19Z</time>
      </trkpt>
      <trkpt lat="45.96975" lon="4.77898">
        <ele>228</ele>
        <time>2018-11-15T11:06:20Z</time>
      </trkpt>
      <trkpt lat="45.96971" lon="4.77892">
        <ele>228</ele>
        <time>2018-11-15T11:06:21Z</time>
      </trkpt>
      <trkpt lat="45.96966" lon="4.77887">
        <ele>228</ele>
        <time>2018-11-15T11:06:22Z</time>
      </trkpt>
      <trkpt lat="45.96962" lon="4.77882">
        <ele>228</ele>
        <time>2018-11-15T11:06:23Z</time>
      </trkpt>
      <trkpt lat="45.96957" lon="4.77876">
        <ele>228</ele>
        <time>2018-11-15T11:06:24Z</time>
      </trkpt>
      <trkpt lat="45.96952" lon="4.77871">
        <ele>228</ele>
        <time>2018-11-15T11:06:25Z</time>
      </trkpt>
      <trkpt lat="45.96947" lon="4.77866">
        <ele>228</ele>
        <time>2018-11-15T11:06:26Z</time>
      </trkpt>
      <trkpt lat="45.96943" lon="4.77861">
        <ele>228</ele>
        <time>2018-11-15T11:06:27Z</time>
      </trkpt>
      <trkpt lat="45.96938" lon="4.77856">
        <ele>228</ele>
        <time>2018-11-15T11:06:28Z</time>
      </trkpt>
      <trkpt lat="45.96934" lon="4.7785">
        <ele>228</ele>
        <time>2018-11-15T11:06:29Z</time>
      </trkpt>
      <trkpt lat="45.9693" lon="4.77846">
        <ele>228</ele>
        <time>2018-11-15T11:06:30Z</time>
      </trkpt>
      <trkpt lat="45.96926" lon="4.77841">
        <ele>228</ele>
        <time>2018-11-15T11:06:31Z</time>
      </trkpt>
      <trkpt lat="45.96921" lon="4.77836">
        <ele>228</ele>
        <time>2018-11-15T11:06:32Z</time>
      </trkpt>
      <trkpt lat="45.96918" lon="4.7783">
        <ele>228</ele>
        <time>2018-11-15T11:06:33Z</time>
      </trkpt>
      <trkpt lat="45.96914" lon="4.77826">
        <ele>228</ele>
        <time>2018-11-15T11:06:34Z</time>
      </trkpt>
      <trkpt lat="45.9691" lon="4.77821">
        <ele>228</ele>
        <time>2018-11-15T11:06:35Z</time>
      </trkpt>
      <trkpt lat="45.96905" lon="4.77817">
        <ele>228</ele>
        <time>2018-11-15T11:06:36Z</time>
      </trkpt>
      <trkpt lat="45.969" lon="4.77812">
        <ele>228</ele>
        <time>2018-11-15T11:06:37Z</time>
      </trkpt>
      <trkpt lat="45.96895" lon="4.77807">
        <ele>228</ele>
        <time>2018-11-15T11:06:38Z</time>
      </trkpt>
      <trkpt lat="45.96888" lon="4.77802">
        <ele>228</ele>
        <time>2018-11-15T11:06:39Z</time>
      </trkpt>
      <trkpt lat="45.96883" lon="4.77797">
        <ele>228</ele>
        <time>2018-11-15T11:06:40Z</time>
      </trkpt>
      <trkpt lat="45.96878" lon="4.77792">
        <ele>228</ele>
        <time>2018-11-15T11:06:41Z</time>
      </trkpt>
      <trkpt lat="45.96873" lon="4.77787">
        <ele>228</ele>
        <time>2018-11-15T11:06:42Z</time>
      </trkpt>
      <trkpt lat="45.96868" lon="4.77783">
        <ele>228</ele>
        <time>2018-11-15T11:06:43Z</time>
      </trkpt>
      <trkpt lat="45.96864" lon="4.77779">
        <ele>228</ele>
        <time>2018-11-15T11:06:44Z</time>
      </trkpt>
      <trkpt lat="45.9686" lon="4.77775">
        <ele>228</ele>
        <time>2018-11-15T11:06:45Z</time>
      </trkpt>
      <trkpt lat="45.96855" lon="4.77772">
        <ele>228</ele>
        <time>2018-11-15T11:06:46Z</time>
      </trkpt>
      <trkpt lat="45.9685" lon="4.77767">
        <ele>228</ele>
        <time>2018-11-15T11:06:47Z</time>
      </trkpt>
      <trkpt lat="45.96846" lon="4.77762">
        <ele>228</ele>
        <time>2018-11-15T11:06:48Z</time>
      </trkpt>
      <trkpt lat="45.96841" lon="4.77756">
        <ele>228</ele>
        <time>2018-11-15T11:06:49Z</time>
      </trkpt>
      <trkpt lat="45.96836" lon="4.77751">
        <ele>228</ele>
        <time>2018-11-15T11:06:50Z</time>
      </trkpt>
      <trkpt lat="45.96834" lon="4.77745">
        <ele>228</ele>
        <time>2018-11-15T11:06:51Z</time>
      </trkpt>
      <trkpt lat="45.96829" lon="4.77739">
        <ele>228</ele>
        <time>2018-11-15T11:06:52Z</time>
      </trkpt>
      <trkpt lat="45.96824" lon="4.77734">
        <ele>228</ele>
        <time>2018-11-15T11:06:53Z</time>
      </trkpt>
      <trkpt lat="45.9682" lon="4.7773">
        <ele>228</ele>
        <time>2018-11-15T11:06:54Z</time>
      </trkpt>
      <trkpt lat="45.96815" lon="4.77724">
        <ele>228</ele>
        <time>2018-11-15T11:06:55Z</time>
      </trkpt>
      <trkpt lat="45.9681" lon="4.7772">
        <ele>228</ele>
        <time>2018-11-15T11:06:56Z</time>
      </trkpt>
      <trkpt lat="45.96806" lon="4.77715">
        <ele>228</ele>
        <time>2018-11-15T11:06:57Z</time>
      </trkpt>
      <trkpt lat="45.96802" lon="4.7771">
        <ele>228</ele>
        <time>2018-11-15T11:06:58Z</time>
      </trkpt>
      <trkpt lat="45.96797" lon="4.77705">
        <ele>228</ele>
        <time>2018-11-15T11:06:59Z</time>
      </trkpt>
      <trkpt lat="45.96794" lon="4.77701">
        <ele>228</ele>
        <time>2018-11-15T11:07:00Z</time>
      </trkpt>
      <trkpt lat="45.96789" lon="4.77696">
        <ele>227</ele>
        <time>2018-11-15T11:07:01Z</time>
      </trkpt>
      <trkpt lat="45.96784" lon="4.77691">
        <ele>227</ele>
        <time>2018-11-15T11:07:02Z</time>
      </trkpt>
      <trkpt lat="45.9678" lon="4.77687">
        <ele>227</ele>
        <time>2018-11-15T11:07:03Z</time>
      </trkpt>
      <trkpt lat="45.96776" lon="4.77682">
        <ele>227</ele>
        <time>2018-11-15T11:07:04Z</time>
      </trkpt>
      <trkpt lat="45.96772" lon="4.77676">
        <ele>227</ele>
        <time>2018-11-15T11:07:05Z</time>
      </trkpt>
      <trkpt lat="45.96766" lon="4.7767">
        <ele>227</ele>
        <time>2018-11-15T11:07:06Z</time>
      </trkpt>
      <trkpt lat="45.96761" lon="4.77664">
        <ele>227</ele>
        <time>2018-11-15T11:07:07Z</time>
      </trkpt>
      <trkpt lat="45.96756" lon="4.77659">
        <ele>227</ele>
        <time>2018-11-15T11:07:08Z</time>
      </trkpt>
      <trkpt lat="45.96751" lon="4.77653">
        <ele>227</ele>
        <time>2018-11-15T11:07:09Z</time>
      </trkpt>
      <trkpt lat="45.96747" lon="4.77647">
        <ele>227</ele>
        <time>2018-11-15T11:07:10Z</time>
      </trkpt>
      <trkpt lat="45.96742" lon="4.77641">
        <ele>227</ele>
        <time>2018-11-15T11:07:11Z</time>
      </trkpt>
      <trkpt lat="45.96737" lon="4.77636">
        <ele>227</ele>
        <time>2018-11-15T11:07:12Z</time>
      </trkpt>
      <trkpt lat="45.96732" lon="4.77629">
        <ele>226</ele>
        <time>2018-11-15T11:07:13Z</time>
      </trkpt>
      <trkpt lat="45.96728" lon="4.77624">
        <ele>226</ele>
        <time>2018-11-15T11:07:14Z</time>
      </trkpt>
      <trkpt lat="45.96725" lon="4.77619">
        <ele>226</ele>
        <time>2018-11-15T11:07:15Z</time>
      </trkpt>
      <trkpt lat="45.96721" lon="4.77613">
        <ele>226</ele>
        <time>2018-11-15T11:07:16Z</time>
      </trkpt>
      <trkpt lat="45.96716" lon="4.77608">
        <ele>226</ele>
        <time>2018-11-15T11:07:17Z</time>
      </trkpt>
      <trkpt lat="45.96711" lon="4.77603">
        <ele>226</ele>
        <time>2018-11-15T11:07:18Z</time>
      </trkpt>
      <trkpt lat="45.96708" lon="4.77598">
        <ele>226</ele>
        <time>2018-11-15T11:07:19Z</time>
      </trkpt>
      <trkpt lat="45.96703" lon="4.77593">
        <ele>226</ele>
        <time>2018-11-15T11:07:20Z</time>
      </trkpt>
      <trkpt lat="45.96698" lon="4.77587">
        <ele>226</ele>
        <time>2018-11-15T11:07:21Z</time>
      </trkpt>
      <trkpt lat="45.96694" lon="4.77584">
        <ele>226</ele>
        <time>2018-11-15T11:07:22Z</time>
      </trkpt>
      <trkpt lat="45.96689" lon="4.77578">
        <ele>225</ele>
        <time>2018-11-15T11:07:23Z</time>
      </trkpt>
      <trkpt lat="45.96684" lon="4.77573">
        <ele>225</ele>
        <time>2018-11-15T11:07:24Z</time>
      </trkpt>
      <trkpt lat="45.96679" lon="4.77569">
        <ele>225</ele>
        <time>2018-11-15T11:07:25Z</time>
      </trkpt>
      <trkpt lat="45.96674" lon="4.77565">
        <ele>225</ele>
        <time>2018-11-15T11:07:26Z</time>
      </trkpt>
      <trkpt lat="45.96668" lon="4.77561">
        <ele>225</ele>
        <time>2018-11-15T11:07:27Z</time>
      </trkpt>
      <trkpt lat="45.96664" lon="4.77558">
        <ele>224</ele>
        <time>2018-11-15T11:07:28Z</time>
      </trkpt>
      <trkpt lat="45.96659" lon="4.77554">
        <ele>224</ele>
        <time>2018-11-15T11:07:29Z</time>
      </trkpt>
      <trkpt lat="45.96654" lon="4.7755">
        <ele>224</ele>
        <time>2018-11-15T11:07:30Z</time>
      </trkpt>
      <trkpt lat="45.9665" lon="4.77548">
        <ele>224</ele>
        <time>2018-11-15T11:07:31Z</time>
      </trkpt>
      <trkpt lat="45.96644" lon="4.77544">
        <ele>224</ele>
        <time>2018-11-15T11:07:32Z</time>
      </trkpt>
      <trkpt lat="45.96641" lon="4.7754">
        <ele>224</ele>
        <time>2018-11-15T11:07:33Z</time>
      </trkpt>
      <trkpt lat="45.96636" lon="4.77536">
        <ele>224</ele>
        <time>2018-11-15T11:07:34Z</time>
      </trkpt>
      <trkpt lat="45.9663" lon="4.77533">
        <ele>224</ele>
        <time>2018-11-15T11:07:35Z</time>
      </trkpt>
      <trkpt lat="45.96626" lon="4.77529">
        <ele>224</ele>
        <time>2018-11-15T11:07:36Z</time>
      </trkpt>
      <trkpt lat="45.9662" lon="4.77525">
        <ele>224</ele>
        <time>2018-11-15T11:07:37Z</time>
      </trkpt>
      <trkpt lat="45.96615" lon="4.77521">
        <ele>224</ele>
        <time>2018-11-15T11:07:38Z</time>
      </trkpt>
      <trkpt lat="45.96611" lon="4.77518">
        <ele>224</ele>
        <time>2018-11-15T11:07:39Z</time>
      </trkpt>
      <trkpt lat="45.96605" lon="4.77514">
        <ele>224</ele>
        <time>2018-11-15T11:07:40Z</time>
      </trkpt>
      <trkpt lat="45.96601" lon="4.77511">
        <ele>224</ele>
        <time>2018-11-15T11:07:41Z</time>
      </trkpt>
      <trkpt lat="45.96597" lon="4.77508">
        <ele>224</ele>
        <time>2018-11-15T11:07:42Z</time>
      </trkpt>
      <trkpt lat="45.9659" lon="4.77503">
        <ele>224</ele>
        <time>2018-11-15T11:07:43Z</time>
      </trkpt>
      <trkpt lat="45.96584" lon="4.775">
        <ele>224</ele>
        <time>2018-11-15T11:07:44Z</time>
      </trkpt>
      <trkpt lat="45.96578" lon="4.77496">
        <ele>224</ele>
        <time>2018-11-15T11:07:45Z</time>
      </trkpt>
      <trkpt lat="45.96574" lon="4.77493">
        <ele>224</ele>
        <time>2018-11-15T11:07:46Z</time>
      </trkpt>
      <trkpt lat="45.96568" lon="4.7749">
        <ele>224</ele>
        <time>2018-11-15T11:07:47Z</time>
      </trkpt>
      <trkpt lat="45.96563" lon="4.77486">
        <ele>224</ele>
        <time>2018-11-15T11:07:48Z</time>
      </trkpt>
      <trkpt lat="45.96557" lon="4.77483">
        <ele>224</ele>
        <time>2018-11-15T11:07:49Z</time>
      </trkpt>
      <trkpt lat="45.96552" lon="4.77479">
        <ele>223</ele>
        <time>2018-11-15T11:07:50Z</time>
      </trkpt>
      <trkpt lat="45.96547" lon="4.77476">
        <ele>223</ele>
        <time>2018-11-15T11:07:51Z</time>
      </trkpt>
      <trkpt lat="45.96542" lon="4.77473">
        <ele>223</ele>
        <time>2018-11-15T11:07:52Z</time>
      </trkpt>
      <trkpt lat="45.96536" lon="4.77469">
        <ele>223</ele>
        <time>2018-11-15T11:07:53Z</time>
      </trkpt>
      <trkpt lat="45.96531" lon="4.77466">
        <ele>223</ele>
        <time>2018-11-15T11:07:54Z</time>
      </trkpt>
      <trkpt lat="45.96525" lon="4.77462">
        <ele>223</ele>
        <time>2018-11-15T11:07:55Z</time>
      </trkpt>
      <trkpt lat="45.9652" lon="4.77458">
        <ele>223</ele>
        <time>2018-11-15T11:07:56Z</time>
      </trkpt>
      <trkpt lat="45.96513" lon="4.77453">
        <ele>223</ele>
        <time>2018-11-15T11:07:57Z</time>
      </trkpt>
      <trkpt lat="45.96507" lon="4.77449">
        <ele>223</ele>
        <time>2018-11-15T11:07:58Z</time>
      </trkpt>
      <trkpt lat="45.96502" lon="4.77445">
        <ele>223</ele>
        <time>2018-11-15T11:07:59Z</time>
      </trkpt>
      <trkpt lat="45.96496" lon="4.77442">
        <ele>222</ele>
        <time>2018-11-15T11:08:00Z</time>
      </trkpt>
      <trkpt lat="45.9649" lon="4.77439">
        <ele>222</ele>
        <time>2018-11-15T11:08:01Z</time>
      </trkpt>
      <trkpt lat="45.96485" lon="4.77435">
        <ele>222</ele>
        <time>2018-11-15T11:08:02Z</time>
      </trkpt>
      <trkpt lat="45.96479" lon="4.77432">
        <ele>222</ele>
        <time>2018-11-15T11:08:03Z</time>
      </trkpt>
      <trkpt lat="45.96473" lon="4.77429">
        <ele>221</ele>
        <time>2018-11-15T11:08:04Z</time>
      </trkpt>
      <trkpt lat="45.96468" lon="4.77425">
        <ele>221</ele>
        <time>2018-11-15T11:08:05Z</time>
      </trkpt>
      <trkpt lat="45.96462" lon="4.77422">
        <ele>221</ele>
        <time>2018-11-15T11:08:06Z</time>
      </trkpt>
      <trkpt lat="45.96457" lon="4.7742">
        <ele>221</ele>
        <time>2018-11-15T11:08:07Z</time>
      </trkpt>
      <trkpt lat="45.96451" lon="4.77417">
        <ele>221</ele>
        <time>2018-11-15T11:08:08Z</time>
      </trkpt>
      <trkpt lat="45.96446" lon="4.77413">
        <ele>222</ele>
        <time>2018-11-15T11:08:09Z</time>
      </trkpt>
      <trkpt lat="45.9644" lon="4.77409">
        <ele>222</ele>
        <time>2018-11-15T11:08:10Z</time>
      </trkpt>
      <trkpt lat="45.96434" lon="4.77406">
        <ele>222</ele>
        <time>2018-11-15T11:08:11Z</time>
      </trkpt>
      <trkpt lat="45.96428" lon="4.77402">
        <ele>222</ele>
        <time>2018-11-15T11:08:12Z</time>
      </trkpt>
      <trkpt lat="45.96421" lon="4.77398">
        <ele>222</ele>
        <time>2018-11-15T11:08:13Z</time>
      </trkpt>
      <trkpt lat="45.96415" lon="4.77394">
        <ele>220</ele>
        <time>2018-11-15T11:08:14Z</time>
      </trkpt>
      <trkpt lat="45.96409" lon="4.77392">
        <ele>220</ele>
        <time>2018-11-15T11:08:15Z</time>
      </trkpt>
      <trkpt lat="45.96403" lon="4.77389">
        <ele>220</ele>
        <time>2018-11-15T11:08:16Z</time>
      </trkpt>
      <trkpt lat="45.96399" lon="4.77385">
        <ele>220</ele>
        <time>2018-11-15T11:08:17Z</time>
      </trkpt>
      <trkpt lat="45.96392" lon="4.77381">
        <ele>220</ele>
        <time>2018-11-15T11:08:18Z</time>
      </trkpt>
      <trkpt lat="45.96386" lon="4.77377">
        <ele>220</ele>
        <time>2018-11-15T11:08:19Z</time>
      </trkpt>
      <trkpt lat="45.96381" lon="4.77373">
        <ele>220</ele>
        <time>2018-11-15T11:08:20Z</time>
      </trkpt>
      <trkpt lat="45.96375" lon="4.77369">
        <ele>220</ele>
        <time>2018-11-15T11:08:21Z</time>
      </trkpt>
      <trkpt lat="45.9637" lon="4.77366">
        <ele>220</ele>
        <time>2018-11-15T11:08:22Z</time>
      </trkpt>
      <trkpt lat="45.96365" lon="4.77364">
        <ele>219</ele>
        <time>2018-11-15T11:08:23Z</time>
      </trkpt>
      <trkpt lat="45.96359" lon="4.7736">
        <ele>219</ele>
        <time>2018-11-15T11:08:24Z</time>
      </trkpt>
      <trkpt lat="45.96355" lon="4.77358">
        <ele>219</ele>
        <time>2018-11-15T11:08:25Z</time>
      </trkpt>
      <trkpt lat="45.96349" lon="4.77355">
        <ele>219</ele>
        <time>2018-11-15T11:08:26Z</time>
      </trkpt>
      <trkpt lat="45.96344" lon="4.77349">
        <ele>220</ele>
        <time>2018-11-15T11:08:27Z</time>
      </trkpt>
      <trkpt lat="45.96339" lon="4.77346">
        <ele>220</ele>
        <time>2018-11-15T11:08:28Z</time>
      </trkpt>
      <trkpt lat="45.96334" lon="4.77344">
        <ele>220</ele>
        <time>2018-11-15T11:08:29Z</time>
      </trkpt>
      <trkpt lat="45.96329" lon="4.77341">
        <ele>219</ele>
        <time>2018-11-15T11:08:30Z</time>
      </trkpt>
      <trkpt lat="45.96323" lon="4.77338">
        <ele>218</ele>
        <time>2018-11-15T11:08:31Z</time>
      </trkpt>
      <trkpt lat="45.96317" lon="4.77336">
        <ele>218</ele>
        <time>2018-11-15T11:08:32Z</time>
      </trkpt>
      <trkpt lat="45.96311" lon="4.77332">
        <ele>219</ele>
        <time>2018-11-15T11:08:33Z</time>
      </trkpt>
      <trkpt lat="45.96305" lon="4.7733">
        <ele>219</ele>
        <time>2018-11-15T11:08:34Z</time>
      </trkpt>
      <trkpt lat="45.96299" lon="4.77326">
        <ele>219</ele>
        <time>2018-11-15T11:08:35Z</time>
      </trkpt>
      <trkpt lat="45.96292" lon="4.77323">
        <ele>219</ele>
        <time>2018-11-15T11:08:36Z</time>
      </trkpt>
      <trkpt lat="45.96284" lon="4.77319">
        <ele>219</ele>
        <time>2018-11-15T11:08:37Z</time>
      </trkpt>
      <trkpt lat="45.96278" lon="4.77316">
        <ele>219</ele>
        <time>2018-11-15T11:08:38Z</time>
      </trkpt>
      <trkpt lat="45.96272" lon="4.77312">
        <ele>219</ele>
        <time>2018-11-15T11:08:39Z</time>
      </trkpt>
      <trkpt lat="45.96266" lon="4.77309">
        <ele>219</ele>
        <time>2018-11-15T11:08:40Z</time>
      </trkpt>
      <trkpt lat="45.96259" lon="4.77307">
        <ele>218</ele>
        <time>2018-11-15T11:08:41Z</time>
      </trkpt>
      <trkpt lat="45.96253" lon="4.77305">
        <ele>219</ele>
        <time>2018-11-15T11:08:42Z</time>
      </trkpt>
      <trkpt lat="45.96247" lon="4.77302">
        <ele>217</ele>
        <time>2018-11-15T11:08:43Z</time>
      </trkpt>
      <trkpt lat="45.96241" lon="4.77299">
        <ele>217</ele>
        <time>2018-11-15T11:08:44Z</time>
      </trkpt>
      <trkpt lat="45.96236" lon="4.77295">
        <ele>217</ele>
        <time>2018-11-15T11:08:45Z</time>
      </trkpt>
      <trkpt lat="45.9623" lon="4.77292">
        <ele>217</ele>
        <time>2018-11-15T11:08:46Z</time>
      </trkpt>
      <trkpt lat="45.96224" lon="4.7729">
        <ele>217</ele>
        <time>2018-11-15T11:08:47Z</time>
      </trkpt>
      <trkpt lat="45.96219" lon="4.77287">
        <ele>217</ele>
        <time>2018-11-15T11:08:48Z</time>
      </trkpt>
      <trkpt lat="45.96214" lon="4.77283">
        <ele>217</ele>
        <time>2018-11-15T11:08:49Z</time>
      </trkpt>
      <trkpt lat="45.96209" lon="4.7728">
        <ele>217</ele>
        <time>2018-11-15T11:08:50Z</time>
      </trkpt>
      <trkpt lat="45.96204" lon="4.77277">
        <ele>216</ele>
        <time>2018-11-15T11:08:51Z</time>
      </trkpt>
      <trkpt lat="45.96199" lon="4.77274">
        <ele>216</ele>
        <time>2018-11-15T11:08:52Z</time>
      </trkpt>
      <trkpt lat="45.96193" lon="4.77271">
        <ele>216</ele>
        <time>2018-11-15T11:08:53Z</time>
      </trkpt>
      <trkpt lat="45.96188" lon="4.77268">
        <ele>216</ele>
        <time>2018-11-15T11:08:54Z</time>
      </trkpt>
      <trkpt lat="45.96182" lon="4.77264">
        <ele>216</ele>
        <time>2018-11-15T11:08:55Z</time>
      </trkpt>
      <trkpt lat="45.96178" lon="4.77261">
        <ele>216</ele>
        <time>2018-11-15T11:08:56Z</time>
      </trkpt>
      <trkpt lat="45.96173" lon="4.77259">
        <ele>216</ele>
        <time>2018-11-15T11:08:57Z</time>
      </trkpt>
      <trkpt lat="45.96167" lon="4.77256">
        <ele>216</ele>
        <time>2018-11-15T11:08:58Z</time>
      </trkpt>
      <trkpt lat="45.96164" lon="4.77251">
        <ele>215</ele>
        <time>2018-11-15T11:08:59Z</time>
      </trkpt>
      <trkpt lat="45.96158" lon="4.7725">
        <ele>216</ele>
        <time>2018-11-15T11:09:00Z</time>
      </trkpt>
      <trkpt lat="45.96153" lon="4.77246">
        <ele>215</ele>
        <time>2018-11-15T11:09:01Z</time>
      </trkpt>
      <trkpt lat="45.96147" lon="4.77244">
        <ele>215</ele>
        <time>2018-11-15T11:09:02Z</time>
      </trkpt>
      <trkpt lat="45.96141" lon="4.77241">
        <ele>215</ele>
        <time>2018-11-15T11:09:03Z</time>
      </trkpt>
      <trkpt lat="45.96134" lon="4.77239">
        <ele>215</ele>
        <time>2018-11-15T11:09:04Z</time>
      </trkpt>
      <trkpt lat="45.96128" lon="4.77239">
        <ele>214</ele>
        <time>2018-11-15T11:09:05Z</time>
      </trkpt>
      <trkpt lat="45.96122" lon="4.77239">
        <ele>214</ele>
        <time>2018-11-15T11:09:06Z</time>
      </trkpt>
      <trkpt lat="45.96115" lon="4.7724">
        <ele>214</ele>
        <time>2018-11-15T11:09:07Z</time>
      </trkpt>
      <trkpt lat="45.9611" lon="4.7724">
        <ele>213</ele>
        <time>2018-11-15T11:09:08Z</time>
      </trkpt>
      <trkpt lat="45.96103" lon="4.77241">
        <ele>213</ele>
        <time>2018-11-15T11:09:09Z</time>
      </trkpt>
      <trkpt lat="45.96097" lon="4.77241">
        <ele>212</ele>
        <time>2018-11-15T11:09:10Z</time>
      </trkpt>
      <trkpt lat="45.96091" lon="4.7724">
        <ele>212</ele>
        <time>2018-11-15T11:09:11Z</time>
      </trkpt>
      <trkpt lat="45.96085" lon="4.7724">
        <ele>212</ele>
        <time>2018-11-15T11:09:12Z</time>
      </trkpt>
      <trkpt lat="45.96078" lon="4.77242">
        <ele>210</ele>
        <time>2018-11-15T11:09:13Z</time>
      </trkpt>
      <trkpt lat="45.96072" lon="4.77242">
        <ele>210</ele>
        <time>2018-11-15T11:09:14Z</time>
      </trkpt>
      <trkpt lat="45.96065" lon="4.77244">
        <ele>209</ele>
        <time>2018-11-15T11:09:15Z</time>
      </trkpt>
      <trkpt lat="45.96059" lon="4.77245">
        <ele>209</ele>
        <time>2018-11-15T11:09:16Z</time>
      </trkpt>
      <trkpt lat="45.96052" lon="4.77245">
        <ele>209</ele>
        <time>2018-11-15T11:09:17Z</time>
      </trkpt>
      <trkpt lat="45.96044" lon="4.77246">
        <ele>208</ele>
        <time>2018-11-15T11:09:18Z</time>
      </trkpt>
      <trkpt lat="45.96038" lon="4.77246">
        <ele>208</ele>
        <time>2018-11-15T11:09:19Z</time>
      </trkpt>
      <trkpt lat="45.96029" lon="4.77246">
        <ele>207</ele>
        <time>2018-11-15T11:09:20Z</time>
      </trkpt>
      <trkpt lat="45.96023" lon="4.77246">
        <ele>207</ele>
        <time>2018-11-15T11:09:21Z</time>
      </trkpt>
      <trkpt lat="45.96014" lon="4.77247">
        <ele>206</ele>
        <time>2018-11-15T11:09:22Z</time>
      </trkpt>
      <trkpt lat="45.96006" lon="4.77246">
        <ele>205</ele>
        <time>2018-11-15T11:09:23Z</time>
      </trkpt>
      <trkpt lat="45.95999" lon="4.77244">
        <ele>203</ele>
        <time>2018-11-15T11:09:24Z</time>
      </trkpt>
      <trkpt lat="45.95992" lon="4.77241">
        <ele>202</ele>
        <time>2018-11-15T11:09:25Z</time>
      </trkpt>
      <trkpt lat="45.95984" lon="4.77237">
        <ele>202</ele>
        <time>2018-11-15T11:09:26Z</time>
      </trkpt>
      <trkpt lat="45.95978" lon="4.77232">
        <ele>202</ele>
        <time>2018-11-15T11:09:27Z</time>
      </trkpt>
      <trkpt lat="45.9597" lon="4.77226">
        <ele>202</ele>
        <time>2018-11-15T11:09:28Z</time>
      </trkpt>
      <trkpt lat="45.95964" lon="4.7722">
        <ele>201</ele>
        <time>2018-11-15T11:09:29Z</time>
      </trkpt>
      <trkpt lat="45.9596" lon="4.77212">
        <ele>201</ele>
        <time>2018-11-15T11:09:30Z</time>
      </trkpt>
      <trkpt lat="45.95955" lon="4.77202">
        <ele>201</ele>
        <time>2018-11-15T11:09:31Z</time>
      </trkpt>
      <trkpt lat="45.95951" lon="4.77192">
        <ele>201</ele>
        <time>2018-11-15T11:09:32Z</time>
      </trkpt>
      <trkpt lat="45.95948" lon="4.7718">
        <ele>201</ele>
        <time>2018-11-15T11:09:33Z</time>
      </trkpt>
      <trkpt lat="45.95945" lon="4.77169">
        <ele>200</ele>
        <time>2018-11-15T11:09:34Z</time>
      </trkpt>
      <trkpt lat="45.95943" lon="4.77159">
        <ele>201</ele>
        <time>2018-11-15T11:09:35Z</time>
      </trkpt>
      <trkpt lat="45.95942" lon="4.77148">
        <ele>201</ele>
        <time>2018-11-15T11:09:36Z</time>
      </trkpt>
      <trkpt lat="45.95942" lon="4.77136">
        <ele>201</ele>
        <time>2018-11-15T11:09:37Z</time>
      </trkpt>
      <trkpt lat="45.95942" lon="4.77125">
        <ele>201</ele>
        <time>2018-11-15T11:09:38Z</time>
      </trkpt>
      <trkpt lat="45.95944" lon="4.77115">
        <ele>201</ele>
        <time>2018-11-15T11:09:39Z</time>
      </trkpt>
      <trkpt lat="45.95945" lon="4.77107">
        <ele>201</ele>
        <time>2018-11-15T11:09:40Z</time>
      </trkpt>
      <trkpt lat="45.95947" lon="4.77094">
        <ele>201</ele>
        <time>2018-11-15T11:09:41Z</time>
      </trkpt>
      <trkpt lat="45.95949" lon="4.77083">
        <ele>200</ele>
        <time>2018-11-15T11:09:42Z</time>
      </trkpt>
      <trkpt lat="45.95952" lon="4.77073">
        <ele>200</ele>
        <time>2018-11-15T11:09:43Z</time>
      </trkpt>
      <trkpt lat="45.95955" lon="4.77063">
        <ele>200</ele>
        <time>2018-11-15T11:09:44Z</time>
      </trkpt>
      <trkpt lat="45.95958" lon="4.77054">
        <ele>200</ele>
        <time>2018-11-15T11:09:45Z</time>
      </trkpt>
      <trkpt lat="45.95962" lon="4.77044">
        <ele>200</ele>
        <time>2018-11-15T11:09:46Z</time>
      </trkpt>
      <trkpt lat="45.95966" lon="4.77033">
        <ele>200</ele>
        <time>2018-11-15T11:09:47Z</time>
      </trkpt>
      <trkpt lat="45.95971" lon="4.77023">
        <ele>200</ele>
        <time>2018-11-15T11:09:48Z</time>
      </trkpt>
      <trkpt lat="45.95974" lon="4.77012">
        <ele>200</ele>
        <time>2018-11-15T11:09:49Z</time>
      </trkpt>
      <trkpt lat="45.95978" lon="4.77002">
        <ele>200</ele>
        <time>2018-11-15T11:09:50Z</time>
      </trkpt>
      <trkpt lat="45.95982" lon="4.76991">
        <ele>198</ele>
        <time>2018-11-15T11:09:51Z</time>
      </trkpt>
      <trkpt lat="45.95985" lon="4.7698">
        <ele>197</ele>
        <time>2018-11-15T11:09:52Z</time>
      </trkpt>
      <trkpt lat="45.95987" lon="4.76969">
        <ele>197</ele>
        <time>2018-11-15T11:09:53Z</time>
      </trkpt>
      <trkpt lat="45.95986" lon="4.76957">
        <ele>196</ele>
        <time>2018-11-15T11:09:54Z</time>
      </trkpt>
      <trkpt lat="45.95982" lon="4.76946">
        <ele>196</ele>
        <time>2018-11-15T11:09:55Z</time>
      </trkpt>
      <trkpt lat="45.95976" lon="4.76937">
        <ele>196</ele>
        <time>2018-11-15T11:09:56Z</time>
      </trkpt>
      <trkpt lat="45.9597" lon="4.76931">
        <ele>195</ele>
        <time>2018-11-15T11:09:57Z</time>
      </trkpt>
      <trkpt lat="45.95964" lon="4.76924">
        <ele>195</ele>
        <time>2018-11-15T11:09:58Z</time>
      </trkpt>
      <trkpt lat="45.95958" lon="4.76917">
        <ele>195</ele>
        <time>2018-11-15T11:09:59Z</time>
      </trkpt>
      <trkpt lat="45.95952" lon="4.7691">
        <ele>193</ele>
        <time>2018-11-15T11:10:00Z</time>
      </trkpt>
      <trkpt lat="45.95945" lon="4.76903">
        <ele>193</ele>
        <time>2018-11-15T11:10:01Z</time>
      </trkpt>
      <trkpt lat="45.95939" lon="4.76896">
        <ele>192</ele>
        <time>2018-11-15T11:10:02Z</time>
      </trkpt>
      <trkpt lat="45.95932" lon="4.76888">
        <ele>192</ele>
        <time>2018-11-15T11:10:03Z</time>
      </trkpt>
      <trkpt lat="45.95926" lon="4.76881">
        <ele>192</ele>
        <time>2018-11-15T11:10:04Z</time>
      </trkpt>
      <trkpt lat="45.95919" lon="4.76874">
        <ele>192</ele>
        <time>2018-11-15T11:10:05Z</time>
      </trkpt>
      <trkpt lat="45.95913" lon="4.76867">
        <ele>191</ele>
        <time>2018-11-15T11:10:06Z</time>
      </trkpt>
      <trkpt lat="45.95907" lon="4.7686">
        <ele>191</ele>
        <time>2018-11-15T11:10:07Z</time>
      </trkpt>
      <trkpt lat="45.95901" lon="4.76853">
        <ele>191</ele>
        <time>2018-11-15T11:10:08Z</time>
      </trkpt>
      <trkpt lat="45.95895" lon="4.76846">
        <ele>191</ele>
        <time>2018-11-15T11:10:09Z</time>
      </trkpt>
      <trkpt lat="45.95888" lon="4.7684">
        <ele>191</ele>
        <time>2018-11-15T11:10:10Z</time>
      </trkpt>
      <trkpt lat="45.95882" lon="4.76834">
        <ele>191</ele>
        <time>2018-11-15T11:10:11Z</time>
      </trkpt>
      <trkpt lat="45.95876" lon="4.76829">
        <ele>191</ele>
        <time>2018-11-15T11:10:12Z</time>
      </trkpt>
      <trkpt lat="45.9587" lon="4.76823">
        <ele>191</ele>
        <time>2018-11-15T11:10:13Z</time>
      </trkpt>
      <trkpt lat="45.95864" lon="4.76817">
        <ele>191</ele>
        <time>2018-11-15T11:10:14Z</time>
      </trkpt>
      <trkpt lat="45.95858" lon="4.76811">
        <ele>191</ele>
        <time>2018-11-15T11:10:15Z</time>
      </trkpt>
      <trkpt lat="45.95853" lon="4.76804">
        <ele>191</ele>
        <time>2018-11-15T11:10:16Z</time>
      </trkpt>
      <trkpt lat="45.95848" lon="4.76797">
        <ele>191</ele>
        <time>2018-11-15T11:10:17Z</time>
      </trkpt>
      <trkpt lat="45.95843" lon="4.7679">
        <ele>191</ele>
        <time>2018-11-15T11:10:18Z</time>
      </trkpt>
      <trkpt lat="45.95839" lon="4.76783">
        <ele>191</ele>
        <time>2018-11-15T11:10:19Z</time>
      </trkpt>
      <trkpt lat="45.95834" lon="4.76775">
        <ele>191</ele>
        <time>2018-11-15T11:10:20Z</time>
      </trkpt>
      <trkpt lat="45.95829" lon="4.76768">
        <ele>190</ele>
        <time>2018-11-15T11:10:21Z</time>
      </trkpt>
      <trkpt lat="45.95827" lon="4.7676">
        <ele>191</ele>
        <time>2018-11-15T11:10:22Z</time>
      </trkpt>
      <trkpt lat="45.95824" lon="4.76752">
        <ele>191</ele>
        <time>2018-11-15T11:10:23Z</time>
      </trkpt>
      <trkpt lat="45.95824" lon="4.76744">
        <ele>190</ele>
        <time>2018-11-15T11:10:24Z</time>
      </trkpt>
      <trkpt lat="45.95823" lon="4.76735">
        <ele>190</ele>
        <time>2018-11-15T11:10:25Z</time>
      </trkpt>
      <trkpt lat="45.95823" lon="4.76725">
        <ele>190</ele>
        <time>2018-11-15T11:10:26Z</time>
      </trkpt>
      <trkpt lat="45.95821" lon="4.76717">
        <ele>189</ele>
        <time>2018-11-15T11:10:27Z</time>
      </trkpt>
      <trkpt lat="45.9582" lon="4.76709">
        <ele>189</ele>
        <time>2018-11-15T11:10:28Z</time>
      </trkpt>
      <trkpt lat="45.95819" lon="4.76701">
        <ele>189</ele>
        <time>2018-11-15T11:10:29Z</time>
      </trkpt>
      <trkpt lat="45.95818" lon="4.76693">
        <ele>189</ele>
        <time>2018-11-15T11:10:30Z</time>
      </trkpt>
      <trkpt lat="45.95818" lon="4.76687">
        <ele>189</ele>
        <time>2018-11-15T11:10:31Z</time>
      </trkpt>
      <trkpt lat="45.95817" lon="4.76678">
        <ele>189</ele>
        <time>2018-11-15T11:10:32Z</time>
      </trkpt>
      <trkpt lat="45.95815" lon="4.7667">
        <ele>189</ele>
        <time>2018-11-15T11:10:33Z</time>
      </trkpt>
      <trkpt lat="45.95814" lon="4.76661">
        <ele>188</ele>
        <time>2018-11-15T11:10:34Z</time>
      </trkpt>
      <trkpt lat="45.95813" lon="4.76653">
        <ele>188</ele>
        <time>2018-11-15T11:10:35Z</time>
      </trkpt>
      <trkpt lat="45.95811" lon="4.76642">
        <ele>188</ele>
        <time>2018-11-15T11:10:36Z</time>
      </trkpt>
      <trkpt lat="45.95809" lon="4.76633">
        <ele>188</ele>
        <time>2018-11-15T11:10:37Z</time>
      </trkpt>
      <trkpt lat="45.95808" lon="4.76624">
        <ele>188</ele>
        <time>2018-11-15T11:10:38Z</time>
      </trkpt>
      <trkpt lat="45.95808" lon="4.76617">
        <ele>188</ele>
        <time>2018-11-15T11:10:39Z</time>
      </trkpt>
      <trkpt lat="45.95807" lon="4.7661">
        <ele>188</ele>
        <time>2018-11-15T11:10:40Z</time>
      </trkpt>
      <trkpt lat="45.95806" lon="4.76601">
        <ele>188</ele>
        <time>2018-11-15T11:10:41Z</time>
      </trkpt>
      <trkpt lat="45.95804" lon="4.76596">
        <ele>188</ele>
        <time>2018-11-15T11:10:42Z</time>
      </trkpt>
      <trkpt lat="45.95802" lon="4.76589">
        <ele>187</ele>
        <time>2018-11-15T11:10:43Z</time>
      </trkpt>
      <trkpt lat="45.95802" lon="4.76581">
        <ele>187</ele>
        <time>2018-11-15T11:10:44Z</time>
      </trkpt>
      <trkpt lat="45.95801" lon="4.76574">
        <ele>187</ele>
        <time>2018-11-15T11:10:45Z</time>
      </trkpt>
      <trkpt lat="45.958" lon="4.76566">
        <ele>187</ele>
        <time>2018-11-15T11:10:46Z</time>
      </trkpt>
      <trkpt lat="45.95799" lon="4.7656">
        <ele>187</ele>
        <time>2018-11-15T11:10:47Z</time>
      </trkpt>
      <trkpt lat="45.95798" lon="4.76552">
        <ele>187</ele>
        <time>2018-11-15T11:10:48Z</time>
      </trkpt>
      <trkpt lat="45.95796" lon="4.76545">
        <ele>187</ele>
        <time>2018-11-15T11:10:49Z</time>
      </trkpt>
      <trkpt lat="45.95796" lon="4.76537">
        <ele>187</ele>
        <time>2018-11-15T11:10:50Z</time>
      </trkpt>
      <trkpt lat="45.95794" lon="4.76529">
        <ele>187</ele>
        <time>2018-11-15T11:10:51Z</time>
      </trkpt>
      <trkpt lat="45.95793" lon="4.76521">
        <ele>187</ele>
        <time>2018-11-15T11:10:52Z</time>
      </trkpt>
      <trkpt lat="45.95792" lon="4.76513">
        <ele>187</ele>
        <time>2018-11-15T11:10:53Z</time>
      </trkpt>
      <trkpt lat="45.95791" lon="4.76505">
        <ele>187</ele>
        <time>2018-11-15T11:10:54Z</time>
      </trkpt>
      <trkpt lat="45.9579" lon="4.76498">
        <ele>186</ele>
        <time>2018-11-15T11:10:55Z</time>
      </trkpt>
      <trkpt lat="45.95788" lon="4.7649">
        <ele>186</ele>
        <time>2018-11-15T11:10:56Z</time>
      </trkpt>
      <trkpt lat="45.95788" lon="4.76483">
        <ele>186</ele>
        <time>2018-11-15T11:10:57Z</time>
      </trkpt>
      <trkpt lat="45.95787" lon="4.76473">
        <ele>186</ele>
        <time>2018-11-15T11:10:58Z</time>
      </trkpt>
      <trkpt lat="45.95786" lon="4.76464">
        <ele>186</ele>
        <time>2018-11-15T11:10:59Z</time>
      </trkpt>
      <trkpt lat="45.95784" lon="4.76455">
        <ele>186</ele>
        <time>2018-11-15T11:11:00Z</time>
      </trkpt>
      <trkpt lat="45.95783" lon="4.76448">
        <ele>186</ele>
        <time>2018-11-15T11:11:01Z</time>
      </trkpt>
      <trkpt lat="45.95782" lon="4.76441">
        <ele>186</ele>
        <time>2018-11-15T11:11:02Z</time>
      </trkpt>
      <trkpt lat="45.95781" lon="4.76433">
        <ele>186</ele>
        <time>2018-11-15T11:11:03Z</time>
      </trkpt>
      <trkpt lat="45.95781" lon="4.76423">
        <ele>186</ele>
        <time>2018-11-15T11:11:04Z</time>
      </trkpt>
      <trkpt lat="45.9578" lon="4.76417">
        <ele>186</ele>
        <time>2018-11-15T11:11:05Z</time>
      </trkpt>
      <trkpt lat="45.95777" lon="4.76405">
        <ele>186</ele>
        <time>2018-11-15T11:11:07Z</time>
      </trkpt>
      <trkpt lat="45.95776" lon="4.764">
        <ele>186</ele>
        <time>2018-11-15T11:11:08Z</time>
      </trkpt>
      <trkpt lat="45.95776" lon="4.76392">
        <ele>186</ele>
        <time>2018-11-15T11:11:09Z</time>
      </trkpt>
      <trkpt lat="45.95775" lon="4.76386">
        <ele>186</ele>
        <time>2018-11-15T11:11:10Z</time>
      </trkpt>
      <trkpt lat="45.95775" lon="4.76378">
        <ele>186</ele>
        <time>2018-11-15T11:11:11Z</time>
      </trkpt>
      <trkpt lat="45.95774" lon="4.76372">
        <ele>186</ele>
        <time>2018-11-15T11:11:12Z</time>
      </trkpt>
      <trkpt lat="45.95774" lon="4.76364">
        <ele>186</ele>
        <time>2018-11-15T11:11:13Z</time>
      </trkpt>
      <trkpt lat="45.95773" lon="4.76359">
        <ele>186</ele>
        <time>2018-11-15T11:11:14Z</time>
      </trkpt>
      <trkpt lat="45.95772" lon="4.76352">
        <ele>186</ele>
        <time>2018-11-15T11:11:15Z</time>
      </trkpt>
      <trkpt lat="45.95772" lon="4.76345">
        <ele>186</ele>
        <time>2018-11-15T11:11:16Z</time>
      </trkpt>
      <trkpt lat="45.95772" lon="4.76338">
        <ele>186</ele>
        <time>2018-11-15T11:11:17Z</time>
      </trkpt>
      <trkpt lat="45.95772" lon="4.76331">
        <ele>185</ele>
        <time>2018-11-15T11:11:18Z</time>
      </trkpt>
      <trkpt lat="45.95771" lon="4.76324">
        <ele>185</ele>
        <time>2018-11-15T11:11:19Z</time>
      </trkpt>
      <trkpt lat="45.95771" lon="4.76317">
        <ele>185</ele>
        <time>2018-11-15T11:11:20Z</time>
      </trkpt>
      <trkpt lat="45.95771" lon="4.7631">
        <ele>186</ele>
        <time>2018-11-15T11:11:21Z</time>
      </trkpt>
      <trkpt lat="45.95772" lon="4.76302">
        <ele>186</ele>
        <time>2018-11-15T11:11:22Z</time>
      </trkpt>
      <trkpt lat="45.95772" lon="4.76294">
        <ele>186</ele>
        <time>2018-11-15T11:11:23Z</time>
      </trkpt>
      <trkpt lat="45.95772" lon="4.76286">
        <ele>186</ele>
        <time>2018-11-15T11:11:24Z</time>
      </trkpt>
      <trkpt lat="45.95771" lon="4.76276">
        <ele>186</ele>
        <time>2018-11-15T11:11:25Z</time>
      </trkpt>
      <trkpt lat="45.9577" lon="4.76268">
        <ele>186</ele>
        <time>2018-11-15T11:11:26Z</time>
      </trkpt>
      <trkpt lat="45.9577" lon="4.76262">
        <ele>185</ele>
        <time>2018-11-15T11:11:27Z</time>
      </trkpt>
      <trkpt lat="45.95769" lon="4.76254">
        <ele>185</ele>
        <time>2018-11-15T11:11:28Z</time>
      </trkpt>
      <trkpt lat="45.95768" lon="4.76246">
        <ele>186</ele>
        <time>2018-11-15T11:11:29Z</time>
      </trkpt>
      <trkpt lat="45.95768" lon="4.7624">
        <ele>186</ele>
        <time>2018-11-15T11:11:30Z</time>
      </trkpt>
      <trkpt lat="45.95767" lon="4.76233">
        <ele>186</ele>
        <time>2018-11-15T11:11:31Z</time>
      </trkpt>
      <trkpt lat="45.95767" lon="4.76226">
        <ele>186</ele>
        <time>2018-11-15T11:11:32Z</time>
      </trkpt>
      <trkpt lat="45.95767" lon="4.76219">
        <ele>186</ele>
        <time>2018-11-15T11:11:33Z</time>
      </trkpt>
      <trkpt lat="45.95767" lon="4.76213">
        <ele>186</ele>
        <time>2018-11-15T11:11:34Z</time>
      </trkpt>
      <trkpt lat="45.95767" lon="4.76206">
        <ele>186</ele>
        <time>2018-11-15T11:11:35Z</time>
      </trkpt>
      <trkpt lat="45.95766" lon="4.76197">
        <ele>186</ele>
        <time>2018-11-15T11:11:36Z</time>
      </trkpt>
      <trkpt lat="45.95764" lon="4.76185">
        <ele>186</ele>
        <time>2018-11-15T11:11:38Z</time>
      </trkpt>
      <trkpt lat="45.95763" lon="4.76178">
        <ele>185</ele>
        <time>2018-11-15T11:11:39Z</time>
      </trkpt>
      <trkpt lat="45.95763" lon="4.76171">
        <ele>185</ele>
        <time>2018-11-15T11:11:40Z</time>
      </trkpt>
      <trkpt lat="45.95762" lon="4.76162">
        <ele>186</ele>
        <time>2018-11-15T11:11:41Z</time>
      </trkpt>
      <trkpt lat="45.95761" lon="4.76155">
        <ele>186</ele>
        <time>2018-11-15T11:11:42Z</time>
      </trkpt>
      <trkpt lat="45.95763" lon="4.76149">
        <ele>186</ele>
        <time>2018-11-15T11:11:43Z</time>
      </trkpt>
      <trkpt lat="45.95761" lon="4.76142">
        <ele>186</ele>
        <time>2018-11-15T11:11:44Z</time>
      </trkpt>
      <trkpt lat="45.95761" lon="4.76135">
        <ele>186</ele>
        <time>2018-11-15T11:11:45Z</time>
      </trkpt>
      <trkpt lat="45.9576" lon="4.76127">
        <ele>186</ele>
        <time>2018-11-15T11:11:46Z</time>
      </trkpt>
      <trkpt lat="45.9576" lon="4.7612">
        <ele>186</ele>
        <time>2018-11-15T11:11:47Z</time>
      </trkpt>
      <trkpt lat="45.95759" lon="4.76112">
        <ele>186</ele>
        <time>2018-11-15T11:11:48Z</time>
      </trkpt>
      <trkpt lat="45.95758" lon="4.76106">
        <ele>186</ele>
        <time>2018-11-15T11:11:49Z</time>
      </trkpt>
      <trkpt lat="45.95755" lon="4.76099">
        <ele>186</ele>
        <time>2018-11-15T11:11:50Z</time>
      </trkpt>
      <trkpt lat="45.95753" lon="4.76092">
        <ele>185</ele>
        <time>2018-11-15T11:11:51Z</time>
      </trkpt>
      <trkpt lat="45.95751" lon="4.76085">
        <ele>185</ele>
        <time>2018-11-15T11:11:52Z</time>
      </trkpt>
      <trkpt lat="45.95748" lon="4.76079">
        <ele>185</ele>
        <time>2018-11-15T11:11:53Z</time>
      </trkpt>
      <trkpt lat="45.95746" lon="4.76072">
        <ele>185</ele>
        <time>2018-11-15T11:11:54Z</time>
      </trkpt>
      <trkpt lat="45.95744" lon="4.76066">
        <ele>185</ele>
        <time>2018-11-15T11:11:55Z</time>
      </trkpt>
      <trkpt lat="45.95741" lon="4.76058">
        <ele>184</ele>
        <time>2018-11-15T11:11:56Z</time>
      </trkpt>
      <trkpt lat="45.95738" lon="4.76052">
        <ele>184</ele>
        <time>2018-11-15T11:11:57Z</time>
      </trkpt>
      <trkpt lat="45.95735" lon="4.76047">
        <ele>184</ele>
        <time>2018-11-15T11:11:58Z</time>
      </trkpt>
      <trkpt lat="45.95732" lon="4.76042">
        <ele>184</ele>
        <time>2018-11-15T11:11:59Z</time>
      </trkpt>
      <trkpt lat="45.95729" lon="4.76036">
        <ele>184</ele>
        <time>2018-11-15T11:12:00Z</time>
      </trkpt>
      <trkpt lat="45.95726" lon="4.7603">
        <ele>184</ele>
        <time>2018-11-15T11:12:01Z</time>
      </trkpt>
      <trkpt lat="45.95723" lon="4.76024">
        <ele>184</ele>
        <time>2018-11-15T11:12:02Z</time>
      </trkpt>
      <trkpt lat="45.95721" lon="4.76017">
        <ele>184</ele>
        <time>2018-11-15T11:12:03Z</time>
      </trkpt>
      <trkpt lat="45.95719" lon="4.76011">
        <ele>184</ele>
        <time>2018-11-15T11:12:04Z</time>
      </trkpt>
      <trkpt lat="45.95714" lon="4.76003">
        <ele>184</ele>
        <time>2018-11-15T11:12:05Z</time>
      </trkpt>
      <trkpt lat="45.95711" lon="4.75996">
        <ele>185</ele>
        <time>2018-11-15T11:12:06Z</time>
      </trkpt>
      <trkpt lat="45.95708" lon="4.75989">
        <ele>185</ele>
        <time>2018-11-15T11:12:07Z</time>
      </trkpt>
      <trkpt lat="45.95704" lon="4.75984">
        <ele>185</ele>
        <time>2018-11-15T11:12:08Z</time>
      </trkpt>
      <trkpt lat="45.95702" lon="4.75976">
        <ele>185</ele>
        <time>2018-11-15T11:12:09Z</time>
      </trkpt>
      <trkpt lat="45.95699" lon="4.7597">
        <ele>185</ele>
        <time>2018-11-15T11:12:10Z</time>
      </trkpt>
      <trkpt lat="45.95695" lon="4.75963">
        <ele>185</ele>
        <time>2018-11-15T11:12:11Z</time>
      </trkpt>
      <trkpt lat="45.95692" lon="4.75956">
        <ele>185</ele>
        <time>2018-11-15T11:12:12Z</time>
      </trkpt>
      <trkpt lat="45.95689" lon="4.7595">
        <ele>185</ele>
        <time>2018-11-15T11:12:13Z</time>
      </trkpt>
      <trkpt lat="45.95686" lon="4.75944">
        <ele>185</ele>
        <time>2018-11-15T11:12:14Z</time>
      </trkpt>
      <trkpt lat="45.95684" lon="4.75937">
        <ele>185</ele>
        <time>2018-11-15T11:12:15Z</time>
      </trkpt>
      <trkpt lat="45.9568" lon="4.7593">
        <ele>185</ele>
        <time>2018-11-15T11:12:16Z</time>
      </trkpt>
      <trkpt lat="45.95678" lon="4.75923">
        <ele>185</ele>
        <time>2018-11-15T11:12:17Z</time>
      </trkpt>
      <trkpt lat="45.95675" lon="4.75916">
        <ele>185</ele>
        <time>2018-11-15T11:12:18Z</time>
      </trkpt>
      <trkpt lat="45.95672" lon="4.75909">
        <ele>185</ele>
        <time>2018-11-15T11:12:19Z</time>
      </trkpt>
      <trkpt lat="45.9567" lon="4.75902">
        <ele>185</ele>
        <time>2018-11-15T11:12:20Z</time>
      </trkpt>
      <trkpt lat="45.95668" lon="4.75894">
        <ele>186</ele>
        <time>2018-11-15T11:12:21Z</time>
      </trkpt>
      <trkpt lat="45.95666" lon="4.75887">
        <ele>184</ele>
        <time>2018-11-15T11:12:22Z</time>
      </trkpt>
      <trkpt lat="45.95664" lon="4.7588">
        <ele>184</ele>
        <time>2018-11-15T11:12:23Z</time>
      </trkpt>
      <trkpt lat="45.95661" lon="4.75874">
        <ele>184</ele>
        <time>2018-11-15T11:12:24Z</time>
      </trkpt>
      <trkpt lat="45.9566" lon="4.75867">
        <ele>184</ele>
        <time>2018-11-15T11:12:25Z</time>
      </trkpt>
      <trkpt lat="45.95658" lon="4.7586">
        <ele>184</ele>
        <time>2018-11-15T11:12:26Z</time>
      </trkpt>
      <trkpt lat="45.95657" lon="4.75853">
        <ele>185</ele>
        <time>2018-11-15T11:12:27Z</time>
      </trkpt>
      <trkpt lat="45.95655" lon="4.75846">
        <ele>185</ele>
        <time>2018-11-15T11:12:28Z</time>
      </trkpt>
      <trkpt lat="45.95654" lon="4.75839">
        <ele>185</ele>
        <time>2018-11-15T11:12:29Z</time>
      </trkpt>
      <trkpt lat="45.95652" lon="4.75831">
        <ele>185</ele>
        <time>2018-11-15T11:12:30Z</time>
      </trkpt>
      <trkpt lat="45.95651" lon="4.75825">
        <ele>185</ele>
        <time>2018-11-15T11:12:31Z</time>
      </trkpt>
      <trkpt lat="45.9565" lon="4.75817">
        <ele>185</ele>
        <time>2018-11-15T11:12:32Z</time>
      </trkpt>
      <trkpt lat="45.95648" lon="4.7581">
        <ele>185</ele>
        <time>2018-11-15T11:12:33Z</time>
      </trkpt>
      <trkpt lat="45.95647" lon="4.75803">
        <ele>185</ele>
        <time>2018-11-15T11:12:34Z</time>
      </trkpt>
      <trkpt lat="45.95646" lon="4.75797">
        <ele>185</ele>
        <time>2018-11-15T11:12:35Z</time>
      </trkpt>
      <trkpt lat="45.95645" lon="4.75785">
        <ele>186</ele>
        <time>2018-11-15T11:12:37Z</time>
      </trkpt>
      <trkpt lat="45.95644" lon="4.75778">
        <ele>186</ele>
        <time>2018-11-15T11:12:38Z</time>
      </trkpt>
      <trkpt lat="45.95643" lon="4.75771">
        <ele>186</ele>
        <time>2018-11-15T11:12:39Z</time>
      </trkpt>
      <trkpt lat="45.95643" lon="4.75763">
        <ele>186</ele>
        <time>2018-11-15T11:12:40Z</time>
      </trkpt>
      <trkpt lat="45.95641" lon="4.75756">
        <ele>186</ele>
        <time>2018-11-15T11:12:41Z</time>
      </trkpt>
      <trkpt lat="45.9564" lon="4.75749">
        <ele>187</ele>
        <time>2018-11-15T11:12:42Z</time>
      </trkpt>
      <trkpt lat="45.95639" lon="4.75741">
        <ele>187</ele>
        <time>2018-11-15T11:12:43Z</time>
      </trkpt>
      <trkpt lat="45.95639" lon="4.75733">
        <ele>187</ele>
        <time>2018-11-15T11:12:44Z</time>
      </trkpt>
      <trkpt lat="45.95638" lon="4.75726">
        <ele>187</ele>
        <time>2018-11-15T11:12:45Z</time>
      </trkpt>
      <trkpt lat="45.95637" lon="4.75718">
        <ele>187</ele>
        <time>2018-11-15T11:12:46Z</time>
      </trkpt>
      <trkpt lat="45.95636" lon="4.75711">
        <ele>187</ele>
        <time>2018-11-15T11:12:47Z</time>
      </trkpt>
      <trkpt lat="45.95635" lon="4.75704">
        <ele>187</ele>
        <time>2018-11-15T11:12:48Z</time>
      </trkpt>
      <trkpt lat="45.95634" lon="4.75696">
        <ele>187</ele>
        <time>2018-11-15T11:12:49Z</time>
      </trkpt>
      <trkpt lat="45.95633" lon="4.75689">
        <ele>187</ele>
        <time>2018-11-15T11:12:50Z</time>
      </trkpt>
      <trkpt lat="45.95632" lon="4.75682">
        <ele>188</ele>
        <time>2018-11-15T11:12:51Z</time>
      </trkpt>
      <trkpt lat="45.9563" lon="4.75676">
        <ele>188</ele>
        <time>2018-11-15T11:12:52Z</time>
      </trkpt>
      <trkpt lat="45.95628" lon="4.75669">
        <ele>187</ele>
        <time>2018-11-15T11:12:53Z</time>
      </trkpt>
      <trkpt lat="45.95626" lon="4.75662">
        <ele>188</ele>
        <time>2018-11-15T11:12:54Z</time>
      </trkpt>
      <trkpt lat="45.95624" lon="4.75655">
        <ele>188</ele>
        <time>2018-11-15T11:12:55Z</time>
      </trkpt>
      <trkpt lat="45.95622" lon="4.75648">
        <ele>188</ele>
        <time>2018-11-15T11:12:56Z</time>
      </trkpt>
      <trkpt lat="45.9562" lon="4.75641">
        <ele>188</ele>
        <time>2018-11-15T11:12:57Z</time>
      </trkpt>
      <trkpt lat="45.95618" lon="4.75633">
        <ele>188</ele>
        <time>2018-11-15T11:12:58Z</time>
      </trkpt>
      <trkpt lat="45.95616" lon="4.75626">
        <ele>188</ele>
        <time>2018-11-15T11:12:59Z</time>
      </trkpt>
      <trkpt lat="45.95614" lon="4.75619">
        <ele>188</ele>
        <time>2018-11-15T11:13:00Z</time>
      </trkpt>
      <trkpt lat="45.9561" lon="4.75608">
        <ele>188</ele>
        <time>2018-11-15T11:13:02Z</time>
      </trkpt>
      <trkpt lat="45.95608" lon="4.75601">
        <ele>187</ele>
        <time>2018-11-15T11:13:03Z</time>
      </trkpt>
      <trkpt lat="45.95605" lon="4.75594">
        <ele>187</ele>
        <time>2018-11-15T11:13:04Z</time>
      </trkpt>
      <trkpt lat="45.95602" lon="4.75588">
        <ele>187</ele>
        <time>2018-11-15T11:13:05Z</time>
      </trkpt>
      <trkpt lat="45.95599" lon="4.7558">
        <ele>188</ele>
        <time>2018-11-15T11:13:06Z</time>
      </trkpt>
      <trkpt lat="45.95597" lon="4.75575">
        <ele>188</ele>
        <time>2018-11-15T11:13:07Z</time>
      </trkpt>
      <trkpt lat="45.95594" lon="4.75569">
        <ele>188</ele>
        <time>2018-11-15T11:13:08Z</time>
      </trkpt>
      <trkpt lat="45.9559" lon="4.75563">
        <ele>188</ele>
        <time>2018-11-15T11:13:09Z</time>
      </trkpt>
      <trkpt lat="45.95586" lon="4.75556">
        <ele>188</ele>
        <time>2018-11-15T11:13:10Z</time>
      </trkpt>
      <trkpt lat="45.95582" lon="4.7555">
        <ele>186</ele>
        <time>2018-11-15T11:13:11Z</time>
      </trkpt>
      <trkpt lat="45.95579" lon="4.75545">
        <ele>186</ele>
        <time>2018-11-15T11:13:12Z</time>
      </trkpt>
      <trkpt lat="45.95575" lon="4.75539">
        <ele>186</ele>
        <time>2018-11-15T11:13:13Z</time>
      </trkpt>
      <trkpt lat="45.9557" lon="4.75534">
        <ele>186</ele>
        <time>2018-11-15T11:13:14Z</time>
      </trkpt>
      <trkpt lat="45.95566" lon="4.75528">
        <ele>186</ele>
        <time>2018-11-15T11:13:15Z</time>
      </trkpt>
      <trkpt lat="45.95561" lon="4.75524">
        <ele>186</ele>
        <time>2018-11-15T11:13:16Z</time>
      </trkpt>
      <trkpt lat="45.95557" lon="4.75518">
        <ele>186</ele>
        <time>2018-11-15T11:13:17Z</time>
      </trkpt>
      <trkpt lat="45.95553" lon="4.75513">
        <ele>186</ele>
        <time>2018-11-15T11:13:18Z</time>
      </trkpt>
      <trkpt lat="45.9555" lon="4.75508">
        <ele>186</ele>
        <time>2018-11-15T11:13:19Z</time>
      </trkpt>
      <trkpt lat="45.95546" lon="4.75501">
        <ele>186</ele>
        <time>2018-11-15T11:13:20Z</time>
      </trkpt>
      <trkpt lat="45.95544" lon="4.75494">
        <ele>187</ele>
        <time>2018-11-15T11:13:21Z</time>
      </trkpt>
      <trkpt lat="45.95542" lon="4.75487">
        <ele>187</ele>
        <time>2018-11-15T11:13:22Z</time>
      </trkpt>
      <trkpt lat="45.95542" lon="4.75481">
        <ele>187</ele>
        <time>2018-11-15T11:13:23Z</time>
      </trkpt>
      <trkpt lat="45.95542" lon="4.75474">
        <ele>187</ele>
        <time>2018-11-15T11:13:24Z</time>
      </trkpt>
      <trkpt lat="45.9554" lon="4.75467">
        <ele>187</ele>
        <time>2018-11-15T11:13:25Z</time>
      </trkpt>
      <trkpt lat="45.95537" lon="4.75462">
        <ele>187</ele>
        <time>2018-11-15T11:13:26Z</time>
      </trkpt>
      <trkpt lat="45.95534" lon="4.75456">
        <ele>187</ele>
        <time>2018-11-15T11:13:27Z</time>
      </trkpt>
      <trkpt lat="45.9553" lon="4.75451">
        <ele>187</ele>
        <time>2018-11-15T11:13:28Z</time>
      </trkpt>
      <trkpt lat="45.95525" lon="4.75447">
        <ele>187</ele>
        <time>2018-11-15T11:13:29Z</time>
      </trkpt>
      <trkpt lat="45.95521" lon="4.75439">
        <ele>187</ele>
        <time>2018-11-15T11:13:30Z</time>
      </trkpt>
      <trkpt lat="45.95517" lon="4.75432">
        <ele>187</ele>
        <time>2018-11-15T11:13:31Z</time>
      </trkpt>
      <trkpt lat="45.95514" lon="4.75425">
        <ele>186</ele>
        <time>2018-11-15T11:13:32Z</time>
      </trkpt>
      <trkpt lat="45.95511" lon="4.75419">
        <ele>186</ele>
        <time>2018-11-15T11:13:33Z</time>
      </trkpt>
      <trkpt lat="45.95509" lon="4.75412">
        <ele>187</ele>
        <time>2018-11-15T11:13:34Z</time>
      </trkpt>
      <trkpt lat="45.95507" lon="4.75405">
        <ele>187</ele>
        <time>2018-11-15T11:13:35Z</time>
      </trkpt>
      <trkpt lat="45.95505" lon="4.75399">
        <ele>187</ele>
        <time>2018-11-15T11:13:36Z</time>
      </trkpt>
      <trkpt lat="45.95502" lon="4.75394">
        <ele>188</ele>
        <time>2018-11-15T11:13:37Z</time>
      </trkpt>
      <trkpt lat="45.95498" lon="4.75382">
        <ele>185</ele>
        <time>2018-11-15T11:13:39Z</time>
      </trkpt>
      <trkpt lat="45.95495" lon="4.75376">
        <ele>185</ele>
        <time>2018-11-15T11:13:40Z</time>
      </trkpt>
      <trkpt lat="45.95492" lon="4.75371">
        <ele>185</ele>
        <time>2018-11-15T11:13:41Z</time>
      </trkpt>
      <trkpt lat="45.9549" lon="4.75365">
        <ele>186</ele>
        <time>2018-11-15T11:13:42Z</time>
      </trkpt>
      <trkpt lat="45.95487" lon="4.75359">
        <ele>186</ele>
        <time>2018-11-15T11:13:43Z</time>
      </trkpt>
      <trkpt lat="45.95485" lon="4.75353">
        <ele>186</ele>
        <time>2018-11-15T11:13:44Z</time>
      </trkpt>
      <trkpt lat="45.95482" lon="4.75346">
        <ele>186</ele>
        <time>2018-11-15T11:13:45Z</time>
      </trkpt>
      <trkpt lat="45.95479" lon="4.75341">
        <ele>186</ele>
        <time>2018-11-15T11:13:46Z</time>
      </trkpt>
      <trkpt lat="45.95474" lon="4.75332">
        <ele>188</ele>
        <time>2018-11-15T11:13:48Z</time>
      </trkpt>
      <trkpt lat="45.95473" lon="4.75325">
        <ele>188</ele>
        <time>2018-11-15T11:13:49Z</time>
      </trkpt>
      <trkpt lat="45.9547" lon="4.75318">
        <ele>188</ele>
        <time>2018-11-15T11:13:50Z</time>
      </trkpt>
      <trkpt lat="45.95467" lon="4.75313">
        <ele>188</ele>
        <time>2018-11-15T11:13:51Z</time>
      </trkpt>
      <trkpt lat="45.95464" lon="4.75308">
        <ele>188</ele>
        <time>2018-11-15T11:13:52Z</time>
      </trkpt>
      <trkpt lat="45.95461" lon="4.75301">
        <ele>188</ele>
        <time>2018-11-15T11:13:53Z</time>
      </trkpt>
      <trkpt lat="45.95456" lon="4.75291">
        <ele>188</ele>
        <time>2018-11-15T11:13:55Z</time>
      </trkpt>
      <trkpt lat="45.95452" lon="4.75285">
        <ele>189</ele>
        <time>2018-11-15T11:13:56Z</time>
      </trkpt>
      <trkpt lat="45.95448" lon="4.7528">
        <ele>189</ele>
        <time>2018-11-15T11:13:57Z</time>
      </trkpt>
      <trkpt lat="45.95445" lon="4.75274">
        <ele>189</ele>
        <time>2018-11-15T11:13:58Z</time>
      </trkpt>
      <trkpt lat="45.95442" lon="4.75269">
        <ele>189</ele>
        <time>2018-11-15T11:13:59Z</time>
      </trkpt>
      <trkpt lat="45.95439" lon="4.75263">
        <ele>189</ele>
        <time>2018-11-15T11:14:00Z</time>
      </trkpt>
      <trkpt lat="45.95435" lon="4.75258">
        <ele>189</ele>
        <time>2018-11-15T11:14:01Z</time>
      </trkpt>
      <trkpt lat="45.95432" lon="4.7525">
        <ele>189</ele>
        <time>2018-11-15T11:14:02Z</time>
      </trkpt>
      <trkpt lat="45.95428" lon="4.75243">
        <ele>190</ele>
        <time>2018-11-15T11:14:03Z</time>
      </trkpt>
      <trkpt lat="45.95425" lon="4.75238">
        <ele>190</ele>
        <time>2018-11-15T11:14:04Z</time>
      </trkpt>
      <trkpt lat="45.95422" lon="4.75232">
        <ele>190</ele>
        <time>2018-11-15T11:14:05Z</time>
      </trkpt>
      <trkpt lat="45.95419" lon="4.75226">
        <ele>191</ele>
        <time>2018-11-15T11:14:06Z</time>
      </trkpt>
      <trkpt lat="45.95416" lon="4.75221">
        <ele>189</ele>
        <time>2018-11-15T11:14:07Z</time>
      </trkpt>
      <trkpt lat="45.95412" lon="4.75216">
        <ele>189</ele>
        <time>2018-11-15T11:14:08Z</time>
      </trkpt>
      <trkpt lat="45.95409" lon="4.75211">
        <ele>189</ele>
        <time>2018-11-15T11:14:09Z</time>
      </trkpt>
      <trkpt lat="45.95406" lon="4.75206">
        <ele>189</ele>
        <time>2018-11-15T11:14:10Z</time>
      </trkpt>
      <trkpt lat="45.95404" lon="4.75199">
        <ele>189</ele>
        <time>2018-11-15T11:14:11Z</time>
      </trkpt>
      <trkpt lat="45.95401" lon="4.75193">
        <ele>189</ele>
        <time>2018-11-15T11:14:12Z</time>
      </trkpt>
      <trkpt lat="45.95398" lon="4.75187">
        <ele>189</ele>
        <time>2018-11-15T11:14:13Z</time>
      </trkpt>
      <trkpt lat="45.95395" lon="4.7518">
        <ele>189</ele>
        <time>2018-11-15T11:14:14Z</time>
      </trkpt>
      <trkpt lat="45.95391" lon="4.75176">
        <ele>189</ele>
        <time>2018-11-15T11:14:15Z</time>
      </trkpt>
      <trkpt lat="45.95388" lon="4.7517">
        <ele>189</ele>
        <time>2018-11-15T11:14:16Z</time>
      </trkpt>
      <trkpt lat="45.95384" lon="4.75164">
        <ele>191</ele>
        <time>2018-11-15T11:14:17Z</time>
      </trkpt>
      <trkpt lat="45.9538" lon="4.75159">
        <ele>191</ele>
        <time>2018-11-15T11:14:18Z</time>
      </trkpt>
      <trkpt lat="45.95378" lon="4.75152">
        <ele>191</ele>
        <time>2018-11-15T11:14:19Z</time>
      </trkpt>
      <trkpt lat="45.95375" lon="4.75146">
        <ele>191</ele>
        <time>2018-11-15T11:14:20Z</time>
      </trkpt>
      <trkpt lat="45.95372" lon="4.75138">
        <ele>191</ele>
        <time>2018-11-15T11:14:21Z</time>
      </trkpt>
      <trkpt lat="45.9537" lon="4.75133">
        <ele>191</ele>
        <time>2018-11-15T11:14:22Z</time>
      </trkpt>
      <trkpt lat="45.95367" lon="4.75128">
        <ele>191</ele>
        <time>2018-11-15T11:14:23Z</time>
      </trkpt>
      <trkpt lat="45.95365" lon="4.75122">
        <ele>191</ele>
        <time>2018-11-15T11:14:24Z</time>
      </trkpt>
      <trkpt lat="45.95361" lon="4.75118">
        <ele>192</ele>
        <time>2018-11-15T11:14:25Z</time>
      </trkpt>
      <trkpt lat="45.95358" lon="4.75113">
        <ele>192</ele>
        <time>2018-11-15T11:14:26Z</time>
      </trkpt>
      <trkpt lat="45.95355" lon="4.75109">
        <ele>192</ele>
        <time>2018-11-15T11:14:27Z</time>
      </trkpt>
      <trkpt lat="45.95351" lon="4.75104">
        <ele>192</ele>
        <time>2018-11-15T11:14:28Z</time>
      </trkpt>
      <trkpt lat="45.95348" lon="4.75098">
        <ele>192</ele>
        <time>2018-11-15T11:14:29Z</time>
      </trkpt>
      <trkpt lat="45.95343" lon="4.75094">
        <ele>192</ele>
        <time>2018-11-15T11:14:30Z</time>
      </trkpt>
      <trkpt lat="45.95339" lon="4.75088">
        <ele>193</ele>
        <time>2018-11-15T11:14:31Z</time>
      </trkpt>
      <trkpt lat="45.95335" lon="4.75082">
        <ele>193</ele>
        <time>2018-11-15T11:14:32Z</time>
      </trkpt>
      <trkpt lat="45.95331" lon="4.75076">
        <ele>193</ele>
        <time>2018-11-15T11:14:33Z</time>
      </trkpt>
      <trkpt lat="45.95328" lon="4.75072">
        <ele>192</ele>
        <time>2018-11-15T11:14:34Z</time>
      </trkpt>
      <trkpt lat="45.95325" lon="4.75066">
        <ele>192</ele>
        <time>2018-11-15T11:14:35Z</time>
      </trkpt>
      <trkpt lat="45.95321" lon="4.75059">
        <ele>192</ele>
        <time>2018-11-15T11:14:36Z</time>
      </trkpt>
      <trkpt lat="45.95317" lon="4.75055">
        <ele>192</ele>
        <time>2018-11-15T11:14:37Z</time>
      </trkpt>
      <trkpt lat="45.95314" lon="4.7505">
        <ele>192</ele>
        <time>2018-11-15T11:14:38Z</time>
      </trkpt>
      <trkpt lat="45.9531" lon="4.75046">
        <ele>192</ele>
        <time>2018-11-15T11:14:39Z</time>
      </trkpt>
      <trkpt lat="45.95307" lon="4.75041">
        <ele>192</ele>
        <time>2018-11-15T11:14:40Z</time>
      </trkpt>
      <trkpt lat="45.953" lon="4.75032">
        <ele>191</ele>
        <time>2018-11-15T11:14:42Z</time>
      </trkpt>
      <trkpt lat="45.95297" lon="4.75027">
        <ele>191</ele>
        <time>2018-11-15T11:14:43Z</time>
      </trkpt>
      <trkpt lat="45.95291" lon="4.75018">
        <ele>191</ele>
        <time>2018-11-15T11:14:45Z</time>
      </trkpt>
      <trkpt lat="45.95287" lon="4.75013">
        <ele>191</ele>
        <time>2018-11-15T11:14:46Z</time>
      </trkpt>
      <trkpt lat="45.9528" lon="4.75006">
        <ele>191</ele>
        <time>2018-11-15T11:14:48Z</time>
      </trkpt>
      <trkpt lat="45.95279" lon="4.75">
        <ele>192</ele>
        <time>2018-11-15T11:14:49Z</time>
      </trkpt>
      <trkpt lat="45.95276" lon="4.74993">
        <ele>192</ele>
        <time>2018-11-15T11:14:50Z</time>
      </trkpt>
      <trkpt lat="45.95273" lon="4.74987">
        <ele>192</ele>
        <time>2018-11-15T11:14:51Z</time>
      </trkpt>
      <trkpt lat="45.95269" lon="4.7498">
        <ele>192</ele>
        <time>2018-11-15T11:14:52Z</time>
      </trkpt>
      <trkpt lat="45.95265" lon="4.74975">
        <ele>192</ele>
        <time>2018-11-15T11:14:53Z</time>
      </trkpt>
      <trkpt lat="45.95261" lon="4.74968">
        <ele>192</ele>
        <time>2018-11-15T11:14:54Z</time>
      </trkpt>
      <trkpt lat="45.95257" lon="4.74962">
        <ele>192</ele>
        <time>2018-11-15T11:14:55Z</time>
      </trkpt>
      <trkpt lat="45.95254" lon="4.74956">
        <ele>192</ele>
        <time>2018-11-15T11:14:56Z</time>
      </trkpt>
      <trkpt lat="45.95252" lon="4.7495">
        <ele>192</ele>
        <time>2018-11-15T11:14:57Z</time>
      </trkpt>
      <trkpt lat="45.95247" lon="4.74944">
        <ele>192</ele>
        <time>2018-11-15T11:14:58Z</time>
      </trkpt>
      <trkpt lat="45.95242" lon="4.74939">
        <ele>192</ele>
        <time>2018-11-15T11:14:59Z</time>
      </trkpt>
      <trkpt lat="45.95238" lon="4.74933">
        <ele>192</ele>
        <time>2018-11-15T11:15:00Z</time>
      </trkpt>
      <trkpt lat="45.95234" lon="4.74927">
        <ele>192</ele>
        <time>2018-11-15T11:15:01Z</time>
      </trkpt>
      <trkpt lat="45.95228" lon="4.74919">
        <ele>192</ele>
        <time>2018-11-15T11:15:03Z</time>
      </trkpt>
      <trkpt lat="45.95225" lon="4.74912">
        <ele>193</ele>
        <time>2018-11-15T11:15:04Z</time>
      </trkpt>
      <trkpt lat="45.9522" lon="4.74906">
        <ele>193</ele>
        <time>2018-11-15T11:15:05Z</time>
      </trkpt>
      <trkpt lat="45.95217" lon="4.749">
        <ele>193</ele>
        <time>2018-11-15T11:15:06Z</time>
      </trkpt>
      <trkpt lat="45.95213" lon="4.74894">
        <ele>193</ele>
        <time>2018-11-15T11:15:07Z</time>
      </trkpt>
      <trkpt lat="45.9521" lon="4.74889">
        <ele>193</ele>
        <time>2018-11-15T11:15:08Z</time>
      </trkpt>
      <trkpt lat="45.95206" lon="4.74882">
        <ele>194</ele>
        <time>2018-11-15T11:15:09Z</time>
      </trkpt>
      <trkpt lat="45.95202" lon="4.74876">
        <ele>194</ele>
        <time>2018-11-15T11:15:10Z</time>
      </trkpt>
      <trkpt lat="45.95199" lon="4.74869">
        <ele>194</ele>
        <time>2018-11-15T11:15:11Z</time>
      </trkpt>
      <trkpt lat="45.95196" lon="4.74864">
        <ele>194</ele>
        <time>2018-11-15T11:15:12Z</time>
      </trkpt>
      <trkpt lat="45.95192" lon="4.74858">
        <ele>194</ele>
        <time>2018-11-15T11:15:13Z</time>
      </trkpt>
      <trkpt lat="45.9519" lon="4.74853">
        <ele>194</ele>
        <time>2018-11-15T11:15:14Z</time>
      </trkpt>
      <trkpt lat="45.95187" lon="4.74847">
        <ele>194</ele>
        <time>2018-11-15T11:15:15Z</time>
      </trkpt>
      <trkpt lat="45.95183" lon="4.7484">
        <ele>194</ele>
        <time>2018-11-15T11:15:16Z</time>
      </trkpt>
      <trkpt lat="45.95179" lon="4.74835">
        <ele>194</ele>
        <time>2018-11-15T11:15:17Z</time>
      </trkpt>
      <trkpt lat="45.95174" lon="4.74829">
        <ele>194</ele>
        <time>2018-11-15T11:15:18Z</time>
      </trkpt>
      <trkpt lat="45.9517" lon="4.74824">
        <ele>194</ele>
        <time>2018-11-15T11:15:19Z</time>
      </trkpt>
      <trkpt lat="45.95165" lon="4.74818">
        <ele>194</ele>
        <time>2018-11-15T11:15:20Z</time>
      </trkpt>
      <trkpt lat="45.9516" lon="4.74812">
        <ele>194</ele>
        <time>2018-11-15T11:15:21Z</time>
      </trkpt>
      <trkpt lat="45.95155" lon="4.74805">
        <ele>194</ele>
        <time>2018-11-15T11:15:22Z</time>
      </trkpt>
      <trkpt lat="45.95151" lon="4.74798">
        <ele>194</ele>
        <time>2018-11-15T11:15:23Z</time>
      </trkpt>
      <trkpt lat="45.95147" lon="4.74791">
        <ele>194</ele>
        <time>2018-11-15T11:15:24Z</time>
      </trkpt>
      <trkpt lat="45.95144" lon="4.74783">
        <ele>194</ele>
        <time>2018-11-15T11:15:25Z</time>
      </trkpt>
      <trkpt lat="45.9514" lon="4.74777">
        <ele>194</ele>
        <time>2018-11-15T11:15:26Z</time>
      </trkpt>
      <trkpt lat="45.95136" lon="4.7477">
        <ele>194</ele>
        <time>2018-11-15T11:15:27Z</time>
      </trkpt>
      <trkpt lat="45.95133" lon="4.74764">
        <ele>194</ele>
        <time>2018-11-15T11:15:28Z</time>
      </trkpt>
      <trkpt lat="45.95129" lon="4.74758">
        <ele>194</ele>
        <time>2018-11-15T11:15:29Z</time>
      </trkpt>
      <trkpt lat="45.95125" lon="4.74753">
        <ele>194</ele>
        <time>2018-11-15T11:15:30Z</time>
      </trkpt>
      <trkpt lat="45.95121" lon="4.74746">
        <ele>194</ele>
        <time>2018-11-15T11:15:31Z</time>
      </trkpt>
      <trkpt lat="45.95117" lon="4.74741">
        <ele>194</ele>
        <time>2018-11-15T11:15:32Z</time>
      </trkpt>
      <trkpt lat="45.95111" lon="4.74733">
        <ele>194</ele>
        <time>2018-11-15T11:15:33Z</time>
      </trkpt>
      <trkpt lat="45.95107" lon="4.74727">
        <ele>194</ele>
        <time>2018-11-15T11:15:34Z</time>
      </trkpt>
      <trkpt lat="45.95105" lon="4.74721">
        <ele>194</ele>
        <time>2018-11-15T11:15:35Z</time>
      </trkpt>
      <trkpt lat="45.95102" lon="4.74714">
        <ele>194</ele>
        <time>2018-11-15T11:15:36Z</time>
      </trkpt>
      <trkpt lat="45.951" lon="4.74708">
        <ele>194</ele>
        <time>2018-11-15T11:15:37Z</time>
      </trkpt>
      <trkpt lat="45.95095" lon="4.74701">
        <ele>194</ele>
        <time>2018-11-15T11:15:38Z</time>
      </trkpt>
      <trkpt lat="45.95092" lon="4.74696">
        <ele>194</ele>
        <time>2018-11-15T11:15:39Z</time>
      </trkpt>
      <trkpt lat="45.95088" lon="4.74691">
        <ele>195</ele>
        <time>2018-11-15T11:15:40Z</time>
      </trkpt>
      <trkpt lat="45.95085" lon="4.74684">
        <ele>195</ele>
        <time>2018-11-15T11:15:41Z</time>
      </trkpt>
      <trkpt lat="45.95081" lon="4.74678">
        <ele>194</ele>
        <time>2018-11-15T11:15:42Z</time>
      </trkpt>
      <trkpt lat="45.95078" lon="4.74672">
        <ele>195</ele>
        <time>2018-11-15T11:15:43Z</time>
      </trkpt>
      <trkpt lat="45.95075" lon="4.74667">
        <ele>195</ele>
        <time>2018-11-15T11:15:44Z</time>
      </trkpt>
      <trkpt lat="45.95072" lon="4.74661">
        <ele>195</ele>
        <time>2018-11-15T11:15:45Z</time>
      </trkpt>
      <trkpt lat="45.95069" lon="4.74656">
        <ele>195</ele>
        <time>2018-11-15T11:15:46Z</time>
      </trkpt>
      <trkpt lat="45.95066" lon="4.74649">
        <ele>195</ele>
        <time>2018-11-15T11:15:47Z</time>
      </trkpt>
      <trkpt lat="45.95064" lon="4.74642">
        <ele>195</ele>
        <time>2018-11-15T11:15:48Z</time>
      </trkpt>
      <trkpt lat="45.9506" lon="4.74635">
        <ele>194</ele>
        <time>2018-11-15T11:15:49Z</time>
      </trkpt>
      <trkpt lat="45.95056" lon="4.7463">
        <ele>194</ele>
        <time>2018-11-15T11:15:50Z</time>
      </trkpt>
      <trkpt lat="45.95053" lon="4.74623">
        <ele>194</ele>
        <time>2018-11-15T11:15:51Z</time>
      </trkpt>
      <trkpt lat="45.95048" lon="4.74616">
        <ele>194</ele>
        <time>2018-11-15T11:15:52Z</time>
      </trkpt>
      <trkpt lat="45.95045" lon="4.7461">
        <ele>194</ele>
        <time>2018-11-15T11:15:53Z</time>
      </trkpt>
      <trkpt lat="45.95041" lon="4.74604">
        <ele>194</ele>
        <time>2018-11-15T11:15:54Z</time>
      </trkpt>
      <trkpt lat="45.95037" lon="4.74597">
        <ele>194</ele>
        <time>2018-11-15T11:15:55Z</time>
      </trkpt>
      <trkpt lat="45.95033" lon="4.74591">
        <ele>194</ele>
        <time>2018-11-15T11:15:56Z</time>
      </trkpt>
      <trkpt lat="45.9503" lon="4.74584">
        <ele>194</ele>
        <time>2018-11-15T11:15:57Z</time>
      </trkpt>
      <trkpt lat="45.95027" lon="4.74578">
        <ele>194</ele>
        <time>2018-11-15T11:15:58Z</time>
      </trkpt>
      <trkpt lat="45.95023" lon="4.74571">
        <ele>194</ele>
        <time>2018-11-15T11:15:59Z</time>
      </trkpt>
      <trkpt lat="45.95021" lon="4.74566">
        <ele>194</ele>
        <time>2018-11-15T11:16:00Z</time>
      </trkpt>
      <trkpt lat="45.95018" lon="4.7456">
        <ele>194</ele>
        <time>2018-11-15T11:16:01Z</time>
      </trkpt>
      <trkpt lat="45.95014" lon="4.74553">
        <ele>194</ele>
        <time>2018-11-15T11:16:02Z</time>
      </trkpt>
      <trkpt lat="45.9501" lon="4.74547">
        <ele>194</ele>
        <time>2018-11-15T11:16:03Z</time>
      </trkpt>
      <trkpt lat="45.95005" lon="4.7454">
        <ele>194</ele>
        <time>2018-11-15T11:16:04Z</time>
      </trkpt>
      <trkpt lat="45.95001" lon="4.74532">
        <ele>194</ele>
        <time>2018-11-15T11:16:05Z</time>
      </trkpt>
      <trkpt lat="45.94997" lon="4.74525">
        <ele>193</ele>
        <time>2018-11-15T11:16:06Z</time>
      </trkpt>
      <trkpt lat="45.94994" lon="4.74518">
        <ele>193</ele>
        <time>2018-11-15T11:16:07Z</time>
      </trkpt>
      <trkpt lat="45.9499" lon="4.7451">
        <ele>193</ele>
        <time>2018-11-15T11:16:08Z</time>
      </trkpt>
      <trkpt lat="45.94986" lon="4.74503">
        <ele>193</ele>
        <time>2018-11-15T11:16:09Z</time>
      </trkpt>
      <trkpt lat="45.94983" lon="4.74496">
        <ele>193</ele>
        <time>2018-11-15T11:16:10Z</time>
      </trkpt>
      <trkpt lat="45.9498" lon="4.74489">
        <ele>193</ele>
        <time>2018-11-15T11:16:11Z</time>
      </trkpt>
      <trkpt lat="45.94976" lon="4.74483">
        <ele>193</ele>
        <time>2018-11-15T11:16:12Z</time>
      </trkpt>
      <trkpt lat="45.94973" lon="4.74475">
        <ele>193</ele>
        <time>2018-11-15T11:16:13Z</time>
      </trkpt>
      <trkpt lat="45.9497" lon="4.74469">
        <ele>193</ele>
        <time>2018-11-15T11:16:14Z</time>
      </trkpt>
      <trkpt lat="45.94967" lon="4.74462">
        <ele>193</ele>
        <time>2018-11-15T11:16:15Z</time>
      </trkpt>
      <trkpt lat="45.94963" lon="4.74456">
        <ele>192</ele>
        <time>2018-11-15T11:16:16Z</time>
      </trkpt>
      <trkpt lat="45.9496" lon="4.74449">
        <ele>192</ele>
        <time>2018-11-15T11:16:17Z</time>
      </trkpt>
      <trkpt lat="45.94956" lon="4.74442">
        <ele>192</ele>
        <time>2018-11-15T11:16:18Z</time>
      </trkpt>
      <trkpt lat="45.94952" lon="4.74436">
        <ele>192</ele>
        <time>2018-11-15T11:16:19Z</time>
      </trkpt>
      <trkpt lat="45.94949" lon="4.7443">
        <ele>192</ele>
        <time>2018-11-15T11:16:20Z</time>
      </trkpt>
      <trkpt lat="45.94945" lon="4.74423">
        <ele>192</ele>
        <time>2018-11-15T11:16:21Z</time>
      </trkpt>
      <trkpt lat="45.94941" lon="4.74416">
        <ele>192</ele>
        <time>2018-11-15T11:16:22Z</time>
      </trkpt>
      <trkpt lat="45.94938" lon="4.74409">
        <ele>192</ele>
        <time>2018-11-15T11:16:23Z</time>
      </trkpt>
      <trkpt lat="45.94934" lon="4.74401">
        <ele>192</ele>
        <time>2018-11-15T11:16:24Z</time>
      </trkpt>
      <trkpt lat="45.94931" lon="4.74394">
        <ele>192</ele>
        <time>2018-11-15T11:16:25Z</time>
      </trkpt>
      <trkpt lat="45.94926" lon="4.74389">
        <ele>192</ele>
        <time>2018-11-15T11:16:26Z</time>
      </trkpt>
      <trkpt lat="45.94922" lon="4.74379">
        <ele>192</ele>
        <time>2018-11-15T11:16:27Z</time>
      </trkpt>
      <trkpt lat="45.94919" lon="4.74371">
        <ele>192</ele>
        <time>2018-11-15T11:16:28Z</time>
      </trkpt>
      <trkpt lat="45.94917" lon="4.74363">
        <ele>191</ele>
        <time>2018-11-15T11:16:29Z</time>
      </trkpt>
      <trkpt lat="45.94913" lon="4.74357">
        <ele>191</ele>
        <time>2018-11-15T11:16:30Z</time>
      </trkpt>
      <trkpt lat="45.94909" lon="4.74351">
        <ele>191</ele>
        <time>2018-11-15T11:16:31Z</time>
      </trkpt>
      <trkpt lat="45.94907" lon="4.74345">
        <ele>191</ele>
        <time>2018-11-15T11:16:32Z</time>
      </trkpt>
      <trkpt lat="45.94904" lon="4.74338">
        <ele>191</ele>
        <time>2018-11-15T11:16:33Z</time>
      </trkpt>
      <trkpt lat="45.94899" lon="4.74331">
        <ele>191</ele>
        <time>2018-11-15T11:16:34Z</time>
      </trkpt>
      <trkpt lat="45.94895" lon="4.74324">
        <ele>191</ele>
        <time>2018-11-15T11:16:35Z</time>
      </trkpt>
      <trkpt lat="45.94891" lon="4.74317">
        <ele>191</ele>
        <time>2018-11-15T11:16:36Z</time>
      </trkpt>
      <trkpt lat="45.94889" lon="4.7431">
        <ele>191</ele>
        <time>2018-11-15T11:16:37Z</time>
      </trkpt>
      <trkpt lat="45.94887" lon="4.74304">
        <ele>191</ele>
        <time>2018-11-15T11:16:38Z</time>
      </trkpt>
      <trkpt lat="45.94882" lon="4.74298">
        <ele>191</ele>
        <time>2018-11-15T11:16:39Z</time>
      </trkpt>
      <trkpt lat="45.94879" lon="4.74293">
        <ele>191</ele>
        <time>2018-11-15T11:16:40Z</time>
      </trkpt>
      <trkpt lat="45.94875" lon="4.74287">
        <ele>191</ele>
        <time>2018-11-15T11:16:41Z</time>
      </trkpt>
      <trkpt lat="45.94871" lon="4.74278">
        <ele>191</ele>
        <time>2018-11-15T11:16:42Z</time>
      </trkpt>
      <trkpt lat="45.94867" lon="4.74271">
        <ele>191</ele>
        <time>2018-11-15T11:16:43Z</time>
      </trkpt>
      <trkpt lat="45.94864" lon="4.74264">
        <ele>190</ele>
        <time>2018-11-15T11:16:44Z</time>
      </trkpt>
      <trkpt lat="45.9486" lon="4.74256">
        <ele>190</ele>
        <time>2018-11-15T11:16:45Z</time>
      </trkpt>
      <trkpt lat="45.94857" lon="4.74249">
        <ele>190</ele>
        <time>2018-11-15T11:16:46Z</time>
      </trkpt>
      <trkpt lat="45.94853" lon="4.7424">
        <ele>190</ele>
        <time>2018-11-15T11:16:47Z</time>
      </trkpt>
      <trkpt lat="45.94849" lon="4.74233">
        <ele>190</ele>
        <time>2018-11-15T11:16:48Z</time>
      </trkpt>
      <trkpt lat="45.94845" lon="4.74226">
        <ele>190</ele>
        <time>2018-11-15T11:16:49Z</time>
      </trkpt>
      <trkpt lat="45.94841" lon="4.74219">
        <ele>190</ele>
        <time>2018-11-15T11:16:50Z</time>
      </trkpt>
      <trkpt lat="45.94837" lon="4.74212">
        <ele>190</ele>
        <time>2018-11-15T11:16:51Z</time>
      </trkpt>
      <trkpt lat="45.94832" lon="4.74204">
        <ele>189</ele>
        <time>2018-11-15T11:16:52Z</time>
      </trkpt>
      <trkpt lat="45.94828" lon="4.74198">
        <ele>189</ele>
        <time>2018-11-15T11:16:53Z</time>
      </trkpt>
      <trkpt lat="45.94825" lon="4.74192">
        <ele>189</ele>
        <time>2018-11-15T11:16:54Z</time>
      </trkpt>
      <trkpt lat="45.94822" lon="4.74186">
        <ele>189</ele>
        <time>2018-11-15T11:16:55Z</time>
      </trkpt>
      <trkpt lat="45.94818" lon="4.7418">
        <ele>189</ele>
        <time>2018-11-15T11:16:56Z</time>
      </trkpt>
      <trkpt lat="45.94814" lon="4.74174">
        <ele>189</ele>
        <time>2018-11-15T11:16:57Z</time>
      </trkpt>
      <trkpt lat="45.9481" lon="4.74169">
        <ele>189</ele>
        <time>2018-11-15T11:16:58Z</time>
      </trkpt>
      <trkpt lat="45.94807" lon="4.74163">
        <ele>189</ele>
        <time>2018-11-15T11:16:59Z</time>
      </trkpt>
      <trkpt lat="45.94803" lon="4.74157">
        <ele>189</ele>
        <time>2018-11-15T11:17:00Z</time>
      </trkpt>
      <trkpt lat="45.948" lon="4.7415">
        <ele>189</ele>
        <time>2018-11-15T11:17:01Z</time>
      </trkpt>
      <trkpt lat="45.94795" lon="4.74144">
        <ele>189</ele>
        <time>2018-11-15T11:17:02Z</time>
      </trkpt>
      <trkpt lat="45.94792" lon="4.74138">
        <ele>189</ele>
        <time>2018-11-15T11:17:03Z</time>
      </trkpt>
      <trkpt lat="45.94787" lon="4.74131">
        <ele>189</ele>
        <time>2018-11-15T11:17:04Z</time>
      </trkpt>
      <trkpt lat="45.94782" lon="4.74125">
        <ele>189</ele>
        <time>2018-11-15T11:17:05Z</time>
      </trkpt>
      <trkpt lat="45.94778" lon="4.74118">
        <ele>189</ele>
        <time>2018-11-15T11:17:06Z</time>
      </trkpt>
      <trkpt lat="45.94774" lon="4.74112">
        <ele>189</ele>
        <time>2018-11-15T11:17:07Z</time>
      </trkpt>
      <trkpt lat="45.9477" lon="4.74106">
        <ele>189</ele>
        <time>2018-11-15T11:17:08Z</time>
      </trkpt>
      <trkpt lat="45.94766" lon="4.74101">
        <ele>189</ele>
        <time>2018-11-15T11:17:09Z</time>
      </trkpt>
      <trkpt lat="45.94761" lon="4.74096">
        <ele>189</ele>
        <time>2018-11-15T11:17:10Z</time>
      </trkpt>
      <trkpt lat="45.94758" lon="4.74092">
        <ele>189</ele>
        <time>2018-11-15T11:17:11Z</time>
      </trkpt>
      <trkpt lat="45.94755" lon="4.74085">
        <ele>189</ele>
        <time>2018-11-15T11:17:12Z</time>
      </trkpt>
      <trkpt lat="45.94749" lon="4.74079">
        <ele>189</ele>
        <time>2018-11-15T11:17:13Z</time>
      </trkpt>
      <trkpt lat="45.94747" lon="4.74073">
        <ele>188</ele>
        <time>2018-11-15T11:17:14Z</time>
      </trkpt>
      <trkpt lat="45.94743" lon="4.74068">
        <ele>188</ele>
        <time>2018-11-15T11:17:15Z</time>
      </trkpt>
      <trkpt lat="45.94739" lon="4.74063">
        <ele>188</ele>
        <time>2018-11-15T11:17:16Z</time>
      </trkpt>
      <trkpt lat="45.94735" lon="4.74058">
        <ele>188</ele>
        <time>2018-11-15T11:17:17Z</time>
      </trkpt>
      <trkpt lat="45.94731" lon="4.74052">
        <ele>188</ele>
        <time>2018-11-15T11:17:18Z</time>
      </trkpt>
      <trkpt lat="45.94728" lon="4.74047">
        <ele>188</ele>
        <time>2018-11-15T11:17:19Z</time>
      </trkpt>
      <trkpt lat="45.94723" lon="4.74043">
        <ele>187</ele>
        <time>2018-11-15T11:17:20Z</time>
      </trkpt>
      <trkpt lat="45.9472" lon="4.74037">
        <ele>187</ele>
        <time>2018-11-15T11:17:21Z</time>
      </trkpt>
      <trkpt lat="45.94717" lon="4.74033">
        <ele>187</ele>
        <time>2018-11-15T11:17:22Z</time>
      </trkpt>
      <trkpt lat="45.94713" lon="4.74028">
        <ele>187</ele>
        <time>2018-11-15T11:17:23Z</time>
      </trkpt>
      <trkpt lat="45.94708" lon="4.74021">
        <ele>187</ele>
        <time>2018-11-15T11:17:24Z</time>
      </trkpt>
      <trkpt lat="45.94704" lon="4.74016">
        <ele>187</ele>
        <time>2018-11-15T11:17:25Z</time>
      </trkpt>
      <trkpt lat="45.947" lon="4.7401">
        <ele>187</ele>
        <time>2018-11-15T11:17:26Z</time>
      </trkpt>
      <trkpt lat="45.94696" lon="4.74006">
        <ele>187</ele>
        <time>2018-11-15T11:17:27Z</time>
      </trkpt>
      <trkpt lat="45.94692" lon="4.74002">
        <ele>187</ele>
        <time>2018-11-15T11:17:28Z</time>
      </trkpt>
      <trkpt lat="45.9469" lon="4.73996">
        <ele>187</ele>
        <time>2018-11-15T11:17:29Z</time>
      </trkpt>
      <trkpt lat="45.94685" lon="4.73991">
        <ele>187</ele>
        <time>2018-11-15T11:17:30Z</time>
      </trkpt>
      <trkpt lat="45.94682" lon="4.73985">
        <ele>187</ele>
        <time>2018-11-15T11:17:31Z</time>
      </trkpt>
      <trkpt lat="45.94677" lon="4.7398">
        <ele>187</ele>
        <time>2018-11-15T11:17:32Z</time>
      </trkpt>
      <trkpt lat="45.94673" lon="4.73974">
        <ele>187</ele>
        <time>2018-11-15T11:17:33Z</time>
      </trkpt>
      <trkpt lat="45.94669" lon="4.73968">
        <ele>187</ele>
        <time>2018-11-15T11:17:34Z</time>
      </trkpt>
      <trkpt lat="45.94665" lon="4.73962">
        <ele>187</ele>
        <time>2018-11-15T11:17:35Z</time>
      </trkpt>
      <trkpt lat="45.9466" lon="4.73956">
        <ele>187</ele>
        <time>2018-11-15T11:17:36Z</time>
      </trkpt>
      <trkpt lat="45.94656" lon="4.7395">
        <ele>187</ele>
        <time>2018-11-15T11:17:37Z</time>
      </trkpt>
      <trkpt lat="45.94652" lon="4.73944">
        <ele>187</ele>
        <time>2018-11-15T11:17:38Z</time>
      </trkpt>
      <trkpt lat="45.94648" lon="4.7394">
        <ele>187</ele>
        <time>2018-11-15T11:17:39Z</time>
      </trkpt>
      <trkpt lat="45.94644" lon="4.73934">
        <ele>187</ele>
        <time>2018-11-15T11:17:40Z</time>
      </trkpt>
      <trkpt lat="45.94641" lon="4.7393">
        <ele>187</ele>
        <time>2018-11-15T11:17:41Z</time>
      </trkpt>
      <trkpt lat="45.94638" lon="4.73925">
        <ele>187</ele>
        <time>2018-11-15T11:17:42Z</time>
      </trkpt>
      <trkpt lat="45.94634" lon="4.73919">
        <ele>187</ele>
        <time>2018-11-15T11:17:43Z</time>
      </trkpt>
      <trkpt lat="45.94629" lon="4.73913">
        <ele>187</ele>
        <time>2018-11-15T11:17:44Z</time>
      </trkpt>
      <trkpt lat="45.94625" lon="4.73908">
        <ele>187</ele>
        <time>2018-11-15T11:17:45Z</time>
      </trkpt>
      <trkpt lat="45.94619" lon="4.73903">
        <ele>187</ele>
        <time>2018-11-15T11:17:46Z</time>
      </trkpt>
      <trkpt lat="45.94615" lon="4.73898">
        <ele>187</ele>
        <time>2018-11-15T11:17:47Z</time>
      </trkpt>
      <trkpt lat="45.94611" lon="4.73893">
        <ele>187</ele>
        <time>2018-11-15T11:17:48Z</time>
      </trkpt>
      <trkpt lat="45.94606" lon="4.73888">
        <ele>187</ele>
        <time>2018-11-15T11:17:49Z</time>
      </trkpt>
      <trkpt lat="45.94602" lon="4.73883">
        <ele>187</ele>
        <time>2018-11-15T11:17:50Z</time>
      </trkpt>
      <trkpt lat="45.94598" lon="4.73876">
        <ele>187</ele>
        <time>2018-11-15T11:17:51Z</time>
      </trkpt>
      <trkpt lat="45.94593" lon="4.73872">
        <ele>187</ele>
        <time>2018-11-15T11:17:52Z</time>
      </trkpt>
      <trkpt lat="45.94588" lon="4.73867">
        <ele>187</ele>
        <time>2018-11-15T11:17:53Z</time>
      </trkpt>
      <trkpt lat="45.94584" lon="4.73861">
        <ele>187</ele>
        <time>2018-11-15T11:17:54Z</time>
      </trkpt>
      <trkpt lat="45.94579" lon="4.73856">
        <ele>186</ele>
        <time>2018-11-15T11:17:55Z</time>
      </trkpt>
      <trkpt lat="45.94574" lon="4.73851">
        <ele>186</ele>
        <time>2018-11-15T11:17:56Z</time>
      </trkpt>
      <trkpt lat="45.94569" lon="4.73847">
        <ele>186</ele>
        <time>2018-11-15T11:17:57Z</time>
      </trkpt>
      <trkpt lat="45.94565" lon="4.73842">
        <ele>186</ele>
        <time>2018-11-15T11:17:58Z</time>
      </trkpt>
      <trkpt lat="45.9456" lon="4.73837">
        <ele>186</ele>
        <time>2018-11-15T11:17:59Z</time>
      </trkpt>
      <trkpt lat="45.94555" lon="4.73831">
        <ele>186</ele>
        <time>2018-11-15T11:18:00Z</time>
      </trkpt>
      <trkpt lat="45.9455" lon="4.73826">
        <ele>186</ele>
        <time>2018-11-15T11:18:01Z</time>
      </trkpt>
      <trkpt lat="45.94545" lon="4.73821">
        <ele>186</ele>
        <time>2018-11-15T11:18:02Z</time>
      </trkpt>
      <trkpt lat="45.9454" lon="4.73817">
        <ele>186</ele>
        <time>2018-11-15T11:18:03Z</time>
      </trkpt>
      <trkpt lat="45.94535" lon="4.73811">
        <ele>186</ele>
        <time>2018-11-15T11:18:04Z</time>
      </trkpt>
      <trkpt lat="45.94527" lon="4.73805">
        <ele>186</ele>
        <time>2018-11-15T11:18:06Z</time>
      </trkpt>
      <trkpt lat="45.94523" lon="4.73802">
        <ele>186</ele>
        <time>2018-11-15T11:18:07Z</time>
      </trkpt>
      <trkpt lat="45.94517" lon="4.73796">
        <ele>186</ele>
        <time>2018-11-15T11:18:09Z</time>
      </trkpt>
      <trkpt lat="45.94514" lon="4.73791">
        <ele>186</ele>
        <time>2018-11-15T11:18:10Z</time>
      </trkpt>
      <trkpt lat="45.94509" lon="4.73786">
        <ele>186</ele>
        <time>2018-11-15T11:18:11Z</time>
      </trkpt>
      <trkpt lat="45.94507" lon="4.7378">
        <ele>186</ele>
        <time>2018-11-15T11:18:12Z</time>
      </trkpt>
      <trkpt lat="45.94503" lon="4.73776">
        <ele>186</ele>
        <time>2018-11-15T11:18:13Z</time>
      </trkpt>
      <trkpt lat="45.94498" lon="4.7377">
        <ele>186</ele>
        <time>2018-11-15T11:18:14Z</time>
      </trkpt>
      <trkpt lat="45.94494" lon="4.73764">
        <ele>186</ele>
        <time>2018-11-15T11:18:15Z</time>
      </trkpt>
      <trkpt lat="45.9449" lon="4.7376">
        <ele>186</ele>
        <time>2018-11-15T11:18:16Z</time>
      </trkpt>
      <trkpt lat="45.94486" lon="4.73753">
        <ele>186</ele>
        <time>2018-11-15T11:18:17Z</time>
      </trkpt>
      <trkpt lat="45.94486" lon="4.73747">
        <ele>186</ele>
        <time>2018-11-15T11:18:18Z</time>
      </trkpt>
      <trkpt lat="45.94487" lon="4.73735">
        <ele>186</ele>
        <time>2018-11-15T11:18:20Z</time>
      </trkpt>
      <trkpt lat="45.94488" lon="4.73728">
        <ele>186</ele>
        <time>2018-11-15T11:18:21Z</time>
      </trkpt>
      <trkpt lat="45.94489" lon="4.73721">
        <ele>186</ele>
        <time>2018-11-15T11:18:22Z</time>
      </trkpt>
      <trkpt lat="45.9449" lon="4.73713">
        <ele>186</ele>
        <time>2018-11-15T11:18:23Z</time>
      </trkpt>
      <trkpt lat="45.9449" lon="4.73706">
        <ele>186</ele>
        <time>2018-11-15T11:18:24Z</time>
      </trkpt>
      <trkpt lat="45.94491" lon="4.73699">
        <ele>186</ele>
        <time>2018-11-15T11:18:25Z</time>
      </trkpt>
      <trkpt lat="45.94494" lon="4.7369">
        <ele>186</ele>
        <time>2018-11-15T11:18:26Z</time>
      </trkpt>
      <trkpt lat="45.94496" lon="4.73682">
        <ele>185</ele>
        <time>2018-11-15T11:18:27Z</time>
      </trkpt>
      <trkpt lat="45.94497" lon="4.73674">
        <ele>185</ele>
        <time>2018-11-15T11:18:28Z</time>
      </trkpt>
      <trkpt lat="45.94499" lon="4.73668">
        <ele>185</ele>
        <time>2018-11-15T11:18:29Z</time>
      </trkpt>
      <trkpt lat="45.94498" lon="4.73658">
        <ele>185</ele>
        <time>2018-11-15T11:18:30Z</time>
      </trkpt>
      <trkpt lat="45.94498" lon="4.73652">
        <ele>185</ele>
        <time>2018-11-15T11:18:31Z</time>
      </trkpt>
      <trkpt lat="45.94498" lon="4.73644">
        <ele>186</ele>
        <time>2018-11-15T11:18:32Z</time>
      </trkpt>
      <trkpt lat="45.94499" lon="4.73636">
        <ele>186</ele>
        <time>2018-11-15T11:18:33Z</time>
      </trkpt>
      <trkpt lat="45.94501" lon="4.73624">
        <ele>184</ele>
        <time>2018-11-15T11:18:35Z</time>
      </trkpt>
      <trkpt lat="45.945" lon="4.73616">
        <ele>184</ele>
        <time>2018-11-15T11:18:36Z</time>
      </trkpt>
      <trkpt lat="45.94501" lon="4.73609">
        <ele>184</ele>
        <time>2018-11-15T11:18:37Z</time>
      </trkpt>
      <trkpt lat="45.94502" lon="4.736">
        <ele>184</ele>
        <time>2018-11-15T11:18:38Z</time>
      </trkpt>
      <trkpt lat="45.94503" lon="4.73592">
        <ele>185</ele>
        <time>2018-11-15T11:18:39Z</time>
      </trkpt>
      <trkpt lat="45.94503" lon="4.73584">
        <ele>185</ele>
        <time>2018-11-15T11:18:40Z</time>
      </trkpt>
      <trkpt lat="45.94504" lon="4.73577">
        <ele>184</ele>
        <time>2018-11-15T11:18:41Z</time>
      </trkpt>
      <trkpt lat="45.94505" lon="4.73568">
        <ele>184</ele>
        <time>2018-11-15T11:18:42Z</time>
      </trkpt>
      <trkpt lat="45.94505" lon="4.73559">
        <ele>184</ele>
        <time>2018-11-15T11:18:43Z</time>
      </trkpt>
      <trkpt lat="45.94506" lon="4.7355">
        <ele>183</ele>
        <time>2018-11-15T11:18:44Z</time>
      </trkpt>
      <trkpt lat="45.94507" lon="4.73541">
        <ele>183</ele>
        <time>2018-11-15T11:18:45Z</time>
      </trkpt>
      <trkpt lat="45.94508" lon="4.73532">
        <ele>183</ele>
        <time>2018-11-15T11:18:46Z</time>
      </trkpt>
      <trkpt lat="45.94508" lon="4.73521">
        <ele>183</ele>
        <time>2018-11-15T11:18:47Z</time>
      </trkpt>
      <trkpt lat="45.94507" lon="4.7351">
        <ele>183</ele>
        <time>2018-11-15T11:18:48Z</time>
      </trkpt>
      <trkpt lat="45.94507" lon="4.73502">
        <ele>183</ele>
        <time>2018-11-15T11:18:49Z</time>
      </trkpt>
      <trkpt lat="45.94507" lon="4.73493">
        <ele>182</ele>
        <time>2018-11-15T11:18:50Z</time>
      </trkpt>
      <trkpt lat="45.94508" lon="4.73485">
        <ele>182</ele>
        <time>2018-11-15T11:18:51Z</time>
      </trkpt>
      <trkpt lat="45.94509" lon="4.73476">
        <ele>182</ele>
        <time>2018-11-15T11:18:52Z</time>
      </trkpt>
      <trkpt lat="45.94509" lon="4.73465">
        <ele>181</ele>
        <time>2018-11-15T11:18:53Z</time>
      </trkpt>
      <trkpt lat="45.9451" lon="4.73454">
        <ele>181</ele>
        <time>2018-11-15T11:18:54Z</time>
      </trkpt>
      <trkpt lat="45.94509" lon="4.73445">
        <ele>181</ele>
        <time>2018-11-15T11:18:55Z</time>
      </trkpt>
      <trkpt lat="45.94509" lon="4.73436">
        <ele>181</ele>
        <time>2018-11-15T11:18:56Z</time>
      </trkpt>
      <trkpt lat="45.94508" lon="4.73429">
        <ele>180</ele>
        <time>2018-11-15T11:18:57Z</time>
      </trkpt>
      <trkpt lat="45.94506" lon="4.73419">
        <ele>180</ele>
        <time>2018-11-15T11:18:58Z</time>
      </trkpt>
      <trkpt lat="45.94505" lon="4.73409">
        <ele>179</ele>
        <time>2018-11-15T11:18:59Z</time>
      </trkpt>
      <trkpt lat="45.94505" lon="4.73399">
        <ele>179</ele>
        <time>2018-11-15T11:19:00Z</time>
      </trkpt>
      <trkpt lat="45.94504" lon="4.73388">
        <ele>179</ele>
        <time>2018-11-15T11:19:01Z</time>
      </trkpt>
      <trkpt lat="45.94503" lon="4.73377">
        <ele>178</ele>
        <time>2018-11-15T11:19:02Z</time>
      </trkpt>
      <trkpt lat="45.94503" lon="4.73366">
        <ele>178</ele>
        <time>2018-11-15T11:19:03Z</time>
      </trkpt>
      <trkpt lat="45.94502" lon="4.73355">
        <ele>178</ele>
        <time>2018-11-15T11:19:04Z</time>
      </trkpt>
      <trkpt lat="45.945" lon="4.73343">
        <ele>177</ele>
        <time>2018-11-15T11:19:05Z</time>
      </trkpt>
      <trkpt lat="45.94498" lon="4.73332">
        <ele>177</ele>
        <time>2018-11-15T11:19:06Z</time>
      </trkpt>
      <trkpt lat="45.94498" lon="4.73322">
        <ele>177</ele>
        <time>2018-11-15T11:19:07Z</time>
      </trkpt>
      <trkpt lat="45.94497" lon="4.73312">
        <ele>177</ele>
        <time>2018-11-15T11:19:08Z</time>
      </trkpt>
      <trkpt lat="45.94493" lon="4.73298">
        <ele>177</ele>
        <time>2018-11-15T11:19:09Z</time>
      </trkpt>
      <trkpt lat="45.94492" lon="4.73287">
        <ele>177</ele>
        <time>2018-11-15T11:19:10Z</time>
      </trkpt>
      <trkpt lat="45.94491" lon="4.73274">
        <ele>177</ele>
        <time>2018-11-15T11:19:11Z</time>
      </trkpt>
      <trkpt lat="45.9449" lon="4.73262">
        <ele>176</ele>
        <time>2018-11-15T11:19:12Z</time>
      </trkpt>
      <trkpt lat="45.94488" lon="4.73252">
        <ele>176</ele>
        <time>2018-11-15T11:19:13Z</time>
      </trkpt>
      <trkpt lat="45.94487" lon="4.73242">
        <ele>175</ele>
        <time>2018-11-15T11:19:14Z</time>
      </trkpt>
      <trkpt lat="45.94486" lon="4.7323">
        <ele>175</ele>
        <time>2018-11-15T11:19:15Z</time>
      </trkpt>
      <trkpt lat="45.94483" lon="4.73219">
        <ele>175</ele>
        <time>2018-11-15T11:19:16Z</time>
      </trkpt>
      <trkpt lat="45.94481" lon="4.73208">
        <ele>175</ele>
        <time>2018-11-15T11:19:17Z</time>
      </trkpt>
      <trkpt lat="45.94479" lon="4.73197">
        <ele>174</ele>
        <time>2018-11-15T11:19:18Z</time>
      </trkpt>
      <trkpt lat="45.94478" lon="4.73185">
        <ele>174</ele>
        <time>2018-11-15T11:19:19Z</time>
      </trkpt>
      <trkpt lat="45.94478" lon="4.73174">
        <ele>174</ele>
        <time>2018-11-15T11:19:20Z</time>
      </trkpt>
      <trkpt lat="45.94475" lon="4.73163">
        <ele>173</ele>
        <time>2018-11-15T11:19:21Z</time>
      </trkpt>
      <trkpt lat="45.94474" lon="4.73153">
        <ele>172</ele>
        <time>2018-11-15T11:19:22Z</time>
      </trkpt>
      <trkpt lat="45.94473" lon="4.73144">
        <ele>172</ele>
        <time>2018-11-15T11:19:23Z</time>
      </trkpt>
      <trkpt lat="45.94473" lon="4.73134">
        <ele>172</ele>
        <time>2018-11-15T11:19:24Z</time>
      </trkpt>
      <trkpt lat="45.94473" lon="4.73125">
        <ele>172</ele>
        <time>2018-11-15T11:19:25Z</time>
      </trkpt>
      <trkpt lat="45.94473" lon="4.73115">
        <ele>172</ele>
        <time>2018-11-15T11:19:26Z</time>
      </trkpt>
      <trkpt lat="45.94472" lon="4.73105">
        <ele>172</ele>
        <time>2018-11-15T11:19:27Z</time>
      </trkpt>
      <trkpt lat="45.94471" lon="4.73097">
        <ele>172</ele>
        <time>2018-11-15T11:19:28Z</time>
      </trkpt>
      <trkpt lat="45.94469" lon="4.73089">
        <ele>172</ele>
        <time>2018-11-15T11:19:29Z</time>
      </trkpt>
      <trkpt lat="45.94467" lon="4.7308">
        <ele>170</ele>
        <time>2018-11-15T11:19:30Z</time>
      </trkpt>
      <trkpt lat="45.94466" lon="4.73073">
        <ele>170</ele>
        <time>2018-11-15T11:19:31Z</time>
      </trkpt>
      <trkpt lat="45.94465" lon="4.73065">
        <ele>170</ele>
        <time>2018-11-15T11:19:32Z</time>
      </trkpt>
      <trkpt lat="45.94464" lon="4.73057">
        <ele>170</ele>
        <time>2018-11-15T11:19:33Z</time>
      </trkpt>
      <trkpt lat="45.94462" lon="4.73048">
        <ele>170</ele>
        <time>2018-11-15T11:19:34Z</time>
      </trkpt>
      <trkpt lat="45.9446" lon="4.73041">
        <ele>170</ele>
        <time>2018-11-15T11:19:35Z</time>
      </trkpt>
      <trkpt lat="45.94458" lon="4.73033">
        <ele>169</ele>
        <time>2018-11-15T11:19:36Z</time>
      </trkpt>
      <trkpt lat="45.94457" lon="4.73026">
        <ele>169</ele>
        <time>2018-11-15T11:19:37Z</time>
      </trkpt>
      <trkpt lat="45.94456" lon="4.73019">
        <ele>169</ele>
        <time>2018-11-15T11:19:38Z</time>
      </trkpt>
      <trkpt lat="45.94455" lon="4.73012">
        <ele>169</ele>
        <time>2018-11-15T11:19:39Z</time>
      </trkpt>
      <trkpt lat="45.94454" lon="4.73005">
        <ele>169</ele>
        <time>2018-11-15T11:19:40Z</time>
      </trkpt>
      <trkpt lat="45.94453" lon="4.72998">
        <ele>167</ele>
        <time>2018-11-15T11:19:41Z</time>
      </trkpt>
      <trkpt lat="45.94451" lon="4.72987">
        <ele>167</ele>
        <time>2018-11-15T11:19:43Z</time>
      </trkpt>
      <trkpt lat="45.9445" lon="4.7298">
        <ele>167</ele>
        <time>2018-11-15T11:19:44Z</time>
      </trkpt>
      <trkpt lat="45.94449" lon="4.72968">
        <ele>167</ele>
        <time>2018-11-15T11:19:46Z</time>
      </trkpt>
      <trkpt lat="45.94448" lon="4.72962">
        <ele>167</ele>
        <time>2018-11-15T11:19:47Z</time>
      </trkpt>
      <trkpt lat="45.94447" lon="4.72956">
        <ele>167</ele>
        <time>2018-11-15T11:19:48Z</time>
      </trkpt>
      <trkpt lat="45.94446" lon="4.72949">
        <ele>167</ele>
        <time>2018-11-15T11:19:49Z</time>
      </trkpt>
      <trkpt lat="45.94445" lon="4.72938">
        <ele>167</ele>
        <time>2018-11-15T11:19:51Z</time>
      </trkpt>
      <trkpt lat="45.94444" lon="4.72932">
        <ele>167</ele>
        <time>2018-11-15T11:19:52Z</time>
      </trkpt>
      <trkpt lat="45.94442" lon="4.72921">
        <ele>167</ele>
        <time>2018-11-15T11:19:54Z</time>
      </trkpt>
      <trkpt lat="45.94441" lon="4.72915">
        <ele>166</ele>
        <time>2018-11-15T11:19:55Z</time>
      </trkpt>
      <trkpt lat="45.9444" lon="4.72903">
        <ele>166</ele>
        <time>2018-11-15T11:19:57Z</time>
      </trkpt>
      <trkpt lat="45.94439" lon="4.72894">
        <ele>166</ele>
        <time>2018-11-15T11:19:58Z</time>
      </trkpt>
      <trkpt lat="45.94439" lon="4.72888">
        <ele>166</ele>
        <time>2018-11-15T11:19:59Z</time>
      </trkpt>
      <trkpt lat="45.94438" lon="4.7288">
        <ele>166</ele>
        <time>2018-11-15T11:20:00Z</time>
      </trkpt>
      <trkpt lat="45.94437" lon="4.72872">
        <ele>166</ele>
        <time>2018-11-15T11:20:01Z</time>
      </trkpt>
      <trkpt lat="45.94435" lon="4.72863">
        <ele>166</ele>
        <time>2018-11-15T11:20:02Z</time>
      </trkpt>
      <trkpt lat="45.94433" lon="4.72854">
        <ele>166</ele>
        <time>2018-11-15T11:20:03Z</time>
      </trkpt>
      <trkpt lat="45.94433" lon="4.72847">
        <ele>166</ele>
        <time>2018-11-15T11:20:04Z</time>
      </trkpt>
      <trkpt lat="45.94431" lon="4.72837">
        <ele>166</ele>
        <time>2018-11-15T11:20:05Z</time>
      </trkpt>
      <trkpt lat="45.9443" lon="4.72829">
        <ele>167</ele>
        <time>2018-11-15T11:20:06Z</time>
      </trkpt>
      <trkpt lat="45.94428" lon="4.72821">
        <ele>167</ele>
        <time>2018-11-15T11:20:07Z</time>
      </trkpt>
      <trkpt lat="45.94427" lon="4.72811">
        <ele>167</ele>
        <time>2018-11-15T11:20:08Z</time>
      </trkpt>
      <trkpt lat="45.94426" lon="4.72802">
        <ele>167</ele>
        <time>2018-11-15T11:20:09Z</time>
      </trkpt>
      <trkpt lat="45.94423" lon="4.72792">
        <ele>168</ele>
        <time>2018-11-15T11:20:10Z</time>
      </trkpt>
      <trkpt lat="45.94422" lon="4.72783">
        <ele>168</ele>
        <time>2018-11-15T11:20:11Z</time>
      </trkpt>
      <trkpt lat="45.94421" lon="4.72773">
        <ele>169</ele>
        <time>2018-11-15T11:20:12Z</time>
      </trkpt>
      <trkpt lat="45.9442" lon="4.72764">
        <ele>169</ele>
        <time>2018-11-15T11:20:13Z</time>
      </trkpt>
      <trkpt lat="45.94419" lon="4.72755">
        <ele>170</ele>
        <time>2018-11-15T11:20:14Z</time>
      </trkpt>
      <trkpt lat="45.94417" lon="4.72745">
        <ele>171</ele>
        <time>2018-11-15T11:20:15Z</time>
      </trkpt>
      <trkpt lat="45.94416" lon="4.72736">
        <ele>171</ele>
        <time>2018-11-15T11:20:16Z</time>
      </trkpt>
      <trkpt lat="45.94416" lon="4.72728">
        <ele>172</ele>
        <time>2018-11-15T11:20:17Z</time>
      </trkpt>
      <trkpt lat="45.94414" lon="4.72718">
        <ele>172</ele>
        <time>2018-11-15T11:20:18Z</time>
      </trkpt>
      <trkpt lat="45.94414" lon="4.72711">
        <ele>172</ele>
        <time>2018-11-15T11:20:19Z</time>
      </trkpt>
      <trkpt lat="45.94415" lon="4.72702">
        <ele>172</ele>
        <time>2018-11-15T11:20:20Z</time>
      </trkpt>
      <trkpt lat="45.94415" lon="4.72693">
        <ele>173</ele>
        <time>2018-11-15T11:20:21Z</time>
      </trkpt>
      <trkpt lat="45.94414" lon="4.72682">
        <ele>173</ele>
        <time>2018-11-15T11:20:22Z</time>
      </trkpt>
      <trkpt lat="45.94411" lon="4.72673">
        <ele>173</ele>
        <time>2018-11-15T11:20:23Z</time>
      </trkpt>
      <trkpt lat="45.94411" lon="4.72663">
        <ele>174</ele>
        <time>2018-11-15T11:20:24Z</time>
      </trkpt>
      <trkpt lat="45.9441" lon="4.72654">
        <ele>174</ele>
        <time>2018-11-15T11:20:25Z</time>
      </trkpt>
      <trkpt lat="45.94408" lon="4.72645">
        <ele>174</ele>
        <time>2018-11-15T11:20:26Z</time>
      </trkpt>
      <trkpt lat="45.94409" lon="4.72636">
        <ele>174</ele>
        <time>2018-11-15T11:20:27Z</time>
      </trkpt>
      <trkpt lat="45.94411" lon="4.72633">
        <ele>174</ele>
        <time>2018-11-15T11:20:28Z</time>
      </trkpt>
      <trkpt lat="45.94412" lon="4.72625">
        <ele>174</ele>
        <time>2018-11-15T11:20:29Z</time>
      </trkpt>
      <trkpt lat="45.94409" lon="4.72617">
        <ele>173</ele>
        <time>2018-11-15T11:20:30Z</time>
      </trkpt>
      <trkpt lat="45.94407" lon="4.72606">
        <ele>173</ele>
        <time>2018-11-15T11:20:31Z</time>
      </trkpt>
      <trkpt lat="45.94405" lon="4.72598">
        <ele>173</ele>
        <time>2018-11-15T11:20:32Z</time>
      </trkpt>
      <trkpt lat="45.94405" lon="4.7259">
        <ele>173</ele>
        <time>2018-11-15T11:20:33Z</time>
      </trkpt>
      <trkpt lat="45.94405" lon="4.72581">
        <ele>173</ele>
        <time>2018-11-15T11:20:34Z</time>
      </trkpt>
      <trkpt lat="45.94404" lon="4.72574">
        <ele>173</ele>
        <time>2018-11-15T11:20:35Z</time>
      </trkpt>
      <trkpt lat="45.94399" lon="4.72564">
        <ele>173</ele>
        <time>2018-11-15T11:20:36Z</time>
      </trkpt>
      <trkpt lat="45.94396" lon="4.72555">
        <ele>173</ele>
        <time>2018-11-15T11:20:37Z</time>
      </trkpt>
      <trkpt lat="45.94395" lon="4.7255">
        <ele>173</ele>
        <time>2018-11-15T11:20:38Z</time>
      </trkpt>
      <trkpt lat="45.94394" lon="4.72543">
        <ele>173</ele>
        <time>2018-11-15T11:20:39Z</time>
      </trkpt>
      <trkpt lat="45.94392" lon="4.72535">
        <ele>174</ele>
        <time>2018-11-15T11:20:40Z</time>
      </trkpt>
      <trkpt lat="45.9439" lon="4.72527">
        <ele>174</ele>
        <time>2018-11-15T11:20:41Z</time>
      </trkpt>
      <trkpt lat="45.94388" lon="4.7252">
        <ele>174</ele>
        <time>2018-11-15T11:20:42Z</time>
      </trkpt>
      <trkpt lat="45.94387" lon="4.72511">
        <ele>174</ele>
        <time>2018-11-15T11:20:43Z</time>
      </trkpt>
      <trkpt lat="45.94383" lon="4.72505">
        <ele>174</ele>
        <time>2018-11-15T11:20:44Z</time>
      </trkpt>
      <trkpt lat="45.9438" lon="4.72494">
        <ele>173</ele>
        <time>2018-11-15T11:20:46Z</time>
      </trkpt>
      <trkpt lat="45.94378" lon="4.72487">
        <ele>173</ele>
        <time>2018-11-15T11:20:47Z</time>
      </trkpt>
      <trkpt lat="45.94373" lon="4.72477">
        <ele>173</ele>
        <time>2018-11-15T11:20:48Z</time>
      </trkpt>
      <trkpt lat="45.94367" lon="4.72466">
        <ele>173</ele>
        <time>2018-11-15T11:20:49Z</time>
      </trkpt>
      <trkpt lat="45.94366" lon="4.72459">
        <ele>173</ele>
        <time>2018-11-15T11:20:50Z</time>
      </trkpt>
      <trkpt lat="45.94363" lon="4.72453">
        <ele>173</ele>
        <time>2018-11-15T11:20:51Z</time>
      </trkpt>
      <trkpt lat="45.94361" lon="4.72447">
        <ele>173</ele>
        <time>2018-11-15T11:20:52Z</time>
      </trkpt>
      <trkpt lat="45.94359" lon="4.72441">
        <ele>173</ele>
        <time>2018-11-15T11:20:53Z</time>
      </trkpt>
      <trkpt lat="45.94355" lon="4.72429">
        <ele>173</ele>
        <time>2018-11-15T11:20:55Z</time>
      </trkpt>
      <trkpt lat="45.9435" lon="4.72422">
        <ele>173</ele>
        <time>2018-11-15T11:20:56Z</time>
      </trkpt>
      <trkpt lat="45.94346" lon="4.72412">
        <ele>173</ele>
        <time>2018-11-15T11:20:58Z</time>
      </trkpt>
      <trkpt lat="45.94342" lon="4.72403">
        <ele>173</ele>
        <time>2018-11-15T11:20:59Z</time>
      </trkpt>
      <trkpt lat="45.94339" lon="4.72396">
        <ele>172</ele>
        <time>2018-11-15T11:21:00Z</time>
      </trkpt>
      <trkpt lat="45.94335" lon="4.7239">
        <ele>172</ele>
        <time>2018-11-15T11:21:01Z</time>
      </trkpt>
      <trkpt lat="45.9433" lon="4.7238">
        <ele>172</ele>
        <time>2018-11-15T11:21:03Z</time>
      </trkpt>
      <trkpt lat="45.94327" lon="4.72375">
        <ele>172</ele>
        <time>2018-11-15T11:21:04Z</time>
      </trkpt>
      <trkpt lat="45.94325" lon="4.72365">
        <ele>172</ele>
        <time>2018-11-15T11:21:05Z</time>
      </trkpt>
      <trkpt lat="45.94322" lon="4.72356">
        <ele>172</ele>
        <time>2018-11-15T11:21:06Z</time>
      </trkpt>
      <trkpt lat="45.94319" lon="4.7235">
        <ele>172</ele>
        <time>2018-11-15T11:21:07Z</time>
      </trkpt>
      <trkpt lat="45.94314" lon="4.72342">
        <ele>172</ele>
        <time>2018-11-15T11:21:08Z</time>
      </trkpt>
      <trkpt lat="45.94313" lon="4.72336">
        <ele>172</ele>
        <time>2018-11-15T11:21:09Z</time>
      </trkpt>
      <trkpt lat="45.94309" lon="4.72329">
        <ele>172</ele>
        <time>2018-11-15T11:21:10Z</time>
      </trkpt>
      <trkpt lat="45.94305" lon="4.72322">
        <ele>171</ele>
        <time>2018-11-15T11:21:11Z</time>
      </trkpt>
      <trkpt lat="45.94301" lon="4.72313">
        <ele>171</ele>
        <time>2018-11-15T11:21:12Z</time>
      </trkpt>
      <trkpt lat="45.94298" lon="4.72304">
        <ele>171</ele>
        <time>2018-11-15T11:21:13Z</time>
      </trkpt>
      <trkpt lat="45.94296" lon="4.72299">
        <ele>171</ele>
        <time>2018-11-15T11:21:14Z</time>
      </trkpt>
      <trkpt lat="45.94292" lon="4.72292">
        <ele>171</ele>
        <time>2018-11-15T11:21:15Z</time>
      </trkpt>
      <trkpt lat="45.94291" lon="4.72286">
        <ele>171</ele>
        <time>2018-11-15T11:21:16Z</time>
      </trkpt>
      <trkpt lat="45.94285" lon="4.72277">
        <ele>171</ele>
        <time>2018-11-15T11:21:17Z</time>
      </trkpt>
      <trkpt lat="45.94282" lon="4.72271">
        <ele>171</ele>
        <time>2018-11-15T11:21:18Z</time>
      </trkpt>
      <trkpt lat="45.94276" lon="4.72268">
        <ele>171</ele>
        <time>2018-11-15T11:21:19Z</time>
      </trkpt>
      <trkpt lat="45.94271" lon="4.72268">
        <ele>171</ele>
        <time>2018-11-15T11:21:20Z</time>
      </trkpt>
      <trkpt lat="45.94265" lon="4.72269">
        <ele>171</ele>
        <time>2018-11-15T11:21:21Z</time>
      </trkpt>
      <trkpt lat="45.9426" lon="4.72271">
        <ele>171</ele>
        <time>2018-11-15T11:21:22Z</time>
      </trkpt>
      <trkpt lat="45.94255" lon="4.72274">
        <ele>171</ele>
        <time>2018-11-15T11:21:23Z</time>
      </trkpt>
      <trkpt lat="45.9425" lon="4.72277">
        <ele>171</ele>
        <time>2018-11-15T11:21:24Z</time>
      </trkpt>
      <trkpt lat="45.94247" lon="4.72281">
        <ele>171</ele>
        <time>2018-11-15T11:21:25Z</time>
      </trkpt>
      <trkpt lat="45.94241" lon="4.72283">
        <ele>171</ele>
        <time>2018-11-15T11:21:26Z</time>
      </trkpt>
      <trkpt lat="45.94235" lon="4.72284">
        <ele>171</ele>
        <time>2018-11-15T11:21:27Z</time>
      </trkpt>
      <trkpt lat="45.9423" lon="4.72285">
        <ele>171</ele>
        <time>2018-11-15T11:21:28Z</time>
      </trkpt>
      <trkpt lat="45.94224" lon="4.72286">
        <ele>171</ele>
        <time>2018-11-15T11:21:29Z</time>
      </trkpt>
      <trkpt lat="45.94218" lon="4.72286">
        <ele>171</ele>
        <time>2018-11-15T11:21:30Z</time>
      </trkpt>
      <trkpt lat="45.94213" lon="4.72286">
        <ele>171</ele>
        <time>2018-11-15T11:21:31Z</time>
      </trkpt>
      <trkpt lat="45.94208" lon="4.72288">
        <ele>171</ele>
        <time>2018-11-15T11:21:32Z</time>
      </trkpt>
      <trkpt lat="45.94203" lon="4.72288">
        <ele>171</ele>
        <time>2018-11-15T11:21:33Z</time>
      </trkpt>
      <trkpt lat="45.94198" lon="4.72286">
        <ele>171</ele>
        <time>2018-11-15T11:21:34Z</time>
      </trkpt>
      <trkpt lat="45.94193" lon="4.72286">
        <ele>171</ele>
        <time>2018-11-15T11:21:35Z</time>
      </trkpt>
      <trkpt lat="45.94188" lon="4.72286">
        <ele>171</ele>
        <time>2018-11-15T11:21:36Z</time>
      </trkpt>
      <trkpt lat="45.94182" lon="4.72288">
        <ele>171</ele>
        <time>2018-11-15T11:21:37Z</time>
      </trkpt>
      <trkpt lat="45.94176" lon="4.72288">
        <ele>171</ele>
        <time>2018-11-15T11:21:38Z</time>
      </trkpt>
      <trkpt lat="45.9417" lon="4.72287">
        <ele>171</ele>
        <time>2018-11-15T11:21:39Z</time>
      </trkpt>
      <trkpt lat="45.94164" lon="4.72287">
        <ele>171</ele>
        <time>2018-11-15T11:21:40Z</time>
      </trkpt>
      <trkpt lat="45.94158" lon="4.72285">
        <ele>171</ele>
        <time>2018-11-15T11:21:41Z</time>
      </trkpt>
      <trkpt lat="45.94153" lon="4.72283">
        <ele>171</ele>
        <time>2018-11-15T11:21:42Z</time>
      </trkpt>
      <trkpt lat="45.94148" lon="4.7228">
        <ele>171</ele>
        <time>2018-11-15T11:21:43Z</time>
      </trkpt>
      <trkpt lat="45.94143" lon="4.72276">
        <ele>171</ele>
        <time>2018-11-15T11:21:44Z</time>
      </trkpt>
      <trkpt lat="45.94139" lon="4.72275">
        <ele>171</ele>
        <time>2018-11-15T11:21:45Z</time>
      </trkpt>
      <trkpt lat="45.94134" lon="4.72272">
        <ele>171</ele>
        <time>2018-11-15T11:21:46Z</time>
      </trkpt>
      <trkpt lat="45.94128" lon="4.72272">
        <ele>171</ele>
        <time>2018-11-15T11:21:47Z</time>
      </trkpt>
      <trkpt lat="45.94124" lon="4.72271">
        <ele>171</ele>
        <time>2018-11-15T11:21:48Z</time>
      </trkpt>
      <trkpt lat="45.94116" lon="4.72267">
        <ele>171</ele>
        <time>2018-11-15T11:21:50Z</time>
      </trkpt>
      <trkpt lat="45.94111" lon="4.72264">
        <ele>171</ele>
        <time>2018-11-15T11:21:51Z</time>
      </trkpt>
      <trkpt lat="45.94106" lon="4.72264">
        <ele>171</ele>
        <time>2018-11-15T11:21:52Z</time>
      </trkpt>
      <trkpt lat="45.941" lon="4.72264">
        <ele>171</ele>
        <time>2018-11-15T11:21:53Z</time>
      </trkpt>
      <trkpt lat="45.94096" lon="4.72264">
        <ele>171</ele>
        <time>2018-11-15T11:21:54Z</time>
      </trkpt>
      <trkpt lat="45.94091" lon="4.72264">
        <ele>171</ele>
        <time>2018-11-15T11:21:55Z</time>
      </trkpt>
      <trkpt lat="45.94085" lon="4.72266">
        <ele>171</ele>
        <time>2018-11-15T11:21:56Z</time>
      </trkpt>
      <trkpt lat="45.94079" lon="4.72267">
        <ele>171</ele>
        <time>2018-11-15T11:21:57Z</time>
      </trkpt>
      <trkpt lat="45.94074" lon="4.72271">
        <ele>171</ele>
        <time>2018-11-15T11:21:58Z</time>
      </trkpt>
      <trkpt lat="45.94069" lon="4.72274">
        <ele>171</ele>
        <time>2018-11-15T11:21:59Z</time>
      </trkpt>
      <trkpt lat="45.94064" lon="4.72279">
        <ele>171</ele>
        <time>2018-11-15T11:22:00Z</time>
      </trkpt>
      <trkpt lat="45.9406" lon="4.72285">
        <ele>171</ele>
        <time>2018-11-15T11:22:01Z</time>
      </trkpt>
      <trkpt lat="45.94055" lon="4.7229">
        <ele>171</ele>
        <time>2018-11-15T11:22:02Z</time>
      </trkpt>
      <trkpt lat="45.9405" lon="4.72297">
        <ele>171</ele>
        <time>2018-11-15T11:22:03Z</time>
      </trkpt>
      <trkpt lat="45.94045" lon="4.72303">
        <ele>171</ele>
        <time>2018-11-15T11:22:04Z</time>
      </trkpt>
      <trkpt lat="45.94041" lon="4.72309">
        <ele>171</ele>
        <time>2018-11-15T11:22:05Z</time>
      </trkpt>
      <trkpt lat="45.94037" lon="4.72315">
        <ele>171</ele>
        <time>2018-11-15T11:22:06Z</time>
      </trkpt>
      <trkpt lat="45.94032" lon="4.72321">
        <ele>171</ele>
        <time>2018-11-15T11:22:07Z</time>
      </trkpt>
      <trkpt lat="45.94028" lon="4.72326">
        <ele>171</ele>
        <time>2018-11-15T11:22:08Z</time>
      </trkpt>
      <trkpt lat="45.94023" lon="4.72331">
        <ele>171</ele>
        <time>2018-11-15T11:22:09Z</time>
      </trkpt>
      <trkpt lat="45.94019" lon="4.72337">
        <ele>171</ele>
        <time>2018-11-15T11:22:10Z</time>
      </trkpt>
      <trkpt lat="45.94016" lon="4.72343">
        <ele>171</ele>
        <time>2018-11-15T11:22:11Z</time>
      </trkpt>
      <trkpt lat="45.94012" lon="4.72348">
        <ele>171</ele>
        <time>2018-11-15T11:22:12Z</time>
      </trkpt>
      <trkpt lat="45.94008" lon="4.72354">
        <ele>171</ele>
        <time>2018-11-15T11:22:13Z</time>
      </trkpt>
      <trkpt lat="45.94004" lon="4.7236">
        <ele>171</ele>
        <time>2018-11-15T11:22:14Z</time>
      </trkpt>
      <trkpt lat="45.94" lon="4.72365">
        <ele>171</ele>
        <time>2018-11-15T11:22:15Z</time>
      </trkpt>
      <trkpt lat="45.93997" lon="4.72369">
        <ele>171</ele>
        <time>2018-11-15T11:22:16Z</time>
      </trkpt>
      <trkpt lat="45.93993" lon="4.72374">
        <ele>171</ele>
        <time>2018-11-15T11:22:17Z</time>
      </trkpt>
      <trkpt lat="45.9399" lon="4.72379">
        <ele>171</ele>
        <time>2018-11-15T11:22:18Z</time>
      </trkpt>
      <trkpt lat="45.93987" lon="4.72384">
        <ele>171</ele>
        <time>2018-11-15T11:22:19Z</time>
      </trkpt>
      <trkpt lat="45.93983" lon="4.72388">
        <ele>171</ele>
        <time>2018-11-15T11:22:20Z</time>
      </trkpt>
      <trkpt lat="45.93979" lon="4.72394">
        <ele>171</ele>
        <time>2018-11-15T11:22:21Z</time>
      </trkpt>
      <trkpt lat="45.93975" lon="4.72399">
        <ele>171</ele>
        <time>2018-11-15T11:22:22Z</time>
      </trkpt>
      <trkpt lat="45.93971" lon="4.72403">
        <ele>171</ele>
        <time>2018-11-15T11:22:23Z</time>
      </trkpt>
      <trkpt lat="45.93967" lon="4.72406">
        <ele>171</ele>
        <time>2018-11-15T11:22:24Z</time>
      </trkpt>
      <trkpt lat="45.93963" lon="4.72411">
        <ele>171</ele>
        <time>2018-11-15T11:22:25Z</time>
      </trkpt>
      <trkpt lat="45.93959" lon="4.72415">
        <ele>171</ele>
        <time>2018-11-15T11:22:26Z</time>
      </trkpt>
      <trkpt lat="45.93955" lon="4.72419">
        <ele>171</ele>
        <time>2018-11-15T11:22:27Z</time>
      </trkpt>
      <trkpt lat="45.93951" lon="4.72424">
        <ele>171</ele>
        <time>2018-11-15T11:22:28Z</time>
      </trkpt>
      <trkpt lat="45.93947" lon="4.72429">
        <ele>171</ele>
        <time>2018-11-15T11:22:29Z</time>
      </trkpt>
      <trkpt lat="45.93942" lon="4.72437">
        <ele>171</ele>
        <time>2018-11-15T11:22:31Z</time>
      </trkpt>
      <trkpt lat="45.93939" lon="4.72441">
        <ele>171</ele>
        <time>2018-11-15T11:22:32Z</time>
      </trkpt>
      <trkpt lat="45.93932" lon="4.72449">
        <ele>171</ele>
        <time>2018-11-15T11:22:34Z</time>
      </trkpt>
      <trkpt lat="45.93928" lon="4.72455">
        <ele>171</ele>
        <time>2018-11-15T11:22:35Z</time>
      </trkpt>
      <trkpt lat="45.93923" lon="4.72457">
        <ele>171</ele>
        <time>2018-11-15T11:22:36Z</time>
      </trkpt>
      <trkpt lat="45.93908" lon="4.72477">
        <ele>172</ele>
        <time>2018-11-15T11:22:40Z</time>
      </trkpt>
      <trkpt lat="45.93904" lon="4.72481">
        <ele>172</ele>
        <time>2018-11-15T11:22:41Z</time>
      </trkpt>
      <trkpt lat="45.939" lon="4.72486">
        <ele>172</ele>
        <time>2018-11-15T11:22:42Z</time>
      </trkpt>
      <trkpt lat="45.93896" lon="4.72488">
        <ele>172</ele>
        <time>2018-11-15T11:22:43Z</time>
      </trkpt>
      <trkpt lat="45.93892" lon="4.72494">
        <ele>172</ele>
        <time>2018-11-15T11:22:44Z</time>
      </trkpt>
      <trkpt lat="45.93887" lon="4.72498">
        <ele>172</ele>
        <time>2018-11-15T11:22:45Z</time>
      </trkpt>
      <trkpt lat="45.93883" lon="4.72503">
        <ele>173</ele>
        <time>2018-11-15T11:22:46Z</time>
      </trkpt>
      <trkpt lat="45.93879" lon="4.72506">
        <ele>173</ele>
        <time>2018-11-15T11:22:47Z</time>
      </trkpt>
      <trkpt lat="45.93875" lon="4.72511">
        <ele>173</ele>
        <time>2018-11-15T11:22:48Z</time>
      </trkpt>
      <trkpt lat="45.9387" lon="4.72512">
        <ele>173</ele>
        <time>2018-11-15T11:22:49Z</time>
      </trkpt>
      <trkpt lat="45.93866" lon="4.72511">
        <ele>173</ele>
        <time>2018-11-15T11:22:50Z</time>
      </trkpt>
      <trkpt lat="45.93859" lon="4.72507">
        <ele>173</ele>
        <time>2018-11-15T11:22:52Z</time>
      </trkpt>
      <trkpt lat="45.93854" lon="4.72506">
        <ele>173</ele>
        <time>2018-11-15T11:22:53Z</time>
      </trkpt>
      <trkpt lat="45.93847" lon="4.72501">
        <ele>174</ele>
        <time>2018-11-15T11:22:55Z</time>
      </trkpt>
      <trkpt lat="45.93843" lon="4.72499">
        <ele>173</ele>
        <time>2018-11-15T11:22:56Z</time>
      </trkpt>
      <trkpt lat="45.93835" lon="4.72495">
        <ele>174</ele>
        <time>2018-11-15T11:22:58Z</time>
      </trkpt>
      <trkpt lat="45.93827" lon="4.72475">
        <ele>173</ele>
        <time>2018-11-15T11:22:59Z</time>
      </trkpt>
      <trkpt lat="45.93822" lon="4.72469">
        <ele>172</ele>
        <time>2018-11-15T11:23:00Z</time>
      </trkpt>
      <trkpt lat="45.93818" lon="4.72468">
        <ele>172</ele>
        <time>2018-11-15T11:23:01Z</time>
      </trkpt>
      <trkpt lat="45.93813" lon="4.72458">
        <ele>172</ele>
        <time>2018-11-15T11:23:04Z</time>
      </trkpt>
      <trkpt lat="45.93805" lon="4.72455">
        <ele>172</ele>
        <time>2018-11-15T11:23:05Z</time>
      </trkpt>
      <trkpt lat="45.93803" lon="4.72453">
        <ele>172</ele>
        <time>2018-11-15T11:23:06Z</time>
      </trkpt>
      <trkpt lat="45.93793" lon="4.7245">
        <ele>172</ele>
        <time>2018-11-15T11:23:07Z</time>
      </trkpt>
      <trkpt lat="45.93789" lon="4.72444">
        <ele>172</ele>
        <time>2018-11-15T11:23:09Z</time>
      </trkpt>
      <trkpt lat="45.93784" lon="4.72439">
        <ele>172</ele>
        <time>2018-11-15T11:23:10Z</time>
      </trkpt>
      <trkpt lat="45.9378" lon="4.72434">
        <ele>172</ele>
        <time>2018-11-15T11:23:11Z</time>
      </trkpt>
      <trkpt lat="45.93776" lon="4.72429">
        <ele>171</ele>
        <time>2018-11-15T11:23:12Z</time>
      </trkpt>
      <trkpt lat="45.9377" lon="4.72421">
        <ele>171</ele>
        <time>2018-11-15T11:23:14Z</time>
      </trkpt>
      <trkpt lat="45.93767" lon="4.72417">
        <ele>171</ele>
        <time>2018-11-15T11:23:15Z</time>
      </trkpt>
      <trkpt lat="45.93764" lon="4.72413">
        <ele>171</ele>
        <time>2018-11-15T11:23:16Z</time>
      </trkpt>
      <trkpt lat="45.93758" lon="4.72409">
        <ele>171</ele>
        <time>2018-11-15T11:23:17Z</time>
      </trkpt>
      <trkpt lat="45.93752" lon="4.72405">
        <ele>171</ele>
        <time>2018-11-15T11:23:18Z</time>
      </trkpt>
      <trkpt lat="45.93748" lon="4.72401">
        <ele>171</ele>
        <time>2018-11-15T11:23:19Z</time>
      </trkpt>
      <trkpt lat="45.9374" lon="4.72395">
        <ele>171</ele>
        <time>2018-11-15T11:23:21Z</time>
      </trkpt>
      <trkpt lat="45.93736" lon="4.7239">
        <ele>171</ele>
        <time>2018-11-15T11:23:22Z</time>
      </trkpt>
      <trkpt lat="45.93729" lon="4.72383">
        <ele>171</ele>
        <time>2018-11-15T11:23:24Z</time>
      </trkpt>
      <trkpt lat="45.93724" lon="4.72381">
        <ele>171</ele>
        <time>2018-11-15T11:23:25Z</time>
      </trkpt>
      <trkpt lat="45.93719" lon="4.72376">
        <ele>171</ele>
        <time>2018-11-15T11:23:26Z</time>
      </trkpt>
      <trkpt lat="45.93715" lon="4.72372">
        <ele>172</ele>
        <time>2018-11-15T11:23:27Z</time>
      </trkpt>
      <trkpt lat="45.93708" lon="4.72366">
        <ele>171</ele>
        <time>2018-11-15T11:23:29Z</time>
      </trkpt>
      <trkpt lat="45.93704" lon="4.72363">
        <ele>171</ele>
        <time>2018-11-15T11:23:30Z</time>
      </trkpt>
      <trkpt lat="45.93696" lon="4.72356">
        <ele>171</ele>
        <time>2018-11-15T11:23:32Z</time>
      </trkpt>
      <trkpt lat="45.93692" lon="4.72352">
        <ele>171</ele>
        <time>2018-11-15T11:23:33Z</time>
      </trkpt>
      <trkpt lat="45.93687" lon="4.72349">
        <ele>171</ele>
        <time>2018-11-15T11:23:34Z</time>
      </trkpt>
      <trkpt lat="45.93683" lon="4.72344">
        <ele>171</ele>
        <time>2018-11-15T11:23:35Z</time>
      </trkpt>
      <trkpt lat="45.93681" lon="4.72337">
        <ele>171</ele>
        <time>2018-11-15T11:23:36Z</time>
      </trkpt>
      <trkpt lat="45.93678" lon="4.72333">
        <ele>171</ele>
        <time>2018-11-15T11:23:37Z</time>
      </trkpt>
      <trkpt lat="45.93674" lon="4.72329">
        <ele>171</ele>
        <time>2018-11-15T11:23:38Z</time>
      </trkpt>
      <trkpt lat="45.93668" lon="4.72329">
        <ele>171</ele>
        <time>2018-11-15T11:23:39Z</time>
      </trkpt>
      <trkpt lat="45.93664" lon="4.72326">
        <ele>171</ele>
        <time>2018-11-15T11:23:40Z</time>
      </trkpt>
      <trkpt lat="45.93659" lon="4.7232">
        <ele>172</ele>
        <time>2018-11-15T11:23:41Z</time>
      </trkpt>
      <trkpt lat="45.93655" lon="4.72317">
        <ele>172</ele>
        <time>2018-11-15T11:23:42Z</time>
      </trkpt>
      <trkpt lat="45.93651" lon="4.72314">
        <ele>172</ele>
        <time>2018-11-15T11:23:43Z</time>
      </trkpt>
      <trkpt lat="45.93644" lon="4.72307">
        <ele>172</ele>
        <time>2018-11-15T11:23:45Z</time>
      </trkpt>
      <trkpt lat="45.9364" lon="4.72303">
        <ele>172</ele>
        <time>2018-11-15T11:23:46Z</time>
      </trkpt>
      <trkpt lat="45.93635" lon="4.72297">
        <ele>172</ele>
        <time>2018-11-15T11:23:47Z</time>
      </trkpt>
      <trkpt lat="45.93631" lon="4.72293">
        <ele>172</ele>
        <time>2018-11-15T11:23:48Z</time>
      </trkpt>
      <trkpt lat="45.93627" lon="4.72285">
        <ele>172</ele>
        <time>2018-11-15T11:23:50Z</time>
      </trkpt>
      <trkpt lat="45.93623" lon="4.72282">
        <ele>172</ele>
        <time>2018-11-15T11:23:51Z</time>
      </trkpt>
      <trkpt lat="45.9362" lon="4.72278">
        <ele>172</ele>
        <time>2018-11-15T11:23:52Z</time>
      </trkpt>
      <trkpt lat="45.93615" lon="4.72273">
        <ele>172</ele>
        <time>2018-11-15T11:23:53Z</time>
      </trkpt>
      <trkpt lat="45.9361" lon="4.72268">
        <ele>172</ele>
        <time>2018-11-15T11:23:55Z</time>
      </trkpt>
      <trkpt lat="45.93607" lon="4.72265">
        <ele>173</ele>
        <time>2018-11-15T11:23:56Z</time>
      </trkpt>
      <trkpt lat="45.93602" lon="4.72258">
        <ele>173</ele>
        <time>2018-11-15T11:23:59Z</time>
      </trkpt>
      <trkpt lat="45.93599" lon="4.72256">
        <ele>173</ele>
        <time>2018-11-15T11:24:00Z</time>
      </trkpt>
      <trkpt lat="45.93594" lon="4.72249">
        <ele>173</ele>
        <time>2018-11-15T11:24:03Z</time>
      </trkpt>
      <trkpt lat="45.93592" lon="4.72246">
        <ele>173</ele>
        <time>2018-11-15T11:24:04Z</time>
      </trkpt>
      <trkpt lat="45.9359" lon="4.72243">
        <ele>173</ele>
        <time>2018-11-15T11:24:05Z</time>
      </trkpt>
      <trkpt lat="45.93579" lon="4.72235">
        <ele>173</ele>
        <time>2018-11-15T11:24:06Z</time>
      </trkpt>
      <trkpt lat="45.93571" lon="4.7223">
        <ele>173</ele>
        <time>2018-11-15T11:24:09Z</time>
      </trkpt>
      <trkpt lat="45.93568" lon="4.72228">
        <ele>173</ele>
        <time>2018-11-15T11:24:10Z</time>
      </trkpt>
      <trkpt lat="45.9356" lon="4.72223">
        <ele>173</ele>
        <time>2018-11-15T11:24:18Z</time>
      </trkpt>
      <trkpt lat="45.93559" lon="4.72223">
        <ele>173</ele>
        <time>2018-11-15T11:24:19Z</time>
      </trkpt>
      <trkpt lat="45.93551" lon="4.7222">
        <ele>173</ele>
        <time>2018-11-15T11:25:00Z</time>
      </trkpt>
      <trkpt lat="45.9355" lon="4.7222">
        <ele>172</ele>
        <time>2018-11-15T11:25:01Z</time>
      </trkpt>
      <trkpt lat="45.93542" lon="4.72226">
        <ele>172</ele>
        <time>2018-11-15T11:25:06Z</time>
      </trkpt>
      <trkpt lat="45.9354" lon="4.7223">
        <ele>172</ele>
        <time>2018-11-15T11:25:07Z</time>
      </trkpt>
      <trkpt lat="45.93537" lon="4.72239">
        <ele>172</ele>
        <time>2018-11-15T11:25:08Z</time>
      </trkpt>
      <trkpt lat="45.93535" lon="4.72242">
        <ele>172</ele>
        <time>2018-11-15T11:25:09Z</time>
      </trkpt>
      <trkpt lat="45.93531" lon="4.72253">
        <ele>172</ele>
        <time>2018-11-15T11:25:11Z</time>
      </trkpt>
      <trkpt lat="45.93529" lon="4.72258">
        <ele>172</ele>
        <time>2018-11-15T11:25:12Z</time>
      </trkpt>
      <trkpt lat="45.93527" lon="4.72264">
        <ele>172</ele>
        <time>2018-11-15T11:25:13Z</time>
      </trkpt>
      <trkpt lat="45.93525" lon="4.7227">
        <ele>172</ele>
        <time>2018-11-15T11:25:14Z</time>
      </trkpt>
      <trkpt lat="45.93523" lon="4.72277">
        <ele>172</ele>
        <time>2018-11-15T11:25:15Z</time>
      </trkpt>
      <trkpt lat="45.9352" lon="4.72283">
        <ele>172</ele>
        <time>2018-11-15T11:25:16Z</time>
      </trkpt>
      <trkpt lat="45.93517" lon="4.72291">
        <ele>172</ele>
        <time>2018-11-15T11:25:17Z</time>
      </trkpt>
      <trkpt lat="45.93514" lon="4.72296">
        <ele>172</ele>
        <time>2018-11-15T11:25:18Z</time>
      </trkpt>
      <trkpt lat="45.93511" lon="4.72303">
        <ele>172</ele>
        <time>2018-11-15T11:25:19Z</time>
      </trkpt>
      <trkpt lat="45.93506" lon="4.72309">
        <ele>173</ele>
        <time>2018-11-15T11:25:20Z</time>
      </trkpt>
      <trkpt lat="45.93503" lon="4.72314">
        <ele>173</ele>
        <time>2018-11-15T11:25:21Z</time>
      </trkpt>
      <trkpt lat="45.935" lon="4.72321">
        <ele>173</ele>
        <time>2018-11-15T11:25:22Z</time>
      </trkpt>
      <trkpt lat="45.93495" lon="4.72327">
        <ele>173</ele>
        <time>2018-11-15T11:25:23Z</time>
      </trkpt>
      <trkpt lat="45.93491" lon="4.72332">
        <ele>173</ele>
        <time>2018-11-15T11:25:24Z</time>
      </trkpt>
      <trkpt lat="45.93487" lon="4.72339">
        <ele>173</ele>
        <time>2018-11-15T11:25:25Z</time>
      </trkpt>
      <trkpt lat="45.93482" lon="4.72343">
        <ele>173</ele>
        <time>2018-11-15T11:25:26Z</time>
      </trkpt>
      <trkpt lat="45.93477" lon="4.72351">
        <ele>173</ele>
        <time>2018-11-15T11:25:27Z</time>
      </trkpt>
      <trkpt lat="45.93473" lon="4.72357">
        <ele>173</ele>
        <time>2018-11-15T11:25:28Z</time>
      </trkpt>
      <trkpt lat="45.93469" lon="4.72362">
        <ele>173</ele>
        <time>2018-11-15T11:25:29Z</time>
      </trkpt>
      <trkpt lat="45.93465" lon="4.72368">
        <ele>173</ele>
        <time>2018-11-15T11:25:30Z</time>
      </trkpt>
      <trkpt lat="45.93461" lon="4.72373">
        <ele>173</ele>
        <time>2018-11-15T11:25:31Z</time>
      </trkpt>
      <trkpt lat="45.93458" lon="4.72378">
        <ele>173</ele>
        <time>2018-11-15T11:25:32Z</time>
      </trkpt>
      <trkpt lat="45.93454" lon="4.72382">
        <ele>173</ele>
        <time>2018-11-15T11:25:33Z</time>
      </trkpt>
      <trkpt lat="45.93449" lon="4.72388">
        <ele>173</ele>
        <time>2018-11-15T11:25:34Z</time>
      </trkpt>
      <trkpt lat="45.93444" lon="4.72392">
        <ele>173</ele>
        <time>2018-11-15T11:25:35Z</time>
      </trkpt>
      <trkpt lat="45.9344" lon="4.72395">
        <ele>173</ele>
        <time>2018-11-15T11:25:36Z</time>
      </trkpt>
      <trkpt lat="45.93436" lon="4.72398">
        <ele>173</ele>
        <time>2018-11-15T11:25:37Z</time>
      </trkpt>
      <trkpt lat="45.93431" lon="4.72401">
        <ele>174</ele>
        <time>2018-11-15T11:25:38Z</time>
      </trkpt>
      <trkpt lat="45.93426" lon="4.72403">
        <ele>174</ele>
        <time>2018-11-15T11:25:39Z</time>
      </trkpt>
      <trkpt lat="45.93421" lon="4.72406">
        <ele>174</ele>
        <time>2018-11-15T11:25:40Z</time>
      </trkpt>
      <trkpt lat="45.93417" lon="4.72407">
        <ele>174</ele>
        <time>2018-11-15T11:25:41Z</time>
      </trkpt>
      <trkpt lat="45.93412" lon="4.72409">
        <ele>174</ele>
        <time>2018-11-15T11:25:42Z</time>
      </trkpt>
      <trkpt lat="45.93403" lon="4.72409">
        <ele>174</ele>
        <time>2018-11-15T11:25:44Z</time>
      </trkpt>
      <trkpt lat="45.93399" lon="4.72407">
        <ele>174</ele>
        <time>2018-11-15T11:25:45Z</time>
      </trkpt>
      <trkpt lat="45.9339" lon="4.72406">
        <ele>174</ele>
        <time>2018-11-15T11:25:47Z</time>
      </trkpt>
      <trkpt lat="45.93388" lon="4.72409">
        <ele>174</ele>
        <time>2018-11-15T11:25:48Z</time>
      </trkpt>
      <trkpt lat="45.93383" lon="4.7242">
        <ele>173</ele>
        <time>2018-11-15T11:25:50Z</time>
      </trkpt>
      <trkpt lat="45.93384" lon="4.72426">
        <ele>173</ele>
        <time>2018-11-15T11:25:51Z</time>
      </trkpt>
      <trkpt lat="45.93386" lon="4.72432">
        <ele>173</ele>
        <time>2018-11-15T11:25:52Z</time>
      </trkpt>
      <trkpt lat="45.93388" lon="4.72439">
        <ele>173</ele>
        <time>2018-11-15T11:25:53Z</time>
      </trkpt>
      <trkpt lat="45.9339" lon="4.72445">
        <ele>173</ele>
        <time>2018-11-15T11:25:54Z</time>
      </trkpt>
      <trkpt lat="45.93391" lon="4.72452">
        <ele>173</ele>
        <time>2018-11-15T11:25:55Z</time>
      </trkpt>
      <trkpt lat="45.9339" lon="4.72459">
        <ele>173</ele>
        <time>2018-11-15T11:25:56Z</time>
      </trkpt>
      <trkpt lat="45.93388" lon="4.72465">
        <ele>173</ele>
        <time>2018-11-15T11:25:57Z</time>
      </trkpt>
      <trkpt lat="45.93384" lon="4.72472">
        <ele>173</ele>
        <time>2018-11-15T11:25:58Z</time>
      </trkpt>
      <trkpt lat="45.9338" lon="4.72475">
        <ele>173</ele>
        <time>2018-11-15T11:25:59Z</time>
      </trkpt>
      <trkpt lat="45.93373" lon="4.72482">
        <ele>173</ele>
        <time>2018-11-15T11:26:01Z</time>
      </trkpt>
      <trkpt lat="45.93369" lon="4.72486">
        <ele>173</ele>
        <time>2018-11-15T11:26:02Z</time>
      </trkpt>
      <trkpt lat="45.93366" lon="4.72491">
        <ele>173</ele>
        <time>2018-11-15T11:26:03Z</time>
      </trkpt>
      <trkpt lat="45.93361" lon="4.72495">
        <ele>173</ele>
        <time>2018-11-15T11:26:04Z</time>
      </trkpt>
      <trkpt lat="45.93356" lon="4.72503">
        <ele>172</ele>
        <time>2018-11-15T11:26:05Z</time>
      </trkpt>
      <trkpt lat="45.93351" lon="4.72507">
        <ele>172</ele>
        <time>2018-11-15T11:26:06Z</time>
      </trkpt>
      <trkpt lat="45.93347" lon="4.72512">
        <ele>172</ele>
        <time>2018-11-15T11:26:07Z</time>
      </trkpt>
      <trkpt lat="45.93343" lon="4.72518">
        <ele>172</ele>
        <time>2018-11-15T11:26:08Z</time>
      </trkpt>
      <trkpt lat="45.93339" lon="4.72522">
        <ele>172</ele>
        <time>2018-11-15T11:26:09Z</time>
      </trkpt>
      <trkpt lat="45.93335" lon="4.72527">
        <ele>172</ele>
        <time>2018-11-15T11:26:10Z</time>
      </trkpt>
      <trkpt lat="45.93331" lon="4.72531">
        <ele>172</ele>
        <time>2018-11-15T11:26:11Z</time>
      </trkpt>
      <trkpt lat="45.93327" lon="4.72535">
        <ele>172</ele>
        <time>2018-11-15T11:26:12Z</time>
      </trkpt>
      <trkpt lat="45.93321" lon="4.72543">
        <ele>172</ele>
        <time>2018-11-15T11:26:14Z</time>
      </trkpt>
      <trkpt lat="45.93317" lon="4.72549">
        <ele>172</ele>
        <time>2018-11-15T11:26:15Z</time>
      </trkpt>
      <trkpt lat="45.93314" lon="4.72554">
        <ele>172</ele>
        <time>2018-11-15T11:26:16Z</time>
      </trkpt>
      <trkpt lat="45.9331" lon="4.72559">
        <ele>172</ele>
        <time>2018-11-15T11:26:17Z</time>
      </trkpt>
      <trkpt lat="45.93305" lon="4.72564">
        <ele>171</ele>
        <time>2018-11-15T11:26:18Z</time>
      </trkpt>
      <trkpt lat="45.93301" lon="4.72569">
        <ele>171</ele>
        <time>2018-11-15T11:26:19Z</time>
      </trkpt>
      <trkpt lat="45.93297" lon="4.72572">
        <ele>171</ele>
        <time>2018-11-15T11:26:20Z</time>
      </trkpt>
      <trkpt lat="45.93292" lon="4.72576">
        <ele>171</ele>
        <time>2018-11-15T11:26:21Z</time>
      </trkpt>
      <trkpt lat="45.93288" lon="4.72581">
        <ele>171</ele>
        <time>2018-11-15T11:26:22Z</time>
      </trkpt>
      <trkpt lat="45.93283" lon="4.72586">
        <ele>170</ele>
        <time>2018-11-15T11:26:23Z</time>
      </trkpt>
      <trkpt lat="45.93279" lon="4.72591">
        <ele>170</ele>
        <time>2018-11-15T11:26:24Z</time>
      </trkpt>
      <trkpt lat="45.93275" lon="4.72595">
        <ele>170</ele>
        <time>2018-11-15T11:26:25Z</time>
      </trkpt>
      <trkpt lat="45.93271" lon="4.72599">
        <ele>170</ele>
        <time>2018-11-15T11:26:26Z</time>
      </trkpt>
      <trkpt lat="45.93267" lon="4.72604">
        <ele>170</ele>
        <time>2018-11-15T11:26:27Z</time>
      </trkpt>
      <trkpt lat="45.93263" lon="4.72609">
        <ele>170</ele>
        <time>2018-11-15T11:26:28Z</time>
      </trkpt>
      <trkpt lat="45.9326" lon="4.72613">
        <ele>170</ele>
        <time>2018-11-15T11:26:29Z</time>
      </trkpt>
      <trkpt lat="45.93255" lon="4.7262">
        <ele>170</ele>
        <time>2018-11-15T11:26:30Z</time>
      </trkpt>
      <trkpt lat="45.93252" lon="4.72624">
        <ele>170</ele>
        <time>2018-11-15T11:26:31Z</time>
      </trkpt>
      <trkpt lat="45.93248" lon="4.72629">
        <ele>170</ele>
        <time>2018-11-15T11:26:32Z</time>
      </trkpt>
      <trkpt lat="45.93244" lon="4.72634">
        <ele>170</ele>
        <time>2018-11-15T11:26:33Z</time>
      </trkpt>
      <trkpt lat="45.9324" lon="4.72638">
        <ele>170</ele>
        <time>2018-11-15T11:26:34Z</time>
      </trkpt>
      <trkpt lat="45.93235" lon="4.72643">
        <ele>170</ele>
        <time>2018-11-15T11:26:35Z</time>
      </trkpt>
      <trkpt lat="45.93232" lon="4.72648">
        <ele>170</ele>
        <time>2018-11-15T11:26:36Z</time>
      </trkpt>
      <trkpt lat="45.93228" lon="4.72651">
        <ele>170</ele>
        <time>2018-11-15T11:26:37Z</time>
      </trkpt>
      <trkpt lat="45.93224" lon="4.72656">
        <ele>170</ele>
        <time>2018-11-15T11:26:38Z</time>
      </trkpt>
      <trkpt lat="45.93219" lon="4.72661">
        <ele>170</ele>
        <time>2018-11-15T11:26:39Z</time>
      </trkpt>
      <trkpt lat="45.93214" lon="4.72664">
        <ele>170</ele>
        <time>2018-11-15T11:26:40Z</time>
      </trkpt>
      <trkpt lat="45.93209" lon="4.72669">
        <ele>169</ele>
        <time>2018-11-15T11:26:41Z</time>
      </trkpt>
      <trkpt lat="45.93203" lon="4.72677">
        <ele>169</ele>
        <time>2018-11-15T11:26:43Z</time>
      </trkpt>
      <trkpt lat="45.93199" lon="4.72682">
        <ele>169</ele>
        <time>2018-11-15T11:26:44Z</time>
      </trkpt>
      <trkpt lat="45.93195" lon="4.72686">
        <ele>169</ele>
        <time>2018-11-15T11:26:45Z</time>
      </trkpt>
      <trkpt lat="45.9319" lon="4.72691">
        <ele>169</ele>
        <time>2018-11-15T11:26:46Z</time>
      </trkpt>
      <trkpt lat="45.93187" lon="4.72695">
        <ele>169</ele>
        <time>2018-11-15T11:26:47Z</time>
      </trkpt>
      <trkpt lat="45.93183" lon="4.72699">
        <ele>169</ele>
        <time>2018-11-15T11:26:48Z</time>
      </trkpt>
      <trkpt lat="45.93178" lon="4.72704">
        <ele>169</ele>
        <time>2018-11-15T11:26:49Z</time>
      </trkpt>
      <trkpt lat="45.93173" lon="4.7271">
        <ele>170</ele>
        <time>2018-11-15T11:26:50Z</time>
      </trkpt>
      <trkpt lat="45.9317" lon="4.72716">
        <ele>170</ele>
        <time>2018-11-15T11:26:51Z</time>
      </trkpt>
      <trkpt lat="45.93166" lon="4.72721">
        <ele>170</ele>
        <time>2018-11-15T11:26:52Z</time>
      </trkpt>
      <trkpt lat="45.93163" lon="4.72724">
        <ele>170</ele>
        <time>2018-11-15T11:26:53Z</time>
      </trkpt>
      <trkpt lat="45.93159" lon="4.7273">
        <ele>170</ele>
        <time>2018-11-15T11:26:54Z</time>
      </trkpt>
      <trkpt lat="45.93152" lon="4.72737">
        <ele>170</ele>
        <time>2018-11-15T11:26:56Z</time>
      </trkpt>
      <trkpt lat="45.93149" lon="4.72741">
        <ele>170</ele>
        <time>2018-11-15T11:26:57Z</time>
      </trkpt>
      <trkpt lat="45.93145" lon="4.72746">
        <ele>170</ele>
        <time>2018-11-15T11:26:58Z</time>
      </trkpt>
      <trkpt lat="45.93141" lon="4.72749">
        <ele>170</ele>
        <time>2018-11-15T11:26:59Z</time>
      </trkpt>
      <trkpt lat="45.93138" lon="4.72753">
        <ele>171</ele>
        <time>2018-11-15T11:27:00Z</time>
      </trkpt>
      <trkpt lat="45.93134" lon="4.72757">
        <ele>171</ele>
        <time>2018-11-15T11:27:01Z</time>
      </trkpt>
      <trkpt lat="45.93127" lon="4.72766">
        <ele>171</ele>
        <time>2018-11-15T11:27:03Z</time>
      </trkpt>
      <trkpt lat="45.93124" lon="4.72769">
        <ele>171</ele>
        <time>2018-11-15T11:27:04Z</time>
      </trkpt>
      <trkpt lat="45.93118" lon="4.72777">
        <ele>171</ele>
        <time>2018-11-15T11:27:06Z</time>
      </trkpt>
      <trkpt lat="45.93115" lon="4.72781">
        <ele>171</ele>
        <time>2018-11-15T11:27:07Z</time>
      </trkpt>
      <trkpt lat="45.9311" lon="4.72789">
        <ele>171</ele>
        <time>2018-11-15T11:27:09Z</time>
      </trkpt>
      <trkpt lat="45.93108" lon="4.72791">
        <ele>171</ele>
        <time>2018-11-15T11:27:10Z</time>
      </trkpt>
      <trkpt lat="45.93103" lon="4.72796">
        <ele>171</ele>
        <time>2018-11-15T11:27:12Z</time>
      </trkpt>
      <trkpt lat="45.93101" lon="4.72799">
        <ele>171</ele>
        <time>2018-11-15T11:27:13Z</time>
      </trkpt>
      <trkpt lat="45.93097" lon="4.72805">
        <ele>171</ele>
        <time>2018-11-15T11:27:15Z</time>
      </trkpt>
      <trkpt lat="45.93092" lon="4.72812">
        <ele>172</ele>
        <time>2018-11-15T11:27:16Z</time>
      </trkpt>
      <trkpt lat="45.93086" lon="4.7282">
        <ele>172</ele>
        <time>2018-11-15T11:27:18Z</time>
      </trkpt>
      <trkpt lat="45.93083" lon="4.72824">
        <ele>173</ele>
        <time>2018-11-15T11:27:19Z</time>
      </trkpt>
      <trkpt lat="45.93078" lon="4.72834">
        <ele>173</ele>
        <time>2018-11-15T11:27:21Z</time>
      </trkpt>
      <trkpt lat="45.93074" lon="4.72838">
        <ele>173</ele>
        <time>2018-11-15T11:27:22Z</time>
      </trkpt>
      <trkpt lat="45.93071" lon="4.72842">
        <ele>173</ele>
        <time>2018-11-15T11:27:23Z</time>
      </trkpt>
      <trkpt lat="45.93066" lon="4.7285">
        <ele>172</ele>
        <time>2018-11-15T11:27:24Z</time>
      </trkpt>
      <trkpt lat="45.93061" lon="4.72854">
        <ele>172</ele>
        <time>2018-11-15T11:27:25Z</time>
      </trkpt>
      <trkpt lat="45.93055" lon="4.72857">
        <ele>172</ele>
        <time>2018-11-15T11:27:26Z</time>
      </trkpt>
      <trkpt lat="45.9305" lon="4.72862">
        <ele>172</ele>
        <time>2018-11-15T11:27:27Z</time>
      </trkpt>
      <trkpt lat="45.93044" lon="4.72868">
        <ele>172</ele>
        <time>2018-11-15T11:27:28Z</time>
      </trkpt>
      <trkpt lat="45.93039" lon="4.72874">
        <ele>172</ele>
        <time>2018-11-15T11:27:29Z</time>
      </trkpt>
      <trkpt lat="45.93035" lon="4.72878">
        <ele>172</ele>
        <time>2018-11-15T11:27:30Z</time>
      </trkpt>
      <trkpt lat="45.93031" lon="4.72882">
        <ele>172</ele>
        <time>2018-11-15T11:27:31Z</time>
      </trkpt>
      <trkpt lat="45.93026" lon="4.72887">
        <ele>172</ele>
        <time>2018-11-15T11:27:32Z</time>
      </trkpt>
      <trkpt lat="45.93022" lon="4.72891">
        <ele>172</ele>
        <time>2018-11-15T11:27:33Z</time>
      </trkpt>
      <trkpt lat="45.93017" lon="4.72896">
        <ele>172</ele>
        <time>2018-11-15T11:27:34Z</time>
      </trkpt>
      <trkpt lat="45.93013" lon="4.72901">
        <ele>172</ele>
        <time>2018-11-15T11:27:35Z</time>
      </trkpt>
      <trkpt lat="45.93008" lon="4.72906">
        <ele>171</ele>
        <time>2018-11-15T11:27:36Z</time>
      </trkpt>
      <trkpt lat="45.93004" lon="4.72912">
        <ele>171</ele>
        <time>2018-11-15T11:27:37Z</time>
      </trkpt>
      <trkpt lat="45.93001" lon="4.72918">
        <ele>171</ele>
        <time>2018-11-15T11:27:38Z</time>
      </trkpt>
      <trkpt lat="45.92997" lon="4.72923">
        <ele>171</ele>
        <time>2018-11-15T11:27:39Z</time>
      </trkpt>
      <trkpt lat="45.92992" lon="4.72927">
        <ele>171</ele>
        <time>2018-11-15T11:27:40Z</time>
      </trkpt>
      <trkpt lat="45.92988" lon="4.72931">
        <ele>171</ele>
        <time>2018-11-15T11:27:41Z</time>
      </trkpt>
      <trkpt lat="45.92983" lon="4.72936">
        <ele>171</ele>
        <time>2018-11-15T11:27:42Z</time>
      </trkpt>
      <trkpt lat="45.9298" lon="4.7294">
        <ele>171</ele>
        <time>2018-11-15T11:27:43Z</time>
      </trkpt>
      <trkpt lat="45.92976" lon="4.72944">
        <ele>171</ele>
        <time>2018-11-15T11:27:44Z</time>
      </trkpt>
      <trkpt lat="45.92972" lon="4.72949">
        <ele>171</ele>
        <time>2018-11-15T11:27:45Z</time>
      </trkpt>
      <trkpt lat="45.92968" lon="4.72955">
        <ele>171</ele>
        <time>2018-11-15T11:27:46Z</time>
      </trkpt>
      <trkpt lat="45.92966" lon="4.7296">
        <ele>171</ele>
        <time>2018-11-15T11:27:47Z</time>
      </trkpt>
      <trkpt lat="45.92961" lon="4.72965">
        <ele>171</ele>
        <time>2018-11-15T11:27:48Z</time>
      </trkpt>
      <trkpt lat="45.92956" lon="4.72971">
        <ele>171</ele>
        <time>2018-11-15T11:27:49Z</time>
      </trkpt>
      <trkpt lat="45.92952" lon="4.72977">
        <ele>171</ele>
        <time>2018-11-15T11:27:50Z</time>
      </trkpt>
      <trkpt lat="45.92947" lon="4.72981">
        <ele>171</ele>
        <time>2018-11-15T11:27:51Z</time>
      </trkpt>
      <trkpt lat="45.92943" lon="4.72986">
        <ele>171</ele>
        <time>2018-11-15T11:27:52Z</time>
      </trkpt>
      <trkpt lat="45.92939" lon="4.72991">
        <ele>171</ele>
        <time>2018-11-15T11:27:53Z</time>
      </trkpt>
      <trkpt lat="45.92935" lon="4.72995">
        <ele>172</ele>
        <time>2018-11-15T11:27:54Z</time>
      </trkpt>
      <trkpt lat="45.92931" lon="4.73">
        <ele>172</ele>
        <time>2018-11-15T11:27:55Z</time>
      </trkpt>
      <trkpt lat="45.92927" lon="4.73004">
        <ele>172</ele>
        <time>2018-11-15T11:27:56Z</time>
      </trkpt>
      <trkpt lat="45.92923" lon="4.7301">
        <ele>172</ele>
        <time>2018-11-15T11:27:57Z</time>
      </trkpt>
      <trkpt lat="45.92919" lon="4.73016">
        <ele>172</ele>
        <time>2018-11-15T11:27:58Z</time>
      </trkpt>
      <trkpt lat="45.92915" lon="4.7302">
        <ele>172</ele>
        <time>2018-11-15T11:27:59Z</time>
      </trkpt>
      <trkpt lat="45.92911" lon="4.73026">
        <ele>172</ele>
        <time>2018-11-15T11:28:00Z</time>
      </trkpt>
      <trkpt lat="45.92907" lon="4.73031">
        <ele>172</ele>
        <time>2018-11-15T11:28:01Z</time>
      </trkpt>
      <trkpt lat="45.92902" lon="4.73037">
        <ele>172</ele>
        <time>2018-11-15T11:28:02Z</time>
      </trkpt>
      <trkpt lat="45.92898" lon="4.73043">
        <ele>172</ele>
        <time>2018-11-15T11:28:03Z</time>
      </trkpt>
      <trkpt lat="45.92895" lon="4.73049">
        <ele>172</ele>
        <time>2018-11-15T11:28:04Z</time>
      </trkpt>
      <trkpt lat="45.92891" lon="4.73054">
        <ele>172</ele>
        <time>2018-11-15T11:28:05Z</time>
      </trkpt>
      <trkpt lat="45.92887" lon="4.7306">
        <ele>172</ele>
        <time>2018-11-15T11:28:06Z</time>
      </trkpt>
      <trkpt lat="45.92883" lon="4.73065">
        <ele>172</ele>
        <time>2018-11-15T11:28:07Z</time>
      </trkpt>
      <trkpt lat="45.9288" lon="4.7307">
        <ele>172</ele>
        <time>2018-11-15T11:28:08Z</time>
      </trkpt>
      <trkpt lat="45.92875" lon="4.73075">
        <ele>172</ele>
        <time>2018-11-15T11:28:09Z</time>
      </trkpt>
      <trkpt lat="45.92872" lon="4.7308">
        <ele>172</ele>
        <time>2018-11-15T11:28:10Z</time>
      </trkpt>
      <trkpt lat="45.92869" lon="4.73086">
        <ele>172</ele>
        <time>2018-11-15T11:28:11Z</time>
      </trkpt>
      <trkpt lat="45.92864" lon="4.73091">
        <ele>171</ele>
        <time>2018-11-15T11:28:12Z</time>
      </trkpt>
      <trkpt lat="45.92861" lon="4.73096">
        <ele>171</ele>
        <time>2018-11-15T11:28:13Z</time>
      </trkpt>
      <trkpt lat="45.92857" lon="4.731">
        <ele>171</ele>
        <time>2018-11-15T11:28:14Z</time>
      </trkpt>
      <trkpt lat="45.92852" lon="4.73102">
        <ele>171</ele>
        <time>2018-11-15T11:28:16Z</time>
      </trkpt>
      <trkpt lat="45.92847" lon="4.73098">
        <ele>171</ele>
        <time>2018-11-15T11:28:17Z</time>
      </trkpt>
      <trkpt lat="45.92846" lon="4.73087">
        <ele>171</ele>
        <time>2018-11-15T11:28:19Z</time>
      </trkpt>
      <trkpt lat="45.92845" lon="4.73081">
        <ele>171</ele>
        <time>2018-11-15T11:28:20Z</time>
      </trkpt>
      <trkpt lat="45.92845" lon="4.73074">
        <ele>171</ele>
        <time>2018-11-15T11:28:21Z</time>
      </trkpt>
      <trkpt lat="45.92843" lon="4.73067">
        <ele>171</ele>
        <time>2018-11-15T11:28:22Z</time>
      </trkpt>
      <trkpt lat="45.92843" lon="4.7306">
        <ele>171</ele>
        <time>2018-11-15T11:28:23Z</time>
      </trkpt>
      <trkpt lat="45.92842" lon="4.73052">
        <ele>171</ele>
        <time>2018-11-15T11:28:24Z</time>
      </trkpt>
      <trkpt lat="45.92839" lon="4.73046">
        <ele>171</ele>
        <time>2018-11-15T11:28:25Z</time>
      </trkpt>
      <trkpt lat="45.92838" lon="4.73038">
        <ele>171</ele>
        <time>2018-11-15T11:28:26Z</time>
      </trkpt>
      <trkpt lat="45.92836" lon="4.7303">
        <ele>171</ele>
        <time>2018-11-15T11:28:27Z</time>
      </trkpt>
      <trkpt lat="45.92835" lon="4.73025">
        <ele>171</ele>
        <time>2018-11-15T11:28:28Z</time>
      </trkpt>
      <trkpt lat="45.92834" lon="4.73013">
        <ele>171</ele>
        <time>2018-11-15T11:28:30Z</time>
      </trkpt>
      <trkpt lat="45.92833" lon="4.73007">
        <ele>170</ele>
        <time>2018-11-15T11:28:31Z</time>
      </trkpt>
      <trkpt lat="45.92833" lon="4.73001">
        <ele>170</ele>
        <time>2018-11-15T11:28:32Z</time>
      </trkpt>
      <trkpt lat="45.92832" lon="4.72993">
        <ele>170</ele>
        <time>2018-11-15T11:28:33Z</time>
      </trkpt>
      <trkpt lat="45.92831" lon="4.72986">
        <ele>170</ele>
        <time>2018-11-15T11:28:34Z</time>
      </trkpt>
      <trkpt lat="45.92831" lon="4.72978">
        <ele>170</ele>
        <time>2018-11-15T11:28:35Z</time>
      </trkpt>
      <trkpt lat="45.9283" lon="4.72969">
        <ele>170</ele>
        <time>2018-11-15T11:28:36Z</time>
      </trkpt>
      <trkpt lat="45.9283" lon="4.7296">
        <ele>170</ele>
        <time>2018-11-15T11:28:37Z</time>
      </trkpt>
      <trkpt lat="45.92829" lon="4.72953">
        <ele>170</ele>
        <time>2018-11-15T11:28:38Z</time>
      </trkpt>
      <trkpt lat="45.92828" lon="4.72946">
        <ele>170</ele>
        <time>2018-11-15T11:28:39Z</time>
      </trkpt>
      <trkpt lat="45.92827" lon="4.72939">
        <ele>170</ele>
        <time>2018-11-15T11:28:40Z</time>
      </trkpt>
      <trkpt lat="45.92827" lon="4.72933">
        <ele>170</ele>
        <time>2018-11-15T11:28:41Z</time>
      </trkpt>
      <trkpt lat="45.92826" lon="4.72925">
        <ele>170</ele>
        <time>2018-11-15T11:28:42Z</time>
      </trkpt>
      <trkpt lat="45.92826" lon="4.72919">
        <ele>170</ele>
        <time>2018-11-15T11:28:43Z</time>
      </trkpt>
      <trkpt lat="45.92824" lon="4.72907">
        <ele>170</ele>
        <time>2018-11-15T11:28:45Z</time>
      </trkpt>
      <trkpt lat="45.92823" lon="4.72901">
        <ele>170</ele>
        <time>2018-11-15T11:28:46Z</time>
      </trkpt>
      <trkpt lat="45.92822" lon="4.72895">
        <ele>170</ele>
        <time>2018-11-15T11:28:47Z</time>
      </trkpt>
      <trkpt lat="45.92821" lon="4.72888">
        <ele>170</ele>
        <time>2018-11-15T11:28:48Z</time>
      </trkpt>
      <trkpt lat="45.9282" lon="4.72881">
        <ele>170</ele>
        <time>2018-11-15T11:28:49Z</time>
      </trkpt>
      <trkpt lat="45.92819" lon="4.72875">
        <ele>170</ele>
        <time>2018-11-15T11:28:50Z</time>
      </trkpt>
      <trkpt lat="45.92818" lon="4.72868">
        <ele>170</ele>
        <time>2018-11-15T11:28:51Z</time>
      </trkpt>
      <trkpt lat="45.92817" lon="4.72862">
        <ele>170</ele>
        <time>2018-11-15T11:28:52Z</time>
      </trkpt>
      <trkpt lat="45.92815" lon="4.72849">
        <ele>170</ele>
        <time>2018-11-15T11:28:54Z</time>
      </trkpt>
      <trkpt lat="45.92814" lon="4.72844">
        <ele>170</ele>
        <time>2018-11-15T11:28:55Z</time>
      </trkpt>
      <trkpt lat="45.92812" lon="4.72837">
        <ele>170</ele>
        <time>2018-11-15T11:28:56Z</time>
      </trkpt>
      <trkpt lat="45.92811" lon="4.7283">
        <ele>171</ele>
        <time>2018-11-15T11:28:57Z</time>
      </trkpt>
      <trkpt lat="45.9281" lon="4.72824">
        <ele>171</ele>
        <time>2018-11-15T11:28:58Z</time>
      </trkpt>
      <trkpt lat="45.92809" lon="4.72817">
        <ele>171</ele>
        <time>2018-11-15T11:28:59Z</time>
      </trkpt>
      <trkpt lat="45.92808" lon="4.7281">
        <ele>171</ele>
        <time>2018-11-15T11:29:00Z</time>
      </trkpt>
      <trkpt lat="45.92807" lon="4.72802">
        <ele>171</ele>
        <time>2018-11-15T11:29:01Z</time>
      </trkpt>
      <trkpt lat="45.92804" lon="4.72792">
        <ele>171</ele>
        <time>2018-11-15T11:29:03Z</time>
      </trkpt>
      <trkpt lat="45.92801" lon="4.72788">
        <ele>171</ele>
        <time>2018-11-15T11:29:04Z</time>
      </trkpt>
      <trkpt lat="45.92796" lon="4.72788">
        <ele>171</ele>
        <time>2018-11-15T11:29:06Z</time>
      </trkpt>
      <trkpt lat="45.92791" lon="4.72791">
        <ele>171</ele>
        <time>2018-11-15T11:29:07Z</time>
      </trkpt>
      <trkpt lat="45.92784" lon="4.72796">
        <ele>170</ele>
        <time>2018-11-15T11:29:09Z</time>
      </trkpt>
      <trkpt lat="45.9278" lon="4.72798">
        <ele>170</ele>
        <time>2018-11-15T11:29:10Z</time>
      </trkpt>
      <trkpt lat="45.92776" lon="4.728">
        <ele>170</ele>
        <time>2018-11-15T11:29:11Z</time>
      </trkpt>
      <trkpt lat="45.92772" lon="4.72804">
        <ele>170</ele>
        <time>2018-11-15T11:29:12Z</time>
      </trkpt>
      <trkpt lat="45.92767" lon="4.72807">
        <ele>170</ele>
        <time>2018-11-15T11:29:13Z</time>
      </trkpt>
      <trkpt lat="45.92762" lon="4.72811">
        <ele>170</ele>
        <time>2018-11-15T11:29:14Z</time>
      </trkpt>
      <trkpt lat="45.92758" lon="4.72813">
        <ele>170</ele>
        <time>2018-11-15T11:29:15Z</time>
      </trkpt>
      <trkpt lat="45.92753" lon="4.72817">
        <ele>170</ele>
        <time>2018-11-15T11:29:16Z</time>
      </trkpt>
      <trkpt lat="45.92748" lon="4.7282">
        <ele>169</ele>
        <time>2018-11-15T11:29:17Z</time>
      </trkpt>
      <trkpt lat="45.92744" lon="4.72824">
        <ele>169</ele>
        <time>2018-11-15T11:29:18Z</time>
      </trkpt>
      <trkpt lat="45.9274" lon="4.72828">
        <ele>169</ele>
        <time>2018-11-15T11:29:19Z</time>
      </trkpt>
      <trkpt lat="45.92735" lon="4.72831">
        <ele>169</ele>
        <time>2018-11-15T11:29:20Z</time>
      </trkpt>
      <trkpt lat="45.92728" lon="4.72837">
        <ele>169</ele>
        <time>2018-11-15T11:29:22Z</time>
      </trkpt>
      <trkpt lat="45.92724" lon="4.72839">
        <ele>169</ele>
        <time>2018-11-15T11:29:23Z</time>
      </trkpt>
      <trkpt lat="45.92717" lon="4.72845">
        <ele>169</ele>
        <time>2018-11-15T11:29:25Z</time>
      </trkpt>
      <trkpt lat="45.92713" lon="4.72847">
        <ele>169</ele>
        <time>2018-11-15T11:29:26Z</time>
      </trkpt>
      <trkpt lat="45.92705" lon="4.72852">
        <ele>169</ele>
        <time>2018-11-15T11:29:28Z</time>
      </trkpt>
      <trkpt lat="45.92702" lon="4.72855">
        <ele>169</ele>
        <time>2018-11-15T11:29:29Z</time>
      </trkpt>
      <trkpt lat="45.92697" lon="4.72858">
        <ele>169</ele>
        <time>2018-11-15T11:29:30Z</time>
      </trkpt>
      <trkpt lat="45.92693" lon="4.72861">
        <ele>169</ele>
        <time>2018-11-15T11:29:31Z</time>
      </trkpt>
      <trkpt lat="45.92689" lon="4.72864">
        <ele>169</ele>
        <time>2018-11-15T11:29:32Z</time>
      </trkpt>
      <trkpt lat="45.92685" lon="4.72868">
        <ele>169</ele>
        <time>2018-11-15T11:29:33Z</time>
      </trkpt>
      <trkpt lat="45.92681" lon="4.72872">
        <ele>169</ele>
        <time>2018-11-15T11:29:34Z</time>
      </trkpt>
      <trkpt lat="45.92676" lon="4.72875">
        <ele>170</ele>
        <time>2018-11-15T11:29:35Z</time>
      </trkpt>
      <trkpt lat="45.92672" lon="4.72879">
        <ele>170</ele>
        <time>2018-11-15T11:29:36Z</time>
      </trkpt>
      <trkpt lat="45.92667" lon="4.72882">
        <ele>170</ele>
        <time>2018-11-15T11:29:37Z</time>
      </trkpt>
      <trkpt lat="45.92662" lon="4.72885">
        <ele>169</ele>
        <time>2018-11-15T11:29:38Z</time>
      </trkpt>
      <trkpt lat="45.92658" lon="4.72889">
        <ele>169</ele>
        <time>2018-11-15T11:29:39Z</time>
      </trkpt>
      <trkpt lat="45.92653" lon="4.72893">
        <ele>169</ele>
        <time>2018-11-15T11:29:40Z</time>
      </trkpt>
      <trkpt lat="45.92648" lon="4.72896">
        <ele>169</ele>
        <time>2018-11-15T11:29:41Z</time>
      </trkpt>
      <trkpt lat="45.92644" lon="4.729">
        <ele>169</ele>
        <time>2018-11-15T11:29:42Z</time>
      </trkpt>
      <trkpt lat="45.92639" lon="4.72904">
        <ele>169</ele>
        <time>2018-11-15T11:29:43Z</time>
      </trkpt>
      <trkpt lat="45.92634" lon="4.72908">
        <ele>169</ele>
        <time>2018-11-15T11:29:44Z</time>
      </trkpt>
      <trkpt lat="45.92629" lon="4.72912">
        <ele>169</ele>
        <time>2018-11-15T11:29:45Z</time>
      </trkpt>
      <trkpt lat="45.92624" lon="4.72916">
        <ele>169</ele>
        <time>2018-11-15T11:29:46Z</time>
      </trkpt>
      <trkpt lat="45.92619" lon="4.72921">
        <ele>169</ele>
        <time>2018-11-15T11:29:47Z</time>
      </trkpt>
      <trkpt lat="45.92615" lon="4.72925">
        <ele>169</ele>
        <time>2018-11-15T11:29:48Z</time>
      </trkpt>
      <trkpt lat="45.9261" lon="4.72929">
        <ele>169</ele>
        <time>2018-11-15T11:29:49Z</time>
      </trkpt>
      <trkpt lat="45.92605" lon="4.72934">
        <ele>169</ele>
        <time>2018-11-15T11:29:50Z</time>
      </trkpt>
      <trkpt lat="45.926" lon="4.72938">
        <ele>169</ele>
        <time>2018-11-15T11:29:51Z</time>
      </trkpt>
      <trkpt lat="45.92596" lon="4.72943">
        <ele>169</ele>
        <time>2018-11-15T11:29:52Z</time>
      </trkpt>
      <trkpt lat="45.92591" lon="4.72948">
        <ele>169</ele>
        <time>2018-11-15T11:29:53Z</time>
      </trkpt>
      <trkpt lat="45.92588" lon="4.72952">
        <ele>169</ele>
        <time>2018-11-15T11:29:54Z</time>
      </trkpt>
      <trkpt lat="45.92584" lon="4.72957">
        <ele>169</ele>
        <time>2018-11-15T11:29:55Z</time>
      </trkpt>
      <trkpt lat="45.9258" lon="4.72961">
        <ele>169</ele>
        <time>2018-11-15T11:29:56Z</time>
      </trkpt>
      <trkpt lat="45.92576" lon="4.72965">
        <ele>169</ele>
        <time>2018-11-15T11:29:57Z</time>
      </trkpt>
      <trkpt lat="45.92572" lon="4.72969">
        <ele>169</ele>
        <time>2018-11-15T11:29:58Z</time>
      </trkpt>
      <trkpt lat="45.92568" lon="4.72974">
        <ele>169</ele>
        <time>2018-11-15T11:29:59Z</time>
      </trkpt>
      <trkpt lat="45.92564" lon="4.72978">
        <ele>169</ele>
        <time>2018-11-15T11:30:00Z</time>
      </trkpt>
      <trkpt lat="45.9256" lon="4.72983">
        <ele>169</ele>
        <time>2018-11-15T11:30:01Z</time>
      </trkpt>
      <trkpt lat="45.92556" lon="4.72987">
        <ele>169</ele>
        <time>2018-11-15T11:30:02Z</time>
      </trkpt>
      <trkpt lat="45.92552" lon="4.72992">
        <ele>169</ele>
        <time>2018-11-15T11:30:03Z</time>
      </trkpt>
      <trkpt lat="45.92548" lon="4.72996">
        <ele>169</ele>
        <time>2018-11-15T11:30:04Z</time>
      </trkpt>
      <trkpt lat="45.92543" lon="4.72999">
        <ele>169</ele>
        <time>2018-11-15T11:30:05Z</time>
      </trkpt>
      <trkpt lat="45.92539" lon="4.73003">
        <ele>169</ele>
        <time>2018-11-15T11:30:06Z</time>
      </trkpt>
      <trkpt lat="45.92536" lon="4.73008">
        <ele>169</ele>
        <time>2018-11-15T11:30:07Z</time>
      </trkpt>
      <trkpt lat="45.92532" lon="4.73013">
        <ele>169</ele>
        <time>2018-11-15T11:30:08Z</time>
      </trkpt>
      <trkpt lat="45.92527" lon="4.73018">
        <ele>169</ele>
        <time>2018-11-15T11:30:09Z</time>
      </trkpt>
      <trkpt lat="45.92522" lon="4.73022">
        <ele>169</ele>
        <time>2018-11-15T11:30:10Z</time>
      </trkpt>
      <trkpt lat="45.92517" lon="4.73027">
        <ele>169</ele>
        <time>2018-11-15T11:30:11Z</time>
      </trkpt>
      <trkpt lat="45.92513" lon="4.7303">
        <ele>169</ele>
        <time>2018-11-15T11:30:12Z</time>
      </trkpt>
      <trkpt lat="45.92508" lon="4.73034">
        <ele>169</ele>
        <time>2018-11-15T11:30:13Z</time>
      </trkpt>
      <trkpt lat="45.92503" lon="4.73039">
        <ele>169</ele>
        <time>2018-11-15T11:30:14Z</time>
      </trkpt>
      <trkpt lat="45.92498" lon="4.73042">
        <ele>170</ele>
        <time>2018-11-15T11:30:15Z</time>
      </trkpt>
      <trkpt lat="45.92494" lon="4.73046">
        <ele>170</ele>
        <time>2018-11-15T11:30:16Z</time>
      </trkpt>
      <trkpt lat="45.92489" lon="4.7305">
        <ele>170</ele>
        <time>2018-11-15T11:30:17Z</time>
      </trkpt>
      <trkpt lat="45.92485" lon="4.73053">
        <ele>170</ele>
        <time>2018-11-15T11:30:18Z</time>
      </trkpt>
      <trkpt lat="45.92481" lon="4.73059">
        <ele>170</ele>
        <time>2018-11-15T11:30:19Z</time>
      </trkpt>
      <trkpt lat="45.92474" lon="4.73066">
        <ele>170</ele>
        <time>2018-11-15T11:30:21Z</time>
      </trkpt>
      <trkpt lat="45.92471" lon="4.73068">
        <ele>170</ele>
        <time>2018-11-15T11:30:22Z</time>
      </trkpt>
      <trkpt lat="45.92467" lon="4.73072">
        <ele>170</ele>
        <time>2018-11-15T11:30:23Z</time>
      </trkpt>
      <trkpt lat="45.92464" lon="4.73077">
        <ele>170</ele>
        <time>2018-11-15T11:30:24Z</time>
      </trkpt>
      <trkpt lat="45.9246" lon="4.7308">
        <ele>170</ele>
        <time>2018-11-15T11:30:25Z</time>
      </trkpt>
      <trkpt lat="45.92455" lon="4.73084">
        <ele>170</ele>
        <time>2018-11-15T11:30:26Z</time>
      </trkpt>
      <trkpt lat="45.92451" lon="4.73087">
        <ele>170</ele>
        <time>2018-11-15T11:30:27Z</time>
      </trkpt>
      <trkpt lat="45.92448" lon="4.7309">
        <ele>170</ele>
        <time>2018-11-15T11:30:28Z</time>
      </trkpt>
      <trkpt lat="45.92443" lon="4.73093">
        <ele>170</ele>
        <time>2018-11-15T11:30:29Z</time>
      </trkpt>
      <trkpt lat="45.92439" lon="4.73096">
        <ele>170</ele>
        <time>2018-11-15T11:30:30Z</time>
      </trkpt>
      <trkpt lat="45.92435" lon="4.73099">
        <ele>171</ele>
        <time>2018-11-15T11:30:31Z</time>
      </trkpt>
      <trkpt lat="45.9243" lon="4.73102">
        <ele>171</ele>
        <time>2018-11-15T11:30:32Z</time>
      </trkpt>
      <trkpt lat="45.92423" lon="4.73108">
        <ele>171</ele>
        <time>2018-11-15T11:30:34Z</time>
      </trkpt>
      <trkpt lat="45.92419" lon="4.73111">
        <ele>170</ele>
        <time>2018-11-15T11:30:35Z</time>
      </trkpt>
      <trkpt lat="45.92412" lon="4.73116">
        <ele>171</ele>
        <time>2018-11-15T11:30:37Z</time>
      </trkpt>
      <trkpt lat="45.9241" lon="4.7312">
        <ele>171</ele>
        <time>2018-11-15T11:30:38Z</time>
      </trkpt>
      <trkpt lat="45.92407" lon="4.73131">
        <ele>171</ele>
        <time>2018-11-15T11:30:40Z</time>
      </trkpt>
      <trkpt lat="45.92407" lon="4.73138">
        <ele>171</ele>
        <time>2018-11-15T11:30:41Z</time>
      </trkpt>
      <trkpt lat="45.92407" lon="4.7315">
        <ele>171</ele>
        <time>2018-11-15T11:30:43Z</time>
      </trkpt>
      <trkpt lat="45.92407" lon="4.73157">
        <ele>170</ele>
        <time>2018-11-15T11:30:44Z</time>
      </trkpt>
      <trkpt lat="45.92407" lon="4.73163">
        <ele>170</ele>
        <time>2018-11-15T11:30:45Z</time>
      </trkpt>
      <trkpt lat="45.92407" lon="4.7317">
        <ele>170</ele>
        <time>2018-11-15T11:30:46Z</time>
      </trkpt>
      <trkpt lat="45.92407" lon="4.73177">
        <ele>171</ele>
        <time>2018-11-15T11:30:47Z</time>
      </trkpt>
      <trkpt lat="45.92406" lon="4.73184">
        <ele>171</ele>
        <time>2018-11-15T11:30:48Z</time>
      </trkpt>
      <trkpt lat="45.92407" lon="4.73191">
        <ele>171</ele>
        <time>2018-11-15T11:30:49Z</time>
      </trkpt>
      <trkpt lat="45.92407" lon="4.73198">
        <ele>171</ele>
        <time>2018-11-15T11:30:50Z</time>
      </trkpt>
      <trkpt lat="45.92408" lon="4.73205">
        <ele>171</ele>
        <time>2018-11-15T11:30:51Z</time>
      </trkpt>
      <trkpt lat="45.92408" lon="4.73213">
        <ele>171</ele>
        <time>2018-11-15T11:30:52Z</time>
      </trkpt>
      <trkpt lat="45.92409" lon="4.73219">
        <ele>171</ele>
        <time>2018-11-15T11:30:53Z</time>
      </trkpt>
      <trkpt lat="45.92409" lon="4.73226">
        <ele>171</ele>
        <time>2018-11-15T11:30:54Z</time>
      </trkpt>
      <trkpt lat="45.9241" lon="4.73233">
        <ele>171</ele>
        <time>2018-11-15T11:30:55Z</time>
      </trkpt>
      <trkpt lat="45.92409" lon="4.7324">
        <ele>171</ele>
        <time>2018-11-15T11:30:56Z</time>
      </trkpt>
      <trkpt lat="45.92409" lon="4.73247">
        <ele>171</ele>
        <time>2018-11-15T11:30:57Z</time>
      </trkpt>
      <trkpt lat="45.9241" lon="4.73254">
        <ele>171</ele>
        <time>2018-11-15T11:30:58Z</time>
      </trkpt>
      <trkpt lat="45.92411" lon="4.73261">
        <ele>171</ele>
        <time>2018-11-15T11:30:59Z</time>
      </trkpt>
      <trkpt lat="45.92411" lon="4.73269">
        <ele>171</ele>
        <time>2018-11-15T11:31:00Z</time>
      </trkpt>
      <trkpt lat="45.92412" lon="4.73276">
        <ele>171</ele>
        <time>2018-11-15T11:31:01Z</time>
      </trkpt>
      <trkpt lat="45.92412" lon="4.73283">
        <ele>171</ele>
        <time>2018-11-15T11:31:02Z</time>
      </trkpt>
      <trkpt lat="45.92412" lon="4.73296">
        <ele>171</ele>
        <time>2018-11-15T11:31:04Z</time>
      </trkpt>
      <trkpt lat="45.92413" lon="4.73304">
        <ele>171</ele>
        <time>2018-11-15T11:31:05Z</time>
      </trkpt>
      <trkpt lat="45.92414" lon="4.73309">
        <ele>171</ele>
        <time>2018-11-15T11:31:06Z</time>
      </trkpt>
      <trkpt lat="45.92415" lon="4.73317">
        <ele>171</ele>
        <time>2018-11-15T11:31:07Z</time>
      </trkpt>
      <trkpt lat="45.92415" lon="4.73323">
        <ele>171</ele>
        <time>2018-11-15T11:31:08Z</time>
      </trkpt>
      <trkpt lat="45.92415" lon="4.7333">
        <ele>171</ele>
        <time>2018-11-15T11:31:09Z</time>
      </trkpt>
      <trkpt lat="45.92416" lon="4.73336">
        <ele>171</ele>
        <time>2018-11-15T11:31:10Z</time>
      </trkpt>
      <trkpt lat="45.92417" lon="4.73343">
        <ele>171</ele>
        <time>2018-11-15T11:31:11Z</time>
      </trkpt>
      <trkpt lat="45.92419" lon="4.73355">
        <ele>171</ele>
        <time>2018-11-15T11:31:13Z</time>
      </trkpt>
      <trkpt lat="45.9242" lon="4.73361">
        <ele>172</ele>
        <time>2018-11-15T11:31:14Z</time>
      </trkpt>
      <trkpt lat="45.92422" lon="4.73373">
        <ele>172</ele>
        <time>2018-11-15T11:31:16Z</time>
      </trkpt>
      <trkpt lat="45.92422" lon="4.7338">
        <ele>172</ele>
        <time>2018-11-15T11:31:17Z</time>
      </trkpt>
      <trkpt lat="45.92424" lon="4.73388">
        <ele>172</ele>
        <time>2018-11-15T11:31:18Z</time>
      </trkpt>
      <trkpt lat="45.92426" lon="4.73393">
        <ele>172</ele>
        <time>2018-11-15T11:31:19Z</time>
      </trkpt>
      <trkpt lat="45.92428" lon="4.734">
        <ele>172</ele>
        <time>2018-11-15T11:31:20Z</time>
      </trkpt>
      <trkpt lat="45.92432" lon="4.73406">
        <ele>172</ele>
        <time>2018-11-15T11:31:21Z</time>
      </trkpt>
      <trkpt lat="45.92436" lon="4.73409">
        <ele>172</ele>
        <time>2018-11-15T11:31:22Z</time>
      </trkpt>
      <trkpt lat="45.9244" lon="4.73414">
        <ele>172</ele>
        <time>2018-11-15T11:31:23Z</time>
      </trkpt>
      <trkpt lat="45.92444" lon="4.73418">
        <ele>173</ele>
        <time>2018-11-15T11:31:24Z</time>
      </trkpt>
      <trkpt lat="45.92449" lon="4.73422">
        <ele>173</ele>
        <time>2018-11-15T11:31:25Z</time>
      </trkpt>
      <trkpt lat="45.92453" lon="4.73427">
        <ele>173</ele>
        <time>2018-11-15T11:31:26Z</time>
      </trkpt>
      <trkpt lat="45.92457" lon="4.73431">
        <ele>173</ele>
        <time>2018-11-15T11:31:27Z</time>
      </trkpt>
      <trkpt lat="45.9246" lon="4.73436">
        <ele>173</ele>
        <time>2018-11-15T11:31:28Z</time>
      </trkpt>
      <trkpt lat="45.92464" lon="4.73443">
        <ele>173</ele>
        <time>2018-11-15T11:31:29Z</time>
      </trkpt>
      <trkpt lat="45.92467" lon="4.73448">
        <ele>173</ele>
        <time>2018-11-15T11:31:30Z</time>
      </trkpt>
      <trkpt lat="45.92468" lon="4.73456">
        <ele>173</ele>
        <time>2018-11-15T11:31:31Z</time>
      </trkpt>
      <trkpt lat="45.92472" lon="4.73465">
        <ele>173</ele>
        <time>2018-11-15T11:31:32Z</time>
      </trkpt>
      <trkpt lat="45.92472" lon="4.73471">
        <ele>173</ele>
        <time>2018-11-15T11:31:33Z</time>
      </trkpt>
      <trkpt lat="45.92472" lon="4.73479">
        <ele>173</ele>
        <time>2018-11-15T11:31:34Z</time>
      </trkpt>
      <trkpt lat="45.92471" lon="4.73485">
        <ele>173</ele>
        <time>2018-11-15T11:31:35Z</time>
      </trkpt>
      <trkpt lat="45.92471" lon="4.73497">
        <ele>173</ele>
        <time>2018-11-15T11:31:37Z</time>
      </trkpt>
      <trkpt lat="45.92471" lon="4.73505">
        <ele>174</ele>
        <time>2018-11-15T11:31:38Z</time>
      </trkpt>
      <trkpt lat="45.92471" lon="4.73512">
        <ele>174</ele>
        <time>2018-11-15T11:31:39Z</time>
      </trkpt>
      <trkpt lat="45.92471" lon="4.73518">
        <ele>174</ele>
        <time>2018-11-15T11:31:40Z</time>
      </trkpt>
      <trkpt lat="45.92472" lon="4.73529">
        <ele>174</ele>
        <time>2018-11-15T11:31:42Z</time>
      </trkpt>
      <trkpt lat="45.9247" lon="4.73536">
        <ele>174</ele>
        <time>2018-11-15T11:31:43Z</time>
      </trkpt>
      <trkpt lat="45.92469" lon="4.73546">
        <ele>173</ele>
        <time>2018-11-15T11:31:45Z</time>
      </trkpt>
      <trkpt lat="45.92469" lon="4.73551">
        <ele>173</ele>
        <time>2018-11-15T11:31:46Z</time>
      </trkpt>
      <trkpt lat="45.92467" lon="4.73561">
        <ele>173</ele>
        <time>2018-11-15T11:31:48Z</time>
      </trkpt>
      <trkpt lat="45.92467" lon="4.73569">
        <ele>173</ele>
        <time>2018-11-15T11:31:49Z</time>
      </trkpt>
      <trkpt lat="45.92467" lon="4.73576">
        <ele>173</ele>
        <time>2018-11-15T11:31:50Z</time>
      </trkpt>
      <trkpt lat="45.92468" lon="4.73583">
        <ele>173</ele>
        <time>2018-11-15T11:31:51Z</time>
      </trkpt>
      <trkpt lat="45.92469" lon="4.73591">
        <ele>174</ele>
        <time>2018-11-15T11:31:52Z</time>
      </trkpt>
      <trkpt lat="45.92469" lon="4.73599">
        <ele>174</ele>
        <time>2018-11-15T11:31:53Z</time>
      </trkpt>
      <trkpt lat="45.92469" lon="4.73606">
        <ele>174</ele>
        <time>2018-11-15T11:31:54Z</time>
      </trkpt>
      <trkpt lat="45.92469" lon="4.73613">
        <ele>174</ele>
        <time>2018-11-15T11:31:55Z</time>
      </trkpt>
      <trkpt lat="45.92469" lon="4.7362">
        <ele>174</ele>
        <time>2018-11-15T11:31:56Z</time>
      </trkpt>
      <trkpt lat="45.92469" lon="4.73626">
        <ele>174</ele>
        <time>2018-11-15T11:31:57Z</time>
      </trkpt>
      <trkpt lat="45.92469" lon="4.73634">
        <ele>174</ele>
        <time>2018-11-15T11:31:58Z</time>
      </trkpt>
      <trkpt lat="45.9247" lon="4.7364">
        <ele>174</ele>
        <time>2018-11-15T11:31:59Z</time>
      </trkpt>
      <trkpt lat="45.92469" lon="4.73652">
        <ele>174</ele>
        <time>2018-11-15T11:32:01Z</time>
      </trkpt>
      <trkpt lat="45.92469" lon="4.73659">
        <ele>174</ele>
        <time>2018-11-15T11:32:02Z</time>
      </trkpt>
      <trkpt lat="45.92469" lon="4.7367">
        <ele>174</ele>
        <time>2018-11-15T11:32:04Z</time>
      </trkpt>
      <trkpt lat="45.92469" lon="4.73675">
        <ele>174</ele>
        <time>2018-11-15T11:32:05Z</time>
      </trkpt>
      <trkpt lat="45.92468" lon="4.73686">
        <ele>174</ele>
        <time>2018-11-15T11:32:07Z</time>
      </trkpt>
      <trkpt lat="45.92467" lon="4.73689">
        <ele>174</ele>
        <time>2018-11-15T11:32:08Z</time>
      </trkpt>
      <trkpt lat="45.92466" lon="4.737">
        <ele>174</ele>
        <time>2018-11-15T11:32:11Z</time>
      </trkpt>
      <trkpt lat="45.92465" lon="4.73704">
        <ele>174</ele>
        <time>2018-11-15T11:32:12Z</time>
      </trkpt>
      <trkpt lat="45.92458" lon="4.73713">
        <ele>174</ele>
        <time>2018-11-15T11:32:29Z</time>
      </trkpt>
      <trkpt lat="45.92458" lon="4.73712">
        <ele>174</ele>
        <time>2018-11-15T11:32:30Z</time>
      </trkpt>
      <trkpt lat="45.92459" lon="4.73712">
        <ele>174</ele>
        <time>2018-11-15T11:32:59.011Z</time>
      </trkpt>
    </trkseg>
  </trk>
</gpx>